<?xml version="1.0" encoding="UTF-8"?>
<gpx version="1.1" creator="https://www.youtrack.es" xsi:schemaLocation="http://www.topografix.com/GPX/1/1 http://www.topografix.com/GPX/1/1/gpx.xsd http://www.garmin.com/xmlschemas/GpxExtensions/v3 http://www.garmin.com/xmlschemas/GpxExtensionsv3.xsd http://www.garmin.com/xmlschemas/TrackPointExtension/v1 http://www.garmin.com/xmlschemas/TrackPointExtensionv1.xsd" xmlns:gpxtpx="http://www.garmin.com/xmlschemas/TrackPointExtension/v1" xmlns:gpxx="http://www.garmin.com/xmlschemas/GpxExtensions/v3" xmlns:xsi="http://www.w3.org/2001/XMLSchema-instance">
  <metadata>
    <link href="https://www.youtrack.es">
      <text>YouTrack.es</text>
    </link>
    <time>2026-05-08T00:27:36Z</time>
  </metadata>
  <trk>
    <src>https://www.youtrack.es</src>
    <link href="https://www.youtrack.es/ruta/37799-ride-de-cumple">
      <text>YouTrack.es</text>
    </link>
    <trkseg>
      <trkpt lat="41.472083" lon="2.0963949">
        <ele>103.83000183</ele>
        <time>2022-10-30T12:13:18Z</time>
      </trkpt>
      <trkpt lat="41.472069" lon="2.096356">
        <ele>103.86000061</ele>
        <time>2022-10-30T12:13:19Z</time>
      </trkpt>
      <trkpt lat="41.4720511" lon="2.0962931">
        <ele>103.81999969</ele>
        <time>2022-10-30T12:13:20Z</time>
      </trkpt>
      <trkpt lat="41.4720452" lon="2.0962521">
        <ele>103.80999756</ele>
        <time>2022-10-30T12:13:21Z</time>
      </trkpt>
      <trkpt lat="41.4720442" lon="2.0962132">
        <ele>103.8299942</ele>
        <time>2022-10-30T12:13:22Z</time>
      </trkpt>
      <trkpt lat="41.4720442" lon="2.0961762">
        <ele>103.8299942</ele>
        <time>2022-10-30T12:13:23Z</time>
      </trkpt>
      <trkpt lat="41.4720492" lon="2.0961233">
        <ele>103.8999939</ele>
        <time>2022-10-30T12:13:24Z</time>
      </trkpt>
      <trkpt lat="41.4720532" lon="2.0960843">
        <ele>103.96999359</ele>
        <time>2022-10-30T12:13:25Z</time>
      </trkpt>
      <trkpt lat="41.4720522" lon="2.0960384">
        <ele>103.98999023</ele>
        <time>2022-10-30T12:13:26Z</time>
      </trkpt>
      <trkpt lat="41.4720473" lon="2.0959904">
        <ele>103.98999023</ele>
        <time>2022-10-30T12:13:27Z</time>
      </trkpt>
      <trkpt lat="41.4720453" lon="2.0959204">
        <ele>104.03999329</ele>
        <time>2022-10-30T12:13:28Z</time>
      </trkpt>
      <trkpt lat="41.4720413" lon="2.0958735">
        <ele>104.04999542</ele>
        <time>2022-10-30T12:13:29Z</time>
      </trkpt>
      <trkpt lat="41.4720384" lon="2.0958315">
        <ele>104.06999207</ele>
        <time>2022-10-30T12:13:30Z</time>
      </trkpt>
      <trkpt lat="41.4720424" lon="2.0957886">
        <ele>104.06999207</ele>
        <time>2022-10-30T12:13:31Z</time>
      </trkpt>
      <trkpt lat="41.4720504" lon="2.0957476">
        <ele>104.08998871</ele>
        <time>2022-10-30T12:13:32Z</time>
      </trkpt>
      <trkpt lat="41.4720573" lon="2.0956957">
        <ele>104.17998505</ele>
        <time>2022-10-30T12:13:33Z</time>
      </trkpt>
      <trkpt lat="41.4720573" lon="2.0956537">
        <ele>104.17998505</ele>
        <time>2022-10-30T12:13:34Z</time>
      </trkpt>
      <trkpt lat="41.4720612" lon="2.0956187">
        <ele>104.18998718</ele>
        <time>2022-10-30T12:13:35Z</time>
      </trkpt>
      <trkpt lat="41.4720612" lon="2.0955707">
        <ele>104.18998718</ele>
        <time>2022-10-30T12:13:36Z</time>
      </trkpt>
      <trkpt lat="41.4720662" lon="2.0955097">
        <ele>104.19998932</ele>
        <time>2022-10-30T12:13:37Z</time>
      </trkpt>
      <trkpt lat="41.4720691" lon="2.0954587">
        <ele>104.25998688</ele>
        <time>2022-10-30T12:13:38Z</time>
      </trkpt>
      <trkpt lat="41.4720731" lon="2.0954128">
        <ele>104.41999054</ele>
        <time>2022-10-30T12:13:39Z</time>
      </trkpt>
      <trkpt lat="41.472079" lon="2.0953659">
        <ele>104.41999054</ele>
        <time>2022-10-30T12:13:40Z</time>
      </trkpt>
      <trkpt lat="41.4720819" lon="2.0953179">
        <ele>104.51998901</ele>
        <time>2022-10-30T12:13:41Z</time>
      </trkpt>
      <trkpt lat="41.472079" lon="2.0952289">
        <ele>104.56999207</ele>
        <time>2022-10-30T12:13:42Z</time>
      </trkpt>
      <trkpt lat="41.472075" lon="2.0951639">
        <ele>104.69998932</ele>
        <time>2022-10-30T12:13:43Z</time>
      </trkpt>
      <trkpt lat="41.4720741" lon="2.095099">
        <ele>104.82998657</ele>
        <time>2022-10-30T12:13:44Z</time>
      </trkpt>
      <trkpt lat="41.4720791" lon="2.095029">
        <ele>104.87998962</ele>
        <time>2022-10-30T12:13:45Z</time>
      </trkpt>
      <trkpt lat="41.4720931" lon="2.094938">
        <ele>104.96998596</ele>
        <time>2022-10-30T12:13:46Z</time>
      </trkpt>
      <trkpt lat="41.4720981" lon="2.0948801">
        <ele>105.01998901</ele>
        <time>2022-10-30T12:13:47Z</time>
      </trkpt>
      <trkpt lat="41.47211" lon="2.0948281">
        <ele>105.06999207</ele>
        <time>2022-10-30T12:13:48Z</time>
      </trkpt>
      <trkpt lat="41.4721189" lon="2.0947671">
        <ele>105.11999512</ele>
        <time>2022-10-30T12:13:49Z</time>
      </trkpt>
      <trkpt lat="41.4721289" lon="2.0947001">
        <ele>105.11999512</ele>
        <time>2022-10-30T12:13:50Z</time>
      </trkpt>
      <trkpt lat="41.4721418" lon="2.0945972">
        <ele>105.12999725</ele>
        <time>2022-10-30T12:13:51Z</time>
      </trkpt>
      <trkpt lat="41.4721518" lon="2.0945282">
        <ele>105.21999359</ele>
        <time>2022-10-30T12:13:52Z</time>
      </trkpt>
      <trkpt lat="41.4721598" lon="2.0944713">
        <ele>105.21999359</ele>
        <time>2022-10-30T12:13:53Z</time>
      </trkpt>
      <trkpt lat="41.4721647" lon="2.0944144">
        <ele>105.33999634</ele>
        <time>2022-10-30T12:13:54Z</time>
      </trkpt>
      <trkpt lat="41.4721717" lon="2.0943335">
        <ele>105.47999573</ele>
        <time>2022-10-30T12:13:55Z</time>
      </trkpt>
      <trkpt lat="41.4721756" lon="2.0942715">
        <ele>105.47999573</ele>
        <time>2022-10-30T12:13:56Z</time>
      </trkpt>
      <trkpt lat="41.4721776" lon="2.0942166">
        <ele>105.58999634</ele>
        <time>2022-10-30T12:13:57Z</time>
      </trkpt>
      <trkpt lat="41.4721747" lon="2.0941536">
        <ele>105.63999939</ele>
        <time>2022-10-30T12:13:58Z</time>
      </trkpt>
      <trkpt lat="41.4721738" lon="2.0940937">
        <ele>105.94999695</ele>
        <time>2022-10-30T12:13:59Z</time>
      </trkpt>
      <trkpt lat="41.4721679" lon="2.0939958">
        <ele>105.94999695</ele>
        <time>2022-10-30T12:14:00Z</time>
      </trkpt>
      <trkpt lat="41.4721639" lon="2.0939359">
        <ele>106.0799942</ele>
        <time>2022-10-30T12:14:01Z</time>
      </trkpt>
      <trkpt lat="41.47216" lon="2.093874">
        <ele>106.27999115</ele>
        <time>2022-10-30T12:14:02Z</time>
      </trkpt>
      <trkpt lat="41.472153" lon="2.093802">
        <ele>106.42999268</ele>
        <time>2022-10-30T12:14:03Z</time>
      </trkpt>
      <trkpt lat="41.472142" lon="2.0936901">
        <ele>106.48999023</ele>
        <time>2022-10-30T12:14:04Z</time>
      </trkpt>
      <trkpt lat="41.4721361" lon="2.0936201">
        <ele>106.48999023</ele>
        <time>2022-10-30T12:14:05Z</time>
      </trkpt>
      <trkpt lat="41.4721332" lon="2.0935521">
        <ele>106.51998901</ele>
        <time>2022-10-30T12:14:06Z</time>
      </trkpt>
      <trkpt lat="41.4721273" lon="2.0934821">
        <ele>106.55998993</ele>
        <time>2022-10-30T12:14:07Z</time>
      </trkpt>
      <trkpt lat="41.4721214" lon="2.0934141">
        <ele>106.81999207</ele>
        <time>2022-10-30T12:14:08Z</time>
      </trkpt>
      <trkpt lat="41.4721155" lon="2.0933172">
        <ele>106.81999207</ele>
        <time>2022-10-30T12:14:09Z</time>
      </trkpt>
      <trkpt lat="41.4721194" lon="2.0932622">
        <ele>106.97999573</ele>
        <time>2022-10-30T12:14:10Z</time>
      </trkpt>
      <trkpt lat="41.4721144" lon="2.0932033">
        <ele>108.19999695</ele>
        <time>2022-10-30T12:14:11Z</time>
      </trkpt>
      <trkpt lat="41.4721135" lon="2.0931413">
        <ele>108.28999329</ele>
        <time>2022-10-30T12:14:12Z</time>
      </trkpt>
      <trkpt lat="41.4721096" lon="2.0930604">
        <ele>108.42999268</ele>
        <time>2022-10-30T12:14:13Z</time>
      </trkpt>
      <trkpt lat="41.4720986" lon="2.0930074">
        <ele>108.42999268</ele>
        <time>2022-10-30T12:14:14Z</time>
      </trkpt>
      <trkpt lat="41.4720856" lon="2.0929425">
        <ele>108.52999115</ele>
        <time>2022-10-30T12:14:15Z</time>
      </trkpt>
      <trkpt lat="41.4720787" lon="2.0928736">
        <ele>108.58998871</ele>
        <time>2022-10-30T12:14:16Z</time>
      </trkpt>
      <trkpt lat="41.4720697" lon="2.0928106">
        <ele>108.7299881</ele>
        <time>2022-10-30T12:14:17Z</time>
      </trkpt>
      <trkpt lat="41.4720707" lon="2.0927097">
        <ele>108.93998718</ele>
        <time>2022-10-30T12:14:18Z</time>
      </trkpt>
      <trkpt lat="41.4720736" lon="2.0926427">
        <ele>109.04998779</ele>
        <time>2022-10-30T12:14:19Z</time>
      </trkpt>
      <trkpt lat="41.4720736" lon="2.0925727">
        <ele>109.25998688</ele>
        <time>2022-10-30T12:14:20Z</time>
      </trkpt>
      <trkpt lat="41.4720745" lon="2.0925027">
        <ele>109.35998535</ele>
        <time>2022-10-30T12:14:21Z</time>
      </trkpt>
      <trkpt lat="41.4720765" lon="2.0923918">
        <ele>109.44998169</ele>
        <time>2022-10-30T12:14:22Z</time>
      </trkpt>
      <trkpt lat="41.4720715" lon="2.0923169">
        <ele>109.56998444</ele>
        <time>2022-10-30T12:14:23Z</time>
      </trkpt>
      <trkpt lat="41.4720676" lon="2.0922359">
        <ele>109.59998322</ele>
        <time>2022-10-30T12:14:24Z</time>
      </trkpt>
      <trkpt lat="41.4720616" lon="2.092159">
        <ele>109.64998627</ele>
        <time>2022-10-30T12:14:25Z</time>
      </trkpt>
      <trkpt lat="41.4720626" lon="2.092084">
        <ele>109.66998291</ele>
        <time>2022-10-30T12:14:26Z</time>
      </trkpt>
      <trkpt lat="41.4720626" lon="2.0919611">
        <ele>109.66998291</ele>
        <time>2022-10-30T12:14:27Z</time>
      </trkpt>
      <trkpt lat="41.4720477" lon="2.0918862">
        <ele>109.64998627</ele>
        <time>2022-10-30T12:14:28Z</time>
      </trkpt>
      <trkpt lat="41.4720417" lon="2.0918162">
        <ele>109.64998627</ele>
        <time>2022-10-30T12:14:29Z</time>
      </trkpt>
      <trkpt lat="41.4720307" lon="2.0917462">
        <ele>109.60998535</ele>
        <time>2022-10-30T12:14:30Z</time>
      </trkpt>
      <trkpt lat="41.4720178" lon="2.0916342">
        <ele>109.56998444</ele>
        <time>2022-10-30T12:14:31Z</time>
      </trkpt>
      <trkpt lat="41.4720068" lon="2.0915702">
        <ele>109.53998566</ele>
        <time>2022-10-30T12:14:32Z</time>
      </trkpt>
      <trkpt lat="41.4720039" lon="2.0915053">
        <ele>109.49998474</ele>
        <time>2022-10-30T12:14:33Z</time>
      </trkpt>
      <trkpt lat="41.4719929" lon="2.0914343">
        <ele>109.49998474</ele>
        <time>2022-10-30T12:14:34Z</time>
      </trkpt>
      <trkpt lat="41.471984" lon="2.0913603">
        <ele>109.5599823</ele>
        <time>2022-10-30T12:14:35Z</time>
      </trkpt>
      <trkpt lat="41.471983" lon="2.0912483">
        <ele>109.57997894</ele>
        <time>2022-10-30T12:14:36Z</time>
      </trkpt>
      <trkpt lat="41.4719801" lon="2.0911774">
        <ele>109.64997864</ele>
        <time>2022-10-30T12:14:37Z</time>
      </trkpt>
      <trkpt lat="41.4719712" lon="2.0911054">
        <ele>109.60997772</ele>
        <time>2022-10-30T12:14:38Z</time>
      </trkpt>
      <trkpt lat="41.4719602" lon="2.0910185">
        <ele>109.60997772</ele>
        <time>2022-10-30T12:14:39Z</time>
      </trkpt>
      <trkpt lat="41.4719533" lon="2.0908995">
        <ele>109.59997559</ele>
        <time>2022-10-30T12:14:40Z</time>
      </trkpt>
      <trkpt lat="41.4719552" lon="2.0908096">
        <ele>109.51997375</ele>
        <time>2022-10-30T12:14:41Z</time>
      </trkpt>
      <trkpt lat="41.4719552" lon="2.0907316">
        <ele>109.4699707</ele>
        <time>2022-10-30T12:14:42Z</time>
      </trkpt>
      <trkpt lat="41.4719533" lon="2.0906527">
        <ele>109.43997192</ele>
        <time>2022-10-30T12:14:43Z</time>
      </trkpt>
      <trkpt lat="41.4719552" lon="2.0905868">
        <ele>109.43997192</ele>
        <time>2022-10-30T12:14:44Z</time>
      </trkpt>
      <trkpt lat="41.4719473" lon="2.0904818">
        <ele>109.50997162</ele>
        <time>2022-10-30T12:14:45Z</time>
      </trkpt>
      <trkpt lat="41.4719423" lon="2.0904099">
        <ele>109.62997437</ele>
        <time>2022-10-30T12:14:46Z</time>
      </trkpt>
      <trkpt lat="41.4719522" lon="2.0903479">
        <ele>109.62997437</ele>
        <time>2022-10-30T12:14:47Z</time>
      </trkpt>
      <trkpt lat="41.4719522" lon="2.090272">
        <ele>109.61997223</ele>
        <time>2022-10-30T12:14:48Z</time>
      </trkpt>
      <trkpt lat="41.4719403" lon="2.090163">
        <ele>109.60997009</ele>
        <time>2022-10-30T12:14:49Z</time>
      </trkpt>
      <trkpt lat="41.4719284" lon="2.0900971">
        <ele>109.57997131</ele>
        <time>2022-10-30T12:14:50Z</time>
      </trkpt>
      <trkpt lat="41.4719234" lon="2.0900481">
        <ele>109.57997131</ele>
        <time>2022-10-30T12:14:51Z</time>
      </trkpt>
      <trkpt lat="41.4719135" lon="2.0900092">
        <ele>109.59996796</ele>
        <time>2022-10-30T12:14:52Z</time>
      </trkpt>
      <trkpt lat="41.4719194" lon="2.0899572">
        <ele>109.48996735</ele>
        <time>2022-10-30T12:14:53Z</time>
      </trkpt>
      <trkpt lat="41.4719165" lon="2.0898633">
        <ele>109.48996735</ele>
        <time>2022-10-30T12:14:54Z</time>
      </trkpt>
      <trkpt lat="41.4719035" lon="2.0898004">
        <ele>109.59996796</ele>
        <time>2022-10-30T12:14:55Z</time>
      </trkpt>
      <trkpt lat="41.4719115" lon="2.0897454">
        <ele>109.69996643</ele>
        <time>2022-10-30T12:14:56Z</time>
      </trkpt>
      <trkpt lat="41.4719045" lon="2.0896855">
        <ele>109.88996887</ele>
        <time>2022-10-30T12:14:57Z</time>
      </trkpt>
      <trkpt lat="41.4718966" lon="2.0896286">
        <ele>109.97996521</ele>
        <time>2022-10-30T12:14:58Z</time>
      </trkpt>
      <trkpt lat="41.4718985" lon="2.0895416">
        <ele>109.97996521</ele>
        <time>2022-10-30T12:14:59Z</time>
      </trkpt>
      <trkpt lat="41.4719025" lon="2.0894817">
        <ele>110.02996826</ele>
        <time>2022-10-30T12:15:00Z</time>
      </trkpt>
      <trkpt lat="41.4719074" lon="2.0894117">
        <ele>110.09996796</ele>
        <time>2022-10-30T12:15:01Z</time>
      </trkpt>
      <trkpt lat="41.4719154" lon="2.0893388">
        <ele>110.17996979</ele>
        <time>2022-10-30T12:15:02Z</time>
      </trkpt>
      <trkpt lat="41.4719334" lon="2.0892309">
        <ele>110.33997345</ele>
        <time>2022-10-30T12:15:03Z</time>
      </trkpt>
      <trkpt lat="41.4719383" lon="2.0891439">
        <ele>110.43997192</ele>
        <time>2022-10-30T12:15:04Z</time>
      </trkpt>
      <trkpt lat="41.4719463" lon="2.089068">
        <ele>110.57997131</ele>
        <time>2022-10-30T12:15:05Z</time>
      </trkpt>
      <trkpt lat="41.4719552" lon="2.0889961">
        <ele>110.70996857</ele>
        <time>2022-10-30T12:15:06Z</time>
      </trkpt>
      <trkpt lat="41.4719652" lon="2.0888831">
        <ele>110.80996704</ele>
        <time>2022-10-30T12:15:07Z</time>
      </trkpt>
      <trkpt lat="41.4719681" lon="2.0888102">
        <ele>110.95996857</ele>
        <time>2022-10-30T12:15:08Z</time>
      </trkpt>
      <trkpt lat="41.4719751" lon="2.0887402">
        <ele>111.02996826</ele>
        <time>2022-10-30T12:15:09Z</time>
      </trkpt>
      <trkpt lat="41.471979" lon="2.0886693">
        <ele>111.08996582</ele>
        <time>2022-10-30T12:15:10Z</time>
      </trkpt>
      <trkpt lat="41.47199" lon="2.0886023">
        <ele>111.38996887</ele>
        <time>2022-10-30T12:15:11Z</time>
      </trkpt>
      <trkpt lat="41.472009" lon="2.0885044">
        <ele>111.38996887</ele>
        <time>2022-10-30T12:15:12Z</time>
      </trkpt>
      <trkpt lat="41.4720159" lon="2.0884354">
        <ele>111.37996674</ele>
        <time>2022-10-30T12:15:13Z</time>
      </trkpt>
      <trkpt lat="41.4720229" lon="2.0883625">
        <ele>111.38996887</ele>
        <time>2022-10-30T12:15:14Z</time>
      </trkpt>
      <trkpt lat="41.4720288" lon="2.0883016">
        <ele>111.41996765</ele>
        <time>2022-10-30T12:15:15Z</time>
      </trkpt>
      <trkpt lat="41.4720517" lon="2.0882026">
        <ele>111.51996613</ele>
        <time>2022-10-30T12:15:16Z</time>
      </trkpt>
      <trkpt lat="41.4720556" lon="2.0881226">
        <ele>111.58996582</ele>
        <time>2022-10-30T12:15:17Z</time>
      </trkpt>
      <trkpt lat="41.4720576" lon="2.0880467">
        <ele>111.58996582</ele>
        <time>2022-10-30T12:15:18Z</time>
      </trkpt>
      <trkpt lat="41.4720615" lon="2.0879808">
        <ele>111.66996765</ele>
        <time>2022-10-30T12:15:19Z</time>
      </trkpt>
      <trkpt lat="41.4720675" lon="2.0879128">
        <ele>111.7899704</ele>
        <time>2022-10-30T12:15:20Z</time>
      </trkpt>
      <trkpt lat="41.4720665" lon="2.0878068">
        <ele>111.89997101</ele>
        <time>2022-10-30T12:15:21Z</time>
      </trkpt>
      <trkpt lat="41.4720665" lon="2.0877449">
        <ele>111.99996948</ele>
        <time>2022-10-30T12:15:22Z</time>
      </trkpt>
      <trkpt lat="41.4720636" lon="2.087672">
        <ele>112.07997131</ele>
        <time>2022-10-30T12:15:23Z</time>
      </trkpt>
      <trkpt lat="41.4720607" lon="2.087602">
        <ele>112.13996887</ele>
        <time>2022-10-30T12:15:24Z</time>
      </trkpt>
      <trkpt lat="41.4720578" lon="2.087535">
        <ele>112.22996521</ele>
        <time>2022-10-30T12:15:25Z</time>
      </trkpt>
      <trkpt lat="41.4720429" lon="2.0874191">
        <ele>112.26996613</ele>
        <time>2022-10-30T12:15:26Z</time>
      </trkpt>
      <trkpt lat="41.4720279" lon="2.0873411">
        <ele>112.26996613</ele>
        <time>2022-10-30T12:15:27Z</time>
      </trkpt>
      <trkpt lat="41.472011" lon="2.0872692">
        <ele>112.22996521</ele>
        <time>2022-10-30T12:15:28Z</time>
      </trkpt>
      <trkpt lat="41.472" lon="2.0872093">
        <ele>112.22996521</ele>
        <time>2022-10-30T12:15:29Z</time>
      </trkpt>
      <trkpt lat="41.4719771" lon="2.0871023">
        <ele>112.31996155</ele>
        <time>2022-10-30T12:15:30Z</time>
      </trkpt>
      <trkpt lat="41.4719652" lon="2.0870384">
        <ele>112.38996124</ele>
        <time>2022-10-30T12:15:31Z</time>
      </trkpt>
      <trkpt lat="41.4719602" lon="2.0869874">
        <ele>112.5499649</ele>
        <time>2022-10-30T12:15:32Z</time>
      </trkpt>
      <trkpt lat="41.4719631" lon="2.0869424">
        <ele>112.66996765</ele>
        <time>2022-10-30T12:15:33Z</time>
      </trkpt>
      <trkpt lat="41.4719771" lon="2.0869064">
        <ele>112.70996857</ele>
        <time>2022-10-30T12:15:34Z</time>
      </trkpt>
      <trkpt lat="41.472008" lon="2.0868614">
        <ele>112.80996704</ele>
        <time>2022-10-30T12:15:35Z</time>
      </trkpt>
      <trkpt lat="41.472029" lon="2.0868465">
        <ele>112.7199707</ele>
        <time>2022-10-30T12:15:36Z</time>
      </trkpt>
      <trkpt lat="41.472057" lon="2.0868325">
        <ele>112.7199707</ele>
        <time>2022-10-30T12:15:37Z</time>
      </trkpt>
      <trkpt lat="41.4720879" lon="2.0868126">
        <ele>112.57997131</ele>
        <time>2022-10-30T12:15:38Z</time>
      </trkpt>
      <trkpt lat="41.4721288" lon="2.0867996">
        <ele>112.40997314</ele>
        <time>2022-10-30T12:15:39Z</time>
      </trkpt>
      <trkpt lat="41.4721588" lon="2.0867926">
        <ele>112.30997467</ele>
        <time>2022-10-30T12:15:40Z</time>
      </trkpt>
      <trkpt lat="41.4721957" lon="2.0867796">
        <ele>112.32997131</ele>
        <time>2022-10-30T12:15:41Z</time>
      </trkpt>
      <trkpt lat="41.4722307" lon="2.0867686">
        <ele>112.4699707</ele>
        <time>2022-10-30T12:15:42Z</time>
      </trkpt>
      <trkpt lat="41.4722626" lon="2.0867567">
        <ele>112.67996979</ele>
        <time>2022-10-30T12:15:43Z</time>
      </trkpt>
      <trkpt lat="41.4723076" lon="2.0867528">
        <ele>113.22997284</ele>
        <time>2022-10-30T12:15:44Z</time>
      </trkpt>
      <trkpt lat="41.4723425" lon="2.0867537">
        <ele>113.22997284</ele>
        <time>2022-10-30T12:15:45Z</time>
      </trkpt>
      <trkpt lat="41.4723775" lon="2.0867508">
        <ele>113.52997589</ele>
        <time>2022-10-30T12:15:46Z</time>
      </trkpt>
      <trkpt lat="41.4724114" lon="2.0867479">
        <ele>113.8899765</ele>
        <time>2022-10-30T12:15:47Z</time>
      </trkpt>
      <trkpt lat="41.4724603" lon="2.08674">
        <ele>114.28997803</ele>
        <time>2022-10-30T12:15:48Z</time>
      </trkpt>
      <trkpt lat="41.4724933" lon="2.086729">
        <ele>114.67997742</ele>
        <time>2022-10-30T12:15:49Z</time>
      </trkpt>
      <trkpt lat="41.4725312" lon="2.0867231">
        <ele>115.10997772</ele>
        <time>2022-10-30T12:15:50Z</time>
      </trkpt>
      <trkpt lat="41.4725692" lon="2.0867112">
        <ele>115.46997833</ele>
        <time>2022-10-30T12:15:51Z</time>
      </trkpt>
      <trkpt lat="41.4726001" lon="2.0867053">
        <ele>115.80997467</ele>
        <time>2022-10-30T12:15:52Z</time>
      </trkpt>
      <trkpt lat="41.4726561" lon="2.0866903">
        <ele>116.41997528</ele>
        <time>2022-10-30T12:15:53Z</time>
      </trkpt>
      <trkpt lat="41.4726921" lon="2.0866794">
        <ele>116.41997528</ele>
        <time>2022-10-30T12:15:54Z</time>
      </trkpt>
      <trkpt lat="41.472728" lon="2.0866714">
        <ele>116.73997498</ele>
        <time>2022-10-30T12:15:55Z</time>
      </trkpt>
      <trkpt lat="41.472765" lon="2.0866655">
        <ele>117.03997803</ele>
        <time>2022-10-30T12:15:56Z</time>
      </trkpt>
      <trkpt lat="41.4728199" lon="2.0866585">
        <ele>117.36997986</ele>
        <time>2022-10-30T12:15:57Z</time>
      </trkpt>
      <trkpt lat="41.4728579" lon="2.0866556">
        <ele>117.7099762</ele>
        <time>2022-10-30T12:15:58Z</time>
      </trkpt>
      <trkpt lat="41.4728908" lon="2.0866537">
        <ele>118.04997253</ele>
        <time>2022-10-30T12:15:59Z</time>
      </trkpt>
      <trkpt lat="41.4729308" lon="2.0866508">
        <ele>118.38996887</ele>
        <time>2022-10-30T12:16:00Z</time>
      </trkpt>
      <trkpt lat="41.4729697" lon="2.0866438">
        <ele>118.67996979</ele>
        <time>2022-10-30T12:16:01Z</time>
      </trkpt>
      <trkpt lat="41.4730297" lon="2.0866329">
        <ele>118.98996735</ele>
        <time>2022-10-30T12:16:02Z</time>
      </trkpt>
      <trkpt lat="41.4730676" lon="2.0866309">
        <ele>119.30996704</ele>
        <time>2022-10-30T12:16:03Z</time>
      </trkpt>
      <trkpt lat="41.4731066" lon="2.0866319">
        <ele>119.67996979</ele>
        <time>2022-10-30T12:16:04Z</time>
      </trkpt>
      <trkpt lat="41.4731435" lon="2.0866239">
        <ele>120.5399704</ele>
        <time>2022-10-30T12:16:05Z</time>
      </trkpt>
      <trkpt lat="41.4731995" lon="2.086609">
        <ele>120.5399704</ele>
        <time>2022-10-30T12:16:06Z</time>
      </trkpt>
      <trkpt lat="41.4732364" lon="2.0865981">
        <ele>120.9699707</ele>
        <time>2022-10-30T12:16:07Z</time>
      </trkpt>
      <trkpt lat="41.4732734" lon="2.0865891">
        <ele>121.7199707</ele>
        <time>2022-10-30T12:16:08Z</time>
      </trkpt>
      <trkpt lat="41.4733123" lon="2.0865842">
        <ele>121.7199707</ele>
        <time>2022-10-30T12:16:09Z</time>
      </trkpt>
      <trkpt lat="41.4733693" lon="2.0865793">
        <ele>122.08997345</ele>
        <time>2022-10-30T12:16:10Z</time>
      </trkpt>
      <trkpt lat="41.4733952" lon="2.0865764">
        <ele>122.41997528</ele>
        <time>2022-10-30T12:16:11Z</time>
      </trkpt>
      <trkpt lat="41.4734232" lon="2.0865783">
        <ele>122.68997192</ele>
        <time>2022-10-30T12:16:12Z</time>
      </trkpt>
      <trkpt lat="41.4734562" lon="2.0865713">
        <ele>122.90997314</ele>
        <time>2022-10-30T12:16:13Z</time>
      </trkpt>
      <trkpt lat="41.4734921" lon="2.0865673">
        <ele>123.04997253</ele>
        <time>2022-10-30T12:16:14Z</time>
      </trkpt>
      <trkpt lat="41.4735511" lon="2.0865564">
        <ele>123.24996948</ele>
        <time>2022-10-30T12:16:15Z</time>
      </trkpt>
      <trkpt lat="41.4735961" lon="2.0865484">
        <ele>123.24996948</ele>
        <time>2022-10-30T12:16:16Z</time>
      </trkpt>
      <trkpt lat="41.4736481" lon="2.0865375">
        <ele>123.29997253</ele>
        <time>2022-10-30T12:16:17Z</time>
      </trkpt>
      <trkpt lat="41.4737011" lon="2.0865325">
        <ele>123.31996918</ele>
        <time>2022-10-30T12:16:18Z</time>
      </trkpt>
      <trkpt lat="41.473779" lon="2.0865445">
        <ele>123.30996704</ele>
        <time>2022-10-30T12:16:19Z</time>
      </trkpt>
      <trkpt lat="41.473832" lon="2.0865416">
        <ele>123.2899704</ele>
        <time>2022-10-30T12:16:20Z</time>
      </trkpt>
      <trkpt lat="41.473882" lon="2.0865376">
        <ele>123.19997406</ele>
        <time>2022-10-30T12:16:21Z</time>
      </trkpt>
      <trkpt lat="41.473941" lon="2.0865347">
        <ele>123.06997681</ele>
        <time>2022-10-30T12:16:22Z</time>
      </trkpt>
      <trkpt lat="41.4739989" lon="2.0865366">
        <ele>122.92997742</ele>
        <time>2022-10-30T12:16:23Z</time>
      </trkpt>
      <trkpt lat="41.4740929" lon="2.0865496">
        <ele>122.7099762</ele>
        <time>2022-10-30T12:16:24Z</time>
      </trkpt>
      <trkpt lat="41.4741548" lon="2.0865525">
        <ele>122.49997711</ele>
        <time>2022-10-30T12:16:25Z</time>
      </trkpt>
      <trkpt lat="41.4742177" lon="2.0865466">
        <ele>122.34997559</ele>
        <time>2022-10-30T12:16:26Z</time>
      </trkpt>
      <trkpt lat="41.4742796" lon="2.0865387">
        <ele>122.16997528</ele>
        <time>2022-10-30T12:16:27Z</time>
      </trkpt>
      <trkpt lat="41.4743686" lon="2.0865177">
        <ele>121.98997498</ele>
        <time>2022-10-30T12:16:28Z</time>
      </trkpt>
      <trkpt lat="41.4744266" lon="2.0864917">
        <ele>121.46997833</ele>
        <time>2022-10-30T12:16:29Z</time>
      </trkpt>
      <trkpt lat="41.4744895" lon="2.0864678">
        <ele>121.46997833</ele>
        <time>2022-10-30T12:16:30Z</time>
      </trkpt>
      <trkpt lat="41.4745544" lon="2.0864358">
        <ele>121.08998108</ele>
        <time>2022-10-30T12:16:31Z</time>
      </trkpt>
      <trkpt lat="41.4746154" lon="2.0864079">
        <ele>120.31998444</ele>
        <time>2022-10-30T12:16:32Z</time>
      </trkpt>
      <trkpt lat="41.4747083" lon="2.0863729">
        <ele>120.31998444</ele>
        <time>2022-10-30T12:16:33Z</time>
      </trkpt>
      <trkpt lat="41.4747762" lon="2.0863589">
        <ele>119.94998169</ele>
        <time>2022-10-30T12:16:34Z</time>
      </trkpt>
      <trkpt lat="41.4748391" lon="2.086344">
        <ele>119.67998505</ele>
        <time>2022-10-30T12:16:35Z</time>
      </trkpt>
      <trkpt lat="41.4748961" lon="2.086311">
        <ele>119.4099884</ele>
        <time>2022-10-30T12:16:36Z</time>
      </trkpt>
      <trkpt lat="41.474956" lon="2.086285">
        <ele>119.17998505</ele>
        <time>2022-10-30T12:16:37Z</time>
      </trkpt>
      <trkpt lat="41.4750439" lon="2.0862441">
        <ele>118.95998383</ele>
        <time>2022-10-30T12:16:38Z</time>
      </trkpt>
      <trkpt lat="41.4751049" lon="2.0862281">
        <ele>118.82998657</ele>
        <time>2022-10-30T12:16:39Z</time>
      </trkpt>
      <trkpt lat="41.4751598" lon="2.0862092">
        <ele>118.82998657</ele>
        <time>2022-10-30T12:16:40Z</time>
      </trkpt>
      <trkpt lat="41.4752138" lon="2.0861883">
        <ele>119.2299881</ele>
        <time>2022-10-30T12:16:41Z</time>
      </trkpt>
      <trkpt lat="41.4753027" lon="2.0861474">
        <ele>119.2299881</ele>
        <time>2022-10-30T12:16:42Z</time>
      </trkpt>
      <trkpt lat="41.4753547" lon="2.0861214">
        <ele>119.48999023</ele>
        <time>2022-10-30T12:16:43Z</time>
      </trkpt>
      <trkpt lat="41.4754086" lon="2.0861165">
        <ele>120.13999176</ele>
        <time>2022-10-30T12:16:44Z</time>
      </trkpt>
      <trkpt lat="41.4754616" lon="2.0861234">
        <ele>120.13999176</ele>
        <time>2022-10-30T12:16:45Z</time>
      </trkpt>
      <trkpt lat="41.4755036" lon="2.0860805">
        <ele>120.45999146</ele>
        <time>2022-10-30T12:16:46Z</time>
      </trkpt>
      <trkpt lat="41.4755715" lon="2.0860306">
        <ele>121.05998993</ele>
        <time>2022-10-30T12:16:47Z</time>
      </trkpt>
      <trkpt lat="41.4756174" lon="2.0860036">
        <ele>121.05998993</ele>
        <time>2022-10-30T12:16:48Z</time>
      </trkpt>
      <trkpt lat="41.4756594" lon="2.0859677">
        <ele>121.63999176</ele>
        <time>2022-10-30T12:16:49Z</time>
      </trkpt>
      <trkpt lat="41.4757064" lon="2.0859357">
        <ele>121.63999176</ele>
        <time>2022-10-30T12:16:50Z</time>
      </trkpt>
      <trkpt lat="41.4757783" lon="2.0858907">
        <ele>121.93999481</ele>
        <time>2022-10-30T12:16:51Z</time>
      </trkpt>
      <trkpt lat="41.4758253" lon="2.0858727">
        <ele>122.18999481</ele>
        <time>2022-10-30T12:16:52Z</time>
      </trkpt>
      <trkpt lat="41.4758712" lon="2.0858598">
        <ele>122.49999237</ele>
        <time>2022-10-30T12:16:53Z</time>
      </trkpt>
      <trkpt lat="41.4759191" lon="2.0858409">
        <ele>122.76998901</ele>
        <time>2022-10-30T12:16:54Z</time>
      </trkpt>
      <trkpt lat="41.4759631" lon="2.0858209">
        <ele>123.09999084</ele>
        <time>2022-10-30T12:16:55Z</time>
      </trkpt>
      <trkpt lat="41.4760321" lon="2.085774">
        <ele>123.63999176</ele>
        <time>2022-10-30T12:16:56Z</time>
      </trkpt>
      <trkpt lat="41.476081" lon="2.085744">
        <ele>123.63999176</ele>
        <time>2022-10-30T12:16:57Z</time>
      </trkpt>
      <trkpt lat="41.4761299" lon="2.085711">
        <ele>123.86999512</ele>
        <time>2022-10-30T12:16:58Z</time>
      </trkpt>
      <trkpt lat="41.4761729" lon="2.0856851">
        <ele>124.02999878</ele>
        <time>2022-10-30T12:16:59Z</time>
      </trkpt>
      <trkpt lat="41.4762308" lon="2.0856351">
        <ele>124.20999908</ele>
        <time>2022-10-30T12:17:00Z</time>
      </trkpt>
      <trkpt lat="41.4762718" lon="2.0856012">
        <ele>124.45999908</ele>
        <time>2022-10-30T12:17:01Z</time>
      </trkpt>
      <trkpt lat="41.4763138" lon="2.0855713">
        <ele>124.45999908</ele>
        <time>2022-10-30T12:17:02Z</time>
      </trkpt>
      <trkpt lat="41.4763537" lon="2.0855433">
        <ele>124.52999878</ele>
        <time>2022-10-30T12:17:03Z</time>
      </trkpt>
      <trkpt lat="41.4764237" lon="2.0854923">
        <ele>124.61000061</ele>
        <time>2022-10-30T12:17:04Z</time>
      </trkpt>
      <trkpt lat="41.4764716" lon="2.0854494">
        <ele>124.75</ele>
        <time>2022-10-30T12:17:05Z</time>
      </trkpt>
      <trkpt lat="41.4765166" lon="2.0854055">
        <ele>125.16000366</ele>
        <time>2022-10-30T12:17:06Z</time>
      </trkpt>
      <trkpt lat="41.4765616" lon="2.0853605">
        <ele>125.16000366</ele>
        <time>2022-10-30T12:17:07Z</time>
      </trkpt>
      <trkpt lat="41.4766066" lon="2.0853145">
        <ele>125.31000519</ele>
        <time>2022-10-30T12:17:08Z</time>
      </trkpt>
      <trkpt lat="41.4766685" lon="2.0852526">
        <ele>125.45000458</ele>
        <time>2022-10-30T12:17:09Z</time>
      </trkpt>
      <trkpt lat="41.4767185" lon="2.0852196">
        <ele>125.45000458</ele>
        <time>2022-10-30T12:17:10Z</time>
      </trkpt>
      <trkpt lat="41.4767674" lon="2.0851867">
        <ele>125.62000275</ele>
        <time>2022-10-30T12:17:11Z</time>
      </trkpt>
      <trkpt lat="41.4768153" lon="2.0851497">
        <ele>125.62000275</ele>
        <time>2022-10-30T12:17:12Z</time>
      </trkpt>
      <trkpt lat="41.4768892" lon="2.0851058">
        <ele>125.80000305</ele>
        <time>2022-10-30T12:17:13Z</time>
      </trkpt>
      <trkpt lat="41.4769392" lon="2.0850679">
        <ele>125.80000305</ele>
        <time>2022-10-30T12:17:14Z</time>
      </trkpt>
      <trkpt lat="41.4769892" lon="2.08503">
        <ele>125.83000183</ele>
        <time>2022-10-30T12:17:15Z</time>
      </trkpt>
      <trkpt lat="41.4770381" lon="2.0849931">
        <ele>125.84000397</ele>
        <time>2022-10-30T12:17:16Z</time>
      </trkpt>
      <trkpt lat="41.4770841" lon="2.0849511">
        <ele>125.90000153</ele>
        <time>2022-10-30T12:17:17Z</time>
      </trkpt>
      <trkpt lat="41.47716" lon="2.0849051">
        <ele>126.05000305</ele>
        <time>2022-10-30T12:17:18Z</time>
      </trkpt>
      <trkpt lat="41.4772029" lon="2.0848762">
        <ele>126.18000031</ele>
        <time>2022-10-30T12:17:19Z</time>
      </trkpt>
      <trkpt lat="41.4772348" lon="2.0848422">
        <ele>126.43000031</ele>
        <time>2022-10-30T12:17:20Z</time>
      </trkpt>
      <trkpt lat="41.4772458" lon="2.0848132">
        <ele>126.62999725</ele>
        <time>2022-10-30T12:17:21Z</time>
      </trkpt>
      <trkpt lat="41.4772458" lon="2.0847933">
        <ele>126.62999725</ele>
        <time>2022-10-30T12:17:22Z</time>
      </trkpt>
      <trkpt lat="41.4772339" lon="2.0847684">
        <ele>127.09999847</ele>
        <time>2022-10-30T12:17:23Z</time>
      </trkpt>
      <trkpt lat="41.4772259" lon="2.0847484">
        <ele>127.27999878</ele>
        <time>2022-10-30T12:17:24Z</time>
      </trkpt>
      <trkpt lat="41.477217" lon="2.0847235">
        <ele>127.27999878</ele>
        <time>2022-10-30T12:17:25Z</time>
      </trkpt>
      <trkpt lat="41.4772081" lon="2.0846995">
        <ele>127.36000061</ele>
        <time>2022-10-30T12:17:26Z</time>
      </trkpt>
      <trkpt lat="41.4772052" lon="2.0846716">
        <ele>127.36000061</ele>
        <time>2022-10-30T12:17:27Z</time>
      </trkpt>
      <trkpt lat="41.4772002" lon="2.0846516">
        <ele>127.18000031</ele>
        <time>2022-10-30T12:17:28Z</time>
      </trkpt>
      <trkpt lat="41.4771853" lon="2.0846217">
        <ele>127.18000031</ele>
        <time>2022-10-30T12:17:29Z</time>
      </trkpt>
      <trkpt lat="41.4771693" lon="2.0845917">
        <ele>126.94999695</ele>
        <time>2022-10-30T12:17:30Z</time>
      </trkpt>
      <trkpt lat="41.4771343" lon="2.0845288">
        <ele>126.81999969</ele>
        <time>2022-10-30T12:17:31Z</time>
      </trkpt>
      <trkpt lat="41.4771004" lon="2.0844778">
        <ele>126.68000031</ele>
        <time>2022-10-30T12:17:32Z</time>
      </trkpt>
      <trkpt lat="41.4770584" lon="2.0844328">
        <ele>126.68000031</ele>
        <time>2022-10-30T12:17:33Z</time>
      </trkpt>
      <trkpt lat="41.4770245" lon="2.0843809">
        <ele>126.75</ele>
        <time>2022-10-30T12:17:34Z</time>
      </trkpt>
      <trkpt lat="41.4769936" lon="2.0843309">
        <ele>126.75</ele>
        <time>2022-10-30T12:17:35Z</time>
      </trkpt>
      <trkpt lat="41.4769637" lon="2.08425">
        <ele>126.87999725</ele>
        <time>2022-10-30T12:17:36Z</time>
      </trkpt>
      <trkpt lat="41.4769468" lon="2.084183">
        <ele>126.87999725</ele>
        <time>2022-10-30T12:17:37Z</time>
      </trkpt>
      <trkpt lat="41.4769218" lon="2.0841301">
        <ele>126.91999817</ele>
        <time>2022-10-30T12:17:38Z</time>
      </trkpt>
      <trkpt lat="41.4768909" lon="2.0840851">
        <ele>127.02999878</ele>
        <time>2022-10-30T12:17:39Z</time>
      </trkpt>
      <trkpt lat="41.4768579" lon="2.0840431">
        <ele>126.94999695</ele>
        <time>2022-10-30T12:17:40Z</time>
      </trkpt>
      <trkpt lat="41.476807" lon="2.0839642">
        <ele>126.93999481</ele>
        <time>2022-10-30T12:17:41Z</time>
      </trkpt>
      <trkpt lat="41.4767751" lon="2.0839103">
        <ele>126.93999481</ele>
        <time>2022-10-30T12:17:42Z</time>
      </trkpt>
      <trkpt lat="41.4767421" lon="2.0838604">
        <ele>126.96999359</ele>
        <time>2022-10-30T12:17:43Z</time>
      </trkpt>
      <trkpt lat="41.4767132" lon="2.0838154">
        <ele>126.96999359</ele>
        <time>2022-10-30T12:17:44Z</time>
      </trkpt>
      <trkpt lat="41.4766582" lon="2.0837425">
        <ele>126.97999573</ele>
        <time>2022-10-30T12:17:45Z</time>
      </trkpt>
      <trkpt lat="41.4766312" lon="2.0836926">
        <ele>126.97999573</ele>
        <time>2022-10-30T12:17:46Z</time>
      </trkpt>
      <trkpt lat="41.4766063" lon="2.0836476">
        <ele>126.95999908</ele>
        <time>2022-10-30T12:17:47Z</time>
      </trkpt>
      <trkpt lat="41.4765893" lon="2.0835847">
        <ele>126.90999603</ele>
        <time>2022-10-30T12:17:48Z</time>
      </trkpt>
      <trkpt lat="41.4765923" lon="2.0835247">
        <ele>126.79999542</ele>
        <time>2022-10-30T12:17:49Z</time>
      </trkpt>
      <trkpt lat="41.4765992" lon="2.0834478">
        <ele>126.77999878</ele>
        <time>2022-10-30T12:17:50Z</time>
      </trkpt>
      <trkpt lat="41.4765923" lon="2.0833948">
        <ele>126.69000244</ele>
        <time>2022-10-30T12:17:51Z</time>
      </trkpt>
      <trkpt lat="41.4765942" lon="2.0833409">
        <ele>126.56000519</ele>
        <time>2022-10-30T12:17:52Z</time>
      </trkpt>
      <trkpt lat="41.4766122" lon="2.083288">
        <ele>126.56000519</ele>
        <time>2022-10-30T12:17:53Z</time>
      </trkpt>
      <trkpt lat="41.4766491" lon="2.0832161">
        <ele>126.43000793</ele>
        <time>2022-10-30T12:17:54Z</time>
      </trkpt>
      <trkpt lat="41.4766821" lon="2.0831851">
        <ele>126.46000671</ele>
        <time>2022-10-30T12:17:55Z</time>
      </trkpt>
      <trkpt lat="41.47672" lon="2.0831562">
        <ele>126.54000854</ele>
        <time>2022-10-30T12:17:56Z</time>
      </trkpt>
      <trkpt lat="41.476765" lon="2.0831342">
        <ele>126.6700058</ele>
        <time>2022-10-30T12:17:57Z</time>
      </trkpt>
      <trkpt lat="41.4768079" lon="2.0831133">
        <ele>126.81000519</ele>
        <time>2022-10-30T12:17:58Z</time>
      </trkpt>
      <trkpt lat="41.4768659" lon="2.0830683">
        <ele>127.14000702</ele>
        <time>2022-10-30T12:17:59Z</time>
      </trkpt>
      <trkpt lat="41.4768978" lon="2.0830184">
        <ele>127.14000702</ele>
        <time>2022-10-30T12:18:00Z</time>
      </trkpt>
      <trkpt lat="41.4769317" lon="2.0829755">
        <ele>127.33000946</ele>
        <time>2022-10-30T12:18:01Z</time>
      </trkpt>
      <trkpt lat="41.4769626" lon="2.0829315">
        <ele>127.55001068</ele>
        <time>2022-10-30T12:18:02Z</time>
      </trkpt>
      <trkpt lat="41.4770096" lon="2.0828516">
        <ele>127.78001404</ele>
        <time>2022-10-30T12:18:03Z</time>
      </trkpt>
      <trkpt lat="41.4770525" lon="2.0828206">
        <ele>127.9400177</ele>
        <time>2022-10-30T12:18:04Z</time>
      </trkpt>
      <trkpt lat="41.4770985" lon="2.0827987">
        <ele>128.33001709</ele>
        <time>2022-10-30T12:18:05Z</time>
      </trkpt>
      <trkpt lat="41.4771284" lon="2.0827408">
        <ele>128.33001709</ele>
        <time>2022-10-30T12:18:06Z</time>
      </trkpt>
      <trkpt lat="41.4771824" lon="2.0826638">
        <ele>128.52001953</ele>
        <time>2022-10-30T12:18:07Z</time>
      </trkpt>
      <trkpt lat="41.4772183" lon="2.0826218">
        <ele>129.07002258</ele>
        <time>2022-10-30T12:18:08Z</time>
      </trkpt>
      <trkpt lat="41.4772533" lon="2.0825689">
        <ele>129.07002258</ele>
        <time>2022-10-30T12:18:09Z</time>
      </trkpt>
      <trkpt lat="41.4772902" lon="2.0825239">
        <ele>129.2900238</ele>
        <time>2022-10-30T12:18:10Z</time>
      </trkpt>
      <trkpt lat="41.4773271" lon="2.082474">
        <ele>129.50003052</ele>
        <time>2022-10-30T12:18:11Z</time>
      </trkpt>
      <trkpt lat="41.4773851" lon="2.082402">
        <ele>129.5400238</ele>
        <time>2022-10-30T12:18:12Z</time>
      </trkpt>
      <trkpt lat="41.477415" lon="2.082341">
        <ele>129.5400238</ele>
        <time>2022-10-30T12:18:13Z</time>
      </trkpt>
      <trkpt lat="41.477445" lon="2.0822771">
        <ele>129.71002197</ele>
        <time>2022-10-30T12:18:14Z</time>
      </trkpt>
      <trkpt lat="41.477478" lon="2.0822171">
        <ele>130.30001831</ele>
        <time>2022-10-30T12:18:15Z</time>
      </trkpt>
      <trkpt lat="41.477523" lon="2.0821172">
        <ele>130.30001831</ele>
        <time>2022-10-30T12:18:16Z</time>
      </trkpt>
      <trkpt lat="41.4775519" lon="2.0820472">
        <ele>130.75001526</ele>
        <time>2022-10-30T12:18:17Z</time>
      </trkpt>
      <trkpt lat="41.4775799" lon="2.0819792">
        <ele>131.05001831</ele>
        <time>2022-10-30T12:18:18Z</time>
      </trkpt>
      <trkpt lat="41.4776079" lon="2.0819152">
        <ele>131.27001953</ele>
        <time>2022-10-30T12:18:19Z</time>
      </trkpt>
      <trkpt lat="41.4776338" lon="2.0818483">
        <ele>131.52001953</ele>
        <time>2022-10-30T12:18:20Z</time>
      </trkpt>
      <trkpt lat="41.4776608" lon="2.0817423">
        <ele>131.65002441</ele>
        <time>2022-10-30T12:18:21Z</time>
      </trkpt>
      <trkpt lat="41.4776727" lon="2.0816643">
        <ele>131.77001953</ele>
        <time>2022-10-30T12:18:22Z</time>
      </trkpt>
      <trkpt lat="41.4776867" lon="2.0815844">
        <ele>131.91001892</ele>
        <time>2022-10-30T12:18:23Z</time>
      </trkpt>
      <trkpt lat="41.4777057" lon="2.0815134">
        <ele>131.89001465</ele>
        <time>2022-10-30T12:18:24Z</time>
      </trkpt>
      <trkpt lat="41.4777216" lon="2.0814424">
        <ele>131.9400177</ele>
        <time>2022-10-30T12:18:25Z</time>
      </trkpt>
      <trkpt lat="41.4777416" lon="2.0813305">
        <ele>132.01002502</ele>
        <time>2022-10-30T12:18:26Z</time>
      </trkpt>
      <trkpt lat="41.4777495" lon="2.0812515">
        <ele>132.06002808</ele>
        <time>2022-10-30T12:18:27Z</time>
      </trkpt>
      <trkpt lat="41.4777615" lon="2.0811806">
        <ele>132.32002258</ele>
        <time>2022-10-30T12:18:28Z</time>
      </trkpt>
      <trkpt lat="41.4777755" lon="2.0811087">
        <ele>132.32002258</ele>
        <time>2022-10-30T12:18:29Z</time>
      </trkpt>
      <trkpt lat="41.4777954" lon="2.0810007">
        <ele>132.36001587</ele>
        <time>2022-10-30T12:18:30Z</time>
      </trkpt>
      <trkpt lat="41.4778073" lon="2.0809328">
        <ele>132.38002014</ele>
        <time>2022-10-30T12:18:31Z</time>
      </trkpt>
      <trkpt lat="41.4778173" lon="2.0808628">
        <ele>132.40002441</ele>
        <time>2022-10-30T12:18:32Z</time>
      </trkpt>
      <trkpt lat="41.4778322" lon="2.0807909">
        <ele>132.4400177</ele>
        <time>2022-10-30T12:18:33Z</time>
      </trkpt>
      <trkpt lat="41.4778391" lon="2.0807229">
        <ele>132.47001648</ele>
        <time>2022-10-30T12:18:34Z</time>
      </trkpt>
      <trkpt lat="41.4778501" lon="2.0806179">
        <ele>132.47001648</ele>
        <time>2022-10-30T12:18:35Z</time>
      </trkpt>
      <trkpt lat="41.4778581" lon="2.080546">
        <ele>132.42001343</ele>
        <time>2022-10-30T12:18:36Z</time>
      </trkpt>
      <trkpt lat="41.477864" lon="2.0804731">
        <ele>132.30001831</ele>
        <time>2022-10-30T12:18:37Z</time>
      </trkpt>
      <trkpt lat="41.477874" lon="2.0803972">
        <ele>132.12002563</ele>
        <time>2022-10-30T12:18:38Z</time>
      </trkpt>
      <trkpt lat="41.477893" lon="2.0802863">
        <ele>131.94003296</ele>
        <time>2022-10-30T12:18:39Z</time>
      </trkpt>
      <trkpt lat="41.477898" lon="2.080271">
        <ele>132.63999939</ele>
        <time>2022-10-30T12:18:39Z</time>
      </trkpt>
      <trkpt lat="41.4779079" lon="2.080193">
        <ele>132.41999817</ele>
        <time>2022-10-30T12:18:40Z</time>
      </trkpt>
      <trkpt lat="41.4779219" lon="2.0801141">
        <ele>132.16999817</ele>
        <time>2022-10-30T12:18:41Z</time>
      </trkpt>
      <trkpt lat="41.4779329" lon="2.0800202">
        <ele>131.94000244</ele>
        <time>2022-10-30T12:18:42Z</time>
      </trkpt>
      <trkpt lat="41.4779469" lon="2.0799283">
        <ele>131.61000061</ele>
        <time>2022-10-30T12:18:43Z</time>
      </trkpt>
      <trkpt lat="41.4779728" lon="2.0797903">
        <ele>131.16999817</ele>
        <time>2022-10-30T12:18:44Z</time>
      </trkpt>
      <trkpt lat="41.4779908" lon="2.0796903">
        <ele>130.69000244</ele>
        <time>2022-10-30T12:18:45Z</time>
      </trkpt>
      <trkpt lat="41.4780127" lon="2.0795984">
        <ele>130.26000977</ele>
        <time>2022-10-30T12:18:46Z</time>
      </trkpt>
      <trkpt lat="41.4780387" lon="2.0795124">
        <ele>130.00001526</ele>
        <time>2022-10-30T12:18:47Z</time>
      </trkpt>
      <trkpt lat="41.4780756" lon="2.0793715">
        <ele>129.96002197</ele>
        <time>2022-10-30T12:18:48Z</time>
      </trkpt>
      <trkpt lat="41.4781036" lon="2.0792805">
        <ele>129.98002625</ele>
        <time>2022-10-30T12:18:49Z</time>
      </trkpt>
      <trkpt lat="41.4781235" lon="2.0791946">
        <ele>129.98002625</ele>
        <time>2022-10-30T12:18:50Z</time>
      </trkpt>
      <trkpt lat="41.4781464" lon="2.0791126">
        <ele>129.98002625</ele>
        <time>2022-10-30T12:18:51Z</time>
      </trkpt>
      <trkpt lat="41.4781813" lon="2.0790157">
        <ele>129.97003174</ele>
        <time>2022-10-30T12:18:52Z</time>
      </trkpt>
      <trkpt lat="41.4782013" lon="2.0789547">
        <ele>129.99003601</ele>
        <time>2022-10-30T12:18:53Z</time>
      </trkpt>
      <trkpt lat="41.4782232" lon="2.0789027">
        <ele>130.02003479</ele>
        <time>2022-10-30T12:18:54Z</time>
      </trkpt>
      <trkpt lat="41.4782472" lon="2.0788428">
        <ele>130.05003357</ele>
        <time>2022-10-30T12:18:55Z</time>
      </trkpt>
      <trkpt lat="41.4782711" lon="2.0787939">
        <ele>130.17002869</ele>
        <time>2022-10-30T12:18:56Z</time>
      </trkpt>
      <trkpt lat="41.4783051" lon="2.078715">
        <ele>130.26002502</ele>
        <time>2022-10-30T12:18:57Z</time>
      </trkpt>
      <trkpt lat="41.478322" lon="2.078664">
        <ele>130.42002869</ele>
        <time>2022-10-30T12:18:58Z</time>
      </trkpt>
      <trkpt lat="41.4783409" lon="2.0786231">
        <ele>130.57002258</ele>
        <time>2022-10-30T12:18:59Z</time>
      </trkpt>
      <trkpt lat="41.4783629" lon="2.0785901">
        <ele>130.67002869</ele>
        <time>2022-10-30T12:19:00Z</time>
      </trkpt>
      <trkpt lat="41.4783879" lon="2.0785562">
        <ele>130.83003235</ele>
        <time>2022-10-30T12:19:01Z</time>
      </trkpt>
      <trkpt lat="41.4784308" lon="2.0785422">
        <ele>131.05003357</ele>
        <time>2022-10-30T12:19:02Z</time>
      </trkpt>
      <trkpt lat="41.4784647" lon="2.0785313">
        <ele>131.27003479</ele>
        <time>2022-10-30T12:19:03Z</time>
      </trkpt>
      <trkpt lat="41.4785007" lon="2.0785283">
        <ele>131.50003052</ele>
        <time>2022-10-30T12:19:04Z</time>
      </trkpt>
      <trkpt lat="41.4785266" lon="2.0785034">
        <ele>131.69003296</ele>
        <time>2022-10-30T12:19:05Z</time>
      </trkpt>
      <trkpt lat="41.4785676" lon="2.0784285">
        <ele>131.75003052</ele>
        <time>2022-10-30T12:19:06Z</time>
      </trkpt>
      <trkpt lat="41.4785985" lon="2.0783775">
        <ele>131.85003662</ele>
        <time>2022-10-30T12:19:07Z</time>
      </trkpt>
      <trkpt lat="41.4786265" lon="2.0783236">
        <ele>131.97003174</ele>
        <time>2022-10-30T12:19:08Z</time>
      </trkpt>
      <trkpt lat="41.4786604" lon="2.0782886">
        <ele>132.1300354</ele>
        <time>2022-10-30T12:19:09Z</time>
      </trkpt>
      <trkpt lat="41.4786964" lon="2.0782517">
        <ele>132.33003235</ele>
        <time>2022-10-30T12:19:10Z</time>
      </trkpt>
      <trkpt lat="41.4787473" lon="2.0782027">
        <ele>132.73002625</ele>
        <time>2022-10-30T12:19:11Z</time>
      </trkpt>
      <trkpt lat="41.4787833" lon="2.0781818">
        <ele>132.73002625</ele>
        <time>2022-10-30T12:19:12Z</time>
      </trkpt>
      <trkpt lat="41.4788262" lon="2.0781738">
        <ele>133.01002502</ele>
        <time>2022-10-30T12:19:13Z</time>
      </trkpt>
      <trkpt lat="41.4788682" lon="2.0781478">
        <ele>133.13002014</ele>
        <time>2022-10-30T12:19:14Z</time>
      </trkpt>
      <trkpt lat="41.4789382" lon="2.0781189">
        <ele>133.13002014</ele>
        <time>2022-10-30T12:19:15Z</time>
      </trkpt>
      <trkpt lat="41.4789761" lon="2.0780799">
        <ele>133.27001953</ele>
        <time>2022-10-30T12:19:16Z</time>
      </trkpt>
      <trkpt lat="41.47901" lon="2.0780319">
        <ele>133.37002563</ele>
        <time>2022-10-30T12:19:17Z</time>
      </trkpt>
      <trkpt lat="41.479035" lon="2.0779669">
        <ele>133.45002747</ele>
        <time>2022-10-30T12:19:18Z</time>
      </trkpt>
      <trkpt lat="41.4790719" lon="2.077863">
        <ele>133.68002319</ele>
        <time>2022-10-30T12:19:19Z</time>
      </trkpt>
      <trkpt lat="41.4790909" lon="2.0777901">
        <ele>133.68002319</ele>
        <time>2022-10-30T12:19:20Z</time>
      </trkpt>
      <trkpt lat="41.4791179" lon="2.0777201">
        <ele>133.81002808</ele>
        <time>2022-10-30T12:19:21Z</time>
      </trkpt>
      <trkpt lat="41.4791478" lon="2.0776672">
        <ele>133.95002747</ele>
        <time>2022-10-30T12:19:22Z</time>
      </trkpt>
      <trkpt lat="41.4791798" lon="2.0776162">
        <ele>134.08003235</ele>
        <time>2022-10-30T12:19:23Z</time>
      </trkpt>
      <trkpt lat="41.4792347" lon="2.0775373">
        <ele>134.29003906</ele>
        <time>2022-10-30T12:19:24Z</time>
      </trkpt>
      <trkpt lat="41.4792757" lon="2.0774934">
        <ele>134.29003906</ele>
        <time>2022-10-30T12:19:25Z</time>
      </trkpt>
      <trkpt lat="41.4793136" lon="2.0774544">
        <ele>134.3800354</ele>
        <time>2022-10-30T12:19:26Z</time>
      </trkpt>
      <trkpt lat="41.4793456" lon="2.0774075">
        <ele>134.49003601</ele>
        <time>2022-10-30T12:19:27Z</time>
      </trkpt>
      <trkpt lat="41.4793795" lon="2.0773625">
        <ele>134.57003784</ele>
        <time>2022-10-30T12:19:28Z</time>
      </trkpt>
      <trkpt lat="41.4794405" lon="2.0773156">
        <ele>134.72003174</ele>
        <time>2022-10-30T12:19:29Z</time>
      </trkpt>
      <trkpt lat="41.4794774" lon="2.0772646">
        <ele>134.95002747</ele>
        <time>2022-10-30T12:19:30Z</time>
      </trkpt>
      <trkpt lat="41.4795073" lon="2.0772156">
        <ele>135.19003296</ele>
        <time>2022-10-30T12:19:31Z</time>
      </trkpt>
      <trkpt lat="41.4795363" lon="2.0771657">
        <ele>135.55003357</ele>
        <time>2022-10-30T12:19:32Z</time>
      </trkpt>
      <trkpt lat="41.4795732" lon="2.0770827">
        <ele>135.7800293</ele>
        <time>2022-10-30T12:19:33Z</time>
      </trkpt>
      <trkpt lat="41.4795961" lon="2.0770187">
        <ele>136.00003052</ele>
        <time>2022-10-30T12:19:34Z</time>
      </trkpt>
      <trkpt lat="41.47963" lon="2.0769728">
        <ele>136.24003601</ele>
        <time>2022-10-30T12:19:35Z</time>
      </trkpt>
      <trkpt lat="41.479671" lon="2.0769338">
        <ele>136.24003601</ele>
        <time>2022-10-30T12:19:36Z</time>
      </trkpt>
      <trkpt lat="41.4797059" lon="2.0768918">
        <ele>136.41003418</ele>
        <time>2022-10-30T12:19:37Z</time>
      </trkpt>
      <trkpt lat="41.4797579" lon="2.0768099">
        <ele>136.62004089</ele>
        <time>2022-10-30T12:19:38Z</time>
      </trkpt>
      <trkpt lat="41.4797878" lon="2.076744">
        <ele>136.86004639</ele>
        <time>2022-10-30T12:19:39Z</time>
      </trkpt>
      <trkpt lat="41.4798137" lon="2.076664">
        <ele>137.17004395</ele>
        <time>2022-10-30T12:19:40Z</time>
      </trkpt>
      <trkpt lat="41.4798327" lon="2.0765721">
        <ele>137.4800415</ele>
        <time>2022-10-30T12:19:41Z</time>
      </trkpt>
      <trkpt lat="41.4798647" lon="2.0764522">
        <ele>137.91003418</ele>
        <time>2022-10-30T12:19:42Z</time>
      </trkpt>
      <trkpt lat="41.4798806" lon="2.0763682">
        <ele>137.91003418</ele>
        <time>2022-10-30T12:19:43Z</time>
      </trkpt>
      <trkpt lat="41.4798906" lon="2.0762773">
        <ele>138.08003235</ele>
        <time>2022-10-30T12:19:44Z</time>
      </trkpt>
      <trkpt lat="41.4799025" lon="2.0761923">
        <ele>138.25003052</ele>
        <time>2022-10-30T12:19:45Z</time>
      </trkpt>
      <trkpt lat="41.4799155" lon="2.0760654">
        <ele>138.49003601</ele>
        <time>2022-10-30T12:19:46Z</time>
      </trkpt>
      <trkpt lat="41.4799214" lon="2.0759794">
        <ele>138.7300415</ele>
        <time>2022-10-30T12:19:47Z</time>
      </trkpt>
      <trkpt lat="41.4799253" lon="2.0758934">
        <ele>138.94004822</ele>
        <time>2022-10-30T12:19:48Z</time>
      </trkpt>
      <trkpt lat="41.4799282" lon="2.0758145">
        <ele>139.18005371</ele>
        <time>2022-10-30T12:19:49Z</time>
      </trkpt>
      <trkpt lat="41.4799273" lon="2.0757276">
        <ele>139.38005066</ele>
        <time>2022-10-30T12:19:50Z</time>
      </trkpt>
      <trkpt lat="41.4799282" lon="2.0756126">
        <ele>139.64004517</ele>
        <time>2022-10-30T12:19:51Z</time>
      </trkpt>
      <trkpt lat="41.4799292" lon="2.0755367">
        <ele>139.970047</ele>
        <time>2022-10-30T12:19:52Z</time>
      </trkpt>
      <trkpt lat="41.4799252" lon="2.0754477">
        <ele>140.35005188</ele>
        <time>2022-10-30T12:19:53Z</time>
      </trkpt>
      <trkpt lat="41.4799202" lon="2.0753637">
        <ele>140.75004578</ele>
        <time>2022-10-30T12:19:54Z</time>
      </trkpt>
      <trkpt lat="41.4799202" lon="2.0752558">
        <ele>141.14004517</ele>
        <time>2022-10-30T12:19:55Z</time>
      </trkpt>
      <trkpt lat="41.4799153" lon="2.0751809">
        <ele>142.06004333</ele>
        <time>2022-10-30T12:19:56Z</time>
      </trkpt>
      <trkpt lat="41.4799143" lon="2.0751129">
        <ele>142.59004211</ele>
        <time>2022-10-30T12:19:57Z</time>
      </trkpt>
      <trkpt lat="41.4799104" lon="2.075041">
        <ele>142.59004211</ele>
        <time>2022-10-30T12:19:58Z</time>
      </trkpt>
      <trkpt lat="41.4799084" lon="2.0749691">
        <ele>143.12004089</ele>
        <time>2022-10-30T12:19:59Z</time>
      </trkpt>
      <trkpt lat="41.4799034" lon="2.0748651">
        <ele>144.14004517</ele>
        <time>2022-10-30T12:20:00Z</time>
      </trkpt>
      <trkpt lat="41.4798995" lon="2.0747932">
        <ele>144.14004517</ele>
        <time>2022-10-30T12:20:01Z</time>
      </trkpt>
      <trkpt lat="41.4798966" lon="2.0747213">
        <ele>144.59004211</ele>
        <time>2022-10-30T12:20:02Z</time>
      </trkpt>
      <trkpt lat="41.4798995" lon="2.0746584">
        <ele>145.03004456</ele>
        <time>2022-10-30T12:20:03Z</time>
      </trkpt>
      <trkpt lat="41.4799095" lon="2.0745674">
        <ele>145.45004272</ele>
        <time>2022-10-30T12:20:04Z</time>
      </trkpt>
      <trkpt lat="41.4799134" lon="2.0745064">
        <ele>145.81004333</ele>
        <time>2022-10-30T12:20:05Z</time>
      </trkpt>
      <trkpt lat="41.4799173" lon="2.0744394">
        <ele>146.15003967</ele>
        <time>2022-10-30T12:20:06Z</time>
      </trkpt>
      <trkpt lat="41.4799202" lon="2.0743675">
        <ele>146.49003601</ele>
        <time>2022-10-30T12:20:07Z</time>
      </trkpt>
      <trkpt lat="41.4799212" lon="2.0742935">
        <ele>146.76004028</ele>
        <time>2022-10-30T12:20:08Z</time>
      </trkpt>
      <trkpt lat="41.4799371" lon="2.0741836">
        <ele>147.00004578</ele>
        <time>2022-10-30T12:20:09Z</time>
      </trkpt>
      <trkpt lat="41.4799571" lon="2.0741186">
        <ele>147.39004517</ele>
        <time>2022-10-30T12:20:10Z</time>
      </trkpt>
      <trkpt lat="41.479982" lon="2.0740577">
        <ele>147.39004517</ele>
        <time>2022-10-30T12:20:11Z</time>
      </trkpt>
      <trkpt lat="41.480017" lon="2.0739978">
        <ele>147.61004639</ele>
        <time>2022-10-30T12:20:12Z</time>
      </trkpt>
      <trkpt lat="41.4800539" lon="2.0739538">
        <ele>147.87004089</ele>
        <time>2022-10-30T12:20:13Z</time>
      </trkpt>
      <trkpt lat="41.4801108" lon="2.0738929">
        <ele>148.220047</ele>
        <time>2022-10-30T12:20:14Z</time>
      </trkpt>
      <trkpt lat="41.4801548" lon="2.073852">
        <ele>148.59004211</ele>
        <time>2022-10-30T12:20:15Z</time>
      </trkpt>
      <trkpt lat="41.4801968" lon="2.073818">
        <ele>149.40003967</ele>
        <time>2022-10-30T12:20:16Z</time>
      </trkpt>
      <trkpt lat="41.4802407" lon="2.0737881">
        <ele>149.79003906</ele>
        <time>2022-10-30T12:20:17Z</time>
      </trkpt>
      <trkpt lat="41.4803097" lon="2.0737381">
        <ele>149.79003906</ele>
        <time>2022-10-30T12:20:18Z</time>
      </trkpt>
      <trkpt lat="41.4803576" lon="2.0737061">
        <ele>150.11004639</ele>
        <time>2022-10-30T12:20:19Z</time>
      </trkpt>
      <trkpt lat="41.4804065" lon="2.0736782">
        <ele>150.39004517</ele>
        <time>2022-10-30T12:20:20Z</time>
      </trkpt>
      <trkpt lat="41.4804555" lon="2.0736462">
        <ele>150.69004822</ele>
        <time>2022-10-30T12:20:21Z</time>
      </trkpt>
      <trkpt lat="41.4805335" lon="2.0736083">
        <ele>150.94004822</ele>
        <time>2022-10-30T12:20:22Z</time>
      </trkpt>
      <trkpt lat="41.4805844" lon="2.0735864">
        <ele>151.25004578</ele>
        <time>2022-10-30T12:20:23Z</time>
      </trkpt>
      <trkpt lat="41.4806303" lon="2.0735525">
        <ele>151.52005005</ele>
        <time>2022-10-30T12:20:24Z</time>
      </trkpt>
      <trkpt lat="41.4806782" lon="2.0735175">
        <ele>151.71005249</ele>
        <time>2022-10-30T12:20:25Z</time>
      </trkpt>
      <trkpt lat="41.4807302" lon="2.0734866">
        <ele>151.87005615</ele>
        <time>2022-10-30T12:20:26Z</time>
      </trkpt>
      <trkpt lat="41.4808091" lon="2.0734416">
        <ele>151.99005127</ele>
        <time>2022-10-30T12:20:27Z</time>
      </trkpt>
      <trkpt lat="41.480864" lon="2.0734186">
        <ele>152.18005371</ele>
        <time>2022-10-30T12:20:28Z</time>
      </trkpt>
      <trkpt lat="41.48092" lon="2.0733926">
        <ele>152.18005371</ele>
        <time>2022-10-30T12:20:29Z</time>
      </trkpt>
      <trkpt lat="41.480973" lon="2.0733666">
        <ele>152.27005005</ele>
        <time>2022-10-30T12:20:30Z</time>
      </trkpt>
      <trkpt lat="41.481054" lon="2.0733307">
        <ele>152.3200531</ele>
        <time>2022-10-30T12:20:31Z</time>
      </trkpt>
      <trkpt lat="41.4811049" lon="2.0733047">
        <ele>152.40005493</ele>
        <time>2022-10-30T12:20:32Z</time>
      </trkpt>
      <trkpt lat="41.4811579" lon="2.0732838">
        <ele>152.40005493</ele>
        <time>2022-10-30T12:20:33Z</time>
      </trkpt>
      <trkpt lat="41.4812118" lon="2.0732619">
        <ele>152.43005371</ele>
        <time>2022-10-30T12:20:34Z</time>
      </trkpt>
      <trkpt lat="41.4812637" lon="2.0732369">
        <ele>152.51005554</ele>
        <time>2022-10-30T12:20:35Z</time>
      </trkpt>
      <trkpt lat="41.4813447" lon="2.073196">
        <ele>152.54005432</ele>
        <time>2022-10-30T12:20:36Z</time>
      </trkpt>
      <trkpt lat="41.4814007" lon="2.0731691">
        <ele>152.68005371</ele>
        <time>2022-10-30T12:20:37Z</time>
      </trkpt>
      <trkpt lat="41.4814507" lon="2.0731401">
        <ele>152.85005188</ele>
        <time>2022-10-30T12:20:38Z</time>
      </trkpt>
      <trkpt lat="41.4814996" lon="2.0731141">
        <ele>152.96005249</ele>
        <time>2022-10-30T12:20:39Z</time>
      </trkpt>
      <trkpt lat="41.4815776" lon="2.0730892">
        <ele>153.14004517</ele>
        <time>2022-10-30T12:20:40Z</time>
      </trkpt>
      <trkpt lat="41.4816246" lon="2.0730752">
        <ele>153.42004395</ele>
        <time>2022-10-30T12:20:41Z</time>
      </trkpt>
      <trkpt lat="41.4816745" lon="2.0730592">
        <ele>153.75004578</ele>
        <time>2022-10-30T12:20:42Z</time>
      </trkpt>
      <trkpt lat="41.4817205" lon="2.0730423">
        <ele>154.29003906</ele>
        <time>2022-10-30T12:20:43Z</time>
      </trkpt>
      <trkpt lat="41.4817664" lon="2.0730213">
        <ele>155.40003967</ele>
        <time>2022-10-30T12:20:44Z</time>
      </trkpt>
      <trkpt lat="41.4818224" lon="2.0729893">
        <ele>155.96003723</ele>
        <time>2022-10-30T12:20:45Z</time>
      </trkpt>
      <trkpt lat="41.4818584" lon="2.0729724">
        <ele>156.41003418</ele>
        <time>2022-10-30T12:20:46Z</time>
      </trkpt>
      <trkpt lat="41.4818963" lon="2.0729535">
        <ele>156.41003418</ele>
        <time>2022-10-30T12:20:47Z</time>
      </trkpt>
      <trkpt lat="41.4819343" lon="2.0729375">
        <ele>156.91003418</ele>
        <time>2022-10-30T12:20:48Z</time>
      </trkpt>
      <trkpt lat="41.4819682" lon="2.0729305">
        <ele>157.39002991</ele>
        <time>2022-10-30T12:20:49Z</time>
      </trkpt>
      <trkpt lat="41.4820121" lon="2.0729096">
        <ele>157.85003662</ele>
        <time>2022-10-30T12:20:50Z</time>
      </trkpt>
      <trkpt lat="41.4820461" lon="2.0728946">
        <ele>158.2800293</ele>
        <time>2022-10-30T12:20:51Z</time>
      </trkpt>
      <trkpt lat="41.482077" lon="2.0728767">
        <ele>158.69003296</ele>
        <time>2022-10-30T12:20:52Z</time>
      </trkpt>
      <trkpt lat="41.4821109" lon="2.0728458">
        <ele>159.05003357</ele>
        <time>2022-10-30T12:20:53Z</time>
      </trkpt>
      <trkpt lat="41.4821548" lon="2.0728108">
        <ele>159.36003113</ele>
        <time>2022-10-30T12:20:54Z</time>
      </trkpt>
      <trkpt lat="41.4821788" lon="2.0727848">
        <ele>159.66003418</ele>
        <time>2022-10-30T12:20:55Z</time>
      </trkpt>
      <trkpt lat="41.4822127" lon="2.0727528">
        <ele>159.96003723</ele>
        <time>2022-10-30T12:20:56Z</time>
      </trkpt>
      <trkpt lat="41.4822487" lon="2.0727309">
        <ele>160.09004211</ele>
        <time>2022-10-30T12:20:57Z</time>
      </trkpt>
      <trkpt lat="41.4823066" lon="2.072707">
        <ele>160.27003479</ele>
        <time>2022-10-30T12:20:58Z</time>
      </trkpt>
      <trkpt lat="41.4823496" lon="2.072687">
        <ele>160.43003845</ele>
        <time>2022-10-30T12:20:59Z</time>
      </trkpt>
      <trkpt lat="41.4823835" lon="2.072657">
        <ele>160.49003601</ele>
        <time>2022-10-30T12:21:00Z</time>
      </trkpt>
      <trkpt lat="41.4824154" lon="2.0726161">
        <ele>160.65003967</ele>
        <time>2022-10-30T12:21:01Z</time>
      </trkpt>
      <trkpt lat="41.4824443" lon="2.0725672">
        <ele>160.7300415</ele>
        <time>2022-10-30T12:21:02Z</time>
      </trkpt>
      <trkpt lat="41.4824583" lon="2.0724642">
        <ele>160.87004089</ele>
        <time>2022-10-30T12:21:03Z</time>
      </trkpt>
      <trkpt lat="41.4824564" lon="2.0723842">
        <ele>161.27003479</ele>
        <time>2022-10-30T12:21:04Z</time>
      </trkpt>
      <trkpt lat="41.4824564" lon="2.0723123">
        <ele>161.27003479</ele>
        <time>2022-10-30T12:21:05Z</time>
      </trkpt>
      <trkpt lat="41.4824524" lon="2.0722453">
        <ele>161.51004028</ele>
        <time>2022-10-30T12:21:06Z</time>
      </trkpt>
      <trkpt lat="41.4824405" lon="2.0721833">
        <ele>161.720047</ele>
        <time>2022-10-30T12:21:07Z</time>
      </trkpt>
      <trkpt lat="41.4824135" lon="2.0720864">
        <ele>162.00004578</ele>
        <time>2022-10-30T12:21:08Z</time>
      </trkpt>
      <trkpt lat="41.4824036" lon="2.0720284">
        <ele>162.21005249</ele>
        <time>2022-10-30T12:21:09Z</time>
      </trkpt>
      <trkpt lat="41.4823956" lon="2.0719655">
        <ele>162.38005066</ele>
        <time>2022-10-30T12:21:10Z</time>
      </trkpt>
      <trkpt lat="41.4823956" lon="2.0719045">
        <ele>162.08004761</ele>
        <time>2022-10-30T12:21:11Z</time>
      </trkpt>
      <trkpt lat="41.4823956" lon="2.0718126">
        <ele>162.06004333</ele>
        <time>2022-10-30T12:21:12Z</time>
      </trkpt>
      <trkpt lat="41.4823995" lon="2.0717497">
        <ele>162.06004333</ele>
        <time>2022-10-30T12:21:13Z</time>
      </trkpt>
      <trkpt lat="41.4823956" lon="2.0716977">
        <ele>161.99003601</ele>
        <time>2022-10-30T12:21:14Z</time>
      </trkpt>
      <trkpt lat="41.4823947" lon="2.0716488">
        <ele>161.99003601</ele>
        <time>2022-10-30T12:21:15Z</time>
      </trkpt>
      <trkpt lat="41.4824036" lon="2.0715938">
        <ele>162.09004211</ele>
        <time>2022-10-30T12:21:16Z</time>
      </trkpt>
      <trkpt lat="41.4824065" lon="2.0714948">
        <ele>162.24003601</ele>
        <time>2022-10-30T12:21:17Z</time>
      </trkpt>
      <trkpt lat="41.4824124" lon="2.0714199">
        <ele>162.46003723</ele>
        <time>2022-10-30T12:21:18Z</time>
      </trkpt>
      <trkpt lat="41.4824144" lon="2.071347">
        <ele>162.82003784</ele>
        <time>2022-10-30T12:21:19Z</time>
      </trkpt>
      <trkpt lat="41.4824263" lon="2.0712871">
        <ele>162.82003784</ele>
        <time>2022-10-30T12:21:20Z</time>
      </trkpt>
      <trkpt lat="41.4824612" lon="2.0712471">
        <ele>162.83003235</ele>
        <time>2022-10-30T12:21:21Z</time>
      </trkpt>
      <trkpt lat="41.4825012" lon="2.0712372">
        <ele>162.91003418</ele>
        <time>2022-10-30T12:21:22Z</time>
      </trkpt>
      <trkpt lat="41.4825341" lon="2.0712342">
        <ele>163.00003052</ele>
        <time>2022-10-30T12:21:23Z</time>
      </trkpt>
      <trkpt lat="41.4825741" lon="2.0712362">
        <ele>163.36003113</ele>
        <time>2022-10-30T12:21:24Z</time>
      </trkpt>
      <trkpt lat="41.482635" lon="2.0712222">
        <ele>163.45002747</ele>
        <time>2022-10-30T12:21:25Z</time>
      </trkpt>
      <trkpt lat="41.482679" lon="2.0712073">
        <ele>163.45002747</ele>
        <time>2022-10-30T12:21:26Z</time>
      </trkpt>
      <trkpt lat="41.4827159" lon="2.0711843">
        <ele>163.44003296</ele>
        <time>2022-10-30T12:21:27Z</time>
      </trkpt>
      <trkpt lat="41.4827508" lon="2.0711574">
        <ele>163.25003052</ele>
        <time>2022-10-30T12:21:28Z</time>
      </trkpt>
      <trkpt lat="41.4827898" lon="2.0711295">
        <ele>163.25003052</ele>
        <time>2022-10-30T12:21:29Z</time>
      </trkpt>
      <trkpt lat="41.4828368" lon="2.0711106">
        <ele>163.15002441</ele>
        <time>2022-10-30T12:21:30Z</time>
      </trkpt>
      <trkpt lat="41.4828638" lon="2.0710996">
        <ele>163.09002686</ele>
        <time>2022-10-30T12:21:31Z</time>
      </trkpt>
      <trkpt lat="41.4828947" lon="2.0710757">
        <ele>163.01002502</ele>
        <time>2022-10-30T12:21:32Z</time>
      </trkpt>
      <trkpt lat="41.4829216" lon="2.0710497">
        <ele>162.93002319</ele>
        <time>2022-10-30T12:21:33Z</time>
      </trkpt>
      <trkpt lat="41.4829626" lon="2.0710058">
        <ele>162.80001831</ele>
        <time>2022-10-30T12:21:34Z</time>
      </trkpt>
      <trkpt lat="41.4829895" lon="2.0709528">
        <ele>162.67001343</ele>
        <time>2022-10-30T12:21:35Z</time>
      </trkpt>
      <trkpt lat="41.4830204" lon="2.0709078">
        <ele>162.54000854</ele>
        <time>2022-10-30T12:21:36Z</time>
      </trkpt>
      <trkpt lat="41.4830564" lon="2.0708619">
        <ele>162.36001587</ele>
        <time>2022-10-30T12:21:37Z</time>
      </trkpt>
      <trkpt lat="41.4830884" lon="2.0708219">
        <ele>162.27001953</ele>
        <time>2022-10-30T12:21:38Z</time>
      </trkpt>
      <trkpt lat="41.4831253" lon="2.070788">
        <ele>162.11001587</ele>
        <time>2022-10-30T12:21:39Z</time>
      </trkpt>
      <trkpt lat="41.4831632" lon="2.070752">
        <ele>162.00001526</ele>
        <time>2022-10-30T12:21:40Z</time>
      </trkpt>
      <trkpt lat="41.4831941" lon="2.0707241">
        <ele>161.75001526</ele>
        <time>2022-10-30T12:21:41Z</time>
      </trkpt>
      <trkpt lat="41.4832241" lon="2.0706921">
        <ele>161.75001526</ele>
        <time>2022-10-30T12:21:42Z</time>
      </trkpt>
      <trkpt lat="41.483262" lon="2.0706221">
        <ele>161.48001099</ele>
        <time>2022-10-30T12:21:43Z</time>
      </trkpt>
      <trkpt lat="41.483302" lon="2.0705692">
        <ele>161.48001099</ele>
        <time>2022-10-30T12:21:44Z</time>
      </trkpt>
      <trkpt lat="41.4833399" lon="2.0705443">
        <ele>161.32000732</ele>
        <time>2022-10-30T12:21:45Z</time>
      </trkpt>
      <trkpt lat="41.4833869" lon="2.0705044">
        <ele>161.18000793</ele>
        <time>2022-10-30T12:21:46Z</time>
      </trkpt>
      <trkpt lat="41.4834298" lon="2.0704644">
        <ele>161.00001526</ele>
        <time>2022-10-30T12:21:47Z</time>
      </trkpt>
      <trkpt lat="41.4834988" lon="2.0703934">
        <ele>160.82002258</ele>
        <time>2022-10-30T12:21:48Z</time>
      </trkpt>
      <trkpt lat="41.4835397" lon="2.0703365">
        <ele>160.73002625</ele>
        <time>2022-10-30T12:21:49Z</time>
      </trkpt>
      <trkpt lat="41.4835826" lon="2.0702826">
        <ele>160.57002258</ele>
        <time>2022-10-30T12:21:50Z</time>
      </trkpt>
      <trkpt lat="41.4836236" lon="2.0702467">
        <ele>160.43002319</ele>
        <time>2022-10-30T12:21:51Z</time>
      </trkpt>
      <trkpt lat="41.4836786" lon="2.0701847">
        <ele>160.0300293</ele>
        <time>2022-10-30T12:21:52Z</time>
      </trkpt>
      <trkpt lat="41.4836935" lon="2.0701508">
        <ele>160.0300293</ele>
        <time>2022-10-30T12:21:53Z</time>
      </trkpt>
      <trkpt lat="41.4836786" lon="2.0701208">
        <ele>159.69003296</ele>
        <time>2022-10-30T12:21:54Z</time>
      </trkpt>
      <trkpt lat="41.4836696" lon="2.0701189">
        <ele>159.69003296</ele>
        <time>2022-10-30T12:21:55Z</time>
      </trkpt>
      <trkpt lat="41.4836487" lon="2.0701368">
        <ele>159.64002991</ele>
        <time>2022-10-30T12:21:56Z</time>
      </trkpt>
      <trkpt lat="41.4836387" lon="2.0701269">
        <ele>159.65002441</ele>
        <time>2022-10-30T12:21:57Z</time>
      </trkpt>
      <trkpt lat="41.4836338" lon="2.0701089">
        <ele>159.68002319</ele>
        <time>2022-10-30T12:21:58Z</time>
      </trkpt>
      <trkpt lat="41.4836397" lon="2.070092">
        <ele>159.68002319</ele>
        <time>2022-10-30T12:21:59Z</time>
      </trkpt>
      <trkpt lat="41.4836426" lon="2.07008">
        <ele>159.73002625</ele>
        <time>2022-10-30T12:22:00Z</time>
      </trkpt>
      <trkpt lat="41.483713" lon="2.070021">
        <ele>160.44000244</ele>
        <time>2022-10-30T12:22:52Z</time>
      </trkpt>
      <trkpt lat="41.4837359" lon="2.0700289">
        <ele>160.44000244</ele>
        <time>2022-10-30T12:22:53Z</time>
      </trkpt>
      <trkpt lat="41.4837439" lon="2.0700469">
        <ele>160.36999512</ele>
        <time>2022-10-30T12:22:54Z</time>
      </trkpt>
      <trkpt lat="41.4837478" lon="2.0700758">
        <ele>160.36999512</ele>
        <time>2022-10-30T12:22:55Z</time>
      </trkpt>
      <trkpt lat="41.4837877" lon="2.0701288">
        <ele>160.36999512</ele>
        <time>2022-10-30T12:22:56Z</time>
      </trkpt>
      <trkpt lat="41.4811059" lon="2.073257">
        <ele>145.44000244</ele>
        <time>2022-10-30T07:23:26Z</time>
      </trkpt>
      <trkpt lat="41.481027" lon="2.0733039">
        <ele>145.18000793</ele>
        <time>2022-10-30T07:23:27Z</time>
      </trkpt>
      <trkpt lat="41.4809471" lon="2.0733469">
        <ele>145.01000977</ele>
        <time>2022-10-30T07:23:28Z</time>
      </trkpt>
      <trkpt lat="41.4808331" lon="2.0734068">
        <ele>144.90000916</ele>
        <time>2022-10-30T07:23:29Z</time>
      </trkpt>
      <trkpt lat="41.4807472" lon="2.0734458">
        <ele>144.8400116</ele>
        <time>2022-10-30T07:23:30Z</time>
      </trkpt>
      <trkpt lat="41.4806713" lon="2.0734867">
        <ele>144.1000061</ele>
        <time>2022-10-30T07:23:31Z</time>
      </trkpt>
      <trkpt lat="41.4805974" lon="2.0735217">
        <ele>143.95001221</ele>
        <time>2022-10-30T07:23:32Z</time>
      </trkpt>
      <trkpt lat="41.4805294" lon="2.0735616">
        <ele>143.83001709</ele>
        <time>2022-10-30T07:23:33Z</time>
      </trkpt>
      <trkpt lat="41.4804285" lon="2.0736206">
        <ele>143.71002197</ele>
        <time>2022-10-30T07:23:34Z</time>
      </trkpt>
      <trkpt lat="41.4803625" lon="2.0736595">
        <ele>143.5300293</ele>
        <time>2022-10-30T07:23:35Z</time>
      </trkpt>
      <trkpt lat="41.4802946" lon="2.0736965">
        <ele>143.59002686</ele>
        <time>2022-10-30T07:23:36Z</time>
      </trkpt>
      <trkpt lat="41.4802267" lon="2.0737334">
        <ele>143.34002686</ele>
        <time>2022-10-30T07:23:37Z</time>
      </trkpt>
      <trkpt lat="41.4801237" lon="2.0738023">
        <ele>142.97003174</ele>
        <time>2022-10-30T07:23:38Z</time>
      </trkpt>
      <trkpt lat="41.4800578" lon="2.0738523">
        <ele>142.6300354</ele>
        <time>2022-10-30T07:23:39Z</time>
      </trkpt>
      <trkpt lat="41.4799929" lon="2.0739182">
        <ele>142.27003479</ele>
        <time>2022-10-30T07:23:40Z</time>
      </trkpt>
      <trkpt lat="41.4799389" lon="2.0740001">
        <ele>142.6300354</ele>
        <time>2022-10-30T07:23:41Z</time>
      </trkpt>
      <trkpt lat="41.479895" lon="2.074092">
        <ele>142.11003113</ele>
        <time>2022-10-30T07:23:42Z</time>
      </trkpt>
      <trkpt lat="41.479852" lon="2.074251">
        <ele>141.59002686</ele>
        <time>2022-10-30T07:23:43Z</time>
      </trkpt>
      <trkpt lat="41.4798401" lon="2.0743649">
        <ele>141.14002991</ele>
        <time>2022-10-30T07:23:44Z</time>
      </trkpt>
      <trkpt lat="41.4798411" lon="2.0744829">
        <ele>140.81002808</ele>
        <time>2022-10-30T07:23:45Z</time>
      </trkpt>
      <trkpt lat="41.479852" lon="2.0745958">
        <ele>140.90002441</ele>
        <time>2022-10-30T07:23:46Z</time>
      </trkpt>
      <trkpt lat="41.479855" lon="2.0747618">
        <ele>140.63002014</ele>
        <time>2022-10-30T07:23:47Z</time>
      </trkpt>
      <trkpt lat="41.479852" lon="2.0748778">
        <ele>140.23002625</ele>
        <time>2022-10-30T07:23:48Z</time>
      </trkpt>
      <trkpt lat="41.479855" lon="2.0750018">
        <ele>139.72003174</ele>
        <time>2022-10-30T07:23:49Z</time>
      </trkpt>
      <trkpt lat="41.4798559" lon="2.0751267">
        <ele>139.07003784</ele>
        <time>2022-10-30T07:23:50Z</time>
      </trkpt>
      <trkpt lat="41.4798648" lon="2.0753307">
        <ele>137.54003906</ele>
        <time>2022-10-30T07:23:51Z</time>
      </trkpt>
      <trkpt lat="41.4798728" lon="2.0754677">
        <ele>136.6300354</ele>
        <time>2022-10-30T07:23:52Z</time>
      </trkpt>
      <trkpt lat="41.4798748" lon="2.0756017">
        <ele>135.67002869</ele>
        <time>2022-10-30T07:23:53Z</time>
      </trkpt>
      <trkpt lat="41.4798728" lon="2.0757357">
        <ele>134.71002197</ele>
        <time>2022-10-30T07:23:54Z</time>
      </trkpt>
      <trkpt lat="41.4798658" lon="2.0758616">
        <ele>133.93002319</ele>
        <time>2022-10-30T07:23:55Z</time>
      </trkpt>
      <trkpt lat="41.4798489" lon="2.0760605">
        <ele>133.5300293</ele>
        <time>2022-10-30T07:23:56Z</time>
      </trkpt>
      <trkpt lat="41.479823" lon="2.0761845">
        <ele>132.8800354</ele>
        <time>2022-10-30T07:23:57Z</time>
      </trkpt>
      <trkpt lat="41.4797921" lon="2.0763055">
        <ele>132.34004211</ele>
        <time>2022-10-30T07:23:58Z</time>
      </trkpt>
      <trkpt lat="41.4797561" lon="2.0764164">
        <ele>131.83004761</ele>
        <time>2022-10-30T07:23:59Z</time>
      </trkpt>
      <trkpt lat="41.4797141" lon="2.0765224">
        <ele>131.40005493</ele>
        <time>2022-10-30T07:24:00Z</time>
      </trkpt>
      <trkpt lat="41.4796382" lon="2.0766673">
        <ele>131.43005371</ele>
        <time>2022-10-30T07:24:01Z</time>
      </trkpt>
      <trkpt lat="41.4795833" lon="2.0767603">
        <ele>130.89006042</ele>
        <time>2022-10-30T07:24:02Z</time>
      </trkpt>
      <trkpt lat="41.4795303" lon="2.0768522">
        <ele>130.48005676</ele>
        <time>2022-10-30T07:24:03Z</time>
      </trkpt>
      <trkpt lat="41.4794754" lon="2.0769422">
        <ele>130.09005737</ele>
        <time>2022-10-30T07:24:04Z</time>
      </trkpt>
      <trkpt lat="41.4793894" lon="2.0770651">
        <ele>129.86006165</ele>
        <time>2022-10-30T07:24:05Z</time>
      </trkpt>
      <trkpt lat="41.4793245" lon="2.077128">
        <ele>129.99006653</ele>
        <time>2022-10-30T07:24:06Z</time>
      </trkpt>
      <trkpt lat="41.4792585" lon="2.077189">
        <ele>129.60006714</ele>
        <time>2022-10-30T07:24:07Z</time>
      </trkpt>
      <trkpt lat="41.4791956" lon="2.0772479">
        <ele>129.30006409</ele>
        <time>2022-10-30T07:24:08Z</time>
      </trkpt>
      <trkpt lat="41.4791047" lon="2.0773299">
        <ele>129.0100708</ele>
        <time>2022-10-30T07:24:09Z</time>
      </trkpt>
      <trkpt lat="41.4790457" lon="2.0774008">
        <ele>128.7600708</ele>
        <time>2022-10-30T07:24:10Z</time>
      </trkpt>
      <trkpt lat="41.4789887" lon="2.0774788">
        <ele>128.8600769</ele>
        <time>2022-10-30T07:24:11Z</time>
      </trkpt>
      <trkpt lat="41.4789378" lon="2.0775537">
        <ele>128.54006958</ele>
        <time>2022-10-30T07:24:12Z</time>
      </trkpt>
      <trkpt lat="41.4788829" lon="2.0776247">
        <ele>128.22006226</ele>
        <time>2022-10-30T07:24:13Z</time>
      </trkpt>
      <trkpt lat="41.4788079" lon="2.0777416">
        <ele>127.98006439</ele>
        <time>2022-10-30T07:24:14Z</time>
      </trkpt>
      <trkpt lat="41.4787549" lon="2.0778145">
        <ele>127.69006348</ele>
        <time>2022-10-30T07:24:15Z</time>
      </trkpt>
      <trkpt lat="41.478697" lon="2.0778864">
        <ele>127.86006165</ele>
        <time>2022-10-30T07:24:16Z</time>
      </trkpt>
      <trkpt lat="41.478633" lon="2.0779463">
        <ele>127.55006409</ele>
        <time>2022-10-30T07:24:17Z</time>
      </trkpt>
      <trkpt lat="41.47856" lon="2.0780533">
        <ele>127.19006348</ele>
        <time>2022-10-30T07:24:18Z</time>
      </trkpt>
      <trkpt lat="41.478515" lon="2.0781203">
        <ele>127.05006409</ele>
        <time>2022-10-30T07:24:19Z</time>
      </trkpt>
      <trkpt lat="41.478462" lon="2.0781873">
        <ele>126.69006348</ele>
        <time>2022-10-30T07:24:20Z</time>
      </trkpt>
      <trkpt lat="41.4784131" lon="2.0782492">
        <ele>126.98006439</ele>
        <time>2022-10-30T07:24:21Z</time>
      </trkpt>
      <trkpt lat="41.4783671" lon="2.0783192">
        <ele>126.80006409</ele>
        <time>2022-10-30T07:24:22Z</time>
      </trkpt>
      <trkpt lat="41.4783032" lon="2.0784291">
        <ele>126.54006195</ele>
        <time>2022-10-30T07:24:23Z</time>
      </trkpt>
      <trkpt lat="41.4782542" lon="2.0785121">
        <ele>126.29006195</ele>
        <time>2022-10-30T07:24:24Z</time>
      </trkpt>
      <trkpt lat="41.4782083" lon="2.078597">
        <ele>125.94006348</ele>
        <time>2022-10-30T07:24:25Z</time>
      </trkpt>
      <trkpt lat="41.4781693" lon="2.078677">
        <ele>126.04006195</ele>
        <time>2022-10-30T07:24:26Z</time>
      </trkpt>
      <trkpt lat="41.4781234" lon="2.07882">
        <ele>125.58006287</ele>
        <time>2022-10-30T07:24:27Z</time>
      </trkpt>
      <trkpt lat="41.4780994" lon="2.078924">
        <ele>125.33006287</ele>
        <time>2022-10-30T07:24:28Z</time>
      </trkpt>
      <trkpt lat="41.4780815" lon="2.0790269">
        <ele>125.01006317</ele>
        <time>2022-10-30T07:24:29Z</time>
      </trkpt>
      <trkpt lat="41.4780605" lon="2.0791269">
        <ele>124.74006653</ele>
        <time>2022-10-30T07:24:30Z</time>
      </trkpt>
      <trkpt lat="41.4780316" lon="2.0792259">
        <ele>124.63006592</ele>
        <time>2022-10-30T07:24:31Z</time>
      </trkpt>
      <trkpt lat="41.4779866" lon="2.0793568">
        <ele>124.52006531</ele>
        <time>2022-10-30T07:24:32Z</time>
      </trkpt>
      <trkpt lat="41.4779557" lon="2.0794508">
        <ele>124.54006195</ele>
        <time>2022-10-30T07:24:33Z</time>
      </trkpt>
      <trkpt lat="41.4779307" lon="2.0795357">
        <ele>124.62006378</ele>
        <time>2022-10-30T07:24:34Z</time>
      </trkpt>
      <trkpt lat="41.4779087" lon="2.0796166">
        <ele>124.68006134</ele>
        <time>2022-10-30T07:24:35Z</time>
      </trkpt>
      <trkpt lat="41.4778798" lon="2.0797245">
        <ele>124.79006195</ele>
        <time>2022-10-30T07:24:36Z</time>
      </trkpt>
      <trkpt lat="41.4778668" lon="2.0797965">
        <ele>124.96006012</ele>
        <time>2022-10-30T07:24:37Z</time>
      </trkpt>
      <trkpt lat="41.4778519" lon="2.0798644">
        <ele>125.15006256</ele>
        <time>2022-10-30T07:24:38Z</time>
      </trkpt>
      <trkpt lat="41.477839" lon="2.0799364">
        <ele>125.36006165</ele>
        <time>2022-10-30T07:24:39Z</time>
      </trkpt>
      <trkpt lat="41.477825" lon="2.0799933">
        <ele>125.64006042</ele>
        <time>2022-10-30T07:24:40Z</time>
      </trkpt>
      <trkpt lat="41.477808" lon="2.0800972">
        <ele>125.86006165</ele>
        <time>2022-10-30T07:24:41Z</time>
      </trkpt>
      <trkpt lat="41.4778001" lon="2.0801701">
        <ele>126.14006042</ele>
        <time>2022-10-30T07:24:42Z</time>
      </trkpt>
      <trkpt lat="41.4777911" lon="2.080242">
        <ele>126.38005829</ele>
        <time>2022-10-30T07:24:43Z</time>
      </trkpt>
      <trkpt lat="41.4777852" lon="2.080309">
        <ele>126.52005768</ele>
        <time>2022-10-30T07:24:44Z</time>
      </trkpt>
      <trkpt lat="41.4777673" lon="2.080414">
        <ele>126.72005463</ele>
        <time>2022-10-30T07:24:45Z</time>
      </trkpt>
      <trkpt lat="41.4777563" lon="2.080488">
        <ele>126.96005249</ele>
        <time>2022-10-30T07:24:46Z</time>
      </trkpt>
      <trkpt lat="41.4777504" lon="2.0805689">
        <ele>127.20005035</ele>
        <time>2022-10-30T07:24:47Z</time>
      </trkpt>
      <trkpt lat="41.4777454" lon="2.0806529">
        <ele>127.46005249</ele>
        <time>2022-10-30T07:24:48Z</time>
      </trkpt>
      <trkpt lat="41.4777365" lon="2.0807308">
        <ele>127.66004944</ele>
        <time>2022-10-30T07:24:49Z</time>
      </trkpt>
      <trkpt lat="41.4777155" lon="2.0808508">
        <ele>127.77005005</ele>
        <time>2022-10-30T07:24:50Z</time>
      </trkpt>
      <trkpt lat="41.4777036" lon="2.0809267">
        <ele>127.8200531</ele>
        <time>2022-10-30T07:24:51Z</time>
      </trkpt>
      <trkpt lat="41.4776877" lon="2.0810016">
        <ele>127.86005402</ele>
        <time>2022-10-30T07:24:52Z</time>
      </trkpt>
      <trkpt lat="41.4776657" lon="2.0810775">
        <ele>127.90005493</ele>
        <time>2022-10-30T07:24:53Z</time>
      </trkpt>
      <trkpt lat="41.4776437" lon="2.0811475">
        <ele>127.90005493</ele>
        <time>2022-10-30T07:24:54Z</time>
      </trkpt>
      <trkpt lat="41.4776137" lon="2.0812545">
        <ele>127.91005707</ele>
        <time>2022-10-30T07:24:55Z</time>
      </trkpt>
      <trkpt lat="41.4775928" lon="2.0813304">
        <ele>127.91005707</ele>
        <time>2022-10-30T07:24:56Z</time>
      </trkpt>
      <trkpt lat="41.4775729" lon="2.0814043">
        <ele>127.90005493</ele>
        <time>2022-10-30T07:24:57Z</time>
      </trkpt>
      <trkpt lat="41.4775489" lon="2.0814753">
        <ele>127.84005737</ele>
        <time>2022-10-30T07:24:58Z</time>
      </trkpt>
      <trkpt lat="41.4775069" lon="2.0815852">
        <ele>127.76005554</ele>
        <time>2022-10-30T07:24:59Z</time>
      </trkpt>
      <trkpt lat="41.4774789" lon="2.0816632">
        <ele>127.65005493</ele>
        <time>2022-10-30T07:25:00Z</time>
      </trkpt>
      <trkpt lat="41.477452" lon="2.0817411">
        <ele>127.50005341</ele>
        <time>2022-10-30T07:25:01Z</time>
      </trkpt>
      <trkpt lat="41.477419" lon="2.0818111">
        <ele>127.36005402</ele>
        <time>2022-10-30T07:25:02Z</time>
      </trkpt>
      <trkpt lat="41.477384" lon="2.0818831">
        <ele>127.17005157</ele>
        <time>2022-10-30T07:25:03Z</time>
      </trkpt>
      <trkpt lat="41.4773241" lon="2.081987">
        <ele>126.97005463</ele>
        <time>2022-10-30T07:25:04Z</time>
      </trkpt>
      <trkpt lat="41.4772851" lon="2.082054">
        <ele>126.77005768</ele>
        <time>2022-10-30T07:25:05Z</time>
      </trkpt>
      <trkpt lat="41.4772442" lon="2.0821259">
        <ele>126.51005554</ele>
        <time>2022-10-30T07:25:06Z</time>
      </trkpt>
      <trkpt lat="41.4771982" lon="2.0821959">
        <ele>126.2400589</ele>
        <time>2022-10-30T07:25:07Z</time>
      </trkpt>
      <trkpt lat="41.4771233" lon="2.0822919">
        <ele>125.88005829</ele>
        <time>2022-10-30T07:25:08Z</time>
      </trkpt>
      <trkpt lat="41.4770754" lon="2.0823538">
        <ele>125.51005554</ele>
        <time>2022-10-30T07:25:09Z</time>
      </trkpt>
      <trkpt lat="41.4770204" lon="2.0824098">
        <ele>125.23005676</ele>
        <time>2022-10-30T07:25:10Z</time>
      </trkpt>
      <trkpt lat="41.4769754" lon="2.0824798">
        <ele>125.06005859</ele>
        <time>2022-10-30T07:25:11Z</time>
      </trkpt>
      <trkpt lat="41.4769095" lon="2.0825967">
        <ele>124.95005798</ele>
        <time>2022-10-30T07:25:12Z</time>
      </trkpt>
      <trkpt lat="41.4768655" lon="2.0826696">
        <ele>124.78005981</ele>
        <time>2022-10-30T07:25:13Z</time>
      </trkpt>
      <trkpt lat="41.4768185" lon="2.0827425">
        <ele>124.56005859</ele>
        <time>2022-10-30T07:25:14Z</time>
      </trkpt>
      <trkpt lat="41.4767735" lon="2.0828195">
        <ele>124.30005646</ele>
        <time>2022-10-30T07:25:15Z</time>
      </trkpt>
      <trkpt lat="41.4767296" lon="2.0828954">
        <ele>124.06005859</ele>
        <time>2022-10-30T07:25:16Z</time>
      </trkpt>
      <trkpt lat="41.4766666" lon="2.0830043">
        <ele>123.93006134</ele>
        <time>2022-10-30T07:25:17Z</time>
      </trkpt>
      <trkpt lat="41.4766246" lon="2.0830723">
        <ele>123.81005859</ele>
        <time>2022-10-30T07:25:18Z</time>
      </trkpt>
      <trkpt lat="41.4765887" lon="2.0831303">
        <ele>123.56005859</ele>
        <time>2022-10-30T07:25:19Z</time>
      </trkpt>
      <trkpt lat="41.4765527" lon="2.0831762">
        <ele>123.30005646</ele>
        <time>2022-10-30T07:25:20Z</time>
      </trkpt>
      <trkpt lat="41.4765048" lon="2.0832562">
        <ele>123.01005554</ele>
        <time>2022-10-30T07:25:21Z</time>
      </trkpt>
      <trkpt lat="41.4764959" lon="2.0833091">
        <ele>122.76005554</ele>
        <time>2022-10-30T07:25:22Z</time>
      </trkpt>
      <trkpt lat="41.4765118" lon="2.083363">
        <ele>122.58005524</ele>
        <time>2022-10-30T07:25:23Z</time>
      </trkpt>
      <trkpt lat="41.4765368" lon="2.083409">
        <ele>122.44005585</ele>
        <time>2022-10-30T07:25:24Z</time>
      </trkpt>
      <trkpt lat="41.4765588" lon="2.083467">
        <ele>122.28005219</ele>
        <time>2022-10-30T07:25:25Z</time>
      </trkpt>
      <trkpt lat="41.4765787" lon="2.0835609">
        <ele>122.18005371</ele>
        <time>2022-10-30T07:25:26Z</time>
      </trkpt>
      <trkpt lat="41.4765956" lon="2.0836249">
        <ele>122.23005676</ele>
        <time>2022-10-30T07:25:27Z</time>
      </trkpt>
      <trkpt lat="41.4766275" lon="2.0836788">
        <ele>122.29005432</ele>
        <time>2022-10-30T07:25:28Z</time>
      </trkpt>
      <trkpt lat="41.4766625" lon="2.0837308">
        <ele>122.46005249</ele>
        <time>2022-10-30T07:25:29Z</time>
      </trkpt>
      <trkpt lat="41.4767235" lon="2.0838087">
        <ele>122.50005341</ele>
        <time>2022-10-30T07:25:30Z</time>
      </trkpt>
      <trkpt lat="41.4767515" lon="2.0838707">
        <ele>122.50005341</ele>
        <time>2022-10-30T07:25:31Z</time>
      </trkpt>
      <trkpt lat="41.4767834" lon="2.0839296">
        <ele>122.54005432</ele>
        <time>2022-10-30T07:25:32Z</time>
      </trkpt>
      <trkpt lat="41.4768164" lon="2.0839846">
        <ele>122.54005432</ele>
        <time>2022-10-30T07:25:33Z</time>
      </trkpt>
      <trkpt lat="41.4768414" lon="2.0840335">
        <ele>122.62005615</ele>
        <time>2022-10-30T07:25:34Z</time>
      </trkpt>
      <trkpt lat="41.4768813" lon="2.0841015">
        <ele>122.6400528</ele>
        <time>2022-10-30T07:25:35Z</time>
      </trkpt>
      <trkpt lat="41.4768982" lon="2.0841634">
        <ele>122.55005646</ele>
        <time>2022-10-30T07:25:36Z</time>
      </trkpt>
      <trkpt lat="41.4769251" lon="2.0842224">
        <ele>122.56005859</ele>
        <time>2022-10-30T07:25:37Z</time>
      </trkpt>
      <trkpt lat="41.476956" lon="2.0842763">
        <ele>122.60005951</ele>
        <time>2022-10-30T07:25:38Z</time>
      </trkpt>
      <trkpt lat="41.477016" lon="2.0843593">
        <ele>122.60005951</ele>
        <time>2022-10-30T07:25:39Z</time>
      </trkpt>
      <trkpt lat="41.4770569" lon="2.0844152">
        <ele>122.66005707</ele>
        <time>2022-10-30T07:25:40Z</time>
      </trkpt>
      <trkpt lat="41.4770919" lon="2.0844672">
        <ele>122.63005829</ele>
        <time>2022-10-30T07:25:41Z</time>
      </trkpt>
      <trkpt lat="41.4771309" lon="2.0845161">
        <ele>122.56005859</ele>
        <time>2022-10-30T07:25:42Z</time>
      </trkpt>
      <trkpt lat="41.4771628" lon="2.084554">
        <ele>122.56005859</ele>
        <time>2022-10-30T07:25:43Z</time>
      </trkpt>
      <trkpt lat="41.4771988" lon="2.084612">
        <ele>122.56005859</ele>
        <time>2022-10-30T07:25:44Z</time>
      </trkpt>
      <trkpt lat="41.4772227" lon="2.0846459">
        <ele>122.48005676</ele>
        <time>2022-10-30T07:25:45Z</time>
      </trkpt>
      <trkpt lat="41.4772437" lon="2.0846789">
        <ele>122.45005798</ele>
        <time>2022-10-30T07:25:46Z</time>
      </trkpt>
      <trkpt lat="41.4772596" lon="2.0847198">
        <ele>122.41005707</ele>
        <time>2022-10-30T07:25:47Z</time>
      </trkpt>
      <trkpt lat="41.4772726" lon="2.0847618">
        <ele>122.40005493</ele>
        <time>2022-10-30T07:25:48Z</time>
      </trkpt>
      <trkpt lat="41.4772815" lon="2.0848427">
        <ele>122.41005707</ele>
        <time>2022-10-30T07:25:49Z</time>
      </trkpt>
      <trkpt lat="41.4772616" lon="2.0848917">
        <ele>122.38005829</ele>
        <time>2022-10-30T07:25:50Z</time>
      </trkpt>
      <trkpt lat="41.4772336" lon="2.0849337">
        <ele>122.38005829</ele>
        <time>2022-10-30T07:25:51Z</time>
      </trkpt>
      <trkpt lat="41.4772006" lon="2.0849726">
        <ele>122.38005829</ele>
        <time>2022-10-30T07:25:52Z</time>
      </trkpt>
      <trkpt lat="41.4771416" lon="2.0850316">
        <ele>122.4200592</ele>
        <time>2022-10-30T07:25:53Z</time>
      </trkpt>
      <trkpt lat="41.4771077" lon="2.0850595">
        <ele>122.4200592</ele>
        <time>2022-10-30T07:25:54Z</time>
      </trkpt>
      <trkpt lat="41.4770738" lon="2.0851015">
        <ele>122.28005981</ele>
        <time>2022-10-30T07:25:55Z</time>
      </trkpt>
      <trkpt lat="41.4770359" lon="2.0851394">
        <ele>122.15006256</ele>
        <time>2022-10-30T07:25:56Z</time>
      </trkpt>
      <trkpt lat="41.4769969" lon="2.0851793">
        <ele>121.95006561</ele>
        <time>2022-10-30T07:25:57Z</time>
      </trkpt>
      <trkpt lat="41.4769419" lon="2.0852473">
        <ele>121.79006195</ele>
        <time>2022-10-30T07:25:58Z</time>
      </trkpt>
      <trkpt lat="41.476896" lon="2.0852882">
        <ele>121.69006348</ele>
        <time>2022-10-30T07:25:59Z</time>
      </trkpt>
      <trkpt lat="41.4768451" lon="2.0853272">
        <ele>121.57006073</ele>
        <time>2022-10-30T07:26:00Z</time>
      </trkpt>
      <trkpt lat="41.4767912" lon="2.0853691">
        <ele>121.50006104</ele>
        <time>2022-10-30T07:26:01Z</time>
      </trkpt>
      <trkpt lat="41.4767072" lon="2.0854211">
        <ele>121.39006042</ele>
        <time>2022-10-30T07:26:02Z</time>
      </trkpt>
      <trkpt lat="41.4766492" lon="2.0854531">
        <ele>121.33006287</ele>
        <time>2022-10-30T07:26:03Z</time>
      </trkpt>
      <trkpt lat="41.4765923" lon="2.085494">
        <ele>121.21006012</ele>
        <time>2022-10-30T07:26:04Z</time>
      </trkpt>
      <trkpt lat="41.4765384" lon="2.0855279">
        <ele>121.02005768</ele>
        <time>2022-10-30T07:26:05Z</time>
      </trkpt>
      <trkpt lat="41.4764544" lon="2.0855749">
        <ele>120.83005524</ele>
        <time>2022-10-30T07:26:06Z</time>
      </trkpt>
      <trkpt lat="41.4763975" lon="2.0856058">
        <ele>120.53005219</ele>
        <time>2022-10-30T07:26:07Z</time>
      </trkpt>
      <trkpt lat="41.4763466" lon="2.0856307">
        <ele>120.28005219</ele>
        <time>2022-10-30T07:26:08Z</time>
      </trkpt>
      <trkpt lat="41.4762926" lon="2.0856556">
        <ele>120.20005035</ele>
        <time>2022-10-30T07:26:09Z</time>
      </trkpt>
      <trkpt lat="41.4762357" lon="2.0856786">
        <ele>120.1500473</ele>
        <time>2022-10-30T07:26:10Z</time>
      </trkpt>
      <trkpt lat="41.4761487" lon="2.0857236">
        <ele>120.07004547</ele>
        <time>2022-10-30T07:26:11Z</time>
      </trkpt>
      <trkpt lat="41.4760918" lon="2.0857495">
        <ele>119.99004364</ele>
        <time>2022-10-30T07:26:12Z</time>
      </trkpt>
      <trkpt lat="41.4760308" lon="2.0857715">
        <ele>119.79004669</ele>
        <time>2022-10-30T07:26:13Z</time>
      </trkpt>
      <trkpt lat="41.4759669" lon="2.0857964">
        <ele>119.470047</ele>
        <time>2022-10-30T07:26:14Z</time>
      </trkpt>
      <trkpt lat="41.475874" lon="2.0858323">
        <ele>119.23004913</ele>
        <time>2022-10-30T07:26:15Z</time>
      </trkpt>
      <trkpt lat="41.475811" lon="2.0858593">
        <ele>118.96005249</ele>
        <time>2022-10-30T07:26:16Z</time>
      </trkpt>
      <trkpt lat="41.4757431" lon="2.0858842">
        <ele>118.65005493</ele>
        <time>2022-10-30T07:26:17Z</time>
      </trkpt>
      <trkpt lat="41.4756722" lon="2.0859142">
        <ele>118.43005371</ele>
        <time>2022-10-30T07:26:18Z</time>
      </trkpt>
      <trkpt lat="41.4755983" lon="2.0859431">
        <ele>118.11005402</ele>
        <time>2022-10-30T07:26:19Z</time>
      </trkpt>
      <trkpt lat="41.4754893" lon="2.0859921">
        <ele>117.77005768</ele>
        <time>2022-10-30T07:26:20Z</time>
      </trkpt>
      <trkpt lat="41.4754184" lon="2.0860251">
        <ele>117.38005829</ele>
        <time>2022-10-30T07:26:21Z</time>
      </trkpt>
      <trkpt lat="41.4753384" lon="2.086064">
        <ele>116.77005768</ele>
        <time>2022-10-30T07:26:22Z</time>
      </trkpt>
      <trkpt lat="41.4752595" lon="2.086103">
        <ele>116.20005798</ele>
        <time>2022-10-30T07:26:23Z</time>
      </trkpt>
      <trkpt lat="41.4751486" lon="2.086149">
        <ele>115.60005951</ele>
        <time>2022-10-30T07:26:24Z</time>
      </trkpt>
      <trkpt lat="41.4750727" lon="2.086184">
        <ele>115.06005859</ele>
        <time>2022-10-30T07:26:25Z</time>
      </trkpt>
      <trkpt lat="41.4749977" lon="2.0862129">
        <ele>114.83005524</ele>
        <time>2022-10-30T07:26:26Z</time>
      </trkpt>
      <trkpt lat="41.4749247" lon="2.0862429">
        <ele>114.62005615</ele>
        <time>2022-10-30T07:26:27Z</time>
      </trkpt>
      <trkpt lat="41.4748538" lon="2.0862559">
        <ele>114.56005859</ele>
        <time>2022-10-30T07:26:28Z</time>
      </trkpt>
      <trkpt lat="41.4747528" lon="2.0862838">
        <ele>114.57006073</ele>
        <time>2022-10-30T07:26:29Z</time>
      </trkpt>
      <trkpt lat="41.4746909" lon="2.0862918">
        <ele>114.66005707</ele>
        <time>2022-10-30T07:26:30Z</time>
      </trkpt>
      <trkpt lat="41.474634" lon="2.0863007">
        <ele>114.88005829</ele>
        <time>2022-10-30T07:26:31Z</time>
      </trkpt>
      <trkpt lat="41.474575" lon="2.0863107">
        <ele>115.1700592</ele>
        <time>2022-10-30T07:26:32Z</time>
      </trkpt>
      <trkpt lat="41.474486" lon="2.0863216">
        <ele>115.53005981</ele>
        <time>2022-10-30T07:26:33Z</time>
      </trkpt>
      <trkpt lat="41.474431" lon="2.0863286">
        <ele>115.87005615</ele>
        <time>2022-10-30T07:26:34Z</time>
      </trkpt>
      <trkpt lat="41.4743731" lon="2.0863395">
        <ele>116.22005463</ele>
        <time>2022-10-30T07:26:35Z</time>
      </trkpt>
      <trkpt lat="41.4743192" lon="2.0863525">
        <ele>116.56005096</ele>
        <time>2022-10-30T07:26:36Z</time>
      </trkpt>
      <trkpt lat="41.4742562" lon="2.0863685">
        <ele>116.86005402</ele>
        <time>2022-10-30T07:26:37Z</time>
      </trkpt>
      <trkpt lat="41.4741703" lon="2.0863925">
        <ele>117.10005188</ele>
        <time>2022-10-30T07:26:38Z</time>
      </trkpt>
      <trkpt lat="41.4741173" lon="2.0864104">
        <ele>117.31005096</ele>
        <time>2022-10-30T07:26:39Z</time>
      </trkpt>
      <trkpt lat="41.4740613" lon="2.0864244">
        <ele>117.52005005</ele>
        <time>2022-10-30T07:26:40Z</time>
      </trkpt>
      <trkpt lat="41.4740033" lon="2.0864344">
        <ele>117.720047</ele>
        <time>2022-10-30T07:26:41Z</time>
      </trkpt>
      <trkpt lat="41.4739224" lon="2.0864423">
        <ele>117.94004822</ele>
        <time>2022-10-30T07:26:42Z</time>
      </trkpt>
      <trkpt lat="41.4738654" lon="2.0864572">
        <ele>118.17005157</ele>
        <time>2022-10-30T07:26:43Z</time>
      </trkpt>
      <trkpt lat="41.4738125" lon="2.0864682">
        <ele>118.31005096</ele>
        <time>2022-10-30T07:26:44Z</time>
      </trkpt>
      <trkpt lat="41.4737595" lon="2.0864771">
        <ele>118.43005371</ele>
        <time>2022-10-30T07:26:45Z</time>
      </trkpt>
      <trkpt lat="41.4737015" lon="2.0864841">
        <ele>118.53005219</ele>
        <time>2022-10-30T07:26:46Z</time>
      </trkpt>
      <trkpt lat="41.4736205" lon="2.0864911">
        <ele>118.62004852</ele>
        <time>2022-10-30T07:26:47Z</time>
      </trkpt>
      <trkpt lat="41.4735726" lon="2.0864852">
        <ele>118.77005005</ele>
        <time>2022-10-30T07:26:48Z</time>
      </trkpt>
      <trkpt lat="41.4735217" lon="2.0864822">
        <ele>118.91004944</ele>
        <time>2022-10-30T07:26:49Z</time>
      </trkpt>
      <trkpt lat="41.4734678" lon="2.0864882">
        <ele>119.00004578</ele>
        <time>2022-10-30T07:26:50Z</time>
      </trkpt>
      <trkpt lat="41.4734128" lon="2.0864862">
        <ele>119.01004791</ele>
        <time>2022-10-30T07:26:51Z</time>
      </trkpt>
      <trkpt lat="41.4733219" lon="2.0864773">
        <ele>118.91004944</ele>
        <time>2022-10-30T07:26:52Z</time>
      </trkpt>
      <trkpt lat="41.4732519" lon="2.0864843">
        <ele>118.66004944</ele>
        <time>2022-10-30T07:26:53Z</time>
      </trkpt>
      <trkpt lat="41.473184" lon="2.0864943">
        <ele>118.27005005</ele>
        <time>2022-10-30T07:26:54Z</time>
      </trkpt>
      <trkpt lat="41.4730771" lon="2.0865103">
        <ele>117.77005005</ele>
        <time>2022-10-30T07:26:55Z</time>
      </trkpt>
      <trkpt lat="41.4730021" lon="2.0865263">
        <ele>117.17005157</ele>
        <time>2022-10-30T07:26:56Z</time>
      </trkpt>
      <trkpt lat="41.4729222" lon="2.0865402">
        <ele>116.54005432</ele>
        <time>2022-10-30T07:26:57Z</time>
      </trkpt>
      <trkpt lat="41.4728362" lon="2.0865502">
        <ele>115.91005707</ele>
        <time>2022-10-30T07:26:58Z</time>
      </trkpt>
      <trkpt lat="41.4727462" lon="2.0865602">
        <ele>115.16005707</ele>
        <time>2022-10-30T07:26:59Z</time>
      </trkpt>
      <trkpt lat="41.4726573" lon="2.0865702">
        <ele>114.43005371</ele>
        <time>2022-10-30T07:27:00Z</time>
      </trkpt>
      <trkpt lat="41.4725334" lon="2.0865932">
        <ele>113.69005585</ele>
        <time>2022-10-30T07:27:01Z</time>
      </trkpt>
      <trkpt lat="41.4724485" lon="2.0865981">
        <ele>112.87005615</ele>
        <time>2022-10-30T07:27:02Z</time>
      </trkpt>
      <trkpt lat="41.4723735" lon="2.086601">
        <ele>112.11005402</ele>
        <time>2022-10-30T07:27:03Z</time>
      </trkpt>
      <trkpt lat="41.4723035" lon="2.0866099">
        <ele>111.28005219</ele>
        <time>2022-10-30T07:27:04Z</time>
      </trkpt>
      <trkpt lat="41.4721986" lon="2.0866218">
        <ele>110.41004944</ele>
        <time>2022-10-30T07:27:05Z</time>
      </trkpt>
      <trkpt lat="41.4721337" lon="2.0866288">
        <ele>109.69004822</ele>
        <time>2022-10-30T07:27:06Z</time>
      </trkpt>
      <trkpt lat="41.4720737" lon="2.0866338">
        <ele>109.01004791</ele>
        <time>2022-10-30T07:27:07Z</time>
      </trkpt>
      <trkpt lat="41.4720158" lon="2.0866537">
        <ele>108.53004456</ele>
        <time>2022-10-30T07:27:08Z</time>
      </trkpt>
      <trkpt lat="41.4719778" lon="2.0866857">
        <ele>108.29004669</ele>
        <time>2022-10-30T07:27:09Z</time>
      </trkpt>
      <trkpt lat="41.4719709" lon="2.0867426">
        <ele>108.23004913</ele>
        <time>2022-10-30T07:27:10Z</time>
      </trkpt>
      <trkpt lat="41.4719798" lon="2.0867995">
        <ele>108.30004883</ele>
        <time>2022-10-30T07:27:11Z</time>
      </trkpt>
      <trkpt lat="41.4719997" lon="2.0868635">
        <ele>108.28005219</ele>
        <time>2022-10-30T07:27:12Z</time>
      </trkpt>
      <trkpt lat="41.4720157" lon="2.0869335">
        <ele>108.15005493</ele>
        <time>2022-10-30T07:27:13Z</time>
      </trkpt>
      <trkpt lat="41.4720237" lon="2.0870474">
        <ele>108.03005219</ele>
        <time>2022-10-30T07:27:14Z</time>
      </trkpt>
      <trkpt lat="41.4720306" lon="2.0871194">
        <ele>107.94005585</ele>
        <time>2022-10-30T07:27:15Z</time>
      </trkpt>
      <trkpt lat="41.4720335" lon="2.0871933">
        <ele>107.95005798</ele>
        <time>2022-10-30T07:27:16Z</time>
      </trkpt>
      <trkpt lat="41.4720344" lon="2.0872713">
        <ele>108.00006104</ele>
        <time>2022-10-30T07:27:17Z</time>
      </trkpt>
      <trkpt lat="41.4720325" lon="2.0873442">
        <ele>108.01006317</ele>
        <time>2022-10-30T07:27:18Z</time>
      </trkpt>
      <trkpt lat="41.4720334" lon="2.0874551">
        <ele>107.94006348</ele>
        <time>2022-10-30T07:27:19Z</time>
      </trkpt>
      <trkpt lat="41.4720305" lon="2.087531">
        <ele>107.87006378</ele>
        <time>2022-10-30T07:27:20Z</time>
      </trkpt>
      <trkpt lat="41.4720246" lon="2.087611">
        <ele>107.81006622</ele>
        <time>2022-10-30T07:27:21Z</time>
      </trkpt>
      <trkpt lat="41.4720176" lon="2.087691">
        <ele>107.69006348</ele>
        <time>2022-10-30T07:27:22Z</time>
      </trkpt>
      <trkpt lat="41.4720117" lon="2.0878139">
        <ele>107.60006714</ele>
        <time>2022-10-30T07:27:23Z</time>
      </trkpt>
      <trkpt lat="41.4720067" lon="2.0878918">
        <ele>107.48006439</ele>
        <time>2022-10-30T07:27:24Z</time>
      </trkpt>
      <trkpt lat="41.4720058" lon="2.0879828">
        <ele>107.37006378</ele>
        <time>2022-10-30T07:27:25Z</time>
      </trkpt>
      <trkpt lat="41.4720078" lon="2.0880727">
        <ele>107.26006317</ele>
        <time>2022-10-30T07:27:26Z</time>
      </trkpt>
      <trkpt lat="41.4720019" lon="2.0881927">
        <ele>107.13006592</ele>
        <time>2022-10-30T07:27:27Z</time>
      </trkpt>
      <trkpt lat="41.4719909" lon="2.0882676">
        <ele>107.04006958</ele>
        <time>2022-10-30T07:27:28Z</time>
      </trkpt>
      <trkpt lat="41.471982" lon="2.0883416">
        <ele>106.93006897</ele>
        <time>2022-10-30T07:27:29Z</time>
      </trkpt>
      <trkpt lat="41.471976" lon="2.0884265">
        <ele>106.82006836</ele>
        <time>2022-10-30T07:27:30Z</time>
      </trkpt>
      <trkpt lat="41.4719691" lon="2.0885084">
        <ele>106.73007202</ele>
        <time>2022-10-30T07:27:31Z</time>
      </trkpt>
      <trkpt lat="41.4719501" lon="2.0886093">
        <ele>106.64007568</ele>
        <time>2022-10-30T07:27:32Z</time>
      </trkpt>
      <trkpt lat="41.4719421" lon="2.0886783">
        <ele>106.56007385</ele>
        <time>2022-10-30T07:27:33Z</time>
      </trkpt>
      <trkpt lat="41.4719272" lon="2.0887412">
        <ele>106.5100708</ele>
        <time>2022-10-30T07:27:34Z</time>
      </trkpt>
      <trkpt lat="41.4719073" lon="2.0888011">
        <ele>106.49007416</ele>
        <time>2022-10-30T07:27:35Z</time>
      </trkpt>
      <trkpt lat="41.4718904" lon="2.088905">
        <ele>106.45007324</ele>
        <time>2022-10-30T07:27:36Z</time>
      </trkpt>
      <trkpt lat="41.4718774" lon="2.08897">
        <ele>106.4300766</ele>
        <time>2022-10-30T07:27:37Z</time>
      </trkpt>
      <trkpt lat="41.4718784" lon="2.0890639">
        <ele>106.40007782</ele>
        <time>2022-10-30T07:27:38Z</time>
      </trkpt>
      <trkpt lat="41.4718793" lon="2.0891708">
        <ele>106.34008026</ele>
        <time>2022-10-30T07:27:39Z</time>
      </trkpt>
      <trkpt lat="41.4718704" lon="2.0892538">
        <ele>106.2800827</ele>
        <time>2022-10-30T07:27:40Z</time>
      </trkpt>
      <trkpt lat="41.4718723" lon="2.0894058">
        <ele>106.20008087</ele>
        <time>2022-10-30T07:27:41Z</time>
      </trkpt>
      <trkpt lat="41.4718714" lon="2.0895157">
        <ele>106.12007904</ele>
        <time>2022-10-30T07:27:42Z</time>
      </trkpt>
      <trkpt lat="41.4718675" lon="2.0895897">
        <ele>106.06008148</ele>
        <time>2022-10-30T07:27:43Z</time>
      </trkpt>
      <trkpt lat="41.4718714" lon="2.0896726">
        <ele>106.01007843</ele>
        <time>2022-10-30T07:27:44Z</time>
      </trkpt>
      <trkpt lat="41.4718883" lon="2.0898106">
        <ele>105.92008209</ele>
        <time>2022-10-30T07:27:45Z</time>
      </trkpt>
      <trkpt lat="41.4718923" lon="2.0898936">
        <ele>105.79008484</ele>
        <time>2022-10-30T07:27:46Z</time>
      </trkpt>
      <trkpt lat="41.4718972" lon="2.0899706">
        <ele>105.64008331</ele>
        <time>2022-10-30T07:27:47Z</time>
      </trkpt>
      <trkpt lat="41.4719042" lon="2.0900536">
        <ele>105.45008087</ele>
        <time>2022-10-30T07:27:48Z</time>
      </trkpt>
      <trkpt lat="41.471896" lon="2.090066">
        <ele>104.83999634</ele>
        <time>2022-10-30T07:27:48Z</time>
      </trkpt>
      <trkpt lat="41.4719079" lon="2.0901519">
        <ele>104.65999603</ele>
        <time>2022-10-30T07:27:49Z</time>
      </trkpt>
      <trkpt lat="41.4719228" lon="2.0902749">
        <ele>104.54999542</ele>
        <time>2022-10-30T07:27:50Z</time>
      </trkpt>
      <trkpt lat="41.4719378" lon="2.0903528">
        <ele>104.47999573</ele>
        <time>2022-10-30T07:27:51Z</time>
      </trkpt>
      <trkpt lat="41.4719477" lon="2.0904287">
        <ele>104.37999725</ele>
        <time>2022-10-30T07:27:52Z</time>
      </trkpt>
      <trkpt lat="41.4719536" lon="2.0904987">
        <ele>104.31999969</ele>
        <time>2022-10-30T07:27:53Z</time>
      </trkpt>
      <trkpt lat="41.4719686" lon="2.0906147">
        <ele>104.23000336</ele>
        <time>2022-10-30T07:27:54Z</time>
      </trkpt>
      <trkpt lat="41.4719766" lon="2.0906936">
        <ele>104.19000244</ele>
        <time>2022-10-30T07:27:55Z</time>
      </trkpt>
      <trkpt lat="41.4719895" lon="2.0907766">
        <ele>104.20999908</ele>
        <time>2022-10-30T07:27:56Z</time>
      </trkpt>
      <trkpt lat="41.4719995" lon="2.0908555">
        <ele>104.20999908</ele>
        <time>2022-10-30T07:27:57Z</time>
      </trkpt>
      <trkpt lat="41.4720155" lon="2.0909664">
        <ele>104.22000122</ele>
        <time>2022-10-30T07:27:58Z</time>
      </trkpt>
      <trkpt lat="41.4720304" lon="2.0910483">
        <ele>104.19000244</ele>
        <time>2022-10-30T07:27:59Z</time>
      </trkpt>
      <trkpt lat="41.4720444" lon="2.0911183">
        <ele>104.1700058</ele>
        <time>2022-10-30T07:28:00Z</time>
      </trkpt>
      <trkpt lat="41.4720524" lon="2.0912023">
        <ele>104.1700058</ele>
        <time>2022-10-30T07:28:01Z</time>
      </trkpt>
      <trkpt lat="41.4720634" lon="2.0912892">
        <ele>104.13000488</ele>
        <time>2022-10-30T07:28:02Z</time>
      </trkpt>
      <trkpt lat="41.4720763" lon="2.0914072">
        <ele>104.09000397</ele>
        <time>2022-10-30T07:28:03Z</time>
      </trkpt>
      <trkpt lat="41.4720792" lon="2.0914801">
        <ele>104.06000519</ele>
        <time>2022-10-30T07:28:04Z</time>
      </trkpt>
      <trkpt lat="41.4720792" lon="2.0915541">
        <ele>103.99000549</ele>
        <time>2022-10-30T07:28:05Z</time>
      </trkpt>
      <trkpt lat="41.4720851" lon="2.0916281">
        <ele>103.96000671</ele>
        <time>2022-10-30T07:28:06Z</time>
      </trkpt>
      <trkpt lat="41.4720941" lon="2.091701">
        <ele>103.94001007</ele>
        <time>2022-10-30T07:28:07Z</time>
      </trkpt>
      <trkpt lat="41.4721081" lon="2.0918239">
        <ele>103.92001343</ele>
        <time>2022-10-30T07:28:08Z</time>
      </trkpt>
      <trkpt lat="41.472119" lon="2.0918968">
        <ele>103.98001099</ele>
        <time>2022-10-30T07:28:09Z</time>
      </trkpt>
      <trkpt lat="41.472127" lon="2.0919697">
        <ele>104.06001282</ele>
        <time>2022-10-30T07:28:10Z</time>
      </trkpt>
      <trkpt lat="41.4721329" lon="2.0920506">
        <ele>104.15000916</ele>
        <time>2022-10-30T07:28:11Z</time>
      </trkpt>
      <trkpt lat="41.4721459" lon="2.0921706">
        <ele>104.21000671</ele>
        <time>2022-10-30T07:28:12Z</time>
      </trkpt>
      <trkpt lat="41.4721529" lon="2.0922415">
        <ele>104.29000854</ele>
        <time>2022-10-30T07:28:13Z</time>
      </trkpt>
      <trkpt lat="41.4721509" lon="2.0923055">
        <ele>104.40000916</ele>
        <time>2022-10-30T07:28:14Z</time>
      </trkpt>
      <trkpt lat="41.4721559" lon="2.0923714">
        <ele>104.48001099</ele>
        <time>2022-10-30T07:28:15Z</time>
      </trkpt>
      <trkpt lat="41.4721588" lon="2.0924434">
        <ele>104.5200119</ele>
        <time>2022-10-30T07:28:16Z</time>
      </trkpt>
      <trkpt lat="41.4721559" lon="2.0925674">
        <ele>104.51000977</ele>
        <time>2022-10-30T07:28:17Z</time>
      </trkpt>
      <trkpt lat="41.4721479" lon="2.0926303">
        <ele>104.47000885</ele>
        <time>2022-10-30T07:28:18Z</time>
      </trkpt>
      <trkpt lat="41.4721369" lon="2.0926962">
        <ele>104.40000916</ele>
        <time>2022-10-30T07:28:19Z</time>
      </trkpt>
      <trkpt lat="41.4721149" lon="2.0927572">
        <ele>104.39000702</ele>
        <time>2022-10-30T07:28:20Z</time>
      </trkpt>
      <trkpt lat="41.4721" lon="2.0928411">
        <ele>104.3500061</ele>
        <time>2022-10-30T07:28:21Z</time>
      </trkpt>
      <trkpt lat="41.472071" lon="2.0928611">
        <ele>104.3500061</ele>
        <time>2022-10-30T07:28:22Z</time>
      </trkpt>
      <trkpt lat="41.4720671" lon="2.0929011">
        <ele>104.3500061</ele>
        <time>2022-10-30T07:28:23Z</time>
      </trkpt>
      <trkpt lat="41.4720951" lon="2.092999">
        <ele>104.32000732</ele>
        <time>2022-10-30T07:28:24Z</time>
      </trkpt>
      <trkpt lat="41.4720892" lon="2.0930429">
        <ele>104.25000763</ele>
        <time>2022-10-30T07:28:25Z</time>
      </trkpt>
      <trkpt lat="41.4720951" lon="2.0931278">
        <ele>112.90000916</ele>
        <time>2022-10-30T07:28:26Z</time>
      </trkpt>
      <trkpt lat="41.4721081" lon="2.0932048">
        <ele>112.8500061</ele>
        <time>2022-10-30T07:28:27Z</time>
      </trkpt>
      <trkpt lat="41.472123" lon="2.0932857">
        <ele>112.77000427</ele>
        <time>2022-10-30T07:28:28Z</time>
      </trkpt>
      <trkpt lat="41.4721409" lon="2.0933867">
        <ele>112.70000458</ele>
        <time>2022-10-30T07:28:29Z</time>
      </trkpt>
      <trkpt lat="41.4721589" lon="2.0935216">
        <ele>112.62000275</ele>
        <time>2022-10-30T07:28:30Z</time>
      </trkpt>
      <trkpt lat="41.4721658" lon="2.0936125">
        <ele>112.40000153</ele>
        <time>2022-10-30T07:28:31Z</time>
      </trkpt>
      <trkpt lat="41.4721747" lon="2.0936945">
        <ele>112.25</ele>
        <time>2022-10-30T07:28:32Z</time>
      </trkpt>
      <trkpt lat="41.4721688" lon="2.0937624">
        <ele>112.12999725</ele>
        <time>2022-10-30T07:28:33Z</time>
      </trkpt>
      <trkpt lat="41.4721369" lon="2.0938284">
        <ele>112.02999878</ele>
        <time>2022-10-30T07:28:34Z</time>
      </trkpt>
      <trkpt lat="41.472125" lon="2.0938853">
        <ele>112.01000214</ele>
        <time>2022-10-30T07:28:35Z</time>
      </trkpt>
      <trkpt lat="41.472116" lon="2.0939553">
        <ele>111.93000031</ele>
        <time>2022-10-30T07:28:36Z</time>
      </trkpt>
      <trkpt lat="41.4721121" lon="2.0940352">
        <ele>111.88999939</ele>
        <time>2022-10-30T07:28:37Z</time>
      </trkpt>
      <trkpt lat="41.4721071" lon="2.0941081">
        <ele>111.88999939</ele>
        <time>2022-10-30T07:28:38Z</time>
      </trkpt>
      <trkpt lat="41.4721021" lon="2.094181">
        <ele>111.80999756</ele>
        <time>2022-10-30T07:28:39Z</time>
      </trkpt>
      <trkpt lat="41.4720952" lon="2.0943">
        <ele>111.72000122</ele>
        <time>2022-10-30T07:28:40Z</time>
      </trkpt>
      <trkpt lat="41.4720913" lon="2.09438">
        <ele>111.62000275</ele>
        <time>2022-10-30T07:28:41Z</time>
      </trkpt>
      <trkpt lat="41.4720903" lon="2.09446">
        <ele>111.45000458</ele>
        <time>2022-10-30T07:28:42Z</time>
      </trkpt>
      <trkpt lat="41.4720823" lon="2.0945369">
        <ele>111.23000336</ele>
        <time>2022-10-30T07:28:43Z</time>
      </trkpt>
      <trkpt lat="41.4720743" lon="2.0946599">
        <ele>110.99000549</ele>
        <time>2022-10-30T07:28:44Z</time>
      </trkpt>
      <trkpt lat="41.4720694" lon="2.0947448">
        <ele>110.79000854</ele>
        <time>2022-10-30T07:28:45Z</time>
      </trkpt>
      <trkpt lat="41.4720665" lon="2.0948218">
        <ele>110.61000824</ele>
        <time>2022-10-30T07:28:46Z</time>
      </trkpt>
      <trkpt lat="41.4720525" lon="2.0948888">
        <ele>110.47000885</ele>
        <time>2022-10-30T07:28:47Z</time>
      </trkpt>
      <trkpt lat="41.4720415" lon="2.0949617">
        <ele>110.4200058</ele>
        <time>2022-10-30T07:28:48Z</time>
      </trkpt>
      <trkpt lat="41.4720205" lon="2.0950636">
        <ele>110.33000946</ele>
        <time>2022-10-30T07:28:49Z</time>
      </trkpt>
      <trkpt lat="41.4720026" lon="2.0951216">
        <ele>110.28000641</ele>
        <time>2022-10-30T07:28:50Z</time>
      </trkpt>
      <trkpt lat="41.4719866" lon="2.0951875">
        <ele>110.29000854</ele>
        <time>2022-10-30T07:28:51Z</time>
      </trkpt>
      <trkpt lat="41.4719777" lon="2.0952635">
        <ele>110.25000763</ele>
        <time>2022-10-30T07:28:52Z</time>
      </trkpt>
      <trkpt lat="41.4719617" lon="2.0953764">
        <ele>110.18000793</ele>
        <time>2022-10-30T07:28:53Z</time>
      </trkpt>
      <trkpt lat="41.4719448" lon="2.0954483">
        <ele>110.12001038</ele>
        <time>2022-10-30T07:28:54Z</time>
      </trkpt>
      <trkpt lat="41.4719279" lon="2.0955123">
        <ele>110.11000824</ele>
        <time>2022-10-30T07:28:55Z</time>
      </trkpt>
      <trkpt lat="41.471912" lon="2.0955703">
        <ele>110.08000946</ele>
        <time>2022-10-30T07:28:56Z</time>
      </trkpt>
      <trkpt lat="41.471894" lon="2.0956723">
        <ele>110.1000061</ele>
        <time>2022-10-30T07:28:57Z</time>
      </trkpt>
      <trkpt lat="41.4718811" lon="2.0957452">
        <ele>110.13000488</ele>
        <time>2022-10-30T07:28:58Z</time>
      </trkpt>
      <trkpt lat="41.4718651" lon="2.0958101">
        <ele>110.13000488</ele>
        <time>2022-10-30T07:28:59Z</time>
      </trkpt>
      <trkpt lat="41.4718521" lon="2.0958801">
        <ele>110.13000488</ele>
        <time>2022-10-30T07:29:00Z</time>
      </trkpt>
      <trkpt lat="41.4718352" lon="2.0959491">
        <ele>110.08000183</ele>
        <time>2022-10-30T07:29:01Z</time>
      </trkpt>
      <trkpt lat="41.4718102" lon="2.096052">
        <ele>110.01000214</ele>
        <time>2022-10-30T07:29:02Z</time>
      </trkpt>
      <trkpt lat="41.4717943" lon="2.0961209">
        <ele>109.94000244</ele>
        <time>2022-10-30T07:29:03Z</time>
      </trkpt>
      <trkpt lat="41.4717774" lon="2.0961809">
        <ele>110</ele>
        <time>2022-10-30T07:29:04Z</time>
      </trkpt>
      <trkpt lat="41.4717594" lon="2.0962458">
        <ele>110.04000092</ele>
        <time>2022-10-30T07:29:05Z</time>
      </trkpt>
      <trkpt lat="41.4717365" lon="2.0963128">
        <ele>110.05000305</ele>
        <time>2022-10-30T07:29:06Z</time>
      </trkpt>
      <trkpt lat="41.4716975" lon="2.0964018">
        <ele>110.06000519</ele>
        <time>2022-10-30T07:29:07Z</time>
      </trkpt>
      <trkpt lat="41.4716736" lon="2.0964538">
        <ele>109.93000793</ele>
        <time>2022-10-30T07:29:08Z</time>
      </trkpt>
      <trkpt lat="41.4716486" lon="2.0965007">
        <ele>109.8500061</ele>
        <time>2022-10-30T07:29:09Z</time>
      </trkpt>
      <trkpt lat="41.4716257" lon="2.0965297">
        <ele>109.76000977</ele>
        <time>2022-10-30T07:29:10Z</time>
      </trkpt>
      <trkpt lat="41.4715827" lon="2.0965476">
        <ele>109.70001221</ele>
        <time>2022-10-30T07:29:11Z</time>
      </trkpt>
      <trkpt lat="41.4715448" lon="2.0965606">
        <ele>109.72000885</ele>
        <time>2022-10-30T07:29:12Z</time>
      </trkpt>
      <trkpt lat="41.4715019" lon="2.0965716">
        <ele>109.71000671</ele>
        <time>2022-10-30T07:29:13Z</time>
      </trkpt>
      <trkpt lat="41.4714579" lon="2.0965706">
        <ele>109.72000885</ele>
        <time>2022-10-30T07:29:14Z</time>
      </trkpt>
      <trkpt lat="41.471382" lon="2.0965825">
        <ele>109.75000763</ele>
        <time>2022-10-30T07:29:15Z</time>
      </trkpt>
      <trkpt lat="41.4713311" lon="2.0965854">
        <ele>109.66001129</ele>
        <time>2022-10-30T07:29:16Z</time>
      </trkpt>
      <trkpt lat="41.4712981" lon="2.0965775">
        <ele>109.63001251</ele>
        <time>2022-10-30T07:29:17Z</time>
      </trkpt>
      <trkpt lat="41.4712552" lon="2.0965675">
        <ele>109.67001343</ele>
        <time>2022-10-30T07:29:18Z</time>
      </trkpt>
      <trkpt lat="41.4712013" lon="2.0965475">
        <ele>109.67001343</ele>
        <time>2022-10-30T07:29:19Z</time>
      </trkpt>
      <trkpt lat="41.4711673" lon="2.0965335">
        <ele>109.81001282</ele>
        <time>2022-10-30T07:29:20Z</time>
      </trkpt>
      <trkpt lat="41.4711374" lon="2.0965136">
        <ele>109.98001099</ele>
        <time>2022-10-30T07:29:21Z</time>
      </trkpt>
      <trkpt lat="41.4710984" lon="2.0964906">
        <ele>110.08000946</ele>
        <time>2022-10-30T07:29:22Z</time>
      </trkpt>
      <trkpt lat="41.4710514" lon="2.0964657">
        <ele>110.20001221</ele>
        <time>2022-10-30T07:29:23Z</time>
      </trkpt>
      <trkpt lat="41.4710055" lon="2.0964297">
        <ele>110.33000946</ele>
        <time>2022-10-30T07:29:24Z</time>
      </trkpt>
      <trkpt lat="41.4709346" lon="2.0963828">
        <ele>110.4200058</ele>
        <time>2022-10-30T07:29:25Z</time>
      </trkpt>
      <trkpt lat="41.4708896" lon="2.0963528">
        <ele>108.54000854</ele>
        <time>2022-10-30T07:29:26Z</time>
      </trkpt>
      <trkpt lat="41.4708446" lon="2.0963239">
        <ele>108.6700058</ele>
        <time>2022-10-30T07:29:27Z</time>
      </trkpt>
      <trkpt lat="41.4708036" lon="2.0962969">
        <ele>108.73000336</ele>
        <time>2022-10-30T07:29:28Z</time>
      </trkpt>
      <trkpt lat="41.4707506" lon="2.096259">
        <ele>108.86000061</ele>
        <time>2022-10-30T07:29:29Z</time>
      </trkpt>
      <trkpt lat="41.4707086" lon="2.0962411">
        <ele>108.97000122</ele>
        <time>2022-10-30T07:29:30Z</time>
      </trkpt>
      <trkpt lat="41.4706727" lon="2.0962061">
        <ele>109.04000092</ele>
        <time>2022-10-30T07:29:31Z</time>
      </trkpt>
      <trkpt lat="41.4706287" lon="2.0961891">
        <ele>109.18000031</ele>
        <time>2022-10-30T07:29:32Z</time>
      </trkpt>
      <trkpt lat="41.4705518" lon="2.0961802">
        <ele>109.30999756</ele>
        <time>2022-10-30T07:29:33Z</time>
      </trkpt>
      <trkpt lat="41.4705039" lon="2.0961722">
        <ele>109.40999603</ele>
        <time>2022-10-30T07:29:34Z</time>
      </trkpt>
      <trkpt lat="41.4704529" lon="2.0961643">
        <ele>109.51999664</ele>
        <time>2022-10-30T07:29:35Z</time>
      </trkpt>
      <trkpt lat="41.4704079" lon="2.0961403">
        <ele>109.63999939</ele>
        <time>2022-10-30T07:29:36Z</time>
      </trkpt>
      <trkpt lat="41.470365" lon="2.0961154">
        <ele>109.69999695</ele>
        <time>2022-10-30T07:29:37Z</time>
      </trkpt>
      <trkpt lat="41.4703021" lon="2.0960845">
        <ele>109.81999969</ele>
        <time>2022-10-30T07:29:38Z</time>
      </trkpt>
      <trkpt lat="41.4702561" lon="2.0960615">
        <ele>109.94000244</ele>
        <time>2022-10-30T07:29:39Z</time>
      </trkpt>
      <trkpt lat="41.4702082" lon="2.0960396">
        <ele>110.04000092</ele>
        <time>2022-10-30T07:29:40Z</time>
      </trkpt>
      <trkpt lat="41.4701673" lon="2.0960106">
        <ele>110.15000153</ele>
        <time>2022-10-30T07:29:41Z</time>
      </trkpt>
      <trkpt lat="41.4701073" lon="2.0959707">
        <ele>110.23999786</ele>
        <time>2022-10-30T07:29:42Z</time>
      </trkpt>
      <trkpt lat="41.4700724" lon="2.0959447">
        <ele>110.34999847</ele>
        <time>2022-10-30T07:29:43Z</time>
      </trkpt>
      <trkpt lat="41.4700304" lon="2.0959238">
        <ele>110.43000031</ele>
        <time>2022-10-30T07:29:44Z</time>
      </trkpt>
      <trkpt lat="41.4699925" lon="2.0959038">
        <ele>110.51000214</ele>
        <time>2022-10-30T07:29:45Z</time>
      </trkpt>
      <trkpt lat="41.4699545" lon="2.0958838">
        <ele>110.59000397</ele>
        <time>2022-10-30T07:29:46Z</time>
      </trkpt>
      <trkpt lat="41.4698856" lon="2.0958539">
        <ele>110.69000244</ele>
        <time>2022-10-30T07:29:47Z</time>
      </trkpt>
      <trkpt lat="41.4698536" lon="2.0958219">
        <ele>110.81000519</ele>
        <time>2022-10-30T07:29:48Z</time>
      </trkpt>
      <trkpt lat="41.4698157" lon="2.0958049">
        <ele>110.99000549</ele>
        <time>2022-10-30T07:29:49Z</time>
      </trkpt>
      <trkpt lat="41.4697747" lon="2.0958059">
        <ele>111.16000366</ele>
        <time>2022-10-30T07:29:50Z</time>
      </trkpt>
      <trkpt lat="41.4697128" lon="2.0958148">
        <ele>111.32000732</ele>
        <time>2022-10-30T07:29:51Z</time>
      </trkpt>
      <trkpt lat="41.4696719" lon="2.0958288">
        <ele>111.46000671</ele>
        <time>2022-10-30T07:29:52Z</time>
      </trkpt>
      <trkpt lat="41.4696279" lon="2.0958357">
        <ele>111.54000854</ele>
        <time>2022-10-30T07:29:53Z</time>
      </trkpt>
      <trkpt lat="41.469591" lon="2.0958397">
        <ele>111.5900116</ele>
        <time>2022-10-30T07:29:54Z</time>
      </trkpt>
      <trkpt lat="41.469546" lon="2.0958447">
        <ele>111.63001251</ele>
        <time>2022-10-30T07:29:55Z</time>
      </trkpt>
      <trkpt lat="41.4694841" lon="2.0958187">
        <ele>111.63001251</ele>
        <time>2022-10-30T07:29:56Z</time>
      </trkpt>
      <trkpt lat="41.4694401" lon="2.0957908">
        <ele>111.64001465</ele>
        <time>2022-10-30T07:29:57Z</time>
      </trkpt>
      <trkpt lat="41.4693981" lon="2.0957568">
        <ele>111.66001129</ele>
        <time>2022-10-30T07:29:58Z</time>
      </trkpt>
      <trkpt lat="41.4693632" lon="2.0957259">
        <ele>111.67001343</ele>
        <time>2022-10-30T07:29:59Z</time>
      </trkpt>
      <trkpt lat="41.4693352" lon="2.0956969">
        <ele>111.70001221</ele>
        <time>2022-10-30T07:30:00Z</time>
      </trkpt>
      <trkpt lat="41.4692953" lon="2.0956459">
        <ele>111.73001099</ele>
        <time>2022-10-30T07:30:01Z</time>
      </trkpt>
      <trkpt lat="41.4692593" lon="2.095625">
        <ele>111.79000854</ele>
        <time>2022-10-30T07:30:02Z</time>
      </trkpt>
      <trkpt lat="41.4692394" lon="2.0956191">
        <ele>111.88000488</ele>
        <time>2022-10-30T07:30:03Z</time>
      </trkpt>
      <trkpt lat="41.4692244" lon="2.0956231">
        <ele>111.91000366</ele>
        <time>2022-10-30T07:30:04Z</time>
      </trkpt>
      <trkpt lat="41.4691945" lon="2.09567">
        <ele>111.81000519</ele>
        <time>2022-10-30T07:30:05Z</time>
      </trkpt>
      <trkpt lat="41.4691645" lon="2.095715">
        <ele>111.46000671</ele>
        <time>2022-10-30T07:30:06Z</time>
      </trkpt>
      <trkpt lat="41.4691586" lon="2.0957919">
        <ele>110.79000854</ele>
        <time>2022-10-30T07:30:07Z</time>
      </trkpt>
      <trkpt lat="41.4691536" lon="2.0958669">
        <ele>109.94001007</ele>
        <time>2022-10-30T07:30:08Z</time>
      </trkpt>
      <trkpt lat="41.4691646" lon="2.0960128">
        <ele>108.92001343</ele>
        <time>2022-10-30T07:30:09Z</time>
      </trkpt>
      <trkpt lat="41.4691995" lon="2.0961047">
        <ele>108.05001068</ele>
        <time>2022-10-30T07:30:10Z</time>
      </trkpt>
      <trkpt lat="41.4692165" lon="2.0961726">
        <ele>107.39000702</ele>
        <time>2022-10-30T07:30:11Z</time>
      </trkpt>
      <trkpt lat="41.4692294" lon="2.0962506">
        <ele>107.18000793</ele>
        <time>2022-10-30T07:30:12Z</time>
      </trkpt>
      <trkpt lat="41.4692344" lon="2.0963206">
        <ele>107.14000702</ele>
        <time>2022-10-30T07:30:13Z</time>
      </trkpt>
      <trkpt lat="41.4692244" lon="2.0964185">
        <ele>107.21000671</ele>
        <time>2022-10-30T07:30:14Z</time>
      </trkpt>
      <trkpt lat="41.4692085" lon="2.0964784">
        <ele>107.49000549</ele>
        <time>2022-10-30T07:30:15Z</time>
      </trkpt>
      <trkpt lat="41.4691886" lon="2.0965424">
        <ele>107.68000793</ele>
        <time>2022-10-30T07:30:16Z</time>
      </trkpt>
      <trkpt lat="41.4691756" lon="2.0966113">
        <ele>108.03000641</ele>
        <time>2022-10-30T07:30:17Z</time>
      </trkpt>
      <trkpt lat="41.4691577" lon="2.0966772">
        <ele>108.43000793</ele>
        <time>2022-10-30T07:30:18Z</time>
      </trkpt>
      <trkpt lat="41.4691317" lon="2.0967682">
        <ele>108.78000641</ele>
        <time>2022-10-30T07:30:19Z</time>
      </trkpt>
      <trkpt lat="41.4691088" lon="2.0968171">
        <ele>109.06000519</ele>
        <time>2022-10-30T07:30:20Z</time>
      </trkpt>
      <trkpt lat="41.4690879" lon="2.096871">
        <ele>109.32000732</ele>
        <time>2022-10-30T07:30:21Z</time>
      </trkpt>
      <trkpt lat="41.4690669" lon="2.0969249">
        <ele>109.52000427</ele>
        <time>2022-10-30T07:30:22Z</time>
      </trkpt>
      <trkpt lat="41.469036" lon="2.0970059">
        <ele>109.62000275</ele>
        <time>2022-10-30T07:30:23Z</time>
      </trkpt>
      <trkpt lat="41.4690151" lon="2.0970609">
        <ele>109.65000153</ele>
        <time>2022-10-30T07:30:24Z</time>
      </trkpt>
      <trkpt lat="41.4689911" lon="2.0971148">
        <ele>109.68000031</ele>
        <time>2022-10-30T07:30:25Z</time>
      </trkpt>
      <trkpt lat="41.4689661" lon="2.0971658">
        <ele>109.06999969</ele>
        <time>2022-10-30T07:30:26Z</time>
      </trkpt>
      <trkpt lat="41.4689432" lon="2.0972197">
        <ele>109.04000092</ele>
        <time>2022-10-30T07:30:27Z</time>
      </trkpt>
      <trkpt lat="41.4689042" lon="2.0972996">
        <ele>109.02000427</ele>
        <time>2022-10-30T07:30:28Z</time>
      </trkpt>
      <trkpt lat="41.4688803" lon="2.0973565">
        <ele>109.02000427</ele>
        <time>2022-10-30T07:30:29Z</time>
      </trkpt>
      <trkpt lat="41.4688563" lon="2.0974115">
        <ele>109.03000641</ele>
        <time>2022-10-30T07:30:30Z</time>
      </trkpt>
      <trkpt lat="41.4688224" lon="2.0974565">
        <ele>108.98000336</ele>
        <time>2022-10-30T07:30:31Z</time>
      </trkpt>
      <trkpt lat="41.4687774" lon="2.0975324">
        <ele>108.93000031</ele>
        <time>2022-10-30T07:30:32Z</time>
      </trkpt>
      <trkpt lat="41.4687515" lon="2.0975804">
        <ele>108.93000031</ele>
        <time>2022-10-30T07:30:33Z</time>
      </trkpt>
      <trkpt lat="41.4687265" lon="2.0976373">
        <ele>108.88999939</ele>
        <time>2022-10-30T07:30:34Z</time>
      </trkpt>
      <trkpt lat="41.4686926" lon="2.0976883">
        <ele>108.94999695</ele>
        <time>2022-10-30T07:30:35Z</time>
      </trkpt>
      <trkpt lat="41.4686497" lon="2.0977532">
        <ele>109.02999878</ele>
        <time>2022-10-30T07:30:36Z</time>
      </trkpt>
      <trkpt lat="41.4686237" lon="2.0978042">
        <ele>109.05999756</ele>
        <time>2022-10-30T07:30:37Z</time>
      </trkpt>
      <trkpt lat="41.4685958" lon="2.0978472">
        <ele>109.11000061</ele>
        <time>2022-10-30T07:30:38Z</time>
      </trkpt>
      <trkpt lat="41.4685698" lon="2.0978941">
        <ele>109.12000275</ele>
        <time>2022-10-30T07:30:39Z</time>
      </trkpt>
      <trkpt lat="41.4685429" lon="2.0979421">
        <ele>109.20000458</ele>
        <time>2022-10-30T07:30:40Z</time>
      </trkpt>
      <trkpt lat="41.4685109" lon="2.098033">
        <ele>109.23000336</ele>
        <time>2022-10-30T07:30:41Z</time>
      </trkpt>
      <trkpt lat="41.46849" lon="2.098096">
        <ele>109.30000305</ele>
        <time>2022-10-30T07:30:42Z</time>
      </trkpt>
      <trkpt lat="41.4684671" lon="2.0981509">
        <ele>109.37000275</ele>
        <time>2022-10-30T07:30:43Z</time>
      </trkpt>
      <trkpt lat="41.4684472" lon="2.0982189">
        <ele>109.40000153</ele>
        <time>2022-10-30T07:30:44Z</time>
      </trkpt>
      <trkpt lat="41.4684112" lon="2.0983119">
        <ele>109.45000458</ele>
        <time>2022-10-30T07:30:45Z</time>
      </trkpt>
      <trkpt lat="41.4683872" lon="2.0983688">
        <ele>109.48000336</ele>
        <time>2022-10-30T07:30:46Z</time>
      </trkpt>
      <trkpt lat="41.4683652" lon="2.0984367">
        <ele>109.48000336</ele>
        <time>2022-10-30T07:30:47Z</time>
      </trkpt>
      <trkpt lat="41.4683433" lon="2.0984977">
        <ele>109.49000549</ele>
        <time>2022-10-30T07:30:48Z</time>
      </trkpt>
      <trkpt lat="41.4683113" lon="2.0985536">
        <ele>109.52000427</ele>
        <time>2022-10-30T07:30:49Z</time>
      </trkpt>
      <trkpt lat="41.4682594" lon="2.0986286">
        <ele>109.57000732</ele>
        <time>2022-10-30T07:30:50Z</time>
      </trkpt>
      <trkpt lat="41.4682214" lon="2.0986885">
        <ele>109.64000702</ele>
        <time>2022-10-30T07:30:51Z</time>
      </trkpt>
      <trkpt lat="41.4681815" lon="2.0987435">
        <ele>109.56000519</ele>
        <time>2022-10-30T07:30:52Z</time>
      </trkpt>
      <trkpt lat="41.4681386" lon="2.0988004">
        <ele>109.36000824</ele>
        <time>2022-10-30T07:30:53Z</time>
      </trkpt>
      <trkpt lat="41.4680796" lon="2.0988803">
        <ele>109.19001007</ele>
        <time>2022-10-30T07:30:54Z</time>
      </trkpt>
      <trkpt lat="41.4680346" lon="2.0989423">
        <ele>109.04000854</ele>
        <time>2022-10-30T07:30:55Z</time>
      </trkpt>
      <trkpt lat="41.4679876" lon="2.0989962">
        <ele>108.98001099</ele>
        <time>2022-10-30T07:30:56Z</time>
      </trkpt>
      <trkpt lat="41.4679557" lon="2.0990551">
        <ele>109.03001404</ele>
        <time>2022-10-30T07:30:57Z</time>
      </trkpt>
      <trkpt lat="41.4679188" lon="2.0991111">
        <ele>109.03001404</ele>
        <time>2022-10-30T07:30:58Z</time>
      </trkpt>
      <trkpt lat="41.4678608" lon="2.0991971">
        <ele>109.0200119</ele>
        <time>2022-10-30T07:30:59Z</time>
      </trkpt>
      <trkpt lat="41.4678269" lon="2.099255">
        <ele>109.0900116</ele>
        <time>2022-10-30T07:31:00Z</time>
      </trkpt>
      <trkpt lat="41.467795" lon="2.099305">
        <ele>109.12001038</ele>
        <time>2022-10-30T07:31:01Z</time>
      </trkpt>
      <trkpt lat="41.467774" lon="2.0993709">
        <ele>109.12001038</ele>
        <time>2022-10-30T07:31:02Z</time>
      </trkpt>
      <trkpt lat="41.4677421" lon="2.0994718">
        <ele>109.12001038</ele>
        <time>2022-10-30T07:31:03Z</time>
      </trkpt>
      <trkpt lat="41.4677141" lon="2.0995228">
        <ele>109.12001038</ele>
        <time>2022-10-30T07:31:04Z</time>
      </trkpt>
      <trkpt lat="41.4676882" lon="2.0995838">
        <ele>109.20001221</ele>
        <time>2022-10-30T07:31:05Z</time>
      </trkpt>
      <trkpt lat="41.4676572" lon="2.0996307">
        <ele>109.35001373</ele>
        <time>2022-10-30T07:31:06Z</time>
      </trkpt>
      <trkpt lat="41.4676273" lon="2.0996857">
        <ele>109.57001495</ele>
        <time>2022-10-30T07:31:07Z</time>
      </trkpt>
      <trkpt lat="41.4675773" lon="2.0997596">
        <ele>109.68001556</ele>
        <time>2022-10-30T07:31:08Z</time>
      </trkpt>
      <trkpt lat="41.4675484" lon="2.0998156">
        <ele>109.7700119</ele>
        <time>2022-10-30T07:31:09Z</time>
      </trkpt>
      <trkpt lat="41.4675134" lon="2.0998555">
        <ele>109.91001129</ele>
        <time>2022-10-30T07:31:10Z</time>
      </trkpt>
      <trkpt lat="41.4674815" lon="2.0999094">
        <ele>109.97000885</ele>
        <time>2022-10-30T07:31:11Z</time>
      </trkpt>
      <trkpt lat="41.4674205" lon="2.0999774">
        <ele>110.11000824</ele>
        <time>2022-10-30T07:31:12Z</time>
      </trkpt>
      <trkpt lat="41.4673906" lon="2.1000433">
        <ele>110.24000549</ele>
        <time>2022-10-30T07:31:13Z</time>
      </trkpt>
      <trkpt lat="41.4673676" lon="2.1000972">
        <ele>110.36000824</ele>
        <time>2022-10-30T07:31:14Z</time>
      </trkpt>
      <trkpt lat="41.4673377" lon="2.1001592">
        <ele>110.53000641</ele>
        <time>2022-10-30T07:31:15Z</time>
      </trkpt>
      <trkpt lat="41.4672978" lon="2.1002551">
        <ele>110.64000702</ele>
        <time>2022-10-30T07:31:16Z</time>
      </trkpt>
      <trkpt lat="41.4672708" lon="2.1003271">
        <ele>110.81000519</ele>
        <time>2022-10-30T07:31:17Z</time>
      </trkpt>
      <trkpt lat="41.4672499" lon="2.100396">
        <ele>110.93000793</ele>
        <time>2022-10-30T07:31:18Z</time>
      </trkpt>
      <trkpt lat="41.4672389" lon="2.100473">
        <ele>111.08000946</ele>
        <time>2022-10-30T07:31:19Z</time>
      </trkpt>
      <trkpt lat="41.4672289" lon="2.10054">
        <ele>111.23001099</ele>
        <time>2022-10-30T07:31:20Z</time>
      </trkpt>
      <trkpt lat="41.4672289" lon="2.1006529">
        <ele>111.36000824</ele>
        <time>2022-10-30T07:31:21Z</time>
      </trkpt>
      <trkpt lat="41.4672239" lon="2.1007239">
        <ele>111.55001068</ele>
        <time>2022-10-30T07:31:22Z</time>
      </trkpt>
      <trkpt lat="41.467218" lon="2.1007898">
        <ele>111.76000977</ele>
        <time>2022-10-30T07:31:23Z</time>
      </trkpt>
      <trkpt lat="41.4672151" lon="2.1008608">
        <ele>112.06001282</ele>
        <time>2022-10-30T07:31:24Z</time>
      </trkpt>
      <trkpt lat="41.467216" lon="2.1009707">
        <ele>112.28001404</ele>
        <time>2022-10-30T07:31:25Z</time>
      </trkpt>
      <trkpt lat="41.4672101" lon="2.1010486">
        <ele>112.67001343</ele>
        <time>2022-10-30T07:31:26Z</time>
      </trkpt>
      <trkpt lat="41.4672032" lon="2.1011246">
        <ele>112.81001282</ele>
        <time>2022-10-30T07:31:27Z</time>
      </trkpt>
      <trkpt lat="41.4672012" lon="2.1011955">
        <ele>112.92001343</ele>
        <time>2022-10-30T07:31:28Z</time>
      </trkpt>
      <trkpt lat="41.4671932" lon="2.1012644">
        <ele>113.05001068</ele>
        <time>2022-10-30T07:31:29Z</time>
      </trkpt>
      <trkpt lat="41.4671682" lon="2.1013664">
        <ele>113.18000793</ele>
        <time>2022-10-30T07:31:30Z</time>
      </trkpt>
      <trkpt lat="41.4671513" lon="2.1014294">
        <ele>113.36000824</ele>
        <time>2022-10-30T07:31:31Z</time>
      </trkpt>
      <trkpt lat="41.4671364" lon="2.1015013">
        <ele>113.55001068</ele>
        <time>2022-10-30T07:31:32Z</time>
      </trkpt>
      <trkpt lat="41.4671275" lon="2.1015822">
        <ele>113.80001068</ele>
        <time>2022-10-30T07:31:33Z</time>
      </trkpt>
      <trkpt lat="41.4671225" lon="2.1016662">
        <ele>114.06001282</ele>
        <time>2022-10-30T07:31:34Z</time>
      </trkpt>
      <trkpt lat="41.4671035" lon="2.1017652">
        <ele>114.31001282</ele>
        <time>2022-10-30T07:31:35Z</time>
      </trkpt>
      <trkpt lat="41.4670895" lon="2.1018292">
        <ele>114.54001617</ele>
        <time>2022-10-30T07:31:36Z</time>
      </trkpt>
      <trkpt lat="41.4670726" lon="2.1018901">
        <ele>114.68001556</ele>
        <time>2022-10-30T07:31:37Z</time>
      </trkpt>
      <trkpt lat="41.4670577" lon="2.1019561">
        <ele>114.85001373</ele>
        <time>2022-10-30T07:31:38Z</time>
      </trkpt>
      <trkpt lat="41.4670307" lon="2.102049">
        <ele>115.0200119</ele>
        <time>2022-10-30T07:31:39Z</time>
      </trkpt>
      <trkpt lat="41.4670148" lon="2.10211">
        <ele>115.16001129</ele>
        <time>2022-10-30T07:31:40Z</time>
      </trkpt>
      <trkpt lat="41.4669998" lon="2.102165">
        <ele>115.29000854</ele>
        <time>2022-10-30T07:31:41Z</time>
      </trkpt>
      <trkpt lat="41.4669789" lon="2.1022149">
        <ele>115.39000702</ele>
        <time>2022-10-30T07:31:42Z</time>
      </trkpt>
      <trkpt lat="41.466945" lon="2.1022898">
        <ele>115.49000549</ele>
        <time>2022-10-30T07:31:43Z</time>
      </trkpt>
      <trkpt lat="41.466924" lon="2.1023438">
        <ele>115.57000732</ele>
        <time>2022-10-30T07:31:44Z</time>
      </trkpt>
      <trkpt lat="41.4669061" lon="2.1024007">
        <ele>115.74000549</ele>
        <time>2022-10-30T07:31:45Z</time>
      </trkpt>
      <trkpt lat="41.4668931" lon="2.1024686">
        <ele>115.93000793</ele>
        <time>2022-10-30T07:31:46Z</time>
      </trkpt>
      <trkpt lat="41.4668722" lon="2.1025166">
        <ele>116.07000732</ele>
        <time>2022-10-30T07:31:47Z</time>
      </trkpt>
      <trkpt lat="41.4668532" lon="2.1025985">
        <ele>116.28000641</ele>
        <time>2022-10-30T07:31:48Z</time>
      </trkpt>
      <trkpt lat="41.4668402" lon="2.1026644">
        <ele>116.47000885</ele>
        <time>2022-10-30T07:31:49Z</time>
      </trkpt>
      <trkpt lat="41.4668283" lon="2.1027204">
        <ele>116.72000885</ele>
        <time>2022-10-30T07:31:50Z</time>
      </trkpt>
      <trkpt lat="41.4668363" lon="2.1027814">
        <ele>117.0200119</ele>
        <time>2022-10-30T07:31:51Z</time>
      </trkpt>
      <trkpt lat="41.4668154" lon="2.1028324">
        <ele>117.32001495</ele>
        <time>2022-10-30T07:31:52Z</time>
      </trkpt>
      <trkpt lat="41.4667784" lon="2.1029163">
        <ele>117.62001801</ele>
        <time>2022-10-30T07:31:53Z</time>
      </trkpt>
      <trkpt lat="41.4667555" lon="2.1029773">
        <ele>117.90001678</ele>
        <time>2022-10-30T07:31:54Z</time>
      </trkpt>
      <trkpt lat="41.4667376" lon="2.1030473">
        <ele>118.11001587</ele>
        <time>2022-10-30T07:31:55Z</time>
      </trkpt>
      <trkpt lat="41.4667227" lon="2.1031273">
        <ele>118.25001526</ele>
        <time>2022-10-30T07:31:56Z</time>
      </trkpt>
      <trkpt lat="41.4667077" lon="2.1032022">
        <ele>118.2700119</ele>
        <time>2022-10-30T07:31:57Z</time>
      </trkpt>
      <trkpt lat="41.4666878" lon="2.1033152">
        <ele>118.16001129</ele>
        <time>2022-10-30T07:31:58Z</time>
      </trkpt>
      <trkpt lat="41.4666688" lon="2.1033911">
        <ele>118.04000854</ele>
        <time>2022-10-30T07:31:59Z</time>
      </trkpt>
      <trkpt lat="41.4666459" lon="2.10346">
        <ele>117.86000824</ele>
        <time>2022-10-30T07:32:00Z</time>
      </trkpt>
      <trkpt lat="41.466622" lon="2.1035419">
        <ele>117.75000763</ele>
        <time>2022-10-30T07:32:01Z</time>
      </trkpt>
      <trkpt lat="41.466589" lon="2.1036249">
        <ele>117.74000549</ele>
        <time>2022-10-30T07:32:02Z</time>
      </trkpt>
      <trkpt lat="41.466568" lon="2.1036769">
        <ele>117.68000793</ele>
        <time>2022-10-30T07:32:03Z</time>
      </trkpt>
      <trkpt lat="41.4665491" lon="2.1037338">
        <ele>117.71000671</ele>
        <time>2022-10-30T07:32:04Z</time>
      </trkpt>
      <trkpt lat="41.4665361" lon="2.1037927">
        <ele>117.81000519</ele>
        <time>2022-10-30T07:32:05Z</time>
      </trkpt>
      <trkpt lat="41.4665221" lon="2.1039006">
        <ele>117.89000702</ele>
        <time>2022-10-30T07:32:06Z</time>
      </trkpt>
      <trkpt lat="41.4665001" lon="2.1039535">
        <ele>118.02000427</ele>
        <time>2022-10-30T07:32:07Z</time>
      </trkpt>
      <trkpt lat="41.4664721" lon="2.1040074">
        <ele>118.12000275</ele>
        <time>2022-10-30T07:32:08Z</time>
      </trkpt>
      <trkpt lat="41.4664482" lon="2.1040613">
        <ele>118.13000488</ele>
        <time>2022-10-30T07:32:09Z</time>
      </trkpt>
      <trkpt lat="41.4663982" lon="2.1041263">
        <ele>118.19000244</ele>
        <time>2022-10-30T07:32:10Z</time>
      </trkpt>
      <trkpt lat="41.4663422" lon="2.1041502">
        <ele>118.26000214</ele>
        <time>2022-10-30T07:32:11Z</time>
      </trkpt>
      <trkpt lat="41.4662733" lon="2.1041383">
        <ele>118.34000397</ele>
        <time>2022-10-30T07:32:12Z</time>
      </trkpt>
      <trkpt lat="41.4662073" lon="2.1041283">
        <ele>118.44000244</ele>
        <time>2022-10-30T07:32:13Z</time>
      </trkpt>
      <trkpt lat="41.4661474" lon="2.1041303">
        <ele>118.52000427</ele>
        <time>2022-10-30T07:32:14Z</time>
      </trkpt>
      <trkpt lat="41.4660625" lon="2.1041422">
        <ele>118.55000305</ele>
        <time>2022-10-30T07:32:15Z</time>
      </trkpt>
      <trkpt lat="41.4660235" lon="2.1041682">
        <ele>118.63999939</ele>
        <time>2022-10-30T07:32:16Z</time>
      </trkpt>
      <trkpt lat="41.4659896" lon="2.1041961">
        <ele>118.73999786</ele>
        <time>2022-10-30T07:32:17Z</time>
      </trkpt>
      <trkpt lat="41.4659637" lon="2.104242">
        <ele>118.8299942</ele>
        <time>2022-10-30T07:32:18Z</time>
      </trkpt>
      <trkpt lat="41.4659397" lon="2.1042959">
        <ele>119.01999664</ele>
        <time>2022-10-30T07:32:19Z</time>
      </trkpt>
      <trkpt lat="41.4658998" lon="2.1043709">
        <ele>119.10999298</ele>
        <time>2022-10-30T07:32:20Z</time>
      </trkpt>
      <trkpt lat="41.4658758" lon="2.1044118">
        <ele>119.22999573</ele>
        <time>2022-10-30T07:32:21Z</time>
      </trkpt>
      <trkpt lat="41.4658568" lon="2.1044587">
        <ele>119.36999512</ele>
        <time>2022-10-30T07:32:22Z</time>
      </trkpt>
      <trkpt lat="41.4658479" lon="2.1045126">
        <ele>119.44999695</ele>
        <time>2022-10-30T07:32:23Z</time>
      </trkpt>
      <trkpt lat="41.465832" lon="2.1045625">
        <ele>119.55999756</ele>
        <time>2022-10-30T07:32:24Z</time>
      </trkpt>
      <trkpt lat="41.465804" lon="2.1046475">
        <ele>119.69999695</ele>
        <time>2022-10-30T07:32:25Z</time>
      </trkpt>
      <trkpt lat="41.465789" lon="2.1047064">
        <ele>120.15999603</ele>
        <time>2022-10-30T07:32:26Z</time>
      </trkpt>
      <trkpt lat="41.4657761" lon="2.1047823">
        <ele>120.28999329</ele>
        <time>2022-10-30T07:32:27Z</time>
      </trkpt>
      <trkpt lat="41.4657532" lon="2.1048713">
        <ele>120.41999054</ele>
        <time>2022-10-30T07:32:28Z</time>
      </trkpt>
      <trkpt lat="41.4657382" lon="2.1049242">
        <ele>120.50998688</ele>
        <time>2022-10-30T07:32:29Z</time>
      </trkpt>
      <trkpt lat="41.4657242" lon="2.1049852">
        <ele>120.61998749</ele>
        <time>2022-10-30T07:32:30Z</time>
      </trkpt>
      <trkpt lat="41.4657093" lon="2.1050261">
        <ele>120.71998596</ele>
        <time>2022-10-30T07:32:31Z</time>
      </trkpt>
      <trkpt lat="41.4656913" lon="2.1050751">
        <ele>120.86998749</ele>
        <time>2022-10-30T07:32:32Z</time>
      </trkpt>
      <trkpt lat="41.4656584" lon="2.1051521">
        <ele>120.9799881</ele>
        <time>2022-10-30T07:32:33Z</time>
      </trkpt>
      <trkpt lat="41.4656385" lon="2.105214">
        <ele>121.01998901</ele>
        <time>2022-10-30T07:32:34Z</time>
      </trkpt>
      <trkpt lat="41.4656205" lon="2.1052769">
        <ele>121.04998779</ele>
        <time>2022-10-30T07:32:35Z</time>
      </trkpt>
      <trkpt lat="41.4655946" lon="2.1053319">
        <ele>121.04998779</ele>
        <time>2022-10-30T07:32:36Z</time>
      </trkpt>
      <trkpt lat="41.4655676" lon="2.1053869">
        <ele>121.11998749</ele>
        <time>2022-10-30T07:32:37Z</time>
      </trkpt>
      <trkpt lat="41.4655237" lon="2.1054558">
        <ele>121.18998718</ele>
        <time>2022-10-30T07:32:38Z</time>
      </trkpt>
      <trkpt lat="41.4655057" lon="2.1055097">
        <ele>121.25998688</ele>
        <time>2022-10-30T07:32:39Z</time>
      </trkpt>
      <trkpt lat="41.4654848" lon="2.1055677">
        <ele>121.29998779</ele>
        <time>2022-10-30T07:32:40Z</time>
      </trkpt>
      <trkpt lat="41.4654608" lon="2.1056276">
        <ele>121.25998688</ele>
        <time>2022-10-30T07:32:41Z</time>
      </trkpt>
      <trkpt lat="41.4654309" lon="2.1057125">
        <ele>121.26998901</ele>
        <time>2022-10-30T07:32:42Z</time>
      </trkpt>
      <trkpt lat="41.465408" lon="2.1057735">
        <ele>121.20999146</ele>
        <time>2022-10-30T07:32:43Z</time>
      </trkpt>
      <trkpt lat="41.465385" lon="2.1058415">
        <ele>121.1599884</ele>
        <time>2022-10-30T07:32:44Z</time>
      </trkpt>
      <trkpt lat="41.4653621" lon="2.1059014">
        <ele>121.16999054</ele>
        <time>2022-10-30T07:32:45Z</time>
      </trkpt>
      <trkpt lat="41.4653382" lon="2.1059513">
        <ele>121.1599884</ele>
        <time>2022-10-30T07:32:46Z</time>
      </trkpt>
      <trkpt lat="41.4653073" lon="2.1060153">
        <ele>121.19998932</ele>
        <time>2022-10-30T07:32:47Z</time>
      </trkpt>
      <trkpt lat="41.4653003" lon="2.1060712">
        <ele>121.28998566</ele>
        <time>2022-10-30T07:32:48Z</time>
      </trkpt>
      <trkpt lat="41.4652753" lon="2.1061082">
        <ele>121.39998627</ele>
        <time>2022-10-30T07:32:49Z</time>
      </trkpt>
      <trkpt lat="41.4652584" lon="2.1061731">
        <ele>121.44998932</ele>
        <time>2022-10-30T07:32:50Z</time>
      </trkpt>
      <trkpt lat="41.4652485" lon="2.106246">
        <ele>121.38999176</ele>
        <time>2022-10-30T07:32:51Z</time>
      </trkpt>
      <trkpt lat="41.4652195" lon="2.106352">
        <ele>121.36999512</ele>
        <time>2022-10-30T07:32:52Z</time>
      </trkpt>
      <trkpt lat="41.4651976" lon="2.1064109">
        <ele>121.34999847</ele>
        <time>2022-10-30T07:32:53Z</time>
      </trkpt>
      <trkpt lat="41.4651836" lon="2.1064759">
        <ele>121.33999634</ele>
        <time>2022-10-30T07:32:54Z</time>
      </trkpt>
      <trkpt lat="41.4651357" lon="2.1065239">
        <ele>121.43999481</ele>
        <time>2022-10-30T07:32:55Z</time>
      </trkpt>
      <trkpt lat="41.4650927" lon="2.1065648">
        <ele>121.43999481</ele>
        <time>2022-10-30T07:32:56Z</time>
      </trkpt>
      <trkpt lat="41.4650658" lon="2.1066177">
        <ele>121.43999481</ele>
        <time>2022-10-30T07:32:57Z</time>
      </trkpt>
      <trkpt lat="41.4650398" lon="2.1066646">
        <ele>121.55999756</ele>
        <time>2022-10-30T07:32:58Z</time>
      </trkpt>
      <trkpt lat="41.4650199" lon="2.1067275">
        <ele>121.63999939</ele>
        <time>2022-10-30T07:32:59Z</time>
      </trkpt>
      <trkpt lat="41.4649949" lon="2.1068295">
        <ele>121.73999786</ele>
        <time>2022-10-30T07:33:00Z</time>
      </trkpt>
      <trkpt lat="41.464991" lon="2.1069155">
        <ele>121.61999512</ele>
        <time>2022-10-30T07:33:01Z</time>
      </trkpt>
      <trkpt lat="41.4649949" lon="2.1070015">
        <ele>121.26999664</ele>
        <time>2022-10-30T07:33:02Z</time>
      </trkpt>
      <trkpt lat="41.4650069" lon="2.1070975">
        <ele>120.63999939</ele>
        <time>2022-10-30T07:33:03Z</time>
      </trkpt>
      <trkpt lat="41.4650388" lon="2.1072204">
        <ele>119.94999695</ele>
        <time>2022-10-30T07:33:04Z</time>
      </trkpt>
      <trkpt lat="41.4650578" lon="2.1072993">
        <ele>119.48999786</ele>
        <time>2022-10-30T07:33:05Z</time>
      </trkpt>
      <trkpt lat="41.4650858" lon="2.1073773">
        <ele>119.25</ele>
        <time>2022-10-30T07:33:06Z</time>
      </trkpt>
      <trkpt lat="41.4651117" lon="2.1074492">
        <ele>119.37000275</ele>
        <time>2022-10-30T07:33:07Z</time>
      </trkpt>
      <trkpt lat="41.4651296" lon="2.1075251">
        <ele>119.61000061</ele>
        <time>2022-10-30T07:33:08Z</time>
      </trkpt>
      <trkpt lat="41.4651179" lon="2.107538">
        <ele>120.05000305</ele>
        <time>2022-10-30T07:33:08Z</time>
      </trkpt>
      <trkpt lat="41.4651269" lon="2.10761">
        <ele>120.30000305</ele>
        <time>2022-10-30T07:33:09Z</time>
      </trkpt>
      <trkpt lat="41.4651468" lon="2.1076999">
        <ele>120.49000549</ele>
        <time>2022-10-30T07:33:10Z</time>
      </trkpt>
      <trkpt lat="41.4651658" lon="2.1077628">
        <ele>120.66000366</ele>
        <time>2022-10-30T07:33:11Z</time>
      </trkpt>
      <trkpt lat="41.4651777" lon="2.1078298">
        <ele>120.91000366</ele>
        <time>2022-10-30T07:33:12Z</time>
      </trkpt>
      <trkpt lat="41.4651956" lon="2.1079338">
        <ele>121.16000366</ele>
        <time>2022-10-30T07:33:13Z</time>
      </trkpt>
      <trkpt lat="41.4652045" lon="2.1080077">
        <ele>121.47000122</ele>
        <time>2022-10-30T07:33:14Z</time>
      </trkpt>
      <trkpt lat="41.4652006" lon="2.1080676">
        <ele>121.84999847</ele>
        <time>2022-10-30T07:33:15Z</time>
      </trkpt>
      <trkpt lat="41.4651796" lon="2.1081126">
        <ele>122.15000153</ele>
        <time>2022-10-30T07:33:16Z</time>
      </trkpt>
      <trkpt lat="41.4651577" lon="2.1081546">
        <ele>122.5</ele>
        <time>2022-10-30T07:33:17Z</time>
      </trkpt>
      <trkpt lat="41.4651187" lon="2.1082205">
        <ele>122.80999756</ele>
        <time>2022-10-30T07:33:18Z</time>
      </trkpt>
      <trkpt lat="41.4651098" lon="2.1082695">
        <ele>123.09999847</ele>
        <time>2022-10-30T07:33:19Z</time>
      </trkpt>
      <trkpt lat="41.4650958" lon="2.1083175">
        <ele>123.37999725</ele>
        <time>2022-10-30T07:33:20Z</time>
      </trkpt>
      <trkpt lat="41.4650759" lon="2.1083774">
        <ele>123.5799942</ele>
        <time>2022-10-30T07:33:21Z</time>
      </trkpt>
      <trkpt lat="41.4650389" lon="2.1085054">
        <ele>123.74999237</ele>
        <time>2022-10-30T07:33:22Z</time>
      </trkpt>
      <trkpt lat="41.4650558" lon="2.1086043">
        <ele>123.87998962</ele>
        <time>2022-10-30T07:33:23Z</time>
      </trkpt>
      <trkpt lat="41.4650549" lon="2.1086483">
        <ele>124.02999115</ele>
        <time>2022-10-30T07:33:24Z</time>
      </trkpt>
      <trkpt lat="41.4650389" lon="2.1087172">
        <ele>124.18999481</ele>
        <time>2022-10-30T07:33:25Z</time>
      </trkpt>
      <trkpt lat="41.465026" lon="2.1087551">
        <ele>124.36999512</ele>
        <time>2022-10-30T07:33:26Z</time>
      </trkpt>
      <trkpt lat="41.4650031" lon="2.108773">
        <ele>124.52999878</ele>
        <time>2022-10-30T07:33:27Z</time>
      </trkpt>
      <trkpt lat="41.4649791" lon="2.108832">
        <ele>124.72999573</ele>
        <time>2022-10-30T07:33:28Z</time>
      </trkpt>
      <trkpt lat="41.4649321" lon="2.1088459">
        <ele>125.0799942</ele>
        <time>2022-10-30T07:33:29Z</time>
      </trkpt>
      <trkpt lat="41.4648842" lon="2.108806">
        <ele>125.43999481</ele>
        <time>2022-10-30T07:33:30Z</time>
      </trkpt>
      <trkpt lat="41.4648392" lon="2.108782">
        <ele>125.87999725</ele>
        <time>2022-10-30T07:33:31Z</time>
      </trkpt>
      <trkpt lat="41.4647802" lon="2.1087621">
        <ele>126.29999542</ele>
        <time>2022-10-30T07:33:32Z</time>
      </trkpt>
      <trkpt lat="41.4647352" lon="2.1087511">
        <ele>126.65999603</ele>
        <time>2022-10-30T07:33:33Z</time>
      </trkpt>
      <trkpt lat="41.4646963" lon="2.108776">
        <ele>127.03999329</ele>
        <time>2022-10-30T07:33:34Z</time>
      </trkpt>
      <trkpt lat="41.4646533" lon="2.1087979">
        <ele>127.37998962</ele>
        <time>2022-10-30T07:33:35Z</time>
      </trkpt>
      <trkpt lat="41.4645893" lon="2.1088518">
        <ele>127.66999054</ele>
        <time>2022-10-30T07:33:36Z</time>
      </trkpt>
      <trkpt lat="41.4645424" lon="2.1088828">
        <ele>127.99999237</ele>
        <time>2022-10-30T07:33:37Z</time>
      </trkpt>
      <trkpt lat="41.4645034" lon="2.1089287">
        <ele>128.33999634</ele>
        <time>2022-10-30T07:33:38Z</time>
      </trkpt>
      <trkpt lat="41.4644764" lon="2.1089777">
        <ele>128.80999756</ele>
        <time>2022-10-30T07:33:39Z</time>
      </trkpt>
      <trkpt lat="41.4644435" lon="2.1090386">
        <ele>129.34999084</ele>
        <time>2022-10-30T07:33:40Z</time>
      </trkpt>
      <trkpt lat="41.4643905" lon="2.1090956">
        <ele>129.82998657</ele>
        <time>2022-10-30T07:33:41Z</time>
      </trkpt>
      <trkpt lat="41.4643646" lon="2.1091085">
        <ele>130.28999329</ele>
        <time>2022-10-30T07:33:42Z</time>
      </trkpt>
      <trkpt lat="41.4643286" lon="2.1091205">
        <ele>130.77999878</ele>
        <time>2022-10-30T07:33:43Z</time>
      </trkpt>
      <trkpt lat="41.4643016" lon="2.1091474">
        <ele>131.31999207</ele>
        <time>2022-10-30T07:33:44Z</time>
      </trkpt>
      <trkpt lat="41.4642497" lon="2.1091674">
        <ele>131.8999939</ele>
        <time>2022-10-30T07:33:45Z</time>
      </trkpt>
      <trkpt lat="41.4642137" lon="2.1091834">
        <ele>132.5</ele>
        <time>2022-10-30T07:33:46Z</time>
      </trkpt>
      <trkpt lat="41.4641798" lon="2.1092013">
        <ele>133.02000427</ele>
        <time>2022-10-30T07:33:47Z</time>
      </trkpt>
      <trkpt lat="41.4641468" lon="2.1092173">
        <ele>133.55000305</ele>
        <time>2022-10-30T07:33:48Z</time>
      </trkpt>
      <trkpt lat="41.4641099" lon="2.1092742">
        <ele>134.08000183</ele>
        <time>2022-10-30T07:33:49Z</time>
      </trkpt>
      <trkpt lat="41.464095" lon="2.1093262">
        <ele>134.61999512</ele>
        <time>2022-10-30T07:33:50Z</time>
      </trkpt>
      <trkpt lat="41.4640641" lon="2.1093531">
        <ele>135.19999695</ele>
        <time>2022-10-30T07:33:51Z</time>
      </trkpt>
      <trkpt lat="41.4640441" lon="2.109375">
        <ele>135.63999939</ele>
        <time>2022-10-30T07:33:52Z</time>
      </trkpt>
      <trkpt lat="41.4640182" lon="2.109384">
        <ele>136.03999329</ele>
        <time>2022-10-30T07:33:53Z</time>
      </trkpt>
      <trkpt lat="41.4639983" lon="2.1094089">
        <ele>136.3999939</ele>
        <time>2022-10-30T07:33:54Z</time>
      </trkpt>
      <trkpt lat="41.4639854" lon="2.1094208">
        <ele>136.63999939</ele>
        <time>2022-10-30T07:33:55Z</time>
      </trkpt>
      <trkpt lat="41.4639744" lon="2.1094547">
        <ele>136.92999268</ele>
        <time>2022-10-30T07:33:56Z</time>
      </trkpt>
      <trkpt lat="41.4639604" lon="2.1094837">
        <ele>137.19999695</ele>
        <time>2022-10-30T07:33:57Z</time>
      </trkpt>
      <trkpt lat="41.4639405" lon="2.1095447">
        <ele>137.44999695</ele>
        <time>2022-10-30T07:33:58Z</time>
      </trkpt>
      <trkpt lat="41.4639335" lon="2.1095906">
        <ele>137.67999268</ele>
        <time>2022-10-30T07:33:59Z</time>
      </trkpt>
      <trkpt lat="41.4639344" lon="2.1096505">
        <ele>137.83999634</ele>
        <time>2022-10-30T07:34:00Z</time>
      </trkpt>
      <trkpt lat="41.4639315" lon="2.1097025">
        <ele>137.97000122</ele>
        <time>2022-10-30T07:34:01Z</time>
      </trkpt>
      <trkpt lat="41.4639405" lon="2.1097635">
        <ele>138.08999634</ele>
        <time>2022-10-30T07:34:02Z</time>
      </trkpt>
      <trkpt lat="41.4639494" lon="2.1098514">
        <ele>138.30999756</ele>
        <time>2022-10-30T07:34:03Z</time>
      </trkpt>
      <trkpt lat="41.4639474" lon="2.1098983">
        <ele>138.55000305</ele>
        <time>2022-10-30T07:34:04Z</time>
      </trkpt>
      <trkpt lat="41.4639604" lon="2.1099633">
        <ele>138.72000122</ele>
        <time>2022-10-30T07:34:05Z</time>
      </trkpt>
      <trkpt lat="41.4639813" lon="2.1100373">
        <ele>138.8500061</ele>
        <time>2022-10-30T07:34:06Z</time>
      </trkpt>
      <trkpt lat="41.4640003" lon="2.1101112">
        <ele>138.86000061</ele>
        <time>2022-10-30T07:34:07Z</time>
      </trkpt>
      <trkpt lat="41.4640092" lon="2.1102122">
        <ele>138.82000732</ele>
        <time>2022-10-30T07:34:08Z</time>
      </trkpt>
      <trkpt lat="41.4640121" lon="2.1102861">
        <ele>138.75</ele>
        <time>2022-10-30T07:34:09Z</time>
      </trkpt>
      <trkpt lat="41.4640112" lon="2.1103671">
        <ele>138.69999695</ele>
        <time>2022-10-30T07:34:10Z</time>
      </trkpt>
      <trkpt lat="41.4640083" lon="2.1104411">
        <ele>138.6499939</ele>
        <time>2022-10-30T07:34:11Z</time>
      </trkpt>
      <trkpt lat="41.4639893" lon="2.110547">
        <ele>138.6499939</ele>
        <time>2022-10-30T07:34:12Z</time>
      </trkpt>
      <trkpt lat="41.4639813" lon="2.110619">
        <ele>138.73999023</ele>
        <time>2022-10-30T07:34:13Z</time>
      </trkpt>
      <trkpt lat="41.4639724" lon="2.1106959">
        <ele>138.79998779</ele>
        <time>2022-10-30T07:34:14Z</time>
      </trkpt>
      <trkpt lat="41.4639495" lon="2.1107519">
        <ele>138.92999268</ele>
        <time>2022-10-30T07:34:15Z</time>
      </trkpt>
      <trkpt lat="41.4639345" lon="2.1108158">
        <ele>139.01998901</ele>
        <time>2022-10-30T07:34:16Z</time>
      </trkpt>
      <trkpt lat="41.4639156" lon="2.1108978">
        <ele>139.10998535</ele>
        <time>2022-10-30T07:34:17Z</time>
      </trkpt>
      <trkpt lat="41.4639006" lon="2.1109567">
        <ele>139.22998047</ele>
        <time>2022-10-30T07:34:18Z</time>
      </trkpt>
      <trkpt lat="41.4638767" lon="2.1110096">
        <ele>139.31997681</ele>
        <time>2022-10-30T07:34:19Z</time>
      </trkpt>
      <trkpt lat="41.4638398" lon="2.1110496">
        <ele>139.49996948</ele>
        <time>2022-10-30T07:34:20Z</time>
      </trkpt>
      <trkpt lat="41.4638218" lon="2.1111335">
        <ele>139.67996216</ele>
        <time>2022-10-30T07:34:21Z</time>
      </trkpt>
      <trkpt lat="41.4638189" lon="2.1111874">
        <ele>139.91996765</ele>
        <time>2022-10-30T07:34:22Z</time>
      </trkpt>
      <trkpt lat="41.46381" lon="2.1112464">
        <ele>140.13996887</ele>
        <time>2022-10-30T07:34:23Z</time>
      </trkpt>
      <trkpt lat="41.4637921" lon="2.1112854">
        <ele>140.3699646</ele>
        <time>2022-10-30T07:34:24Z</time>
      </trkpt>
      <trkpt lat="41.4637701" lon="2.1113783">
        <ele>140.65995789</ele>
        <time>2022-10-30T07:34:25Z</time>
      </trkpt>
      <trkpt lat="41.4637581" lon="2.1114393">
        <ele>141.87995911</ele>
        <time>2022-10-30T07:34:26Z</time>
      </trkpt>
      <trkpt lat="41.4637342" lon="2.1114973">
        <ele>142.05995178</ele>
        <time>2022-10-30T07:34:27Z</time>
      </trkpt>
      <trkpt lat="41.4637133" lon="2.1115592">
        <ele>142.16995239</ele>
        <time>2022-10-30T07:34:28Z</time>
      </trkpt>
      <trkpt lat="41.4636983" lon="2.1116161">
        <ele>142.19995117</ele>
        <time>2022-10-30T07:34:29Z</time>
      </trkpt>
      <trkpt lat="41.4636504" lon="2.1116751">
        <ele>142.279953</ele>
        <time>2022-10-30T07:34:30Z</time>
      </trkpt>
      <trkpt lat="41.4636075" lon="2.11169">
        <ele>142.48995972</ele>
        <time>2022-10-30T07:34:31Z</time>
      </trkpt>
      <trkpt lat="41.4635745" lon="2.1117269">
        <ele>142.779953</ele>
        <time>2022-10-30T07:34:32Z</time>
      </trkpt>
      <trkpt lat="41.4635376" lon="2.1117449">
        <ele>143.12995911</ele>
        <time>2022-10-30T07:34:33Z</time>
      </trkpt>
      <trkpt lat="41.4634906" lon="2.1117568">
        <ele>143.45996094</ele>
        <time>2022-10-30T07:34:34Z</time>
      </trkpt>
      <trkpt lat="41.4634127" lon="2.1117698">
        <ele>143.63995361</ele>
        <time>2022-10-30T07:34:35Z</time>
      </trkpt>
      <trkpt lat="41.4633637" lon="2.1117698">
        <ele>143.71995544</ele>
        <time>2022-10-30T07:34:36Z</time>
      </trkpt>
      <trkpt lat="41.4633107" lon="2.1117618">
        <ele>143.63995361</ele>
        <time>2022-10-30T07:34:37Z</time>
      </trkpt>
      <trkpt lat="41.4632608" lon="2.1117409">
        <ele>143.59996033</ele>
        <time>2022-10-30T07:34:38Z</time>
      </trkpt>
      <trkpt lat="41.4631898" lon="2.111707">
        <ele>143.5199585</ele>
        <time>2022-10-30T07:34:39Z</time>
      </trkpt>
      <trkpt lat="41.4631459" lon="2.1116851">
        <ele>143.40995789</ele>
        <time>2022-10-30T07:34:40Z</time>
      </trkpt>
      <trkpt lat="41.4631019" lon="2.1116611">
        <ele>143.34996033</ele>
        <time>2022-10-30T07:34:41Z</time>
      </trkpt>
      <trkpt lat="41.463053" lon="2.1116412">
        <ele>143.24995422</ele>
        <time>2022-10-30T07:34:42Z</time>
      </trkpt>
      <trkpt lat="41.463003" lon="2.1116222">
        <ele>143.14994812</ele>
        <time>2022-10-30T07:34:43Z</time>
      </trkpt>
      <trkpt lat="41.462928" lon="2.1116133">
        <ele>143.00994873</ele>
        <time>2022-10-30T07:34:44Z</time>
      </trkpt>
      <trkpt lat="41.4628711" lon="2.1116363">
        <ele>142.96995544</ele>
        <time>2022-10-30T07:34:45Z</time>
      </trkpt>
      <trkpt lat="41.4628161" lon="2.1116612">
        <ele>142.86994934</ele>
        <time>2022-10-30T07:34:46Z</time>
      </trkpt>
      <trkpt lat="41.4627552" lon="2.1116831">
        <ele>142.76994324</ele>
        <time>2022-10-30T07:34:47Z</time>
      </trkpt>
      <trkpt lat="41.4626972" lon="2.1116981">
        <ele>142.49993896</ele>
        <time>2022-10-30T07:34:48Z</time>
      </trkpt>
      <trkpt lat="41.4626052" lon="2.111707">
        <ele>141.99993896</ele>
        <time>2022-10-30T07:34:49Z</time>
      </trkpt>
      <trkpt lat="41.4625473" lon="2.111693">
        <ele>141.42993164</ele>
        <time>2022-10-30T07:34:50Z</time>
      </trkpt>
      <trkpt lat="41.4624854" lon="2.111661">
        <ele>140.8399353</ele>
        <time>2022-10-30T07:34:51Z</time>
      </trkpt>
      <trkpt lat="41.4624244" lon="2.1115801">
        <ele>140.5799408</ele>
        <time>2022-10-30T07:34:52Z</time>
      </trkpt>
      <trkpt lat="41.4623815" lon="2.1115262">
        <ele>140.4299469</ele>
        <time>2022-10-30T07:34:53Z</time>
      </trkpt>
      <trkpt lat="41.4623375" lon="2.1114802">
        <ele>140.38995361</ele>
        <time>2022-10-30T07:34:54Z</time>
      </trkpt>
      <trkpt lat="41.4622875" lon="2.1114352">
        <ele>140.36994934</ele>
        <time>2022-10-30T07:34:55Z</time>
      </trkpt>
      <trkpt lat="41.4622366" lon="2.1114043">
        <ele>140.18995667</ele>
        <time>2022-10-30T07:34:56Z</time>
      </trkpt>
      <trkpt lat="41.4621617" lon="2.1113604">
        <ele>140.12995911</ele>
        <time>2022-10-30T07:34:57Z</time>
      </trkpt>
      <trkpt lat="41.4621138" lon="2.1113195">
        <ele>140.1199646</ele>
        <time>2022-10-30T07:34:58Z</time>
      </trkpt>
      <trkpt lat="41.4620698" lon="2.1112795">
        <ele>140.17996216</ele>
        <time>2022-10-30T07:34:59Z</time>
      </trkpt>
      <trkpt lat="41.4620278" lon="2.1112476">
        <ele>140.27996826</ele>
        <time>2022-10-30T07:35:00Z</time>
      </trkpt>
      <trkpt lat="41.4619819" lon="2.1112176">
        <ele>140.3699646</ele>
        <time>2022-10-30T07:35:01Z</time>
      </trkpt>
      <trkpt lat="41.4618989" lon="2.1111816">
        <ele>140.4699707</ele>
        <time>2022-10-30T07:35:02Z</time>
      </trkpt>
      <trkpt lat="41.461848" lon="2.1111496">
        <ele>140.52996826</ele>
        <time>2022-10-30T07:35:03Z</time>
      </trkpt>
      <trkpt lat="41.461795" lon="2.1111247">
        <ele>140.64996338</ele>
        <time>2022-10-30T07:35:04Z</time>
      </trkpt>
      <trkpt lat="41.4617521" lon="2.1110918">
        <ele>140.69996643</ele>
        <time>2022-10-30T07:35:05Z</time>
      </trkpt>
      <trkpt lat="41.4616821" lon="2.1110478">
        <ele>140.79997253</ele>
        <time>2022-10-30T07:35:06Z</time>
      </trkpt>
      <trkpt lat="41.4616351" lon="2.1110179">
        <ele>140.89997864</ele>
        <time>2022-10-30T07:35:07Z</time>
      </trkpt>
      <trkpt lat="41.4615942" lon="2.110996">
        <ele>141.01997375</ele>
        <time>2022-10-30T07:35:08Z</time>
      </trkpt>
      <trkpt lat="41.4615472" lon="2.11096">
        <ele>141.2199707</ele>
        <time>2022-10-30T07:35:09Z</time>
      </trkpt>
      <trkpt lat="41.4614993" lon="2.1108721">
        <ele>141.38996887</ele>
        <time>2022-10-30T07:35:10Z</time>
      </trkpt>
      <trkpt lat="41.4614523" lon="2.1108481">
        <ele>141.64996338</ele>
        <time>2022-10-30T07:35:11Z</time>
      </trkpt>
      <trkpt lat="41.4614103" lon="2.1108082">
        <ele>141.97996521</ele>
        <time>2022-10-30T07:35:12Z</time>
      </trkpt>
      <trkpt lat="41.4613784" lon="2.1107553">
        <ele>142.33996582</ele>
        <time>2022-10-30T07:35:13Z</time>
      </trkpt>
      <trkpt lat="41.4613344" lon="2.1107334">
        <ele>142.64996338</ele>
        <time>2022-10-30T07:35:14Z</time>
      </trkpt>
      <trkpt lat="41.4612835" lon="2.1106804">
        <ele>142.95996094</ele>
        <time>2022-10-30T07:35:15Z</time>
      </trkpt>
      <trkpt lat="41.4612356" lon="2.1106625">
        <ele>143.20996094</ele>
        <time>2022-10-30T07:35:16Z</time>
      </trkpt>
      <trkpt lat="41.4612076" lon="2.1106465">
        <ele>143.48995972</ele>
        <time>2022-10-30T07:35:17Z</time>
      </trkpt>
      <trkpt lat="41.4611767" lon="2.1106316">
        <ele>143.81996155</ele>
        <time>2022-10-30T07:35:18Z</time>
      </trkpt>
      <trkpt lat="41.4611198" lon="2.1106386">
        <ele>144.18995667</ele>
        <time>2022-10-30T07:35:19Z</time>
      </trkpt>
      <trkpt lat="41.4610838" lon="2.1106366">
        <ele>144.67996216</ele>
        <time>2022-10-30T07:35:20Z</time>
      </trkpt>
      <trkpt lat="41.4610418" lon="2.1106356">
        <ele>145.08996582</ele>
        <time>2022-10-30T07:35:21Z</time>
      </trkpt>
      <trkpt lat="41.4610109" lon="2.1106317">
        <ele>145.5199585</ele>
        <time>2022-10-30T07:35:22Z</time>
      </trkpt>
      <trkpt lat="41.460971" lon="2.1106217">
        <ele>145.95996094</ele>
        <time>2022-10-30T07:35:23Z</time>
      </trkpt>
      <trkpt lat="41.4609201" lon="2.1106198">
        <ele>146.25996399</ele>
        <time>2022-10-30T07:35:24Z</time>
      </trkpt>
      <trkpt lat="41.4608852" lon="2.1106287">
        <ele>146.67996216</ele>
        <time>2022-10-30T07:35:25Z</time>
      </trkpt>
      <trkpt lat="41.4608472" lon="2.1106336">
        <ele>147.08996582</ele>
        <time>2022-10-30T07:35:26Z</time>
      </trkpt>
      <trkpt lat="41.4608112" lon="2.1106257">
        <ele>147.48995972</ele>
        <time>2022-10-30T07:35:27Z</time>
      </trkpt>
      <trkpt lat="41.4607813" lon="2.1106266">
        <ele>147.93995667</ele>
        <time>2022-10-30T07:35:28Z</time>
      </trkpt>
      <trkpt lat="41.4607293" lon="2.1106166">
        <ele>148.24995422</ele>
        <time>2022-10-30T07:35:29Z</time>
      </trkpt>
      <trkpt lat="41.4606854" lon="2.1105917">
        <ele>148.55995178</ele>
        <time>2022-10-30T07:35:30Z</time>
      </trkpt>
      <trkpt lat="41.4606494" lon="2.1105898">
        <ele>148.80995178</ele>
        <time>2022-10-30T07:35:31Z</time>
      </trkpt>
      <trkpt lat="41.4606054" lon="2.1105749">
        <ele>149.04995728</ele>
        <time>2022-10-30T07:35:32Z</time>
      </trkpt>
      <trkpt lat="41.4605365" lon="2.1105778">
        <ele>149.30995178</ele>
        <time>2022-10-30T07:35:33Z</time>
      </trkpt>
      <trkpt lat="41.4604965" lon="2.1105758">
        <ele>149.62995911</ele>
        <time>2022-10-30T07:35:34Z</time>
      </trkpt>
      <trkpt lat="41.4604556" lon="2.1105699">
        <ele>149.90995789</ele>
        <time>2022-10-30T07:35:35Z</time>
      </trkpt>
      <trkpt lat="41.4604176" lon="2.110568">
        <ele>150.20996094</ele>
        <time>2022-10-30T07:35:36Z</time>
      </trkpt>
      <trkpt lat="41.4603657" lon="2.1105531">
        <ele>150.52996826</ele>
        <time>2022-10-30T07:35:37Z</time>
      </trkpt>
      <trkpt lat="41.4603387" lon="2.1105321">
        <ele>150.73997498</ele>
        <time>2022-10-30T07:35:38Z</time>
      </trkpt>
      <trkpt lat="41.4603088" lon="2.1105112">
        <ele>150.98997498</ele>
        <time>2022-10-30T07:35:39Z</time>
      </trkpt>
      <trkpt lat="41.4602678" lon="2.1104842">
        <ele>151.14997864</ele>
        <time>2022-10-30T07:35:40Z</time>
      </trkpt>
      <trkpt lat="41.4602228" lon="2.1104563">
        <ele>151.39997864</ele>
        <time>2022-10-30T07:35:41Z</time>
      </trkpt>
      <trkpt lat="41.4601629" lon="2.1104273">
        <ele>151.78997803</ele>
        <time>2022-10-30T07:35:42Z</time>
      </trkpt>
      <trkpt lat="41.460126" lon="2.1104184">
        <ele>152.36997986</ele>
        <time>2022-10-30T07:35:43Z</time>
      </trkpt>
      <trkpt lat="41.460084" lon="2.1104014">
        <ele>153.09997559</ele>
        <time>2022-10-30T07:35:44Z</time>
      </trkpt>
      <trkpt lat="41.460043" lon="2.1103905">
        <ele>153.90997314</ele>
        <time>2022-10-30T07:35:45Z</time>
      </trkpt>
      <trkpt lat="41.459996" lon="2.1103726">
        <ele>154.67997742</ele>
        <time>2022-10-30T07:35:46Z</time>
      </trkpt>
      <trkpt lat="41.4599281" lon="2.1103537">
        <ele>155.33998108</ele>
        <time>2022-10-30T07:35:47Z</time>
      </trkpt>
      <trkpt lat="41.4598822" lon="2.1103537">
        <ele>155.9599762</ele>
        <time>2022-10-30T07:35:48Z</time>
      </trkpt>
      <trkpt lat="41.4598412" lon="2.1103348">
        <ele>156.42997742</ele>
        <time>2022-10-30T07:35:49Z</time>
      </trkpt>
      <trkpt lat="41.4598033" lon="2.1103128">
        <ele>156.83998108</ele>
        <time>2022-10-30T07:35:50Z</time>
      </trkpt>
      <trkpt lat="41.4597403" lon="2.1103119">
        <ele>157.2099762</ele>
        <time>2022-10-30T07:35:51Z</time>
      </trkpt>
      <trkpt lat="41.4596983" lon="2.1103109">
        <ele>157.48997498</ele>
        <time>2022-10-30T07:35:52Z</time>
      </trkpt>
      <trkpt lat="41.4596624" lon="2.110308">
        <ele>157.82997131</ele>
        <time>2022-10-30T07:35:53Z</time>
      </trkpt>
      <trkpt lat="41.4596244" lon="2.1103021">
        <ele>158.10997009</ele>
        <time>2022-10-30T07:35:54Z</time>
      </trkpt>
      <trkpt lat="41.4595884" lon="2.110304">
        <ele>158.39996338</ele>
        <time>2022-10-30T07:35:55Z</time>
      </trkpt>
      <trkpt lat="41.4595265" lon="2.1103031">
        <ele>158.77996826</ele>
        <time>2022-10-30T07:35:56Z</time>
      </trkpt>
      <trkpt lat="41.4594826" lon="2.110314">
        <ele>159.08996582</ele>
        <time>2022-10-30T07:35:57Z</time>
      </trkpt>
      <trkpt lat="41.4594426" lon="2.110322">
        <ele>159.4699707</ele>
        <time>2022-10-30T07:35:58Z</time>
      </trkpt>
      <trkpt lat="41.4593987" lon="2.1103479">
        <ele>159.81997681</ele>
        <time>2022-10-30T07:35:59Z</time>
      </trkpt>
      <trkpt lat="41.4593228" lon="2.1103769">
        <ele>160.07997131</ele>
        <time>2022-10-30T07:36:00Z</time>
      </trkpt>
      <trkpt lat="41.4592778" lon="2.1103988">
        <ele>160.34997559</ele>
        <time>2022-10-30T07:36:01Z</time>
      </trkpt>
      <trkpt lat="41.4592288" lon="2.1104268">
        <ele>160.61997986</ele>
        <time>2022-10-30T07:36:02Z</time>
      </trkpt>
      <trkpt lat="41.4591889" lon="2.1104517">
        <ele>160.87997437</ele>
        <time>2022-10-30T07:36:03Z</time>
      </trkpt>
      <trkpt lat="41.459128" lon="2.1104946">
        <ele>161.07997131</ele>
        <time>2022-10-30T07:36:04Z</time>
      </trkpt>
      <trkpt lat="41.459093" lon="2.1105336">
        <ele>161.27996826</ele>
        <time>2022-10-30T07:36:05Z</time>
      </trkpt>
      <trkpt lat="41.459057" lon="2.1105846">
        <ele>161.42996216</ele>
        <time>2022-10-30T07:36:06Z</time>
      </trkpt>
      <trkpt lat="41.4590231" lon="2.1106296">
        <ele>161.55996704</ele>
        <time>2022-10-30T07:36:07Z</time>
      </trkpt>
      <trkpt lat="41.4589871" lon="2.1106655">
        <ele>161.66996765</ele>
        <time>2022-10-30T07:36:08Z</time>
      </trkpt>
      <trkpt lat="41.4589372" lon="2.1107265">
        <ele>161.75996399</ele>
        <time>2022-10-30T07:36:09Z</time>
      </trkpt>
      <trkpt lat="41.4588992" lon="2.1107644">
        <ele>161.81996155</ele>
        <time>2022-10-30T07:36:10Z</time>
      </trkpt>
      <trkpt lat="41.4588632" lon="2.1108113">
        <ele>161.83996582</ele>
        <time>2022-10-30T07:36:11Z</time>
      </trkpt>
      <trkpt lat="41.4588313" lon="2.1108453">
        <ele>161.84996033</ele>
        <time>2022-10-30T07:36:12Z</time>
      </trkpt>
      <trkpt lat="41.4588004" lon="2.1108773">
        <ele>161.83996582</ele>
        <time>2022-10-30T07:36:13Z</time>
      </trkpt>
      <trkpt lat="41.4587465" lon="2.1109312">
        <ele>161.77996826</ele>
        <time>2022-10-30T07:36:14Z</time>
      </trkpt>
      <trkpt lat="41.4587185" lon="2.1109811">
        <ele>161.74996948</ele>
        <time>2022-10-30T07:36:15Z</time>
      </trkpt>
      <trkpt lat="41.4586935" lon="2.1110231">
        <ele>161.74996948</ele>
        <time>2022-10-30T07:36:16Z</time>
      </trkpt>
      <trkpt lat="41.4586646" lon="2.111066">
        <ele>161.74996948</ele>
        <time>2022-10-30T07:36:17Z</time>
      </trkpt>
      <trkpt lat="41.4586196" lon="2.111141">
        <ele>161.74996948</ele>
        <time>2022-10-30T07:36:18Z</time>
      </trkpt>
      <trkpt lat="41.4585896" lon="2.1111999">
        <ele>161.68997192</ele>
        <time>2022-10-30T07:36:19Z</time>
      </trkpt>
      <trkpt lat="41.4585577" lon="2.1112558">
        <ele>161.62997437</ele>
        <time>2022-10-30T07:36:20Z</time>
      </trkpt>
      <trkpt lat="41.4585277" lon="2.1113008">
        <ele>161.51997375</ele>
        <time>2022-10-30T07:36:21Z</time>
      </trkpt>
      <trkpt lat="41.4585068" lon="2.1113558">
        <ele>161.43997192</ele>
        <time>2022-10-30T07:36:22Z</time>
      </trkpt>
      <trkpt lat="41.4584768" lon="2.1114367">
        <ele>161.30996704</ele>
        <time>2022-10-30T07:36:23Z</time>
      </trkpt>
      <trkpt lat="41.4584578" lon="2.1114947">
        <ele>161.24996948</ele>
        <time>2022-10-30T07:36:24Z</time>
      </trkpt>
      <trkpt lat="41.4584349" lon="2.1115537">
        <ele>161.18997192</ele>
        <time>2022-10-30T07:36:25Z</time>
      </trkpt>
      <trkpt lat="41.458412" lon="2.1116086">
        <ele>161.16996765</ele>
        <time>2022-10-30T07:36:26Z</time>
      </trkpt>
      <trkpt lat="41.458362" lon="2.1116775">
        <ele>161.16996765</ele>
        <time>2022-10-30T07:36:27Z</time>
      </trkpt>
      <trkpt lat="41.458326" lon="2.1117225">
        <ele>161.12997437</ele>
        <time>2022-10-30T07:36:28Z</time>
      </trkpt>
      <trkpt lat="41.45829" lon="2.1117565">
        <ele>161.19998169</ele>
        <time>2022-10-30T07:36:29Z</time>
      </trkpt>
      <trkpt lat="41.4582581" lon="2.1117954">
        <ele>161.25997925</ele>
        <time>2022-10-30T07:36:30Z</time>
      </trkpt>
      <trkpt lat="41.4582322" lon="2.1118363">
        <ele>161.41998291</ele>
        <time>2022-10-30T07:36:31Z</time>
      </trkpt>
      <trkpt lat="41.4582002" lon="2.1118953">
        <ele>161.48999023</ele>
        <time>2022-10-30T07:36:32Z</time>
      </trkpt>
      <trkpt lat="41.4581803" lon="2.1119192">
        <ele>161.51998901</ele>
        <time>2022-10-30T07:36:33Z</time>
      </trkpt>
      <trkpt lat="41.4581764" lon="2.1119502">
        <ele>161.59999084</ele>
        <time>2022-10-30T07:36:34Z</time>
      </trkpt>
      <trkpt lat="41.4581833" lon="2.1119951">
        <ele>161.59999084</ele>
        <time>2022-10-30T07:36:35Z</time>
      </trkpt>
      <trkpt lat="41.4582043" lon="2.1120651">
        <ele>161.56999207</ele>
        <time>2022-10-30T07:36:36Z</time>
      </trkpt>
      <trkpt lat="41.4582242" lon="2.1121311">
        <ele>161.33999634</ele>
        <time>2022-10-30T07:36:37Z</time>
      </trkpt>
      <trkpt lat="41.4582382" lon="2.112195">
        <ele>161.01998901</ele>
        <time>2022-10-30T07:36:38Z</time>
      </trkpt>
      <trkpt lat="41.4582482" lon="2.112271">
        <ele>160.51998901</ele>
        <time>2022-10-30T07:36:39Z</time>
      </trkpt>
      <trkpt lat="41.4582422" lon="2.1123139">
        <ele>159.87998962</ele>
        <time>2022-10-30T07:36:40Z</time>
      </trkpt>
      <trkpt lat="41.4582183" lon="2.1123898">
        <ele>159.27998352</ele>
        <time>2022-10-30T07:36:41Z</time>
      </trkpt>
      <trkpt lat="41.4581853" lon="2.1124388">
        <ele>158.62998962</ele>
        <time>2022-10-30T07:36:42Z</time>
      </trkpt>
      <trkpt lat="41.4581334" lon="2.1124678">
        <ele>158.1599884</ele>
        <time>2022-10-30T07:36:43Z</time>
      </trkpt>
      <trkpt lat="41.4580825" lon="2.1124997">
        <ele>157.87998962</ele>
        <time>2022-10-30T07:36:44Z</time>
      </trkpt>
      <trkpt lat="41.4580295" lon="2.1125277">
        <ele>157.72999573</ele>
        <time>2022-10-30T07:36:45Z</time>
      </trkpt>
      <trkpt lat="41.4579485" lon="2.1125567">
        <ele>157.61999512</ele>
        <time>2022-10-30T07:36:46Z</time>
      </trkpt>
      <trkpt lat="41.4578965" lon="2.1125596">
        <ele>157.48999023</ele>
        <time>2022-10-30T07:36:47Z</time>
      </trkpt>
      <trkpt lat="41.4578426" lon="2.1125486">
        <ele>157.3999939</ele>
        <time>2022-10-30T07:36:48Z</time>
      </trkpt>
      <trkpt lat="41.4577737" lon="2.1125326">
        <ele>157.31999207</ele>
        <time>2022-10-30T07:36:49Z</time>
      </trkpt>
      <trkpt lat="41.4576918" lon="2.1125077">
        <ele>157.29998779</ele>
        <time>2022-10-30T07:36:50Z</time>
      </trkpt>
      <trkpt lat="41.4576418" lon="2.1124787">
        <ele>157.29998779</ele>
        <time>2022-10-30T07:36:51Z</time>
      </trkpt>
      <trkpt lat="41.4576028" lon="2.1124508">
        <ele>157.38998413</ele>
        <time>2022-10-30T07:36:52Z</time>
      </trkpt>
      <trkpt lat="41.4575618" lon="2.1124378">
        <ele>157.58998108</ele>
        <time>2022-10-30T07:36:53Z</time>
      </trkpt>
      <trkpt lat="41.4574989" lon="2.1124268">
        <ele>157.82998657</ele>
        <time>2022-10-30T07:36:54Z</time>
      </trkpt>
      <trkpt lat="41.457462" lon="2.1124229">
        <ele>158.21998596</ele>
        <time>2022-10-30T07:36:55Z</time>
      </trkpt>
      <trkpt lat="41.457434" lon="2.1124258">
        <ele>158.51998901</ele>
        <time>2022-10-30T07:36:56Z</time>
      </trkpt>
      <trkpt lat="41.457401" lon="2.1124418">
        <ele>158.63998413</ele>
        <time>2022-10-30T07:36:57Z</time>
      </trkpt>
      <trkpt lat="41.4573551" lon="2.1124738">
        <ele>158.5599823</ele>
        <time>2022-10-30T07:36:58Z</time>
      </trkpt>
      <trkpt lat="41.4572932" lon="2.1125317">
        <ele>158.34997559</ele>
        <time>2022-10-30T07:36:59Z</time>
      </trkpt>
      <trkpt lat="41.4572552" lon="2.1125987">
        <ele>157.9699707</ele>
        <time>2022-10-30T07:37:00Z</time>
      </trkpt>
      <trkpt lat="41.4572113" lon="2.1126827">
        <ele>157.50996399</ele>
        <time>2022-10-30T07:37:01Z</time>
      </trkpt>
      <trkpt lat="41.4571613" lon="2.1127467">
        <ele>156.88996887</ele>
        <time>2022-10-30T07:37:02Z</time>
      </trkpt>
      <trkpt lat="41.4571083" lon="2.1128056">
        <ele>156.17996216</ele>
        <time>2022-10-30T07:37:03Z</time>
      </trkpt>
      <trkpt lat="41.4570333" lon="2.1128886">
        <ele>155.45996094</ele>
        <time>2022-10-30T07:37:04Z</time>
      </trkpt>
      <trkpt lat="41.4569924" lon="2.1129675">
        <ele>154.53996277</ele>
        <time>2022-10-30T07:37:05Z</time>
      </trkpt>
      <trkpt lat="41.4569644" lon="2.1130585">
        <ele>153.56996155</ele>
        <time>2022-10-30T07:37:06Z</time>
      </trkpt>
      <trkpt lat="41.4569364" lon="2.1131394">
        <ele>152.40995789</ele>
        <time>2022-10-30T07:37:07Z</time>
      </trkpt>
      <trkpt lat="41.4569075" lon="2.1132554">
        <ele>150.85995483</ele>
        <time>2022-10-30T07:37:08Z</time>
      </trkpt>
      <trkpt lat="41.4568945" lon="2.1133393">
        <ele>149.44995117</ele>
        <time>2022-10-30T07:37:09Z</time>
      </trkpt>
      <trkpt lat="41.4568636" lon="2.1134033">
        <ele>148.41995239</ele>
        <time>2022-10-30T07:37:10Z</time>
      </trkpt>
      <trkpt lat="41.4568366" lon="2.1134632">
        <ele>147.779953</ele>
        <time>2022-10-30T07:37:11Z</time>
      </trkpt>
      <trkpt lat="41.4568007" lon="2.1135541">
        <ele>147.779953</ele>
        <time>2022-10-30T07:37:12Z</time>
      </trkpt>
      <trkpt lat="41.4567967" lon="2.1136171">
        <ele>148.11994934</ele>
        <time>2022-10-30T07:37:13Z</time>
      </trkpt>
      <trkpt lat="41.4567868" lon="2.113666">
        <ele>148.50994873</ele>
        <time>2022-10-30T07:37:14Z</time>
      </trkpt>
      <trkpt lat="41.4567788" lon="2.113709">
        <ele>148.82995605</ele>
        <time>2022-10-30T07:37:15Z</time>
      </trkpt>
      <trkpt lat="41.4567678" lon="2.1137499">
        <ele>149.13995361</ele>
        <time>2022-10-30T07:37:16Z</time>
      </trkpt>
      <trkpt lat="41.4567219" lon="2.1137819">
        <ele>149.39994812</ele>
        <time>2022-10-30T07:37:17Z</time>
      </trkpt>
      <trkpt lat="41.4566929" lon="2.1137958">
        <ele>149.70994568</ele>
        <time>2022-10-30T07:37:18Z</time>
      </trkpt>
      <trkpt lat="41.4566649" lon="2.1138077">
        <ele>150.09994507</ele>
        <time>2022-10-30T07:37:19Z</time>
      </trkpt>
      <trkpt lat="41.456644" lon="2.1138058">
        <ele>150.43994141</ele>
        <time>2022-10-30T07:37:20Z</time>
      </trkpt>
      <trkpt lat="41.456614" lon="2.1138048">
        <ele>150.74993896</ele>
        <time>2022-10-30T07:37:21Z</time>
      </trkpt>
      <trkpt lat="41.4565831" lon="2.1137999">
        <ele>150.85993958</ele>
        <time>2022-10-30T07:37:22Z</time>
      </trkpt>
      <trkpt lat="41.4565492" lon="2.1137929">
        <ele>150.80993652</ele>
        <time>2022-10-30T07:37:23Z</time>
      </trkpt>
      <trkpt lat="41.4565222" lon="2.1137949">
        <ele>150.68994141</ele>
        <time>2022-10-30T07:37:24Z</time>
      </trkpt>
      <trkpt lat="41.4564963" lon="2.1137819">
        <ele>150.52993774</ele>
        <time>2022-10-30T07:37:25Z</time>
      </trkpt>
      <trkpt lat="41.4564644" lon="2.1137679">
        <ele>150.40994263</ele>
        <time>2022-10-30T07:37:26Z</time>
      </trkpt>
      <trkpt lat="41.4564135" lon="2.1137539">
        <ele>150.30993652</ele>
        <time>2022-10-30T07:37:27Z</time>
      </trkpt>
      <trkpt lat="41.4563626" lon="2.113741">
        <ele>150.27993774</ele>
        <time>2022-10-30T07:37:28Z</time>
      </trkpt>
      <trkpt lat="41.4563007" lon="2.113719">
        <ele>150.23994446</ele>
        <time>2022-10-30T07:37:29Z</time>
      </trkpt>
      <trkpt lat="41.4562557" lon="2.1137061">
        <ele>150.27993774</ele>
        <time>2022-10-30T07:37:30Z</time>
      </trkpt>
      <trkpt lat="41.4562107" lon="2.1136901">
        <ele>150.31993103</ele>
        <time>2022-10-30T07:37:31Z</time>
      </trkpt>
      <trkpt lat="41.4561647" lon="2.1136791">
        <ele>150.37992859</ele>
        <time>2022-10-30T07:37:32Z</time>
      </trkpt>
      <trkpt lat="41.4561278" lon="2.1136512">
        <ele>150.53993225</ele>
        <time>2022-10-30T07:37:33Z</time>
      </trkpt>
      <trkpt lat="41.4560899" lon="2.1136372">
        <ele>150.67993164</ele>
        <time>2022-10-30T07:37:34Z</time>
      </trkpt>
      <trkpt lat="41.4560679" lon="2.1136313">
        <ele>150.90992737</ele>
        <time>2022-10-30T07:37:35Z</time>
      </trkpt>
      <trkpt lat="41.4560459" lon="2.1136383">
        <ele>151.09992981</ele>
        <time>2022-10-30T07:37:36Z</time>
      </trkpt>
      <trkpt lat="41.4560099" lon="2.1136543">
        <ele>151.20993042</ele>
        <time>2022-10-30T07:37:37Z</time>
      </trkpt>
      <trkpt lat="41.455983" lon="2.1136732">
        <ele>151.25993347</ele>
        <time>2022-10-30T07:37:38Z</time>
      </trkpt>
      <trkpt lat="41.455936" lon="2.1137521">
        <ele>151.28993225</ele>
        <time>2022-10-30T07:37:39Z</time>
      </trkpt>
      <trkpt lat="41.455909" lon="2.1138131">
        <ele>151.29992676</ele>
        <time>2022-10-30T07:37:40Z</time>
      </trkpt>
      <trkpt lat="41.4558851" lon="2.113869">
        <ele>151.37992859</ele>
        <time>2022-10-30T07:37:41Z</time>
      </trkpt>
      <trkpt lat="41.4558501" lon="2.1139129">
        <ele>151.46992493</ele>
        <time>2022-10-30T07:37:42Z</time>
      </trkpt>
      <trkpt lat="41.4558051" lon="2.1139469">
        <ele>151.54992676</ele>
        <time>2022-10-30T07:37:43Z</time>
      </trkpt>
      <trkpt lat="41.4557482" lon="2.1139569">
        <ele>151.72991943</ele>
        <time>2022-10-30T07:37:44Z</time>
      </trkpt>
      <trkpt lat="41.4557113" lon="2.1139399">
        <ele>151.8899231</ele>
        <time>2022-10-30T07:37:45Z</time>
      </trkpt>
      <trkpt lat="41.4556574" lon="2.1139439">
        <ele>152.12992859</ele>
        <time>2022-10-30T07:37:46Z</time>
      </trkpt>
      <trkpt lat="41.4556065" lon="2.1139599">
        <ele>152.3899231</ele>
        <time>2022-10-30T07:37:47Z</time>
      </trkpt>
      <trkpt lat="41.4555306" lon="2.1139759">
        <ele>152.69992065</ele>
        <time>2022-10-30T07:37:48Z</time>
      </trkpt>
      <trkpt lat="41.4554866" lon="2.1139838">
        <ele>153.15992737</ele>
        <time>2022-10-30T07:37:49Z</time>
      </trkpt>
      <trkpt lat="41.4554396" lon="2.1139828">
        <ele>153.62992859</ele>
        <time>2022-10-30T07:37:50Z</time>
      </trkpt>
      <trkpt lat="41.4553927" lon="2.1139749">
        <ele>154.20993042</ele>
        <time>2022-10-30T07:37:51Z</time>
      </trkpt>
      <trkpt lat="41.4553227" lon="2.1139679">
        <ele>154.75993347</ele>
        <time>2022-10-30T07:37:52Z</time>
      </trkpt>
      <trkpt lat="41.4552787" lon="2.1139738">
        <ele>155.27993774</ele>
        <time>2022-10-30T07:37:53Z</time>
      </trkpt>
      <trkpt lat="41.4552328" lon="2.1139808">
        <ele>155.71994019</ele>
        <time>2022-10-30T07:37:54Z</time>
      </trkpt>
      <trkpt lat="41.4551759" lon="2.1139779">
        <ele>156.12994385</ele>
        <time>2022-10-30T07:37:55Z</time>
      </trkpt>
      <trkpt lat="41.4551269" lon="2.1139868">
        <ele>156.51994324</ele>
        <time>2022-10-30T07:37:56Z</time>
      </trkpt>
      <trkpt lat="41.4550679" lon="2.1140028">
        <ele>156.85993958</ele>
        <time>2022-10-30T07:37:57Z</time>
      </trkpt>
      <trkpt lat="41.4550349" lon="2.1140237">
        <ele>157.23994446</ele>
        <time>2022-10-30T07:37:58Z</time>
      </trkpt>
      <trkpt lat="41.454995" lon="2.1140228">
        <ele>157.55995178</ele>
        <time>2022-10-30T07:37:59Z</time>
      </trkpt>
      <trkpt lat="41.4549411" lon="2.1140178">
        <ele>157.84994507</ele>
        <time>2022-10-30T07:38:00Z</time>
      </trkpt>
      <trkpt lat="41.4548911" lon="2.1140288">
        <ele>158.10993958</ele>
        <time>2022-10-30T07:38:01Z</time>
      </trkpt>
      <trkpt lat="41.4548332" lon="2.1140507">
        <ele>158.38993835</ele>
        <time>2022-10-30T07:38:02Z</time>
      </trkpt>
      <trkpt lat="41.4547912" lon="2.1140897">
        <ele>158.65994263</ele>
        <time>2022-10-30T07:38:03Z</time>
      </trkpt>
      <trkpt lat="41.4547622" lon="2.1141046">
        <ele>158.89994812</ele>
        <time>2022-10-30T07:38:04Z</time>
      </trkpt>
      <trkpt lat="41.4547293" lon="2.1141336">
        <ele>159.05995178</ele>
        <time>2022-10-30T07:38:05Z</time>
      </trkpt>
      <trkpt lat="41.4546993" lon="2.1141645">
        <ele>158.9299469</ele>
        <time>2022-10-30T07:38:06Z</time>
      </trkpt>
      <trkpt lat="41.4546144" lon="2.1141935">
        <ele>158.6799469</ele>
        <time>2022-10-30T07:38:07Z</time>
      </trkpt>
      <trkpt lat="41.4545454" lon="2.1142265">
        <ele>158.48994446</ele>
        <time>2022-10-30T07:38:08Z</time>
      </trkpt>
      <trkpt lat="41.4544864" lon="2.1142444">
        <ele>158.19995117</ele>
        <time>2022-10-30T07:38:09Z</time>
      </trkpt>
      <trkpt lat="41.4543915" lon="2.1142663">
        <ele>158.04995728</ele>
        <time>2022-10-30T07:38:10Z</time>
      </trkpt>
      <trkpt lat="41.4543195" lon="2.1142852">
        <ele>157.8699646</ele>
        <time>2022-10-30T07:38:11Z</time>
      </trkpt>
      <trkpt lat="41.4542486" lon="2.1142862">
        <ele>157.60997009</ele>
        <time>2022-10-30T07:38:12Z</time>
      </trkpt>
      <trkpt lat="41.4541917" lon="2.1142782">
        <ele>157.42997742</ele>
        <time>2022-10-30T07:38:13Z</time>
      </trkpt>
      <trkpt lat="41.4541417" lon="2.1142573">
        <ele>157.13998413</ele>
        <time>2022-10-30T07:38:14Z</time>
      </trkpt>
      <trkpt lat="41.4540467" lon="2.1142782">
        <ele>156.88998413</ele>
        <time>2022-10-30T07:38:15Z</time>
      </trkpt>
      <trkpt lat="41.4539827" lon="2.1142782">
        <ele>156.56997681</ele>
        <time>2022-10-30T07:38:16Z</time>
      </trkpt>
      <trkpt lat="41.4539188" lon="2.1142852">
        <ele>156.14997864</ele>
        <time>2022-10-30T07:38:17Z</time>
      </trkpt>
      <trkpt lat="41.4538578" lon="2.1142962">
        <ele>156.16998291</ele>
        <time>2022-10-30T07:38:18Z</time>
      </trkpt>
      <trkpt lat="41.4538168" lon="2.1142932">
        <ele>156.35998535</ele>
        <time>2022-10-30T07:38:19Z</time>
      </trkpt>
      <trkpt lat="41.4537438" lon="2.1142773">
        <ele>156.73999023</ele>
        <time>2022-10-30T07:38:20Z</time>
      </trkpt>
      <trkpt lat="41.4536899" lon="2.1142633">
        <ele>157.44999695</ele>
        <time>2022-10-30T07:38:21Z</time>
      </trkpt>
      <trkpt lat="41.453663" lon="2.1142583">
        <ele>157.97999573</ele>
        <time>2022-10-30T07:38:22Z</time>
      </trkpt>
      <trkpt lat="41.453608" lon="2.1142474">
        <ele>158.44000244</ele>
        <time>2022-10-30T07:38:23Z</time>
      </trkpt>
      <trkpt lat="41.4535371" lon="2.1142204">
        <ele>158.83999634</ele>
        <time>2022-10-30T07:38:24Z</time>
      </trkpt>
      <trkpt lat="41.4534501" lon="2.1142075">
        <ele>159.01998901</ele>
        <time>2022-10-30T07:38:25Z</time>
      </trkpt>
      <trkpt lat="41.4534192" lon="2.1142124">
        <ele>159.11999512</ele>
        <time>2022-10-30T07:38:26Z</time>
      </trkpt>
      <trkpt lat="41.4533763" lon="2.1142173">
        <ele>159.1599884</ele>
        <time>2022-10-30T07:38:27Z</time>
      </trkpt>
      <trkpt lat="41.4533073" lon="2.1142193">
        <ele>159.12998962</ele>
        <time>2022-10-30T07:38:28Z</time>
      </trkpt>
      <trkpt lat="41.4532463" lon="2.1142033">
        <ele>159.1499939</ele>
        <time>2022-10-30T07:38:29Z</time>
      </trkpt>
      <trkpt lat="41.453233" lon="2.114208">
        <ele>159.69999695</ele>
        <time>2022-10-30T07:38:29Z</time>
      </trkpt>
      <trkpt lat="41.4531701" lon="2.1141931">
        <ele>159.75999451</ele>
        <time>2022-10-30T07:38:30Z</time>
      </trkpt>
      <trkpt lat="41.4531151" lon="2.1141921">
        <ele>159.77999878</ele>
        <time>2022-10-30T07:38:31Z</time>
      </trkpt>
      <trkpt lat="41.4530732" lon="2.114197">
        <ele>159.86000061</ele>
        <time>2022-10-30T07:38:32Z</time>
      </trkpt>
      <trkpt lat="41.4530062" lon="2.114199">
        <ele>159.8500061</ele>
        <time>2022-10-30T07:38:33Z</time>
      </trkpt>
      <trkpt lat="41.4529572" lon="2.1142109">
        <ele>159.80000305</ele>
        <time>2022-10-30T07:38:34Z</time>
      </trkpt>
      <trkpt lat="41.4528933" lon="2.1142059">
        <ele>159.83999634</ele>
        <time>2022-10-30T07:38:35Z</time>
      </trkpt>
      <trkpt lat="41.4528383" lon="2.1142">
        <ele>159.83000183</ele>
        <time>2022-10-30T07:38:36Z</time>
      </trkpt>
      <trkpt lat="41.4527584" lon="2.1141911">
        <ele>159.86000061</ele>
        <time>2022-10-30T07:38:37Z</time>
      </trkpt>
      <trkpt lat="41.4527105" lon="2.1141991">
        <ele>159.86000061</ele>
        <time>2022-10-30T07:38:38Z</time>
      </trkpt>
      <trkpt lat="41.4526635" lon="2.1141911">
        <ele>159.8500061</ele>
        <time>2022-10-30T07:38:39Z</time>
      </trkpt>
      <trkpt lat="41.4526145" lon="2.1141822">
        <ele>159.95001221</ele>
        <time>2022-10-30T07:38:40Z</time>
      </trkpt>
      <trkpt lat="41.4525746" lon="2.1141922">
        <ele>160.07000732</ele>
        <time>2022-10-30T07:38:41Z</time>
      </trkpt>
      <trkpt lat="41.4524987" lon="2.1141893">
        <ele>160.18000793</ele>
        <time>2022-10-30T07:38:42Z</time>
      </trkpt>
      <trkpt lat="41.4524588" lon="2.1142053">
        <ele>160.33000183</ele>
        <time>2022-10-30T07:38:43Z</time>
      </trkpt>
      <trkpt lat="41.4524519" lon="2.1142462">
        <ele>160.29000854</ele>
        <time>2022-10-30T07:38:44Z</time>
      </trkpt>
      <trkpt lat="41.4524419" lon="2.1142942">
        <ele>160.31001282</ele>
        <time>2022-10-30T07:38:45Z</time>
      </trkpt>
      <trkpt lat="41.4524119" lon="2.1143301">
        <ele>160.3400116</ele>
        <time>2022-10-30T07:38:46Z</time>
      </trkpt>
      <trkpt lat="41.452396" lon="2.1143721">
        <ele>160.3400116</ele>
        <time>2022-10-30T07:38:47Z</time>
      </trkpt>
      <trkpt lat="41.452341" lon="2.114397">
        <ele>160.48001099</ele>
        <time>2022-10-30T07:38:48Z</time>
      </trkpt>
      <trkpt lat="41.452328" lon="2.114449">
        <ele>160.64001465</ele>
        <time>2022-10-30T07:38:49Z</time>
      </trkpt>
      <trkpt lat="41.4523151" lon="2.114526">
        <ele>160.83001709</ele>
        <time>2022-10-30T07:38:50Z</time>
      </trkpt>
      <trkpt lat="41.4522661" lon="2.1145909">
        <ele>161.03001404</ele>
        <time>2022-10-30T07:38:51Z</time>
      </trkpt>
      <trkpt lat="41.4522492" lon="2.1146568">
        <ele>161.37001038</ele>
        <time>2022-10-30T07:38:52Z</time>
      </trkpt>
      <trkpt lat="41.4522153" lon="2.1146958">
        <ele>161.74000549</ele>
        <time>2022-10-30T07:38:53Z</time>
      </trkpt>
      <trkpt lat="41.4521924" lon="2.1147578">
        <ele>162.24000549</ele>
        <time>2022-10-30T07:38:54Z</time>
      </trkpt>
      <trkpt lat="41.4521755" lon="2.1148147">
        <ele>162.87001038</ele>
        <time>2022-10-30T07:38:55Z</time>
      </trkpt>
      <trkpt lat="41.4521455" lon="2.1149016">
        <ele>163.54000854</ele>
        <time>2022-10-30T07:38:56Z</time>
      </trkpt>
      <trkpt lat="41.4521056" lon="2.1149406">
        <ele>164.05000305</ele>
        <time>2022-10-30T07:38:57Z</time>
      </trkpt>
      <trkpt lat="41.4520767" lon="2.1149756">
        <ele>164.6000061</ele>
        <time>2022-10-30T07:38:58Z</time>
      </trkpt>
      <trkpt lat="41.4520458" lon="2.1150026">
        <ele>165.06001282</ele>
        <time>2022-10-30T07:38:59Z</time>
      </trkpt>
      <trkpt lat="41.4519988" lon="2.1150415">
        <ele>165.48001099</ele>
        <time>2022-10-30T07:39:00Z</time>
      </trkpt>
      <trkpt lat="41.4519798" lon="2.1150745">
        <ele>165.99000549</ele>
        <time>2022-10-30T07:39:01Z</time>
      </trkpt>
      <trkpt lat="41.4519658" lon="2.1151124">
        <ele>166.41999817</ele>
        <time>2022-10-30T07:39:02Z</time>
      </trkpt>
      <trkpt lat="41.4519449" lon="2.1151614">
        <ele>166.94000244</ele>
        <time>2022-10-30T07:39:03Z</time>
      </trkpt>
      <trkpt lat="41.4519169" lon="2.1152193">
        <ele>167.30999756</ele>
        <time>2022-10-30T07:39:04Z</time>
      </trkpt>
      <trkpt lat="41.4519178" lon="2.1152423">
        <ele>167.72999573</ele>
        <time>2022-10-30T07:39:05Z</time>
      </trkpt>
      <trkpt lat="41.4519019" lon="2.1152693">
        <ele>168.11000061</ele>
        <time>2022-10-30T07:39:06Z</time>
      </trkpt>
      <trkpt lat="41.4518859" lon="2.1153062">
        <ele>168.49000549</ele>
        <time>2022-10-30T07:39:07Z</time>
      </trkpt>
      <trkpt lat="41.45186" lon="2.1153361">
        <ele>168.88000488</ele>
        <time>2022-10-30T07:39:08Z</time>
      </trkpt>
      <trkpt lat="41.4518261" lon="2.1153931">
        <ele>169.22000122</ele>
        <time>2022-10-30T07:39:09Z</time>
      </trkpt>
      <trkpt lat="41.4518092" lon="2.115437">
        <ele>169.61999512</ele>
        <time>2022-10-30T07:39:10Z</time>
      </trkpt>
      <trkpt lat="41.4517912" lon="2.1154809">
        <ele>169.95999146</ele>
        <time>2022-10-30T07:39:11Z</time>
      </trkpt>
      <trkpt lat="41.4517783" lon="2.1155278">
        <ele>170.31999207</ele>
        <time>2022-10-30T07:39:12Z</time>
      </trkpt>
      <trkpt lat="41.4517523" lon="2.1155898">
        <ele>170.6599884</ele>
        <time>2022-10-30T07:39:13Z</time>
      </trkpt>
      <trkpt lat="41.4517364" lon="2.1156267">
        <ele>170.95999146</ele>
        <time>2022-10-30T07:39:14Z</time>
      </trkpt>
      <trkpt lat="41.4517114" lon="2.1156546">
        <ele>171.11999512</ele>
        <time>2022-10-30T07:39:15Z</time>
      </trkpt>
      <trkpt lat="41.4516655" lon="2.1156725">
        <ele>171.1599884</ele>
        <time>2022-10-30T07:39:16Z</time>
      </trkpt>
      <trkpt lat="41.4515865" lon="2.1157015">
        <ele>171.17999268</ele>
        <time>2022-10-30T07:39:17Z</time>
      </trkpt>
      <trkpt lat="41.4515556" lon="2.1157315">
        <ele>171.11999512</ele>
        <time>2022-10-30T07:39:18Z</time>
      </trkpt>
      <trkpt lat="41.4515187" lon="2.1157454">
        <ele>170.98999023</ele>
        <time>2022-10-30T07:39:19Z</time>
      </trkpt>
      <trkpt lat="41.4514648" lon="2.1157584">
        <ele>170.86999512</ele>
        <time>2022-10-30T07:39:20Z</time>
      </trkpt>
      <trkpt lat="41.4513959" lon="2.1157525">
        <ele>170.69999695</ele>
        <time>2022-10-30T07:39:21Z</time>
      </trkpt>
      <trkpt lat="41.4513419" lon="2.1157554">
        <ele>170.5</ele>
        <time>2022-10-30T07:39:22Z</time>
      </trkpt>
      <trkpt lat="41.451257" lon="2.1157345">
        <ele>170.38999939</ele>
        <time>2022-10-30T07:39:23Z</time>
      </trkpt>
      <trkpt lat="41.4512081" lon="2.1157505">
        <ele>170.27999878</ele>
        <time>2022-10-30T07:39:24Z</time>
      </trkpt>
      <trkpt lat="41.4511731" lon="2.1157784">
        <ele>170.11000061</ele>
        <time>2022-10-30T07:39:25Z</time>
      </trkpt>
      <trkpt lat="41.4511332" lon="2.1157794">
        <ele>169.97999573</ele>
        <time>2022-10-30T07:39:26Z</time>
      </trkpt>
      <trkpt lat="41.4510843" lon="2.1157894">
        <ele>169.84999084</ele>
        <time>2022-10-30T07:39:27Z</time>
      </trkpt>
      <trkpt lat="41.4510413" lon="2.1157903">
        <ele>169.84999084</ele>
        <time>2022-10-30T07:39:28Z</time>
      </trkpt>
      <trkpt lat="41.4509963" lon="2.1157824">
        <ele>169.91999817</ele>
        <time>2022-10-30T07:39:29Z</time>
      </trkpt>
      <trkpt lat="41.4509464" lon="2.1157724">
        <ele>169.97999573</ele>
        <time>2022-10-30T07:39:30Z</time>
      </trkpt>
      <trkpt lat="41.4509164" lon="2.1157894">
        <ele>169.94999695</ele>
        <time>2022-10-30T07:39:31Z</time>
      </trkpt>
      <trkpt lat="41.4508705" lon="2.1157664">
        <ele>169.75</ele>
        <time>2022-10-30T07:39:32Z</time>
      </trkpt>
      <trkpt lat="41.4508295" lon="2.1157743">
        <ele>169.47000122</ele>
        <time>2022-10-30T07:39:33Z</time>
      </trkpt>
      <trkpt lat="41.4507926" lon="2.1157883">
        <ele>169.18000793</ele>
        <time>2022-10-30T07:39:34Z</time>
      </trkpt>
      <trkpt lat="41.4507557" lon="2.1158062">
        <ele>168.98001099</ele>
        <time>2022-10-30T07:39:35Z</time>
      </trkpt>
      <trkpt lat="41.4506848" lon="2.1158091">
        <ele>168.86001587</ele>
        <time>2022-10-30T07:39:36Z</time>
      </trkpt>
      <trkpt lat="41.4506369" lon="2.115869">
        <ele>168.63002014</ele>
        <time>2022-10-30T07:39:37Z</time>
      </trkpt>
      <trkpt lat="41.4505939" lon="2.11589">
        <ele>168.53001404</ele>
        <time>2022-10-30T07:39:38Z</time>
      </trkpt>
      <trkpt lat="41.450563" lon="2.1159119">
        <ele>168.51000977</ele>
        <time>2022-10-30T07:39:39Z</time>
      </trkpt>
      <trkpt lat="41.450496" lon="2.1159159">
        <ele>168.54000854</ele>
        <time>2022-10-30T07:39:40Z</time>
      </trkpt>
      <trkpt lat="41.4504551" lon="2.1159099">
        <ele>168.81001282</ele>
        <time>2022-10-30T07:39:41Z</time>
      </trkpt>
      <trkpt lat="41.4504072" lon="2.115901">
        <ele>169.06001282</ele>
        <time>2022-10-30T07:39:42Z</time>
      </trkpt>
      <trkpt lat="41.4503533" lon="2.1158981">
        <ele>169.30001831</ele>
        <time>2022-10-30T07:39:43Z</time>
      </trkpt>
      <trkpt lat="41.4502973" lon="2.115907">
        <ele>169.49002075</ele>
        <time>2022-10-30T07:39:44Z</time>
      </trkpt>
      <trkpt lat="41.4502173" lon="2.115923">
        <ele>169.65002441</ele>
        <time>2022-10-30T07:39:45Z</time>
      </trkpt>
      <trkpt lat="41.4502033" lon="2.115952">
        <ele>169.7900238</ele>
        <time>2022-10-30T07:39:46Z</time>
      </trkpt>
      <trkpt lat="41.4501724" lon="2.115972">
        <ele>169.92002869</ele>
        <time>2022-10-30T07:39:47Z</time>
      </trkpt>
      <trkpt lat="41.4501535" lon="2.1159799">
        <ele>170.0400238</ele>
        <time>2022-10-30T07:39:48Z</time>
      </trkpt>
      <trkpt lat="41.4501654" lon="2.1160549">
        <ele>170.14002991</ele>
        <time>2022-10-30T07:39:49Z</time>
      </trkpt>
      <trkpt lat="41.4501434" lon="2.1161048">
        <ele>170.22003174</ele>
        <time>2022-10-30T07:39:50Z</time>
      </trkpt>
      <trkpt lat="41.4501285" lon="2.1161368">
        <ele>170.17002869</ele>
        <time>2022-10-30T07:39:51Z</time>
      </trkpt>
      <trkpt lat="41.4500806" lon="2.1161547">
        <ele>170.09002686</ele>
        <time>2022-10-30T07:39:52Z</time>
      </trkpt>
      <trkpt lat="41.4500236" lon="2.1161736">
        <ele>170.13002014</ele>
        <time>2022-10-30T07:39:53Z</time>
      </trkpt>
      <trkpt lat="41.4499717" lon="2.1161896">
        <ele>170.2900238</ele>
        <time>2022-10-30T07:39:54Z</time>
      </trkpt>
      <trkpt lat="41.4499477" lon="2.1161996">
        <ele>170.6900177</ele>
        <time>2022-10-30T07:39:55Z</time>
      </trkpt>
      <trkpt lat="41.4499308" lon="2.1162156">
        <ele>171.27001953</ele>
        <time>2022-10-30T07:39:56Z</time>
      </trkpt>
      <trkpt lat="41.4498999" lon="2.1162305">
        <ele>171.80001831</ele>
        <time>2022-10-30T07:39:57Z</time>
      </trkpt>
      <trkpt lat="41.4498609" lon="2.1162375">
        <ele>172.39001465</ele>
        <time>2022-10-30T07:39:58Z</time>
      </trkpt>
      <trkpt lat="41.449793" lon="2.1162046">
        <ele>172.92001343</ele>
        <time>2022-10-30T07:39:59Z</time>
      </trkpt>
      <trkpt lat="41.4497601" lon="2.1161906">
        <ele>173.43000793</ele>
        <time>2022-10-30T07:40:00Z</time>
      </trkpt>
      <trkpt lat="41.4497401" lon="2.1161955">
        <ele>173.99000549</ele>
        <time>2022-10-30T07:40:01Z</time>
      </trkpt>
      <trkpt lat="41.4496972" lon="2.1161726">
        <ele>174.51000977</ele>
        <time>2022-10-30T07:40:02Z</time>
      </trkpt>
      <trkpt lat="41.4496253" lon="2.1161406">
        <ele>175.0900116</ele>
        <time>2022-10-30T07:40:03Z</time>
      </trkpt>
      <trkpt lat="41.4495883" lon="2.1161226">
        <ele>175.64001465</ele>
        <time>2022-10-30T07:40:04Z</time>
      </trkpt>
      <trkpt lat="41.4495474" lon="2.1161217">
        <ele>176.14001465</ele>
        <time>2022-10-30T07:40:05Z</time>
      </trkpt>
      <trkpt lat="41.4495075" lon="2.1160987">
        <ele>176.52001953</ele>
        <time>2022-10-30T07:40:06Z</time>
      </trkpt>
      <trkpt lat="41.4494645" lon="2.1160808">
        <ele>176.78001404</ele>
        <time>2022-10-30T07:40:07Z</time>
      </trkpt>
      <trkpt lat="41.4494156" lon="2.1160758">
        <ele>177.01000977</ele>
        <time>2022-10-30T07:40:08Z</time>
      </trkpt>
      <trkpt lat="41.4493796" lon="2.1160519">
        <ele>177.08001709</ele>
        <time>2022-10-30T07:40:09Z</time>
      </trkpt>
      <trkpt lat="41.4493346" lon="2.1160339">
        <ele>177.10002136</ele>
        <time>2022-10-30T07:40:10Z</time>
      </trkpt>
      <trkpt lat="41.4492837" lon="2.116017">
        <ele>177.06002808</ele>
        <time>2022-10-30T07:40:11Z</time>
      </trkpt>
      <trkpt lat="41.4492208" lon="2.115983">
        <ele>176.91003418</ele>
        <time>2022-10-30T07:40:12Z</time>
      </trkpt>
      <trkpt lat="41.4491888" lon="2.1159701">
        <ele>176.74003601</ele>
        <time>2022-10-30T07:40:13Z</time>
      </trkpt>
      <trkpt lat="41.4491529" lon="2.1159561">
        <ele>176.61003113</ele>
        <time>2022-10-30T07:40:14Z</time>
      </trkpt>
      <trkpt lat="41.4491139" lon="2.1159431">
        <ele>176.59002686</ele>
        <time>2022-10-30T07:40:15Z</time>
      </trkpt>
      <trkpt lat="41.449049" lon="2.115958">
        <ele>176.60002136</ele>
        <time>2022-10-30T07:40:16Z</time>
      </trkpt>
      <trkpt lat="41.449" lon="2.1159571">
        <ele>176.65002441</ele>
        <time>2022-10-30T07:40:17Z</time>
      </trkpt>
      <trkpt lat="41.4489731" lon="2.115961">
        <ele>176.74002075</ele>
        <time>2022-10-30T07:40:18Z</time>
      </trkpt>
      <trkpt lat="41.4489371" lon="2.1159461">
        <ele>176.81002808</ele>
        <time>2022-10-30T07:40:19Z</time>
      </trkpt>
      <trkpt lat="41.4488941" lon="2.1159372">
        <ele>176.94003296</ele>
        <time>2022-10-30T07:40:20Z</time>
      </trkpt>
      <trkpt lat="41.4488562" lon="2.1159491">
        <ele>177.09002686</ele>
        <time>2022-10-30T07:40:21Z</time>
      </trkpt>
      <trkpt lat="41.4488262" lon="2.115952">
        <ele>177.19003296</ele>
        <time>2022-10-30T07:40:22Z</time>
      </trkpt>
      <trkpt lat="41.4487683" lon="2.1159481">
        <ele>177.29003906</ele>
        <time>2022-10-30T07:40:23Z</time>
      </trkpt>
      <trkpt lat="41.4487153" lon="2.1159471">
        <ele>177.37004089</ele>
        <time>2022-10-30T07:40:24Z</time>
      </trkpt>
      <trkpt lat="41.4486403" lon="2.115962">
        <ele>177.43003845</ele>
        <time>2022-10-30T07:40:25Z</time>
      </trkpt>
      <trkpt lat="41.4485924" lon="2.1159769">
        <ele>177.54003906</ele>
        <time>2022-10-30T07:40:26Z</time>
      </trkpt>
      <trkpt lat="41.4485394" lon="2.1159879">
        <ele>177.53004456</ele>
        <time>2022-10-30T07:40:27Z</time>
      </trkpt>
      <trkpt lat="41.4484955" lon="2.1160199">
        <ele>177.53004456</ele>
        <time>2022-10-30T07:40:28Z</time>
      </trkpt>
      <trkpt lat="41.4484405" lon="2.1160329">
        <ele>177.54003906</ele>
        <time>2022-10-30T07:40:29Z</time>
      </trkpt>
      <trkpt lat="41.4483535" lon="2.1160229">
        <ele>177.60003662</ele>
        <time>2022-10-30T07:40:30Z</time>
      </trkpt>
      <trkpt lat="41.4483076" lon="2.1160159">
        <ele>177.84004211</ele>
        <time>2022-10-30T07:40:31Z</time>
      </trkpt>
      <trkpt lat="41.4482716" lon="2.1160159">
        <ele>178.220047</ele>
        <time>2022-10-30T07:40:32Z</time>
      </trkpt>
      <trkpt lat="41.4482287" lon="2.1160169">
        <ele>178.62004089</ele>
        <time>2022-10-30T07:40:33Z</time>
      </trkpt>
      <trkpt lat="41.4481998" lon="2.1160169">
        <ele>179.09004211</ele>
        <time>2022-10-30T07:40:34Z</time>
      </trkpt>
      <trkpt lat="41.4481698" lon="2.1160169">
        <ele>179.61004639</ele>
        <time>2022-10-30T07:40:35Z</time>
      </trkpt>
      <trkpt lat="41.4481318" lon="2.1160329">
        <ele>180.11004639</ele>
        <time>2022-10-30T07:40:36Z</time>
      </trkpt>
      <trkpt lat="41.4480839" lon="2.1160408">
        <ele>180.62004089</ele>
        <time>2022-10-30T07:40:37Z</time>
      </trkpt>
      <trkpt lat="41.448046" lon="2.1160428">
        <ele>181.01004028</ele>
        <time>2022-10-30T07:40:38Z</time>
      </trkpt>
      <trkpt lat="41.4480121" lon="2.1160348">
        <ele>181.40003967</ele>
        <time>2022-10-30T07:40:39Z</time>
      </trkpt>
      <trkpt lat="41.4479511" lon="2.1160218">
        <ele>181.74003601</ele>
        <time>2022-10-30T07:40:40Z</time>
      </trkpt>
      <trkpt lat="41.4478962" lon="2.1160039">
        <ele>182.15003967</ele>
        <time>2022-10-30T07:40:41Z</time>
      </trkpt>
      <trkpt lat="41.4478632" lon="2.1159879">
        <ele>182.58003235</ele>
        <time>2022-10-30T07:40:42Z</time>
      </trkpt>
      <trkpt lat="41.4478272" lon="2.1159749">
        <ele>183.00003052</ele>
        <time>2022-10-30T07:40:43Z</time>
      </trkpt>
      <trkpt lat="41.4477873" lon="2.1159639">
        <ele>183.41003418</ele>
        <time>2022-10-30T07:40:44Z</time>
      </trkpt>
      <trkpt lat="41.4477403" lon="2.115955">
        <ele>183.7800293</ele>
        <time>2022-10-30T07:40:45Z</time>
      </trkpt>
      <trkpt lat="41.4476884" lon="2.1159401">
        <ele>184.08003235</ele>
        <time>2022-10-30T07:40:46Z</time>
      </trkpt>
      <trkpt lat="41.4476474" lon="2.1159282">
        <ele>184.26002502</ele>
        <time>2022-10-30T07:40:47Z</time>
      </trkpt>
      <trkpt lat="41.4475815" lon="2.1159341">
        <ele>184.35002136</ele>
        <time>2022-10-30T07:40:48Z</time>
      </trkpt>
      <trkpt lat="41.4475375" lon="2.115946">
        <ele>184.37002563</ele>
        <time>2022-10-30T07:40:49Z</time>
      </trkpt>
      <trkpt lat="41.4475066" lon="2.115959">
        <ele>184.44003296</ele>
        <time>2022-10-30T07:40:50Z</time>
      </trkpt>
      <trkpt lat="41.4474716" lon="2.115986">
        <ele>184.54003906</ele>
        <time>2022-10-30T07:40:51Z</time>
      </trkpt>
      <trkpt lat="41.4474477" lon="2.1160289">
        <ele>184.70004272</ele>
        <time>2022-10-30T07:40:52Z</time>
      </trkpt>
      <trkpt lat="41.4474147" lon="2.1160869">
        <ele>184.93003845</ele>
        <time>2022-10-30T07:40:53Z</time>
      </trkpt>
      <trkpt lat="41.4474018" lon="2.1161238">
        <ele>185.21003723</ele>
        <time>2022-10-30T07:40:54Z</time>
      </trkpt>
      <trkpt lat="41.4473878" lon="2.1161728">
        <ele>185.50003052</ele>
        <time>2022-10-30T07:40:55Z</time>
      </trkpt>
      <trkpt lat="41.4473798" lon="2.1162227">
        <ele>185.7800293</ele>
        <time>2022-10-30T07:40:56Z</time>
      </trkpt>
      <trkpt lat="41.4473638" lon="2.1163006">
        <ele>186.06002808</ele>
        <time>2022-10-30T07:40:57Z</time>
      </trkpt>
      <trkpt lat="41.4473519" lon="2.1163545">
        <ele>186.2800293</ele>
        <time>2022-10-30T07:40:58Z</time>
      </trkpt>
      <trkpt lat="41.44734" lon="2.1164095">
        <ele>186.51002502</ele>
        <time>2022-10-30T07:40:59Z</time>
      </trkpt>
      <trkpt lat="41.447327" lon="2.1164675">
        <ele>186.76002502</ele>
        <time>2022-10-30T07:41:00Z</time>
      </trkpt>
      <trkpt lat="41.447308" lon="2.1165255">
        <ele>187.01002502</ele>
        <time>2022-10-30T07:41:01Z</time>
      </trkpt>
      <trkpt lat="41.4472871" lon="2.1166244">
        <ele>187.31002808</ele>
        <time>2022-10-30T07:41:02Z</time>
      </trkpt>
      <trkpt lat="41.4472771" lon="2.1166704">
        <ele>187.64002991</ele>
        <time>2022-10-30T07:41:03Z</time>
      </trkpt>
      <trkpt lat="41.4472592" lon="2.1167054">
        <ele>187.94003296</ele>
        <time>2022-10-30T07:41:04Z</time>
      </trkpt>
      <trkpt lat="41.4472442" lon="2.1167463">
        <ele>188.20002747</ele>
        <time>2022-10-30T07:41:05Z</time>
      </trkpt>
      <trkpt lat="41.4472123" lon="2.1167883">
        <ele>188.46002197</ele>
        <time>2022-10-30T07:41:06Z</time>
      </trkpt>
      <trkpt lat="41.4471884" lon="2.1168002">
        <ele>188.64001465</ele>
        <time>2022-10-30T07:41:07Z</time>
      </trkpt>
      <trkpt lat="41.4471664" lon="2.1168091">
        <ele>188.81001282</ele>
        <time>2022-10-30T07:41:08Z</time>
      </trkpt>
      <trkpt lat="41.4471344" lon="2.1168032">
        <ele>189.00001526</ele>
        <time>2022-10-30T07:41:09Z</time>
      </trkpt>
      <trkpt lat="41.4471035" lon="2.1167932">
        <ele>189.11001587</ele>
        <time>2022-10-30T07:41:10Z</time>
      </trkpt>
      <trkpt lat="41.4470475" lon="2.1167883">
        <ele>189.22001648</ele>
        <time>2022-10-30T07:41:11Z</time>
      </trkpt>
      <trkpt lat="41.4470136" lon="2.1168052">
        <ele>189.3400116</ele>
        <time>2022-10-30T07:41:12Z</time>
      </trkpt>
      <trkpt lat="41.4469777" lon="2.1168342">
        <ele>189.46000671</ele>
        <time>2022-10-30T07:41:13Z</time>
      </trkpt>
      <trkpt lat="41.4469417" lon="2.1168602">
        <ele>189.5900116</ele>
        <time>2022-10-30T07:41:14Z</time>
      </trkpt>
      <trkpt lat="41.4468908" lon="2.1168952">
        <ele>189.82000732</ele>
        <time>2022-10-30T07:41:15Z</time>
      </trkpt>
      <trkpt lat="41.4468739" lon="2.1169141">
        <ele>190.1000061</ele>
        <time>2022-10-30T07:41:16Z</time>
      </trkpt>
      <trkpt lat="41.4468359" lon="2.1169271">
        <ele>190.43000793</ele>
        <time>2022-10-30T07:41:17Z</time>
      </trkpt>
      <trkpt lat="41.4467939" lon="2.1169531">
        <ele>190.77000427</ele>
        <time>2022-10-30T07:41:18Z</time>
      </trkpt>
      <trkpt lat="41.44676" lon="2.116981">
        <ele>191.11000061</ele>
        <time>2022-10-30T07:41:19Z</time>
      </trkpt>
      <trkpt lat="41.4467031" lon="2.117007">
        <ele>191.52000427</ele>
        <time>2022-10-30T07:41:20Z</time>
      </trkpt>
      <trkpt lat="41.4466641" lon="2.1170259">
        <ele>191.94000244</ele>
        <time>2022-10-30T07:41:21Z</time>
      </trkpt>
      <trkpt lat="41.4466272" lon="2.1170619">
        <ele>192.40000916</ele>
        <time>2022-10-30T07:41:22Z</time>
      </trkpt>
      <trkpt lat="41.4465912" lon="2.1170958">
        <ele>192.88000488</ele>
        <time>2022-10-30T07:41:23Z</time>
      </trkpt>
      <trkpt lat="41.4465472" lon="2.1171557">
        <ele>193.30999756</ele>
        <time>2022-10-30T07:41:24Z</time>
      </trkpt>
      <trkpt lat="41.4465193" lon="2.1171866">
        <ele>193.77000427</ele>
        <time>2022-10-30T07:41:25Z</time>
      </trkpt>
      <trkpt lat="41.4464973" lon="2.1172175">
        <ele>194.32000732</ele>
        <time>2022-10-30T07:41:26Z</time>
      </trkpt>
      <trkpt lat="41.4464693" lon="2.1172385">
        <ele>194.80000305</ele>
        <time>2022-10-30T07:41:27Z</time>
      </trkpt>
      <trkpt lat="41.4464363" lon="2.1172634">
        <ele>195.22999573</ele>
        <time>2022-10-30T07:41:28Z</time>
      </trkpt>
      <trkpt lat="41.4463953" lon="2.1173033">
        <ele>195.62998962</ele>
        <time>2022-10-30T07:41:29Z</time>
      </trkpt>
      <trkpt lat="41.4463744" lon="2.1173333">
        <ele>195.88998413</ele>
        <time>2022-10-30T07:41:30Z</time>
      </trkpt>
      <trkpt lat="41.4463535" lon="2.1173593">
        <ele>196.14997864</ele>
        <time>2022-10-30T07:41:31Z</time>
      </trkpt>
      <trkpt lat="41.4463325" lon="2.1173922">
        <ele>196.38998413</ele>
        <time>2022-10-30T07:41:32Z</time>
      </trkpt>
      <trkpt lat="41.4463075" lon="2.1174132">
        <ele>196.54998779</ele>
        <time>2022-10-30T07:41:33Z</time>
      </trkpt>
      <trkpt lat="41.4462806" lon="2.1174511">
        <ele>196.74998474</ele>
        <time>2022-10-30T07:41:34Z</time>
      </trkpt>
      <trkpt lat="41.4462646" lon="2.117484">
        <ele>196.93998718</ele>
        <time>2022-10-30T07:41:35Z</time>
      </trkpt>
      <trkpt lat="41.4462426" lon="2.117514">
        <ele>197.08998108</ele>
        <time>2022-10-30T07:41:36Z</time>
      </trkpt>
      <trkpt lat="41.4462176" lon="2.11754">
        <ele>197.27998352</ele>
        <time>2022-10-30T07:41:37Z</time>
      </trkpt>
      <trkpt lat="41.4461816" lon="2.117588">
        <ele>197.4599762</ele>
        <time>2022-10-30T07:41:38Z</time>
      </trkpt>
      <trkpt lat="41.4461427" lon="2.117623">
        <ele>197.61997986</ele>
        <time>2022-10-30T07:41:39Z</time>
      </trkpt>
      <trkpt lat="41.4461027" lon="2.1176499">
        <ele>197.79997253</ele>
        <time>2022-10-30T07:41:40Z</time>
      </trkpt>
      <trkpt lat="41.4460698" lon="2.1176769">
        <ele>197.93997192</ele>
        <time>2022-10-30T07:41:41Z</time>
      </trkpt>
      <trkpt lat="41.4460208" lon="2.1177158">
        <ele>197.97996521</ele>
        <time>2022-10-30T07:41:42Z</time>
      </trkpt>
      <trkpt lat="41.4459848" lon="2.1177388">
        <ele>198.00996399</ele>
        <time>2022-10-30T07:41:43Z</time>
      </trkpt>
      <trkpt lat="41.4459398" lon="2.1177488">
        <ele>198.04995728</ele>
        <time>2022-10-30T07:41:44Z</time>
      </trkpt>
      <trkpt lat="41.4458919" lon="2.1177567">
        <ele>198.09996033</ele>
        <time>2022-10-30T07:41:45Z</time>
      </trkpt>
      <trkpt lat="41.4458639" lon="2.1177667">
        <ele>198.23995972</ele>
        <time>2022-10-30T07:41:46Z</time>
      </trkpt>
      <trkpt lat="41.445811" lon="2.1177797">
        <ele>198.42996216</ele>
        <time>2022-10-30T07:41:47Z</time>
      </trkpt>
      <trkpt lat="41.445784" lon="2.1177977">
        <ele>198.62995911</ele>
        <time>2022-10-30T07:41:48Z</time>
      </trkpt>
      <trkpt lat="41.4457521" lon="2.1178156">
        <ele>198.85995483</ele>
        <time>2022-10-30T07:41:49Z</time>
      </trkpt>
      <trkpt lat="41.4457331" lon="2.1178296">
        <ele>199.13995361</ele>
        <time>2022-10-30T07:41:50Z</time>
      </trkpt>
      <trkpt lat="41.4456981" lon="2.1178625">
        <ele>199.46995544</ele>
        <time>2022-10-30T07:41:51Z</time>
      </trkpt>
      <trkpt lat="41.4456772" lon="2.1178895">
        <ele>199.88995361</ele>
        <time>2022-10-30T07:41:52Z</time>
      </trkpt>
      <trkpt lat="41.4456552" lon="2.1179074">
        <ele>200.33995056</ele>
        <time>2022-10-30T07:41:53Z</time>
      </trkpt>
      <trkpt lat="41.4456332" lon="2.1179204">
        <ele>200.80995178</ele>
        <time>2022-10-30T07:41:54Z</time>
      </trkpt>
      <trkpt lat="41.4456123" lon="2.1179554">
        <ele>201.2699585</ele>
        <time>2022-10-30T07:41:55Z</time>
      </trkpt>
      <trkpt lat="41.4456023" lon="2.1179883">
        <ele>201.68995667</ele>
        <time>2022-10-30T07:41:56Z</time>
      </trkpt>
      <trkpt lat="41.4455894" lon="2.1180193">
        <ele>202.16995239</ele>
        <time>2022-10-30T07:41:57Z</time>
      </trkpt>
      <trkpt lat="41.4455725" lon="2.1180502">
        <ele>202.56994629</ele>
        <time>2022-10-30T07:41:58Z</time>
      </trkpt>
      <trkpt lat="41.4455565" lon="2.1180852">
        <ele>203.01994324</ele>
        <time>2022-10-30T07:41:59Z</time>
      </trkpt>
      <trkpt lat="41.4455435" lon="2.1181291">
        <ele>203.44993591</ele>
        <time>2022-10-30T07:42:00Z</time>
      </trkpt>
      <trkpt lat="41.4455356" lon="2.1181991">
        <ele>203.8399353</ele>
        <time>2022-10-30T07:42:01Z</time>
      </trkpt>
      <trkpt lat="41.4455286" lon="2.1182411">
        <ele>204.2399292</ele>
        <time>2022-10-30T07:42:02Z</time>
      </trkpt>
      <trkpt lat="41.4455176" lon="2.1182761">
        <ele>204.52992249</ele>
        <time>2022-10-30T07:42:03Z</time>
      </trkpt>
      <trkpt lat="41.4454926" lon="2.118323">
        <ele>204.87992859</ele>
        <time>2022-10-30T07:42:04Z</time>
      </trkpt>
      <trkpt lat="41.4454807" lon="2.118358">
        <ele>205.22993469</ele>
        <time>2022-10-30T07:42:05Z</time>
      </trkpt>
      <trkpt lat="41.4454757" lon="2.118393">
        <ele>205.50993347</ele>
        <time>2022-10-30T07:42:06Z</time>
      </trkpt>
      <trkpt lat="41.4454718" lon="2.118429">
        <ele>205.8399353</ele>
        <time>2022-10-30T07:42:07Z</time>
      </trkpt>
      <trkpt lat="41.4454689" lon="2.1184659">
        <ele>206.05993652</ele>
        <time>2022-10-30T07:42:08Z</time>
      </trkpt>
      <trkpt lat="41.4454529" lon="2.1185079">
        <ele>206.16993713</ele>
        <time>2022-10-30T07:42:09Z</time>
      </trkpt>
      <trkpt lat="41.445441" lon="2.1185369">
        <ele>206.24993896</ele>
        <time>2022-10-30T07:42:10Z</time>
      </trkpt>
      <trkpt lat="41.445433" lon="2.1185738">
        <ele>206.25993347</ele>
        <time>2022-10-30T07:42:11Z</time>
      </trkpt>
      <trkpt lat="41.445428" lon="2.1186068">
        <ele>206.27993774</ele>
        <time>2022-10-30T07:42:12Z</time>
      </trkpt>
      <trkpt lat="41.445409" lon="2.1186637">
        <ele>206.29994202</ele>
        <time>2022-10-30T07:42:13Z</time>
      </trkpt>
      <trkpt lat="41.445384" lon="2.1186927">
        <ele>206.3399353</ele>
        <time>2022-10-30T07:42:14Z</time>
      </trkpt>
      <trkpt lat="41.4453571" lon="2.1187266">
        <ele>206.38993835</ele>
        <time>2022-10-30T07:42:15Z</time>
      </trkpt>
      <trkpt lat="41.4453361" lon="2.1187665">
        <ele>206.38993835</ele>
        <time>2022-10-30T07:42:16Z</time>
      </trkpt>
      <trkpt lat="41.4453132" lon="2.1188035">
        <ele>206.41993713</ele>
        <time>2022-10-30T07:42:17Z</time>
      </trkpt>
      <trkpt lat="41.4452712" lon="2.1188604">
        <ele>206.45993042</ele>
        <time>2022-10-30T07:42:18Z</time>
      </trkpt>
      <trkpt lat="41.4452413" lon="2.1188963">
        <ele>206.4899292</ele>
        <time>2022-10-30T07:42:19Z</time>
      </trkpt>
      <trkpt lat="41.4452203" lon="2.1189383">
        <ele>206.62992859</ele>
        <time>2022-10-30T07:42:20Z</time>
      </trkpt>
      <trkpt lat="41.4451934" lon="2.1189653">
        <ele>206.81993103</ele>
        <time>2022-10-30T07:42:21Z</time>
      </trkpt>
      <trkpt lat="41.4451614" lon="2.1190202">
        <ele>207.09992981</ele>
        <time>2022-10-30T07:42:22Z</time>
      </trkpt>
      <trkpt lat="41.4451364" lon="2.1190482">
        <ele>207.46992493</ele>
        <time>2022-10-30T07:42:23Z</time>
      </trkpt>
      <trkpt lat="41.4451114" lon="2.1190851">
        <ele>207.85992432</ele>
        <time>2022-10-30T07:42:24Z</time>
      </trkpt>
      <trkpt lat="41.4450985" lon="2.1191241">
        <ele>208.26992798</ele>
        <time>2022-10-30T07:42:25Z</time>
      </trkpt>
      <trkpt lat="41.4450836" lon="2.119158">
        <ele>210.10992432</ele>
        <time>2022-10-30T07:42:26Z</time>
      </trkpt>
      <trkpt lat="41.4450556" lon="2.119216">
        <ele>210.53991699</ele>
        <time>2022-10-30T07:42:27Z</time>
      </trkpt>
      <trkpt lat="41.4450376" lon="2.1192549">
        <ele>210.94992065</ele>
        <time>2022-10-30T07:42:28Z</time>
      </trkpt>
      <trkpt lat="41.4450236" lon="2.1192939">
        <ele>211.33992004</ele>
        <time>2022-10-30T07:42:29Z</time>
      </trkpt>
      <trkpt lat="41.4450126" lon="2.1193348">
        <ele>211.81991577</ele>
        <time>2022-10-30T07:42:30Z</time>
      </trkpt>
      <trkpt lat="41.4450027" lon="2.1193757">
        <ele>212.21990967</ele>
        <time>2022-10-30T07:42:31Z</time>
      </trkpt>
      <trkpt lat="41.4449938" lon="2.1194226">
        <ele>212.60990906</ele>
        <time>2022-10-30T07:42:32Z</time>
      </trkpt>
      <trkpt lat="41.4449938" lon="2.1194586">
        <ele>213.05990601</ele>
        <time>2022-10-30T07:42:33Z</time>
      </trkpt>
      <trkpt lat="41.4449848" lon="2.1194995">
        <ele>213.41990662</ele>
        <time>2022-10-30T07:42:34Z</time>
      </trkpt>
      <trkpt lat="41.4449819" lon="2.1195415">
        <ele>213.80990601</ele>
        <time>2022-10-30T07:42:35Z</time>
      </trkpt>
      <trkpt lat="41.4449839" lon="2.1195775">
        <ele>214.2999115</ele>
        <time>2022-10-30T07:42:36Z</time>
      </trkpt>
      <trkpt lat="41.4449859" lon="2.1196234">
        <ele>214.73991394</ele>
        <time>2022-10-30T07:42:37Z</time>
      </trkpt>
      <trkpt lat="41.4449918" lon="2.1196634">
        <ele>215.1499176</ele>
        <time>2022-10-30T07:42:38Z</time>
      </trkpt>
      <trkpt lat="41.4449918" lon="2.1197023">
        <ele>215.53991699</ele>
        <time>2022-10-30T07:42:39Z</time>
      </trkpt>
      <trkpt lat="41.4449987" lon="2.1197333">
        <ele>215.83992004</ele>
        <time>2022-10-30T07:42:40Z</time>
      </trkpt>
      <trkpt lat="41.4450137" lon="2.1197802">
        <ele>216.15992737</ele>
        <time>2022-10-30T07:42:41Z</time>
      </trkpt>
      <trkpt lat="41.4450326" lon="2.1198201">
        <ele>216.47993469</ele>
        <time>2022-10-30T07:42:42Z</time>
      </trkpt>
      <trkpt lat="41.4450546" lon="2.1198591">
        <ele>216.8399353</ele>
        <time>2022-10-30T07:42:43Z</time>
      </trkpt>
      <trkpt lat="41.4450736" lon="2.119897">
        <ele>217.17993164</ele>
        <time>2022-10-30T07:42:44Z</time>
      </trkpt>
      <trkpt lat="41.4450866" lon="2.119932">
        <ele>217.46992493</ele>
        <time>2022-10-30T07:42:45Z</time>
      </trkpt>
      <trkpt lat="41.4451025" lon="2.11999">
        <ele>217.7399292</ele>
        <time>2022-10-30T07:42:46Z</time>
      </trkpt>
      <trkpt lat="41.4451155" lon="2.1200309">
        <ele>218.02992249</ele>
        <time>2022-10-30T07:42:47Z</time>
      </trkpt>
      <trkpt lat="41.4451334" lon="2.1200599">
        <ele>218.33992004</ele>
        <time>2022-10-30T07:42:48Z</time>
      </trkpt>
      <trkpt lat="41.4451424" lon="2.1200828">
        <ele>218.68992615</ele>
        <time>2022-10-30T07:42:49Z</time>
      </trkpt>
      <trkpt lat="41.4451563" lon="2.1201418">
        <ele>219.12992859</ele>
        <time>2022-10-30T07:42:50Z</time>
      </trkpt>
      <trkpt lat="41.4451663" lon="2.1201768">
        <ele>219.50993347</ele>
        <time>2022-10-30T07:42:51Z</time>
      </trkpt>
      <trkpt lat="41.4451722" lon="2.1201977">
        <ele>219.90992737</ele>
        <time>2022-10-30T07:42:52Z</time>
      </trkpt>
      <trkpt lat="41.4451663" lon="2.1202286">
        <ele>220.26992798</ele>
        <time>2022-10-30T07:42:53Z</time>
      </trkpt>
      <trkpt lat="41.4451553" lon="2.1202886">
        <ele>220.6399231</ele>
        <time>2022-10-30T07:42:54Z</time>
      </trkpt>
      <trkpt lat="41.4451533" lon="2.1203335">
        <ele>221.06991577</ele>
        <time>2022-10-30T07:42:55Z</time>
      </trkpt>
      <trkpt lat="41.4451613" lon="2.1203714">
        <ele>221.44992065</ele>
        <time>2022-10-30T07:42:56Z</time>
      </trkpt>
      <trkpt lat="41.4451594" lon="2.1204034">
        <ele>221.85992432</ele>
        <time>2022-10-30T07:42:57Z</time>
      </trkpt>
      <trkpt lat="41.4451564" lon="2.1204384">
        <ele>222.2399292</ele>
        <time>2022-10-30T07:42:58Z</time>
      </trkpt>
      <trkpt lat="41.4451375" lon="2.1204804">
        <ele>222.59992981</ele>
        <time>2022-10-30T07:42:59Z</time>
      </trkpt>
      <trkpt lat="41.4451316" lon="2.1205083">
        <ele>222.94993591</ele>
        <time>2022-10-30T07:43:00Z</time>
      </trkpt>
      <trkpt lat="41.4451226" lon="2.1205433">
        <ele>223.2399292</ele>
        <time>2022-10-30T07:43:01Z</time>
      </trkpt>
      <trkpt lat="41.4451086" lon="2.1205812">
        <ele>223.43992615</ele>
        <time>2022-10-30T07:43:02Z</time>
      </trkpt>
      <trkpt lat="41.4451047" lon="2.1206292">
        <ele>223.55992126</ele>
        <time>2022-10-30T07:43:03Z</time>
      </trkpt>
      <trkpt lat="41.4450868" lon="2.1206511">
        <ele>223.55992126</ele>
        <time>2022-10-30T07:43:04Z</time>
      </trkpt>
      <trkpt lat="41.4450748" lon="2.1206821">
        <ele>223.48991394</ele>
        <time>2022-10-30T07:43:05Z</time>
      </trkpt>
      <trkpt lat="41.4450479" lon="2.1206741">
        <ele>223.34991455</ele>
        <time>2022-10-30T07:43:06Z</time>
      </trkpt>
      <trkpt lat="41.4450039" lon="2.1206541">
        <ele>223.18991089</ele>
        <time>2022-10-30T07:43:07Z</time>
      </trkpt>
      <trkpt lat="41.444955" lon="2.1206452">
        <ele>223.11990356</ele>
        <time>2022-10-30T07:43:08Z</time>
      </trkpt>
      <trkpt lat="41.444929" lon="2.1206622">
        <ele>223.10990906</ele>
        <time>2022-10-30T07:43:09Z</time>
      </trkpt>
      <trkpt lat="41.4448921" lon="2.1206761">
        <ele>223.18991089</ele>
        <time>2022-10-30T07:43:10Z</time>
      </trkpt>
      <trkpt lat="41.4448822" lon="2.1207041">
        <ele>223.28991699</ele>
        <time>2022-10-30T07:43:11Z</time>
      </trkpt>
      <trkpt lat="41.4448891" lon="2.120727">
        <ele>223.34991455</ele>
        <time>2022-10-30T07:43:12Z</time>
      </trkpt>
      <trkpt lat="41.44492" lon="2.120773">
        <ele>223.40991211</ele>
        <time>2022-10-30T07:43:13Z</time>
      </trkpt>
      <trkpt lat="41.444928" lon="2.1207819">
        <ele>223.4499054</ele>
        <time>2022-10-30T07:43:14Z</time>
      </trkpt>
      <trkpt lat="41.444958" lon="2.1207949">
        <ele>223.57991028</ele>
        <time>2022-10-30T07:43:15Z</time>
      </trkpt>
      <trkpt lat="41.4449729" lon="2.1208339">
        <ele>223.72990417</ele>
        <time>2022-10-30T07:43:16Z</time>
      </trkpt>
      <trkpt lat="41.4449908" lon="2.1208798">
        <ele>224.01989746</ele>
        <time>2022-10-30T07:43:17Z</time>
      </trkpt>
      <trkpt lat="41.4450018" lon="2.1209028">
        <ele>224.36990356</ele>
        <time>2022-10-30T07:43:18Z</time>
      </trkpt>
      <trkpt lat="41.4450148" lon="2.1209158">
        <ele>224.65989685</ele>
        <time>2022-10-30T07:43:19Z</time>
      </trkpt>
      <trkpt lat="41.4450317" lon="2.1209328">
        <ele>224.9598999</ele>
        <time>2022-10-30T07:43:20Z</time>
      </trkpt>
      <trkpt lat="41.4450597" lon="2.1209687">
        <ele>225.15989685</ele>
        <time>2022-10-30T07:43:21Z</time>
      </trkpt>
      <trkpt lat="41.4450656" lon="2.1209987">
        <ele>225.38989258</ele>
        <time>2022-10-30T07:43:22Z</time>
      </trkpt>
      <trkpt lat="41.4450855" lon="2.1210286">
        <ele>225.64988708</ele>
        <time>2022-10-30T07:43:23Z</time>
      </trkpt>
      <trkpt lat="41.4450884" lon="2.1210466">
        <ele>225.91989136</ele>
        <time>2022-10-30T07:43:24Z</time>
      </trkpt>
      <trkpt lat="41.4450913" lon="2.1210626">
        <ele>226.15989685</ele>
        <time>2022-10-30T07:43:25Z</time>
      </trkpt>
      <trkpt lat="41.4450933" lon="2.1211035">
        <ele>226.34989929</ele>
        <time>2022-10-30T07:43:26Z</time>
      </trkpt>
      <trkpt lat="41.4451073" lon="2.1211374">
        <ele>226.55990601</ele>
        <time>2022-10-30T07:43:27Z</time>
      </trkpt>
      <trkpt lat="41.4451192" lon="2.1211713">
        <ele>226.90991211</ele>
        <time>2022-10-30T07:43:28Z</time>
      </trkpt>
      <trkpt lat="41.4451332" lon="2.1211843">
        <ele>227.2999115</ele>
        <time>2022-10-30T07:43:29Z</time>
      </trkpt>
      <trkpt lat="41.4451662" lon="2.1212023">
        <ele>227.71990967</ele>
        <time>2022-10-30T07:43:30Z</time>
      </trkpt>
      <trkpt lat="41.4451861" lon="2.1212142">
        <ele>228.17991638</ele>
        <time>2022-10-30T07:43:31Z</time>
      </trkpt>
      <trkpt lat="41.445209" lon="2.1212261">
        <ele>228.55992126</ele>
        <time>2022-10-30T07:43:32Z</time>
      </trkpt>
      <trkpt lat="41.445217" lon="2.121235">
        <ele>228.90992737</ele>
        <time>2022-10-30T07:43:33Z</time>
      </trkpt>
      <trkpt lat="41.4452229" lon="2.121252">
        <ele>229.33992004</ele>
        <time>2022-10-30T07:43:34Z</time>
      </trkpt>
      <trkpt lat="41.4452329" lon="2.1212461">
        <ele>229.73991394</ele>
        <time>2022-10-30T07:43:35Z</time>
      </trkpt>
      <trkpt lat="41.4452478" lon="2.121254">
        <ele>230.10990906</ele>
        <time>2022-10-30T07:43:36Z</time>
      </trkpt>
      <trkpt lat="41.4452658" lon="2.121262">
        <ele>230.55990601</ele>
        <time>2022-10-30T07:43:37Z</time>
      </trkpt>
      <trkpt lat="41.4452707" lon="2.1212859">
        <ele>230.97990417</ele>
        <time>2022-10-30T07:43:38Z</time>
      </trkpt>
      <trkpt lat="41.4452757" lon="2.1213298">
        <ele>231.40989685</ele>
        <time>2022-10-30T07:43:39Z</time>
      </trkpt>
      <trkpt lat="41.4452807" lon="2.1213598">
        <ele>231.90989685</ele>
        <time>2022-10-30T07:43:40Z</time>
      </trkpt>
      <trkpt lat="41.4452836" lon="2.1213807">
        <ele>232.38989258</ele>
        <time>2022-10-30T07:43:41Z</time>
      </trkpt>
      <trkpt lat="41.4452696" lon="2.1213937">
        <ele>232.83988953</ele>
        <time>2022-10-30T07:43:42Z</time>
      </trkpt>
      <trkpt lat="41.4452286" lon="2.1214047">
        <ele>233.22988892</ele>
        <time>2022-10-30T07:43:43Z</time>
      </trkpt>
      <trkpt lat="41.4451807" lon="2.1214307">
        <ele>233.5098877</ele>
        <time>2022-10-30T07:43:44Z</time>
      </trkpt>
      <trkpt lat="41.4451667" lon="2.1214366">
        <ele>233.7598877</ele>
        <time>2022-10-30T07:43:45Z</time>
      </trkpt>
      <trkpt lat="41.4451578" lon="2.1214515">
        <ele>234.06988525</ele>
        <time>2022-10-30T07:43:46Z</time>
      </trkpt>
      <trkpt lat="41.4451569" lon="2.1214445">
        <ele>234.44989014</ele>
        <time>2022-10-30T07:43:47Z</time>
      </trkpt>
      <trkpt lat="41.4451549" lon="2.1214326">
        <ele>234.91989136</ele>
        <time>2022-10-30T07:43:48Z</time>
      </trkpt>
      <trkpt lat="41.445132" lon="2.1214137">
        <ele>235.41989136</ele>
        <time>2022-10-30T07:43:49Z</time>
      </trkpt>
      <trkpt lat="41.44511" lon="2.1214108">
        <ele>235.80989075</ele>
        <time>2022-10-30T07:43:50Z</time>
      </trkpt>
      <trkpt lat="41.4450811" lon="2.1214058">
        <ele>236.12989807</ele>
        <time>2022-10-30T07:43:51Z</time>
      </trkpt>
      <trkpt lat="41.4450431" lon="2.1213879">
        <ele>236.34989929</ele>
        <time>2022-10-30T07:43:52Z</time>
      </trkpt>
      <trkpt lat="41.445032" lon="2.121397">
        <ele>237.55999756</ele>
        <time>2022-10-30T07:43:52Z</time>
      </trkpt>
      <trkpt lat="41.4449781" lon="2.1213471">
        <ele>237.78999329</ele>
        <time>2022-10-30T07:43:53Z</time>
      </trkpt>
      <trkpt lat="41.4449311" lon="2.1213322">
        <ele>238.11999512</ele>
        <time>2022-10-30T07:43:54Z</time>
      </trkpt>
      <trkpt lat="41.4449012" lon="2.1213162">
        <ele>238.36999512</ele>
        <time>2022-10-30T07:43:55Z</time>
      </trkpt>
      <trkpt lat="41.4448722" lon="2.1212922">
        <ele>238.62998962</ele>
        <time>2022-10-30T07:43:56Z</time>
      </trkpt>
      <trkpt lat="41.4448433" lon="2.1212703">
        <ele>238.85998535</ele>
        <time>2022-10-30T07:43:57Z</time>
      </trkpt>
      <trkpt lat="41.4448073" lon="2.1212654">
        <ele>239.00997925</ele>
        <time>2022-10-30T07:43:58Z</time>
      </trkpt>
      <trkpt lat="41.4447754" lon="2.1212773">
        <ele>239.2099762</ele>
        <time>2022-10-30T07:43:59Z</time>
      </trkpt>
      <trkpt lat="41.4447484" lon="2.1212942">
        <ele>239.43997192</ele>
        <time>2022-10-30T07:44:00Z</time>
      </trkpt>
      <trkpt lat="41.4447155" lon="2.1213172">
        <ele>239.67997742</ele>
        <time>2022-10-30T07:44:01Z</time>
      </trkpt>
      <trkpt lat="41.4446786" lon="2.1213462">
        <ele>239.90997314</ele>
        <time>2022-10-30T07:44:02Z</time>
      </trkpt>
      <trkpt lat="41.4446626" lon="2.1213413">
        <ele>240.19996643</ele>
        <time>2022-10-30T07:44:03Z</time>
      </trkpt>
      <trkpt lat="41.4446606" lon="2.1213053">
        <ele>240.56996155</ele>
        <time>2022-10-30T07:44:04Z</time>
      </trkpt>
      <trkpt lat="41.4446457" lon="2.1212923">
        <ele>240.97996521</ele>
        <time>2022-10-30T07:44:05Z</time>
      </trkpt>
      <trkpt lat="41.4446148" lon="2.1213023">
        <ele>241.43997192</ele>
        <time>2022-10-30T07:44:06Z</time>
      </trkpt>
      <trkpt lat="41.4445908" lon="2.1212994">
        <ele>241.87997437</ele>
        <time>2022-10-30T07:44:07Z</time>
      </trkpt>
      <trkpt lat="41.4445739" lon="2.1213064">
        <ele>242.30996704</ele>
        <time>2022-10-30T07:44:08Z</time>
      </trkpt>
      <trkpt lat="41.444559" lon="2.1213183">
        <ele>242.76997375</ele>
        <time>2022-10-30T07:44:09Z</time>
      </trkpt>
      <trkpt lat="41.4445561" lon="2.1213422">
        <ele>243.17997742</ele>
        <time>2022-10-30T07:44:10Z</time>
      </trkpt>
      <trkpt lat="41.4445461" lon="2.1213801">
        <ele>243.58998108</ele>
        <time>2022-10-30T07:44:11Z</time>
      </trkpt>
      <trkpt lat="41.4445312" lon="2.1214011">
        <ele>243.96998596</ele>
        <time>2022-10-30T07:44:12Z</time>
      </trkpt>
      <trkpt lat="41.4445062" lon="2.1213892">
        <ele>244.29998779</ele>
        <time>2022-10-30T07:44:13Z</time>
      </trkpt>
      <trkpt lat="41.4444883" lon="2.1213951">
        <ele>244.69998169</ele>
        <time>2022-10-30T07:44:14Z</time>
      </trkpt>
      <trkpt lat="41.4444603" lon="2.1213881">
        <ele>245.10998535</ele>
        <time>2022-10-30T07:44:15Z</time>
      </trkpt>
      <trkpt lat="41.4444363" lon="2.1213792">
        <ele>245.51998901</ele>
        <time>2022-10-30T07:44:16Z</time>
      </trkpt>
      <trkpt lat="41.4444354" lon="2.1214001">
        <ele>246.01998901</ele>
        <time>2022-10-30T07:44:17Z</time>
      </trkpt>
      <trkpt lat="41.4444235" lon="2.1214291">
        <ele>246.41998291</ele>
        <time>2022-10-30T07:44:18Z</time>
      </trkpt>
      <trkpt lat="41.4444075" lon="2.12145">
        <ele>246.84997559</ele>
        <time>2022-10-30T07:44:19Z</time>
      </trkpt>
      <trkpt lat="41.4443855" lon="2.121477">
        <ele>247.28997803</ele>
        <time>2022-10-30T07:44:20Z</time>
      </trkpt>
      <trkpt lat="41.4443775" lon="2.121503">
        <ele>247.59997559</ele>
        <time>2022-10-30T07:44:21Z</time>
      </trkpt>
      <trkpt lat="41.4443555" lon="2.1215239">
        <ele>247.99996948</ele>
        <time>2022-10-30T07:44:22Z</time>
      </trkpt>
      <trkpt lat="41.4443356" lon="2.1215358">
        <ele>248.35997009</ele>
        <time>2022-10-30T07:44:23Z</time>
      </trkpt>
      <trkpt lat="41.4443157" lon="2.1215678">
        <ele>248.66996765</ele>
        <time>2022-10-30T07:44:24Z</time>
      </trkpt>
      <trkpt lat="41.4443047" lon="2.1215938">
        <ele>248.95996094</ele>
        <time>2022-10-30T07:44:25Z</time>
      </trkpt>
      <trkpt lat="41.4443047" lon="2.1216368">
        <ele>249.21995544</ele>
        <time>2022-10-30T07:44:26Z</time>
      </trkpt>
      <trkpt lat="41.4442898" lon="2.1216657">
        <ele>249.44995117</ele>
        <time>2022-10-30T07:44:27Z</time>
      </trkpt>
      <trkpt lat="41.4442768" lon="2.1216967">
        <ele>249.65995789</ele>
        <time>2022-10-30T07:44:28Z</time>
      </trkpt>
      <trkpt lat="41.4442689" lon="2.1217637">
        <ele>249.91995239</ele>
        <time>2022-10-30T07:44:29Z</time>
      </trkpt>
      <trkpt lat="41.4442669" lon="2.1218056">
        <ele>250.15995789</ele>
        <time>2022-10-30T07:44:30Z</time>
      </trkpt>
      <trkpt lat="41.4442619" lon="2.1218456">
        <ele>250.40995789</ele>
        <time>2022-10-30T07:44:31Z</time>
      </trkpt>
      <trkpt lat="41.4442509" lon="2.1218855">
        <ele>250.73995972</ele>
        <time>2022-10-30T07:44:32Z</time>
      </trkpt>
      <trkpt lat="41.4442369" lon="2.1219145">
        <ele>251.10995483</ele>
        <time>2022-10-30T07:44:33Z</time>
      </trkpt>
      <trkpt lat="41.4442209" lon="2.1219644">
        <ele>251.44995117</ele>
        <time>2022-10-30T07:44:34Z</time>
      </trkpt>
      <trkpt lat="41.444206" lon="2.1219854">
        <ele>251.80995178</ele>
        <time>2022-10-30T07:44:35Z</time>
      </trkpt>
      <trkpt lat="41.4441971" lon="2.1220133">
        <ele>252.13995361</ele>
        <time>2022-10-30T07:44:36Z</time>
      </trkpt>
      <trkpt lat="41.4441882" lon="2.1220393">
        <ele>252.40995789</ele>
        <time>2022-10-30T07:44:37Z</time>
      </trkpt>
      <trkpt lat="41.4441702" lon="2.1221112">
        <ele>252.69995117</ele>
        <time>2022-10-30T07:44:38Z</time>
      </trkpt>
      <trkpt lat="41.4441573" lon="2.1221602">
        <ele>253.05995178</ele>
        <time>2022-10-30T07:44:39Z</time>
      </trkpt>
      <trkpt lat="41.4441353" lon="2.1222131">
        <ele>253.39994812</ele>
        <time>2022-10-30T07:44:40Z</time>
      </trkpt>
      <trkpt lat="41.4441163" lon="2.1222551">
        <ele>253.76994324</ele>
        <time>2022-10-30T07:44:41Z</time>
      </trkpt>
      <trkpt lat="41.4440814" lon="2.122293">
        <ele>254.06994629</ele>
        <time>2022-10-30T07:44:42Z</time>
      </trkpt>
      <trkpt lat="41.4440654" lon="2.1223079">
        <ele>254.39994812</ele>
        <time>2022-10-30T07:44:43Z</time>
      </trkpt>
      <trkpt lat="41.4440425" lon="2.1223189">
        <ele>254.64994812</ele>
        <time>2022-10-30T07:44:44Z</time>
      </trkpt>
      <trkpt lat="41.4440205" lon="2.1223418">
        <ele>254.81994629</ele>
        <time>2022-10-30T07:44:45Z</time>
      </trkpt>
      <trkpt lat="41.4440036" lon="2.1223738">
        <ele>255.0799408</ele>
        <time>2022-10-30T07:44:46Z</time>
      </trkpt>
      <trkpt lat="41.4439947" lon="2.1224068">
        <ele>255.1799469</ele>
        <time>2022-10-30T07:44:47Z</time>
      </trkpt>
      <trkpt lat="41.4439897" lon="2.1224177">
        <ele>255.33995056</ele>
        <time>2022-10-30T07:44:48Z</time>
      </trkpt>
      <trkpt lat="41.4439797" lon="2.1224307">
        <ele>255.55995178</ele>
        <time>2022-10-30T07:44:49Z</time>
      </trkpt>
      <trkpt lat="41.4439608" lon="2.1224447">
        <ele>255.81994629</ele>
        <time>2022-10-30T07:44:50Z</time>
      </trkpt>
      <trkpt lat="41.4439379" lon="2.1224946">
        <ele>256.09994507</ele>
        <time>2022-10-30T07:44:51Z</time>
      </trkpt>
      <trkpt lat="41.4439289" lon="2.1225475">
        <ele>256.40994263</ele>
        <time>2022-10-30T07:44:52Z</time>
      </trkpt>
      <trkpt lat="41.443914" lon="2.1225935">
        <ele>256.67993164</ele>
        <time>2022-10-30T07:44:53Z</time>
      </trkpt>
      <trkpt lat="41.443909" lon="2.1226295">
        <ele>256.87994385</ele>
        <time>2022-10-30T07:44:54Z</time>
      </trkpt>
      <trkpt lat="41.443904" lon="2.1226484">
        <ele>257.04995728</ele>
        <time>2022-10-30T07:44:55Z</time>
      </trkpt>
      <trkpt lat="41.4438851" lon="2.1226813">
        <ele>257.2199707</ele>
        <time>2022-10-30T07:44:56Z</time>
      </trkpt>
      <trkpt lat="41.4438701" lon="2.1226913">
        <ele>257.47998047</ele>
        <time>2022-10-30T07:44:57Z</time>
      </trkpt>
      <trkpt lat="41.4438451" lon="2.1226933">
        <ele>257.7199707</ele>
        <time>2022-10-30T07:44:58Z</time>
      </trkpt>
      <trkpt lat="41.4438042" lon="2.1226703">
        <ele>257.97998047</ele>
        <time>2022-10-30T07:44:59Z</time>
      </trkpt>
      <trkpt lat="41.4437643" lon="2.1226644">
        <ele>258.20999146</ele>
        <time>2022-10-30T07:45:00Z</time>
      </trkpt>
      <trkpt lat="41.4437113" lon="2.1227043">
        <ele>258.38998413</ele>
        <time>2022-10-30T07:45:01Z</time>
      </trkpt>
      <trkpt lat="41.4436893" lon="2.1227542">
        <ele>258.62997437</ele>
        <time>2022-10-30T07:45:02Z</time>
      </trkpt>
      <trkpt lat="41.4436604" lon="2.1227692">
        <ele>258.87997437</ele>
        <time>2022-10-30T07:45:03Z</time>
      </trkpt>
      <trkpt lat="41.4436295" lon="2.1227701">
        <ele>259.13998413</ele>
        <time>2022-10-30T07:45:04Z</time>
      </trkpt>
      <trkpt lat="41.4436005" lon="2.122798">
        <ele>259.36999512</ele>
        <time>2022-10-30T07:45:05Z</time>
      </trkpt>
      <trkpt lat="41.4435926" lon="2.122823">
        <ele>259.6000061</ele>
        <time>2022-10-30T07:45:06Z</time>
      </trkpt>
      <trkpt lat="41.4435866" lon="2.1228519">
        <ele>259.89001465</ele>
        <time>2022-10-30T07:45:07Z</time>
      </trkpt>
      <trkpt lat="41.4435757" lon="2.1228669">
        <ele>260.14001465</ele>
        <time>2022-10-30T07:45:08Z</time>
      </trkpt>
      <trkpt lat="41.4435417" lon="2.1228649">
        <ele>260.43002319</ele>
        <time>2022-10-30T07:45:09Z</time>
      </trkpt>
      <trkpt lat="41.4435298" lon="2.1229028">
        <ele>260.67001343</ele>
        <time>2022-10-30T07:45:10Z</time>
      </trkpt>
      <trkpt lat="41.4435278" lon="2.1229567">
        <ele>260.82000732</ele>
        <time>2022-10-30T07:45:11Z</time>
      </trkpt>
      <trkpt lat="41.4435338" lon="2.1230217">
        <ele>261.07000732</ele>
        <time>2022-10-30T07:45:12Z</time>
      </trkpt>
      <trkpt lat="41.4435357" lon="2.1230776">
        <ele>261.24002075</ele>
        <time>2022-10-30T07:45:13Z</time>
      </trkpt>
      <trkpt lat="41.4435318" lon="2.1231535">
        <ele>261.46002197</ele>
        <time>2022-10-30T07:45:14Z</time>
      </trkpt>
      <trkpt lat="41.4435368" lon="2.1232205">
        <ele>261.76000977</ele>
        <time>2022-10-30T07:45:15Z</time>
      </trkpt>
      <trkpt lat="41.4435417" lon="2.1232865">
        <ele>262.02999878</ele>
        <time>2022-10-30T07:45:16Z</time>
      </trkpt>
      <trkpt lat="41.4435368" lon="2.1233324">
        <ele>262.3999939</ele>
        <time>2022-10-30T07:45:17Z</time>
      </trkpt>
      <trkpt lat="41.4435358" lon="2.1233674">
        <ele>262.72998047</ele>
        <time>2022-10-30T07:45:18Z</time>
      </trkpt>
      <trkpt lat="41.4435638" lon="2.1234374">
        <ele>263.03997803</ele>
        <time>2022-10-30T07:45:19Z</time>
      </trkpt>
      <trkpt lat="41.4435858" lon="2.1235024">
        <ele>263.35998535</ele>
        <time>2022-10-30T07:45:20Z</time>
      </trkpt>
      <trkpt lat="41.4435938" lon="2.1235713">
        <ele>263.66998291</ele>
        <time>2022-10-30T07:45:21Z</time>
      </trkpt>
      <trkpt lat="41.4436137" lon="2.1236263">
        <ele>263.99996948</ele>
        <time>2022-10-30T07:45:22Z</time>
      </trkpt>
      <trkpt lat="41.4436407" lon="2.1237062">
        <ele>264.32995605</ele>
        <time>2022-10-30T07:45:23Z</time>
      </trkpt>
      <trkpt lat="41.4436526" lon="2.1237501">
        <ele>264.56994629</ele>
        <time>2022-10-30T07:45:24Z</time>
      </trkpt>
      <trkpt lat="41.4436675" lon="2.1238031">
        <ele>264.91995239</ele>
        <time>2022-10-30T07:45:25Z</time>
      </trkpt>
      <trkpt lat="41.4436844" lon="2.123849">
        <ele>265.2699585</ele>
        <time>2022-10-30T07:45:26Z</time>
      </trkpt>
      <trkpt lat="41.4437114" lon="2.123937">
        <ele>265.56994629</ele>
        <time>2022-10-30T07:45:27Z</time>
      </trkpt>
      <trkpt lat="41.4437243" lon="2.1239979">
        <ele>265.91995239</ele>
        <time>2022-10-30T07:45:28Z</time>
      </trkpt>
      <trkpt lat="41.4437353" lon="2.1240518">
        <ele>266.13995361</ele>
        <time>2022-10-30T07:45:29Z</time>
      </trkpt>
      <trkpt lat="41.4437393" lon="2.1241048">
        <ele>266.32995605</ele>
        <time>2022-10-30T07:45:30Z</time>
      </trkpt>
      <trkpt lat="41.4437393" lon="2.1241558">
        <ele>266.67996216</ele>
        <time>2022-10-30T07:45:31Z</time>
      </trkpt>
      <trkpt lat="41.4437304" lon="2.1242187">
        <ele>266.99996948</ele>
        <time>2022-10-30T07:45:32Z</time>
      </trkpt>
      <trkpt lat="41.4437275" lon="2.1242697">
        <ele>267.32995605</ele>
        <time>2022-10-30T07:45:33Z</time>
      </trkpt>
      <trkpt lat="41.4437255" lon="2.1243096">
        <ele>267.68994141</ele>
        <time>2022-10-30T07:45:34Z</time>
      </trkpt>
      <trkpt lat="41.4437245" lon="2.1243505">
        <ele>267.96994019</ele>
        <time>2022-10-30T07:45:35Z</time>
      </trkpt>
      <trkpt lat="41.4437156" lon="2.1243835">
        <ele>268.32992554</ele>
        <time>2022-10-30T07:45:36Z</time>
      </trkpt>
      <trkpt lat="41.4437196" lon="2.1244424">
        <ele>268.7399292</ele>
        <time>2022-10-30T07:45:37Z</time>
      </trkpt>
      <trkpt lat="41.4437276" lon="2.1244714">
        <ele>269.09991455</ele>
        <time>2022-10-30T07:45:38Z</time>
      </trkpt>
      <trkpt lat="41.4437416" lon="2.1245014">
        <ele>269.41992188</ele>
        <time>2022-10-30T07:45:39Z</time>
      </trkpt>
      <trkpt lat="41.4437435" lon="2.1245203">
        <ele>269.75991821</ele>
        <time>2022-10-30T07:45:40Z</time>
      </trkpt>
      <trkpt lat="41.4437524" lon="2.1245482">
        <ele>270.05990601</ele>
        <time>2022-10-30T07:45:41Z</time>
      </trkpt>
      <trkpt lat="41.4437594" lon="2.1245592">
        <ele>270.39990234</ele>
        <time>2022-10-30T07:45:42Z</time>
      </trkpt>
      <trkpt lat="41.4437614" lon="2.1245701">
        <ele>270.69989014</ele>
        <time>2022-10-30T07:45:43Z</time>
      </trkpt>
      <trkpt lat="41.4437585" lon="2.1245941">
        <ele>270.9598999</ele>
        <time>2022-10-30T07:45:44Z</time>
      </trkpt>
      <trkpt lat="41.4437634" lon="2.124638">
        <ele>271.14990234</ele>
        <time>2022-10-30T07:45:45Z</time>
      </trkpt>
      <trkpt lat="41.4437654" lon="2.124686">
        <ele>271.32989502</ele>
        <time>2022-10-30T07:45:46Z</time>
      </trkpt>
      <trkpt lat="41.4437654" lon="2.1247169">
        <ele>271.6098938</ele>
        <time>2022-10-30T07:45:47Z</time>
      </trkpt>
      <trkpt lat="41.4437615" lon="2.1247448">
        <ele>271.82989502</ele>
        <time>2022-10-30T07:45:48Z</time>
      </trkpt>
      <trkpt lat="41.4437535" lon="2.1247778">
        <ele>272.07989502</ele>
        <time>2022-10-30T07:45:49Z</time>
      </trkpt>
      <trkpt lat="41.4437405" lon="2.1248487">
        <ele>272.32989502</ele>
        <time>2022-10-30T07:45:50Z</time>
      </trkpt>
      <trkpt lat="41.4437366" lon="2.1248907">
        <ele>272.54989624</ele>
        <time>2022-10-30T07:45:51Z</time>
      </trkpt>
      <trkpt lat="41.4437316" lon="2.1249297">
        <ele>272.82989502</ele>
        <time>2022-10-30T07:45:52Z</time>
      </trkpt>
      <trkpt lat="41.4437266" lon="2.1249647">
        <ele>273.19989014</ele>
        <time>2022-10-30T07:45:53Z</time>
      </trkpt>
      <trkpt lat="41.4437126" lon="2.1250236">
        <ele>273.53988647</ele>
        <time>2022-10-30T07:45:54Z</time>
      </trkpt>
      <trkpt lat="41.4436936" lon="2.1250526">
        <ele>273.91989136</ele>
        <time>2022-10-30T07:45:55Z</time>
      </trkpt>
      <trkpt lat="41.4436737" lon="2.1250626">
        <ele>274.26989746</ele>
        <time>2022-10-30T07:45:56Z</time>
      </trkpt>
      <trkpt lat="41.4436518" lon="2.1250786">
        <ele>274.57989502</ele>
        <time>2022-10-30T07:45:57Z</time>
      </trkpt>
      <trkpt lat="41.4436168" lon="2.1251106">
        <ele>274.86990356</ele>
        <time>2022-10-30T07:45:58Z</time>
      </trkpt>
      <trkpt lat="41.4435909" lon="2.1251285">
        <ele>275.1098938</ele>
        <time>2022-10-30T07:45:59Z</time>
      </trkpt>
      <trkpt lat="41.4435699" lon="2.1251545">
        <ele>275.38989258</ele>
        <time>2022-10-30T07:46:00Z</time>
      </trkpt>
      <trkpt lat="41.443553" lon="2.1251884">
        <ele>275.67990112</ele>
        <time>2022-10-30T07:46:01Z</time>
      </trkpt>
      <trkpt lat="41.4435341" lon="2.1251913">
        <ele>275.99990845</ele>
        <time>2022-10-30T07:46:02Z</time>
      </trkpt>
      <trkpt lat="41.4434971" lon="2.1252153">
        <ele>276.36990356</ele>
        <time>2022-10-30T07:46:03Z</time>
      </trkpt>
      <trkpt lat="41.4434682" lon="2.1252272">
        <ele>276.74990845</ele>
        <time>2022-10-30T07:46:04Z</time>
      </trkpt>
      <trkpt lat="41.4434462" lon="2.1252551">
        <ele>277.03991699</ele>
        <time>2022-10-30T07:46:05Z</time>
      </trkpt>
      <trkpt lat="41.4434193" lon="2.1252781">
        <ele>277.42993164</ele>
        <time>2022-10-30T07:46:06Z</time>
      </trkpt>
      <trkpt lat="41.4433923" lon="2.1253231">
        <ele>277.79992676</ele>
        <time>2022-10-30T07:46:07Z</time>
      </trkpt>
      <trkpt lat="41.4433774" lon="2.125354">
        <ele>278.15991211</ele>
        <time>2022-10-30T07:46:08Z</time>
      </trkpt>
      <trkpt lat="41.4433715" lon="2.125384">
        <ele>278.50991821</ele>
        <time>2022-10-30T07:46:09Z</time>
      </trkpt>
      <trkpt lat="41.4433665" lon="2.1254229">
        <ele>278.75991821</ele>
        <time>2022-10-30T07:46:10Z</time>
      </trkpt>
      <trkpt lat="41.4433385" lon="2.125421">
        <ele>279.10992432</ele>
        <time>2022-10-30T07:46:11Z</time>
      </trkpt>
      <trkpt lat="41.4433236" lon="2.1254429">
        <ele>279.3399353</ele>
        <time>2022-10-30T07:46:12Z</time>
      </trkpt>
      <trkpt lat="41.4433126" lon="2.1254578">
        <ele>279.66992188</ele>
        <time>2022-10-30T07:46:13Z</time>
      </trkpt>
      <trkpt lat="41.4433016" lon="2.1254948">
        <ele>280.04992676</ele>
        <time>2022-10-30T07:46:14Z</time>
      </trkpt>
      <trkpt lat="41.4432936" lon="2.1255247">
        <ele>280.29992676</ele>
        <time>2022-10-30T07:46:15Z</time>
      </trkpt>
      <trkpt lat="41.4432447" lon="2.1255837">
        <ele>280.60992432</ele>
        <time>2022-10-30T07:46:16Z</time>
      </trkpt>
      <trkpt lat="41.4432177" lon="2.1256106">
        <ele>280.93991089</ele>
        <time>2022-10-30T07:46:17Z</time>
      </trkpt>
      <trkpt lat="41.4431948" lon="2.1256336">
        <ele>281.28991699</ele>
        <time>2022-10-30T07:46:18Z</time>
      </trkpt>
      <trkpt lat="41.4431779" lon="2.1256515">
        <ele>281.65991211</ele>
        <time>2022-10-30T07:46:19Z</time>
      </trkpt>
      <trkpt lat="41.4431759" lon="2.1256824">
        <ele>282.07992554</ele>
        <time>2022-10-30T07:46:20Z</time>
      </trkpt>
      <trkpt lat="41.443169" lon="2.1257394">
        <ele>282.47991943</ele>
        <time>2022-10-30T07:46:21Z</time>
      </trkpt>
      <trkpt lat="41.443145" lon="2.1257763">
        <ele>282.81991577</ele>
        <time>2022-10-30T07:46:22Z</time>
      </trkpt>
      <trkpt lat="41.4431251" lon="2.1258113">
        <ele>283.18991089</ele>
        <time>2022-10-30T07:46:23Z</time>
      </trkpt>
      <trkpt lat="41.4431011" lon="2.1258373">
        <ele>283.54989624</ele>
        <time>2022-10-30T07:46:24Z</time>
      </trkpt>
      <trkpt lat="41.4430672" lon="2.1258842">
        <ele>283.77990723</ele>
        <time>2022-10-30T07:46:25Z</time>
      </trkpt>
      <trkpt lat="41.4430263" lon="2.1259162">
        <ele>284.09991455</ele>
        <time>2022-10-30T07:46:26Z</time>
      </trkpt>
      <trkpt lat="41.4429954" lon="2.1259221">
        <ele>284.47991943</ele>
        <time>2022-10-30T07:46:27Z</time>
      </trkpt>
      <trkpt lat="41.4429865" lon="2.1259111">
        <ele>284.77990723</ele>
        <time>2022-10-30T07:46:28Z</time>
      </trkpt>
      <trkpt lat="41.4429805" lon="2.1258902">
        <ele>285.21990967</ele>
        <time>2022-10-30T07:46:29Z</time>
      </trkpt>
      <trkpt lat="41.4429885" lon="2.1258292">
        <ele>285.60992432</ele>
        <time>2022-10-30T07:46:30Z</time>
      </trkpt>
      <trkpt lat="41.4429955" lon="2.1257893">
        <ele>285.90991211</ele>
        <time>2022-10-30T07:46:31Z</time>
      </trkpt>
      <trkpt lat="41.4429885" lon="2.1257713">
        <ele>286.21990967</ele>
        <time>2022-10-30T07:46:32Z</time>
      </trkpt>
      <trkpt lat="41.4429646" lon="2.1257484">
        <ele>286.51989746</ele>
        <time>2022-10-30T07:46:33Z</time>
      </trkpt>
      <trkpt lat="41.4429576" lon="2.1256974">
        <ele>286.76989746</ele>
        <time>2022-10-30T07:46:34Z</time>
      </trkpt>
      <trkpt lat="41.4429537" lon="2.1256134">
        <ele>287.01989746</ele>
        <time>2022-10-30T07:46:35Z</time>
      </trkpt>
      <trkpt lat="41.4429517" lon="2.1255605">
        <ele>287.36990356</ele>
        <time>2022-10-30T07:46:36Z</time>
      </trkpt>
      <trkpt lat="41.4429428" lon="2.1255025">
        <ele>287.65991211</ele>
        <time>2022-10-30T07:46:37Z</time>
      </trkpt>
      <trkpt lat="41.4429288" lon="2.1254536">
        <ele>287.98989868</ele>
        <time>2022-10-30T07:46:38Z</time>
      </trkpt>
      <trkpt lat="41.4429018" lon="2.1253716">
        <ele>288.34988403</ele>
        <time>2022-10-30T07:46:39Z</time>
      </trkpt>
      <trkpt lat="41.4428829" lon="2.1253157">
        <ele>288.81988525</ele>
        <time>2022-10-30T07:46:40Z</time>
      </trkpt>
      <trkpt lat="41.4428669" lon="2.1252658">
        <ele>289.24987793</ele>
        <time>2022-10-30T07:46:41Z</time>
      </trkpt>
      <trkpt lat="41.4428539" lon="2.1252219">
        <ele>289.65988159</ele>
        <time>2022-10-30T07:46:42Z</time>
      </trkpt>
      <trkpt lat="41.442838" lon="2.1251999">
        <ele>290.12988281</ele>
        <time>2022-10-30T07:46:43Z</time>
      </trkpt>
      <trkpt lat="41.4428181" lon="2.125175">
        <ele>290.39987183</ele>
        <time>2022-10-30T07:46:44Z</time>
      </trkpt>
      <trkpt lat="41.4427891" lon="2.1251481">
        <ele>290.79986572</ele>
        <time>2022-10-30T07:46:45Z</time>
      </trkpt>
      <trkpt lat="41.4427561" lon="2.1250971">
        <ele>291.27987671</ele>
        <time>2022-10-30T07:46:46Z</time>
      </trkpt>
      <trkpt lat="41.4427372" lon="2.1250581">
        <ele>291.59988403</ele>
        <time>2022-10-30T07:46:47Z</time>
      </trkpt>
      <trkpt lat="41.4427173" lon="2.1250212">
        <ele>291.95986938</ele>
        <time>2022-10-30T07:46:48Z</time>
      </trkpt>
      <trkpt lat="41.4426883" lon="2.1250082">
        <ele>292.24987793</ele>
        <time>2022-10-30T07:46:49Z</time>
      </trkpt>
      <trkpt lat="41.4426544" lon="2.1250131">
        <ele>292.42987061</ele>
        <time>2022-10-30T07:46:50Z</time>
      </trkpt>
      <trkpt lat="41.4426085" lon="2.1250281">
        <ele>292.65988159</ele>
        <time>2022-10-30T07:46:51Z</time>
      </trkpt>
      <trkpt lat="41.4425615" lon="2.1250791">
        <ele>292.92987061</ele>
        <time>2022-10-30T07:46:52Z</time>
      </trkpt>
      <trkpt lat="41.4425076" lon="2.125134">
        <ele>293.17987061</ele>
        <time>2022-10-30T07:46:53Z</time>
      </trkpt>
      <trkpt lat="41.4424656" lon="2.125151">
        <ele>293.43988037</ele>
        <time>2022-10-30T07:46:54Z</time>
      </trkpt>
      <trkpt lat="41.4424147" lon="2.1251491">
        <ele>293.71987915</ele>
        <time>2022-10-30T07:46:55Z</time>
      </trkpt>
      <trkpt lat="41.4423707" lon="2.1251481">
        <ele>293.95986938</ele>
        <time>2022-10-30T07:46:56Z</time>
      </trkpt>
      <trkpt lat="41.4423248" lon="2.125163">
        <ele>294.20986938</ele>
        <time>2022-10-30T07:46:57Z</time>
      </trkpt>
      <trkpt lat="41.4423039" lon="2.125187">
        <ele>294.44985962</ele>
        <time>2022-10-30T07:46:58Z</time>
      </trkpt>
      <trkpt lat="41.4422979" lon="2.1252179">
        <ele>294.69985962</ele>
        <time>2022-10-30T07:46:59Z</time>
      </trkpt>
      <trkpt lat="41.442288" lon="2.1252398">
        <ele>294.94985962</ele>
        <time>2022-10-30T07:47:00Z</time>
      </trkpt>
      <trkpt lat="41.44227" lon="2.1252537">
        <ele>295.2298584</ele>
        <time>2022-10-30T07:47:01Z</time>
      </trkpt>
      <trkpt lat="41.4422481" lon="2.1252827">
        <ele>295.54986572</ele>
        <time>2022-10-30T07:47:02Z</time>
      </trkpt>
      <trkpt lat="41.4422282" lon="2.1253016">
        <ele>295.90985107</ele>
        <time>2022-10-30T07:47:03Z</time>
      </trkpt>
      <trkpt lat="41.4422052" lon="2.1253196">
        <ele>296.2298584</ele>
        <time>2022-10-30T07:47:04Z</time>
      </trkpt>
      <trkpt lat="41.4421813" lon="2.1253235">
        <ele>296.56985474</ele>
        <time>2022-10-30T07:47:05Z</time>
      </trkpt>
      <trkpt lat="41.4421463" lon="2.1253345">
        <ele>296.89984131</ele>
        <time>2022-10-30T07:47:06Z</time>
      </trkpt>
      <trkpt lat="41.4421154" lon="2.1253404">
        <ele>297.16983032</ele>
        <time>2022-10-30T07:47:07Z</time>
      </trkpt>
      <trkpt lat="41.4420915" lon="2.1253414">
        <ele>297.47982788</ele>
        <time>2022-10-30T07:47:08Z</time>
      </trkpt>
      <trkpt lat="41.4420626" lon="2.1253334">
        <ele>297.78982544</ele>
        <time>2022-10-30T07:47:09Z</time>
      </trkpt>
      <trkpt lat="41.4420066" lon="2.1253315">
        <ele>298.03982544</ele>
        <time>2022-10-30T07:47:10Z</time>
      </trkpt>
      <trkpt lat="41.4419776" lon="2.1253364">
        <ele>298.35983276</ele>
        <time>2022-10-30T07:47:11Z</time>
      </trkpt>
      <trkpt lat="41.4419467" lon="2.1253414">
        <ele>298.74984741</ele>
        <time>2022-10-30T07:47:12Z</time>
      </trkpt>
      <trkpt lat="41.4419187" lon="2.1253503">
        <ele>299.11984253</ele>
        <time>2022-10-30T07:47:13Z</time>
      </trkpt>
      <trkpt lat="41.4418918" lon="2.1253663">
        <ele>299.59985352</ele>
        <time>2022-10-30T07:47:14Z</time>
      </trkpt>
      <trkpt lat="41.4418558" lon="2.1253863">
        <ele>300.02984619</ele>
        <time>2022-10-30T07:47:15Z</time>
      </trkpt>
      <trkpt lat="41.4418148" lon="2.1254213">
        <ele>300.36984253</ele>
        <time>2022-10-30T07:47:16Z</time>
      </trkpt>
      <trkpt lat="41.4417949" lon="2.1254522">
        <ele>300.70983887</ele>
        <time>2022-10-30T07:47:17Z</time>
      </trkpt>
      <trkpt lat="41.441771" lon="2.1254891">
        <ele>300.99984741</ele>
        <time>2022-10-30T07:47:18Z</time>
      </trkpt>
      <trkpt lat="41.441747" lon="2.1255311">
        <ele>301.36984253</ele>
        <time>2022-10-30T07:47:19Z</time>
      </trkpt>
      <trkpt lat="41.4417271" lon="2.125593">
        <ele>301.75985718</ele>
        <time>2022-10-30T07:47:20Z</time>
      </trkpt>
      <trkpt lat="41.4417232" lon="2.1256469">
        <ele>302.23986816</ele>
        <time>2022-10-30T07:47:21Z</time>
      </trkpt>
      <trkpt lat="41.4417173" lon="2.1257008">
        <ele>302.7298584</ele>
        <time>2022-10-30T07:47:22Z</time>
      </trkpt>
      <trkpt lat="41.4417113" lon="2.1257508">
        <ele>303.16986084</ele>
        <time>2022-10-30T07:47:23Z</time>
      </trkpt>
      <trkpt lat="41.4417074" lon="2.1258317">
        <ele>303.62985229</ele>
        <time>2022-10-30T07:47:24Z</time>
      </trkpt>
      <trkpt lat="41.4417074" lon="2.1258886">
        <ele>303.99984741</ele>
        <time>2022-10-30T07:47:25Z</time>
      </trkpt>
      <trkpt lat="41.4417083" lon="2.1259376">
        <ele>304.34985352</ele>
        <time>2022-10-30T07:47:26Z</time>
      </trkpt>
      <trkpt lat="41.4417004" lon="2.1259826">
        <ele>304.73986816</ele>
        <time>2022-10-30T07:47:27Z</time>
      </trkpt>
      <trkpt lat="41.4416914" lon="2.1260656">
        <ele>305.11987305</ele>
        <time>2022-10-30T07:47:28Z</time>
      </trkpt>
      <trkpt lat="41.4416795" lon="2.1261115">
        <ele>305.49987793</ele>
        <time>2022-10-30T07:47:29Z</time>
      </trkpt>
      <trkpt lat="41.4416676" lon="2.1261565">
        <ele>305.96987915</ele>
        <time>2022-10-30T07:47:30Z</time>
      </trkpt>
      <trkpt lat="41.4416617" lon="2.1262055">
        <ele>306.36987305</ele>
        <time>2022-10-30T07:47:31Z</time>
      </trkpt>
      <trkpt lat="41.4416497" lon="2.1262554">
        <ele>306.77987671</ele>
        <time>2022-10-30T07:47:32Z</time>
      </trkpt>
      <trkpt lat="41.4416248" lon="2.1263143">
        <ele>307.20986938</ele>
        <time>2022-10-30T07:47:33Z</time>
      </trkpt>
      <trkpt lat="41.4415898" lon="2.1263313">
        <ele>307.5798645</ele>
        <time>2022-10-30T07:47:34Z</time>
      </trkpt>
      <trkpt lat="41.4415439" lon="2.1263483">
        <ele>307.96987915</ele>
        <time>2022-10-30T07:47:35Z</time>
      </trkpt>
      <trkpt lat="41.44151" lon="2.1263443">
        <ele>308.3598938</ele>
        <time>2022-10-30T07:47:36Z</time>
      </trkpt>
      <trkpt lat="41.4414591" lon="2.1263363">
        <ele>308.76989746</ele>
        <time>2022-10-30T07:47:37Z</time>
      </trkpt>
      <trkpt lat="41.4413801" lon="2.1263224">
        <ele>309.11990356</ele>
        <time>2022-10-30T07:47:38Z</time>
      </trkpt>
      <trkpt lat="41.4413351" lon="2.1263174">
        <ele>309.48989868</ele>
        <time>2022-10-30T07:47:39Z</time>
      </trkpt>
      <trkpt lat="41.4413062" lon="2.1263384">
        <ele>309.80990601</ele>
        <time>2022-10-30T07:47:40Z</time>
      </trkpt>
      <trkpt lat="41.4412763" lon="2.1263523">
        <ele>310.17990112</ele>
        <time>2022-10-30T07:47:41Z</time>
      </trkpt>
      <trkpt lat="41.4412463" lon="2.1263863">
        <ele>310.61990356</ele>
        <time>2022-10-30T07:47:42Z</time>
      </trkpt>
      <trkpt lat="41.4412004" lon="2.1264312">
        <ele>311.1098938</ele>
        <time>2022-10-30T07:47:43Z</time>
      </trkpt>
      <trkpt lat="41.4411774" lon="2.1264652">
        <ele>311.67990112</ele>
        <time>2022-10-30T07:47:44Z</time>
      </trkpt>
      <trkpt lat="41.4411505" lon="2.1265191">
        <ele>312.24990845</ele>
        <time>2022-10-30T07:47:45Z</time>
      </trkpt>
      <trkpt lat="41.4411215" lon="2.126571">
        <ele>312.86990356</ele>
        <time>2022-10-30T07:47:46Z</time>
      </trkpt>
      <trkpt lat="41.4410986" lon="2.126626">
        <ele>313.46990967</ele>
        <time>2022-10-30T07:47:47Z</time>
      </trkpt>
      <trkpt lat="41.4410897" lon="2.126665">
        <ele>313.98989868</ele>
        <time>2022-10-30T07:47:48Z</time>
      </trkpt>
      <trkpt lat="41.4410677" lon="2.1267019">
        <ele>314.42990112</ele>
        <time>2022-10-30T07:47:49Z</time>
      </trkpt>
      <trkpt lat="41.4410427" lon="2.1267369">
        <ele>314.7598877</ele>
        <time>2022-10-30T07:47:50Z</time>
      </trkpt>
      <trkpt lat="41.4409998" lon="2.1267829">
        <ele>315.07989502</ele>
        <time>2022-10-30T07:47:51Z</time>
      </trkpt>
      <trkpt lat="41.4409808" lon="2.1268218">
        <ele>315.4598999</ele>
        <time>2022-10-30T07:47:52Z</time>
      </trkpt>
      <trkpt lat="41.4409639" lon="2.1268638">
        <ele>315.89990234</ele>
        <time>2022-10-30T07:47:53Z</time>
      </trkpt>
      <trkpt lat="41.4409529" lon="2.1269028">
        <ele>316.40991211</ele>
        <time>2022-10-30T07:47:54Z</time>
      </trkpt>
      <trkpt lat="41.440931" lon="2.1269397">
        <ele>316.93991089</ele>
        <time>2022-10-30T07:47:55Z</time>
      </trkpt>
      <trkpt lat="41.440901" lon="2.1269966">
        <ele>317.44992065</ele>
        <time>2022-10-30T07:47:56Z</time>
      </trkpt>
      <trkpt lat="41.4408861" lon="2.1270405">
        <ele>317.91992188</ele>
        <time>2022-10-30T07:47:57Z</time>
      </trkpt>
      <trkpt lat="41.4408671" lon="2.1270825">
        <ele>318.36993408</ele>
        <time>2022-10-30T07:47:58Z</time>
      </trkpt>
      <trkpt lat="41.4408481" lon="2.1271185">
        <ele>318.79992676</ele>
        <time>2022-10-30T07:47:59Z</time>
      </trkpt>
      <trkpt lat="41.4408112" lon="2.1271704">
        <ele>319.25991821</ele>
        <time>2022-10-30T07:48:00Z</time>
      </trkpt>
      <trkpt lat="41.4407853" lon="2.1272074">
        <ele>319.70993042</ele>
        <time>2022-10-30T07:48:01Z</time>
      </trkpt>
      <trkpt lat="41.4407603" lon="2.1272473">
        <ele>320.17993164</ele>
        <time>2022-10-30T07:48:02Z</time>
      </trkpt>
      <trkpt lat="41.4407413" lon="2.1272823">
        <ele>320.5899353</ele>
        <time>2022-10-30T07:48:03Z</time>
      </trkpt>
      <trkpt lat="41.4407184" lon="2.1273452">
        <ele>320.94992065</ele>
        <time>2022-10-30T07:48:04Z</time>
      </trkpt>
      <trkpt lat="41.4407015" lon="2.1273772">
        <ele>321.34991455</ele>
        <time>2022-10-30T07:48:05Z</time>
      </trkpt>
      <trkpt lat="41.4406825" lon="2.1274002">
        <ele>321.72991943</ele>
        <time>2022-10-30T07:48:06Z</time>
      </trkpt>
      <trkpt lat="41.4406545" lon="2.1274121">
        <ele>322.08990479</ele>
        <time>2022-10-30T07:48:07Z</time>
      </trkpt>
      <trkpt lat="41.4406265" lon="2.1274231">
        <ele>322.39990234</ele>
        <time>2022-10-30T07:48:08Z</time>
      </trkpt>
      <trkpt lat="41.4405815" lon="2.1274361">
        <ele>322.72988892</ele>
        <time>2022-10-30T07:48:09Z</time>
      </trkpt>
      <trkpt lat="41.4405526" lon="2.1274361">
        <ele>323.13989258</ele>
        <time>2022-10-30T07:48:10Z</time>
      </trkpt>
      <trkpt lat="41.4405286" lon="2.1274242">
        <ele>323.64990234</ele>
        <time>2022-10-30T07:48:11Z</time>
      </trkpt>
      <trkpt lat="41.4405087" lon="2.1274152">
        <ele>324.2598877</ele>
        <time>2022-10-30T07:48:12Z</time>
      </trkpt>
      <trkpt lat="41.4404908" lon="2.1273983">
        <ele>324.81988525</ele>
        <time>2022-10-30T07:48:13Z</time>
      </trkpt>
      <trkpt lat="41.4404548" lon="2.1273833">
        <ele>325.29989624</ele>
        <time>2022-10-30T07:48:14Z</time>
      </trkpt>
      <trkpt lat="41.4404218" lon="2.1273814">
        <ele>325.72988892</ele>
        <time>2022-10-30T07:48:15Z</time>
      </trkpt>
      <trkpt lat="41.4403968" lon="2.1273843">
        <ele>326.05987549</ele>
        <time>2022-10-30T07:48:16Z</time>
      </trkpt>
      <trkpt lat="41.4403649" lon="2.1273773">
        <ele>326.40988159</ele>
        <time>2022-10-30T07:48:17Z</time>
      </trkpt>
      <trkpt lat="41.440334" lon="2.1273783">
        <ele>326.7598877</ele>
        <time>2022-10-30T07:48:18Z</time>
      </trkpt>
      <trkpt lat="41.440287" lon="2.1273713">
        <ele>327.09988403</ele>
        <time>2022-10-30T07:48:19Z</time>
      </trkpt>
      <trkpt lat="41.4402561" lon="2.1273742">
        <ele>327.43988037</ele>
        <time>2022-10-30T07:48:20Z</time>
      </trkpt>
      <trkpt lat="41.4402252" lon="2.1273961">
        <ele>327.8598938</ele>
        <time>2022-10-30T07:48:21Z</time>
      </trkpt>
      <trkpt lat="41.4402002" lon="2.1274261">
        <ele>328.27990723</ele>
        <time>2022-10-30T07:48:22Z</time>
      </trkpt>
      <trkpt lat="41.4401683" lon="2.127472">
        <ele>328.73989868</ele>
        <time>2022-10-30T07:48:23Z</time>
      </trkpt>
      <trkpt lat="41.4401334" lon="2.1274939">
        <ele>329.27990723</ele>
        <time>2022-10-30T07:48:24Z</time>
      </trkpt>
      <trkpt lat="41.4401094" lon="2.1275189">
        <ele>329.77990723</ele>
        <time>2022-10-30T07:48:25Z</time>
      </trkpt>
      <trkpt lat="41.4400904" lon="2.1275528">
        <ele>330.24990845</ele>
        <time>2022-10-30T07:48:26Z</time>
      </trkpt>
      <trkpt lat="41.4400645" lon="2.1275848">
        <ele>330.6399231</ele>
        <time>2022-10-30T07:48:27Z</time>
      </trkpt>
      <trkpt lat="41.4400476" lon="2.1276147">
        <ele>331.00991821</ele>
        <time>2022-10-30T07:48:28Z</time>
      </trkpt>
      <trkpt lat="41.4400247" lon="2.1276417">
        <ele>331.33990479</ele>
        <time>2022-10-30T07:48:29Z</time>
      </trkpt>
      <trkpt lat="41.4399997" lon="2.1276707">
        <ele>331.67990112</ele>
        <time>2022-10-30T07:48:30Z</time>
      </trkpt>
      <trkpt lat="41.4399758" lon="2.1277187">
        <ele>332.02990723</ele>
        <time>2022-10-30T07:48:31Z</time>
      </trkpt>
      <trkpt lat="41.4399548" lon="2.1277256">
        <ele>332.32989502</ele>
        <time>2022-10-30T07:48:32Z</time>
      </trkpt>
      <trkpt lat="41.4399278" lon="2.1277326">
        <ele>332.63989258</ele>
        <time>2022-10-30T07:48:33Z</time>
      </trkpt>
      <trkpt lat="41.4398959" lon="2.1277376">
        <ele>332.87988281</ele>
        <time>2022-10-30T07:48:34Z</time>
      </trkpt>
      <trkpt lat="41.4398629" lon="2.1277266">
        <ele>333.08987427</ele>
        <time>2022-10-30T07:48:35Z</time>
      </trkpt>
      <trkpt lat="41.439828" lon="2.1276857">
        <ele>333.36987305</ele>
        <time>2022-10-30T07:48:36Z</time>
      </trkpt>
      <trkpt lat="41.4398131" lon="2.1276608">
        <ele>333.59988403</ele>
        <time>2022-10-30T07:48:37Z</time>
      </trkpt>
      <trkpt lat="41.4398001" lon="2.1276329">
        <ele>333.93988037</ele>
        <time>2022-10-30T07:48:38Z</time>
      </trkpt>
      <trkpt lat="41.4397921" lon="2.1275959">
        <ele>334.28988647</ele>
        <time>2022-10-30T07:48:39Z</time>
      </trkpt>
      <trkpt lat="41.4397671" lon="2.127525">
        <ele>334.57989502</ele>
        <time>2022-10-30T07:48:40Z</time>
      </trkpt>
      <trkpt lat="41.4397432" lon="2.12749">
        <ele>334.91989136</ele>
        <time>2022-10-30T07:48:41Z</time>
      </trkpt>
      <trkpt lat="41.4397203" lon="2.12746">
        <ele>335.23989868</ele>
        <time>2022-10-30T07:48:42Z</time>
      </trkpt>
      <trkpt lat="41.4397034" lon="2.1274461">
        <ele>335.56988525</ele>
        <time>2022-10-30T07:48:43Z</time>
      </trkpt>
      <trkpt lat="41.4396854" lon="2.1274291">
        <ele>335.91989136</ele>
        <time>2022-10-30T07:48:44Z</time>
      </trkpt>
      <trkpt lat="41.4396464" lon="2.1273952">
        <ele>336.31988525</ele>
        <time>2022-10-30T07:48:45Z</time>
      </trkpt>
      <trkpt lat="41.4396225" lon="2.1273832">
        <ele>336.7598877</ele>
        <time>2022-10-30T07:48:46Z</time>
      </trkpt>
      <trkpt lat="41.4395945" lon="2.1273663">
        <ele>337.2098999</ele>
        <time>2022-10-30T07:48:47Z</time>
      </trkpt>
      <trkpt lat="41.4395716" lon="2.1273544">
        <ele>337.71990967</ele>
        <time>2022-10-30T07:48:48Z</time>
      </trkpt>
      <trkpt lat="41.4395436" lon="2.1273394">
        <ele>338.15991211</ele>
        <time>2022-10-30T07:48:49Z</time>
      </trkpt>
      <trkpt lat="41.4394936" lon="2.1273294">
        <ele>338.57992554</ele>
        <time>2022-10-30T07:48:50Z</time>
      </trkpt>
      <trkpt lat="41.4394666" lon="2.1273344">
        <ele>339.02993774</ele>
        <time>2022-10-30T07:48:51Z</time>
      </trkpt>
      <trkpt lat="41.4394347" lon="2.1273563">
        <ele>339.39993286</ele>
        <time>2022-10-30T07:48:52Z</time>
      </trkpt>
      <trkpt lat="41.4394058" lon="2.1273763">
        <ele>339.75991821</ele>
        <time>2022-10-30T07:48:53Z</time>
      </trkpt>
      <trkpt lat="41.4393818" lon="2.1273992">
        <ele>340.11990356</ele>
        <time>2022-10-30T07:48:54Z</time>
      </trkpt>
      <trkpt lat="41.4393449" lon="2.1273853">
        <ele>340.43991089</ele>
        <time>2022-10-30T07:48:55Z</time>
      </trkpt>
      <trkpt lat="41.4393169" lon="2.1273862">
        <ele>340.81991577</ele>
        <time>2022-10-30T07:48:56Z</time>
      </trkpt>
      <trkpt lat="41.4392889" lon="2.1274132">
        <ele>341.17990112</ele>
        <time>2022-10-30T07:48:57Z</time>
      </trkpt>
      <trkpt lat="41.4392639" lon="2.1274471">
        <ele>341.49990845</ele>
        <time>2022-10-30T07:48:58Z</time>
      </trkpt>
      <trkpt lat="41.4392189" lon="2.127501">
        <ele>341.83990479</ele>
        <time>2022-10-30T07:48:59Z</time>
      </trkpt>
      <trkpt lat="41.4391829" lon="2.1275289">
        <ele>342.14990234</ele>
        <time>2022-10-30T07:49:00Z</time>
      </trkpt>
      <trkpt lat="41.439153" lon="2.1275509">
        <ele>342.44989014</ele>
        <time>2022-10-30T07:49:01Z</time>
      </trkpt>
      <trkpt lat="41.43912" lon="2.1275728">
        <ele>342.77987671</ele>
        <time>2022-10-30T07:49:02Z</time>
      </trkpt>
      <trkpt lat="41.4390861" lon="2.1275977">
        <ele>343.11987305</ele>
        <time>2022-10-30T07:49:03Z</time>
      </trkpt>
      <trkpt lat="41.4390402" lon="2.1276427">
        <ele>343.49987793</ele>
        <time>2022-10-30T07:49:04Z</time>
      </trkpt>
      <trkpt lat="41.4390093" lon="2.1276676">
        <ele>343.88989258</ele>
        <time>2022-10-30T07:49:05Z</time>
      </trkpt>
      <trkpt lat="41.4389883" lon="2.1277015">
        <ele>344.2598877</ele>
        <time>2022-10-30T07:49:06Z</time>
      </trkpt>
      <trkpt lat="41.4389714" lon="2.1277375">
        <ele>344.62988281</ele>
        <time>2022-10-30T07:49:07Z</time>
      </trkpt>
      <trkpt lat="41.4389524" lon="2.1277974">
        <ele>344.93988037</ele>
        <time>2022-10-30T07:49:08Z</time>
      </trkpt>
      <trkpt lat="41.4389465" lon="2.1278383">
        <ele>345.31988525</ele>
        <time>2022-10-30T07:49:09Z</time>
      </trkpt>
      <trkpt lat="41.4389376" lon="2.1278643">
        <ele>345.61987305</ele>
        <time>2022-10-30T07:49:10Z</time>
      </trkpt>
      <trkpt lat="41.4389356" lon="2.1278972">
        <ele>345.91986084</ele>
        <time>2022-10-30T07:49:11Z</time>
      </trkpt>
      <trkpt lat="41.4389237" lon="2.1279452">
        <ele>346.2298584</ele>
        <time>2022-10-30T07:49:12Z</time>
      </trkpt>
      <trkpt lat="41.43891" lon="2.127954">
        <ele>347.70999146</ele>
        <time>2022-10-30T07:49:12Z</time>
      </trkpt>
      <trkpt lat="41.438902" lon="2.127991">
        <ele>347.95999146</ele>
        <time>2022-10-30T07:49:13Z</time>
      </trkpt>
      <trkpt lat="41.438883" lon="2.1280269">
        <ele>348.25997925</ele>
        <time>2022-10-30T07:49:14Z</time>
      </trkpt>
      <trkpt lat="41.4388531" lon="2.1280449">
        <ele>348.4699707</ele>
        <time>2022-10-30T07:49:15Z</time>
      </trkpt>
      <trkpt lat="41.4388351" lon="2.1280528">
        <ele>348.70996094</ele>
        <time>2022-10-30T07:49:16Z</time>
      </trkpt>
      <trkpt lat="41.4387952" lon="2.1280479">
        <ele>349.0199585</ele>
        <time>2022-10-30T07:49:17Z</time>
      </trkpt>
      <trkpt lat="41.4387562" lon="2.1280488">
        <ele>349.33996582</ele>
        <time>2022-10-30T07:49:18Z</time>
      </trkpt>
      <trkpt lat="41.4387233" lon="2.1280469">
        <ele>349.81997681</ele>
        <time>2022-10-30T07:49:19Z</time>
      </trkpt>
      <trkpt lat="41.4386963" lon="2.1280528">
        <ele>350.3699646</ele>
        <time>2022-10-30T07:49:20Z</time>
      </trkpt>
      <trkpt lat="41.4386614" lon="2.1280668">
        <ele>350.89996338</ele>
        <time>2022-10-30T07:49:21Z</time>
      </trkpt>
      <trkpt lat="41.4386364" lon="2.1280648">
        <ele>351.47994995</ele>
        <time>2022-10-30T07:49:22Z</time>
      </trkpt>
      <trkpt lat="41.4386124" lon="2.1280399">
        <ele>351.93994141</ele>
        <time>2022-10-30T07:49:23Z</time>
      </trkpt>
      <trkpt lat="41.4385945" lon="2.128035">
        <ele>352.38995361</ele>
        <time>2022-10-30T07:49:24Z</time>
      </trkpt>
      <trkpt lat="41.4385695" lon="2.128015">
        <ele>352.79995728</ele>
        <time>2022-10-30T07:49:25Z</time>
      </trkpt>
      <trkpt lat="41.4385455" lon="2.127976">
        <ele>353.17996216</ele>
        <time>2022-10-30T07:49:26Z</time>
      </trkpt>
      <trkpt lat="41.4385156" lon="2.1279671">
        <ele>353.6199646</ele>
        <time>2022-10-30T07:49:27Z</time>
      </trkpt>
      <trkpt lat="41.4384976" lon="2.1279622">
        <ele>353.99996948</ele>
        <time>2022-10-30T07:49:28Z</time>
      </trkpt>
      <trkpt lat="41.4384797" lon="2.1279422">
        <ele>354.45996094</ele>
        <time>2022-10-30T07:49:29Z</time>
      </trkpt>
      <trkpt lat="41.4384587" lon="2.1279043">
        <ele>354.87997437</ele>
        <time>2022-10-30T07:49:30Z</time>
      </trkpt>
      <trkpt lat="41.4384398" lon="2.1278783">
        <ele>355.26998901</ele>
        <time>2022-10-30T07:49:31Z</time>
      </trkpt>
      <trkpt lat="41.4384229" lon="2.1278534">
        <ele>355.60998535</ele>
        <time>2022-10-30T07:49:32Z</time>
      </trkpt>
      <trkpt lat="41.4384119" lon="2.1278424">
        <ele>355.87997437</ele>
        <time>2022-10-30T07:49:33Z</time>
      </trkpt>
      <trkpt lat="41.4384009" lon="2.1278534">
        <ele>356.18997192</ele>
        <time>2022-10-30T07:49:34Z</time>
      </trkpt>
      <trkpt lat="41.438392" lon="2.1278804">
        <ele>356.49996948</ele>
        <time>2022-10-30T07:49:35Z</time>
      </trkpt>
      <trkpt lat="41.438382" lon="2.1278903">
        <ele>356.79995728</ele>
        <time>2022-10-30T07:49:36Z</time>
      </trkpt>
      <trkpt lat="41.4383849" lon="2.1278943">
        <ele>357.06994629</ele>
        <time>2022-10-30T07:49:37Z</time>
      </trkpt>
      <trkpt lat="41.4383799" lon="2.1279273">
        <ele>357.29995728</ele>
        <time>2022-10-30T07:49:38Z</time>
      </trkpt>
      <trkpt lat="41.438363" lon="2.1279602">
        <ele>357.5199585</ele>
        <time>2022-10-30T07:49:39Z</time>
      </trkpt>
      <trkpt lat="41.4383311" lon="2.1279832">
        <ele>357.78994751</ele>
        <time>2022-10-30T07:49:40Z</time>
      </trkpt>
      <trkpt lat="41.4383132" lon="2.1280111">
        <ele>358.10995483</ele>
        <time>2022-10-30T07:49:41Z</time>
      </trkpt>
      <trkpt lat="41.4382902" lon="2.128017">
        <ele>358.41995239</ele>
        <time>2022-10-30T07:49:42Z</time>
      </trkpt>
      <trkpt lat="41.4382652" lon="2.128049">
        <ele>358.78994751</ele>
        <time>2022-10-30T07:49:43Z</time>
      </trkpt>
      <trkpt lat="41.4382383" lon="2.128115">
        <ele>359.13995361</ele>
        <time>2022-10-30T07:49:44Z</time>
      </trkpt>
      <trkpt lat="41.4382143" lon="2.1281949">
        <ele>359.43994141</ele>
        <time>2022-10-30T07:49:45Z</time>
      </trkpt>
      <trkpt lat="41.4381893" lon="2.128187">
        <ele>359.74993896</ele>
        <time>2022-10-30T07:49:46Z</time>
      </trkpt>
      <trkpt lat="41.4381664" lon="2.128154">
        <ele>360.00994873</ele>
        <time>2022-10-30T07:49:47Z</time>
      </trkpt>
      <trkpt lat="41.4381345" lon="2.128256">
        <ele>360.27993774</ele>
        <time>2022-10-30T07:49:48Z</time>
      </trkpt>
      <trkpt lat="41.4380995" lon="2.12838">
        <ele>360.61993408</ele>
        <time>2022-10-30T07:49:49Z</time>
      </trkpt>
      <trkpt lat="41.4380616" lon="2.128455">
        <ele>361.04992676</ele>
        <time>2022-10-30T07:49:50Z</time>
      </trkpt>
      <trkpt lat="41.4380026" lon="2.128452">
        <ele>361.50991821</ele>
        <time>2022-10-30T07:49:51Z</time>
      </trkpt>
      <trkpt lat="41.4379616" lon="2.1284061">
        <ele>362.00991821</ele>
        <time>2022-10-30T07:49:52Z</time>
      </trkpt>
      <trkpt lat="41.4379037" lon="2.1283231">
        <ele>362.4899292</ele>
        <time>2022-10-30T07:49:53Z</time>
      </trkpt>
      <trkpt lat="41.4378748" lon="2.1282702">
        <ele>362.93994141</ele>
        <time>2022-10-30T07:49:54Z</time>
      </trkpt>
      <trkpt lat="41.4378398" lon="2.1282073">
        <ele>363.3399353</ele>
        <time>2022-10-30T07:49:55Z</time>
      </trkpt>
      <trkpt lat="41.4378159" lon="2.1281213">
        <ele>363.7399292</ele>
        <time>2022-10-30T07:49:56Z</time>
      </trkpt>
      <trkpt lat="41.437785" lon="2.1280043">
        <ele>364.04992676</ele>
        <time>2022-10-30T07:49:57Z</time>
      </trkpt>
      <trkpt lat="41.43776" lon="2.1279334">
        <ele>364.31991577</ele>
        <time>2022-10-30T07:49:58Z</time>
      </trkpt>
      <trkpt lat="41.4377371" lon="2.1278614">
        <ele>364.57992554</ele>
        <time>2022-10-30T07:49:59Z</time>
      </trkpt>
      <trkpt lat="41.4377241" lon="2.1278005">
        <ele>364.72991943</ele>
        <time>2022-10-30T07:50:00Z</time>
      </trkpt>
      <trkpt lat="41.4376971" lon="2.1277186">
        <ele>364.99990845</ele>
        <time>2022-10-30T07:50:01Z</time>
      </trkpt>
      <trkpt lat="41.4376882" lon="2.1276626">
        <ele>365.26989746</ele>
        <time>2022-10-30T07:50:02Z</time>
      </trkpt>
      <trkpt lat="41.4376802" lon="2.1276146">
        <ele>365.54989624</ele>
        <time>2022-10-30T07:50:03Z</time>
      </trkpt>
      <trkpt lat="41.4376692" lon="2.1275446">
        <ele>365.97988892</ele>
        <time>2022-10-30T07:50:04Z</time>
      </trkpt>
      <trkpt lat="41.4376543" lon="2.1274746">
        <ele>366.30987549</ele>
        <time>2022-10-30T07:50:05Z</time>
      </trkpt>
      <trkpt lat="41.4376303" lon="2.1273677">
        <ele>366.67987061</ele>
        <time>2022-10-30T07:50:06Z</time>
      </trkpt>
      <trkpt lat="41.4376024" lon="2.1272967">
        <ele>367.04986572</ele>
        <time>2022-10-30T07:50:07Z</time>
      </trkpt>
      <trkpt lat="41.4375754" lon="2.1272218">
        <ele>367.33987427</ele>
        <time>2022-10-30T07:50:08Z</time>
      </trkpt>
      <trkpt lat="41.4375605" lon="2.1271538">
        <ele>367.62988281</ele>
        <time>2022-10-30T07:50:09Z</time>
      </trkpt>
      <trkpt lat="41.4375585" lon="2.1270959">
        <ele>367.89987183</ele>
        <time>2022-10-30T07:50:10Z</time>
      </trkpt>
      <trkpt lat="41.4375466" lon="2.1270219">
        <ele>368.14987183</ele>
        <time>2022-10-30T07:50:11Z</time>
      </trkpt>
      <trkpt lat="41.4375376" lon="2.1269769">
        <ele>368.38986206</ele>
        <time>2022-10-30T07:50:12Z</time>
      </trkpt>
      <trkpt lat="41.4375287" lon="2.126927">
        <ele>368.62985229</ele>
        <time>2022-10-30T07:50:13Z</time>
      </trkpt>
      <trkpt lat="41.4375168" lon="2.1268801">
        <ele>368.81985474</ele>
        <time>2022-10-30T07:50:14Z</time>
      </trkpt>
      <trkpt lat="41.4375058" lon="2.1268331">
        <ele>369.00985718</ele>
        <time>2022-10-30T07:50:15Z</time>
      </trkpt>
      <trkpt lat="41.4374868" lon="2.1267712">
        <ele>369.12985229</ele>
        <time>2022-10-30T07:50:16Z</time>
      </trkpt>
      <trkpt lat="41.4374709" lon="2.1267352">
        <ele>369.29986572</ele>
        <time>2022-10-30T07:50:17Z</time>
      </trkpt>
      <trkpt lat="41.4374549" lon="2.1267023">
        <ele>369.55987549</ele>
        <time>2022-10-30T07:50:18Z</time>
      </trkpt>
      <trkpt lat="41.437435" lon="2.1266893">
        <ele>369.74987793</ele>
        <time>2022-10-30T07:50:19Z</time>
      </trkpt>
      <trkpt lat="41.437396" lon="2.1266804">
        <ele>370.06988525</ele>
        <time>2022-10-30T07:50:20Z</time>
      </trkpt>
      <trkpt lat="41.43736" lon="2.1266813">
        <ele>370.32989502</ele>
        <time>2022-10-30T07:50:21Z</time>
      </trkpt>
      <trkpt lat="41.4373231" lon="2.1266962">
        <ele>370.4598999</ele>
        <time>2022-10-30T07:50:22Z</time>
      </trkpt>
      <trkpt lat="41.4372821" lon="2.1267232">
        <ele>370.67990112</ele>
        <time>2022-10-30T07:50:23Z</time>
      </trkpt>
      <trkpt lat="41.4372532" lon="2.1267402">
        <ele>370.7598877</ele>
        <time>2022-10-30T07:50:24Z</time>
      </trkpt>
      <trkpt lat="41.4371972" lon="2.1267581">
        <ele>370.7598877</ele>
        <time>2022-10-30T07:50:25Z</time>
      </trkpt>
      <trkpt lat="41.4371563" lon="2.126763">
        <ele>370.72988892</ele>
        <time>2022-10-30T07:50:26Z</time>
      </trkpt>
      <trkpt lat="41.4371093" lon="2.126764">
        <ele>370.63989258</ele>
        <time>2022-10-30T07:50:27Z</time>
      </trkpt>
      <trkpt lat="41.4370683" lon="2.1267531">
        <ele>370.63989258</ele>
        <time>2022-10-30T07:50:28Z</time>
      </trkpt>
      <trkpt lat="41.4370244" lon="2.1267191">
        <ele>370.77990723</ele>
        <time>2022-10-30T07:50:29Z</time>
      </trkpt>
      <trkpt lat="41.4370015" lon="2.1266892">
        <ele>371.01989746</ele>
        <time>2022-10-30T07:50:30Z</time>
      </trkpt>
      <trkpt lat="41.4369706" lon="2.1266752">
        <ele>371.2598877</ele>
        <time>2022-10-30T07:50:31Z</time>
      </trkpt>
      <trkpt lat="41.4369356" lon="2.1266573">
        <ele>371.42990112</ele>
        <time>2022-10-30T07:50:32Z</time>
      </trkpt>
      <trkpt lat="41.4369026" lon="2.1266294">
        <ele>371.49990845</ele>
        <time>2022-10-30T07:50:33Z</time>
      </trkpt>
      <trkpt lat="41.4368447" lon="2.1265864">
        <ele>371.51989746</ele>
        <time>2022-10-30T07:50:34Z</time>
      </trkpt>
      <trkpt lat="41.4368018" lon="2.1265504">
        <ele>371.55990601</ele>
        <time>2022-10-30T07:50:35Z</time>
      </trkpt>
      <trkpt lat="41.4367648" lon="2.1265055">
        <ele>371.61990356</ele>
        <time>2022-10-30T07:50:36Z</time>
      </trkpt>
      <trkpt lat="41.4367339" lon="2.1264535">
        <ele>371.62991333</ele>
        <time>2022-10-30T07:50:37Z</time>
      </trkpt>
      <trkpt lat="41.43666" lon="2.1263746">
        <ele>371.64990234</ele>
        <time>2022-10-30T07:50:38Z</time>
      </trkpt>
      <trkpt lat="41.4366311" lon="2.1263226">
        <ele>371.61990356</ele>
        <time>2022-10-30T07:50:39Z</time>
      </trkpt>
      <trkpt lat="41.4366011" lon="2.1262767">
        <ele>371.59991455</ele>
        <time>2022-10-30T07:50:40Z</time>
      </trkpt>
      <trkpt lat="41.4365692" lon="2.1262067">
        <ele>371.6399231</ele>
        <time>2022-10-30T07:50:41Z</time>
      </trkpt>
      <trkpt lat="41.4365123" lon="2.1261067">
        <ele>371.6399231</ele>
        <time>2022-10-30T07:50:42Z</time>
      </trkpt>
      <trkpt lat="41.4364643" lon="2.1260578">
        <ele>371.66992188</ele>
        <time>2022-10-30T07:50:43Z</time>
      </trkpt>
      <trkpt lat="41.4364164" lon="2.1260058">
        <ele>371.70993042</ele>
        <time>2022-10-30T07:50:44Z</time>
      </trkpt>
      <trkpt lat="41.4363775" lon="2.1259788">
        <ele>371.74993896</ele>
        <time>2022-10-30T07:50:45Z</time>
      </trkpt>
      <trkpt lat="41.4363115" lon="2.1259409">
        <ele>371.82992554</ele>
        <time>2022-10-30T07:50:46Z</time>
      </trkpt>
      <trkpt lat="41.4362656" lon="2.125932">
        <ele>371.87991333</ele>
        <time>2022-10-30T07:50:47Z</time>
      </trkpt>
      <trkpt lat="41.4362196" lon="2.125922">
        <ele>371.94992065</ele>
        <time>2022-10-30T07:50:48Z</time>
      </trkpt>
      <trkpt lat="41.4361687" lon="2.125934">
        <ele>371.9899292</ele>
        <time>2022-10-30T07:50:49Z</time>
      </trkpt>
      <trkpt lat="41.4361168" lon="2.1259539">
        <ele>371.99993896</ele>
        <time>2022-10-30T07:50:50Z</time>
      </trkpt>
      <trkpt lat="41.4360388" lon="2.1260149">
        <ele>372.01992798</ele>
        <time>2022-10-30T07:50:51Z</time>
      </trkpt>
      <trkpt lat="41.4359989" lon="2.1260609">
        <ele>372.03991699</ele>
        <time>2022-10-30T07:50:52Z</time>
      </trkpt>
      <trkpt lat="41.4359639" lon="2.1260998">
        <ele>372.05990601</ele>
        <time>2022-10-30T07:50:53Z</time>
      </trkpt>
      <trkpt lat="41.435928" lon="2.1261407">
        <ele>372.11990356</ele>
        <time>2022-10-30T07:50:54Z</time>
      </trkpt>
      <trkpt lat="41.4358911" lon="2.1261897">
        <ele>372.19989014</ele>
        <time>2022-10-30T07:50:55Z</time>
      </trkpt>
      <trkpt lat="41.4358351" lon="2.1262677">
        <ele>372.33990479</ele>
        <time>2022-10-30T07:50:56Z</time>
      </trkpt>
      <trkpt lat="41.4357921" lon="2.1263126">
        <ele>372.46990967</ele>
        <time>2022-10-30T07:50:57Z</time>
      </trkpt>
      <trkpt lat="41.4357552" lon="2.1263516">
        <ele>372.58990479</ele>
        <time>2022-10-30T07:50:58Z</time>
      </trkpt>
      <trkpt lat="41.4357233" lon="2.1263825">
        <ele>372.78991699</ele>
        <time>2022-10-30T07:50:59Z</time>
      </trkpt>
      <trkpt lat="41.4356694" lon="2.1264315">
        <ele>372.93991089</ele>
        <time>2022-10-30T07:51:00Z</time>
      </trkpt>
      <trkpt lat="41.4356404" lon="2.1264635">
        <ele>373.14990234</ele>
        <time>2022-10-30T07:51:01Z</time>
      </trkpt>
      <trkpt lat="41.4356205" lon="2.1265064">
        <ele>373.42990112</ele>
        <time>2022-10-30T07:51:02Z</time>
      </trkpt>
      <trkpt lat="41.4356065" lon="2.1265494">
        <ele>373.65991211</ele>
        <time>2022-10-30T07:51:03Z</time>
      </trkpt>
      <trkpt lat="41.4356075" lon="2.1266313">
        <ele>373.90991211</ele>
        <time>2022-10-30T07:51:04Z</time>
      </trkpt>
      <trkpt lat="41.4356084" lon="2.1266923">
        <ele>374.15991211</ele>
        <time>2022-10-30T07:51:05Z</time>
      </trkpt>
      <trkpt lat="41.4356084" lon="2.1267582">
        <ele>374.26989746</ele>
        <time>2022-10-30T07:51:06Z</time>
      </trkpt>
      <trkpt lat="41.4355924" lon="2.1268102">
        <ele>374.26989746</ele>
        <time>2022-10-30T07:51:07Z</time>
      </trkpt>
      <trkpt lat="41.4355635" lon="2.1268641">
        <ele>374.26989746</ele>
        <time>2022-10-30T07:51:08Z</time>
      </trkpt>
      <trkpt lat="41.4354986" lon="2.126913">
        <ele>374.26989746</ele>
        <time>2022-10-30T07:51:09Z</time>
      </trkpt>
      <trkpt lat="41.4354536" lon="2.126934">
        <ele>374.46990967</ele>
        <time>2022-10-30T07:51:10Z</time>
      </trkpt>
      <trkpt lat="41.4354116" lon="2.1269519">
        <ele>374.77990723</ele>
        <time>2022-10-30T07:51:11Z</time>
      </trkpt>
      <trkpt lat="41.4353736" lon="2.1269689">
        <ele>375.1098938</ele>
        <time>2022-10-30T07:51:12Z</time>
      </trkpt>
      <trkpt lat="41.4353377" lon="2.1269808">
        <ele>375.3598938</ele>
        <time>2022-10-30T07:51:13Z</time>
      </trkpt>
      <trkpt lat="41.4352737" lon="2.1269997">
        <ele>375.42990112</ele>
        <time>2022-10-30T07:51:14Z</time>
      </trkpt>
      <trkpt lat="41.4352207" lon="2.1269987">
        <ele>375.44989014</ele>
        <time>2022-10-30T07:51:15Z</time>
      </trkpt>
      <trkpt lat="41.4351868" lon="2.1269627">
        <ele>375.29989624</ele>
        <time>2022-10-30T07:51:16Z</time>
      </trkpt>
      <trkpt lat="41.4351648" lon="2.1269158">
        <ele>375.29989624</ele>
        <time>2022-10-30T07:51:17Z</time>
      </trkpt>
      <trkpt lat="41.4351439" lon="2.1268479">
        <ele>375.41989136</ele>
        <time>2022-10-30T07:51:18Z</time>
      </trkpt>
      <trkpt lat="41.4351289" lon="2.126788">
        <ele>375.56988525</ele>
        <time>2022-10-30T07:51:19Z</time>
      </trkpt>
      <trkpt lat="41.435109" lon="2.126723">
        <ele>375.89987183</ele>
        <time>2022-10-30T07:51:20Z</time>
      </trkpt>
      <trkpt lat="41.4350781" lon="2.126662">
        <ele>376.09988403</ele>
        <time>2022-10-30T07:51:21Z</time>
      </trkpt>
      <trkpt lat="41.4350482" lon="2.126636">
        <ele>376.20986938</ele>
        <time>2022-10-30T07:51:22Z</time>
      </trkpt>
      <trkpt lat="41.4349902" lon="2.1266261">
        <ele>376.28985596</ele>
        <time>2022-10-30T07:51:23Z</time>
      </trkpt>
      <trkpt lat="41.4349542" lon="2.126627">
        <ele>376.34985352</ele>
        <time>2022-10-30T07:51:24Z</time>
      </trkpt>
      <trkpt lat="41.4349152" lon="2.12662">
        <ele>376.40985107</ele>
        <time>2022-10-30T07:51:25Z</time>
      </trkpt>
      <trkpt lat="41.4348762" lon="2.1266181">
        <ele>376.45983887</ele>
        <time>2022-10-30T07:51:26Z</time>
      </trkpt>
      <trkpt lat="41.4348033" lon="2.1266051">
        <ele>376.57983398</ele>
        <time>2022-10-30T07:51:27Z</time>
      </trkpt>
      <trkpt lat="41.4347553" lon="2.1265902">
        <ele>376.61984253</ele>
        <time>2022-10-30T07:51:28Z</time>
      </trkpt>
      <trkpt lat="41.4347124" lon="2.1265692">
        <ele>376.61984253</ele>
        <time>2022-10-30T07:51:29Z</time>
      </trkpt>
      <trkpt lat="41.4346825" lon="2.1265423">
        <ele>376.61984253</ele>
        <time>2022-10-30T07:51:30Z</time>
      </trkpt>
      <trkpt lat="41.4346705" lon="2.1265114">
        <ele>376.66983032</ele>
        <time>2022-10-30T07:51:31Z</time>
      </trkpt>
      <trkpt lat="41.4346636" lon="2.1264634">
        <ele>376.87982178</ele>
        <time>2022-10-30T07:51:32Z</time>
      </trkpt>
      <trkpt lat="41.4346526" lon="2.1264165">
        <ele>377.04983521</ele>
        <time>2022-10-30T07:51:33Z</time>
      </trkpt>
      <trkpt lat="41.4346407" lon="2.1263335">
        <ele>377.28982544</ele>
        <time>2022-10-30T07:51:34Z</time>
      </trkpt>
      <trkpt lat="41.4346247" lon="2.1262395">
        <ele>377.4498291</ele>
        <time>2022-10-30T07:51:35Z</time>
      </trkpt>
      <trkpt lat="41.4346346" lon="2.1261116">
        <ele>377.42984009</ele>
        <time>2022-10-30T07:51:36Z</time>
      </trkpt>
      <trkpt lat="41.4346526" lon="2.1260346">
        <ele>377.52984619</ele>
        <time>2022-10-30T07:51:37Z</time>
      </trkpt>
      <trkpt lat="41.4346795" lon="2.1259696">
        <ele>377.53985596</ele>
        <time>2022-10-30T07:51:38Z</time>
      </trkpt>
      <trkpt lat="41.4347025" lon="2.1258866">
        <ele>377.58984375</ele>
        <time>2022-10-30T07:51:39Z</time>
      </trkpt>
      <trkpt lat="41.4347084" lon="2.1257927">
        <ele>377.77984619</ele>
        <time>2022-10-30T07:51:40Z</time>
      </trkpt>
      <trkpt lat="41.4347093" lon="2.1256707">
        <ele>377.92984009</ele>
        <time>2022-10-30T07:51:41Z</time>
      </trkpt>
      <trkpt lat="41.4346854" lon="2.1256178">
        <ele>378.10983276</ele>
        <time>2022-10-30T07:51:42Z</time>
      </trkpt>
      <trkpt lat="41.4346604" lon="2.1255559">
        <ele>378.24984741</ele>
        <time>2022-10-30T07:51:43Z</time>
      </trkpt>
      <trkpt lat="41.4346284" lon="2.1255089">
        <ele>378.33984375</ele>
        <time>2022-10-30T07:51:44Z</time>
      </trkpt>
      <trkpt lat="41.4345935" lon="2.125397">
        <ele>378.52984619</ele>
        <time>2022-10-30T07:51:45Z</time>
      </trkpt>
      <trkpt lat="41.4345655" lon="2.125349">
        <ele>378.71984863</ele>
        <time>2022-10-30T07:51:46Z</time>
      </trkpt>
      <trkpt lat="41.4345385" lon="2.1252991">
        <ele>378.89984131</ele>
        <time>2022-10-30T07:51:47Z</time>
      </trkpt>
      <trkpt lat="41.4345076" lon="2.1252381">
        <ele>379.14984131</ele>
        <time>2022-10-30T07:51:48Z</time>
      </trkpt>
      <trkpt lat="41.4344677" lon="2.1251711">
        <ele>379.30984497</ele>
        <time>2022-10-30T07:51:49Z</time>
      </trkpt>
      <trkpt lat="41.4344048" lon="2.1250832">
        <ele>379.53985596</ele>
        <time>2022-10-30T07:51:50Z</time>
      </trkpt>
      <trkpt lat="41.4343649" lon="2.1250312">
        <ele>379.77984619</ele>
        <time>2022-10-30T07:51:51Z</time>
      </trkpt>
      <trkpt lat="41.4343199" lon="2.1249862">
        <ele>379.96984863</ele>
        <time>2022-10-30T07:51:52Z</time>
      </trkpt>
      <trkpt lat="41.4342779" lon="2.1249382">
        <ele>380.17984009</ele>
        <time>2022-10-30T07:51:53Z</time>
      </trkpt>
      <trkpt lat="41.4342379" lon="2.1248872">
        <ele>380.31985474</ele>
        <time>2022-10-30T07:51:54Z</time>
      </trkpt>
      <trkpt lat="41.434182" lon="2.1248093">
        <ele>380.45986938</ele>
        <time>2022-10-30T07:51:55Z</time>
      </trkpt>
      <trkpt lat="41.434145" lon="2.1247483">
        <ele>380.62988281</ele>
        <time>2022-10-30T07:51:56Z</time>
      </trkpt>
      <trkpt lat="41.4341141" lon="2.1246854">
        <ele>380.83987427</ele>
        <time>2022-10-30T07:51:57Z</time>
      </trkpt>
      <trkpt lat="41.4340742" lon="2.1246255">
        <ele>381.08987427</ele>
        <time>2022-10-30T07:51:58Z</time>
      </trkpt>
      <trkpt lat="41.4340242" lon="2.1245466">
        <ele>381.38986206</ele>
        <time>2022-10-30T07:51:59Z</time>
      </trkpt>
      <trkpt lat="41.4340043" lon="2.1245066">
        <ele>381.71984863</ele>
        <time>2022-10-30T07:52:00Z</time>
      </trkpt>
      <trkpt lat="41.4339714" lon="2.1244667">
        <ele>381.98983765</ele>
        <time>2022-10-30T07:52:01Z</time>
      </trkpt>
      <trkpt lat="41.4339354" lon="2.1244277">
        <ele>382.32983398</ele>
        <time>2022-10-30T07:52:02Z</time>
      </trkpt>
      <trkpt lat="41.4338834" lon="2.1243757">
        <ele>382.67984009</ele>
        <time>2022-10-30T07:52:03Z</time>
      </trkpt>
      <trkpt lat="41.4338425" lon="2.1243458">
        <ele>382.96984863</ele>
        <time>2022-10-30T07:52:04Z</time>
      </trkpt>
      <trkpt lat="41.4337946" lon="2.1243248">
        <ele>383.28985596</ele>
        <time>2022-10-30T07:52:05Z</time>
      </trkpt>
      <trkpt lat="41.4337506" lon="2.1243179">
        <ele>383.54986572</ele>
        <time>2022-10-30T07:52:06Z</time>
      </trkpt>
      <trkpt lat="41.4336817" lon="2.1243388">
        <ele>383.78985596</ele>
        <time>2022-10-30T07:52:07Z</time>
      </trkpt>
      <trkpt lat="41.4336307" lon="2.1243748">
        <ele>384.03985596</ele>
        <time>2022-10-30T07:52:08Z</time>
      </trkpt>
      <trkpt lat="41.4335978" lon="2.1244307">
        <ele>384.31985474</ele>
        <time>2022-10-30T07:52:09Z</time>
      </trkpt>
      <trkpt lat="41.4335798" lon="2.1244817">
        <ele>384.53985596</ele>
        <time>2022-10-30T07:52:10Z</time>
      </trkpt>
      <trkpt lat="41.4335619" lon="2.1245267">
        <ele>384.68984985</ele>
        <time>2022-10-30T07:52:11Z</time>
      </trkpt>
      <trkpt lat="41.433542" lon="2.1245726">
        <ele>384.81985474</ele>
        <time>2022-10-30T07:52:12Z</time>
      </trkpt>
      <trkpt lat="41.433513" lon="2.1246256">
        <ele>384.88986206</ele>
        <time>2022-10-30T07:52:13Z</time>
      </trkpt>
      <trkpt lat="41.4334911" lon="2.1246595">
        <ele>384.96984863</ele>
        <time>2022-10-30T07:52:14Z</time>
      </trkpt>
      <trkpt lat="41.4334671" lon="2.1246974">
        <ele>385.11984253</ele>
        <time>2022-10-30T07:52:15Z</time>
      </trkpt>
      <trkpt lat="41.4334432" lon="2.1247383">
        <ele>385.24984741</ele>
        <time>2022-10-30T07:52:16Z</time>
      </trkpt>
      <trkpt lat="41.4334112" lon="2.1248183">
        <ele>385.39984131</ele>
        <time>2022-10-30T07:52:17Z</time>
      </trkpt>
      <trkpt lat="41.4333862" lon="2.1248592">
        <ele>385.59985352</ele>
        <time>2022-10-30T07:52:18Z</time>
      </trkpt>
      <trkpt lat="41.4333582" lon="2.1249061">
        <ele>385.68984985</ele>
        <time>2022-10-30T07:52:19Z</time>
      </trkpt>
      <trkpt lat="41.4333333" lon="2.1249571">
        <ele>385.77984619</ele>
        <time>2022-10-30T07:52:20Z</time>
      </trkpt>
      <trkpt lat="41.4332973" lon="2.1250411">
        <ele>385.83984375</ele>
        <time>2022-10-30T07:52:21Z</time>
      </trkpt>
      <trkpt lat="41.4332793" lon="2.1250891">
        <ele>385.95983887</ele>
        <time>2022-10-30T07:52:22Z</time>
      </trkpt>
      <trkpt lat="41.4332604" lon="2.1251371">
        <ele>386.14984131</ele>
        <time>2022-10-30T07:52:23Z</time>
      </trkpt>
      <trkpt lat="41.4332444" lon="2.12519">
        <ele>386.35983276</ele>
        <time>2022-10-30T07:52:24Z</time>
      </trkpt>
      <trkpt lat="41.4332245" lon="2.1252309">
        <ele>386.56982422</ele>
        <time>2022-10-30T07:52:25Z</time>
      </trkpt>
      <trkpt lat="41.4331975" lon="2.1253139">
        <ele>386.73983765</ele>
        <time>2022-10-30T07:52:26Z</time>
      </trkpt>
      <trkpt lat="41.4331785" lon="2.1253728">
        <ele>386.90985107</ele>
        <time>2022-10-30T07:52:27Z</time>
      </trkpt>
      <trkpt lat="41.4331606" lon="2.1254327">
        <ele>387.11984253</ele>
        <time>2022-10-30T07:52:28Z</time>
      </trkpt>
      <trkpt lat="41.4331407" lon="2.1254967">
        <ele>387.30984497</ele>
        <time>2022-10-30T07:52:29Z</time>
      </trkpt>
      <trkpt lat="41.4331118" lon="2.1255916">
        <ele>387.49984741</ele>
        <time>2022-10-30T07:52:30Z</time>
      </trkpt>
      <trkpt lat="41.4330838" lon="2.1256455">
        <ele>387.74984741</ele>
        <time>2022-10-30T07:52:31Z</time>
      </trkpt>
      <trkpt lat="41.4330639" lon="2.1257214">
        <ele>387.99984741</ele>
        <time>2022-10-30T07:52:32Z</time>
      </trkpt>
      <trkpt lat="41.4330339" lon="2.1257924">
        <ele>388.37985229</ele>
        <time>2022-10-30T07:52:33Z</time>
      </trkpt>
      <trkpt lat="41.4330009" lon="2.1258553">
        <ele>388.75985718</ele>
        <time>2022-10-30T07:52:34Z</time>
      </trkpt>
      <trkpt lat="41.432943" lon="2.1259383">
        <ele>389.10986328</ele>
        <time>2022-10-30T07:52:35Z</time>
      </trkpt>
      <trkpt lat="41.4328951" lon="2.1259863">
        <ele>389.44985962</ele>
        <time>2022-10-30T07:52:36Z</time>
      </trkpt>
      <trkpt lat="41.4328431" lon="2.1260193">
        <ele>389.73986816</ele>
        <time>2022-10-30T07:52:37Z</time>
      </trkpt>
      <trkpt lat="41.4327722" lon="2.1260292">
        <ele>389.9798584</ele>
        <time>2022-10-30T07:52:38Z</time>
      </trkpt>
      <trkpt lat="41.4326832" lon="2.1260372">
        <ele>390.25985718</ele>
        <time>2022-10-30T07:52:39Z</time>
      </trkpt>
      <trkpt lat="41.4326513" lon="2.1259933">
        <ele>390.54986572</ele>
        <time>2022-10-30T07:52:40Z</time>
      </trkpt>
      <trkpt lat="41.4326193" lon="2.1259684">
        <ele>390.74987793</ele>
        <time>2022-10-30T07:52:41Z</time>
      </trkpt>
      <trkpt lat="41.4325854" lon="2.1259444">
        <ele>391.05987549</ele>
        <time>2022-10-30T07:52:42Z</time>
      </trkpt>
      <trkpt lat="41.4325495" lon="2.1259115">
        <ele>391.33987427</ele>
        <time>2022-10-30T07:52:43Z</time>
      </trkpt>
      <trkpt lat="41.4325125" lon="2.1258785">
        <ele>391.51986694</ele>
        <time>2022-10-30T07:52:44Z</time>
      </trkpt>
      <trkpt lat="41.4324746" lon="2.1258485">
        <ele>391.70986938</ele>
        <time>2022-10-30T07:52:45Z</time>
      </trkpt>
      <trkpt lat="41.4324427" lon="2.1258096">
        <ele>391.83987427</ele>
        <time>2022-10-30T07:52:46Z</time>
      </trkpt>
      <trkpt lat="41.4324047" lon="2.1257956">
        <ele>392.01986694</ele>
        <time>2022-10-30T07:52:47Z</time>
      </trkpt>
      <trkpt lat="41.4323597" lon="2.1257916">
        <ele>392.28985596</ele>
        <time>2022-10-30T07:52:48Z</time>
      </trkpt>
      <trkpt lat="41.4322778" lon="2.1258036">
        <ele>392.59985352</ele>
        <time>2022-10-30T07:52:49Z</time>
      </trkpt>
      <trkpt lat="41.4322198" lon="2.1258355">
        <ele>392.85986328</ele>
        <time>2022-10-30T07:52:50Z</time>
      </trkpt>
      <trkpt lat="41.4321608" lon="2.1258695">
        <ele>393.08987427</ele>
        <time>2022-10-30T07:52:51Z</time>
      </trkpt>
      <trkpt lat="41.4321188" lon="2.1259154">
        <ele>393.28988647</ele>
        <time>2022-10-30T07:52:52Z</time>
      </trkpt>
      <trkpt lat="41.4320639" lon="2.1259844">
        <ele>393.53988647</ele>
        <time>2022-10-30T07:52:53Z</time>
      </trkpt>
      <trkpt lat="41.4320169" lon="2.1260213">
        <ele>393.76989746</ele>
        <time>2022-10-30T07:52:54Z</time>
      </trkpt>
      <trkpt lat="41.4319669" lon="2.1260582">
        <ele>393.96990967</ele>
        <time>2022-10-30T07:52:55Z</time>
      </trkpt>
      <trkpt lat="41.431917" lon="2.1260952">
        <ele>394.2098999</ele>
        <time>2022-10-30T07:52:56Z</time>
      </trkpt>
      <trkpt lat="41.431858" lon="2.1261541">
        <ele>394.38989258</ele>
        <time>2022-10-30T07:52:57Z</time>
      </trkpt>
      <trkpt lat="41.431817" lon="2.1261841">
        <ele>394.62988281</ele>
        <time>2022-10-30T07:52:58Z</time>
      </trkpt>
      <trkpt lat="41.43177" lon="2.126198">
        <ele>394.83987427</ele>
        <time>2022-10-30T07:52:59Z</time>
      </trkpt>
      <trkpt lat="41.4317291" lon="2.1261961">
        <ele>394.88986206</ele>
        <time>2022-10-30T07:53:00Z</time>
      </trkpt>
      <trkpt lat="41.4316871" lon="2.1261891">
        <ele>394.91986084</ele>
        <time>2022-10-30T07:53:01Z</time>
      </trkpt>
      <trkpt lat="41.4316392" lon="2.1261571">
        <ele>394.94985962</ele>
        <time>2022-10-30T07:53:02Z</time>
      </trkpt>
      <trkpt lat="41.4316103" lon="2.1261341">
        <ele>395.05984497</ele>
        <time>2022-10-30T07:53:03Z</time>
      </trkpt>
      <trkpt lat="41.4315963" lon="2.1260902">
        <ele>395.27984619</ele>
        <time>2022-10-30T07:53:04Z</time>
      </trkpt>
      <trkpt lat="41.4315723" lon="2.1260603">
        <ele>395.40985107</ele>
        <time>2022-10-30T07:53:05Z</time>
      </trkpt>
      <trkpt lat="41.4315294" lon="2.1260253">
        <ele>395.45983887</ele>
        <time>2022-10-30T07:53:06Z</time>
      </trkpt>
      <trkpt lat="41.4314615" lon="2.1259803">
        <ele>395.39984131</ele>
        <time>2022-10-30T07:53:07Z</time>
      </trkpt>
      <trkpt lat="41.4314225" lon="2.1259563">
        <ele>395.31985474</ele>
        <time>2022-10-30T07:53:08Z</time>
      </trkpt>
      <trkpt lat="41.4313785" lon="2.1259354">
        <ele>395.27984619</ele>
        <time>2022-10-30T07:53:09Z</time>
      </trkpt>
      <trkpt lat="41.4313416" lon="2.1259275">
        <ele>395.37985229</ele>
        <time>2022-10-30T07:53:10Z</time>
      </trkpt>
      <trkpt lat="41.4312826" lon="2.1259095">
        <ele>395.56985474</ele>
        <time>2022-10-30T07:53:11Z</time>
      </trkpt>
      <trkpt lat="41.4312447" lon="2.1259124">
        <ele>395.99984741</ele>
        <time>2022-10-30T07:53:12Z</time>
      </trkpt>
      <trkpt lat="41.4312197" lon="2.1259174">
        <ele>396.63986206</ele>
        <time>2022-10-30T07:53:13Z</time>
      </trkpt>
      <trkpt lat="41.4311907" lon="2.1259193">
        <ele>397.19985962</ele>
        <time>2022-10-30T07:53:14Z</time>
      </trkpt>
      <trkpt lat="41.4311498" lon="2.1259033">
        <ele>397.70986938</ele>
        <time>2022-10-30T07:53:15Z</time>
      </trkpt>
      <trkpt lat="41.4311228" lon="2.1258844">
        <ele>398.11987305</ele>
        <time>2022-10-30T07:53:16Z</time>
      </trkpt>
      <trkpt lat="41.4310909" lon="2.1258625">
        <ele>398.34988403</ele>
        <time>2022-10-30T07:53:17Z</time>
      </trkpt>
      <trkpt lat="41.431068" lon="2.1258416">
        <ele>398.61987305</ele>
        <time>2022-10-30T07:53:18Z</time>
      </trkpt>
      <trkpt lat="41.431059" lon="2.1258146">
        <ele>398.88986206</ele>
        <time>2022-10-30T07:53:19Z</time>
      </trkpt>
      <trkpt lat="41.4310261" lon="2.1257756">
        <ele>399.10986328</ele>
        <time>2022-10-30T07:53:20Z</time>
      </trkpt>
      <trkpt lat="41.4310001" lon="2.1257507">
        <ele>399.33987427</ele>
        <time>2022-10-30T07:53:21Z</time>
      </trkpt>
      <trkpt lat="41.4309712" lon="2.1257258">
        <ele>399.51986694</ele>
        <time>2022-10-30T07:53:22Z</time>
      </trkpt>
      <trkpt lat="41.4309453" lon="2.1256968">
        <ele>399.74987793</ele>
        <time>2022-10-30T07:53:23Z</time>
      </trkpt>
      <trkpt lat="41.4309203" lon="2.1256589">
        <ele>399.92987061</ele>
        <time>2022-10-30T07:53:24Z</time>
      </trkpt>
      <trkpt lat="41.4308843" lon="2.125615">
        <ele>400.15988159</ele>
        <time>2022-10-30T07:53:25Z</time>
      </trkpt>
      <trkpt lat="41.4308634" lon="2.125579">
        <ele>400.39987183</ele>
        <time>2022-10-30T07:53:26Z</time>
      </trkpt>
      <trkpt lat="41.4308394" lon="2.1255451">
        <ele>400.65988159</ele>
        <time>2022-10-30T07:53:27Z</time>
      </trkpt>
      <trkpt lat="41.4308185" lon="2.1255091">
        <ele>400.93988037</ele>
        <time>2022-10-30T07:53:28Z</time>
      </trkpt>
      <trkpt lat="41.4307795" lon="2.1254632">
        <ele>401.22988892</ele>
        <time>2022-10-30T07:53:29Z</time>
      </trkpt>
      <trkpt lat="41.4307486" lon="2.1254242">
        <ele>401.49987793</ele>
        <time>2022-10-30T07:53:30Z</time>
      </trkpt>
      <trkpt lat="41.4307246" lon="2.1253873">
        <ele>401.74987793</ele>
        <time>2022-10-30T07:53:31Z</time>
      </trkpt>
      <trkpt lat="41.4307017" lon="2.1253573">
        <ele>402.0098877</ele>
        <time>2022-10-30T07:53:32Z</time>
      </trkpt>
      <trkpt lat="41.4306718" lon="2.1252954">
        <ele>402.2598877</ele>
        <time>2022-10-30T07:53:33Z</time>
      </trkpt>
      <trkpt lat="41.4306318" lon="2.1252554">
        <ele>402.53988647</ele>
        <time>2022-10-30T07:53:34Z</time>
      </trkpt>
      <trkpt lat="41.4305939" lon="2.1252225">
        <ele>402.72988892</ele>
        <time>2022-10-30T07:53:35Z</time>
      </trkpt>
      <trkpt lat="41.4305579" lon="2.1251855">
        <ele>402.93988037</ele>
        <time>2022-10-30T07:53:36Z</time>
      </trkpt>
      <trkpt lat="41.4305159" lon="2.1251546">
        <ele>403.22988892</ele>
        <time>2022-10-30T07:53:37Z</time>
      </trkpt>
      <trkpt lat="41.43045" lon="2.1251017">
        <ele>403.49987793</ele>
        <time>2022-10-30T07:53:38Z</time>
      </trkpt>
      <trkpt lat="41.4304161" lon="2.1250727">
        <ele>403.84988403</ele>
        <time>2022-10-30T07:53:39Z</time>
      </trkpt>
      <trkpt lat="41.4303871" lon="2.1250437">
        <ele>404.13989258</ele>
        <time>2022-10-30T07:53:40Z</time>
      </trkpt>
      <trkpt lat="41.4303572" lon="2.1250147">
        <ele>404.3598938</ele>
        <time>2022-10-30T07:53:41Z</time>
      </trkpt>
      <trkpt lat="41.4303063" lon="2.1249718">
        <ele>404.61990356</ele>
        <time>2022-10-30T07:53:42Z</time>
      </trkpt>
      <trkpt lat="41.4302703" lon="2.1249488">
        <ele>404.89990234</ele>
        <time>2022-10-30T07:53:43Z</time>
      </trkpt>
      <trkpt lat="41.4302293" lon="2.1249258">
        <ele>405.21990967</ele>
        <time>2022-10-30T07:53:44Z</time>
      </trkpt>
      <trkpt lat="41.4302004" lon="2.1248998">
        <ele>405.52990723</ele>
        <time>2022-10-30T07:53:45Z</time>
      </trkpt>
      <trkpt lat="41.4301695" lon="2.1248739">
        <ele>405.79989624</ele>
        <time>2022-10-30T07:53:46Z</time>
      </trkpt>
      <trkpt lat="41.4301285" lon="2.1248289">
        <ele>406.03988647</ele>
        <time>2022-10-30T07:53:47Z</time>
      </trkpt>
      <trkpt lat="41.4301065" lon="2.1247989">
        <ele>406.28988647</ele>
        <time>2022-10-30T07:53:48Z</time>
      </trkpt>
      <trkpt lat="41.4300826" lon="2.1247669">
        <ele>406.56988525</ele>
        <time>2022-10-30T07:53:49Z</time>
      </trkpt>
      <trkpt lat="41.4300546" lon="2.124734">
        <ele>406.81988525</ele>
        <time>2022-10-30T07:53:50Z</time>
      </trkpt>
      <trkpt lat="41.4300326" lon="2.1246961">
        <ele>407.05987549</ele>
        <time>2022-10-30T07:53:51Z</time>
      </trkpt>
      <trkpt lat="41.4299936" lon="2.1246521">
        <ele>407.27987671</ele>
        <time>2022-10-30T07:53:52Z</time>
      </trkpt>
      <trkpt lat="41.4299667" lon="2.1246382">
        <ele>407.44989014</ele>
        <time>2022-10-30T07:53:53Z</time>
      </trkpt>
      <trkpt lat="41.4299358" lon="2.1246163">
        <ele>407.66989136</ele>
        <time>2022-10-30T07:53:54Z</time>
      </trkpt>
      <trkpt lat="41.4299088" lon="2.1245813">
        <ele>407.87988281</ele>
        <time>2022-10-30T07:53:55Z</time>
      </trkpt>
      <trkpt lat="41.4298668" lon="2.1245404">
        <ele>408.1098938</ele>
        <time>2022-10-30T07:53:56Z</time>
      </trkpt>
      <trkpt lat="41.4298469" lon="2.1245094">
        <ele>408.3598938</ele>
        <time>2022-10-30T07:53:57Z</time>
      </trkpt>
      <trkpt lat="41.429816" lon="2.1244935">
        <ele>408.63989258</ele>
        <time>2022-10-30T07:53:58Z</time>
      </trkpt>
      <trkpt lat="41.429783" lon="2.1244746">
        <ele>408.96987915</ele>
        <time>2022-10-30T07:53:59Z</time>
      </trkpt>
      <trkpt lat="41.4297351" lon="2.1244356">
        <ele>409.27987671</ele>
        <time>2022-10-30T07:54:00Z</time>
      </trkpt>
      <trkpt lat="41.4296972" lon="2.1244146">
        <ele>409.59988403</ele>
        <time>2022-10-30T07:54:01Z</time>
      </trkpt>
      <trkpt lat="41.4296573" lon="2.1243927">
        <ele>409.83987427</ele>
        <time>2022-10-30T07:54:02Z</time>
      </trkpt>
      <trkpt lat="41.4296163" lon="2.1243758">
        <ele>409.99987793</ele>
        <time>2022-10-30T07:54:03Z</time>
      </trkpt>
      <trkpt lat="41.4295814" lon="2.1243528">
        <ele>410.19989014</ele>
        <time>2022-10-30T07:54:04Z</time>
      </trkpt>
      <trkpt lat="41.4295344" lon="2.1243208">
        <ele>410.42990112</ele>
        <time>2022-10-30T07:54:05Z</time>
      </trkpt>
      <trkpt lat="41.4295035" lon="2.1242969">
        <ele>410.74990845</ele>
        <time>2022-10-30T07:54:06Z</time>
      </trkpt>
      <trkpt lat="41.4294735" lon="2.1242729">
        <ele>411.12991333</ele>
        <time>2022-10-30T07:54:07Z</time>
      </trkpt>
      <trkpt lat="41.4294485" lon="2.124239">
        <ele>411.44992065</ele>
        <time>2022-10-30T07:54:08Z</time>
      </trkpt>
      <trkpt lat="41.4294375" lon="2.1241891">
        <ele>411.71990967</ele>
        <time>2022-10-30T07:54:09Z</time>
      </trkpt>
      <trkpt lat="41.4294196" lon="2.1241091">
        <ele>411.93991089</ele>
        <time>2022-10-30T07:54:10Z</time>
      </trkpt>
      <trkpt lat="41.4293997" lon="2.1240691">
        <ele>412.16992188</ele>
        <time>2022-10-30T07:54:11Z</time>
      </trkpt>
      <trkpt lat="41.4293798" lon="2.1240362">
        <ele>412.40991211</ele>
        <time>2022-10-30T07:54:12Z</time>
      </trkpt>
      <trkpt lat="41.4293358" lon="2.1240082">
        <ele>412.68991089</ele>
        <time>2022-10-30T07:54:13Z</time>
      </trkpt>
      <trkpt lat="41.4293039" lon="2.1239913">
        <ele>412.92990112</ele>
        <time>2022-10-30T07:54:14Z</time>
      </trkpt>
      <trkpt lat="41.4292769" lon="2.1239613">
        <ele>413.09991455</ele>
        <time>2022-10-30T07:54:15Z</time>
      </trkpt>
      <trkpt lat="41.429246" lon="2.1239274">
        <ele>413.34991455</ele>
        <time>2022-10-30T07:54:16Z</time>
      </trkpt>
      <trkpt lat="41.4292111" lon="2.1238914">
        <ele>413.59991455</ele>
        <time>2022-10-30T07:54:17Z</time>
      </trkpt>
      <trkpt lat="41.4291821" lon="2.1238564">
        <ele>413.8899231</ele>
        <time>2022-10-30T07:54:18Z</time>
      </trkpt>
      <trkpt lat="41.4291342" lon="2.1238114">
        <ele>414.25991821</ele>
        <time>2022-10-30T07:54:19Z</time>
      </trkpt>
      <trkpt lat="41.4290993" lon="2.1237915">
        <ele>414.54992676</ele>
        <time>2022-10-30T07:54:20Z</time>
      </trkpt>
      <trkpt lat="41.4290693" lon="2.1237655">
        <ele>414.81991577</ele>
        <time>2022-10-30T07:54:21Z</time>
      </trkpt>
      <trkpt lat="41.4290333" lon="2.1237385">
        <ele>415.08990479</ele>
        <time>2022-10-30T07:54:22Z</time>
      </trkpt>
      <trkpt lat="41.4289804" lon="2.1236966">
        <ele>415.33990479</ele>
        <time>2022-10-30T07:54:23Z</time>
      </trkpt>
      <trkpt lat="41.4289495" lon="2.1236717">
        <ele>415.62991333</ele>
        <time>2022-10-30T07:54:24Z</time>
      </trkpt>
      <trkpt lat="41.4289205" lon="2.1236437">
        <ele>415.90991211</ele>
        <time>2022-10-30T07:54:25Z</time>
      </trkpt>
      <trkpt lat="41.4288906" lon="2.1236158">
        <ele>416.17990112</ele>
        <time>2022-10-30T07:54:26Z</time>
      </trkpt>
      <trkpt lat="41.4288456" lon="2.1235759">
        <ele>416.46990967</ele>
        <time>2022-10-30T07:54:27Z</time>
      </trkpt>
      <trkpt lat="41.4288156" lon="2.1235529">
        <ele>416.69992065</ele>
        <time>2022-10-30T07:54:28Z</time>
      </trkpt>
      <trkpt lat="41.4287897" lon="2.123528">
        <ele>416.92993164</ele>
        <time>2022-10-30T07:54:29Z</time>
      </trkpt>
      <trkpt lat="41.4287627" lon="2.123507">
        <ele>417.18994141</ele>
        <time>2022-10-30T07:54:30Z</time>
      </trkpt>
      <trkpt lat="41.4287338" lon="2.1234801">
        <ele>417.44995117</ele>
        <time>2022-10-30T07:54:31Z</time>
      </trkpt>
      <trkpt lat="41.4286799" lon="2.1234481">
        <ele>417.72994995</ele>
        <time>2022-10-30T07:54:32Z</time>
      </trkpt>
      <trkpt lat="41.428649" lon="2.1234272">
        <ele>418.04995728</ele>
        <time>2022-10-30T07:54:33Z</time>
      </trkpt>
      <trkpt lat="41.428611" lon="2.1234213">
        <ele>418.39996338</ele>
        <time>2022-10-30T07:54:34Z</time>
      </trkpt>
      <trkpt lat="41.4285821" lon="2.1234184">
        <ele>418.7699585</ele>
        <time>2022-10-30T07:54:35Z</time>
      </trkpt>
      <trkpt lat="41.4285431" lon="2.1234124">
        <ele>419.15997314</ele>
        <time>2022-10-30T07:54:36Z</time>
      </trkpt>
      <trkpt lat="41.4285082" lon="2.1234105">
        <ele>419.47998047</ele>
        <time>2022-10-30T07:54:37Z</time>
      </trkpt>
      <trkpt lat="41.4284622" lon="2.1234124">
        <ele>419.79998779</ele>
        <time>2022-10-30T07:54:38Z</time>
      </trkpt>
      <trkpt lat="41.4284213" lon="2.1234095">
        <ele>420.10998535</ele>
        <time>2022-10-30T07:54:39Z</time>
      </trkpt>
      <trkpt lat="41.4283883" lon="2.1233986">
        <ele>420.40997314</ele>
        <time>2022-10-30T07:54:40Z</time>
      </trkpt>
      <trkpt lat="41.428373" lon="2.123393">
        <ele>421.82998657</ele>
        <time>2022-10-30T07:54:40Z</time>
      </trkpt>
      <trkpt lat="41.4283411" lon="2.123382">
        <ele>422.18997192</ele>
        <time>2022-10-30T07:54:41Z</time>
      </trkpt>
      <trkpt lat="41.4283001" lon="2.1233731">
        <ele>422.45996094</ele>
        <time>2022-10-30T07:54:42Z</time>
      </trkpt>
      <trkpt lat="41.4282712" lon="2.1233642">
        <ele>422.69995117</ele>
        <time>2022-10-30T07:54:43Z</time>
      </trkpt>
      <trkpt lat="41.4282432" lon="2.1233532">
        <ele>422.93994141</ele>
        <time>2022-10-30T07:54:44Z</time>
      </trkpt>
      <trkpt lat="41.4282082" lon="2.1233493">
        <ele>423.16995239</ele>
        <time>2022-10-30T07:54:45Z</time>
      </trkpt>
      <trkpt lat="41.4281583" lon="2.1233393">
        <ele>423.43994141</ele>
        <time>2022-10-30T07:54:46Z</time>
      </trkpt>
      <trkpt lat="41.4281263" lon="2.1233343">
        <ele>423.68994141</ele>
        <time>2022-10-30T07:54:47Z</time>
      </trkpt>
      <trkpt lat="41.4280944" lon="2.1233294">
        <ele>423.95993042</ele>
        <time>2022-10-30T07:54:48Z</time>
      </trkpt>
      <trkpt lat="41.4280644" lon="2.1233265">
        <ele>424.26992798</ele>
        <time>2022-10-30T07:54:49Z</time>
      </trkpt>
      <trkpt lat="41.4280284" lon="2.1233165">
        <ele>424.62991333</ele>
        <time>2022-10-30T07:54:50Z</time>
      </trkpt>
      <trkpt lat="41.4279975" lon="2.1233106">
        <ele>424.98989868</ele>
        <time>2022-10-30T07:54:51Z</time>
      </trkpt>
      <trkpt lat="41.4279725" lon="2.1233036">
        <ele>425.33990479</ele>
        <time>2022-10-30T07:54:52Z</time>
      </trkpt>
      <trkpt lat="41.4279396" lon="2.1233026">
        <ele>425.59991455</ele>
        <time>2022-10-30T07:54:53Z</time>
      </trkpt>
      <trkpt lat="41.4279126" lon="2.1232957">
        <ele>425.78991699</ele>
        <time>2022-10-30T07:54:54Z</time>
      </trkpt>
      <trkpt lat="41.4278626" lon="2.1232917">
        <ele>426.03991699</ele>
        <time>2022-10-30T07:54:55Z</time>
      </trkpt>
      <trkpt lat="41.4278297" lon="2.1232907">
        <ele>426.28991699</ele>
        <time>2022-10-30T07:54:56Z</time>
      </trkpt>
      <trkpt lat="41.4277927" lon="2.1232977">
        <ele>426.61990356</ele>
        <time>2022-10-30T07:54:57Z</time>
      </trkpt>
      <trkpt lat="41.4277568" lon="2.1233017">
        <ele>426.92990112</ele>
        <time>2022-10-30T07:54:58Z</time>
      </trkpt>
      <trkpt lat="41.4277128" lon="2.1232958">
        <ele>427.21990967</ele>
        <time>2022-10-30T07:54:59Z</time>
      </trkpt>
      <trkpt lat="41.4276809" lon="2.1232948">
        <ele>427.51989746</ele>
        <time>2022-10-30T07:55:00Z</time>
      </trkpt>
      <trkpt lat="41.4276479" lon="2.1232948">
        <ele>427.72988892</ele>
        <time>2022-10-30T07:55:01Z</time>
      </trkpt>
      <trkpt lat="41.427616" lon="2.1232948">
        <ele>428.0098877</ele>
        <time>2022-10-30T07:55:02Z</time>
      </trkpt>
      <trkpt lat="41.4275821" lon="2.1232948">
        <ele>428.26989746</ele>
        <time>2022-10-30T07:55:03Z</time>
      </trkpt>
      <trkpt lat="41.4275321" lon="2.1232868">
        <ele>428.49990845</ele>
        <time>2022-10-30T07:55:04Z</time>
      </trkpt>
      <trkpt lat="41.4275021" lon="2.1232819">
        <ele>428.76989746</ele>
        <time>2022-10-30T07:55:05Z</time>
      </trkpt>
      <trkpt lat="41.4274741" lon="2.123273">
        <ele>429.03988647</ele>
        <time>2022-10-30T07:55:06Z</time>
      </trkpt>
      <trkpt lat="41.4274441" lon="2.123268">
        <ele>429.33987427</ele>
        <time>2022-10-30T07:55:07Z</time>
      </trkpt>
      <trkpt lat="41.4273932" lon="2.12327">
        <ele>429.64987183</ele>
        <time>2022-10-30T07:55:08Z</time>
      </trkpt>
      <trkpt lat="41.4273573" lon="2.1232719">
        <ele>429.95986938</ele>
        <time>2022-10-30T07:55:09Z</time>
      </trkpt>
      <trkpt lat="41.4273153" lon="2.1232899">
        <ele>430.21987915</ele>
        <time>2022-10-30T07:55:10Z</time>
      </trkpt>
      <trkpt lat="41.4272844" lon="2.1232908">
        <ele>430.48986816</ele>
        <time>2022-10-30T07:55:11Z</time>
      </trkpt>
      <trkpt lat="41.4272314" lon="2.1233008">
        <ele>430.75985718</ele>
        <time>2022-10-30T07:55:12Z</time>
      </trkpt>
      <trkpt lat="41.4271984" lon="2.1233268">
        <ele>431.0798645</ele>
        <time>2022-10-30T07:55:13Z</time>
      </trkpt>
      <trkpt lat="41.4271775" lon="2.1233537">
        <ele>431.40985107</ele>
        <time>2022-10-30T07:55:14Z</time>
      </trkpt>
      <trkpt lat="41.4271525" lon="2.1233857">
        <ele>431.68984985</ele>
        <time>2022-10-30T07:55:15Z</time>
      </trkpt>
      <trkpt lat="41.4271216" lon="2.1234447">
        <ele>431.93984985</ele>
        <time>2022-10-30T07:55:16Z</time>
      </trkpt>
      <trkpt lat="41.4270966" lon="2.1234786">
        <ele>432.10986328</ele>
        <time>2022-10-30T07:55:17Z</time>
      </trkpt>
      <trkpt lat="41.4270677" lon="2.1235106">
        <ele>432.25985718</ele>
        <time>2022-10-30T07:55:18Z</time>
      </trkpt>
      <trkpt lat="41.4270357" lon="2.1235366">
        <ele>432.37985229</ele>
        <time>2022-10-30T07:55:19Z</time>
      </trkpt>
      <trkpt lat="41.4270098" lon="2.1235705">
        <ele>432.4798584</ele>
        <time>2022-10-30T07:55:20Z</time>
      </trkpt>
      <trkpt lat="41.4269968" lon="2.1236095">
        <ele>432.59985352</ele>
        <time>2022-10-30T07:55:21Z</time>
      </trkpt>
      <trkpt lat="41.4269729" lon="2.1236774">
        <ele>432.73986816</ele>
        <time>2022-10-30T07:55:22Z</time>
      </trkpt>
      <trkpt lat="41.4269539" lon="2.1237313">
        <ele>432.90988159</ele>
        <time>2022-10-30T07:55:23Z</time>
      </trkpt>
      <trkpt lat="41.4269289" lon="2.1237773">
        <ele>433.09988403</ele>
        <time>2022-10-30T07:55:24Z</time>
      </trkpt>
      <trkpt lat="41.426898" lon="2.1238193">
        <ele>433.28988647</ele>
        <time>2022-10-30T07:55:25Z</time>
      </trkpt>
      <trkpt lat="41.426851" lon="2.1238742">
        <ele>433.47988892</ele>
        <time>2022-10-30T07:55:26Z</time>
      </trkpt>
      <trkpt lat="41.4268181" lon="2.1238922">
        <ele>433.62988281</ele>
        <time>2022-10-30T07:55:27Z</time>
      </trkpt>
      <trkpt lat="41.4267842" lon="2.1239041">
        <ele>433.76989746</ele>
        <time>2022-10-30T07:55:28Z</time>
      </trkpt>
      <trkpt lat="41.4267572" lon="2.1239031">
        <ele>433.90991211</ele>
        <time>2022-10-30T07:55:29Z</time>
      </trkpt>
      <trkpt lat="41.4267132" lon="2.1238952">
        <ele>434.02990723</ele>
        <time>2022-10-30T07:55:30Z</time>
      </trkpt>
      <trkpt lat="41.4266893" lon="2.1238981">
        <ele>434.18991089</ele>
        <time>2022-10-30T07:55:31Z</time>
      </trkpt>
      <trkpt lat="41.4266783" lon="2.123903">
        <ele>434.32992554</ele>
        <time>2022-10-30T07:55:32Z</time>
      </trkpt>
      <trkpt lat="41.4266774" lon="2.1238991">
        <ele>434.44992065</ele>
        <time>2022-10-30T07:55:33Z</time>
      </trkpt>
      <trkpt lat="41.4266734" lon="2.1238971">
        <ele>434.53991699</ele>
        <time>2022-10-30T07:55:34Z</time>
      </trkpt>
      <trkpt lat="41.4266725" lon="2.1238952">
        <ele>434.60992432</ele>
        <time>2022-10-30T07:55:35Z</time>
      </trkpt>
      <trkpt lat="41.42665" lon="2.123828">
        <ele>431.23999023</ele>
        <time>2022-10-30T07:58:15Z</time>
      </trkpt>
      <trkpt lat="41.426634" lon="2.1238161">
        <ele>431.23999023</ele>
        <time>2022-10-30T07:58:16Z</time>
      </trkpt>
      <trkpt lat="41.42662" lon="2.1238132">
        <ele>431.20999146</ele>
        <time>2022-10-30T07:58:17Z</time>
      </trkpt>
      <trkpt lat="41.4266161" lon="2.1238241">
        <ele>431.19000244</ele>
        <time>2022-10-30T07:58:18Z</time>
      </trkpt>
      <trkpt lat="41.426618" lon="2.1238311">
        <ele>431.17001343</ele>
        <time>2022-10-30T07:58:19Z</time>
      </trkpt>
      <trkpt lat="41.4266239" lon="2.123839">
        <ele>431.20001221</ele>
        <time>2022-10-30T07:58:20Z</time>
      </trkpt>
      <trkpt lat="41.4266299" lon="2.123844">
        <ele>431.23001099</ele>
        <time>2022-10-30T07:58:21Z</time>
      </trkpt>
      <trkpt lat="41.4266358" lon="2.1238459">
        <ele>431.27999878</ele>
        <time>2022-10-30T07:58:22Z</time>
      </trkpt>
      <trkpt lat="41.4267039" lon="2.123881">
        <ele>430.35998535</ele>
        <time>2022-10-30T07:58:58Z</time>
      </trkpt>
      <trkpt lat="41.4267138" lon="2.1238869">
        <ele>430.34997559</ele>
        <time>2022-10-30T07:58:59Z</time>
      </trkpt>
      <trkpt lat="41.4267258" lon="2.1238919">
        <ele>430.35998535</ele>
        <time>2022-10-30T07:59:00Z</time>
      </trkpt>
      <trkpt lat="41.4267407" lon="2.1238919">
        <ele>430.37997437</ele>
        <time>2022-10-30T07:59:01Z</time>
      </trkpt>
      <trkpt lat="41.4267666" lon="2.1238948">
        <ele>430.3699646</ele>
        <time>2022-10-30T07:59:02Z</time>
      </trkpt>
      <trkpt lat="41.4267916" lon="2.1238848">
        <ele>430.32995605</ele>
        <time>2022-10-30T07:59:03Z</time>
      </trkpt>
      <trkpt lat="41.4268126" lon="2.1238699">
        <ele>430.18994141</ele>
        <time>2022-10-30T07:59:04Z</time>
      </trkpt>
      <trkpt lat="41.4268365" lon="2.1238499">
        <ele>430.01992798</ele>
        <time>2022-10-30T07:59:05Z</time>
      </trkpt>
      <trkpt lat="41.4268794" lon="2.123813">
        <ele>429.82992554</ele>
        <time>2022-10-30T07:59:06Z</time>
      </trkpt>
      <trkpt lat="41.4269054" lon="2.1237751">
        <ele>429.61993408</ele>
        <time>2022-10-30T07:59:07Z</time>
      </trkpt>
      <trkpt lat="41.4269253" lon="2.1237372">
        <ele>429.37994385</ele>
        <time>2022-10-30T07:59:08Z</time>
      </trkpt>
      <trkpt lat="41.4269443" lon="2.1236982">
        <ele>429.0899353</ele>
        <time>2022-10-30T07:59:09Z</time>
      </trkpt>
      <trkpt lat="41.4269622" lon="2.1236592">
        <ele>428.81994629</ele>
        <time>2022-10-30T07:59:10Z</time>
      </trkpt>
      <trkpt lat="41.4269782" lon="2.1236063">
        <ele>428.56994629</ele>
        <time>2022-10-30T07:59:11Z</time>
      </trkpt>
      <trkpt lat="41.4269861" lon="2.1235684">
        <ele>428.40994263</ele>
        <time>2022-10-30T07:59:12Z</time>
      </trkpt>
      <trkpt lat="41.4269951" lon="2.1235344">
        <ele>428.30993652</ele>
        <time>2022-10-30T07:59:13Z</time>
      </trkpt>
      <trkpt lat="41.427007" lon="2.1235045">
        <ele>428.20993042</ele>
        <time>2022-10-30T07:59:14Z</time>
      </trkpt>
      <trkpt lat="41.4270249" lon="2.1234766">
        <ele>428.09994507</ele>
        <time>2022-10-30T07:59:15Z</time>
      </trkpt>
      <trkpt lat="41.4270579" lon="2.1234256">
        <ele>427.91995239</ele>
        <time>2022-10-30T07:59:16Z</time>
      </trkpt>
      <trkpt lat="41.4270788" lon="2.1233916">
        <ele>427.82995605</ele>
        <time>2022-10-30T07:59:17Z</time>
      </trkpt>
      <trkpt lat="41.4270938" lon="2.1233467">
        <ele>427.73995972</ele>
        <time>2022-10-30T07:59:18Z</time>
      </trkpt>
      <trkpt lat="41.4271107" lon="2.1233058">
        <ele>427.66995239</ele>
        <time>2022-10-30T07:59:19Z</time>
      </trkpt>
      <trkpt lat="41.4271146" lon="2.1232638">
        <ele>427.69995117</ele>
        <time>2022-10-30T07:59:20Z</time>
      </trkpt>
      <trkpt lat="41.4271077" lon="2.1232419">
        <ele>427.71994019</ele>
        <time>2022-10-30T07:59:21Z</time>
      </trkpt>
      <trkpt lat="41.4270937" lon="2.1232209">
        <ele>427.77993774</ele>
        <time>2022-10-30T07:59:22Z</time>
      </trkpt>
      <trkpt lat="41.4270837" lon="2.123207">
        <ele>427.8399353</ele>
        <time>2022-10-30T07:59:23Z</time>
      </trkpt>
      <trkpt lat="41.4270638" lon="2.123174">
        <ele>427.86993408</ele>
        <time>2022-10-30T07:59:24Z</time>
      </trkpt>
      <trkpt lat="41.4270478" lon="2.123161">
        <ele>427.95993042</ele>
        <time>2022-10-30T07:59:25Z</time>
      </trkpt>
      <trkpt lat="41.4270269" lon="2.1231501">
        <ele>428.05993652</ele>
        <time>2022-10-30T07:59:26Z</time>
      </trkpt>
      <trkpt lat="41.427009" lon="2.1231411">
        <ele>428.20993042</ele>
        <time>2022-10-30T07:59:27Z</time>
      </trkpt>
      <trkpt lat="41.426993" lon="2.1231292">
        <ele>428.36993408</ele>
        <time>2022-10-30T07:59:28Z</time>
      </trkpt>
      <trkpt lat="41.4269641" lon="2.1231183">
        <ele>428.43994141</ele>
        <time>2022-10-30T07:59:29Z</time>
      </trkpt>
      <trkpt lat="41.4269461" lon="2.1231124">
        <ele>428.51992798</ele>
        <time>2022-10-30T07:59:30Z</time>
      </trkpt>
      <trkpt lat="41.4269292" lon="2.1231084">
        <ele>428.62991333</ele>
        <time>2022-10-30T07:59:31Z</time>
      </trkpt>
      <trkpt lat="41.4269152" lon="2.1231044">
        <ele>428.72991943</ele>
        <time>2022-10-30T07:59:32Z</time>
      </trkpt>
      <trkpt lat="41.4268813" lon="2.1231124">
        <ele>428.8899231</ele>
        <time>2022-10-30T07:59:33Z</time>
      </trkpt>
      <trkpt lat="41.4268593" lon="2.1231114">
        <ele>429.02993774</ele>
        <time>2022-10-30T07:59:34Z</time>
      </trkpt>
      <trkpt lat="41.4268364" lon="2.1231104">
        <ele>429.18994141</ele>
        <time>2022-10-30T07:59:35Z</time>
      </trkpt>
      <trkpt lat="41.4268245" lon="2.1230995">
        <ele>429.38995361</ele>
        <time>2022-10-30T07:59:36Z</time>
      </trkpt>
      <trkpt lat="41.4268046" lon="2.1230995">
        <ele>429.57995605</ele>
        <time>2022-10-30T07:59:37Z</time>
      </trkpt>
      <trkpt lat="41.4267707" lon="2.1231174">
        <ele>429.78994751</ele>
        <time>2022-10-30T07:59:38Z</time>
      </trkpt>
      <trkpt lat="41.4267487" lon="2.1231244">
        <ele>429.94995117</ele>
        <time>2022-10-30T07:59:39Z</time>
      </trkpt>
      <trkpt lat="41.4267288" lon="2.1231253">
        <ele>430.08996582</ele>
        <time>2022-10-30T07:59:40Z</time>
      </trkpt>
      <trkpt lat="41.4267138" lon="2.1231273">
        <ele>430.20996094</ele>
        <time>2022-10-30T07:59:41Z</time>
      </trkpt>
      <trkpt lat="41.4266849" lon="2.1231283">
        <ele>430.35995483</ele>
        <time>2022-10-30T07:59:42Z</time>
      </trkpt>
      <trkpt lat="41.426664" lon="2.1231253">
        <ele>430.5199585</ele>
        <time>2022-10-30T07:59:43Z</time>
      </trkpt>
      <trkpt lat="41.4266441" lon="2.1231184">
        <ele>430.69995117</ele>
        <time>2022-10-30T07:59:44Z</time>
      </trkpt>
      <trkpt lat="41.4266261" lon="2.1231125">
        <ele>430.8699646</ele>
        <time>2022-10-30T07:59:45Z</time>
      </trkpt>
      <trkpt lat="41.4266052" lon="2.1231085">
        <ele>431.02996826</ele>
        <time>2022-10-30T07:59:46Z</time>
      </trkpt>
      <trkpt lat="41.4265842" lon="2.1230885">
        <ele>431.17996216</ele>
        <time>2022-10-30T07:59:47Z</time>
      </trkpt>
      <trkpt lat="41.4265643" lon="2.1230856">
        <ele>431.29995728</ele>
        <time>2022-10-30T07:59:48Z</time>
      </trkpt>
      <trkpt lat="41.4265483" lon="2.1230837">
        <ele>431.52996826</ele>
        <time>2022-10-30T07:59:49Z</time>
      </trkpt>
      <trkpt lat="41.4265274" lon="2.1230767">
        <ele>431.66998291</ele>
        <time>2022-10-30T07:59:50Z</time>
      </trkpt>
      <trkpt lat="41.4265004" lon="2.1230537">
        <ele>431.81997681</ele>
        <time>2022-10-30T07:59:51Z</time>
      </trkpt>
      <trkpt lat="41.4264845" lon="2.1230488">
        <ele>431.99996948</ele>
        <time>2022-10-30T07:59:52Z</time>
      </trkpt>
      <trkpt lat="41.4264715" lon="2.1230527">
        <ele>432.08996582</ele>
        <time>2022-10-30T07:59:53Z</time>
      </trkpt>
      <trkpt lat="41.4264566" lon="2.1230478">
        <ele>432.28997803</ele>
        <time>2022-10-30T07:59:54Z</time>
      </trkpt>
      <trkpt lat="41.4264436" lon="2.1230359">
        <ele>432.50997925</ele>
        <time>2022-10-30T07:59:55Z</time>
      </trkpt>
      <trkpt lat="41.4264197" lon="2.123021">
        <ele>432.69998169</ele>
        <time>2022-10-30T07:59:56Z</time>
      </trkpt>
      <trkpt lat="41.4264037" lon="2.123013">
        <ele>432.87997437</ele>
        <time>2022-10-30T07:59:57Z</time>
      </trkpt>
      <trkpt lat="41.4263937" lon="2.1230051">
        <ele>433.02996826</ele>
        <time>2022-10-30T07:59:58Z</time>
      </trkpt>
      <trkpt lat="41.4263758" lon="2.1230001">
        <ele>433.19998169</ele>
        <time>2022-10-30T07:59:59Z</time>
      </trkpt>
      <trkpt lat="41.4263568" lon="2.1229852">
        <ele>433.35998535</ele>
        <time>2022-10-30T08:00:00Z</time>
      </trkpt>
      <trkpt lat="41.4263428" lon="2.1229712">
        <ele>433.4699707</ele>
        <time>2022-10-30T08:00:01Z</time>
      </trkpt>
      <trkpt lat="41.4263288" lon="2.1229663">
        <ele>433.59997559</ele>
        <time>2022-10-30T08:00:02Z</time>
      </trkpt>
      <trkpt lat="41.4263109" lon="2.1229583">
        <ele>433.70996094</ele>
        <time>2022-10-30T08:00:03Z</time>
      </trkpt>
      <trkpt lat="41.4262899" lon="2.1229314">
        <ele>433.78994751</ele>
        <time>2022-10-30T08:00:04Z</time>
      </trkpt>
      <trkpt lat="41.4262619" lon="2.1229184">
        <ele>433.92996216</ele>
        <time>2022-10-30T08:00:05Z</time>
      </trkpt>
      <trkpt lat="41.426244" lon="2.1229035">
        <ele>434.05996704</ele>
        <time>2022-10-30T08:00:06Z</time>
      </trkpt>
      <trkpt lat="41.4262261" lon="2.1228695">
        <ele>434.19998169</ele>
        <time>2022-10-30T08:00:07Z</time>
      </trkpt>
      <trkpt lat="41.4262081" lon="2.1228506">
        <ele>434.3999939</ele>
        <time>2022-10-30T08:00:08Z</time>
      </trkpt>
      <trkpt lat="41.4261801" lon="2.1228367">
        <ele>434.61999512</ele>
        <time>2022-10-30T08:00:09Z</time>
      </trkpt>
      <trkpt lat="41.4261622" lon="2.1228248">
        <ele>434.86999512</ele>
        <time>2022-10-30T08:00:10Z</time>
      </trkpt>
      <trkpt lat="41.4261482" lon="2.1228178">
        <ele>435.1000061</ele>
        <time>2022-10-30T08:00:11Z</time>
      </trkpt>
      <trkpt lat="41.4261322" lon="2.1228038">
        <ele>435.29000854</ele>
        <time>2022-10-30T08:00:12Z</time>
      </trkpt>
      <trkpt lat="41.4261173" lon="2.1227959">
        <ele>435.46002197</ele>
        <time>2022-10-30T08:00:13Z</time>
      </trkpt>
      <trkpt lat="41.4260914" lon="2.1227879">
        <ele>435.64001465</ele>
        <time>2022-10-30T08:00:14Z</time>
      </trkpt>
      <trkpt lat="41.4260745" lon="2.122766">
        <ele>435.86001587</ele>
        <time>2022-10-30T08:00:15Z</time>
      </trkpt>
      <trkpt lat="41.4260546" lon="2.1227521">
        <ele>436.1000061</ele>
        <time>2022-10-30T08:00:16Z</time>
      </trkpt>
      <trkpt lat="41.4260356" lon="2.1227491">
        <ele>436.36001587</ele>
        <time>2022-10-30T08:00:17Z</time>
      </trkpt>
      <trkpt lat="41.4260097" lon="2.1227422">
        <ele>436.59002686</ele>
        <time>2022-10-30T08:00:18Z</time>
      </trkpt>
      <trkpt lat="41.4259877" lon="2.1227431">
        <ele>436.80001831</ele>
        <time>2022-10-30T08:00:19Z</time>
      </trkpt>
      <trkpt lat="41.4259637" lon="2.1227372">
        <ele>437.02001953</ele>
        <time>2022-10-30T08:00:20Z</time>
      </trkpt>
      <trkpt lat="41.4259428" lon="2.1227263">
        <ele>437.22003174</ele>
        <time>2022-10-30T08:00:21Z</time>
      </trkpt>
      <trkpt lat="41.4259188" lon="2.1227093">
        <ele>437.42004395</ele>
        <time>2022-10-30T08:00:22Z</time>
      </trkpt>
      <trkpt lat="41.4258869" lon="2.1226854">
        <ele>437.58004761</ele>
        <time>2022-10-30T08:00:23Z</time>
      </trkpt>
      <trkpt lat="41.4258619" lon="2.1226903">
        <ele>437.7300415</ele>
        <time>2022-10-30T08:00:24Z</time>
      </trkpt>
      <trkpt lat="41.425845" lon="2.1226833">
        <ele>437.8800354</ele>
        <time>2022-10-30T08:00:25Z</time>
      </trkpt>
      <trkpt lat="41.4258251" lon="2.1226744">
        <ele>438.71002197</ele>
        <time>2022-10-30T08:00:26Z</time>
      </trkpt>
      <trkpt lat="41.4257981" lon="2.1226863">
        <ele>438.85003662</ele>
        <time>2022-10-30T08:00:27Z</time>
      </trkpt>
      <trkpt lat="41.4257621" lon="2.1226943">
        <ele>438.97003174</ele>
        <time>2022-10-30T08:00:28Z</time>
      </trkpt>
      <trkpt lat="41.4257402" lon="2.1226854">
        <ele>439.12002563</ele>
        <time>2022-10-30T08:00:29Z</time>
      </trkpt>
      <trkpt lat="41.4257172" lon="2.1226694">
        <ele>439.2800293</ele>
        <time>2022-10-30T08:00:30Z</time>
      </trkpt>
      <trkpt lat="41.4256933" lon="2.1226514">
        <ele>439.44003296</ele>
        <time>2022-10-30T08:00:31Z</time>
      </trkpt>
      <trkpt lat="41.4256564" lon="2.1226265">
        <ele>439.59002686</ele>
        <time>2022-10-30T08:00:32Z</time>
      </trkpt>
      <trkpt lat="41.4256384" lon="2.1226126">
        <ele>439.7300415</ele>
        <time>2022-10-30T08:00:33Z</time>
      </trkpt>
      <trkpt lat="41.4256215" lon="2.1225976">
        <ele>439.90005493</ele>
        <time>2022-10-30T08:00:34Z</time>
      </trkpt>
      <trkpt lat="41.4256016" lon="2.1225827">
        <ele>440.04006958</ele>
        <time>2022-10-30T08:00:35Z</time>
      </trkpt>
      <trkpt lat="41.4255637" lon="2.1225657">
        <ele>440.25006104</ele>
        <time>2022-10-30T08:00:36Z</time>
      </trkpt>
      <trkpt lat="41.4255397" lon="2.1225588">
        <ele>440.44006348</ele>
        <time>2022-10-30T08:00:37Z</time>
      </trkpt>
      <trkpt lat="41.4255147" lon="2.1225468">
        <ele>440.62005615</ele>
        <time>2022-10-30T08:00:38Z</time>
      </trkpt>
      <trkpt lat="41.4254938" lon="2.1225349">
        <ele>440.85006714</ele>
        <time>2022-10-30T08:00:39Z</time>
      </trkpt>
      <trkpt lat="41.4254748" lon="2.122516">
        <ele>441.03005981</ele>
        <time>2022-10-30T08:00:40Z</time>
      </trkpt>
      <trkpt lat="41.4254349" lon="2.1225">
        <ele>441.21005249</ele>
        <time>2022-10-30T08:00:41Z</time>
      </trkpt>
      <trkpt lat="41.425409" lon="2.122483">
        <ele>441.37005615</ele>
        <time>2022-10-30T08:00:42Z</time>
      </trkpt>
      <trkpt lat="41.425385" lon="2.1224691">
        <ele>441.5100708</ele>
        <time>2022-10-30T08:00:43Z</time>
      </trkpt>
      <trkpt lat="41.4253671" lon="2.1224442">
        <ele>441.67007446</ele>
        <time>2022-10-30T08:00:44Z</time>
      </trkpt>
      <trkpt lat="41.4253502" lon="2.1224253">
        <ele>441.82006836</ele>
        <time>2022-10-30T08:00:45Z</time>
      </trkpt>
      <trkpt lat="41.4253152" lon="2.1224113">
        <ele>442.0100708</ele>
        <time>2022-10-30T08:00:46Z</time>
      </trkpt>
      <trkpt lat="41.4252943" lon="2.1223934">
        <ele>442.17007446</ele>
        <time>2022-10-30T08:00:47Z</time>
      </trkpt>
      <trkpt lat="41.4252703" lon="2.1223845">
        <ele>442.31008911</ele>
        <time>2022-10-30T08:00:48Z</time>
      </trkpt>
      <trkpt lat="41.4252494" lon="2.1223615">
        <ele>442.43008423</ele>
        <time>2022-10-30T08:00:49Z</time>
      </trkpt>
      <trkpt lat="41.4252134" lon="2.1223445">
        <ele>442.55007935</ele>
        <time>2022-10-30T08:00:50Z</time>
      </trkpt>
      <trkpt lat="41.4251894" lon="2.1223246">
        <ele>442.70007324</ele>
        <time>2022-10-30T08:00:51Z</time>
      </trkpt>
      <trkpt lat="41.4251695" lon="2.1223126">
        <ele>442.87008667</ele>
        <time>2022-10-30T08:00:52Z</time>
      </trkpt>
      <trkpt lat="41.4251516" lon="2.1222907">
        <ele>443.03009033</ele>
        <time>2022-10-30T08:00:53Z</time>
      </trkpt>
      <trkpt lat="41.4251276" lon="2.1222608">
        <ele>443.23010254</ele>
        <time>2022-10-30T08:00:54Z</time>
      </trkpt>
      <trkpt lat="41.4251057" lon="2.1222538">
        <ele>443.40011597</ele>
        <time>2022-10-30T08:00:55Z</time>
      </trkpt>
      <trkpt lat="41.4250827" lon="2.1222408">
        <ele>443.59011841</ele>
        <time>2022-10-30T08:00:56Z</time>
      </trkpt>
      <trkpt lat="41.4250598" lon="2.1222319">
        <ele>443.80010986</ele>
        <time>2022-10-30T08:00:57Z</time>
      </trkpt>
      <trkpt lat="41.4250339" lon="2.1222338">
        <ele>444.01010132</ele>
        <time>2022-10-30T08:00:58Z</time>
      </trkpt>
      <trkpt lat="41.424994" lon="2.1221959">
        <ele>444.26010132</ele>
        <time>2022-10-30T08:00:59Z</time>
      </trkpt>
      <trkpt lat="41.424972" lon="2.122185">
        <ele>444.47009277</ele>
        <time>2022-10-30T08:01:00Z</time>
      </trkpt>
      <trkpt lat="41.424958" lon="2.122165">
        <ele>444.66009521</ele>
        <time>2022-10-30T08:01:01Z</time>
      </trkpt>
      <trkpt lat="41.4249411" lon="2.1221431">
        <ele>444.83010864</ele>
        <time>2022-10-30T08:01:02Z</time>
      </trkpt>
      <trkpt lat="41.4249161" lon="2.1220841">
        <ele>444.97012329</ele>
        <time>2022-10-30T08:01:03Z</time>
      </trkpt>
      <trkpt lat="41.4249032" lon="2.1220542">
        <ele>445.14013672</ele>
        <time>2022-10-30T08:01:04Z</time>
      </trkpt>
      <trkpt lat="41.4248892" lon="2.1220302">
        <ele>445.34014893</ele>
        <time>2022-10-30T08:01:05Z</time>
      </trkpt>
      <trkpt lat="41.4248722" lon="2.1220093">
        <ele>445.53015137</ele>
        <time>2022-10-30T08:01:06Z</time>
      </trkpt>
      <trkpt lat="41.4248553" lon="2.1219854">
        <ele>445.74014282</ele>
        <time>2022-10-30T08:01:07Z</time>
      </trkpt>
      <trkpt lat="41.4248344" lon="2.1219494">
        <ele>445.9201355</ele>
        <time>2022-10-30T08:01:08Z</time>
      </trkpt>
      <trkpt lat="41.4248264" lon="2.1219275">
        <ele>446.11013794</ele>
        <time>2022-10-30T08:01:09Z</time>
      </trkpt>
      <trkpt lat="41.4248205" lon="2.1219045">
        <ele>446.29013062</ele>
        <time>2022-10-30T08:01:10Z</time>
      </trkpt>
      <trkpt lat="41.4248086" lon="2.1218796">
        <ele>446.48013306</ele>
        <time>2022-10-30T08:01:11Z</time>
      </trkpt>
      <trkpt lat="41.4247857" lon="2.1218506">
        <ele>446.64013672</ele>
        <time>2022-10-30T08:01:12Z</time>
      </trkpt>
      <trkpt lat="41.4247697" lon="2.1218317">
        <ele>446.82012939</ele>
        <time>2022-10-30T08:01:13Z</time>
      </trkpt>
      <trkpt lat="41.4247537" lon="2.1218098">
        <ele>446.97012329</ele>
        <time>2022-10-30T08:01:14Z</time>
      </trkpt>
      <trkpt lat="41.4247378" lon="2.1217889">
        <ele>447.10012817</ele>
        <time>2022-10-30T08:01:15Z</time>
      </trkpt>
      <trkpt lat="41.4247258" lon="2.1217629">
        <ele>447.29013062</ele>
        <time>2022-10-30T08:01:16Z</time>
      </trkpt>
      <trkpt lat="41.4247069" lon="2.1217289">
        <ele>447.41012573</ele>
        <time>2022-10-30T08:01:17Z</time>
      </trkpt>
      <trkpt lat="41.4246959" lon="2.121707">
        <ele>447.52011108</ele>
        <time>2022-10-30T08:01:18Z</time>
      </trkpt>
      <trkpt lat="41.4246839" lon="2.1216861">
        <ele>447.66012573</ele>
        <time>2022-10-30T08:01:19Z</time>
      </trkpt>
      <trkpt lat="41.424666" lon="2.1216672">
        <ele>447.78012085</ele>
        <time>2022-10-30T08:01:20Z</time>
      </trkpt>
      <trkpt lat="41.4246431" lon="2.1216483">
        <ele>447.93011475</ele>
        <time>2022-10-30T08:01:21Z</time>
      </trkpt>
      <trkpt lat="41.4246161" lon="2.1216084">
        <ele>448.07012939</ele>
        <time>2022-10-30T08:01:22Z</time>
      </trkpt>
      <trkpt lat="41.4246081" lon="2.1215804">
        <ele>448.19012451</ele>
        <time>2022-10-30T08:01:23Z</time>
      </trkpt>
      <trkpt lat="41.4245962" lon="2.1215575">
        <ele>448.31011963</ele>
        <time>2022-10-30T08:01:24Z</time>
      </trkpt>
      <trkpt lat="41.4245822" lon="2.1215315">
        <ele>448.44012451</ele>
        <time>2022-10-30T08:01:25Z</time>
      </trkpt>
      <trkpt lat="41.4245593" lon="2.1215006">
        <ele>448.59011841</ele>
        <time>2022-10-30T08:01:26Z</time>
      </trkpt>
      <trkpt lat="41.4245394" lon="2.1214796">
        <ele>448.7401123</ele>
        <time>2022-10-30T08:01:27Z</time>
      </trkpt>
      <trkpt lat="41.4245254" lon="2.1214577">
        <ele>448.8901062</ele>
        <time>2022-10-30T08:01:28Z</time>
      </trkpt>
      <trkpt lat="41.4245074" lon="2.1214308">
        <ele>449.00009155</ele>
        <time>2022-10-30T08:01:29Z</time>
      </trkpt>
      <trkpt lat="41.4244805" lon="2.1213988">
        <ele>449.10009766</ele>
        <time>2022-10-30T08:01:30Z</time>
      </trkpt>
      <trkpt lat="41.4244686" lon="2.1213799">
        <ele>449.23010254</ele>
        <time>2022-10-30T08:01:31Z</time>
      </trkpt>
      <trkpt lat="41.4244556" lon="2.1213589">
        <ele>449.34008789</ele>
        <time>2022-10-30T08:01:32Z</time>
      </trkpt>
      <trkpt lat="41.4244396" lon="2.121329">
        <ele>449.49008179</ele>
        <time>2022-10-30T08:01:33Z</time>
      </trkpt>
      <trkpt lat="41.4244256" lon="2.121299">
        <ele>449.65008545</ele>
        <time>2022-10-30T08:01:34Z</time>
      </trkpt>
      <trkpt lat="41.4243976" lon="2.12126">
        <ele>449.80007935</ele>
        <time>2022-10-30T08:01:35Z</time>
      </trkpt>
      <trkpt lat="41.4243777" lon="2.1212191">
        <ele>449.95007324</ele>
        <time>2022-10-30T08:01:36Z</time>
      </trkpt>
      <trkpt lat="41.4243608" lon="2.1211841">
        <ele>450.07006836</ele>
        <time>2022-10-30T08:01:37Z</time>
      </trkpt>
      <trkpt lat="41.4243409" lon="2.1211632">
        <ele>450.18005371</ele>
        <time>2022-10-30T08:01:38Z</time>
      </trkpt>
      <trkpt lat="41.4243249" lon="2.1211383">
        <ele>450.28005981</ele>
        <time>2022-10-30T08:01:39Z</time>
      </trkpt>
      <trkpt lat="41.4242969" lon="2.1211013">
        <ele>450.42007446</ele>
        <time>2022-10-30T08:01:40Z</time>
      </trkpt>
      <trkpt lat="41.424277" lon="2.1210784">
        <ele>450.59008789</ele>
        <time>2022-10-30T08:01:41Z</time>
      </trkpt>
      <trkpt lat="41.4242601" lon="2.1210504">
        <ele>450.83007812</ele>
        <time>2022-10-30T08:01:42Z</time>
      </trkpt>
      <trkpt lat="41.4242422" lon="2.1210345">
        <ele>451.08007812</ele>
        <time>2022-10-30T08:01:43Z</time>
      </trkpt>
      <trkpt lat="41.4242212" lon="2.1210145">
        <ele>451.27008057</ele>
        <time>2022-10-30T08:01:44Z</time>
      </trkpt>
      <trkpt lat="41.4242043" lon="2.1209996">
        <ele>451.44009399</ele>
        <time>2022-10-30T08:01:45Z</time>
      </trkpt>
      <trkpt lat="41.4241864" lon="2.1209836">
        <ele>451.57009888</ele>
        <time>2022-10-30T08:01:46Z</time>
      </trkpt>
      <trkpt lat="41.4241695" lon="2.1209666">
        <ele>451.6401062</ele>
        <time>2022-10-30T08:01:47Z</time>
      </trkpt>
      <trkpt lat="41.4241535" lon="2.1209526">
        <ele>451.7901001</ele>
        <time>2022-10-30T08:01:48Z</time>
      </trkpt>
      <trkpt lat="41.4241406" lon="2.1209147">
        <ele>451.96011353</ele>
        <time>2022-10-30T08:01:49Z</time>
      </trkpt>
      <trkpt lat="41.4241226" lon="2.1209028">
        <ele>452.09011841</ele>
        <time>2022-10-30T08:01:50Z</time>
      </trkpt>
      <trkpt lat="41.4241037" lon="2.1208909">
        <ele>452.27011108</ele>
        <time>2022-10-30T08:01:51Z</time>
      </trkpt>
      <trkpt lat="41.4240777" lon="2.1208899">
        <ele>452.41012573</ele>
        <time>2022-10-30T08:01:52Z</time>
      </trkpt>
      <trkpt lat="41.4240418" lon="2.120888">
        <ele>452.52011108</ele>
        <time>2022-10-30T08:01:53Z</time>
      </trkpt>
      <trkpt lat="41.4240188" lon="2.120871">
        <ele>452.65011597</ele>
        <time>2022-10-30T08:01:54Z</time>
      </trkpt>
      <trkpt lat="41.4240009" lon="2.120848">
        <ele>452.77011108</ele>
        <time>2022-10-30T08:01:55Z</time>
      </trkpt>
      <trkpt lat="41.4239799" lon="2.1208381">
        <ele>452.90011597</ele>
        <time>2022-10-30T08:01:56Z</time>
      </trkpt>
      <trkpt lat="41.423944" lon="2.1208111">
        <ele>453.03012085</ele>
        <time>2022-10-30T08:01:57Z</time>
      </trkpt>
      <trkpt lat="41.4239131" lon="2.1207941">
        <ele>453.16012573</ele>
        <time>2022-10-30T08:01:58Z</time>
      </trkpt>
      <trkpt lat="41.4238831" lon="2.1207892">
        <ele>453.28012085</ele>
        <time>2022-10-30T08:01:59Z</time>
      </trkpt>
      <trkpt lat="41.4238561" lon="2.1207873">
        <ele>453.38012695</ele>
        <time>2022-10-30T08:02:00Z</time>
      </trkpt>
      <trkpt lat="41.4238242" lon="2.1207863">
        <ele>453.50012207</ele>
        <time>2022-10-30T08:02:01Z</time>
      </trkpt>
      <trkpt lat="41.4237882" lon="2.1207653">
        <ele>453.59011841</ele>
        <time>2022-10-30T08:02:02Z</time>
      </trkpt>
      <trkpt lat="41.4237583" lon="2.1207624">
        <ele>453.70010376</ele>
        <time>2022-10-30T08:02:03Z</time>
      </trkpt>
      <trkpt lat="41.4237303" lon="2.1207555">
        <ele>453.86010742</ele>
        <time>2022-10-30T08:02:04Z</time>
      </trkpt>
      <trkpt lat="41.4237053" lon="2.1207445">
        <ele>454.03012085</ele>
        <time>2022-10-30T08:02:05Z</time>
      </trkpt>
      <trkpt lat="41.4236593" lon="2.1207784">
        <ele>454.22012329</ele>
        <time>2022-10-30T08:02:06Z</time>
      </trkpt>
      <trkpt lat="41.4236334" lon="2.1207914">
        <ele>454.39013672</ele>
        <time>2022-10-30T08:02:07Z</time>
      </trkpt>
      <trkpt lat="41.4236004" lon="2.1207964">
        <ele>454.50012207</ele>
        <time>2022-10-30T08:02:08Z</time>
      </trkpt>
      <trkpt lat="41.4235735" lon="2.1207944">
        <ele>454.59011841</ele>
        <time>2022-10-30T08:02:09Z</time>
      </trkpt>
      <trkpt lat="41.4235446" lon="2.1207855">
        <ele>454.69012451</ele>
        <time>2022-10-30T08:02:10Z</time>
      </trkpt>
      <trkpt lat="41.4234936" lon="2.1207974">
        <ele>454.83013916</ele>
        <time>2022-10-30T08:02:11Z</time>
      </trkpt>
      <trkpt lat="41.4234647" lon="2.1207994">
        <ele>454.99014282</ele>
        <time>2022-10-30T08:02:12Z</time>
      </trkpt>
      <trkpt lat="41.4234308" lon="2.1208124">
        <ele>455.19015503</ele>
        <time>2022-10-30T08:02:13Z</time>
      </trkpt>
      <trkpt lat="41.4234038" lon="2.1208273">
        <ele>455.35015869</ele>
        <time>2022-10-30T08:02:14Z</time>
      </trkpt>
      <trkpt lat="41.4233649" lon="2.1208302">
        <ele>455.48016357</ele>
        <time>2022-10-30T08:02:15Z</time>
      </trkpt>
      <trkpt lat="41.4233419" lon="2.1208253">
        <ele>455.64016724</ele>
        <time>2022-10-30T08:02:16Z</time>
      </trkpt>
      <trkpt lat="41.423317" lon="2.1208183">
        <ele>455.76016235</ele>
        <time>2022-10-30T08:02:17Z</time>
      </trkpt>
      <trkpt lat="41.423293" lon="2.1208083">
        <ele>455.95016479</ele>
        <time>2022-10-30T08:02:18Z</time>
      </trkpt>
      <trkpt lat="41.4232701" lon="2.1207964">
        <ele>456.14016724</ele>
        <time>2022-10-30T08:02:19Z</time>
      </trkpt>
      <trkpt lat="41.4232351" lon="2.1207775">
        <ele>456.3001709</ele>
        <time>2022-10-30T08:02:20Z</time>
      </trkpt>
      <trkpt lat="41.4232132" lon="2.1207665">
        <ele>456.48016357</ele>
        <time>2022-10-30T08:02:21Z</time>
      </trkpt>
      <trkpt lat="41.4231902" lon="2.1207595">
        <ele>456.650177</ele>
        <time>2022-10-30T08:02:22Z</time>
      </trkpt>
      <trkpt lat="41.4231693" lon="2.1207526">
        <ele>456.8001709</ele>
        <time>2022-10-30T08:02:23Z</time>
      </trkpt>
      <trkpt lat="41.4231363" lon="2.1207497">
        <ele>456.96017456</ele>
        <time>2022-10-30T08:02:24Z</time>
      </trkpt>
      <trkpt lat="41.4231164" lon="2.1207497">
        <ele>457.08016968</ele>
        <time>2022-10-30T08:02:25Z</time>
      </trkpt>
      <trkpt lat="41.4230944" lon="2.1207427">
        <ele>457.17016602</ele>
        <time>2022-10-30T08:02:26Z</time>
      </trkpt>
      <trkpt lat="41.4230724" lon="2.1207506">
        <ele>457.25015259</ele>
        <time>2022-10-30T08:02:27Z</time>
      </trkpt>
      <trkpt lat="41.4230495" lon="2.1207586">
        <ele>457.33013916</ele>
        <time>2022-10-30T08:02:28Z</time>
      </trkpt>
      <trkpt lat="41.4230126" lon="2.1207746">
        <ele>457.40014648</ele>
        <time>2022-10-30T08:02:29Z</time>
      </trkpt>
      <trkpt lat="41.4229846" lon="2.1207775">
        <ele>457.50015259</ele>
        <time>2022-10-30T08:02:30Z</time>
      </trkpt>
      <trkpt lat="41.4229596" lon="2.1207854">
        <ele>457.58013916</ele>
        <time>2022-10-30T08:02:31Z</time>
      </trkpt>
      <trkpt lat="41.4229357" lon="2.1207883">
        <ele>457.66012573</ele>
        <time>2022-10-30T08:02:32Z</time>
      </trkpt>
      <trkpt lat="41.4229117" lon="2.1207972">
        <ele>457.77011108</ele>
        <time>2022-10-30T08:02:33Z</time>
      </trkpt>
      <trkpt lat="41.4228727" lon="2.1208001">
        <ele>457.87011719</ele>
        <time>2022-10-30T08:02:34Z</time>
      </trkpt>
      <trkpt lat="41.4228458" lon="2.1208041">
        <ele>458.03012085</ele>
        <time>2022-10-30T08:02:35Z</time>
      </trkpt>
      <trkpt lat="41.4228199" lon="2.1208051">
        <ele>458.1401062</ele>
        <time>2022-10-30T08:02:36Z</time>
      </trkpt>
      <trkpt lat="41.4227959" lon="2.1208022">
        <ele>458.26010132</ele>
        <time>2022-10-30T08:02:37Z</time>
      </trkpt>
      <trkpt lat="41.4227569" lon="2.1207993">
        <ele>458.37008667</ele>
        <time>2022-10-30T08:02:38Z</time>
      </trkpt>
      <trkpt lat="41.422734" lon="2.1207863">
        <ele>458.47009277</ele>
        <time>2022-10-30T08:02:39Z</time>
      </trkpt>
      <trkpt lat="41.422712" lon="2.1207703">
        <ele>458.60009766</ele>
        <time>2022-10-30T08:02:40Z</time>
      </trkpt>
      <trkpt lat="41.4226941" lon="2.1207443">
        <ele>458.71008301</ele>
        <time>2022-10-30T08:02:41Z</time>
      </trkpt>
      <trkpt lat="41.4226761" lon="2.1206974">
        <ele>458.81008911</ele>
        <time>2022-10-30T08:02:42Z</time>
      </trkpt>
      <trkpt lat="41.4226722" lon="2.1206624">
        <ele>458.89007568</ele>
        <time>2022-10-30T08:02:43Z</time>
      </trkpt>
      <trkpt lat="41.4226731" lon="2.1206294">
        <ele>458.97006226</ele>
        <time>2022-10-30T08:02:44Z</time>
      </trkpt>
      <trkpt lat="41.422679" lon="2.1205925">
        <ele>459.06005859</ele>
        <time>2022-10-30T08:02:45Z</time>
      </trkpt>
      <trkpt lat="41.422691" lon="2.1205616">
        <ele>459.18005371</ele>
        <time>2022-10-30T08:02:46Z</time>
      </trkpt>
      <trkpt lat="41.422716" lon="2.1205146">
        <ele>459.33004761</ele>
        <time>2022-10-30T08:02:47Z</time>
      </trkpt>
      <trkpt lat="41.4227349" lon="2.1204837">
        <ele>459.50006104</ele>
        <time>2022-10-30T08:02:48Z</time>
      </trkpt>
      <trkpt lat="41.4227569" lon="2.1204568">
        <ele>459.71005249</ele>
        <time>2022-10-30T08:02:49Z</time>
      </trkpt>
      <trkpt lat="41.4227809" lon="2.1204408">
        <ele>459.87005615</ele>
        <time>2022-10-30T08:02:50Z</time>
      </trkpt>
      <trkpt lat="41.4228078" lon="2.1204308">
        <ele>460.04006958</ele>
        <time>2022-10-30T08:02:51Z</time>
      </trkpt>
      <trkpt lat="41.4228438" lon="2.1204357">
        <ele>460.21008301</ele>
        <time>2022-10-30T08:02:52Z</time>
      </trkpt>
      <trkpt lat="41.4228658" lon="2.1204507">
        <ele>460.30007935</ele>
        <time>2022-10-30T08:02:53Z</time>
      </trkpt>
      <trkpt lat="41.4228908" lon="2.1204616">
        <ele>460.46008301</ele>
        <time>2022-10-30T08:02:54Z</time>
      </trkpt>
      <trkpt lat="41.4229287" lon="2.1204756">
        <ele>460.59008789</ele>
        <time>2022-10-30T08:02:55Z</time>
      </trkpt>
      <trkpt lat="41.4229467" lon="2.1204826">
        <ele>460.78009033</ele>
        <time>2022-10-30T08:02:56Z</time>
      </trkpt>
      <trkpt lat="41.4229656" lon="2.1204955">
        <ele>460.97009277</ele>
        <time>2022-10-30T08:02:57Z</time>
      </trkpt>
      <trkpt lat="41.4229856" lon="2.1205075">
        <ele>461.1401062</ele>
        <time>2022-10-30T08:02:58Z</time>
      </trkpt>
      <trkpt lat="41.4230115" lon="2.1205094">
        <ele>461.31011963</ele>
        <time>2022-10-30T08:02:59Z</time>
      </trkpt>
      <trkpt lat="41.4230294" lon="2.1205273">
        <ele>461.42010498</ele>
        <time>2022-10-30T08:03:00Z</time>
      </trkpt>
      <trkpt lat="41.4230764" lon="2.1205383">
        <ele>461.56011963</ele>
        <time>2022-10-30T08:03:01Z</time>
      </trkpt>
      <trkpt lat="41.4231103" lon="2.1205492">
        <ele>461.67010498</ele>
        <time>2022-10-30T08:03:02Z</time>
      </trkpt>
      <trkpt lat="41.4231412" lon="2.1205572">
        <ele>461.77011108</ele>
        <time>2022-10-30T08:03:03Z</time>
      </trkpt>
      <trkpt lat="41.4231621" lon="2.1205543">
        <ele>461.85009766</ele>
        <time>2022-10-30T08:03:04Z</time>
      </trkpt>
      <trkpt lat="41.4232001" lon="2.1205463">
        <ele>461.94009399</ele>
        <time>2022-10-30T08:03:05Z</time>
      </trkpt>
      <trkpt lat="41.4232271" lon="2.1205394">
        <ele>462.0401001</ele>
        <time>2022-10-30T08:03:06Z</time>
      </trkpt>
      <trkpt lat="41.423257" lon="2.1205294">
        <ele>462.21011353</ele>
        <time>2022-10-30T08:03:07Z</time>
      </trkpt>
      <trkpt lat="41.423286" lon="2.1205205">
        <ele>462.3901062</ele>
        <time>2022-10-30T08:03:08Z</time>
      </trkpt>
      <trkpt lat="41.4233209" lon="2.1205115">
        <ele>462.5401001</ele>
        <time>2022-10-30T08:03:09Z</time>
      </trkpt>
      <trkpt lat="41.4233448" lon="2.1205165">
        <ele>462.65008545</ele>
        <time>2022-10-30T08:03:10Z</time>
      </trkpt>
      <trkpt lat="41.4233698" lon="2.1205165">
        <ele>462.75009155</ele>
        <time>2022-10-30T08:03:11Z</time>
      </trkpt>
      <trkpt lat="41.4233968" lon="2.1205155">
        <ele>462.87008667</ele>
        <time>2022-10-30T08:03:12Z</time>
      </trkpt>
      <trkpt lat="41.4234248" lon="2.1205096">
        <ele>463.05007935</ele>
        <time>2022-10-30T08:03:13Z</time>
      </trkpt>
      <trkpt lat="41.4234657" lon="2.1205077">
        <ele>463.27008057</ele>
        <time>2022-10-30T08:03:14Z</time>
      </trkpt>
      <trkpt lat="41.4234937" lon="2.1204917">
        <ele>463.45007324</ele>
        <time>2022-10-30T08:03:15Z</time>
      </trkpt>
      <trkpt lat="41.4235257" lon="2.1204817">
        <ele>463.63006592</ele>
        <time>2022-10-30T08:03:16Z</time>
      </trkpt>
      <trkpt lat="41.4235537" lon="2.1204707">
        <ele>463.78005981</ele>
        <time>2022-10-30T08:03:17Z</time>
      </trkpt>
      <trkpt lat="41.4235757" lon="2.1204638">
        <ele>463.97006226</ele>
        <time>2022-10-30T08:03:18Z</time>
      </trkpt>
      <trkpt lat="41.4236196" lon="2.1204667">
        <ele>464.17007446</ele>
        <time>2022-10-30T08:03:19Z</time>
      </trkpt>
      <trkpt lat="41.4236505" lon="2.1204706">
        <ele>464.35006714</ele>
        <time>2022-10-30T08:03:20Z</time>
      </trkpt>
      <trkpt lat="41.4236814" lon="2.1204796">
        <ele>464.50006104</ele>
        <time>2022-10-30T08:03:21Z</time>
      </trkpt>
      <trkpt lat="41.4237194" lon="2.1204945">
        <ele>464.62005615</ele>
        <time>2022-10-30T08:03:22Z</time>
      </trkpt>
      <trkpt lat="41.4237694" lon="2.1205124">
        <ele>464.75006104</ele>
        <time>2022-10-30T08:03:23Z</time>
      </trkpt>
      <trkpt lat="41.4237973" lon="2.1205234">
        <ele>464.94006348</ele>
        <time>2022-10-30T08:03:24Z</time>
      </trkpt>
      <trkpt lat="41.4238263" lon="2.1205243">
        <ele>465.15005493</ele>
        <time>2022-10-30T08:03:25Z</time>
      </trkpt>
      <trkpt lat="41.4238513" lon="2.1205313">
        <ele>465.33004761</ele>
        <time>2022-10-30T08:03:26Z</time>
      </trkpt>
      <trkpt lat="41.4238952" lon="2.1205393">
        <ele>465.54003906</ele>
        <time>2022-10-30T08:03:27Z</time>
      </trkpt>
      <trkpt lat="41.423888" lon="2.120531">
        <ele>466.70999146</ele>
        <time>2022-10-30T08:03:27Z</time>
      </trkpt>
      <trkpt lat="41.423916" lon="2.1205389">
        <ele>466.88000488</ele>
        <time>2022-10-30T08:03:28Z</time>
      </trkpt>
      <trkpt lat="41.4239469" lon="2.1205389">
        <ele>467</ele>
        <time>2022-10-30T08:03:29Z</time>
      </trkpt>
      <trkpt lat="41.4239789" lon="2.1205439">
        <ele>467.17001343</ele>
        <time>2022-10-30T08:03:30Z</time>
      </trkpt>
      <trkpt lat="41.4240118" lon="2.1205488">
        <ele>467.24002075</ele>
        <time>2022-10-30T08:03:31Z</time>
      </trkpt>
      <trkpt lat="41.4240578" lon="2.1205648">
        <ele>467.32000732</ele>
        <time>2022-10-30T08:03:32Z</time>
      </trkpt>
      <trkpt lat="41.4240828" lon="2.1205707">
        <ele>467.42999268</ele>
        <time>2022-10-30T08:03:33Z</time>
      </trkpt>
      <trkpt lat="41.4241137" lon="2.1205766">
        <ele>467.51998901</ele>
        <time>2022-10-30T08:03:34Z</time>
      </trkpt>
      <trkpt lat="41.4241346" lon="2.1205836">
        <ele>467.67999268</ele>
        <time>2022-10-30T08:03:35Z</time>
      </trkpt>
      <trkpt lat="41.4241575" lon="2.1205925">
        <ele>467.79998779</ele>
        <time>2022-10-30T08:03:36Z</time>
      </trkpt>
      <trkpt lat="41.4241855" lon="2.1205944">
        <ele>467.91998291</ele>
        <time>2022-10-30T08:03:37Z</time>
      </trkpt>
      <trkpt lat="41.4242054" lon="2.1206034">
        <ele>468.03997803</ele>
        <time>2022-10-30T08:03:38Z</time>
      </trkpt>
      <trkpt lat="41.4242174" lon="2.1206203">
        <ele>468.15997314</ele>
        <time>2022-10-30T08:03:39Z</time>
      </trkpt>
      <trkpt lat="41.4242343" lon="2.1206413">
        <ele>468.31997681</ele>
        <time>2022-10-30T08:03:40Z</time>
      </trkpt>
      <trkpt lat="41.4242672" lon="2.1206763">
        <ele>468.52996826</ele>
        <time>2022-10-30T08:03:41Z</time>
      </trkpt>
      <trkpt lat="41.4242962" lon="2.1206923">
        <ele>468.75997925</ele>
        <time>2022-10-30T08:03:42Z</time>
      </trkpt>
      <trkpt lat="41.4243242" lon="2.1207122">
        <ele>468.98999023</ele>
        <time>2022-10-30T08:03:43Z</time>
      </trkpt>
      <trkpt lat="41.4243561" lon="2.1207292">
        <ele>469.22998047</ele>
        <time>2022-10-30T08:03:44Z</time>
      </trkpt>
      <trkpt lat="41.424397" lon="2.1207522">
        <ele>469.45999146</ele>
        <time>2022-10-30T08:03:45Z</time>
      </trkpt>
      <trkpt lat="41.42442" lon="2.1207701">
        <ele>469.63998413</ele>
        <time>2022-10-30T08:03:46Z</time>
      </trkpt>
      <trkpt lat="41.424445" lon="2.120788">
        <ele>469.83999634</ele>
        <time>2022-10-30T08:03:47Z</time>
      </trkpt>
      <trkpt lat="41.4244729" lon="2.120802">
        <ele>470.13000488</ele>
        <time>2022-10-30T08:03:48Z</time>
      </trkpt>
      <trkpt lat="41.4245019" lon="2.1208099">
        <ele>470.42999268</ele>
        <time>2022-10-30T08:03:49Z</time>
      </trkpt>
      <trkpt lat="41.4245469" lon="2.1208289">
        <ele>470.83999634</ele>
        <time>2022-10-30T08:03:50Z</time>
      </trkpt>
      <trkpt lat="41.4245728" lon="2.1208408">
        <ele>471.16998291</ele>
        <time>2022-10-30T08:03:51Z</time>
      </trkpt>
      <trkpt lat="41.4245968" lon="2.1208508">
        <ele>471.33999634</ele>
        <time>2022-10-30T08:03:52Z</time>
      </trkpt>
      <trkpt lat="41.4246267" lon="2.1208687">
        <ele>471.44998169</ele>
        <time>2022-10-30T08:03:53Z</time>
      </trkpt>
      <trkpt lat="41.4246496" lon="2.1208966">
        <ele>471.47998047</ele>
        <time>2022-10-30T08:03:54Z</time>
      </trkpt>
      <trkpt lat="41.4246846" lon="2.1209106">
        <ele>471.58996582</ele>
        <time>2022-10-30T08:03:55Z</time>
      </trkpt>
      <trkpt lat="41.4246975" lon="2.1209236">
        <ele>471.69995117</ele>
        <time>2022-10-30T08:03:56Z</time>
      </trkpt>
      <trkpt lat="41.4247215" lon="2.1209315">
        <ele>471.84994507</ele>
        <time>2022-10-30T08:03:57Z</time>
      </trkpt>
      <trkpt lat="41.4247485" lon="2.1209404">
        <ele>472.0199585</ele>
        <time>2022-10-30T08:03:58Z</time>
      </trkpt>
      <trkpt lat="41.4247864" lon="2.1209593">
        <ele>472.13995361</ele>
        <time>2022-10-30T08:03:59Z</time>
      </trkpt>
      <trkpt lat="41.4248093" lon="2.1209743">
        <ele>472.27996826</ele>
        <time>2022-10-30T08:04:00Z</time>
      </trkpt>
      <trkpt lat="41.4248352" lon="2.1209922">
        <ele>472.43997192</ele>
        <time>2022-10-30T08:04:01Z</time>
      </trkpt>
      <trkpt lat="41.4248562" lon="2.1210122">
        <ele>472.58996582</ele>
        <time>2022-10-30T08:04:02Z</time>
      </trkpt>
      <trkpt lat="41.4249062" lon="2.1210311">
        <ele>472.74996948</ele>
        <time>2022-10-30T08:04:03Z</time>
      </trkpt>
      <trkpt lat="41.4249411" lon="2.12104">
        <ele>472.91998291</ele>
        <time>2022-10-30T08:04:04Z</time>
      </trkpt>
      <trkpt lat="41.4249661" lon="2.12105">
        <ele>473.07998657</ele>
        <time>2022-10-30T08:04:05Z</time>
      </trkpt>
      <trkpt lat="41.424997" lon="2.1210549">
        <ele>473.22998047</ele>
        <time>2022-10-30T08:04:06Z</time>
      </trkpt>
      <trkpt lat="41.425021" lon="2.1210619">
        <ele>473.37997437</ele>
        <time>2022-10-30T08:04:07Z</time>
      </trkpt>
      <trkpt lat="41.4250529" lon="2.1210918">
        <ele>473.55996704</ele>
        <time>2022-10-30T08:04:08Z</time>
      </trkpt>
      <trkpt lat="41.4250689" lon="2.1211128">
        <ele>473.72998047</ele>
        <time>2022-10-30T08:04:09Z</time>
      </trkpt>
      <trkpt lat="41.4250858" lon="2.1211328">
        <ele>473.91998291</ele>
        <time>2022-10-30T08:04:10Z</time>
      </trkpt>
      <trkpt lat="41.4251037" lon="2.1211557">
        <ele>474.12997437</ele>
        <time>2022-10-30T08:04:11Z</time>
      </trkpt>
      <trkpt lat="41.4251337" lon="2.1211797">
        <ele>474.34997559</ele>
        <time>2022-10-30T08:04:12Z</time>
      </trkpt>
      <trkpt lat="41.4251516" lon="2.1211906">
        <ele>474.55996704</ele>
        <time>2022-10-30T08:04:13Z</time>
      </trkpt>
      <trkpt lat="41.4251685" lon="2.1212025">
        <ele>474.78997803</ele>
        <time>2022-10-30T08:04:14Z</time>
      </trkpt>
      <trkpt lat="41.4251825" lon="2.1212205">
        <ele>474.98999023</ele>
        <time>2022-10-30T08:04:15Z</time>
      </trkpt>
      <trkpt lat="41.4251965" lon="2.1212424">
        <ele>475.16998291</ele>
        <time>2022-10-30T08:04:16Z</time>
      </trkpt>
      <trkpt lat="41.4252315" lon="2.1212613">
        <ele>475.33999634</ele>
        <time>2022-10-30T08:04:17Z</time>
      </trkpt>
      <trkpt lat="41.4252504" lon="2.1212762">
        <ele>475.48999023</ele>
        <time>2022-10-30T08:04:18Z</time>
      </trkpt>
      <trkpt lat="41.4252754" lon="2.1212942">
        <ele>475.6499939</ele>
        <time>2022-10-30T08:04:19Z</time>
      </trkpt>
      <trkpt lat="41.4252944" lon="2.1213251">
        <ele>475.82998657</ele>
        <time>2022-10-30T08:04:20Z</time>
      </trkpt>
      <trkpt lat="41.4253334" lon="2.121372">
        <ele>476.01998901</ele>
        <time>2022-10-30T08:04:21Z</time>
      </trkpt>
      <trkpt lat="41.4253573" lon="2.1213909">
        <ele>476.22000122</ele>
        <time>2022-10-30T08:04:22Z</time>
      </trkpt>
      <trkpt lat="41.4253863" lon="2.1214118">
        <ele>476.41000366</ele>
        <time>2022-10-30T08:04:23Z</time>
      </trkpt>
      <trkpt lat="41.4254182" lon="2.1214268">
        <ele>476.6000061</ele>
        <time>2022-10-30T08:04:24Z</time>
      </trkpt>
      <trkpt lat="41.4254482" lon="2.1214407">
        <ele>476.79000854</ele>
        <time>2022-10-30T08:04:25Z</time>
      </trkpt>
      <trkpt lat="41.4254841" lon="2.1214587">
        <ele>476.96002197</ele>
        <time>2022-10-30T08:04:26Z</time>
      </trkpt>
      <trkpt lat="41.4255071" lon="2.1214606">
        <ele>477.16003418</ele>
        <time>2022-10-30T08:04:27Z</time>
      </trkpt>
      <trkpt lat="41.425527" lon="2.1214665">
        <ele>477.34002686</ele>
        <time>2022-10-30T08:04:28Z</time>
      </trkpt>
      <trkpt lat="41.425555" lon="2.1214765">
        <ele>477.49002075</ele>
        <time>2022-10-30T08:04:29Z</time>
      </trkpt>
      <trkpt lat="41.4255919" lon="2.1214965">
        <ele>477.65002441</ele>
        <time>2022-10-30T08:04:30Z</time>
      </trkpt>
      <trkpt lat="41.4256118" lon="2.1214805">
        <ele>477.79003906</ele>
        <time>2022-10-30T08:04:31Z</time>
      </trkpt>
      <trkpt lat="41.4256347" lon="2.1214595">
        <ele>477.9800415</ele>
        <time>2022-10-30T08:04:32Z</time>
      </trkpt>
      <trkpt lat="41.4256636" lon="2.1214296">
        <ele>478.16003418</ele>
        <time>2022-10-30T08:04:33Z</time>
      </trkpt>
      <trkpt lat="41.4256975" lon="2.1213917">
        <ele>478.35003662</ele>
        <time>2022-10-30T08:04:34Z</time>
      </trkpt>
      <trkpt lat="41.4257455" lon="2.1213237">
        <ele>478.55004883</ele>
        <time>2022-10-30T08:04:35Z</time>
      </trkpt>
      <trkpt lat="41.4257714" lon="2.1212838">
        <ele>478.75006104</ele>
        <time>2022-10-30T08:04:36Z</time>
      </trkpt>
      <trkpt lat="41.4257913" lon="2.1212508">
        <ele>478.96005249</ele>
        <time>2022-10-30T08:04:37Z</time>
      </trkpt>
      <trkpt lat="41.4258122" lon="2.1212199">
        <ele>479.15005493</ele>
        <time>2022-10-30T08:04:38Z</time>
      </trkpt>
      <trkpt lat="41.4258472" lon="2.1211679">
        <ele>479.33004761</ele>
        <time>2022-10-30T08:04:39Z</time>
      </trkpt>
      <trkpt lat="41.4258681" lon="2.121128">
        <ele>479.50006104</ele>
        <time>2022-10-30T08:04:40Z</time>
      </trkpt>
      <trkpt lat="41.4258871" lon="2.121093">
        <ele>479.68005371</ele>
        <time>2022-10-30T08:04:41Z</time>
      </trkpt>
      <trkpt lat="41.425902" lon="2.121058">
        <ele>479.85006714</ele>
        <time>2022-10-30T08:04:42Z</time>
      </trkpt>
      <trkpt lat="41.425914" lon="2.121023">
        <ele>479.99008179</ele>
        <time>2022-10-30T08:04:43Z</time>
      </trkpt>
      <trkpt lat="41.4259219" lon="2.1209731">
        <ele>480.10006714</ele>
        <time>2022-10-30T08:04:44Z</time>
      </trkpt>
      <trkpt lat="41.4259229" lon="2.1209341">
        <ele>480.19006348</ele>
        <time>2022-10-30T08:04:45Z</time>
      </trkpt>
      <trkpt lat="41.4259229" lon="2.1208941">
        <ele>480.30004883</ele>
        <time>2022-10-30T08:04:46Z</time>
      </trkpt>
      <trkpt lat="41.4259279" lon="2.1208632">
        <ele>480.4800415</ele>
        <time>2022-10-30T08:04:47Z</time>
      </trkpt>
      <trkpt lat="41.4259259" lon="2.1208233">
        <ele>480.60003662</ele>
        <time>2022-10-30T08:04:48Z</time>
      </trkpt>
      <trkpt lat="41.4259268" lon="2.1207734">
        <ele>480.71002197</ele>
        <time>2022-10-30T08:04:49Z</time>
      </trkpt>
      <trkpt lat="41.4259259" lon="2.1207404">
        <ele>480.80001831</ele>
        <time>2022-10-30T08:04:50Z</time>
      </trkpt>
      <trkpt lat="41.425923" lon="2.1207114">
        <ele>480.83001709</ele>
        <time>2022-10-30T08:04:51Z</time>
      </trkpt>
      <trkpt lat="41.425918" lon="2.1206814">
        <ele>480.94000244</ele>
        <time>2022-10-30T08:04:52Z</time>
      </trkpt>
      <trkpt lat="41.4259171" lon="2.1206295">
        <ele>481.07000732</ele>
        <time>2022-10-30T08:04:53Z</time>
      </trkpt>
      <trkpt lat="41.4259071" lon="2.1205856">
        <ele>481.22000122</ele>
        <time>2022-10-30T08:04:54Z</time>
      </trkpt>
      <trkpt lat="41.4258952" lon="2.1205426">
        <ele>481.39001465</ele>
        <time>2022-10-30T08:04:55Z</time>
      </trkpt>
      <trkpt lat="41.4258872" lon="2.1205006">
        <ele>481.54000854</ele>
        <time>2022-10-30T08:04:56Z</time>
      </trkpt>
      <trkpt lat="41.4258772" lon="2.1204387">
        <ele>481.71002197</ele>
        <time>2022-10-30T08:04:57Z</time>
      </trkpt>
      <trkpt lat="41.4258663" lon="2.1203967">
        <ele>481.8800354</ele>
        <time>2022-10-30T08:04:58Z</time>
      </trkpt>
      <trkpt lat="41.4258613" lon="2.1203558">
        <ele>482.06002808</ele>
        <time>2022-10-30T08:04:59Z</time>
      </trkpt>
      <trkpt lat="41.4258543" lon="2.1203159">
        <ele>482.25003052</ele>
        <time>2022-10-30T08:05:00Z</time>
      </trkpt>
      <trkpt lat="41.4258474" lon="2.1202799">
        <ele>482.40002441</ele>
        <time>2022-10-30T08:05:01Z</time>
      </trkpt>
      <trkpt lat="41.4258314" lon="2.120211">
        <ele>482.5300293</ele>
        <time>2022-10-30T08:05:02Z</time>
      </trkpt>
      <trkpt lat="41.4258165" lon="2.120168">
        <ele>482.68002319</ele>
        <time>2022-10-30T08:05:03Z</time>
      </trkpt>
      <trkpt lat="41.4258035" lon="2.1201191">
        <ele>482.81002808</ele>
        <time>2022-10-30T08:05:04Z</time>
      </trkpt>
      <trkpt lat="41.4257966" lon="2.1200711">
        <ele>483.00003052</ele>
        <time>2022-10-30T08:05:05Z</time>
      </trkpt>
      <trkpt lat="41.4257896" lon="2.1200251">
        <ele>483.20004272</ele>
        <time>2022-10-30T08:05:06Z</time>
      </trkpt>
      <trkpt lat="41.4257706" lon="2.1199652">
        <ele>483.40005493</ele>
        <time>2022-10-30T08:05:07Z</time>
      </trkpt>
      <trkpt lat="41.4257617" lon="2.1199283">
        <ele>483.60006714</ele>
        <time>2022-10-30T08:05:08Z</time>
      </trkpt>
      <trkpt lat="41.4257548" lon="2.1198904">
        <ele>483.7600708</ele>
        <time>2022-10-30T08:05:09Z</time>
      </trkpt>
      <trkpt lat="41.4257459" lon="2.1198504">
        <ele>483.98007202</ele>
        <time>2022-10-30T08:05:10Z</time>
      </trkpt>
      <trkpt lat="41.4257409" lon="2.1197985">
        <ele>484.17007446</ele>
        <time>2022-10-30T08:05:11Z</time>
      </trkpt>
      <trkpt lat="41.425738" lon="2.1197635">
        <ele>484.38006592</ele>
        <time>2022-10-30T08:05:12Z</time>
      </trkpt>
      <trkpt lat="41.4257351" lon="2.1197345">
        <ele>484.60006714</ele>
        <time>2022-10-30T08:05:13Z</time>
      </trkpt>
      <trkpt lat="41.4257292" lon="2.1197075">
        <ele>484.78005981</ele>
        <time>2022-10-30T08:05:14Z</time>
      </trkpt>
      <trkpt lat="41.4257182" lon="2.1196766">
        <ele>484.98007202</ele>
        <time>2022-10-30T08:05:15Z</time>
      </trkpt>
      <trkpt lat="41.4257132" lon="2.1196627">
        <ele>485.14007568</ele>
        <time>2022-10-30T08:05:16Z</time>
      </trkpt>
      <trkpt lat="41.4257013" lon="2.1196467">
        <ele>485.24008179</ele>
        <time>2022-10-30T08:05:17Z</time>
      </trkpt>
      <trkpt lat="41.4256863" lon="2.1196257">
        <ele>485.35006714</ele>
        <time>2022-10-30T08:05:18Z</time>
      </trkpt>
      <trkpt lat="41.4256753" lon="2.1196078">
        <ele>485.46005249</ele>
        <time>2022-10-30T08:05:19Z</time>
      </trkpt>
      <trkpt lat="41.4256554" lon="2.1195818">
        <ele>485.62005615</ele>
        <time>2022-10-30T08:05:20Z</time>
      </trkpt>
      <trkpt lat="41.4256435" lon="2.1195678">
        <ele>485.80004883</ele>
        <time>2022-10-30T08:05:21Z</time>
      </trkpt>
      <trkpt lat="41.4256256" lon="2.1195569">
        <ele>485.97006226</ele>
        <time>2022-10-30T08:05:22Z</time>
      </trkpt>
      <trkpt lat="41.4256066" lon="2.119542">
        <ele>486.1100769</ele>
        <time>2022-10-30T08:05:23Z</time>
      </trkpt>
      <trkpt lat="41.4255916" lon="2.119531">
        <ele>486.22006226</ele>
        <time>2022-10-30T08:05:24Z</time>
      </trkpt>
      <trkpt lat="41.4255627" lon="2.1195161">
        <ele>486.3600769</ele>
        <time>2022-10-30T08:05:25Z</time>
      </trkpt>
      <trkpt lat="41.4255377" lon="2.1195102">
        <ele>486.48007202</ele>
        <time>2022-10-30T08:05:26Z</time>
      </trkpt>
      <trkpt lat="41.4255188" lon="2.1195002">
        <ele>486.6100769</ele>
        <time>2022-10-30T08:05:27Z</time>
      </trkpt>
      <trkpt lat="41.4254938" lon="2.1194962">
        <ele>486.77008057</ele>
        <time>2022-10-30T08:05:28Z</time>
      </trkpt>
      <trkpt lat="41.4254638" lon="2.1194892">
        <ele>486.95007324</ele>
        <time>2022-10-30T08:05:29Z</time>
      </trkpt>
      <trkpt lat="41.4254498" lon="2.1194883">
        <ele>487.07006836</ele>
        <time>2022-10-30T08:05:30Z</time>
      </trkpt>
      <trkpt lat="41.4254448" lon="2.1194723">
        <ele>487.18005371</ele>
        <time>2022-10-30T08:05:31Z</time>
      </trkpt>
      <trkpt lat="41.4254507" lon="2.1194643">
        <ele>487.24005127</ele>
        <time>2022-10-30T08:05:32Z</time>
      </trkpt>
      <trkpt lat="41.4254547" lon="2.1194603">
        <ele>487.29003906</ele>
        <time>2022-10-30T08:05:33Z</time>
      </trkpt>
      <trkpt lat="41.425474" lon="2.119438">
        <ele>487.36999512</ele>
        <time>2022-10-30T08:09:20Z</time>
      </trkpt>
      <trkpt lat="41.425493" lon="2.119424">
        <ele>487.29000854</ele>
        <time>2022-10-30T08:09:21Z</time>
      </trkpt>
      <trkpt lat="41.4255159" lon="2.1194001">
        <ele>487.22000122</ele>
        <time>2022-10-30T08:09:22Z</time>
      </trkpt>
      <trkpt lat="41.4255618" lon="2.1193701">
        <ele>487.1499939</ele>
        <time>2022-10-30T08:09:23Z</time>
      </trkpt>
      <trkpt lat="41.4255957" lon="2.1193432">
        <ele>487.16998291</ele>
        <time>2022-10-30T08:09:24Z</time>
      </trkpt>
      <trkpt lat="41.4256227" lon="2.1193032">
        <ele>486.94998169</ele>
        <time>2022-10-30T08:09:25Z</time>
      </trkpt>
      <trkpt lat="41.4256516" lon="2.1192633">
        <ele>485.98999023</ele>
        <time>2022-10-30T08:09:26Z</time>
      </trkpt>
      <trkpt lat="41.4256926" lon="2.1192143">
        <ele>485.22000122</ele>
        <time>2022-10-30T08:09:27Z</time>
      </trkpt>
      <trkpt lat="41.4257135" lon="2.1191723">
        <ele>484.07000732</ele>
        <time>2022-10-30T08:09:28Z</time>
      </trkpt>
      <trkpt lat="41.4257325" lon="2.1191284">
        <ele>483.1000061</ele>
        <time>2022-10-30T08:09:29Z</time>
      </trkpt>
      <trkpt lat="41.4257465" lon="2.1190625">
        <ele>482.27001953</ele>
        <time>2022-10-30T08:09:30Z</time>
      </trkpt>
      <trkpt lat="41.4257605" lon="2.1190066">
        <ele>481.3500061</ele>
        <time>2022-10-30T08:09:31Z</time>
      </trkpt>
      <trkpt lat="41.4257965" lon="2.1189467">
        <ele>480.48001099</ele>
        <time>2022-10-30T08:09:32Z</time>
      </trkpt>
      <trkpt lat="41.4258424" lon="2.1189407">
        <ele>479.76000977</ele>
        <time>2022-10-30T08:09:33Z</time>
      </trkpt>
      <trkpt lat="41.4258874" lon="2.1189417">
        <ele>479.25</ele>
        <time>2022-10-30T08:09:34Z</time>
      </trkpt>
      <trkpt lat="41.4259193" lon="2.1189168">
        <ele>478.91000366</ele>
        <time>2022-10-30T08:09:35Z</time>
      </trkpt>
      <trkpt lat="41.4259413" lon="2.1188848">
        <ele>478.86999512</ele>
        <time>2022-10-30T08:09:36Z</time>
      </trkpt>
      <trkpt lat="41.4259713" lon="2.1188518">
        <ele>478.6499939</ele>
        <time>2022-10-30T08:09:37Z</time>
      </trkpt>
      <trkpt lat="41.4259982" lon="2.1188209">
        <ele>478.3999939</ele>
        <time>2022-10-30T08:09:38Z</time>
      </trkpt>
      <trkpt lat="41.4260151" lon="2.1187889">
        <ele>477.97998047</ele>
        <time>2022-10-30T08:09:39Z</time>
      </trkpt>
      <trkpt lat="41.4260361" lon="2.1187539">
        <ele>477.35998535</ele>
        <time>2022-10-30T08:09:40Z</time>
      </trkpt>
      <trkpt lat="41.426073" lon="2.118698">
        <ele>476.55999756</ele>
        <time>2022-10-30T08:09:41Z</time>
      </trkpt>
      <trkpt lat="41.4261" lon="2.118658">
        <ele>475.51998901</ele>
        <time>2022-10-30T08:09:42Z</time>
      </trkpt>
      <trkpt lat="41.4261199" lon="2.1186211">
        <ele>474.19000244</ele>
        <time>2022-10-30T08:09:43Z</time>
      </trkpt>
      <trkpt lat="41.4261428" lon="2.1185832">
        <ele>472.80999756</ele>
        <time>2022-10-30T08:09:44Z</time>
      </trkpt>
      <trkpt lat="41.4261777" lon="2.1185263">
        <ele>471.19000244</ele>
        <time>2022-10-30T08:09:45Z</time>
      </trkpt>
      <trkpt lat="41.4261907" lon="2.1184803">
        <ele>469.67001343</ele>
        <time>2022-10-30T08:09:46Z</time>
      </trkpt>
      <trkpt lat="41.4261966" lon="2.1184414">
        <ele>468.29000854</ele>
        <time>2022-10-30T08:09:47Z</time>
      </trkpt>
      <trkpt lat="41.4262145" lon="2.1184064">
        <ele>466.80001831</ele>
        <time>2022-10-30T08:09:48Z</time>
      </trkpt>
      <trkpt lat="41.4262315" lon="2.1183634">
        <ele>465.27001953</ele>
        <time>2022-10-30T08:09:49Z</time>
      </trkpt>
      <trkpt lat="41.4262454" lon="2.1182985">
        <ele>463.89001465</ele>
        <time>2022-10-30T08:09:50Z</time>
      </trkpt>
      <trkpt lat="41.4262474" lon="2.1182435">
        <ele>462.64001465</ele>
        <time>2022-10-30T08:09:51Z</time>
      </trkpt>
      <trkpt lat="41.4262574" lon="2.1181825">
        <ele>461.22000122</ele>
        <time>2022-10-30T08:09:52Z</time>
      </trkpt>
      <trkpt lat="41.4262693" lon="2.1181296">
        <ele>460.02999878</ele>
        <time>2022-10-30T08:09:53Z</time>
      </trkpt>
      <trkpt lat="41.4262484" lon="2.1180417">
        <ele>458.8500061</ele>
        <time>2022-10-30T08:09:54Z</time>
      </trkpt>
      <trkpt lat="41.4262454" lon="2.1179827">
        <ele>457.67001343</ele>
        <time>2022-10-30T08:09:55Z</time>
      </trkpt>
      <trkpt lat="41.4262524" lon="2.1179458">
        <ele>456.93002319</ele>
        <time>2022-10-30T08:09:56Z</time>
      </trkpt>
      <trkpt lat="41.4262604" lon="2.1179179">
        <ele>456.45001221</ele>
        <time>2022-10-30T08:09:57Z</time>
      </trkpt>
      <trkpt lat="41.4262584" lon="2.117896">
        <ele>456.11001587</ele>
        <time>2022-10-30T08:09:58Z</time>
      </trkpt>
      <trkpt lat="41.42615" lon="2.117732">
        <ele>455.76000977</ele>
        <time>2022-10-30T08:10:27Z</time>
      </trkpt>
      <trkpt lat="41.426139" lon="2.1177339">
        <ele>455.64001465</ele>
        <time>2022-10-30T08:10:28Z</time>
      </trkpt>
      <trkpt lat="41.426128" lon="2.1177239">
        <ele>455.48001099</ele>
        <time>2022-10-30T08:10:29Z</time>
      </trkpt>
      <trkpt lat="41.4261221" lon="2.117697">
        <ele>455.25</ele>
        <time>2022-10-30T08:10:30Z</time>
      </trkpt>
      <trkpt lat="41.4261132" lon="2.117649">
        <ele>454.95999146</ele>
        <time>2022-10-30T08:10:31Z</time>
      </trkpt>
      <trkpt lat="41.4260942" lon="2.117617">
        <ele>454.72998047</ele>
        <time>2022-10-30T08:10:32Z</time>
      </trkpt>
      <trkpt lat="41.4260853" lon="2.117577">
        <ele>454.49996948</ele>
        <time>2022-10-30T08:10:33Z</time>
      </trkpt>
      <trkpt lat="41.4260824" lon="2.1175331">
        <ele>454.33996582</ele>
        <time>2022-10-30T08:10:34Z</time>
      </trkpt>
      <trkpt lat="41.4260675" lon="2.1174691">
        <ele>454.20996094</ele>
        <time>2022-10-30T08:10:35Z</time>
      </trkpt>
      <trkpt lat="41.4260575" lon="2.1174222">
        <ele>453.98995972</ele>
        <time>2022-10-30T08:10:36Z</time>
      </trkpt>
      <trkpt lat="41.4260366" lon="2.1173612">
        <ele>453.68997192</ele>
        <time>2022-10-30T08:10:37Z</time>
      </trkpt>
      <trkpt lat="41.4260346" lon="2.1172923">
        <ele>453.28997803</ele>
        <time>2022-10-30T08:10:38Z</time>
      </trkpt>
      <trkpt lat="41.4260296" lon="2.1172183">
        <ele>452.8699646</ele>
        <time>2022-10-30T08:10:39Z</time>
      </trkpt>
      <trkpt lat="41.4260276" lon="2.1171034">
        <ele>452.42996216</ele>
        <time>2022-10-30T08:10:40Z</time>
      </trkpt>
      <trkpt lat="41.4260396" lon="2.1170305">
        <ele>451.99996948</ele>
        <time>2022-10-30T08:10:41Z</time>
      </trkpt>
      <trkpt lat="41.4260445" lon="2.1169535">
        <ele>451.65997314</ele>
        <time>2022-10-30T08:10:42Z</time>
      </trkpt>
      <trkpt lat="41.4260644" lon="2.1168825">
        <ele>451.3699646</ele>
        <time>2022-10-30T08:10:43Z</time>
      </trkpt>
      <trkpt lat="41.4260794" lon="2.1167886">
        <ele>451.13995361</ele>
        <time>2022-10-30T08:10:44Z</time>
      </trkpt>
      <trkpt lat="41.4260913" lon="2.1167356">
        <ele>451.03994751</ele>
        <time>2022-10-30T08:10:45Z</time>
      </trkpt>
      <trkpt lat="41.4261023" lon="2.1166807">
        <ele>451.03994751</ele>
        <time>2022-10-30T08:10:46Z</time>
      </trkpt>
      <trkpt lat="41.4261213" lon="2.1166347">
        <ele>451.02993774</ele>
        <time>2022-10-30T08:10:47Z</time>
      </trkpt>
      <trkpt lat="41.4261493" lon="2.1165927">
        <ele>451.09994507</ele>
        <time>2022-10-30T08:10:48Z</time>
      </trkpt>
      <trkpt lat="41.4261692" lon="2.1165698">
        <ele>451.18994141</ele>
        <time>2022-10-30T08:10:49Z</time>
      </trkpt>
      <trkpt lat="41.4261882" lon="2.1165428">
        <ele>451.26992798</ele>
        <time>2022-10-30T08:10:50Z</time>
      </trkpt>
      <trkpt lat="41.4262011" lon="2.1165059">
        <ele>451.34991455</ele>
        <time>2022-10-30T08:10:51Z</time>
      </trkpt>
      <trkpt lat="41.4262051" lon="2.1164549">
        <ele>451.36990356</ele>
        <time>2022-10-30T08:10:52Z</time>
      </trkpt>
      <trkpt lat="41.4262331" lon="2.1163989">
        <ele>451.21990967</ele>
        <time>2022-10-30T08:10:53Z</time>
      </trkpt>
      <trkpt lat="41.426263" lon="2.116372">
        <ele>450.8899231</ele>
        <time>2022-10-30T08:10:54Z</time>
      </trkpt>
      <trkpt lat="41.426296" lon="2.116336">
        <ele>450.4899292</ele>
        <time>2022-10-30T08:10:55Z</time>
      </trkpt>
      <trkpt lat="41.426332" lon="2.1162961">
        <ele>449.93994141</ele>
        <time>2022-10-30T08:10:56Z</time>
      </trkpt>
      <trkpt lat="41.4263819" lon="2.1162091">
        <ele>449.44995117</ele>
        <time>2022-10-30T08:10:57Z</time>
      </trkpt>
      <trkpt lat="41.4264059" lon="2.1161442">
        <ele>448.99993896</ele>
        <time>2022-10-30T08:10:58Z</time>
      </trkpt>
      <trkpt lat="41.4264249" lon="2.1160832">
        <ele>448.5899353</ele>
        <time>2022-10-30T08:10:59Z</time>
      </trkpt>
      <trkpt lat="41.4264348" lon="2.1160132">
        <ele>448.29992676</ele>
        <time>2022-10-30T08:11:00Z</time>
      </trkpt>
      <trkpt lat="41.4264329" lon="2.1159413">
        <ele>447.9899292</ele>
        <time>2022-10-30T08:11:01Z</time>
      </trkpt>
      <trkpt lat="41.4264219" lon="2.1158274">
        <ele>447.67993164</ele>
        <time>2022-10-30T08:11:02Z</time>
      </trkpt>
      <trkpt lat="41.4264199" lon="2.1157534">
        <ele>447.34994507</ele>
        <time>2022-10-30T08:11:03Z</time>
      </trkpt>
      <trkpt lat="41.4264268" lon="2.1156954">
        <ele>447.0899353</ele>
        <time>2022-10-30T08:11:04Z</time>
      </trkpt>
      <trkpt lat="41.4264298" lon="2.1156404">
        <ele>446.91992188</ele>
        <time>2022-10-30T08:11:05Z</time>
      </trkpt>
      <trkpt lat="41.4264437" lon="2.1155665">
        <ele>446.71990967</ele>
        <time>2022-10-30T08:11:06Z</time>
      </trkpt>
      <trkpt lat="41.4264537" lon="2.1155416">
        <ele>446.55990601</ele>
        <time>2022-10-30T08:11:07Z</time>
      </trkpt>
      <trkpt lat="41.4264626" lon="2.1155227">
        <ele>446.3598938</ele>
        <time>2022-10-30T08:11:08Z</time>
      </trkpt>
      <trkpt lat="41.4264655" lon="2.1155047">
        <ele>446.1098938</ele>
        <time>2022-10-30T08:11:09Z</time>
      </trkpt>
      <trkpt lat="41.4264545" lon="2.1154768">
        <ele>446.0098877</ele>
        <time>2022-10-30T08:11:10Z</time>
      </trkpt>
      <trkpt lat="41.426464" lon="2.115409">
        <ele>445.76000977</ele>
        <time>2022-10-30T08:12:03Z</time>
      </trkpt>
      <trkpt lat="41.4264769" lon="2.1153941">
        <ele>445.65002441</ele>
        <time>2022-10-30T08:12:04Z</time>
      </trkpt>
      <trkpt lat="41.4264899" lon="2.1153541">
        <ele>445.51000977</ele>
        <time>2022-10-30T08:12:05Z</time>
      </trkpt>
      <trkpt lat="41.4264899" lon="2.1153082">
        <ele>445.27001953</ele>
        <time>2022-10-30T08:12:06Z</time>
      </trkpt>
      <trkpt lat="41.4264849" lon="2.1152543">
        <ele>444.82000732</ele>
        <time>2022-10-30T08:12:07Z</time>
      </trkpt>
      <trkpt lat="41.426475" lon="2.1151983">
        <ele>444.21002197</ele>
        <time>2022-10-30T08:12:08Z</time>
      </trkpt>
      <trkpt lat="41.426448" lon="2.1151464">
        <ele>443.50003052</ele>
        <time>2022-10-30T08:12:09Z</time>
      </trkpt>
      <trkpt lat="41.4264001" lon="2.1150744">
        <ele>442.6300354</ele>
        <time>2022-10-30T08:12:10Z</time>
      </trkpt>
      <trkpt lat="41.4263731" lon="2.1150405">
        <ele>441.71002197</ele>
        <time>2022-10-30T08:12:11Z</time>
      </trkpt>
      <trkpt lat="41.4263442" lon="2.1150135">
        <ele>440.73001099</ele>
        <time>2022-10-30T08:12:12Z</time>
      </trkpt>
      <trkpt lat="41.4263183" lon="2.1149886">
        <ele>439.77999878</ele>
        <time>2022-10-30T08:12:13Z</time>
      </trkpt>
      <trkpt lat="41.4262644" lon="2.1149477">
        <ele>438.98999023</ele>
        <time>2022-10-30T08:12:14Z</time>
      </trkpt>
      <trkpt lat="41.4262304" lon="2.1149148">
        <ele>438.27999878</ele>
        <time>2022-10-30T08:12:15Z</time>
      </trkpt>
      <trkpt lat="41.4261965" lon="2.1148748">
        <ele>437.5</ele>
        <time>2022-10-30T08:12:16Z</time>
      </trkpt>
      <trkpt lat="41.4261536" lon="2.1148309">
        <ele>436.66000366</ele>
        <time>2022-10-30T08:12:17Z</time>
      </trkpt>
      <trkpt lat="41.4260636" lon="2.114797">
        <ele>435.70001221</ele>
        <time>2022-10-30T08:12:18Z</time>
      </trkpt>
      <trkpt lat="41.4260007" lon="2.114763">
        <ele>434.83001709</ele>
        <time>2022-10-30T08:12:19Z</time>
      </trkpt>
      <trkpt lat="41.4259207" lon="2.1147401">
        <ele>434.26000977</ele>
        <time>2022-10-30T08:12:20Z</time>
      </trkpt>
      <trkpt lat="41.4258388" lon="2.1147022">
        <ele>433.33001709</ele>
        <time>2022-10-30T08:12:21Z</time>
      </trkpt>
      <trkpt lat="41.4257739" lon="2.1146782">
        <ele>432.64001465</ele>
        <time>2022-10-30T08:12:22Z</time>
      </trkpt>
      <trkpt lat="41.425681" lon="2.1146383">
        <ele>431.83001709</ele>
        <time>2022-10-30T08:12:23Z</time>
      </trkpt>
      <trkpt lat="41.4256211" lon="2.1146253">
        <ele>430.99002075</ele>
        <time>2022-10-30T08:12:24Z</time>
      </trkpt>
      <trkpt lat="41.4255691" lon="2.1146093">
        <ele>430.44003296</ele>
        <time>2022-10-30T08:12:25Z</time>
      </trkpt>
      <trkpt lat="41.4254902" lon="2.1145853">
        <ele>429.61004639</ele>
        <time>2022-10-30T08:12:26Z</time>
      </trkpt>
      <trkpt lat="41.4254062" lon="2.1145304">
        <ele>429.05004883</ele>
        <time>2022-10-30T08:12:27Z</time>
      </trkpt>
      <trkpt lat="41.4253823" lon="2.1144554">
        <ele>427.99005127</ele>
        <time>2022-10-30T08:12:28Z</time>
      </trkpt>
      <trkpt lat="41.4253254" lon="2.1143895">
        <ele>427.14004517</ele>
        <time>2022-10-30T08:12:29Z</time>
      </trkpt>
      <trkpt lat="41.4252914" lon="2.1143296">
        <ele>426.40005493</ele>
        <time>2022-10-30T08:12:30Z</time>
      </trkpt>
      <trkpt lat="41.4252565" lon="2.1142547">
        <ele>425.45004272</ele>
        <time>2022-10-30T08:12:31Z</time>
      </trkpt>
      <trkpt lat="41.4252125" lon="2.1141408">
        <ele>424.80004883</ele>
        <time>2022-10-30T08:12:32Z</time>
      </trkpt>
      <trkpt lat="41.4251836" lon="2.1140648">
        <ele>423.85003662</ele>
        <time>2022-10-30T08:12:33Z</time>
      </trkpt>
      <trkpt lat="41.4251756" lon="2.1140049">
        <ele>423.14004517</ele>
        <time>2022-10-30T08:12:34Z</time>
      </trkpt>
      <trkpt lat="41.4252095" lon="2.113927">
        <ele>422.17004395</ele>
        <time>2022-10-30T08:12:35Z</time>
      </trkpt>
      <trkpt lat="41.4252255" lon="2.1138711">
        <ele>421.29003906</ele>
        <time>2022-10-30T08:12:36Z</time>
      </trkpt>
      <trkpt lat="41.4252395" lon="2.1138151">
        <ele>420.60003662</ele>
        <time>2022-10-30T08:12:37Z</time>
      </trkpt>
      <trkpt lat="41.4252434" lon="2.1137842">
        <ele>419.70004272</ele>
        <time>2022-10-30T08:12:38Z</time>
      </trkpt>
      <trkpt lat="41.4252425" lon="2.1137753">
        <ele>419.17004395</ele>
        <time>2022-10-30T08:12:39Z</time>
      </trkpt>
      <trkpt lat="41.4252216" lon="2.1137523">
        <ele>418.64004517</ele>
        <time>2022-10-30T08:12:40Z</time>
      </trkpt>
      <trkpt lat="41.4251856" lon="2.1137163">
        <ele>418.10003662</ele>
        <time>2022-10-30T08:12:41Z</time>
      </trkpt>
      <trkpt lat="41.4251666" lon="2.1137014">
        <ele>417.66003418</ele>
        <time>2022-10-30T08:12:42Z</time>
      </trkpt>
      <trkpt lat="41.4251437" lon="2.1136854">
        <ele>417.10003662</ele>
        <time>2022-10-30T08:12:43Z</time>
      </trkpt>
      <trkpt lat="41.4251257" lon="2.1136624">
        <ele>416.45004272</ele>
        <time>2022-10-30T08:12:44Z</time>
      </trkpt>
      <trkpt lat="41.4250968" lon="2.1136535">
        <ele>415.66003418</ele>
        <time>2022-10-30T08:12:45Z</time>
      </trkpt>
      <trkpt lat="41.4250828" lon="2.1136665">
        <ele>414.77001953</ele>
        <time>2022-10-30T08:12:46Z</time>
      </trkpt>
      <trkpt lat="41.4250709" lon="2.1136835">
        <ele>413.93002319</ele>
        <time>2022-10-30T08:12:47Z</time>
      </trkpt>
      <trkpt lat="41.425051" lon="2.1136965">
        <ele>413.17001343</ele>
        <time>2022-10-30T08:12:48Z</time>
      </trkpt>
      <trkpt lat="41.425021" lon="2.1137034">
        <ele>412.3500061</ele>
        <time>2022-10-30T08:12:49Z</time>
      </trkpt>
      <trkpt lat="41.425019" lon="2.113701">
        <ele>412.1499939</ele>
        <time>2022-10-30T08:12:49Z</time>
      </trkpt>
      <trkpt lat="41.4249451" lon="2.113685">
        <ele>410.52999878</ele>
        <time>2022-10-30T08:12:51Z</time>
      </trkpt>
      <trkpt lat="41.4249351" lon="2.1136811">
        <ele>409.73001099</ele>
        <time>2022-10-30T08:12:52Z</time>
      </trkpt>
      <trkpt lat="41.4249211" lon="2.1136771">
        <ele>409.04000854</ele>
        <time>2022-10-30T08:12:53Z</time>
      </trkpt>
      <trkpt lat="41.4248972" lon="2.1136661">
        <ele>408.39001465</ele>
        <time>2022-10-30T08:12:54Z</time>
      </trkpt>
      <trkpt lat="41.4248782" lon="2.1136522">
        <ele>407.76000977</ele>
        <time>2022-10-30T08:12:55Z</time>
      </trkpt>
      <trkpt lat="41.4248553" lon="2.1136412">
        <ele>406.90002441</ele>
        <time>2022-10-30T08:12:56Z</time>
      </trkpt>
      <trkpt lat="41.4248244" lon="2.1136213">
        <ele>405.94003296</ele>
        <time>2022-10-30T08:12:57Z</time>
      </trkpt>
      <trkpt lat="41.4247864" lon="2.1135903">
        <ele>404.6300354</ele>
        <time>2022-10-30T08:12:58Z</time>
      </trkpt>
      <trkpt lat="41.4247605" lon="2.1135393">
        <ele>403.06002808</ele>
        <time>2022-10-30T08:12:59Z</time>
      </trkpt>
      <trkpt lat="41.4247385" lon="2.1135073">
        <ele>401.90002441</ele>
        <time>2022-10-30T08:13:00Z</time>
      </trkpt>
      <trkpt lat="41.4247135" lon="2.1134794">
        <ele>400.67001343</ele>
        <time>2022-10-30T08:13:01Z</time>
      </trkpt>
      <trkpt lat="41.4246876" lon="2.1134474">
        <ele>399.55001831</ele>
        <time>2022-10-30T08:13:02Z</time>
      </trkpt>
      <trkpt lat="41.4246227" lon="2.1133935">
        <ele>398.43002319</ele>
        <time>2022-10-30T08:13:03Z</time>
      </trkpt>
      <trkpt lat="41.4246108" lon="2.1133506">
        <ele>396.93002319</ele>
        <time>2022-10-30T08:13:04Z</time>
      </trkpt>
      <trkpt lat="41.4245838" lon="2.1133076">
        <ele>395.47003174</ele>
        <time>2022-10-30T08:13:05Z</time>
      </trkpt>
      <trkpt lat="41.4245588" lon="2.1132647">
        <ele>393.97003174</ele>
        <time>2022-10-30T08:13:06Z</time>
      </trkpt>
      <trkpt lat="41.4245308" lon="2.1132217">
        <ele>392.44003296</ele>
        <time>2022-10-30T08:13:07Z</time>
      </trkpt>
      <trkpt lat="41.4244909" lon="2.1131808">
        <ele>391.04003906</ele>
        <time>2022-10-30T08:13:08Z</time>
      </trkpt>
      <trkpt lat="41.424451" lon="2.1131509">
        <ele>389.8800354</ele>
        <time>2022-10-30T08:13:09Z</time>
      </trkpt>
      <trkpt lat="41.4244081" lon="2.113136">
        <ele>388.7300415</ele>
        <time>2022-10-30T08:13:10Z</time>
      </trkpt>
      <trkpt lat="41.4243721" lon="2.113127">
        <ele>387.8800354</ele>
        <time>2022-10-30T08:13:11Z</time>
      </trkpt>
      <trkpt lat="41.4243231" lon="2.1130861">
        <ele>387.00003052</ele>
        <time>2022-10-30T08:13:12Z</time>
      </trkpt>
      <trkpt lat="41.4242842" lon="2.1130212">
        <ele>385.94003296</ele>
        <time>2022-10-30T08:13:13Z</time>
      </trkpt>
      <trkpt lat="41.4242602" lon="2.1129613">
        <ele>385.04003906</ele>
        <time>2022-10-30T08:13:14Z</time>
      </trkpt>
      <trkpt lat="41.4242543" lon="2.1129163">
        <ele>384.26004028</ele>
        <time>2022-10-30T08:13:15Z</time>
      </trkpt>
      <trkpt lat="41.4242493" lon="2.1128683">
        <ele>383.37002563</ele>
        <time>2022-10-30T08:13:16Z</time>
      </trkpt>
      <trkpt lat="41.4242064" lon="2.1127764">
        <ele>382.51004028</ele>
        <time>2022-10-30T08:13:17Z</time>
      </trkpt>
      <trkpt lat="41.4241734" lon="2.1127094">
        <ele>381.69003296</ele>
        <time>2022-10-30T08:13:18Z</time>
      </trkpt>
      <trkpt lat="41.4241445" lon="2.1126365">
        <ele>380.67004395</ele>
        <time>2022-10-30T08:13:19Z</time>
      </trkpt>
      <trkpt lat="41.4241216" lon="2.1125745">
        <ele>379.59005737</ele>
        <time>2022-10-30T08:13:20Z</time>
      </trkpt>
      <trkpt lat="41.4240926" lon="2.1125156">
        <ele>378.89004517</ele>
        <time>2022-10-30T08:13:21Z</time>
      </trkpt>
      <trkpt lat="41.4240557" lon="2.1124497">
        <ele>377.89004517</ele>
        <time>2022-10-30T08:13:22Z</time>
      </trkpt>
      <trkpt lat="41.4240498" lon="2.1123998">
        <ele>376.72003174</ele>
        <time>2022-10-30T08:13:23Z</time>
      </trkpt>
      <trkpt lat="41.4240379" lon="2.1123578">
        <ele>375.80001831</ele>
        <time>2022-10-30T08:13:24Z</time>
      </trkpt>
      <trkpt lat="41.4240219" lon="2.1123208">
        <ele>374.64001465</ele>
        <time>2022-10-30T08:13:25Z</time>
      </trkpt>
      <trkpt lat="41.423971" lon="2.1122409">
        <ele>373.64001465</ele>
        <time>2022-10-30T08:13:26Z</time>
      </trkpt>
      <trkpt lat="41.423926" lon="2.1121849">
        <ele>372.74002075</ele>
        <time>2022-10-30T08:13:27Z</time>
      </trkpt>
      <trkpt lat="41.4238951" lon="2.112151">
        <ele>371.67001343</ele>
        <time>2022-10-30T08:13:28Z</time>
      </trkpt>
      <trkpt lat="41.4238681" lon="2.112109">
        <ele>370.55001831</ele>
        <time>2022-10-30T08:13:29Z</time>
      </trkpt>
      <trkpt lat="41.4238572" lon="2.112073">
        <ele>369.54000854</ele>
        <time>2022-10-30T08:13:30Z</time>
      </trkpt>
      <trkpt lat="41.4238222" lon="2.1120301">
        <ele>368.95001221</ele>
        <time>2022-10-30T08:13:31Z</time>
      </trkpt>
      <trkpt lat="41.4238032" lon="2.1120131">
        <ele>368.41000366</ele>
        <time>2022-10-30T08:13:32Z</time>
      </trkpt>
      <trkpt lat="41.4237793" lon="2.1119802">
        <ele>367.92001343</ele>
        <time>2022-10-30T08:13:33Z</time>
      </trkpt>
      <trkpt lat="41.4237663" lon="2.1119393">
        <ele>367.42001343</ele>
        <time>2022-10-30T08:13:34Z</time>
      </trkpt>
      <trkpt lat="41.4237344" lon="2.1118943">
        <ele>366.68002319</ele>
        <time>2022-10-30T08:13:35Z</time>
      </trkpt>
      <trkpt lat="41.4237024" lon="2.1118713">
        <ele>366.15002441</ele>
        <time>2022-10-30T08:13:36Z</time>
      </trkpt>
      <trkpt lat="41.4236805" lon="2.1118483">
        <ele>365.5300293</ele>
        <time>2022-10-30T08:13:37Z</time>
      </trkpt>
      <trkpt lat="41.4236695" lon="2.1118214">
        <ele>365.04003906</ele>
        <time>2022-10-30T08:13:38Z</time>
      </trkpt>
      <trkpt lat="41.4236575" lon="2.1117974">
        <ele>364.46005249</ele>
        <time>2022-10-30T08:13:39Z</time>
      </trkpt>
      <trkpt lat="41.4236076" lon="2.1117675">
        <ele>363.77005005</ele>
        <time>2022-10-30T08:13:40Z</time>
      </trkpt>
      <trkpt lat="41.4235786" lon="2.1117465">
        <ele>363.1300354</ele>
        <time>2022-10-30T08:13:41Z</time>
      </trkpt>
      <trkpt lat="41.4235407" lon="2.1117086">
        <ele>362.25003052</ele>
        <time>2022-10-30T08:13:42Z</time>
      </trkpt>
      <trkpt lat="41.4235057" lon="2.1116697">
        <ele>361.31002808</ele>
        <time>2022-10-30T08:13:43Z</time>
      </trkpt>
      <trkpt lat="41.4234768" lon="2.1116087">
        <ele>360.47003174</ele>
        <time>2022-10-30T08:13:44Z</time>
      </trkpt>
      <trkpt lat="41.4234518" lon="2.1115708">
        <ele>359.2300415</ele>
        <time>2022-10-30T08:13:45Z</time>
      </trkpt>
      <trkpt lat="41.4234319" lon="2.1115478">
        <ele>358.18005371</ele>
        <time>2022-10-30T08:13:46Z</time>
      </trkpt>
      <trkpt lat="41.423422" lon="2.1115169">
        <ele>357.24005127</ele>
        <time>2022-10-30T08:13:47Z</time>
      </trkpt>
      <trkpt lat="41.423409" lon="2.1114799">
        <ele>356.14004517</ele>
        <time>2022-10-30T08:13:48Z</time>
      </trkpt>
      <trkpt lat="41.4234001" lon="2.111436">
        <ele>355.25003052</ele>
        <time>2022-10-30T08:13:49Z</time>
      </trkpt>
      <trkpt lat="41.4233991" lon="2.1114141">
        <ele>354.22003174</ele>
        <time>2022-10-30T08:13:50Z</time>
      </trkpt>
      <trkpt lat="41.4234101" lon="2.1114022">
        <ele>353.20004272</ele>
        <time>2022-10-30T08:13:51Z</time>
      </trkpt>
      <trkpt lat="41.4234201" lon="2.1113912">
        <ele>352.2800293</ele>
        <time>2022-10-30T08:13:52Z</time>
      </trkpt>
      <trkpt lat="41.4234361" lon="2.1113663">
        <ele>351.55001831</ele>
        <time>2022-10-30T08:13:53Z</time>
      </trkpt>
      <trkpt lat="41.423443" lon="2.1113484">
        <ele>351.04000854</ele>
        <time>2022-10-30T08:13:54Z</time>
      </trkpt>
      <trkpt lat="41.423445" lon="2.1113344">
        <ele>350.6499939</ele>
        <time>2022-10-30T08:13:55Z</time>
      </trkpt>
      <trkpt lat="41.423444" lon="2.1113265">
        <ele>350.32000732</ele>
        <time>2022-10-30T08:13:56Z</time>
      </trkpt>
      <trkpt lat="41.4234409" lon="2.111323">
        <ele>350.01998901</ele>
        <time>2022-10-30T08:13:56Z</time>
      </trkpt>
      <trkpt lat="41.423273" lon="2.111274">
        <ele>349.32998657</ele>
        <time>2022-10-30T08:14:22Z</time>
      </trkpt>
      <trkpt lat="41.4232561" lon="2.1112711">
        <ele>349.16998291</ele>
        <time>2022-10-30T08:14:23Z</time>
      </trkpt>
      <trkpt lat="41.4232332" lon="2.1112492">
        <ele>348.82998657</ele>
        <time>2022-10-30T08:14:24Z</time>
      </trkpt>
      <trkpt lat="41.4232152" lon="2.1112362">
        <ele>348.18997192</ele>
        <time>2022-10-30T08:14:25Z</time>
      </trkpt>
      <trkpt lat="41.4231822" lon="2.1112153">
        <ele>347.28997803</ele>
        <time>2022-10-30T08:14:26Z</time>
      </trkpt>
      <trkpt lat="41.4231413" lon="2.1111993">
        <ele>346.30996704</ele>
        <time>2022-10-30T08:14:27Z</time>
      </trkpt>
      <trkpt lat="41.4231033" lon="2.1111814">
        <ele>345.33996582</ele>
        <time>2022-10-30T08:14:28Z</time>
      </trkpt>
      <trkpt lat="41.4230484" lon="2.1111534">
        <ele>344.54995728</ele>
        <time>2022-10-30T08:14:29Z</time>
      </trkpt>
      <trkpt lat="41.4230145" lon="2.1111225">
        <ele>343.69995117</ele>
        <time>2022-10-30T08:14:30Z</time>
      </trkpt>
      <trkpt lat="41.4229825" lon="2.1110916">
        <ele>343.12994385</ele>
        <time>2022-10-30T08:14:31Z</time>
      </trkpt>
      <trkpt lat="41.4229426" lon="2.1110516">
        <ele>342.3399353</ele>
        <time>2022-10-30T08:14:32Z</time>
      </trkpt>
      <trkpt lat="41.4229096" lon="2.1110077">
        <ele>341.37994385</ele>
        <time>2022-10-30T08:14:33Z</time>
      </trkpt>
      <trkpt lat="41.4228637" lon="2.1109558">
        <ele>340.65994263</ele>
        <time>2022-10-30T08:14:34Z</time>
      </trkpt>
      <trkpt lat="41.4228357" lon="2.1109288">
        <ele>339.37994385</ele>
        <time>2022-10-30T08:14:35Z</time>
      </trkpt>
      <trkpt lat="41.4227978" lon="2.1108968">
        <ele>338.02993774</ele>
        <time>2022-10-30T08:14:36Z</time>
      </trkpt>
      <trkpt lat="41.4227588" lon="2.1108559">
        <ele>336.79992676</ele>
        <time>2022-10-30T08:14:37Z</time>
      </trkpt>
      <trkpt lat="41.4227198" lon="2.110778">
        <ele>335.42993164</ele>
        <time>2022-10-30T08:14:38Z</time>
      </trkpt>
      <trkpt lat="41.4227008" lon="2.11071">
        <ele>334.40994263</ele>
        <time>2022-10-30T08:14:39Z</time>
      </trkpt>
      <trkpt lat="41.4226919" lon="2.1106561">
        <ele>333.34994507</ele>
        <time>2022-10-30T08:14:40Z</time>
      </trkpt>
      <trkpt lat="41.422675" lon="2.1106111">
        <ele>332.43994141</ele>
        <time>2022-10-30T08:14:41Z</time>
      </trkpt>
      <trkpt lat="41.422656" lon="2.1105702">
        <ele>331.35995483</ele>
        <time>2022-10-30T08:14:42Z</time>
      </trkpt>
      <trkpt lat="41.4226241" lon="2.1105083">
        <ele>330.16995239</ele>
        <time>2022-10-30T08:14:43Z</time>
      </trkpt>
      <trkpt lat="41.4226091" lon="2.1104613">
        <ele>329.19995117</ele>
        <time>2022-10-30T08:14:44Z</time>
      </trkpt>
      <trkpt lat="41.4226052" lon="2.1104194">
        <ele>327.93994141</ele>
        <time>2022-10-30T08:14:45Z</time>
      </trkpt>
      <trkpt lat="41.4225862" lon="2.1103864">
        <ele>327.06994629</ele>
        <time>2022-10-30T08:14:46Z</time>
      </trkpt>
      <trkpt lat="41.4225343" lon="2.1103314">
        <ele>326.0899353</ele>
        <time>2022-10-30T08:14:47Z</time>
      </trkpt>
      <trkpt lat="41.4224893" lon="2.1102885">
        <ele>325.20993042</ele>
        <time>2022-10-30T08:14:48Z</time>
      </trkpt>
      <trkpt lat="41.4224483" lon="2.1102495">
        <ele>324.55993652</ele>
        <time>2022-10-30T08:14:49Z</time>
      </trkpt>
      <trkpt lat="41.4224063" lon="2.1102156">
        <ele>323.76992798</ele>
        <time>2022-10-30T08:14:50Z</time>
      </trkpt>
      <trkpt lat="41.4223884" lon="2.1101736">
        <ele>323.15994263</ele>
        <time>2022-10-30T08:14:51Z</time>
      </trkpt>
      <trkpt lat="41.4223934" lon="2.1101557">
        <ele>322.63995361</ele>
        <time>2022-10-30T08:14:52Z</time>
      </trkpt>
      <trkpt lat="41.4224033" lon="2.1101468">
        <ele>322.22994995</ele>
        <time>2022-10-30T08:14:53Z</time>
      </trkpt>
      <trkpt lat="41.4224122" lon="2.1101428">
        <ele>322.04995728</ele>
        <time>2022-10-30T08:14:54Z</time>
      </trkpt>
      <trkpt lat="41.4224113" lon="2.1101369">
        <ele>322.04995728</ele>
        <time>2022-10-30T08:14:55Z</time>
      </trkpt>
      <trkpt lat="41.422344" lon="2.110106">
        <ele>321.89001465</ele>
        <time>2022-10-30T08:15:16Z</time>
      </trkpt>
      <trkpt lat="41.4223589" lon="2.11012">
        <ele>321.82000732</ele>
        <time>2022-10-30T08:15:17Z</time>
      </trkpt>
      <trkpt lat="41.4223859" lon="2.1101349">
        <ele>321.6499939</ele>
        <time>2022-10-30T08:15:18Z</time>
      </trkpt>
      <trkpt lat="41.4224268" lon="2.1101488">
        <ele>321.47998047</ele>
        <time>2022-10-30T08:15:19Z</time>
      </trkpt>
      <trkpt lat="41.4224607" lon="2.1101668">
        <ele>321.17999268</ele>
        <time>2022-10-30T08:15:20Z</time>
      </trkpt>
      <trkpt lat="41.4224946" lon="2.1101917">
        <ele>320.88000488</ele>
        <time>2022-10-30T08:15:21Z</time>
      </trkpt>
      <trkpt lat="41.4225336" lon="2.1102126">
        <ele>320.58001709</ele>
        <time>2022-10-30T08:15:22Z</time>
      </trkpt>
      <trkpt lat="41.4225905" lon="2.1102446">
        <ele>320.24002075</ele>
        <time>2022-10-30T08:15:23Z</time>
      </trkpt>
      <trkpt lat="41.4226235" lon="2.1102635">
        <ele>319.91003418</ele>
        <time>2022-10-30T08:15:24Z</time>
      </trkpt>
      <trkpt lat="41.4226655" lon="2.1102914">
        <ele>319.50003052</ele>
        <time>2022-10-30T08:15:25Z</time>
      </trkpt>
      <trkpt lat="41.4227065" lon="2.1103084">
        <ele>319.08001709</ele>
        <time>2022-10-30T08:15:26Z</time>
      </trkpt>
      <trkpt lat="41.4227774" lon="2.1103374">
        <ele>318.65002441</ele>
        <time>2022-10-30T08:15:27Z</time>
      </trkpt>
      <trkpt lat="41.4228134" lon="2.1103623">
        <ele>318.19003296</ele>
        <time>2022-10-30T08:15:28Z</time>
      </trkpt>
      <trkpt lat="41.4228433" lon="2.1103763">
        <ele>317.7300415</ele>
        <time>2022-10-30T08:15:29Z</time>
      </trkpt>
      <trkpt lat="41.4228742" lon="2.1103653">
        <ele>317.34002686</ele>
        <time>2022-10-30T08:15:30Z</time>
      </trkpt>
      <trkpt lat="41.4229051" lon="2.1103434">
        <ele>316.99002075</ele>
        <time>2022-10-30T08:15:31Z</time>
      </trkpt>
      <trkpt lat="41.4229501" lon="2.1102914">
        <ele>316.67001343</ele>
        <time>2022-10-30T08:15:32Z</time>
      </trkpt>
      <trkpt lat="41.4229961" lon="2.1102735">
        <ele>316.42001343</ele>
        <time>2022-10-30T08:15:33Z</time>
      </trkpt>
      <trkpt lat="41.423034" lon="2.1102646">
        <ele>316.14001465</ele>
        <time>2022-10-30T08:15:34Z</time>
      </trkpt>
      <trkpt lat="41.42308" lon="2.1102576">
        <ele>315.86001587</ele>
        <time>2022-10-30T08:15:35Z</time>
      </trkpt>
      <trkpt lat="41.4231589" lon="2.1102665">
        <ele>315.55001831</ele>
        <time>2022-10-30T08:15:36Z</time>
      </trkpt>
      <trkpt lat="41.4232148" lon="2.1102754">
        <ele>315.19003296</ele>
        <time>2022-10-30T08:15:37Z</time>
      </trkpt>
      <trkpt lat="41.4232648" lon="2.1103004">
        <ele>314.84002686</ele>
        <time>2022-10-30T08:15:38Z</time>
      </trkpt>
      <trkpt lat="41.4233178" lon="2.1103263">
        <ele>314.47003174</ele>
        <time>2022-10-30T08:15:39Z</time>
      </trkpt>
      <trkpt lat="41.4233747" lon="2.1103433">
        <ele>314.14004517</ele>
        <time>2022-10-30T08:15:40Z</time>
      </trkpt>
      <trkpt lat="41.4234487" lon="2.1103742">
        <ele>313.87005615</ele>
        <time>2022-10-30T08:15:41Z</time>
      </trkpt>
      <trkpt lat="41.4234966" lon="2.1103991">
        <ele>313.62005615</ele>
        <time>2022-10-30T08:15:42Z</time>
      </trkpt>
      <trkpt lat="41.4235435" lon="2.1104251">
        <ele>313.4100647</ele>
        <time>2022-10-30T08:15:43Z</time>
      </trkpt>
      <trkpt lat="41.4235885" lon="2.110431">
        <ele>313.14007568</ele>
        <time>2022-10-30T08:15:44Z</time>
      </trkpt>
      <trkpt lat="41.4236305" lon="2.110415">
        <ele>312.84008789</ele>
        <time>2022-10-30T08:15:45Z</time>
      </trkpt>
      <trkpt lat="41.4236865" lon="2.1103571">
        <ele>312.64007568</ele>
        <time>2022-10-30T08:15:46Z</time>
      </trkpt>
      <trkpt lat="41.4237085" lon="2.1103171">
        <ele>312.46008301</ele>
        <time>2022-10-30T08:15:47Z</time>
      </trkpt>
      <trkpt lat="41.4237284" lon="2.1102962">
        <ele>312.49008179</ele>
        <time>2022-10-30T08:15:48Z</time>
      </trkpt>
      <trkpt lat="41.4237444" lon="2.1102762">
        <ele>312.71008301</ele>
        <time>2022-10-30T08:15:49Z</time>
      </trkpt>
      <trkpt lat="41.4237464" lon="2.1102432">
        <ele>313.00009155</ele>
        <time>2022-10-30T08:15:50Z</time>
      </trkpt>
      <trkpt lat="41.4237493" lon="2.1102133">
        <ele>313.3901062</ele>
        <time>2022-10-30T08:15:51Z</time>
      </trkpt>
      <trkpt lat="41.4237532" lon="2.1101833">
        <ele>313.77011108</ele>
        <time>2022-10-30T08:15:52Z</time>
      </trkpt>
      <trkpt lat="41.4237711" lon="2.1101734">
        <ele>314.18011475</ele>
        <time>2022-10-30T08:15:53Z</time>
      </trkpt>
      <trkpt lat="41.423805" lon="2.1101604">
        <ele>314.63012695</ele>
        <time>2022-10-30T08:15:54Z</time>
      </trkpt>
      <trkpt lat="41.423825" lon="2.1101474">
        <ele>315.08013916</ele>
        <time>2022-10-30T08:15:55Z</time>
      </trkpt>
      <trkpt lat="41.423836" lon="2.1101184">
        <ele>315.56015015</ele>
        <time>2022-10-30T08:15:56Z</time>
      </trkpt>
      <trkpt lat="41.4238469" lon="2.1100924">
        <ele>316.03015137</ele>
        <time>2022-10-30T08:15:57Z</time>
      </trkpt>
      <trkpt lat="41.4238559" lon="2.1100615">
        <ele>316.39013672</ele>
        <time>2022-10-30T08:15:58Z</time>
      </trkpt>
      <trkpt lat="41.4238708" lon="2.1100165">
        <ele>316.81015015</ele>
        <time>2022-10-30T08:15:59Z</time>
      </trkpt>
      <trkpt lat="41.4238679" lon="2.1099756">
        <ele>317.21014404</ele>
        <time>2022-10-30T08:16:00Z</time>
      </trkpt>
      <trkpt lat="41.4238569" lon="2.1099436">
        <ele>317.61013794</ele>
        <time>2022-10-30T08:16:01Z</time>
      </trkpt>
      <trkpt lat="41.423853" lon="2.1099287">
        <ele>318.03015137</ele>
        <time>2022-10-30T08:16:02Z</time>
      </trkpt>
      <trkpt lat="41.42385" lon="2.1099217">
        <ele>318.36013794</ele>
        <time>2022-10-30T08:16:03Z</time>
      </trkpt>
      <trkpt lat="41.4238391" lon="2.1099107">
        <ele>318.71014404</ele>
        <time>2022-10-30T08:16:04Z</time>
      </trkpt>
      <trkpt lat="41.4238231" lon="2.1099048">
        <ele>319.0201416</ele>
        <time>2022-10-30T08:16:05Z</time>
      </trkpt>
      <trkpt lat="41.4238112" lon="2.1099008">
        <ele>319.35012817</ele>
        <time>2022-10-30T08:16:06Z</time>
      </trkpt>
      <trkpt lat="41.4238002" lon="2.1098989">
        <ele>319.69012451</ele>
        <time>2022-10-30T08:16:07Z</time>
      </trkpt>
      <trkpt lat="41.4237792" lon="2.109896">
        <ele>320.04013062</ele>
        <time>2022-10-30T08:16:08Z</time>
      </trkpt>
      <trkpt lat="41.4237603" lon="2.109895">
        <ele>320.37011719</ele>
        <time>2022-10-30T08:16:09Z</time>
      </trkpt>
      <trkpt lat="41.4237313" lon="2.109895">
        <ele>320.7401123</ele>
        <time>2022-10-30T08:16:10Z</time>
      </trkpt>
      <trkpt lat="41.4237044" lon="2.1098901">
        <ele>321.09011841</ele>
        <time>2022-10-30T08:16:11Z</time>
      </trkpt>
      <trkpt lat="41.4236584" lon="2.1098911">
        <ele>321.38012695</ele>
        <time>2022-10-30T08:16:12Z</time>
      </trkpt>
      <trkpt lat="41.4236255" lon="2.109899">
        <ele>321.62011719</ele>
        <time>2022-10-30T08:16:13Z</time>
      </trkpt>
      <trkpt lat="41.4235955" lon="2.1098941">
        <ele>321.81011963</ele>
        <time>2022-10-30T08:16:14Z</time>
      </trkpt>
      <trkpt lat="41.4235765" lon="2.1098701">
        <ele>321.97012329</ele>
        <time>2022-10-30T08:16:15Z</time>
      </trkpt>
      <trkpt lat="41.4235556" lon="2.1098432">
        <ele>322.1701355</ele>
        <time>2022-10-30T08:16:16Z</time>
      </trkpt>
      <trkpt lat="41.4235366" lon="2.1097902">
        <ele>322.37014771</ele>
        <time>2022-10-30T08:16:17Z</time>
      </trkpt>
      <trkpt lat="41.4235266" lon="2.1097753">
        <ele>322.57015991</ele>
        <time>2022-10-30T08:16:18Z</time>
      </trkpt>
      <trkpt lat="41.4235037" lon="2.1097623">
        <ele>322.75015259</ele>
        <time>2022-10-30T08:16:19Z</time>
      </trkpt>
      <trkpt lat="41.4234707" lon="2.1097474">
        <ele>322.88015747</ele>
        <time>2022-10-30T08:16:20Z</time>
      </trkpt>
      <trkpt lat="41.4234288" lon="2.1097295">
        <ele>322.98016357</ele>
        <time>2022-10-30T08:16:21Z</time>
      </trkpt>
      <trkpt lat="41.4234008" lon="2.1097175">
        <ele>323.02017212</ele>
        <time>2022-10-30T08:16:22Z</time>
      </trkpt>
      <trkpt lat="41.4233558" lon="2.1097265">
        <ele>323.04016113</ele>
        <time>2022-10-30T08:16:23Z</time>
      </trkpt>
      <trkpt lat="41.4233348" lon="2.1097045">
        <ele>323.03015137</ele>
        <time>2022-10-30T08:16:24Z</time>
      </trkpt>
      <trkpt lat="41.4233289" lon="2.1096716">
        <ele>323.00015259</ele>
        <time>2022-10-30T08:16:25Z</time>
      </trkpt>
      <trkpt lat="41.4233209" lon="2.1096256">
        <ele>323.03015137</ele>
        <time>2022-10-30T08:16:26Z</time>
      </trkpt>
      <trkpt lat="41.423311" lon="2.1095806">
        <ele>323.04016113</ele>
        <time>2022-10-30T08:16:27Z</time>
      </trkpt>
      <trkpt lat="41.423307" lon="2.1095456">
        <ele>323.06015015</ele>
        <time>2022-10-30T08:16:28Z</time>
      </trkpt>
      <trkpt lat="41.4232971" lon="2.1095047">
        <ele>323.10015869</ele>
        <time>2022-10-30T08:16:29Z</time>
      </trkpt>
      <trkpt lat="41.4232851" lon="2.1094548">
        <ele>323.09014893</ele>
        <time>2022-10-30T08:16:30Z</time>
      </trkpt>
      <trkpt lat="41.4232722" lon="2.1094219">
        <ele>323.18014526</ele>
        <time>2022-10-30T08:16:31Z</time>
      </trkpt>
      <trkpt lat="41.4232612" lon="2.1093919">
        <ele>323.32015991</ele>
        <time>2022-10-30T08:16:32Z</time>
      </trkpt>
      <trkpt lat="41.4232413" lon="2.109364">
        <ele>323.48016357</ele>
        <time>2022-10-30T08:16:33Z</time>
      </trkpt>
      <trkpt lat="41.4232253" lon="2.1093361">
        <ele>323.76016235</ele>
        <time>2022-10-30T08:16:34Z</time>
      </trkpt>
      <trkpt lat="41.4231994" lon="2.1092941">
        <ele>324.03015137</ele>
        <time>2022-10-30T08:16:35Z</time>
      </trkpt>
      <trkpt lat="41.4231864" lon="2.1092701">
        <ele>324.30014038</ele>
        <time>2022-10-30T08:16:36Z</time>
      </trkpt>
      <trkpt lat="41.4231765" lon="2.1092452">
        <ele>324.63012695</ele>
        <time>2022-10-30T08:16:37Z</time>
      </trkpt>
      <trkpt lat="41.4231774" lon="2.1092243">
        <ele>324.87011719</ele>
        <time>2022-10-30T08:16:38Z</time>
      </trkpt>
      <trkpt lat="41.4231833" lon="2.1091904">
        <ele>325.08010864</ele>
        <time>2022-10-30T08:16:39Z</time>
      </trkpt>
      <trkpt lat="41.4231933" lon="2.1091544">
        <ele>325.34011841</ele>
        <time>2022-10-30T08:16:40Z</time>
      </trkpt>
      <trkpt lat="41.4232043" lon="2.1091194">
        <ele>325.62011719</ele>
        <time>2022-10-30T08:16:41Z</time>
      </trkpt>
      <trkpt lat="41.4232272" lon="2.1090924">
        <ele>325.98010254</ele>
        <time>2022-10-30T08:16:42Z</time>
      </trkpt>
      <trkpt lat="41.4232441" lon="2.1090565">
        <ele>326.35009766</ele>
        <time>2022-10-30T08:16:43Z</time>
      </trkpt>
      <trkpt lat="41.4232691" lon="2.1090476">
        <ele>326.71008301</ele>
        <time>2022-10-30T08:16:44Z</time>
      </trkpt>
      <trkpt lat="41.423293" lon="2.1090326">
        <ele>327.0100708</ele>
        <time>2022-10-30T08:16:45Z</time>
      </trkpt>
      <trkpt lat="41.423312" lon="2.1090097">
        <ele>327.29006958</ele>
        <time>2022-10-30T08:16:46Z</time>
      </trkpt>
      <trkpt lat="41.423322" lon="2.1089807">
        <ele>327.58007812</ele>
        <time>2022-10-30T08:16:47Z</time>
      </trkpt>
      <trkpt lat="41.4233309" lon="2.1089497">
        <ele>327.80007935</ele>
        <time>2022-10-30T08:16:48Z</time>
      </trkpt>
      <trkpt lat="41.4233458" lon="2.1089098">
        <ele>328.0100708</ele>
        <time>2022-10-30T08:16:49Z</time>
      </trkpt>
      <trkpt lat="41.4233588" lon="2.1088768">
        <ele>328.17007446</ele>
        <time>2022-10-30T08:16:50Z</time>
      </trkpt>
      <trkpt lat="41.4233717" lon="2.1088469">
        <ele>328.35006714</ele>
        <time>2022-10-30T08:16:51Z</time>
      </trkpt>
      <trkpt lat="41.4233797" lon="2.1088169">
        <ele>328.58007812</ele>
        <time>2022-10-30T08:16:52Z</time>
      </trkpt>
      <trkpt lat="41.4233738" lon="2.108777">
        <ele>328.83007812</ele>
        <time>2022-10-30T08:16:53Z</time>
      </trkpt>
      <trkpt lat="41.4233589" lon="2.108741">
        <ele>329.1100769</ele>
        <time>2022-10-30T08:16:54Z</time>
      </trkpt>
      <trkpt lat="41.4233628" lon="2.1087301">
        <ele>329.37008667</ele>
        <time>2022-10-30T08:16:55Z</time>
      </trkpt>
      <trkpt lat="41.4233589" lon="2.1087011">
        <ele>329.59008789</ele>
        <time>2022-10-30T08:16:56Z</time>
      </trkpt>
      <trkpt lat="41.4233509" lon="2.1086771">
        <ele>329.84008789</ele>
        <time>2022-10-30T08:16:57Z</time>
      </trkpt>
      <trkpt lat="41.4233299" lon="2.1086442">
        <ele>330.15008545</ele>
        <time>2022-10-30T08:16:58Z</time>
      </trkpt>
      <trkpt lat="41.423312" lon="2.1086332">
        <ele>330.43008423</ele>
        <time>2022-10-30T08:16:59Z</time>
      </trkpt>
      <trkpt lat="41.423299" lon="2.1086123">
        <ele>330.77008057</ele>
        <time>2022-10-30T08:17:00Z</time>
      </trkpt>
      <trkpt lat="41.4232971" lon="2.1085753">
        <ele>331.08007812</ele>
        <time>2022-10-30T08:17:01Z</time>
      </trkpt>
      <trkpt lat="41.423301" lon="2.1085734">
        <ele>331.40008545</ele>
        <time>2022-10-30T08:17:02Z</time>
      </trkpt>
      <trkpt lat="41.423301" lon="2.1085615">
        <ele>331.72009277</ele>
        <time>2022-10-30T08:17:03Z</time>
      </trkpt>
      <trkpt lat="41.4232981" lon="2.1085535">
        <ele>332.0401001</ele>
        <time>2022-10-30T08:17:04Z</time>
      </trkpt>
      <trkpt lat="41.4232892" lon="2.1085476">
        <ele>332.35009766</ele>
        <time>2022-10-30T08:17:05Z</time>
      </trkpt>
      <trkpt lat="41.4232523" lon="2.1085576">
        <ele>332.55010986</ele>
        <time>2022-10-30T08:17:06Z</time>
      </trkpt>
      <trkpt lat="41.4232363" lon="2.1085686">
        <ele>332.76010132</ele>
        <time>2022-10-30T08:17:07Z</time>
      </trkpt>
      <trkpt lat="41.4232044" lon="2.1085526">
        <ele>332.90011597</ele>
        <time>2022-10-30T08:17:08Z</time>
      </trkpt>
      <trkpt lat="41.4231644" lon="2.1085416">
        <ele>333.08010864</ele>
        <time>2022-10-30T08:17:09Z</time>
      </trkpt>
      <trkpt lat="41.4231145" lon="2.1085216">
        <ele>333.28012085</ele>
        <time>2022-10-30T08:17:10Z</time>
      </trkpt>
      <trkpt lat="41.4230605" lon="2.1084827">
        <ele>333.50012207</ele>
        <time>2022-10-30T08:17:11Z</time>
      </trkpt>
      <trkpt lat="41.4230306" lon="2.1084697">
        <ele>333.69012451</ele>
        <time>2022-10-30T08:17:12Z</time>
      </trkpt>
      <trkpt lat="41.4230036" lon="2.1084557">
        <ele>333.86013794</ele>
        <time>2022-10-30T08:17:13Z</time>
      </trkpt>
      <trkpt lat="41.4229846" lon="2.1084297">
        <ele>334.01013184</ele>
        <time>2022-10-30T08:17:14Z</time>
      </trkpt>
      <trkpt lat="41.4229607" lon="2.1083918">
        <ele>334.1701355</ele>
        <time>2022-10-30T08:17:15Z</time>
      </trkpt>
      <trkpt lat="41.4229397" lon="2.1083639">
        <ele>334.29013062</ele>
        <time>2022-10-30T08:17:16Z</time>
      </trkpt>
      <trkpt lat="41.4229407" lon="2.108333">
        <ele>334.38012695</ele>
        <time>2022-10-30T08:17:17Z</time>
      </trkpt>
      <trkpt lat="41.4229378" lon="2.108303">
        <ele>334.50012207</ele>
        <time>2022-10-30T08:17:18Z</time>
      </trkpt>
      <trkpt lat="41.4229258" lon="2.1082811">
        <ele>334.61010742</ele>
        <time>2022-10-30T08:17:19Z</time>
      </trkpt>
      <trkpt lat="41.4229129" lon="2.1082392">
        <ele>334.82009888</ele>
        <time>2022-10-30T08:17:20Z</time>
      </trkpt>
      <trkpt lat="41.4229049" lon="2.1082102">
        <ele>335.02011108</ele>
        <time>2022-10-30T08:17:21Z</time>
      </trkpt>
      <trkpt lat="41.4228939" lon="2.1081762">
        <ele>335.18011475</ele>
        <time>2022-10-30T08:17:22Z</time>
      </trkpt>
      <trkpt lat="41.4228799" lon="2.1081583">
        <ele>335.34011841</ele>
        <time>2022-10-30T08:17:23Z</time>
      </trkpt>
      <trkpt lat="41.422874" lon="2.1081253">
        <ele>335.48013306</ele>
        <time>2022-10-30T08:17:24Z</time>
      </trkpt>
      <trkpt lat="41.422872" lon="2.1080984">
        <ele>335.61013794</ele>
        <time>2022-10-30T08:17:25Z</time>
      </trkpt>
      <trkpt lat="41.4228661" lon="2.1080744">
        <ele>335.78015137</ele>
        <time>2022-10-30T08:17:26Z</time>
      </trkpt>
      <trkpt lat="41.4228551" lon="2.1080495">
        <ele>335.93014526</ele>
        <time>2022-10-30T08:17:27Z</time>
      </trkpt>
      <trkpt lat="41.4228411" lon="2.1080216">
        <ele>336.04013062</ele>
        <time>2022-10-30T08:17:28Z</time>
      </trkpt>
      <trkpt lat="41.4228191" lon="2.1079826">
        <ele>336.22012329</ele>
        <time>2022-10-30T08:17:29Z</time>
      </trkpt>
      <trkpt lat="41.4228051" lon="2.1079517">
        <ele>336.34011841</ele>
        <time>2022-10-30T08:17:30Z</time>
      </trkpt>
      <trkpt lat="41.4227911" lon="2.1079308">
        <ele>336.45010376</ele>
        <time>2022-10-30T08:17:31Z</time>
      </trkpt>
      <trkpt lat="41.4227742" lon="2.1079068">
        <ele>336.61010742</ele>
        <time>2022-10-30T08:17:32Z</time>
      </trkpt>
      <trkpt lat="41.4227433" lon="2.1078639">
        <ele>336.7401123</ele>
        <time>2022-10-30T08:17:33Z</time>
      </trkpt>
      <trkpt lat="41.4227234" lon="2.107839">
        <ele>336.87011719</ele>
        <time>2022-10-30T08:17:34Z</time>
      </trkpt>
      <trkpt lat="41.4227105" lon="2.107818">
        <ele>337.00012207</ele>
        <time>2022-10-30T08:17:35Z</time>
      </trkpt>
      <trkpt lat="41.4226965" lon="2.1077911">
        <ele>337.11010742</ele>
        <time>2022-10-30T08:17:36Z</time>
      </trkpt>
      <trkpt lat="41.4226825" lon="2.1077741">
        <ele>337.23010254</ele>
        <time>2022-10-30T08:17:37Z</time>
      </trkpt>
      <trkpt lat="41.4226715" lon="2.1077821">
        <ele>337.36010742</ele>
        <time>2022-10-30T08:17:38Z</time>
      </trkpt>
      <trkpt lat="41.4226475" lon="2.1077651">
        <ele>337.50012207</ele>
        <time>2022-10-30T08:17:39Z</time>
      </trkpt>
      <trkpt lat="41.4226206" lon="2.1077432">
        <ele>337.60012817</ele>
        <time>2022-10-30T08:17:40Z</time>
      </trkpt>
      <trkpt lat="41.4225946" lon="2.1077262">
        <ele>337.68011475</ele>
        <time>2022-10-30T08:17:41Z</time>
      </trkpt>
      <trkpt lat="41.4225857" lon="2.1077083">
        <ele>337.7901001</ele>
        <time>2022-10-30T08:17:42Z</time>
      </trkpt>
      <trkpt lat="41.4225698" lon="2.1076813">
        <ele>337.90008545</ele>
        <time>2022-10-30T08:17:43Z</time>
      </trkpt>
      <trkpt lat="41.4225428" lon="2.1076524">
        <ele>338.00009155</ele>
        <time>2022-10-30T08:17:44Z</time>
      </trkpt>
      <trkpt lat="41.4225268" lon="2.1076254">
        <ele>338.12008667</ele>
        <time>2022-10-30T08:17:45Z</time>
      </trkpt>
      <trkpt lat="41.4225029" lon="2.1075934">
        <ele>338.25009155</ele>
        <time>2022-10-30T08:17:46Z</time>
      </trkpt>
      <trkpt lat="41.4224609" lon="2.1075584">
        <ele>338.35009766</ele>
        <time>2022-10-30T08:17:47Z</time>
      </trkpt>
      <trkpt lat="41.422435" lon="2.1075495">
        <ele>338.53009033</ele>
        <time>2022-10-30T08:17:48Z</time>
      </trkpt>
      <trkpt lat="41.422407" lon="2.1075286">
        <ele>338.69009399</ele>
        <time>2022-10-30T08:17:49Z</time>
      </trkpt>
      <trkpt lat="41.422381" lon="2.1075196">
        <ele>338.85009766</ele>
        <time>2022-10-30T08:17:50Z</time>
      </trkpt>
      <trkpt lat="41.4223581" lon="2.1075157">
        <ele>339.01010132</ele>
        <time>2022-10-30T08:17:51Z</time>
      </trkpt>
      <trkpt lat="41.4223392" lon="2.1075196">
        <ele>339.13009644</ele>
        <time>2022-10-30T08:17:52Z</time>
      </trkpt>
      <trkpt lat="41.4223272" lon="2.1075326">
        <ele>339.22009277</ele>
        <time>2022-10-30T08:17:53Z</time>
      </trkpt>
      <trkpt lat="41.4223143" lon="2.1075496">
        <ele>339.30007935</ele>
        <time>2022-10-30T08:17:54Z</time>
      </trkpt>
      <trkpt lat="41.4223084" lon="2.1075536">
        <ele>339.39007568</ele>
        <time>2022-10-30T08:17:55Z</time>
      </trkpt>
      <trkpt lat="41.4223024" lon="2.1075526">
        <ele>339.46008301</ele>
        <time>2022-10-30T08:17:56Z</time>
      </trkpt>
      <trkpt lat="41.4222845" lon="2.1075257">
        <ele>339.6100769</ele>
        <time>2022-10-30T08:17:57Z</time>
      </trkpt>
      <trkpt lat="41.4222735" lon="2.1074927">
        <ele>339.71008301</ele>
        <time>2022-10-30T08:17:58Z</time>
      </trkpt>
      <trkpt lat="41.4222545" lon="2.1074697">
        <ele>339.85009766</ele>
        <time>2022-10-30T08:17:59Z</time>
      </trkpt>
      <trkpt lat="41.4222325" lon="2.1074497">
        <ele>340.00009155</ele>
        <time>2022-10-30T08:18:00Z</time>
      </trkpt>
      <trkpt lat="41.4222066" lon="2.1074178">
        <ele>340.12008667</ele>
        <time>2022-10-30T08:18:01Z</time>
      </trkpt>
      <trkpt lat="41.4221926" lon="2.1073908">
        <ele>340.26010132</ele>
        <time>2022-10-30T08:18:02Z</time>
      </trkpt>
      <trkpt lat="41.4221747" lon="2.1073699">
        <ele>340.37008667</ele>
        <time>2022-10-30T08:18:03Z</time>
      </trkpt>
      <trkpt lat="41.4221578" lon="2.1073439">
        <ele>340.47009277</ele>
        <time>2022-10-30T08:18:04Z</time>
      </trkpt>
      <trkpt lat="41.4221558" lon="2.1073049">
        <ele>340.55007935</ele>
        <time>2022-10-30T08:18:05Z</time>
      </trkpt>
      <trkpt lat="41.4221469" lon="2.107277">
        <ele>340.63006592</ele>
        <time>2022-10-30T08:18:06Z</time>
      </trkpt>
      <trkpt lat="41.422129" lon="2.10725">
        <ele>340.73007202</ele>
        <time>2022-10-30T08:18:07Z</time>
      </trkpt>
      <trkpt lat="41.422125" lon="2.1072471">
        <ele>340.85006714</ele>
        <time>2022-10-30T08:18:08Z</time>
      </trkpt>
      <trkpt lat="41.422097" lon="2.1072272">
        <ele>340.96005249</ele>
        <time>2022-10-30T08:18:09Z</time>
      </trkpt>
      <trkpt lat="41.422078" lon="2.1072132">
        <ele>341.02005005</ele>
        <time>2022-10-30T08:18:10Z</time>
      </trkpt>
      <trkpt lat="41.422064" lon="2.1071953">
        <ele>341.11004639</ele>
        <time>2022-10-30T08:18:11Z</time>
      </trkpt>
      <trkpt lat="41.422064" lon="2.1071743">
        <ele>341.24005127</ele>
        <time>2022-10-30T08:18:12Z</time>
      </trkpt>
      <trkpt lat="41.4220591" lon="2.1071514">
        <ele>341.40005493</ele>
        <time>2022-10-30T08:18:13Z</time>
      </trkpt>
      <trkpt lat="41.4220451" lon="2.1071204">
        <ele>341.60006714</ele>
        <time>2022-10-30T08:18:14Z</time>
      </trkpt>
      <trkpt lat="41.4220301" lon="2.1070985">
        <ele>341.73007202</ele>
        <time>2022-10-30T08:18:15Z</time>
      </trkpt>
      <trkpt lat="41.4220232" lon="2.1070725">
        <ele>341.72006226</ele>
        <time>2022-10-30T08:18:16Z</time>
      </trkpt>
      <trkpt lat="41.4220022" lon="2.1070446">
        <ele>341.67007446</ele>
        <time>2022-10-30T08:18:17Z</time>
      </trkpt>
      <trkpt lat="41.4219783" lon="2.1070237">
        <ele>341.56008911</ele>
        <time>2022-10-30T08:18:18Z</time>
      </trkpt>
      <trkpt lat="41.4219483" lon="2.1069958">
        <ele>341.42007446</ele>
        <time>2022-10-30T08:18:19Z</time>
      </trkpt>
      <trkpt lat="41.4219263" lon="2.1069818">
        <ele>341.32006836</ele>
        <time>2022-10-30T08:18:20Z</time>
      </trkpt>
      <trkpt lat="41.4219054" lon="2.1069618">
        <ele>341.25006104</ele>
        <time>2022-10-30T08:18:21Z</time>
      </trkpt>
      <trkpt lat="41.4218825" lon="2.1069458">
        <ele>341.11004639</ele>
        <time>2022-10-30T08:18:22Z</time>
      </trkpt>
      <trkpt lat="41.4218465" lon="2.1069298">
        <ele>341.01004028</ele>
        <time>2022-10-30T08:18:23Z</time>
      </trkpt>
      <trkpt lat="41.4218245" lon="2.1069079">
        <ele>340.84002686</ele>
        <time>2022-10-30T08:18:24Z</time>
      </trkpt>
      <trkpt lat="41.4218076" lon="2.106883">
        <ele>340.68002319</ele>
        <time>2022-10-30T08:18:25Z</time>
      </trkpt>
      <trkpt lat="41.4217927" lon="2.1068621">
        <ele>340.62002563</ele>
        <time>2022-10-30T08:18:26Z</time>
      </trkpt>
      <trkpt lat="41.4217868" lon="2.1068301">
        <ele>340.58001709</ele>
        <time>2022-10-30T08:18:27Z</time>
      </trkpt>
      <trkpt lat="41.4217937" lon="2.1068052">
        <ele>340.59002686</ele>
        <time>2022-10-30T08:18:28Z</time>
      </trkpt>
      <trkpt lat="41.4218007" lon="2.1067852">
        <ele>340.57003784</ele>
        <time>2022-10-30T08:18:29Z</time>
      </trkpt>
      <trkpt lat="41.4218106" lon="2.1067663">
        <ele>340.55004883</ele>
        <time>2022-10-30T08:18:30Z</time>
      </trkpt>
      <trkpt lat="41.4218146" lon="2.1067433">
        <ele>340.51004028</ele>
        <time>2022-10-30T08:18:31Z</time>
      </trkpt>
      <trkpt lat="41.4218117" lon="2.1067273">
        <ele>340.41003418</ele>
        <time>2022-10-30T08:18:32Z</time>
      </trkpt>
      <trkpt lat="41.4218087" lon="2.1067224">
        <ele>340.20004272</ele>
        <time>2022-10-30T08:18:33Z</time>
      </trkpt>
      <trkpt lat="41.4218058" lon="2.1067064">
        <ele>339.71005249</ele>
        <time>2022-10-30T08:18:34Z</time>
      </trkpt>
      <trkpt lat="41.4218039" lon="2.1066785">
        <ele>338.87005615</ele>
        <time>2022-10-30T08:18:35Z</time>
      </trkpt>
      <trkpt lat="41.4217989" lon="2.1066495">
        <ele>338.00006104</ele>
        <time>2022-10-30T08:18:36Z</time>
      </trkpt>
      <trkpt lat="41.4218088" lon="2.1066216">
        <ele>337.07006836</ele>
        <time>2022-10-30T08:18:37Z</time>
      </trkpt>
      <trkpt lat="41.4218079" lon="2.1066086">
        <ele>336.44006348</ele>
        <time>2022-10-30T08:18:38Z</time>
      </trkpt>
      <trkpt lat="41.421801" lon="2.1065867">
        <ele>336.07006836</ele>
        <time>2022-10-30T08:18:39Z</time>
      </trkpt>
      <trkpt lat="41.4218069" lon="2.1065567">
        <ele>335.6100769</ele>
        <time>2022-10-30T08:18:40Z</time>
      </trkpt>
      <trkpt lat="41.4218168" lon="2.1065188">
        <ele>335.14007568</ele>
        <time>2022-10-30T08:18:41Z</time>
      </trkpt>
      <trkpt lat="41.4218208" lon="2.1064879">
        <ele>334.5100708</ele>
        <time>2022-10-30T08:18:42Z</time>
      </trkpt>
      <trkpt lat="41.4218337" lon="2.1064449">
        <ele>333.70007324</ele>
        <time>2022-10-30T08:18:43Z</time>
      </trkpt>
      <trkpt lat="41.4218396" lon="2.106418">
        <ele>333.02008057</ele>
        <time>2022-10-30T08:18:44Z</time>
      </trkpt>
      <trkpt lat="41.4218416" lon="2.1063871">
        <ele>332.39007568</ele>
        <time>2022-10-30T08:18:45Z</time>
      </trkpt>
      <trkpt lat="41.4218426" lon="2.1063622">
        <ele>331.8600769</ele>
        <time>2022-10-30T08:18:46Z</time>
      </trkpt>
      <trkpt lat="41.4218426" lon="2.1063512">
        <ele>331.50009155</ele>
        <time>2022-10-30T08:18:47Z</time>
      </trkpt>
      <trkpt lat="41.4218336" lon="2.1063363">
        <ele>331.19009399</ele>
        <time>2022-10-30T08:18:48Z</time>
      </trkpt>
      <trkpt lat="41.4218277" lon="2.1063283">
        <ele>331.00009155</ele>
        <time>2022-10-30T08:18:49Z</time>
      </trkpt>
      <trkpt lat="41.4218068" lon="2.1062993">
        <ele>330.71008301</ele>
        <time>2022-10-30T08:18:50Z</time>
      </trkpt>
      <trkpt lat="41.4217908" lon="2.1062504">
        <ele>329.94009399</ele>
        <time>2022-10-30T08:18:51Z</time>
      </trkpt>
      <trkpt lat="41.4217748" lon="2.1061984">
        <ele>328.73010254</ele>
        <time>2022-10-30T08:18:52Z</time>
      </trkpt>
      <trkpt lat="41.4217768" lon="2.1061605">
        <ele>327.28009033</ele>
        <time>2022-10-30T08:18:53Z</time>
      </trkpt>
      <trkpt lat="41.4217777" lon="2.1060956">
        <ele>325.8600769</ele>
        <time>2022-10-30T08:18:54Z</time>
      </trkpt>
      <trkpt lat="41.4217827" lon="2.1060566">
        <ele>324.8600769</ele>
        <time>2022-10-30T08:18:55Z</time>
      </trkpt>
      <trkpt lat="41.4217897" lon="2.1060377">
        <ele>324.31008911</ele>
        <time>2022-10-30T08:18:56Z</time>
      </trkpt>
      <trkpt lat="41.4217956" lon="2.1060167">
        <ele>323.98010254</ele>
        <time>2022-10-30T08:18:57Z</time>
      </trkpt>
      <trkpt lat="41.4218025" lon="2.1060058">
        <ele>323.72009277</ele>
        <time>2022-10-30T08:18:58Z</time>
      </trkpt>
      <trkpt lat="41.4218075" lon="2.1059958">
        <ele>323.57009888</ele>
        <time>2022-10-30T08:18:59Z</time>
      </trkpt>
      <trkpt lat="41.421805" lon="2.105988">
        <ele>323.91000366</ele>
        <time>2022-10-30T08:18:59Z</time>
      </trkpt>
      <trkpt lat="41.4218139" lon="2.105978">
        <ele>323.20001221</ele>
        <time>2022-10-30T08:19:07Z</time>
      </trkpt>
      <trkpt lat="41.4218319" lon="2.1059501">
        <ele>323.11001587</ele>
        <time>2022-10-30T08:19:08Z</time>
      </trkpt>
      <trkpt lat="41.4218418" lon="2.1059232">
        <ele>322.95001221</ele>
        <time>2022-10-30T08:19:09Z</time>
      </trkpt>
      <trkpt lat="41.4218598" lon="2.1058952">
        <ele>322.79000854</ele>
        <time>2022-10-30T08:19:10Z</time>
      </trkpt>
      <trkpt lat="41.4218867" lon="2.1058583">
        <ele>322.67001343</ele>
        <time>2022-10-30T08:19:11Z</time>
      </trkpt>
      <trkpt lat="41.4219277" lon="2.1057963">
        <ele>322.47000122</ele>
        <time>2022-10-30T08:19:12Z</time>
      </trkpt>
      <trkpt lat="41.4219596" lon="2.1057604">
        <ele>322.29000854</ele>
        <time>2022-10-30T08:19:13Z</time>
      </trkpt>
      <trkpt lat="41.4220006" lon="2.1057314">
        <ele>322.07000732</ele>
        <time>2022-10-30T08:19:14Z</time>
      </trkpt>
      <trkpt lat="41.4220485" lon="2.1056935">
        <ele>321.82000732</ele>
        <time>2022-10-30T08:19:15Z</time>
      </trkpt>
      <trkpt lat="41.4221155" lon="2.1056575">
        <ele>321.64001465</ele>
        <time>2022-10-30T08:19:16Z</time>
      </trkpt>
      <trkpt lat="41.4221554" lon="2.1056566">
        <ele>321.5</ele>
        <time>2022-10-30T08:19:17Z</time>
      </trkpt>
      <trkpt lat="41.4221983" lon="2.1056416">
        <ele>321.39001465</ele>
        <time>2022-10-30T08:19:18Z</time>
      </trkpt>
      <trkpt lat="41.4222483" lon="2.1056187">
        <ele>321.23001099</ele>
        <time>2022-10-30T08:19:19Z</time>
      </trkpt>
      <trkpt lat="41.4222912" lon="2.1055998">
        <ele>321.07000732</ele>
        <time>2022-10-30T08:19:20Z</time>
      </trkpt>
      <trkpt lat="41.4223602" lon="2.1055838">
        <ele>320.86999512</ele>
        <time>2022-10-30T08:19:21Z</time>
      </trkpt>
      <trkpt lat="41.4224001" lon="2.1055838">
        <ele>320.69000244</ele>
        <time>2022-10-30T08:19:22Z</time>
      </trkpt>
      <trkpt lat="41.422452" lon="2.1055957">
        <ele>320.57000732</ele>
        <time>2022-10-30T08:19:23Z</time>
      </trkpt>
      <trkpt lat="41.422503" lon="2.1055966">
        <ele>320.48001099</ele>
        <time>2022-10-30T08:19:24Z</time>
      </trkpt>
      <trkpt lat="41.4225439" lon="2.1055767">
        <ele>320.39001465</ele>
        <time>2022-10-30T08:19:25Z</time>
      </trkpt>
      <trkpt lat="41.4225719" lon="2.1055168">
        <ele>320.40002441</ele>
        <time>2022-10-30T08:19:26Z</time>
      </trkpt>
      <trkpt lat="41.4225808" lon="2.1054599">
        <ele>320.49002075</ele>
        <time>2022-10-30T08:19:27Z</time>
      </trkpt>
      <trkpt lat="41.4225848" lon="2.1054099">
        <ele>320.55001831</ele>
        <time>2022-10-30T08:19:28Z</time>
      </trkpt>
      <trkpt lat="41.4225768" lon="2.105363">
        <ele>320.62002563</ele>
        <time>2022-10-30T08:19:29Z</time>
      </trkpt>
      <trkpt lat="41.4225608" lon="2.1052781">
        <ele>320.37002563</ele>
        <time>2022-10-30T08:19:30Z</time>
      </trkpt>
      <trkpt lat="41.4225558" lon="2.1052182">
        <ele>319.91003418</ele>
        <time>2022-10-30T08:19:31Z</time>
      </trkpt>
      <trkpt lat="41.4225478" lon="2.1051562">
        <ele>319.32003784</ele>
        <time>2022-10-30T08:19:32Z</time>
      </trkpt>
      <trkpt lat="41.4225498" lon="2.1050952">
        <ele>318.67004395</ele>
        <time>2022-10-30T08:19:33Z</time>
      </trkpt>
      <trkpt lat="41.4225548" lon="2.1050403">
        <ele>318.22003174</ele>
        <time>2022-10-30T08:19:34Z</time>
      </trkpt>
      <trkpt lat="41.4225798" lon="2.1049584">
        <ele>317.90002441</ele>
        <time>2022-10-30T08:19:35Z</time>
      </trkpt>
      <trkpt lat="41.4226087" lon="2.1049114">
        <ele>317.6300354</ele>
        <time>2022-10-30T08:19:36Z</time>
      </trkpt>
      <trkpt lat="41.4226426" lon="2.1048735">
        <ele>317.4800415</ele>
        <time>2022-10-30T08:19:37Z</time>
      </trkpt>
      <trkpt lat="41.4226786" lon="2.1048476">
        <ele>317.33004761</ele>
        <time>2022-10-30T08:19:38Z</time>
      </trkpt>
      <trkpt lat="41.4227295" lon="2.1048166">
        <ele>317.1300354</ele>
        <time>2022-10-30T08:19:39Z</time>
      </trkpt>
      <trkpt lat="41.4227724" lon="2.1047957">
        <ele>317.08004761</ele>
        <time>2022-10-30T08:19:40Z</time>
      </trkpt>
      <trkpt lat="41.4228084" lon="2.1047768">
        <ele>316.96005249</ele>
        <time>2022-10-30T08:19:41Z</time>
      </trkpt>
      <trkpt lat="41.4228584" lon="2.1047688">
        <ele>316.82003784</ele>
        <time>2022-10-30T08:19:42Z</time>
      </trkpt>
      <trkpt lat="41.4229364" lon="2.1047528">
        <ele>316.71005249</ele>
        <time>2022-10-30T08:19:43Z</time>
      </trkpt>
      <trkpt lat="41.4229784" lon="2.1047269">
        <ele>316.53005981</ele>
        <time>2022-10-30T08:19:44Z</time>
      </trkpt>
      <trkpt lat="41.4230273" lon="2.1046999">
        <ele>316.39004517</ele>
        <time>2022-10-30T08:19:45Z</time>
      </trkpt>
      <trkpt lat="41.4230713" lon="2.104676">
        <ele>316.29003906</ele>
        <time>2022-10-30T08:19:46Z</time>
      </trkpt>
      <trkpt lat="41.4231112" lon="2.104648">
        <ele>316.17004395</ele>
        <time>2022-10-30T08:19:47Z</time>
      </trkpt>
      <trkpt lat="41.4231672" lon="2.1046311">
        <ele>316.0300293</ele>
        <time>2022-10-30T08:19:48Z</time>
      </trkpt>
      <trkpt lat="41.4232131" lon="2.1046201">
        <ele>315.80001831</ele>
        <time>2022-10-30T08:19:49Z</time>
      </trkpt>
      <trkpt lat="41.4232681" lon="2.104623">
        <ele>315.52001953</ele>
        <time>2022-10-30T08:19:50Z</time>
      </trkpt>
      <trkpt lat="41.423322" lon="2.104644">
        <ele>315.27001953</ele>
        <time>2022-10-30T08:19:51Z</time>
      </trkpt>
      <trkpt lat="41.4233709" lon="2.1046559">
        <ele>315.00003052</ele>
        <time>2022-10-30T08:19:52Z</time>
      </trkpt>
      <trkpt lat="41.4234498" lon="2.1046868">
        <ele>314.82003784</ele>
        <time>2022-10-30T08:19:53Z</time>
      </trkpt>
      <trkpt lat="41.4234998" lon="2.1047128">
        <ele>314.66003418</ele>
        <time>2022-10-30T08:19:54Z</time>
      </trkpt>
      <trkpt lat="41.4235418" lon="2.1047418">
        <ele>314.46002197</ele>
        <time>2022-10-30T08:19:55Z</time>
      </trkpt>
      <trkpt lat="41.4235877" lon="2.1047597">
        <ele>314.32000732</ele>
        <time>2022-10-30T08:19:56Z</time>
      </trkpt>
      <trkpt lat="41.4236597" lon="2.1047746">
        <ele>314.17999268</ele>
        <time>2022-10-30T08:19:57Z</time>
      </trkpt>
      <trkpt lat="41.4236976" lon="2.1048006">
        <ele>314</ele>
        <time>2022-10-30T08:19:58Z</time>
      </trkpt>
      <trkpt lat="41.4237426" lon="2.1048246">
        <ele>313.86999512</ele>
        <time>2022-10-30T08:19:59Z</time>
      </trkpt>
      <trkpt lat="41.4237896" lon="2.1048465">
        <ele>313.69998169</ele>
        <time>2022-10-30T08:20:00Z</time>
      </trkpt>
      <trkpt lat="41.4238486" lon="2.1048584">
        <ele>313.41998291</ele>
        <time>2022-10-30T08:20:01Z</time>
      </trkpt>
      <trkpt lat="41.4239286" lon="2.1048793">
        <ele>313.13998413</ele>
        <time>2022-10-30T08:20:02Z</time>
      </trkpt>
      <trkpt lat="41.4239835" lon="2.1048873">
        <ele>312.80999756</ele>
        <time>2022-10-30T08:20:03Z</time>
      </trkpt>
      <trkpt lat="41.4240305" lon="2.1049052">
        <ele>312.45001221</ele>
        <time>2022-10-30T08:20:04Z</time>
      </trkpt>
      <trkpt lat="41.4240774" lon="2.1049282">
        <ele>312.08001709</ele>
        <time>2022-10-30T08:20:05Z</time>
      </trkpt>
      <trkpt lat="41.4241244" lon="2.1049452">
        <ele>311.79000854</ele>
        <time>2022-10-30T08:20:06Z</time>
      </trkpt>
      <trkpt lat="41.4241944" lon="2.1049742">
        <ele>311.51000977</ele>
        <time>2022-10-30T08:20:07Z</time>
      </trkpt>
      <trkpt lat="41.4242414" lon="2.1050001">
        <ele>311.30999756</ele>
        <time>2022-10-30T08:20:08Z</time>
      </trkpt>
      <trkpt lat="41.4242823" lon="2.1050291">
        <ele>311.23001099</ele>
        <time>2022-10-30T08:20:09Z</time>
      </trkpt>
      <trkpt lat="41.4243113" lon="2.1050661">
        <ele>311.11001587</ele>
        <time>2022-10-30T08:20:10Z</time>
      </trkpt>
      <trkpt lat="41.4243512" lon="2.105125">
        <ele>311.08001709</ele>
        <time>2022-10-30T08:20:11Z</time>
      </trkpt>
      <trkpt lat="41.4243762" lon="2.105171">
        <ele>311.06002808</ele>
        <time>2022-10-30T08:20:12Z</time>
      </trkpt>
      <trkpt lat="41.4243982" lon="2.1052249">
        <ele>311.0300293</ele>
        <time>2022-10-30T08:20:13Z</time>
      </trkpt>
      <trkpt lat="41.4244191" lon="2.1052798">
        <ele>311.02001953</ele>
        <time>2022-10-30T08:20:14Z</time>
      </trkpt>
      <trkpt lat="41.4244741" lon="2.1053118">
        <ele>310.96002197</ele>
        <time>2022-10-30T08:20:15Z</time>
      </trkpt>
      <trkpt lat="41.424518" lon="2.1053018">
        <ele>310.84002686</ele>
        <time>2022-10-30T08:20:16Z</time>
      </trkpt>
      <trkpt lat="41.424551" lon="2.1052749">
        <ele>310.64001465</ele>
        <time>2022-10-30T08:20:17Z</time>
      </trkpt>
      <trkpt lat="41.42457" lon="2.1052389">
        <ele>310.42001343</ele>
        <time>2022-10-30T08:20:18Z</time>
      </trkpt>
      <trkpt lat="41.424598" lon="2.1051839">
        <ele>310.1000061</ele>
        <time>2022-10-30T08:20:19Z</time>
      </trkpt>
      <trkpt lat="41.4246369" lon="2.105045">
        <ele>309.67001343</ele>
        <time>2022-10-30T08:20:20Z</time>
      </trkpt>
      <trkpt lat="41.4246659" lon="2.104952">
        <ele>309.18002319</ele>
        <time>2022-10-30T08:20:21Z</time>
      </trkpt>
      <trkpt lat="41.4246898" lon="2.1048741">
        <ele>308.6300354</ele>
        <time>2022-10-30T08:20:22Z</time>
      </trkpt>
      <trkpt lat="41.4247178" lon="2.1047952">
        <ele>308.10003662</ele>
        <time>2022-10-30T08:20:23Z</time>
      </trkpt>
      <trkpt lat="41.4247698" lon="2.1046892">
        <ele>307.66003418</ele>
        <time>2022-10-30T08:20:24Z</time>
      </trkpt>
      <trkpt lat="41.4248088" lon="2.1046323">
        <ele>307.37002563</ele>
        <time>2022-10-30T08:20:25Z</time>
      </trkpt>
      <trkpt lat="41.4248527" lon="2.1045794">
        <ele>307.09002686</ele>
        <time>2022-10-30T08:20:26Z</time>
      </trkpt>
      <trkpt lat="41.4249066" lon="2.1045425">
        <ele>306.79003906</ele>
        <time>2022-10-30T08:20:27Z</time>
      </trkpt>
      <trkpt lat="41.4249706" lon="2.1045245">
        <ele>306.57003784</ele>
        <time>2022-10-30T08:20:28Z</time>
      </trkpt>
      <trkpt lat="41.4250606" lon="2.1045226">
        <ele>306.34002686</ele>
        <time>2022-10-30T08:20:29Z</time>
      </trkpt>
      <trkpt lat="41.4251205" lon="2.1045107">
        <ele>306.14001465</ele>
        <time>2022-10-30T08:20:30Z</time>
      </trkpt>
      <trkpt lat="41.4251595" lon="2.1044737">
        <ele>305.89001465</ele>
        <time>2022-10-30T08:20:31Z</time>
      </trkpt>
      <trkpt lat="41.4252095" lon="2.1044368">
        <ele>305.51000977</ele>
        <time>2022-10-30T08:20:32Z</time>
      </trkpt>
      <trkpt lat="41.4252524" lon="2.1044008">
        <ele>305.05999756</ele>
        <time>2022-10-30T08:20:33Z</time>
      </trkpt>
      <trkpt lat="41.4253404" lon="2.1043519">
        <ele>304.6000061</ele>
        <time>2022-10-30T08:20:34Z</time>
      </trkpt>
      <trkpt lat="41.4253964" lon="2.1043179">
        <ele>304.36001587</ele>
        <time>2022-10-30T08:20:35Z</time>
      </trkpt>
      <trkpt lat="41.4254363" lon="2.1042829">
        <ele>304.18002319</ele>
        <time>2022-10-30T08:20:36Z</time>
      </trkpt>
      <trkpt lat="41.4254832" lon="2.104245">
        <ele>304.1300354</ele>
        <time>2022-10-30T08:20:37Z</time>
      </trkpt>
      <trkpt lat="41.4255282" lon="2.1041921">
        <ele>304.17004395</ele>
        <time>2022-10-30T08:20:38Z</time>
      </trkpt>
      <trkpt lat="41.4255342" lon="2.1041561">
        <ele>304.12005615</ele>
        <time>2022-10-30T08:20:39Z</time>
      </trkpt>
      <trkpt lat="41.4255342" lon="2.1041081">
        <ele>304.07006836</ele>
        <time>2022-10-30T08:20:40Z</time>
      </trkpt>
      <trkpt lat="41.4255242" lon="2.1040662">
        <ele>303.97006226</ele>
        <time>2022-10-30T08:20:41Z</time>
      </trkpt>
      <trkpt lat="41.4254593" lon="2.1040552">
        <ele>303.83004761</ele>
        <time>2022-10-30T08:20:42Z</time>
      </trkpt>
      <trkpt lat="41.4254143" lon="2.1041021">
        <ele>303.74005127</ele>
        <time>2022-10-30T08:20:43Z</time>
      </trkpt>
      <trkpt lat="41.4253703" lon="2.1041361">
        <ele>303.6600647</ele>
        <time>2022-10-30T08:20:44Z</time>
      </trkpt>
      <trkpt lat="41.4253234" lon="2.104143">
        <ele>303.54006958</ele>
        <time>2022-10-30T08:20:45Z</time>
      </trkpt>
      <trkpt lat="41.4252824" lon="2.104161">
        <ele>303.4100647</ele>
        <time>2022-10-30T08:20:46Z</time>
      </trkpt>
      <trkpt lat="41.4252324" lon="2.104161">
        <ele>303.30007935</ele>
        <time>2022-10-30T08:20:47Z</time>
      </trkpt>
      <trkpt lat="41.4251865" lon="2.104145">
        <ele>303.28009033</ele>
        <time>2022-10-30T08:20:48Z</time>
      </trkpt>
      <trkpt lat="41.4251445" lon="2.104134">
        <ele>303.28009033</ele>
        <time>2022-10-30T08:20:49Z</time>
      </trkpt>
      <trkpt lat="41.4251175" lon="2.104111">
        <ele>303.30007935</ele>
        <time>2022-10-30T08:20:50Z</time>
      </trkpt>
      <trkpt lat="41.4250755" lon="2.1040541">
        <ele>303.31008911</ele>
        <time>2022-10-30T08:20:51Z</time>
      </trkpt>
      <trkpt lat="41.4250536" lon="2.1040242">
        <ele>303.30007935</ele>
        <time>2022-10-30T08:20:52Z</time>
      </trkpt>
      <trkpt lat="41.4250306" lon="2.1039922">
        <ele>303.40008545</ele>
        <time>2022-10-30T08:20:53Z</time>
      </trkpt>
      <trkpt lat="41.4250087" lon="2.1039643">
        <ele>303.52008057</ele>
        <time>2022-10-30T08:20:54Z</time>
      </trkpt>
      <trkpt lat="41.4249647" lon="2.1039353">
        <ele>303.68008423</ele>
        <time>2022-10-30T08:20:55Z</time>
      </trkpt>
      <trkpt lat="41.4249408" lon="2.1039074">
        <ele>303.87008667</ele>
        <time>2022-10-30T08:20:56Z</time>
      </trkpt>
      <trkpt lat="41.4249238" lon="2.1038695">
        <ele>304.02008057</ele>
        <time>2022-10-30T08:20:57Z</time>
      </trkpt>
      <trkpt lat="41.4249009" lon="2.1038385">
        <ele>304.12008667</ele>
        <time>2022-10-30T08:20:58Z</time>
      </trkpt>
      <trkpt lat="41.424868" lon="2.1038136">
        <ele>304.19009399</ele>
        <time>2022-10-30T08:20:59Z</time>
      </trkpt>
      <trkpt lat="41.424844" lon="2.1037807">
        <ele>304.27008057</ele>
        <time>2022-10-30T08:21:00Z</time>
      </trkpt>
      <trkpt lat="41.4248121" lon="2.1037317">
        <ele>304.37008667</ele>
        <time>2022-10-30T08:21:01Z</time>
      </trkpt>
      <trkpt lat="41.4247971" lon="2.1036927">
        <ele>304.52008057</ele>
        <time>2022-10-30T08:21:02Z</time>
      </trkpt>
      <trkpt lat="41.4247842" lon="2.1036548">
        <ele>304.62008667</ele>
        <time>2022-10-30T08:21:03Z</time>
      </trkpt>
      <trkpt lat="41.4247682" lon="2.1036149">
        <ele>304.74008179</ele>
        <time>2022-10-30T08:21:04Z</time>
      </trkpt>
      <trkpt lat="41.4247393" lon="2.1035659">
        <ele>304.79006958</ele>
        <time>2022-10-30T08:21:05Z</time>
      </trkpt>
      <trkpt lat="41.4247224" lon="2.10353">
        <ele>304.84005737</ele>
        <time>2022-10-30T08:21:06Z</time>
      </trkpt>
      <trkpt lat="41.4247134" lon="2.10349">
        <ele>304.95004272</ele>
        <time>2022-10-30T08:21:07Z</time>
      </trkpt>
      <trkpt lat="41.4247045" lon="2.1034561">
        <ele>305.00003052</ele>
        <time>2022-10-30T08:21:08Z</time>
      </trkpt>
      <trkpt lat="41.4246736" lon="2.1034062">
        <ele>305.06002808</ele>
        <time>2022-10-30T08:21:09Z</time>
      </trkpt>
      <trkpt lat="41.4246596" lon="2.1033672">
        <ele>305.09002686</ele>
        <time>2022-10-30T08:21:10Z</time>
      </trkpt>
      <trkpt lat="41.4246277" lon="2.1033263">
        <ele>305.07003784</ele>
        <time>2022-10-30T08:21:11Z</time>
      </trkpt>
      <trkpt lat="41.4246007" lon="2.1032943">
        <ele>305.11004639</ele>
        <time>2022-10-30T08:21:12Z</time>
      </trkpt>
      <trkpt lat="41.4245808" lon="2.1032574">
        <ele>305.16003418</ele>
        <time>2022-10-30T08:21:13Z</time>
      </trkpt>
      <trkpt lat="41.4245439" lon="2.1032064">
        <ele>305.31002808</ele>
        <time>2022-10-30T08:21:14Z</time>
      </trkpt>
      <trkpt lat="41.4245169" lon="2.1031764">
        <ele>305.51004028</ele>
        <time>2022-10-30T08:21:15Z</time>
      </trkpt>
      <trkpt lat="41.424492" lon="2.1031425">
        <ele>305.77005005</ele>
        <time>2022-10-30T08:21:16Z</time>
      </trkpt>
      <trkpt lat="41.424472" lon="2.1031085">
        <ele>306.05004883</ele>
        <time>2022-10-30T08:21:17Z</time>
      </trkpt>
      <trkpt lat="41.4244491" lon="2.1030566">
        <ele>306.29003906</ele>
        <time>2022-10-30T08:21:18Z</time>
      </trkpt>
      <trkpt lat="41.4244411" lon="2.1030296">
        <ele>306.52005005</ele>
        <time>2022-10-30T08:21:19Z</time>
      </trkpt>
      <trkpt lat="41.4244402" lon="2.1030027">
        <ele>306.6300354</ele>
        <time>2022-10-30T08:21:20Z</time>
      </trkpt>
      <trkpt lat="41.4244402" lon="2.1029857">
        <ele>306.74002075</ele>
        <time>2022-10-30T08:21:21Z</time>
      </trkpt>
      <trkpt lat="41.4244313" lon="2.1029537">
        <ele>306.84002686</ele>
        <time>2022-10-30T08:21:22Z</time>
      </trkpt>
      <trkpt lat="41.4244084" lon="2.1028938">
        <ele>306.97003174</ele>
        <time>2022-10-30T08:21:23Z</time>
      </trkpt>
      <trkpt lat="41.4243995" lon="2.1028749">
        <ele>307.11004639</ele>
        <time>2022-10-30T08:21:24Z</time>
      </trkpt>
      <trkpt lat="41.4243975" lon="2.102863">
        <ele>307.2300415</ele>
        <time>2022-10-30T08:21:25Z</time>
      </trkpt>
      <trkpt lat="41.4244064" lon="2.10287">
        <ele>307.36004639</ele>
        <time>2022-10-30T08:21:26Z</time>
      </trkpt>
      <trkpt lat="41.4243895" lon="2.1028611">
        <ele>307.4800415</ele>
        <time>2022-10-30T08:21:27Z</time>
      </trkpt>
      <trkpt lat="41.4243556" lon="2.1028261">
        <ele>307.6300354</ele>
        <time>2022-10-30T08:21:28Z</time>
      </trkpt>
      <trkpt lat="41.4243366" lon="2.1027991">
        <ele>307.72003174</ele>
        <time>2022-10-30T08:21:29Z</time>
      </trkpt>
      <trkpt lat="41.4243137" lon="2.1027652">
        <ele>307.82003784</ele>
        <time>2022-10-30T08:21:30Z</time>
      </trkpt>
      <trkpt lat="41.4242938" lon="2.1027362">
        <ele>307.89004517</ele>
        <time>2022-10-30T08:21:31Z</time>
      </trkpt>
      <trkpt lat="41.4242459" lon="2.1027153">
        <ele>307.9800415</ele>
        <time>2022-10-30T08:21:32Z</time>
      </trkpt>
      <trkpt lat="41.4242039" lon="2.1027103">
        <ele>308.17004395</ele>
        <time>2022-10-30T08:21:33Z</time>
      </trkpt>
      <trkpt lat="41.424172" lon="2.1026984">
        <ele>308.26004028</ele>
        <time>2022-10-30T08:21:34Z</time>
      </trkpt>
      <trkpt lat="41.424148" lon="2.1026925">
        <ele>308.3800354</ele>
        <time>2022-10-30T08:21:35Z</time>
      </trkpt>
      <trkpt lat="41.4241101" lon="2.1026934">
        <ele>308.47003174</ele>
        <time>2022-10-30T08:21:36Z</time>
      </trkpt>
      <trkpt lat="41.4240891" lon="2.1026855">
        <ele>308.56002808</ele>
        <time>2022-10-30T08:21:37Z</time>
      </trkpt>
      <trkpt lat="41.4240701" lon="2.1026525">
        <ele>308.67001343</ele>
        <time>2022-10-30T08:21:38Z</time>
      </trkpt>
      <trkpt lat="41.4240532" lon="2.1026276">
        <ele>308.77999878</ele>
        <time>2022-10-30T08:21:39Z</time>
      </trkpt>
      <trkpt lat="41.4240233" lon="2.1025977">
        <ele>308.88000488</ele>
        <time>2022-10-30T08:21:40Z</time>
      </trkpt>
      <trkpt lat="41.4239663" lon="2.1025627">
        <ele>308.95999146</ele>
        <time>2022-10-30T08:21:41Z</time>
      </trkpt>
      <trkpt lat="41.4239273" lon="2.1025378">
        <ele>309.13000488</ele>
        <time>2022-10-30T08:21:42Z</time>
      </trkpt>
      <trkpt lat="41.4238864" lon="2.1025328">
        <ele>309.30001831</ele>
        <time>2022-10-30T08:21:43Z</time>
      </trkpt>
      <trkpt lat="41.4238495" lon="2.1025249">
        <ele>309.50003052</ele>
        <time>2022-10-30T08:21:44Z</time>
      </trkpt>
      <trkpt lat="41.4237865" lon="2.1025099">
        <ele>309.68002319</ele>
        <time>2022-10-30T08:21:45Z</time>
      </trkpt>
      <trkpt lat="41.4237496" lon="2.102501">
        <ele>309.80001831</ele>
        <time>2022-10-30T08:21:46Z</time>
      </trkpt>
      <trkpt lat="41.4237237" lon="2.1024861">
        <ele>309.92001343</ele>
        <time>2022-10-30T08:21:47Z</time>
      </trkpt>
      <trkpt lat="41.4236987" lon="2.1024571">
        <ele>310.05001831</ele>
        <time>2022-10-30T08:21:48Z</time>
      </trkpt>
      <trkpt lat="41.4236718" lon="2.1024341">
        <ele>310.20001221</ele>
        <time>2022-10-30T08:21:49Z</time>
      </trkpt>
      <trkpt lat="41.4236148" lon="2.1024192">
        <ele>310.36001587</ele>
        <time>2022-10-30T08:21:50Z</time>
      </trkpt>
      <trkpt lat="41.4235939" lon="2.1023973">
        <ele>310.5300293</ele>
        <time>2022-10-30T08:21:51Z</time>
      </trkpt>
      <trkpt lat="41.4235779" lon="2.1023613">
        <ele>310.61001587</ele>
        <time>2022-10-30T08:21:52Z</time>
      </trkpt>
      <trkpt lat="41.423551" lon="2.1023304">
        <ele>310.66000366</ele>
        <time>2022-10-30T08:21:53Z</time>
      </trkpt>
      <trkpt lat="41.423513" lon="2.1023004">
        <ele>310.79000854</ele>
        <time>2022-10-30T08:21:54Z</time>
      </trkpt>
      <trkpt lat="41.423483" lon="2.1022395">
        <ele>310.91000366</ele>
        <time>2022-10-30T08:21:55Z</time>
      </trkpt>
      <trkpt lat="41.4234561" lon="2.1022085">
        <ele>311.16000366</ele>
        <time>2022-10-30T08:21:56Z</time>
      </trkpt>
      <trkpt lat="41.4234351" lon="2.1021786">
        <ele>311.42999268</ele>
        <time>2022-10-30T08:21:57Z</time>
      </trkpt>
      <trkpt lat="41.4234101" lon="2.1021646">
        <ele>311.66000366</ele>
        <time>2022-10-30T08:21:58Z</time>
      </trkpt>
      <trkpt lat="41.4233712" lon="2.1021486">
        <ele>311.89001465</ele>
        <time>2022-10-30T08:21:59Z</time>
      </trkpt>
      <trkpt lat="41.4233342" lon="2.1021397">
        <ele>312.04000854</ele>
        <time>2022-10-30T08:22:00Z</time>
      </trkpt>
      <trkpt lat="41.4233003" lon="2.1021278">
        <ele>312.17001343</ele>
        <time>2022-10-30T08:22:01Z</time>
      </trkpt>
      <trkpt lat="41.4232684" lon="2.1021118">
        <ele>312.25</ele>
        <time>2022-10-30T08:22:02Z</time>
      </trkpt>
      <trkpt lat="41.4232384" lon="2.1020899">
        <ele>312.41000366</ele>
        <time>2022-10-30T08:22:03Z</time>
      </trkpt>
      <trkpt lat="41.4232085" lon="2.1020579">
        <ele>312.64001465</ele>
        <time>2022-10-30T08:22:04Z</time>
      </trkpt>
      <trkpt lat="41.4231845" lon="2.1020379">
        <ele>312.96002197</ele>
        <time>2022-10-30T08:22:05Z</time>
      </trkpt>
      <trkpt lat="41.4231874" lon="2.1019959">
        <ele>313.32000732</ele>
        <time>2022-10-30T08:22:06Z</time>
      </trkpt>
      <trkpt lat="41.4231865" lon="2.101948">
        <ele>313.57000732</ele>
        <time>2022-10-30T08:22:07Z</time>
      </trkpt>
      <trkpt lat="41.4231746" lon="2.101887">
        <ele>313.83001709</ele>
        <time>2022-10-30T08:22:08Z</time>
      </trkpt>
      <trkpt lat="41.4231646" lon="2.1018461">
        <ele>314.02001953</ele>
        <time>2022-10-30T08:22:09Z</time>
      </trkpt>
      <trkpt lat="41.4231607" lon="2.1017961">
        <ele>314.21002197</ele>
        <time>2022-10-30T08:22:10Z</time>
      </trkpt>
      <trkpt lat="41.4231477" lon="2.1017592">
        <ele>314.48001099</ele>
        <time>2022-10-30T08:22:11Z</time>
      </trkpt>
      <trkpt lat="41.4231218" lon="2.1017302">
        <ele>314.71002197</ele>
        <time>2022-10-30T08:22:12Z</time>
      </trkpt>
      <trkpt lat="41.4230858" lon="2.1016822">
        <ele>314.93002319</ele>
        <time>2022-10-30T08:22:13Z</time>
      </trkpt>
      <trkpt lat="41.4230728" lon="2.1016583">
        <ele>315.16003418</ele>
        <time>2022-10-30T08:22:14Z</time>
      </trkpt>
      <trkpt lat="41.4230659" lon="2.1016213">
        <ele>315.35003662</ele>
        <time>2022-10-30T08:22:15Z</time>
      </trkpt>
      <trkpt lat="41.4230609" lon="2.1015934">
        <ele>315.4800415</ele>
        <time>2022-10-30T08:22:16Z</time>
      </trkpt>
      <trkpt lat="41.423041" lon="2.1015515">
        <ele>315.6300354</ele>
        <time>2022-10-30T08:22:17Z</time>
      </trkpt>
      <trkpt lat="41.423034" lon="2.1015325">
        <ele>315.79003906</ele>
        <time>2022-10-30T08:22:18Z</time>
      </trkpt>
      <trkpt lat="41.4230311" lon="2.1015106">
        <ele>315.9800415</ele>
        <time>2022-10-30T08:22:19Z</time>
      </trkpt>
      <trkpt lat="41.4230242" lon="2.1014857">
        <ele>316.22003174</ele>
        <time>2022-10-30T08:22:20Z</time>
      </trkpt>
      <trkpt lat="41.4230082" lon="2.1014498">
        <ele>316.46002197</ele>
        <time>2022-10-30T08:22:21Z</time>
      </trkpt>
      <trkpt lat="41.4230043" lon="2.1014238">
        <ele>316.67001343</ele>
        <time>2022-10-30T08:22:22Z</time>
      </trkpt>
      <trkpt lat="41.4229993" lon="2.1013929">
        <ele>316.86001587</ele>
        <time>2022-10-30T08:22:23Z</time>
      </trkpt>
      <trkpt lat="41.4229904" lon="2.1013559">
        <ele>317.0300293</ele>
        <time>2022-10-30T08:22:24Z</time>
      </trkpt>
      <trkpt lat="41.4229785" lon="2.1013169">
        <ele>317.20004272</ele>
        <time>2022-10-30T08:22:25Z</time>
      </trkpt>
      <trkpt lat="41.4229715" lon="2.101265">
        <ele>317.36004639</ele>
        <time>2022-10-30T08:22:26Z</time>
      </trkpt>
      <trkpt lat="41.4229744" lon="2.1012211">
        <ele>317.57003784</ele>
        <time>2022-10-30T08:22:27Z</time>
      </trkpt>
      <trkpt lat="41.4229724" lon="2.1011772">
        <ele>317.84002686</ele>
        <time>2022-10-30T08:22:28Z</time>
      </trkpt>
      <trkpt lat="41.4229744" lon="2.1011382">
        <ele>318.10003662</ele>
        <time>2022-10-30T08:22:29Z</time>
      </trkpt>
      <trkpt lat="41.4229824" lon="2.1010913">
        <ele>318.45004272</ele>
        <time>2022-10-30T08:22:30Z</time>
      </trkpt>
      <trkpt lat="41.4229934" lon="2.1010623">
        <ele>318.82003784</ele>
        <time>2022-10-30T08:22:31Z</time>
      </trkpt>
      <trkpt lat="41.4230083" lon="2.1010404">
        <ele>319.12002563</ele>
        <time>2022-10-30T08:22:32Z</time>
      </trkpt>
      <trkpt lat="41.4230223" lon="2.1010164">
        <ele>319.40002441</ele>
        <time>2022-10-30T08:22:33Z</time>
      </trkpt>
      <trkpt lat="41.4230353" lon="2.1009855">
        <ele>319.55001831</ele>
        <time>2022-10-30T08:22:34Z</time>
      </trkpt>
      <trkpt lat="41.4230522" lon="2.1009416">
        <ele>319.6000061</ele>
        <time>2022-10-30T08:22:35Z</time>
      </trkpt>
      <trkpt lat="41.4230572" lon="2.1009146">
        <ele>319.69000244</ele>
        <time>2022-10-30T08:22:36Z</time>
      </trkpt>
      <trkpt lat="41.4230661" lon="2.1008856">
        <ele>319.79000854</ele>
        <time>2022-10-30T08:22:37Z</time>
      </trkpt>
      <trkpt lat="41.423076" lon="2.1008517">
        <ele>319.95001221</ele>
        <time>2022-10-30T08:22:38Z</time>
      </trkpt>
      <trkpt lat="41.423088" lon="2.1008097">
        <ele>320.15002441</ele>
        <time>2022-10-30T08:22:39Z</time>
      </trkpt>
      <trkpt lat="41.4231029" lon="2.1007418">
        <ele>320.30001831</ele>
        <time>2022-10-30T08:22:40Z</time>
      </trkpt>
      <trkpt lat="41.4231198" lon="2.1007018">
        <ele>320.49002075</ele>
        <time>2022-10-30T08:22:41Z</time>
      </trkpt>
      <trkpt lat="41.4231367" lon="2.1006589">
        <ele>320.57000732</ele>
        <time>2022-10-30T08:22:42Z</time>
      </trkpt>
      <trkpt lat="41.4231587" lon="2.1006199">
        <ele>320.64001465</ele>
        <time>2022-10-30T08:22:43Z</time>
      </trkpt>
      <trkpt lat="41.4232057" lon="2.1005719">
        <ele>320.69000244</ele>
        <time>2022-10-30T08:22:44Z</time>
      </trkpt>
      <trkpt lat="41.4232396" lon="2.1005429">
        <ele>320.58999634</ele>
        <time>2022-10-30T08:22:45Z</time>
      </trkpt>
      <trkpt lat="41.4232755" lon="2.100512">
        <ele>320.58999634</ele>
        <time>2022-10-30T08:22:46Z</time>
      </trkpt>
      <trkpt lat="41.4233055" lon="2.10048">
        <ele>320.36999512</ele>
        <time>2022-10-30T08:22:47Z</time>
      </trkpt>
      <trkpt lat="41.4233445" lon="2.1004581">
        <ele>320.16998291</ele>
        <time>2022-10-30T08:22:48Z</time>
      </trkpt>
      <trkpt lat="41.4233885" lon="2.1004212">
        <ele>319.98999023</ele>
        <time>2022-10-30T08:22:49Z</time>
      </trkpt>
      <trkpt lat="41.4234174" lon="2.1004032">
        <ele>319.70999146</ele>
        <time>2022-10-30T08:22:50Z</time>
      </trkpt>
      <trkpt lat="41.4234523" lon="2.1003793">
        <ele>319.69000244</ele>
        <time>2022-10-30T08:22:51Z</time>
      </trkpt>
      <trkpt lat="41.4234933" lon="2.1003593">
        <ele>319.58001709</ele>
        <time>2022-10-30T08:22:52Z</time>
      </trkpt>
      <trkpt lat="41.4235523" lon="2.1003273">
        <ele>319.48001099</ele>
        <time>2022-10-30T08:22:53Z</time>
      </trkpt>
      <trkpt lat="41.4235902" lon="2.1003074">
        <ele>319.38000488</ele>
        <time>2022-10-30T08:22:54Z</time>
      </trkpt>
      <trkpt lat="41.4236252" lon="2.1002804">
        <ele>319.13000488</ele>
        <time>2022-10-30T08:22:55Z</time>
      </trkpt>
      <trkpt lat="41.4236582" lon="2.1002445">
        <ele>318.92001343</ele>
        <time>2022-10-30T08:22:56Z</time>
      </trkpt>
      <trkpt lat="41.4237011" lon="2.1002105">
        <ele>318.67001343</ele>
        <time>2022-10-30T08:22:57Z</time>
      </trkpt>
      <trkpt lat="41.4237601" lon="2.1001536">
        <ele>318.41000366</ele>
        <time>2022-10-30T08:22:58Z</time>
      </trkpt>
      <trkpt lat="41.4237931" lon="2.1001047">
        <ele>318.14001465</ele>
        <time>2022-10-30T08:22:59Z</time>
      </trkpt>
      <trkpt lat="41.423826" lon="2.1000597">
        <ele>317.93002319</ele>
        <time>2022-10-30T08:23:00Z</time>
      </trkpt>
      <trkpt lat="41.4238569" lon="2.1000277">
        <ele>317.77001953</ele>
        <time>2022-10-30T08:23:01Z</time>
      </trkpt>
      <trkpt lat="41.4238989" lon="2.0999857">
        <ele>317.69003296</ele>
        <time>2022-10-30T08:23:02Z</time>
      </trkpt>
      <trkpt lat="41.4239309" lon="2.0999717">
        <ele>317.74002075</ele>
        <time>2022-10-30T08:23:03Z</time>
      </trkpt>
      <trkpt lat="41.4239558" lon="2.0999588">
        <ele>317.87002563</ele>
        <time>2022-10-30T08:23:04Z</time>
      </trkpt>
      <trkpt lat="41.4239798" lon="2.0999548">
        <ele>318.1300354</ele>
        <time>2022-10-30T08:23:05Z</time>
      </trkpt>
      <trkpt lat="41.4240147" lon="2.0999637">
        <ele>318.40002441</ele>
        <time>2022-10-30T08:23:06Z</time>
      </trkpt>
      <trkpt lat="41.4240387" lon="2.0999656">
        <ele>318.69003296</ele>
        <time>2022-10-30T08:23:07Z</time>
      </trkpt>
      <trkpt lat="41.4240657" lon="2.0999617">
        <ele>318.90002441</ele>
        <time>2022-10-30T08:23:08Z</time>
      </trkpt>
      <trkpt lat="41.4240806" lon="2.0999567">
        <ele>319.10003662</ele>
        <time>2022-10-30T08:23:09Z</time>
      </trkpt>
      <trkpt lat="41.4240916" lon="2.0999488">
        <ele>319.37002563</ele>
        <time>2022-10-30T08:23:10Z</time>
      </trkpt>
      <trkpt lat="41.4241166" lon="2.0999488">
        <ele>319.60003662</ele>
        <time>2022-10-30T08:23:11Z</time>
      </trkpt>
      <trkpt lat="41.4241355" lon="2.0999448">
        <ele>319.86004639</ele>
        <time>2022-10-30T08:23:12Z</time>
      </trkpt>
      <trkpt lat="41.4241664" lon="2.0999429">
        <ele>320.15005493</ele>
        <time>2022-10-30T08:23:13Z</time>
      </trkpt>
      <trkpt lat="41.4242034" lon="2.0999349">
        <ele>320.36004639</ele>
        <time>2022-10-30T08:23:14Z</time>
      </trkpt>
      <trkpt lat="41.4242343" lon="2.0999339">
        <ele>320.59005737</ele>
        <time>2022-10-30T08:23:15Z</time>
      </trkpt>
      <trkpt lat="41.4242842" lon="2.099931">
        <ele>320.81005859</ele>
        <time>2022-10-30T08:23:16Z</time>
      </trkpt>
      <trkpt lat="41.4243172" lon="2.0999291">
        <ele>320.94006348</ele>
        <time>2022-10-30T08:23:17Z</time>
      </trkpt>
      <trkpt lat="41.4243502" lon="2.0999262">
        <ele>321.06005859</ele>
        <time>2022-10-30T08:23:18Z</time>
      </trkpt>
      <trkpt lat="41.4243782" lon="2.0999143">
        <ele>321.24005127</ele>
        <time>2022-10-30T08:23:19Z</time>
      </trkpt>
      <trkpt lat="41.4244241" lon="2.0999143">
        <ele>321.38006592</ele>
        <time>2022-10-30T08:23:20Z</time>
      </trkpt>
      <trkpt lat="41.4244521" lon="2.0999252">
        <ele>321.59005737</ele>
        <time>2022-10-30T08:23:21Z</time>
      </trkpt>
      <trkpt lat="41.4244821" lon="2.0999382">
        <ele>321.87005615</ele>
        <time>2022-10-30T08:23:22Z</time>
      </trkpt>
      <trkpt lat="41.424505" lon="2.0999411">
        <ele>322.10006714</ele>
        <time>2022-10-30T08:23:23Z</time>
      </trkpt>
      <trkpt lat="41.4245359" lon="2.0999481">
        <ele>322.39007568</ele>
        <time>2022-10-30T08:23:24Z</time>
      </trkpt>
      <trkpt lat="41.4245609" lon="2.0999452">
        <ele>322.65008545</ele>
        <time>2022-10-30T08:23:25Z</time>
      </trkpt>
      <trkpt lat="41.4245889" lon="2.0999433">
        <ele>322.87008667</ele>
        <time>2022-10-30T08:23:26Z</time>
      </trkpt>
      <trkpt lat="41.4246118" lon="2.0999423">
        <ele>323.0401001</ele>
        <time>2022-10-30T08:23:27Z</time>
      </trkpt>
      <trkpt lat="41.4246287" lon="2.0999193">
        <ele>323.22009277</ele>
        <time>2022-10-30T08:23:28Z</time>
      </trkpt>
      <trkpt lat="41.4246477" lon="2.0998954">
        <ele>323.40008545</ele>
        <time>2022-10-30T08:23:29Z</time>
      </trkpt>
      <trkpt lat="41.4246546" lon="2.0998644">
        <ele>323.60009766</ele>
        <time>2022-10-30T08:23:30Z</time>
      </trkpt>
      <trkpt lat="41.4246686" lon="2.0998285">
        <ele>323.8901062</ele>
        <time>2022-10-30T08:23:31Z</time>
      </trkpt>
      <trkpt lat="41.4246826" lon="2.0997825">
        <ele>324.17010498</ele>
        <time>2022-10-30T08:23:32Z</time>
      </trkpt>
      <trkpt lat="41.4246966" lon="2.0997366">
        <ele>324.4901123</ele>
        <time>2022-10-30T08:23:33Z</time>
      </trkpt>
      <trkpt lat="41.4247036" lon="2.0996676">
        <ele>324.83010864</ele>
        <time>2022-10-30T08:23:34Z</time>
      </trkpt>
      <trkpt lat="41.4246986" lon="2.0996227">
        <ele>325.18011475</ele>
        <time>2022-10-30T08:23:35Z</time>
      </trkpt>
      <trkpt lat="41.4246846" lon="2.0995777">
        <ele>325.6401062</ele>
        <time>2022-10-30T08:23:36Z</time>
      </trkpt>
      <trkpt lat="41.4246766" lon="2.0995387">
        <ele>326.10009766</ele>
        <time>2022-10-30T08:23:37Z</time>
      </trkpt>
      <trkpt lat="41.4246737" lon="2.0994877">
        <ele>326.59008789</ele>
        <time>2022-10-30T08:23:38Z</time>
      </trkpt>
      <trkpt lat="41.4246648" lon="2.0994468">
        <ele>326.99008179</ele>
        <time>2022-10-30T08:23:39Z</time>
      </trkpt>
      <trkpt lat="41.4246568" lon="2.0994018">
        <ele>327.27008057</ele>
        <time>2022-10-30T08:23:40Z</time>
      </trkpt>
      <trkpt lat="41.4246458" lon="2.0993568">
        <ele>327.54006958</ele>
        <time>2022-10-30T08:23:41Z</time>
      </trkpt>
      <trkpt lat="41.4246388" lon="2.0993189">
        <ele>327.72006226</ele>
        <time>2022-10-30T08:23:42Z</time>
      </trkpt>
      <trkpt lat="41.4246159" lon="2.0992739">
        <ele>327.92007446</ele>
        <time>2022-10-30T08:23:43Z</time>
      </trkpt>
      <trkpt lat="41.424603" lon="2.099251">
        <ele>328.14007568</ele>
        <time>2022-10-30T08:23:44Z</time>
      </trkpt>
      <trkpt lat="41.424588" lon="2.099228">
        <ele>328.40008545</ele>
        <time>2022-10-30T08:23:45Z</time>
      </trkpt>
      <trkpt lat="41.4245781" lon="2.0992061">
        <ele>328.68008423</ele>
        <time>2022-10-30T08:23:46Z</time>
      </trkpt>
      <trkpt lat="41.4245651" lon="2.0991741">
        <ele>329.0100708</ele>
        <time>2022-10-30T08:23:47Z</time>
      </trkpt>
      <trkpt lat="41.4245592" lon="2.0991581">
        <ele>329.35006714</ele>
        <time>2022-10-30T08:23:48Z</time>
      </trkpt>
      <trkpt lat="41.4245533" lon="2.0991481">
        <ele>329.60006714</ele>
        <time>2022-10-30T08:23:49Z</time>
      </trkpt>
      <trkpt lat="41.4245323" lon="2.0991272">
        <ele>329.6600647</ele>
        <time>2022-10-30T08:23:50Z</time>
      </trkpt>
      <trkpt lat="41.4245104" lon="2.0991092">
        <ele>329.62005615</ele>
        <time>2022-10-30T08:23:51Z</time>
      </trkpt>
      <trkpt lat="41.4244625" lon="2.0990853">
        <ele>329.47006226</ele>
        <time>2022-10-30T08:23:52Z</time>
      </trkpt>
      <trkpt lat="41.4244375" lon="2.0990674">
        <ele>329.23007202</ele>
        <time>2022-10-30T08:23:53Z</time>
      </trkpt>
      <trkpt lat="41.4244055" lon="2.0990485">
        <ele>329.0100708</ele>
        <time>2022-10-30T08:23:54Z</time>
      </trkpt>
      <trkpt lat="41.4243646" lon="2.0990355">
        <ele>328.67007446</ele>
        <time>2022-10-30T08:23:55Z</time>
      </trkpt>
      <trkpt lat="41.4242997" lon="2.0990075">
        <ele>328.23007202</ele>
        <time>2022-10-30T08:23:56Z</time>
      </trkpt>
      <trkpt lat="41.4242407" lon="2.0989796">
        <ele>327.65008545</ele>
        <time>2022-10-30T08:23:57Z</time>
      </trkpt>
      <trkpt lat="41.4242007" lon="2.0989387">
        <ele>327.08007812</ele>
        <time>2022-10-30T08:23:58Z</time>
      </trkpt>
      <trkpt lat="41.4241628" lon="2.0988997">
        <ele>326.63006592</ele>
        <time>2022-10-30T08:23:59Z</time>
      </trkpt>
      <trkpt lat="41.4241158" lon="2.0988578">
        <ele>326.27008057</ele>
        <time>2022-10-30T08:24:00Z</time>
      </trkpt>
      <trkpt lat="41.4240878" lon="2.0988587">
        <ele>326.14007568</ele>
        <time>2022-10-30T08:24:01Z</time>
      </trkpt>
      <trkpt lat="41.4240479" lon="2.0988578">
        <ele>325.98007202</ele>
        <time>2022-10-30T08:24:02Z</time>
      </trkpt>
      <trkpt lat="41.4240149" lon="2.0988489">
        <ele>325.54006958</ele>
        <time>2022-10-30T08:24:03Z</time>
      </trkpt>
      <trkpt lat="41.42399" lon="2.0988309">
        <ele>324.9100647</ele>
        <time>2022-10-30T08:24:04Z</time>
      </trkpt>
      <trkpt lat="41.4239591" lon="2.098806">
        <ele>324.04006958</ele>
        <time>2022-10-30T08:24:05Z</time>
      </trkpt>
      <trkpt lat="41.4239331" lon="2.09879">
        <ele>323.23007202</ele>
        <time>2022-10-30T08:24:06Z</time>
      </trkpt>
      <trkpt lat="41.4238911" lon="2.0987721">
        <ele>322.18008423</ele>
        <time>2022-10-30T08:24:07Z</time>
      </trkpt>
      <trkpt lat="41.4238562" lon="2.0987412">
        <ele>321.08007812</ele>
        <time>2022-10-30T08:24:08Z</time>
      </trkpt>
      <trkpt lat="41.4238193" lon="2.0987012">
        <ele>320.09008789</ele>
        <time>2022-10-30T08:24:09Z</time>
      </trkpt>
      <trkpt lat="41.4237523" lon="2.0986363">
        <ele>318.92007446</ele>
        <time>2022-10-30T08:24:10Z</time>
      </trkpt>
      <trkpt lat="41.4237193" lon="2.0985843">
        <ele>318.04006958</ele>
        <time>2022-10-30T08:24:11Z</time>
      </trkpt>
      <trkpt lat="41.4237024" lon="2.0985493">
        <ele>317.45007324</ele>
        <time>2022-10-30T08:24:12Z</time>
      </trkpt>
      <trkpt lat="41.4236795" lon="2.0985214">
        <ele>316.77008057</ele>
        <time>2022-10-30T08:24:13Z</time>
      </trkpt>
      <trkpt lat="41.4236575" lon="2.0984805">
        <ele>316.2600708</ele>
        <time>2022-10-30T08:24:14Z</time>
      </trkpt>
      <trkpt lat="41.423657" lon="2.098469">
        <ele>316.33999634</ele>
        <time>2022-10-30T08:24:14Z</time>
      </trkpt>
      <trkpt lat="41.4236441" lon="2.098438">
        <ele>315.88000488</ele>
        <time>2022-10-30T08:24:15Z</time>
      </trkpt>
      <trkpt lat="41.4236311" lon="2.0984061">
        <ele>315.29000854</ele>
        <time>2022-10-30T08:24:16Z</time>
      </trkpt>
      <trkpt lat="41.4236192" lon="2.0983591">
        <ele>314.80001831</ele>
        <time>2022-10-30T08:24:17Z</time>
      </trkpt>
      <trkpt lat="41.4236201" lon="2.0983262">
        <ele>314.27001953</ele>
        <time>2022-10-30T08:24:18Z</time>
      </trkpt>
      <trkpt lat="41.423621" lon="2.0982592">
        <ele>313.88000488</ele>
        <time>2022-10-30T08:24:19Z</time>
      </trkpt>
      <trkpt lat="41.4236091" lon="2.0982202">
        <ele>313.47000122</ele>
        <time>2022-10-30T08:24:20Z</time>
      </trkpt>
      <trkpt lat="41.4235871" lon="2.0981852">
        <ele>312.88000488</ele>
        <time>2022-10-30T08:24:21Z</time>
      </trkpt>
      <trkpt lat="41.4235591" lon="2.0981383">
        <ele>312.11001587</ele>
        <time>2022-10-30T08:24:22Z</time>
      </trkpt>
      <trkpt lat="41.4235171" lon="2.0980633">
        <ele>310.95001221</ele>
        <time>2022-10-30T08:24:23Z</time>
      </trkpt>
      <trkpt lat="41.4234872" lon="2.0980154">
        <ele>309.47000122</ele>
        <time>2022-10-30T08:24:24Z</time>
      </trkpt>
      <trkpt lat="41.4234572" lon="2.0979734">
        <ele>308.07000732</ele>
        <time>2022-10-30T08:24:25Z</time>
      </trkpt>
      <trkpt lat="41.4234292" lon="2.0979364">
        <ele>306.33999634</ele>
        <time>2022-10-30T08:24:26Z</time>
      </trkpt>
      <trkpt lat="41.4234042" lon="2.0978655">
        <ele>304.72000122</ele>
        <time>2022-10-30T08:24:27Z</time>
      </trkpt>
      <trkpt lat="41.4233953" lon="2.0978116">
        <ele>303.20001221</ele>
        <time>2022-10-30T08:24:28Z</time>
      </trkpt>
      <trkpt lat="41.4233854" lon="2.0977666">
        <ele>301.58001709</ele>
        <time>2022-10-30T08:24:29Z</time>
      </trkpt>
      <trkpt lat="41.4233654" lon="2.0977276">
        <ele>300.18002319</ele>
        <time>2022-10-30T08:24:30Z</time>
      </trkpt>
      <trkpt lat="41.4233395" lon="2.0976947">
        <ele>298.65002441</ele>
        <time>2022-10-30T08:24:31Z</time>
      </trkpt>
      <trkpt lat="41.4233046" lon="2.0976408">
        <ele>296.86001587</ele>
        <time>2022-10-30T08:24:32Z</time>
      </trkpt>
      <trkpt lat="41.4232836" lon="2.0976158">
        <ele>294.80001831</ele>
        <time>2022-10-30T08:24:33Z</time>
      </trkpt>
      <trkpt lat="41.4232657" lon="2.0976089">
        <ele>293.06002808</ele>
        <time>2022-10-30T08:24:34Z</time>
      </trkpt>
      <trkpt lat="41.4232527" lon="2.097603">
        <ele>291.65002441</ele>
        <time>2022-10-30T08:24:35Z</time>
      </trkpt>
      <trkpt lat="41.4232288" lon="2.097597">
        <ele>290.68002319</ele>
        <time>2022-10-30T08:24:36Z</time>
      </trkpt>
      <trkpt lat="41.4231968" lon="2.0975551">
        <ele>290.1300354</ele>
        <time>2022-10-30T08:24:37Z</time>
      </trkpt>
      <trkpt lat="41.4231819" lon="2.0975041">
        <ele>289.47003174</ele>
        <time>2022-10-30T08:24:38Z</time>
      </trkpt>
      <trkpt lat="41.423161" lon="2.0974461">
        <ele>288.82003784</ele>
        <time>2022-10-30T08:24:39Z</time>
      </trkpt>
      <trkpt lat="41.423142" lon="2.0974001">
        <ele>288.07003784</ele>
        <time>2022-10-30T08:24:40Z</time>
      </trkpt>
      <trkpt lat="41.423095" lon="2.0973162">
        <ele>287.30004883</ele>
        <time>2022-10-30T08:24:41Z</time>
      </trkpt>
      <trkpt lat="41.423065" lon="2.0972812">
        <ele>286.4800415</ele>
        <time>2022-10-30T08:24:42Z</time>
      </trkpt>
      <trkpt lat="41.4230311" lon="2.0972332">
        <ele>285.47003174</ele>
        <time>2022-10-30T08:24:43Z</time>
      </trkpt>
      <trkpt lat="41.4229932" lon="2.0971703">
        <ele>284.56002808</ele>
        <time>2022-10-30T08:24:44Z</time>
      </trkpt>
      <trkpt lat="41.4229262" lon="2.0970884">
        <ele>283.62002563</ele>
        <time>2022-10-30T08:24:45Z</time>
      </trkpt>
      <trkpt lat="41.4228902" lon="2.0970434">
        <ele>282.73001099</ele>
        <time>2022-10-30T08:24:46Z</time>
      </trkpt>
      <trkpt lat="41.4228413" lon="2.0970055">
        <ele>282.12002563</ele>
        <time>2022-10-30T08:24:47Z</time>
      </trkpt>
      <trkpt lat="41.4227943" lon="2.0969685">
        <ele>281.42001343</ele>
        <time>2022-10-30T08:24:48Z</time>
      </trkpt>
      <trkpt lat="41.4227324" lon="2.0969346">
        <ele>280.84002686</ele>
        <time>2022-10-30T08:24:49Z</time>
      </trkpt>
      <trkpt lat="41.4226445" lon="2.0968787">
        <ele>280.12002563</ele>
        <time>2022-10-30T08:24:50Z</time>
      </trkpt>
      <trkpt lat="41.4225826" lon="2.0968497">
        <ele>279.35003662</ele>
        <time>2022-10-30T08:24:51Z</time>
      </trkpt>
      <trkpt lat="41.4225317" lon="2.0968257">
        <ele>278.61004639</ele>
        <time>2022-10-30T08:24:52Z</time>
      </trkpt>
      <trkpt lat="41.4224857" lon="2.0968128">
        <ele>277.81005859</ele>
        <time>2022-10-30T08:24:53Z</time>
      </trkpt>
      <trkpt lat="41.4224208" lon="2.0968167">
        <ele>277.19006348</ele>
        <time>2022-10-30T08:24:54Z</time>
      </trkpt>
      <trkpt lat="41.4223788" lon="2.0968237">
        <ele>276.57006836</ele>
        <time>2022-10-30T08:24:55Z</time>
      </trkpt>
      <trkpt lat="41.4223489" lon="2.0968426">
        <ele>276.1600647</ele>
        <time>2022-10-30T08:24:56Z</time>
      </trkpt>
      <trkpt lat="41.4223279" lon="2.0968445">
        <ele>275.82006836</ele>
        <time>2022-10-30T08:24:57Z</time>
      </trkpt>
      <trkpt lat="41.422301" lon="2.0968396">
        <ele>275.58007812</ele>
        <time>2022-10-30T08:24:58Z</time>
      </trkpt>
      <trkpt lat="41.422262" lon="2.0968157">
        <ele>275.27008057</ele>
        <time>2022-10-30T08:24:59Z</time>
      </trkpt>
      <trkpt lat="41.4222391" lon="2.0968147">
        <ele>274.77008057</ele>
        <time>2022-10-30T08:25:00Z</time>
      </trkpt>
      <trkpt lat="41.4222021" lon="2.0968247">
        <ele>274.04006958</ele>
        <time>2022-10-30T08:25:01Z</time>
      </trkpt>
      <trkpt lat="41.4221682" lon="2.0968486">
        <ele>273.24008179</ele>
        <time>2022-10-30T08:25:02Z</time>
      </trkpt>
      <trkpt lat="41.4221232" lon="2.0968716">
        <ele>272.30007935</ele>
        <time>2022-10-30T08:25:03Z</time>
      </trkpt>
      <trkpt lat="41.4221003" lon="2.0968697">
        <ele>271.48007202</ele>
        <time>2022-10-30T08:25:04Z</time>
      </trkpt>
      <trkpt lat="41.4220824" lon="2.0968657">
        <ele>270.84005737</ele>
        <time>2022-10-30T08:25:05Z</time>
      </trkpt>
      <trkpt lat="41.4220724" lon="2.0968628">
        <ele>270.12005615</ele>
        <time>2022-10-30T08:25:06Z</time>
      </trkpt>
      <trkpt lat="41.4220474" lon="2.0968548">
        <ele>269.55004883</ele>
        <time>2022-10-30T08:25:07Z</time>
      </trkpt>
      <trkpt lat="41.4220205" lon="2.0968359">
        <ele>268.84005737</ele>
        <time>2022-10-30T08:25:08Z</time>
      </trkpt>
      <trkpt lat="41.4220065" lon="2.096817">
        <ele>268.05004883</ele>
        <time>2022-10-30T08:25:09Z</time>
      </trkpt>
      <trkpt lat="41.4220025" lon="2.0967981">
        <ele>267.11004639</ele>
        <time>2022-10-30T08:25:10Z</time>
      </trkpt>
      <trkpt lat="41.4220054" lon="2.0967851">
        <ele>266.28005981</ele>
        <time>2022-10-30T08:25:11Z</time>
      </trkpt>
      <trkpt lat="41.4220084" lon="2.0967662">
        <ele>265.61004639</ele>
        <time>2022-10-30T08:25:12Z</time>
      </trkpt>
      <trkpt lat="41.4220004" lon="2.0967583">
        <ele>265.04003906</ele>
        <time>2022-10-30T08:25:13Z</time>
      </trkpt>
      <trkpt lat="41.4219945" lon="2.0967404">
        <ele>264.77005005</ele>
        <time>2022-10-30T08:25:14Z</time>
      </trkpt>
      <trkpt lat="41.4219795" lon="2.0967215">
        <ele>264.40005493</ele>
        <time>2022-10-30T08:25:15Z</time>
      </trkpt>
      <trkpt lat="41.4219685" lon="2.0967125">
        <ele>263.86004639</ele>
        <time>2022-10-30T08:25:16Z</time>
      </trkpt>
      <trkpt lat="41.4219426" lon="2.0966835">
        <ele>263.24005127</ele>
        <time>2022-10-30T08:25:17Z</time>
      </trkpt>
      <trkpt lat="41.4219206" lon="2.0966675">
        <ele>262.45004272</ele>
        <time>2022-10-30T08:25:18Z</time>
      </trkpt>
      <trkpt lat="41.4219007" lon="2.0966666">
        <ele>261.5300293</ele>
        <time>2022-10-30T08:25:19Z</time>
      </trkpt>
      <trkpt lat="41.4218738" lon="2.0966637">
        <ele>260.64001465</ele>
        <time>2022-10-30T08:25:20Z</time>
      </trkpt>
      <trkpt lat="41.4218438" lon="2.0966696">
        <ele>259.63000488</ele>
        <time>2022-10-30T08:25:21Z</time>
      </trkpt>
      <trkpt lat="41.4217959" lon="2.0966905">
        <ele>258.70001221</ele>
        <time>2022-10-30T08:25:22Z</time>
      </trkpt>
      <trkpt lat="41.4217599" lon="2.0967065">
        <ele>257.71002197</ele>
        <time>2022-10-30T08:25:23Z</time>
      </trkpt>
      <trkpt lat="41.4217239" lon="2.0967145">
        <ele>256.85003662</ele>
        <time>2022-10-30T08:25:24Z</time>
      </trkpt>
      <trkpt lat="41.421689" lon="2.0967194">
        <ele>256.31002808</ele>
        <time>2022-10-30T08:25:25Z</time>
      </trkpt>
      <trkpt lat="41.421657" lon="2.0967204">
        <ele>255.95002747</ele>
        <time>2022-10-30T08:25:26Z</time>
      </trkpt>
      <trkpt lat="41.4216401" lon="2.0967293">
        <ele>255.90002441</ele>
        <time>2022-10-30T08:25:27Z</time>
      </trkpt>
      <trkpt lat="41.4216232" lon="2.0967264">
        <ele>255.9400177</ele>
        <time>2022-10-30T08:25:28Z</time>
      </trkpt>
      <trkpt lat="41.4216083" lon="2.0967334">
        <ele>255.96002197</ele>
        <time>2022-10-30T08:25:29Z</time>
      </trkpt>
      <trkpt lat="41.4215734" lon="2.0967453">
        <ele>255.90002441</ele>
        <time>2022-10-30T08:25:30Z</time>
      </trkpt>
      <trkpt lat="41.4215474" lon="2.0967493">
        <ele>255.75003052</ele>
        <time>2022-10-30T08:25:31Z</time>
      </trkpt>
      <trkpt lat="41.4215185" lon="2.0967393">
        <ele>255.3800354</ele>
        <time>2022-10-30T08:25:32Z</time>
      </trkpt>
      <trkpt lat="41.4214905" lon="2.0967304">
        <ele>254.72003174</ele>
        <time>2022-10-30T08:25:33Z</time>
      </trkpt>
      <trkpt lat="41.4214625" lon="2.0967184">
        <ele>253.80003357</ele>
        <time>2022-10-30T08:25:34Z</time>
      </trkpt>
      <trkpt lat="41.4214306" lon="2.0967155">
        <ele>252.69003296</ele>
        <time>2022-10-30T08:25:35Z</time>
      </trkpt>
      <trkpt lat="41.4214217" lon="2.0966995">
        <ele>251.60003662</ele>
        <time>2022-10-30T08:25:36Z</time>
      </trkpt>
      <trkpt lat="41.4214147" lon="2.0966886">
        <ele>250.69003296</ele>
        <time>2022-10-30T08:25:37Z</time>
      </trkpt>
      <trkpt lat="41.4214007" lon="2.0966767">
        <ele>249.75003052</ele>
        <time>2022-10-30T08:25:38Z</time>
      </trkpt>
      <trkpt lat="41.4213878" lon="2.0966836">
        <ele>248.85003662</ele>
        <time>2022-10-30T08:25:39Z</time>
      </trkpt>
      <trkpt lat="41.4213518" lon="2.0967025">
        <ele>247.94003296</ele>
        <time>2022-10-30T08:25:40Z</time>
      </trkpt>
      <trkpt lat="41.4213268" lon="2.0966836">
        <ele>246.84002686</ele>
        <time>2022-10-30T08:25:41Z</time>
      </trkpt>
      <trkpt lat="41.4213188" lon="2.0966617">
        <ele>245.94003296</ele>
        <time>2022-10-30T08:25:42Z</time>
      </trkpt>
      <trkpt lat="41.4213108" lon="2.0966328">
        <ele>245.07003784</ele>
        <time>2022-10-30T08:25:43Z</time>
      </trkpt>
      <trkpt lat="41.4212959" lon="2.0966008">
        <ele>244.25003052</ele>
        <time>2022-10-30T08:25:44Z</time>
      </trkpt>
      <trkpt lat="41.4212968" lon="2.0965848">
        <ele>243.5400238</ele>
        <time>2022-10-30T08:25:45Z</time>
      </trkpt>
      <trkpt lat="41.4212849" lon="2.0965588">
        <ele>242.77001953</ele>
        <time>2022-10-30T08:25:46Z</time>
      </trkpt>
      <trkpt lat="41.4212709" lon="2.0965448">
        <ele>242.08001709</ele>
        <time>2022-10-30T08:25:47Z</time>
      </trkpt>
      <trkpt lat="41.4212639" lon="2.0965369">
        <ele>241.50001526</ele>
        <time>2022-10-30T08:25:48Z</time>
      </trkpt>
      <trkpt lat="41.4212659" lon="2.0965199">
        <ele>241.10002136</ele>
        <time>2022-10-30T08:25:49Z</time>
      </trkpt>
      <trkpt lat="41.421263" lon="2.0965189">
        <ele>240.96002197</ele>
        <time>2022-10-30T08:25:50Z</time>
      </trkpt>
      <trkpt lat="41.421259" lon="2.096516">
        <ele>240.46000671</ele>
        <time>2022-10-30T08:25:50Z</time>
      </trkpt>
      <trkpt lat="41.4212411" lon="2.096525">
        <ele>240.16000366</ele>
        <time>2022-10-30T08:25:56Z</time>
      </trkpt>
      <trkpt lat="41.4212242" lon="2.096524">
        <ele>240.08999634</ele>
        <time>2022-10-30T08:25:57Z</time>
      </trkpt>
      <trkpt lat="41.4211992" lon="2.0965259">
        <ele>240.01998901</ele>
        <time>2022-10-30T08:25:58Z</time>
      </trkpt>
      <trkpt lat="41.4211802" lon="2.0965189">
        <ele>239.95999146</ele>
        <time>2022-10-30T08:25:59Z</time>
      </trkpt>
      <trkpt lat="41.4211593" lon="2.0965239">
        <ele>239.8999939</ele>
        <time>2022-10-30T08:26:00Z</time>
      </trkpt>
      <trkpt lat="41.4211403" lon="2.0965249">
        <ele>239.87998962</ele>
        <time>2022-10-30T08:26:01Z</time>
      </trkpt>
      <trkpt lat="41.4211064" lon="2.0965318">
        <ele>239.91998291</ele>
        <time>2022-10-30T08:26:02Z</time>
      </trkpt>
      <trkpt lat="41.4210704" lon="2.0965279">
        <ele>239.9599762</ele>
        <time>2022-10-30T08:26:03Z</time>
      </trkpt>
      <trkpt lat="41.4210324" lon="2.0965239">
        <ele>240.01997375</ele>
        <time>2022-10-30T08:26:04Z</time>
      </trkpt>
      <trkpt lat="41.4210085" lon="2.0965079">
        <ele>240.04997253</ele>
        <time>2022-10-30T08:26:05Z</time>
      </trkpt>
      <trkpt lat="41.4209835" lon="2.096502">
        <ele>239.97996521</ele>
        <time>2022-10-30T08:26:06Z</time>
      </trkpt>
      <trkpt lat="41.4209516" lon="2.096484">
        <ele>239.92996216</ele>
        <time>2022-10-30T08:26:07Z</time>
      </trkpt>
      <trkpt lat="41.4209256" lon="2.0964681">
        <ele>239.83996582</ele>
        <time>2022-10-30T08:26:08Z</time>
      </trkpt>
      <trkpt lat="41.4208976" lon="2.0964431">
        <ele>239.67996216</ele>
        <time>2022-10-30T08:26:09Z</time>
      </trkpt>
      <trkpt lat="41.4208687" lon="2.0964162">
        <ele>239.50996399</ele>
        <time>2022-10-30T08:26:10Z</time>
      </trkpt>
      <trkpt lat="41.4208258" lon="2.0963633">
        <ele>239.27996826</ele>
        <time>2022-10-30T08:26:11Z</time>
      </trkpt>
      <trkpt lat="41.4208018" lon="2.0963303">
        <ele>239.05996704</ele>
        <time>2022-10-30T08:26:12Z</time>
      </trkpt>
      <trkpt lat="41.4207759" lon="2.0962983">
        <ele>238.88996887</ele>
        <time>2022-10-30T08:26:13Z</time>
      </trkpt>
      <trkpt lat="41.420755" lon="2.0962674">
        <ele>238.77996826</ele>
        <time>2022-10-30T08:26:14Z</time>
      </trkpt>
      <trkpt lat="41.420717" lon="2.0962184">
        <ele>238.70996094</ele>
        <time>2022-10-30T08:26:15Z</time>
      </trkpt>
      <trkpt lat="41.4206851" lon="2.0961945">
        <ele>238.60995483</ele>
        <time>2022-10-30T08:26:16Z</time>
      </trkpt>
      <trkpt lat="41.4206581" lon="2.0961756">
        <ele>238.49995422</ele>
        <time>2022-10-30T08:26:17Z</time>
      </trkpt>
      <trkpt lat="41.4206262" lon="2.0961656">
        <ele>238.33995056</ele>
        <time>2022-10-30T08:26:18Z</time>
      </trkpt>
      <trkpt lat="41.4205912" lon="2.0961805">
        <ele>238.14994812</ele>
        <time>2022-10-30T08:26:19Z</time>
      </trkpt>
      <trkpt lat="41.4205383" lon="2.0962265">
        <ele>237.89994812</ele>
        <time>2022-10-30T08:26:20Z</time>
      </trkpt>
      <trkpt lat="41.4205003" lon="2.0962684">
        <ele>237.55995178</ele>
        <time>2022-10-30T08:26:21Z</time>
      </trkpt>
      <trkpt lat="41.4204594" lon="2.0963144">
        <ele>237.20994568</ele>
        <time>2022-10-30T08:26:22Z</time>
      </trkpt>
      <trkpt lat="41.4204214" lon="2.0963613">
        <ele>236.81994629</ele>
        <time>2022-10-30T08:26:23Z</time>
      </trkpt>
      <trkpt lat="41.4203834" lon="2.0964033">
        <ele>236.45994568</ele>
        <time>2022-10-30T08:26:24Z</time>
      </trkpt>
      <trkpt lat="41.4203175" lon="2.0964713">
        <ele>236.1799469</ele>
        <time>2022-10-30T08:26:25Z</time>
      </trkpt>
      <trkpt lat="41.4202755" lon="2.0965172">
        <ele>235.91995239</ele>
        <time>2022-10-30T08:26:26Z</time>
      </trkpt>
      <trkpt lat="41.4202315" lon="2.0965581">
        <ele>235.69995117</ele>
        <time>2022-10-30T08:26:27Z</time>
      </trkpt>
      <trkpt lat="41.4201926" lon="2.0965931">
        <ele>235.48994446</ele>
        <time>2022-10-30T08:26:28Z</time>
      </trkpt>
      <trkpt lat="41.4201496" lon="2.0966261">
        <ele>235.28994751</ele>
        <time>2022-10-30T08:26:29Z</time>
      </trkpt>
      <trkpt lat="41.4201197" lon="2.0966521">
        <ele>235.11994934</ele>
        <time>2022-10-30T08:26:30Z</time>
      </trkpt>
      <trkpt lat="41.4200977" lon="2.09668">
        <ele>235.00994873</ele>
        <time>2022-10-30T08:26:31Z</time>
      </trkpt>
      <trkpt lat="41.4200797" lon="2.0967079">
        <ele>234.94995117</ele>
        <time>2022-10-30T08:26:32Z</time>
      </trkpt>
      <trkpt lat="41.4200548" lon="2.0967328">
        <ele>234.90995789</ele>
        <time>2022-10-30T08:26:33Z</time>
      </trkpt>
      <trkpt lat="41.4200118" lon="2.0967778">
        <ele>234.89996338</ele>
        <time>2022-10-30T08:26:34Z</time>
      </trkpt>
      <trkpt lat="41.4199898" lon="2.0967978">
        <ele>234.87995911</ele>
        <time>2022-10-30T08:26:35Z</time>
      </trkpt>
      <trkpt lat="41.4199659" lon="2.0968147">
        <ele>234.88995361</ele>
        <time>2022-10-30T08:26:36Z</time>
      </trkpt>
      <trkpt lat="41.4199379" lon="2.0968317">
        <ele>234.89994812</ele>
        <time>2022-10-30T08:26:37Z</time>
      </trkpt>
      <trkpt lat="41.41989" lon="2.0968506">
        <ele>234.88995361</ele>
        <time>2022-10-30T08:26:38Z</time>
      </trkpt>
      <trkpt lat="41.41986" lon="2.0968516">
        <ele>234.88995361</ele>
        <time>2022-10-30T08:26:39Z</time>
      </trkpt>
      <trkpt lat="41.4198341" lon="2.0968715">
        <ele>234.95996094</ele>
        <time>2022-10-30T08:26:40Z</time>
      </trkpt>
      <trkpt lat="41.4198112" lon="2.0969045">
        <ele>235.1199646</ele>
        <time>2022-10-30T08:26:41Z</time>
      </trkpt>
      <trkpt lat="41.4197902" lon="2.0969284">
        <ele>235.35997009</ele>
        <time>2022-10-30T08:26:42Z</time>
      </trkpt>
      <trkpt lat="41.4197593" lon="2.0969663">
        <ele>235.62997437</ele>
        <time>2022-10-30T08:26:43Z</time>
      </trkpt>
      <trkpt lat="41.4197444" lon="2.0969963">
        <ele>235.83998108</ele>
        <time>2022-10-30T08:26:44Z</time>
      </trkpt>
      <trkpt lat="41.4197224" lon="2.0970202">
        <ele>236.00997925</ele>
        <time>2022-10-30T08:26:45Z</time>
      </trkpt>
      <trkpt lat="41.4196864" lon="2.0970542">
        <ele>236.15997314</ele>
        <time>2022-10-30T08:26:46Z</time>
      </trkpt>
      <trkpt lat="41.4196655" lon="2.0970821">
        <ele>236.25997925</ele>
        <time>2022-10-30T08:26:47Z</time>
      </trkpt>
      <trkpt lat="41.4196415" lon="2.097093">
        <ele>236.35998535</ele>
        <time>2022-10-30T08:26:48Z</time>
      </trkpt>
      <trkpt lat="41.4196216" lon="2.097117">
        <ele>236.46998596</ele>
        <time>2022-10-30T08:26:49Z</time>
      </trkpt>
      <trkpt lat="41.4195947" lon="2.097133">
        <ele>236.57998657</ele>
        <time>2022-10-30T08:26:50Z</time>
      </trkpt>
      <trkpt lat="41.4195537" lon="2.0971359">
        <ele>236.70999146</ele>
        <time>2022-10-30T08:26:51Z</time>
      </trkpt>
      <trkpt lat="41.4195268" lon="2.097131">
        <ele>236.82998657</ele>
        <time>2022-10-30T08:26:52Z</time>
      </trkpt>
      <trkpt lat="41.4194998" lon="2.097117">
        <ele>236.94998169</ele>
        <time>2022-10-30T08:26:53Z</time>
      </trkpt>
      <trkpt lat="41.4194799" lon="2.0970991">
        <ele>237.0599823</ele>
        <time>2022-10-30T08:26:54Z</time>
      </trkpt>
      <trkpt lat="41.419462" lon="2.0970751">
        <ele>237.1599884</ele>
        <time>2022-10-30T08:26:55Z</time>
      </trkpt>
      <trkpt lat="41.419439" lon="2.0970512">
        <ele>237.35998535</ele>
        <time>2022-10-30T08:26:56Z</time>
      </trkpt>
      <trkpt lat="41.4194231" lon="2.0970293">
        <ele>237.5599823</ele>
        <time>2022-10-30T08:26:57Z</time>
      </trkpt>
      <trkpt lat="41.4194062" lon="2.0970063">
        <ele>237.8099823</ele>
        <time>2022-10-30T08:26:58Z</time>
      </trkpt>
      <trkpt lat="41.4193882" lon="2.0969853">
        <ele>238.08998108</ele>
        <time>2022-10-30T08:26:59Z</time>
      </trkpt>
      <trkpt lat="41.4193713" lon="2.0969584">
        <ele>238.25997925</ele>
        <time>2022-10-30T08:27:00Z</time>
      </trkpt>
      <trkpt lat="41.4193454" lon="2.0969314">
        <ele>238.41998291</ele>
        <time>2022-10-30T08:27:01Z</time>
      </trkpt>
      <trkpt lat="41.4193255" lon="2.0969115">
        <ele>238.48999023</ele>
        <time>2022-10-30T08:27:02Z</time>
      </trkpt>
      <trkpt lat="41.4193075" lon="2.0968896">
        <ele>238.55999756</ele>
        <time>2022-10-30T08:27:03Z</time>
      </trkpt>
      <trkpt lat="41.4192926" lon="2.0968686">
        <ele>238.69000244</ele>
        <time>2022-10-30T08:27:04Z</time>
      </trkpt>
      <trkpt lat="41.4192626" lon="2.0968307">
        <ele>238.83999634</ele>
        <time>2022-10-30T08:27:05Z</time>
      </trkpt>
      <trkpt lat="41.4192407" lon="2.0968038">
        <ele>239.01998901</ele>
        <time>2022-10-30T08:27:06Z</time>
      </trkpt>
      <trkpt lat="41.4192208" lon="2.0967849">
        <ele>239.19998169</ele>
        <time>2022-10-30T08:27:07Z</time>
      </trkpt>
      <trkpt lat="41.4191978" lon="2.0967579">
        <ele>239.33998108</ele>
        <time>2022-10-30T08:27:08Z</time>
      </trkpt>
      <trkpt lat="41.4191659" lon="2.0967129">
        <ele>239.50997925</ele>
        <time>2022-10-30T08:27:09Z</time>
      </trkpt>
      <trkpt lat="41.419154" lon="2.096683">
        <ele>239.69998169</ele>
        <time>2022-10-30T08:27:10Z</time>
      </trkpt>
      <trkpt lat="41.419144" lon="2.09665">
        <ele>239.88998413</ele>
        <time>2022-10-30T08:27:11Z</time>
      </trkpt>
      <trkpt lat="41.4191341" lon="2.096621">
        <ele>240.09999084</ele>
        <time>2022-10-30T08:27:12Z</time>
      </trkpt>
      <trkpt lat="41.4191221" lon="2.0965931">
        <ele>240.27998352</ele>
        <time>2022-10-30T08:27:13Z</time>
      </trkpt>
      <trkpt lat="41.4191081" lon="2.0965462">
        <ele>240.47998047</ele>
        <time>2022-10-30T08:27:14Z</time>
      </trkpt>
      <trkpt lat="41.4190912" lon="2.0965223">
        <ele>240.65997314</ele>
        <time>2022-10-30T08:27:15Z</time>
      </trkpt>
      <trkpt lat="41.4190763" lon="2.0965003">
        <ele>240.84997559</ele>
        <time>2022-10-30T08:27:16Z</time>
      </trkpt>
      <trkpt lat="41.4190663" lon="2.0964764">
        <ele>241.04997253</ele>
        <time>2022-10-30T08:27:17Z</time>
      </trkpt>
      <trkpt lat="41.4190534" lon="2.0964414">
        <ele>241.24996948</ele>
        <time>2022-10-30T08:27:18Z</time>
      </trkpt>
      <trkpt lat="41.4190245" lon="2.0963954">
        <ele>241.47996521</ele>
        <time>2022-10-30T08:27:19Z</time>
      </trkpt>
      <trkpt lat="41.4190135" lon="2.0963645">
        <ele>241.69996643</ele>
        <time>2022-10-30T08:27:20Z</time>
      </trkpt>
      <trkpt lat="41.4190035" lon="2.0963496">
        <ele>241.92996216</ele>
        <time>2022-10-30T08:27:21Z</time>
      </trkpt>
      <trkpt lat="41.4189985" lon="2.0963277">
        <ele>242.13996887</ele>
        <time>2022-10-30T08:27:22Z</time>
      </trkpt>
      <trkpt lat="41.4190135" lon="2.0962767">
        <ele>242.33996582</ele>
        <time>2022-10-30T08:27:23Z</time>
      </trkpt>
      <trkpt lat="41.4190304" lon="2.0962548">
        <ele>242.53996277</ele>
        <time>2022-10-30T08:27:24Z</time>
      </trkpt>
      <trkpt lat="41.4190533" lon="2.0962577">
        <ele>242.85997009</ele>
        <time>2022-10-30T08:27:25Z</time>
      </trkpt>
      <trkpt lat="41.4190802" lon="2.0962677">
        <ele>243.24996948</ele>
        <time>2022-10-30T08:27:26Z</time>
      </trkpt>
      <trkpt lat="41.4191122" lon="2.0962956">
        <ele>243.67996216</ele>
        <time>2022-10-30T08:27:27Z</time>
      </trkpt>
      <trkpt lat="41.4191351" lon="2.0963116">
        <ele>244.12995911</ele>
        <time>2022-10-30T08:27:28Z</time>
      </trkpt>
      <trkpt lat="41.4191571" lon="2.0963316">
        <ele>244.46995544</ele>
        <time>2022-10-30T08:27:29Z</time>
      </trkpt>
      <trkpt lat="41.419175" lon="2.0963545">
        <ele>244.79995728</ele>
        <time>2022-10-30T08:27:30Z</time>
      </trkpt>
      <trkpt lat="41.4192" lon="2.0963685">
        <ele>245.06996155</ele>
        <time>2022-10-30T08:27:31Z</time>
      </trkpt>
      <trkpt lat="41.419227" lon="2.0963924">
        <ele>245.33996582</ele>
        <time>2022-10-30T08:27:32Z</time>
      </trkpt>
      <trkpt lat="41.4192469" lon="2.0964014">
        <ele>245.60997009</ele>
        <time>2022-10-30T08:27:33Z</time>
      </trkpt>
      <trkpt lat="41.4192659" lon="2.0964113">
        <ele>245.82997131</ele>
        <time>2022-10-30T08:27:34Z</time>
      </trkpt>
      <trkpt lat="41.4192888" lon="2.0964223">
        <ele>246.1199646</ele>
        <time>2022-10-30T08:27:35Z</time>
      </trkpt>
      <trkpt lat="41.4193197" lon="2.0964204">
        <ele>246.40995789</ele>
        <time>2022-10-30T08:27:36Z</time>
      </trkpt>
      <trkpt lat="41.4193716" lon="2.0964124">
        <ele>246.73995972</ele>
        <time>2022-10-30T08:27:37Z</time>
      </trkpt>
      <trkpt lat="41.4193996" lon="2.0964105">
        <ele>247.08996582</ele>
        <time>2022-10-30T08:27:38Z</time>
      </trkpt>
      <trkpt lat="41.4194236" lon="2.0964134">
        <ele>247.42996216</ele>
        <time>2022-10-30T08:27:39Z</time>
      </trkpt>
      <trkpt lat="41.4194486" lon="2.0964134">
        <ele>247.78996277</ele>
        <time>2022-10-30T08:27:40Z</time>
      </trkpt>
      <trkpt lat="41.4194815" lon="2.0963985">
        <ele>248.08996582</ele>
        <time>2022-10-30T08:27:41Z</time>
      </trkpt>
      <trkpt lat="41.4194955" lon="2.0963835">
        <ele>248.32997131</ele>
        <time>2022-10-30T08:27:42Z</time>
      </trkpt>
      <trkpt lat="41.4195225" lon="2.0963636">
        <ele>248.49996948</ele>
        <time>2022-10-30T08:27:43Z</time>
      </trkpt>
      <trkpt lat="41.4195484" lon="2.0963466">
        <ele>248.64996338</ele>
        <time>2022-10-30T08:27:44Z</time>
      </trkpt>
      <trkpt lat="41.4195743" lon="2.0963296">
        <ele>248.7699585</ele>
        <time>2022-10-30T08:27:45Z</time>
      </trkpt>
      <trkpt lat="41.4196052" lon="2.0963066">
        <ele>248.87995911</ele>
        <time>2022-10-30T08:27:46Z</time>
      </trkpt>
      <trkpt lat="41.4196282" lon="2.0962827">
        <ele>249.00996399</ele>
        <time>2022-10-30T08:27:47Z</time>
      </trkpt>
      <trkpt lat="41.4196521" lon="2.0962507">
        <ele>249.1199646</ele>
        <time>2022-10-30T08:27:48Z</time>
      </trkpt>
      <trkpt lat="41.41967" lon="2.0962208">
        <ele>249.23995972</ele>
        <time>2022-10-30T08:27:49Z</time>
      </trkpt>
      <trkpt lat="41.419685" lon="2.0961718">
        <ele>249.37995911</ele>
        <time>2022-10-30T08:27:50Z</time>
      </trkpt>
      <trkpt lat="41.4196889" lon="2.0961258">
        <ele>249.5199585</ele>
        <time>2022-10-30T08:27:51Z</time>
      </trkpt>
      <trkpt lat="41.4196948" lon="2.0960859">
        <ele>249.64996338</ele>
        <time>2022-10-30T08:27:52Z</time>
      </trkpt>
      <trkpt lat="41.4197007" lon="2.0960469">
        <ele>249.80996704</ele>
        <time>2022-10-30T08:27:53Z</time>
      </trkpt>
      <trkpt lat="41.4197077" lon="2.0960119">
        <ele>249.9699707</ele>
        <time>2022-10-30T08:27:54Z</time>
      </trkpt>
      <trkpt lat="41.4197246" lon="2.095968">
        <ele>250.1199646</ele>
        <time>2022-10-30T08:27:55Z</time>
      </trkpt>
      <trkpt lat="41.4197296" lon="2.0959241">
        <ele>250.2699585</ele>
        <time>2022-10-30T08:27:56Z</time>
      </trkpt>
      <trkpt lat="41.4197365" lon="2.0958902">
        <ele>250.33996582</ele>
        <time>2022-10-30T08:27:57Z</time>
      </trkpt>
      <trkpt lat="41.4197415" lon="2.0958493">
        <ele>250.39996338</ele>
        <time>2022-10-30T08:27:58Z</time>
      </trkpt>
      <trkpt lat="41.4197624" lon="2.0957903">
        <ele>250.43995667</ele>
        <time>2022-10-30T08:27:59Z</time>
      </trkpt>
      <trkpt lat="41.4197734" lon="2.0957504">
        <ele>250.5199585</ele>
        <time>2022-10-30T08:28:00Z</time>
      </trkpt>
      <trkpt lat="41.4197903" lon="2.0957225">
        <ele>250.59996033</ele>
        <time>2022-10-30T08:28:01Z</time>
      </trkpt>
      <trkpt lat="41.4198033" lon="2.0956945">
        <ele>250.72996521</ele>
        <time>2022-10-30T08:28:02Z</time>
      </trkpt>
      <trkpt lat="41.4198163" lon="2.0956756">
        <ele>250.8699646</ele>
        <time>2022-10-30T08:28:03Z</time>
      </trkpt>
      <trkpt lat="41.4198553" lon="2.0956297">
        <ele>251.00996399</ele>
        <time>2022-10-30T08:28:04Z</time>
      </trkpt>
      <trkpt lat="41.4198872" lon="2.0956027">
        <ele>251.18995667</ele>
        <time>2022-10-30T08:28:05Z</time>
      </trkpt>
      <trkpt lat="41.4199191" lon="2.0955778">
        <ele>251.29995728</ele>
        <time>2022-10-30T08:28:06Z</time>
      </trkpt>
      <trkpt lat="41.4199441" lon="2.0955518">
        <ele>251.40995789</ele>
        <time>2022-10-30T08:28:07Z</time>
      </trkpt>
      <trkpt lat="41.4199861" lon="2.0954989">
        <ele>251.46995544</ele>
        <time>2022-10-30T08:28:08Z</time>
      </trkpt>
      <trkpt lat="41.4200141" lon="2.095465">
        <ele>251.47994995</ele>
        <time>2022-10-30T08:28:09Z</time>
      </trkpt>
      <trkpt lat="41.4200471" lon="2.095436">
        <ele>251.50994873</ele>
        <time>2022-10-30T08:28:10Z</time>
      </trkpt>
      <trkpt lat="41.4200721" lon="2.095409">
        <ele>251.53994751</ele>
        <time>2022-10-30T08:28:11Z</time>
      </trkpt>
      <trkpt lat="41.420113" lon="2.0953641">
        <ele>251.53994751</ele>
        <time>2022-10-30T08:28:12Z</time>
      </trkpt>
      <trkpt lat="41.420142" lon="2.0953481">
        <ele>251.55995178</ele>
        <time>2022-10-30T08:28:13Z</time>
      </trkpt>
      <trkpt lat="41.4201569" lon="2.0953481">
        <ele>251.55995178</ele>
        <time>2022-10-30T08:28:14Z</time>
      </trkpt>
      <trkpt lat="41.4201778" lon="2.0953331">
        <ele>251.54995728</ele>
        <time>2022-10-30T08:28:15Z</time>
      </trkpt>
      <trkpt lat="41.4201988" lon="2.0953292">
        <ele>251.529953</ele>
        <time>2022-10-30T08:28:16Z</time>
      </trkpt>
      <trkpt lat="41.4202317" lon="2.0953012">
        <ele>251.49995422</ele>
        <time>2022-10-30T08:28:17Z</time>
      </trkpt>
      <trkpt lat="41.4202577" lon="2.0952763">
        <ele>251.49995422</ele>
        <time>2022-10-30T08:28:18Z</time>
      </trkpt>
      <trkpt lat="41.4202857" lon="2.0952734">
        <ele>251.49995422</ele>
        <time>2022-10-30T08:28:19Z</time>
      </trkpt>
      <trkpt lat="41.4203126" lon="2.0952695">
        <ele>251.53994751</ele>
        <time>2022-10-30T08:28:20Z</time>
      </trkpt>
      <trkpt lat="41.4203396" lon="2.0952325">
        <ele>251.53994751</ele>
        <time>2022-10-30T08:28:21Z</time>
      </trkpt>
      <trkpt lat="41.4203715" lon="2.0952065">
        <ele>251.53994751</ele>
        <time>2022-10-30T08:28:22Z</time>
      </trkpt>
      <trkpt lat="41.4203995" lon="2.0951786">
        <ele>251.53994751</ele>
        <time>2022-10-30T08:28:23Z</time>
      </trkpt>
      <trkpt lat="41.4204215" lon="2.0951537">
        <ele>251.53994751</ele>
        <time>2022-10-30T08:28:24Z</time>
      </trkpt>
      <trkpt lat="41.4204495" lon="2.0951198">
        <ele>251.53994751</ele>
        <time>2022-10-30T08:28:25Z</time>
      </trkpt>
      <trkpt lat="41.4204905" lon="2.0950638">
        <ele>251.48994446</ele>
        <time>2022-10-30T08:28:26Z</time>
      </trkpt>
      <trkpt lat="41.4205114" lon="2.0950318">
        <ele>251.39994812</ele>
        <time>2022-10-30T08:28:27Z</time>
      </trkpt>
      <trkpt lat="41.4205334" lon="2.0949999">
        <ele>251.25994873</ele>
        <time>2022-10-30T08:28:28Z</time>
      </trkpt>
      <trkpt lat="41.4205533" lon="2.0949669">
        <ele>251.03994751</ele>
        <time>2022-10-30T08:28:29Z</time>
      </trkpt>
      <trkpt lat="41.4205783" lon="2.094939">
        <ele>250.71994019</ele>
        <time>2022-10-30T08:28:30Z</time>
      </trkpt>
      <trkpt lat="41.4206242" lon="2.0948821">
        <ele>251.18994141</ele>
        <time>2022-10-30T08:28:31Z</time>
      </trkpt>
      <trkpt lat="41.4206592" lon="2.0948331">
        <ele>251.14994812</ele>
        <time>2022-10-30T08:28:32Z</time>
      </trkpt>
      <trkpt lat="41.4206931" lon="2.0947851">
        <ele>251.0799408</ele>
        <time>2022-10-30T08:28:33Z</time>
      </trkpt>
      <trkpt lat="41.4207181" lon="2.0947522">
        <ele>251.09994507</ele>
        <time>2022-10-30T08:28:34Z</time>
      </trkpt>
      <trkpt lat="41.420772" lon="2.0947052">
        <ele>250.28994751</ele>
        <time>2022-10-30T08:28:35Z</time>
      </trkpt>
      <trkpt lat="41.4208159" lon="2.0946973">
        <ele>249.94995117</ele>
        <time>2022-10-30T08:28:36Z</time>
      </trkpt>
      <trkpt lat="41.4208579" lon="2.0946884">
        <ele>249.75994873</ele>
        <time>2022-10-30T08:28:37Z</time>
      </trkpt>
      <trkpt lat="41.4208939" lon="2.0946795">
        <ele>249.59994507</ele>
        <time>2022-10-30T08:28:38Z</time>
      </trkpt>
      <trkpt lat="41.4209248" lon="2.0946715">
        <ele>249.59994507</ele>
        <time>2022-10-30T08:28:39Z</time>
      </trkpt>
      <trkpt lat="41.4209677" lon="2.0946446">
        <ele>249.71994019</ele>
        <time>2022-10-30T08:28:40Z</time>
      </trkpt>
      <trkpt lat="41.4209937" lon="2.0946286">
        <ele>249.87994385</ele>
        <time>2022-10-30T08:28:41Z</time>
      </trkpt>
      <trkpt lat="41.4210206" lon="2.0946097">
        <ele>250.08995056</ele>
        <time>2022-10-30T08:28:42Z</time>
      </trkpt>
      <trkpt lat="41.4210316" lon="2.0945867">
        <ele>250.25994873</ele>
        <time>2022-10-30T08:28:43Z</time>
      </trkpt>
      <trkpt lat="41.4210515" lon="2.0945387">
        <ele>250.41995239</ele>
        <time>2022-10-30T08:28:44Z</time>
      </trkpt>
      <trkpt lat="41.4210565" lon="2.0945087">
        <ele>250.57995605</ele>
        <time>2022-10-30T08:28:45Z</time>
      </trkpt>
      <trkpt lat="41.4210506" lon="2.0944778">
        <ele>250.74995422</ele>
        <time>2022-10-30T08:28:46Z</time>
      </trkpt>
      <trkpt lat="41.4210456" lon="2.0944409">
        <ele>250.89994812</ele>
        <time>2022-10-30T08:28:47Z</time>
      </trkpt>
      <trkpt lat="41.4210545" lon="2.094413">
        <ele>251.09994507</ele>
        <time>2022-10-30T08:28:48Z</time>
      </trkpt>
      <trkpt lat="41.4210645" lon="2.094399">
        <ele>251.27993774</ele>
        <time>2022-10-30T08:28:49Z</time>
      </trkpt>
      <trkpt lat="41.4210704" lon="2.0943781">
        <ele>251.54994202</ele>
        <time>2022-10-30T08:28:50Z</time>
      </trkpt>
      <trkpt lat="41.4210724" lon="2.0943611">
        <ele>251.8299408</ele>
        <time>2022-10-30T08:28:51Z</time>
      </trkpt>
      <trkpt lat="41.4210674" lon="2.0943332">
        <ele>252.0799408</ele>
        <time>2022-10-30T08:28:52Z</time>
      </trkpt>
      <trkpt lat="41.4210674" lon="2.0943012">
        <ele>252.3299408</ele>
        <time>2022-10-30T08:28:53Z</time>
      </trkpt>
      <trkpt lat="41.4210754" lon="2.0942703">
        <ele>252.49993896</ele>
        <time>2022-10-30T08:28:54Z</time>
      </trkpt>
      <trkpt lat="41.4210793" lon="2.0942413">
        <ele>252.70994568</ele>
        <time>2022-10-30T08:28:55Z</time>
      </trkpt>
      <trkpt lat="41.4210933" lon="2.0942203">
        <ele>252.85993958</ele>
        <time>2022-10-30T08:28:56Z</time>
      </trkpt>
      <trkpt lat="41.4210992" lon="2.0941924">
        <ele>253.02993774</ele>
        <time>2022-10-30T08:28:57Z</time>
      </trkpt>
      <trkpt lat="41.4211032" lon="2.0941604">
        <ele>253.19993591</ele>
        <time>2022-10-30T08:28:58Z</time>
      </trkpt>
      <trkpt lat="41.4211142" lon="2.0941295">
        <ele>253.29994202</ele>
        <time>2022-10-30T08:28:59Z</time>
      </trkpt>
      <trkpt lat="41.4211291" lon="2.0941056">
        <ele>253.48994446</ele>
        <time>2022-10-30T08:29:00Z</time>
      </trkpt>
      <trkpt lat="41.421149" lon="2.0940726">
        <ele>253.66993713</ele>
        <time>2022-10-30T08:29:01Z</time>
      </trkpt>
      <trkpt lat="41.421168" lon="2.0940317">
        <ele>253.81993103</ele>
        <time>2022-10-30T08:29:02Z</time>
      </trkpt>
      <trkpt lat="41.4211749" lon="2.0940107">
        <ele>254.05993652</ele>
        <time>2022-10-30T08:29:03Z</time>
      </trkpt>
      <trkpt lat="41.4211808" lon="2.0940028">
        <ele>254.26994324</ele>
        <time>2022-10-30T08:29:04Z</time>
      </trkpt>
      <trkpt lat="41.4211828" lon="2.0939958">
        <ele>254.49993896</ele>
        <time>2022-10-30T08:29:05Z</time>
      </trkpt>
      <trkpt lat="41.4211698" lon="2.0939679">
        <ele>254.77993774</ele>
        <time>2022-10-30T08:29:06Z</time>
      </trkpt>
      <trkpt lat="41.4211579" lon="2.0939419">
        <ele>254.99993896</ele>
        <time>2022-10-30T08:29:07Z</time>
      </trkpt>
      <trkpt lat="41.4211469" lon="2.0939219">
        <ele>255.26994324</ele>
        <time>2022-10-30T08:29:08Z</time>
      </trkpt>
      <trkpt lat="41.421138" lon="2.093909">
        <ele>255.6799469</ele>
        <time>2022-10-30T08:29:09Z</time>
      </trkpt>
      <trkpt lat="41.421116" lon="2.093894">
        <ele>256.07995605</ele>
        <time>2022-10-30T08:29:10Z</time>
      </trkpt>
      <trkpt lat="41.4211111" lon="2.0938931">
        <ele>256.52996826</ele>
        <time>2022-10-30T08:29:11Z</time>
      </trkpt>
      <trkpt lat="41.4211061" lon="2.0938931">
        <ele>256.89996338</ele>
        <time>2022-10-30T08:29:12Z</time>
      </trkpt>
      <trkpt lat="41.4210961" lon="2.093898">
        <ele>257.07995605</ele>
        <time>2022-10-30T08:29:13Z</time>
      </trkpt>
      <trkpt lat="41.4210792" lon="2.093905">
        <ele>257.29995728</ele>
        <time>2022-10-30T08:29:14Z</time>
      </trkpt>
      <trkpt lat="41.4210632" lon="2.093909">
        <ele>257.47994995</ele>
        <time>2022-10-30T08:29:15Z</time>
      </trkpt>
      <trkpt lat="41.4210423" lon="2.0939119">
        <ele>257.65994263</ele>
        <time>2022-10-30T08:29:16Z</time>
      </trkpt>
      <trkpt lat="41.4210274" lon="2.0939148">
        <ele>257.88995361</ele>
        <time>2022-10-30T08:29:17Z</time>
      </trkpt>
      <trkpt lat="41.4210215" lon="2.0939138">
        <ele>258.07995605</ele>
        <time>2022-10-30T08:29:18Z</time>
      </trkpt>
      <trkpt lat="41.4210244" lon="2.0939098">
        <ele>258.2699585</ele>
        <time>2022-10-30T08:29:19Z</time>
      </trkpt>
      <trkpt lat="41.4210224" lon="2.0938769">
        <ele>258.49996948</ele>
        <time>2022-10-30T08:29:20Z</time>
      </trkpt>
      <trkpt lat="41.4210233" lon="2.0938639">
        <ele>258.74996948</ele>
        <time>2022-10-30T08:29:21Z</time>
      </trkpt>
      <trkpt lat="41.4210262" lon="2.0938559">
        <ele>258.9699707</ele>
        <time>2022-10-30T08:29:22Z</time>
      </trkpt>
      <trkpt lat="41.4210213" lon="2.093845">
        <ele>259.2199707</ele>
        <time>2022-10-30T08:29:23Z</time>
      </trkpt>
      <trkpt lat="41.4209953" lon="2.093858">
        <ele>259.40997314</ele>
        <time>2022-10-30T08:29:24Z</time>
      </trkpt>
      <trkpt lat="41.4209714" lon="2.093841">
        <ele>259.58996582</ele>
        <time>2022-10-30T08:29:25Z</time>
      </trkpt>
      <trkpt lat="41.4209405" lon="2.093834">
        <ele>259.7199707</ele>
        <time>2022-10-30T08:29:26Z</time>
      </trkpt>
      <trkpt lat="41.4209155" lon="2.093836">
        <ele>259.81997681</ele>
        <time>2022-10-30T08:29:27Z</time>
      </trkpt>
      <trkpt lat="41.4208905" lon="2.093836">
        <ele>259.88998413</ele>
        <time>2022-10-30T08:29:28Z</time>
      </trkpt>
      <trkpt lat="41.4208246" lon="2.0938629">
        <ele>259.93997192</ele>
        <time>2022-10-30T08:29:29Z</time>
      </trkpt>
      <trkpt lat="41.4207836" lon="2.0938859">
        <ele>260.03997803</ele>
        <time>2022-10-30T08:29:30Z</time>
      </trkpt>
      <trkpt lat="41.4207517" lon="2.0939098">
        <ele>260.10998535</ele>
        <time>2022-10-30T08:29:31Z</time>
      </trkpt>
      <trkpt lat="41.4207367" lon="2.0939317">
        <ele>260.27999878</ele>
        <time>2022-10-30T08:29:32Z</time>
      </trkpt>
      <trkpt lat="41.4207268" lon="2.0939617">
        <ele>260.27999878</ele>
        <time>2022-10-30T08:29:33Z</time>
      </trkpt>
      <trkpt lat="41.4207099" lon="2.0939877">
        <ele>260.5</ele>
        <time>2022-10-30T08:29:34Z</time>
      </trkpt>
      <trkpt lat="41.4206939" lon="2.0940136">
        <ele>260.75</ele>
        <time>2022-10-30T08:29:35Z</time>
      </trkpt>
      <trkpt lat="41.4206809" lon="2.0940306">
        <ele>260.92001343</ele>
        <time>2022-10-30T08:29:36Z</time>
      </trkpt>
      <trkpt lat="41.420671" lon="2.0940495">
        <ele>261.18002319</ele>
        <time>2022-10-30T08:29:37Z</time>
      </trkpt>
      <trkpt lat="41.42067" lon="2.094045">
        <ele>261.73999023</ele>
        <time>2022-10-30T08:29:37Z</time>
      </trkpt>
      <trkpt lat="41.420645" lon="2.0940421">
        <ele>261.97000122</ele>
        <time>2022-10-30T08:29:38Z</time>
      </trkpt>
      <trkpt lat="41.420623" lon="2.0940521">
        <ele>262.14001465</ele>
        <time>2022-10-30T08:29:39Z</time>
      </trkpt>
      <trkpt lat="41.420601" lon="2.094057">
        <ele>262.37002563</ele>
        <time>2022-10-30T08:29:40Z</time>
      </trkpt>
      <trkpt lat="41.4205801" lon="2.094068">
        <ele>262.58001709</ele>
        <time>2022-10-30T08:29:41Z</time>
      </trkpt>
      <trkpt lat="41.4205602" lon="2.0940789">
        <ele>262.91000366</ele>
        <time>2022-10-30T08:29:42Z</time>
      </trkpt>
      <trkpt lat="41.4205142" lon="2.0941039">
        <ele>263.23001099</ele>
        <time>2022-10-30T08:29:43Z</time>
      </trkpt>
      <trkpt lat="41.4204873" lon="2.0941158">
        <ele>263.52999878</ele>
        <time>2022-10-30T08:29:44Z</time>
      </trkpt>
      <trkpt lat="41.4204593" lon="2.0941427">
        <ele>263.86999512</ele>
        <time>2022-10-30T08:29:45Z</time>
      </trkpt>
      <trkpt lat="41.4204424" lon="2.0941687">
        <ele>264.13998413</ele>
        <time>2022-10-30T08:29:46Z</time>
      </trkpt>
      <trkpt lat="41.4204284" lon="2.0942226">
        <ele>264.37997437</ele>
        <time>2022-10-30T08:29:47Z</time>
      </trkpt>
      <trkpt lat="41.4204234" lon="2.0942526">
        <ele>264.64996338</ele>
        <time>2022-10-30T08:29:48Z</time>
      </trkpt>
      <trkpt lat="41.4204065" lon="2.0942745">
        <ele>264.90997314</ele>
        <time>2022-10-30T08:29:49Z</time>
      </trkpt>
      <trkpt lat="41.4204056" lon="2.0943144">
        <ele>265.20996094</ele>
        <time>2022-10-30T08:29:50Z</time>
      </trkpt>
      <trkpt lat="41.4204095" lon="2.0943604">
        <ele>265.53994751</ele>
        <time>2022-10-30T08:29:51Z</time>
      </trkpt>
      <trkpt lat="41.4204175" lon="2.0943793">
        <ele>265.87994385</ele>
        <time>2022-10-30T08:29:52Z</time>
      </trkpt>
      <trkpt lat="41.4204105" lon="2.0943902">
        <ele>266.20993042</ele>
        <time>2022-10-30T08:29:53Z</time>
      </trkpt>
      <trkpt lat="41.4204016" lon="2.0944112">
        <ele>266.4899292</ele>
        <time>2022-10-30T08:29:54Z</time>
      </trkpt>
      <trkpt lat="41.4203927" lon="2.0944391">
        <ele>266.78991699</ele>
        <time>2022-10-30T08:29:55Z</time>
      </trkpt>
      <trkpt lat="41.4203808" lon="2.0944971">
        <ele>267.02990723</ele>
        <time>2022-10-30T08:29:56Z</time>
      </trkpt>
      <trkpt lat="41.4203678" lon="2.094521">
        <ele>267.31991577</ele>
        <time>2022-10-30T08:29:57Z</time>
      </trkpt>
      <trkpt lat="41.4203428" lon="2.094534">
        <ele>267.6399231</ele>
        <time>2022-10-30T08:29:58Z</time>
      </trkpt>
      <trkpt lat="41.4203199" lon="2.094535">
        <ele>267.8899231</ele>
        <time>2022-10-30T08:29:59Z</time>
      </trkpt>
      <trkpt lat="41.420291" lon="2.09453">
        <ele>268.12991333</ele>
        <time>2022-10-30T08:30:00Z</time>
      </trkpt>
      <trkpt lat="41.420276" lon="2.094529">
        <ele>268.34991455</ele>
        <time>2022-10-30T08:30:01Z</time>
      </trkpt>
      <trkpt lat="41.4202571" lon="2.0945141">
        <ele>268.52990723</ele>
        <time>2022-10-30T08:30:02Z</time>
      </trkpt>
      <trkpt lat="41.4202501" lon="2.0944881">
        <ele>268.73989868</ele>
        <time>2022-10-30T08:30:03Z</time>
      </trkpt>
      <trkpt lat="41.4202482" lon="2.0944742">
        <ele>268.99990845</ele>
        <time>2022-10-30T08:30:04Z</time>
      </trkpt>
      <trkpt lat="41.4202362" lon="2.0944292">
        <ele>269.22991943</ele>
        <time>2022-10-30T08:30:05Z</time>
      </trkpt>
      <trkpt lat="41.4202323" lon="2.0944053">
        <ele>269.4899292</ele>
        <time>2022-10-30T08:30:06Z</time>
      </trkpt>
      <trkpt lat="41.4202264" lon="2.0943733">
        <ele>269.76992798</ele>
        <time>2022-10-30T08:30:07Z</time>
      </trkpt>
      <trkpt lat="41.4202214" lon="2.0943403">
        <ele>270.11993408</ele>
        <time>2022-10-30T08:30:08Z</time>
      </trkpt>
      <trkpt lat="41.4202205" lon="2.0943053">
        <ele>270.41992188</ele>
        <time>2022-10-30T08:30:09Z</time>
      </trkpt>
      <trkpt lat="41.4202234" lon="2.0942783">
        <ele>270.76992798</ele>
        <time>2022-10-30T08:30:10Z</time>
      </trkpt>
      <trkpt lat="41.4202234" lon="2.0942514">
        <ele>271.11993408</ele>
        <time>2022-10-30T08:30:11Z</time>
      </trkpt>
      <trkpt lat="41.4202234" lon="2.0942275">
        <ele>271.37994385</ele>
        <time>2022-10-30T08:30:12Z</time>
      </trkpt>
      <trkpt lat="41.4202214" lon="2.0942045">
        <ele>271.65994263</ele>
        <time>2022-10-30T08:30:13Z</time>
      </trkpt>
      <trkpt lat="41.4202223" lon="2.0941805">
        <ele>271.88995361</ele>
        <time>2022-10-30T08:30:14Z</time>
      </trkpt>
      <trkpt lat="41.4202373" lon="2.0941675">
        <ele>272.12994385</ele>
        <time>2022-10-30T08:30:15Z</time>
      </trkpt>
      <trkpt lat="41.4202542" lon="2.0941325">
        <ele>272.18994141</ele>
        <time>2022-10-30T08:30:16Z</time>
      </trkpt>
      <trkpt lat="41.4202761" lon="2.0941066">
        <ele>272.11993408</ele>
        <time>2022-10-30T08:30:17Z</time>
      </trkpt>
      <trkpt lat="41.4203041" lon="2.0940386">
        <ele>271.8899231</ele>
        <time>2022-10-30T08:30:18Z</time>
      </trkpt>
      <trkpt lat="41.4203181" lon="2.0939987">
        <ele>271.50991821</ele>
        <time>2022-10-30T08:30:19Z</time>
      </trkpt>
      <trkpt lat="41.4203311" lon="2.0939608">
        <ele>271.26992798</ele>
        <time>2022-10-30T08:30:20Z</time>
      </trkpt>
      <trkpt lat="41.4203361" lon="2.0939258">
        <ele>271.19992065</ele>
        <time>2022-10-30T08:30:21Z</time>
      </trkpt>
      <trkpt lat="41.4203361" lon="2.0939008">
        <ele>271.21990967</ele>
        <time>2022-10-30T08:30:22Z</time>
      </trkpt>
      <trkpt lat="41.4203411" lon="2.0938759">
        <ele>271.37991333</ele>
        <time>2022-10-30T08:30:23Z</time>
      </trkpt>
      <trkpt lat="41.4203361" lon="2.093855">
        <ele>271.50991821</ele>
        <time>2022-10-30T08:30:24Z</time>
      </trkpt>
      <trkpt lat="41.4203441" lon="2.0938401">
        <ele>271.79992676</ele>
        <time>2022-10-30T08:30:25Z</time>
      </trkpt>
      <trkpt lat="41.42036" lon="2.0938251">
        <ele>272.11993408</ele>
        <time>2022-10-30T08:30:26Z</time>
      </trkpt>
      <trkpt lat="41.4203799" lon="2.0938072">
        <ele>272.41992188</ele>
        <time>2022-10-30T08:30:27Z</time>
      </trkpt>
      <trkpt lat="41.420378" lon="2.0937883">
        <ele>272.76992798</ele>
        <time>2022-10-30T08:30:28Z</time>
      </trkpt>
      <trkpt lat="41.4203799" lon="2.0937644">
        <ele>272.96994019</ele>
        <time>2022-10-30T08:30:29Z</time>
      </trkpt>
      <trkpt lat="41.4204019" lon="2.0937174">
        <ele>273.15994263</ele>
        <time>2022-10-30T08:30:30Z</time>
      </trkpt>
      <trkpt lat="41.4204069" lon="2.0936965">
        <ele>273.43994141</ele>
        <time>2022-10-30T08:30:31Z</time>
      </trkpt>
      <trkpt lat="41.420404" lon="2.0936816">
        <ele>273.77993774</ele>
        <time>2022-10-30T08:30:32Z</time>
      </trkpt>
      <trkpt lat="41.42039" lon="2.0936806">
        <ele>274.07992554</ele>
        <time>2022-10-30T08:30:33Z</time>
      </trkpt>
      <trkpt lat="41.4203891" lon="2.0936567">
        <ele>274.46994019</ele>
        <time>2022-10-30T08:30:34Z</time>
      </trkpt>
      <trkpt lat="41.4203811" lon="2.0936077">
        <ele>274.75994873</ele>
        <time>2022-10-30T08:30:35Z</time>
      </trkpt>
      <trkpt lat="41.4203951" lon="2.0935777">
        <ele>274.99993896</ele>
        <time>2022-10-30T08:30:36Z</time>
      </trkpt>
      <trkpt lat="41.420408" lon="2.0935318">
        <ele>275.25994873</ele>
        <time>2022-10-30T08:30:37Z</time>
      </trkpt>
      <trkpt lat="41.420417" lon="2.0934988">
        <ele>275.5199585</ele>
        <time>2022-10-30T08:30:38Z</time>
      </trkpt>
      <trkpt lat="41.4204289" lon="2.0934638">
        <ele>275.79995728</ele>
        <time>2022-10-30T08:30:39Z</time>
      </trkpt>
      <trkpt lat="41.4204369" lon="2.0934119">
        <ele>276.08996582</ele>
        <time>2022-10-30T08:30:40Z</time>
      </trkpt>
      <trkpt lat="41.4204299" lon="2.093387">
        <ele>276.40997314</ele>
        <time>2022-10-30T08:30:41Z</time>
      </trkpt>
      <trkpt lat="41.420424" lon="2.093369">
        <ele>276.67996216</ele>
        <time>2022-10-30T08:30:42Z</time>
      </trkpt>
      <trkpt lat="41.4204329" lon="2.093356">
        <ele>277.00994873</ele>
        <time>2022-10-30T08:30:43Z</time>
      </trkpt>
      <trkpt lat="41.4204399" lon="2.0933481">
        <ele>277.36993408</ele>
        <time>2022-10-30T08:30:44Z</time>
      </trkpt>
      <trkpt lat="41.4204598" lon="2.093353">
        <ele>277.71994019</ele>
        <time>2022-10-30T08:30:45Z</time>
      </trkpt>
      <trkpt lat="41.4204687" lon="2.0933141">
        <ele>278.09994507</ele>
        <time>2022-10-30T08:30:46Z</time>
      </trkpt>
      <trkpt lat="41.4204806" lon="2.0933081">
        <ele>278.50994873</ele>
        <time>2022-10-30T08:30:47Z</time>
      </trkpt>
      <trkpt lat="41.4205035" lon="2.0933181">
        <ele>278.91995239</ele>
        <time>2022-10-30T08:30:48Z</time>
      </trkpt>
      <trkpt lat="41.4205065" lon="2.0933311">
        <ele>279.33996582</ele>
        <time>2022-10-30T08:30:49Z</time>
      </trkpt>
      <trkpt lat="41.4204945" lon="2.0933192">
        <ele>279.7699585</ele>
        <time>2022-10-30T08:30:50Z</time>
      </trkpt>
      <trkpt lat="41.4205085" lon="2.0932973">
        <ele>280.08996582</ele>
        <time>2022-10-30T08:30:51Z</time>
      </trkpt>
      <trkpt lat="41.4205325" lon="2.0932733">
        <ele>280.43997192</ele>
        <time>2022-10-30T08:30:52Z</time>
      </trkpt>
      <trkpt lat="41.4205515" lon="2.0932504">
        <ele>280.74996948</ele>
        <time>2022-10-30T08:30:53Z</time>
      </trkpt>
      <trkpt lat="41.4205874" lon="2.0932304">
        <ele>281.13998413</ele>
        <time>2022-10-30T08:30:54Z</time>
      </trkpt>
      <trkpt lat="41.4206064" lon="2.0932234">
        <ele>281.59997559</ele>
        <time>2022-10-30T08:30:55Z</time>
      </trkpt>
      <trkpt lat="41.4206304" lon="2.0932205">
        <ele>282.13998413</ele>
        <time>2022-10-30T08:30:56Z</time>
      </trkpt>
      <trkpt lat="41.4206663" lon="2.0931966">
        <ele>282.66998291</ele>
        <time>2022-10-30T08:30:57Z</time>
      </trkpt>
      <trkpt lat="41.4206983" lon="2.0931566">
        <ele>283.08999634</ele>
        <time>2022-10-30T08:30:58Z</time>
      </trkpt>
      <trkpt lat="41.4207192" lon="2.0931406">
        <ele>283.57000732</ele>
        <time>2022-10-30T08:30:59Z</time>
      </trkpt>
      <trkpt lat="41.4207221" lon="2.0931435">
        <ele>283.8500061</ele>
        <time>2022-10-30T08:31:00Z</time>
      </trkpt>
      <trkpt lat="41.4207221" lon="2.0931494">
        <ele>284.11001587</ele>
        <time>2022-10-30T08:31:01Z</time>
      </trkpt>
      <trkpt lat="41.420725" lon="2.0931534">
        <ele>284.39001465</ele>
        <time>2022-10-30T08:31:02Z</time>
      </trkpt>
      <trkpt lat="41.420751" lon="2.0931205">
        <ele>284.62002563</ele>
        <time>2022-10-30T08:31:03Z</time>
      </trkpt>
      <trkpt lat="41.420765" lon="2.0930735">
        <ele>284.92001343</ele>
        <time>2022-10-30T08:31:04Z</time>
      </trkpt>
      <trkpt lat="41.4207759" lon="2.0930496">
        <ele>285.31002808</ele>
        <time>2022-10-30T08:31:05Z</time>
      </trkpt>
      <trkpt lat="41.4207779" lon="2.0930187">
        <ele>285.74002075</ele>
        <time>2022-10-30T08:31:06Z</time>
      </trkpt>
      <trkpt lat="41.4207859" lon="2.0929877">
        <ele>286.1000061</ele>
        <time>2022-10-30T08:31:07Z</time>
      </trkpt>
      <trkpt lat="41.420785" lon="2.0929458">
        <ele>286.58999634</ele>
        <time>2022-10-30T08:31:08Z</time>
      </trkpt>
      <trkpt lat="41.420785" lon="2.0929188">
        <ele>287.1000061</ele>
        <time>2022-10-30T08:31:09Z</time>
      </trkpt>
      <trkpt lat="41.4207899" lon="2.0928949">
        <ele>287.61999512</ele>
        <time>2022-10-30T08:31:10Z</time>
      </trkpt>
      <trkpt lat="41.4207919" lon="2.092873">
        <ele>288.22998047</ele>
        <time>2022-10-30T08:31:11Z</time>
      </trkpt>
      <trkpt lat="41.4207919" lon="2.092846">
        <ele>288.86999512</ele>
        <time>2022-10-30T08:31:12Z</time>
      </trkpt>
      <trkpt lat="41.4208008" lon="2.0928061">
        <ele>289.42999268</ele>
        <time>2022-10-30T08:31:13Z</time>
      </trkpt>
      <trkpt lat="41.4208028" lon="2.0927881">
        <ele>290</ele>
        <time>2022-10-30T08:31:14Z</time>
      </trkpt>
      <trkpt lat="41.4208068" lon="2.0927812">
        <ele>290.44000244</ele>
        <time>2022-10-30T08:31:15Z</time>
      </trkpt>
      <trkpt lat="41.420807" lon="2.092779">
        <ele>290.92999268</ele>
        <time>2022-10-30T08:31:15Z</time>
      </trkpt>
      <trkpt lat="41.4208619" lon="2.092686">
        <ele>292.47000122</ele>
        <time>2022-10-30T08:31:32Z</time>
      </trkpt>
      <trkpt lat="41.4208479" lon="2.0926651">
        <ele>292.47000122</ele>
        <time>2022-10-30T08:31:33Z</time>
      </trkpt>
      <trkpt lat="41.420844" lon="2.0926511">
        <ele>292.54000854</ele>
        <time>2022-10-30T08:31:34Z</time>
      </trkpt>
      <trkpt lat="41.4208489" lon="2.0926132">
        <ele>292.6000061</ele>
        <time>2022-10-30T08:31:35Z</time>
      </trkpt>
      <trkpt lat="41.4208489" lon="2.0925943">
        <ele>292.64001465</ele>
        <time>2022-10-30T08:31:36Z</time>
      </trkpt>
      <trkpt lat="41.4208629" lon="2.0925854">
        <ele>292.64001465</ele>
        <time>2022-10-30T08:31:37Z</time>
      </trkpt>
      <trkpt lat="41.4208769" lon="2.0925684">
        <ele>292.66000366</ele>
        <time>2022-10-30T08:31:38Z</time>
      </trkpt>
      <trkpt lat="41.4208839" lon="2.0925405">
        <ele>292.67999268</ele>
        <time>2022-10-30T08:31:39Z</time>
      </trkpt>
      <trkpt lat="41.420881" lon="2.0925135">
        <ele>292.82998657</ele>
        <time>2022-10-30T08:31:40Z</time>
      </trkpt>
      <trkpt lat="41.420874" lon="2.0924876">
        <ele>293.04998779</ele>
        <time>2022-10-30T08:31:41Z</time>
      </trkpt>
      <trkpt lat="41.4208621" lon="2.0924616">
        <ele>293.31997681</ele>
        <time>2022-10-30T08:31:42Z</time>
      </trkpt>
      <trkpt lat="41.420871" lon="2.0924367">
        <ele>293.57998657</ele>
        <time>2022-10-30T08:31:43Z</time>
      </trkpt>
      <trkpt lat="41.420872" lon="2.0923787">
        <ele>293.76998901</ele>
        <time>2022-10-30T08:31:44Z</time>
      </trkpt>
      <trkpt lat="41.420865" lon="2.0923508">
        <ele>293.95999146</ele>
        <time>2022-10-30T08:31:45Z</time>
      </trkpt>
      <trkpt lat="41.420857" lon="2.0923298">
        <ele>294.19998169</ele>
        <time>2022-10-30T08:31:46Z</time>
      </trkpt>
      <trkpt lat="41.420849" lon="2.0923089">
        <ele>294.51998901</ele>
        <time>2022-10-30T08:31:47Z</time>
      </trkpt>
      <trkpt lat="41.4208421" lon="2.0922889">
        <ele>294.8999939</ele>
        <time>2022-10-30T08:31:48Z</time>
      </trkpt>
      <trkpt lat="41.4208311" lon="2.0922539">
        <ele>295.41000366</ele>
        <time>2022-10-30T08:31:49Z</time>
      </trkpt>
      <trkpt lat="41.4208142" lon="2.092245">
        <ele>295.86001587</ele>
        <time>2022-10-30T08:31:50Z</time>
      </trkpt>
      <trkpt lat="41.4208083" lon="2.0922301">
        <ele>296.34002686</ele>
        <time>2022-10-30T08:31:51Z</time>
      </trkpt>
      <trkpt lat="41.4207994" lon="2.0922091">
        <ele>296.75003052</ele>
        <time>2022-10-30T08:31:52Z</time>
      </trkpt>
      <trkpt lat="41.4208003" lon="2.0921792">
        <ele>297.00003052</ele>
        <time>2022-10-30T08:31:53Z</time>
      </trkpt>
      <trkpt lat="41.4208042" lon="2.0921573">
        <ele>297.25003052</ele>
        <time>2022-10-30T08:31:54Z</time>
      </trkpt>
      <trkpt lat="41.4208132" lon="2.0921393">
        <ele>297.44003296</ele>
        <time>2022-10-30T08:31:55Z</time>
      </trkpt>
      <trkpt lat="41.4208141" lon="2.0921204">
        <ele>297.64004517</ele>
        <time>2022-10-30T08:31:56Z</time>
      </trkpt>
      <trkpt lat="41.4208251" lon="2.0921274">
        <ele>297.93005371</ele>
        <time>2022-10-30T08:31:57Z</time>
      </trkpt>
      <trkpt lat="41.420831" lon="2.0920975">
        <ele>298.18005371</ele>
        <time>2022-10-30T08:31:58Z</time>
      </trkpt>
      <trkpt lat="41.4208251" lon="2.0920535">
        <ele>298.47006226</ele>
        <time>2022-10-30T08:31:59Z</time>
      </trkpt>
      <trkpt lat="41.4208301" lon="2.0920336">
        <ele>298.79006958</ele>
        <time>2022-10-30T08:32:00Z</time>
      </trkpt>
      <trkpt lat="41.420854" lon="2.0920226">
        <ele>299.03005981</ele>
        <time>2022-10-30T08:32:01Z</time>
      </trkpt>
      <trkpt lat="41.420883" lon="2.0920177">
        <ele>299.25006104</ele>
        <time>2022-10-30T08:32:02Z</time>
      </trkpt>
      <trkpt lat="41.4208839" lon="2.0920316">
        <ele>299.47006226</ele>
        <time>2022-10-30T08:32:03Z</time>
      </trkpt>
      <trkpt lat="41.4209139" lon="2.0920297">
        <ele>299.67007446</ele>
        <time>2022-10-30T08:32:04Z</time>
      </trkpt>
      <trkpt lat="41.4209348" lon="2.0920278">
        <ele>299.92007446</ele>
        <time>2022-10-30T08:32:05Z</time>
      </trkpt>
      <trkpt lat="41.4209618" lon="2.0920287">
        <ele>300.34008789</ele>
        <time>2022-10-30T08:32:06Z</time>
      </trkpt>
      <trkpt lat="41.4209758" lon="2.0920346">
        <ele>300.84008789</ele>
        <time>2022-10-30T08:32:07Z</time>
      </trkpt>
      <trkpt lat="41.4209748" lon="2.0920546">
        <ele>301.39007568</ele>
        <time>2022-10-30T08:32:08Z</time>
      </trkpt>
      <trkpt lat="41.4209848" lon="2.0920676">
        <ele>301.95007324</ele>
        <time>2022-10-30T08:32:09Z</time>
      </trkpt>
      <trkpt lat="41.4209768" lon="2.0920846">
        <ele>302.40008545</ele>
        <time>2022-10-30T08:32:10Z</time>
      </trkpt>
      <trkpt lat="41.4209728" lon="2.0921045">
        <ele>302.68008423</ele>
        <time>2022-10-30T08:32:11Z</time>
      </trkpt>
      <trkpt lat="41.4209908" lon="2.0920936">
        <ele>302.89007568</ele>
        <time>2022-10-30T08:32:12Z</time>
      </trkpt>
      <trkpt lat="41.4210147" lon="2.0920907">
        <ele>303.06008911</ele>
        <time>2022-10-30T08:32:13Z</time>
      </trkpt>
      <trkpt lat="41.4210347" lon="2.0920777">
        <ele>303.24008179</ele>
        <time>2022-10-30T08:32:14Z</time>
      </trkpt>
      <trkpt lat="41.4210466" lon="2.0920886">
        <ele>303.48007202</ele>
        <time>2022-10-30T08:32:15Z</time>
      </trkpt>
      <trkpt lat="41.4210446" lon="2.0920966">
        <ele>303.77008057</ele>
        <time>2022-10-30T08:32:16Z</time>
      </trkpt>
      <trkpt lat="41.4210437" lon="2.0921006">
        <ele>304.12008667</ele>
        <time>2022-10-30T08:32:17Z</time>
      </trkpt>
      <trkpt lat="41.4210577" lon="2.0921195">
        <ele>304.41009521</ele>
        <time>2022-10-30T08:32:18Z</time>
      </trkpt>
      <trkpt lat="41.4210646" lon="2.0921264">
        <ele>304.77008057</ele>
        <time>2022-10-30T08:32:19Z</time>
      </trkpt>
      <trkpt lat="41.4210776" lon="2.0921434">
        <ele>305.19009399</ele>
        <time>2022-10-30T08:32:20Z</time>
      </trkpt>
      <trkpt lat="41.4210935" lon="2.0921583">
        <ele>305.60009766</ele>
        <time>2022-10-30T08:32:21Z</time>
      </trkpt>
      <trkpt lat="41.4211145" lon="2.0921504">
        <ele>306.0401001</ele>
        <time>2022-10-30T08:32:22Z</time>
      </trkpt>
      <trkpt lat="41.4211475" lon="2.0921364">
        <ele>306.4901123</ele>
        <time>2022-10-30T08:32:23Z</time>
      </trkpt>
      <trkpt lat="41.4211984" lon="2.0920905">
        <ele>306.93011475</ele>
        <time>2022-10-30T08:32:24Z</time>
      </trkpt>
      <trkpt lat="41.4212064" lon="2.0920725">
        <ele>307.41012573</ele>
        <time>2022-10-30T08:32:25Z</time>
      </trkpt>
      <trkpt lat="41.4212073" lon="2.0920496">
        <ele>307.96011353</ele>
        <time>2022-10-30T08:32:26Z</time>
      </trkpt>
      <trkpt lat="41.4212082" lon="2.0920326">
        <ele>308.37011719</ele>
        <time>2022-10-30T08:32:27Z</time>
      </trkpt>
      <trkpt lat="41.421209" lon="2.092031">
        <ele>308.66000366</ele>
        <time>2022-10-30T08:32:27Z</time>
      </trkpt>
      <trkpt lat="41.4212709" lon="2.0919581">
        <ele>309.27999878</ele>
        <time>2022-10-30T08:32:33Z</time>
      </trkpt>
      <trkpt lat="41.421259" lon="2.0919721">
        <ele>309.45001221</ele>
        <time>2022-10-30T08:32:34Z</time>
      </trkpt>
      <trkpt lat="41.421245" lon="2.091974">
        <ele>309.65002441</ele>
        <time>2022-10-30T08:32:35Z</time>
      </trkpt>
      <trkpt lat="41.421363" lon="2.0917651">
        <ele>310.73999023</ele>
        <time>2022-10-30T08:32:47Z</time>
      </trkpt>
      <trkpt lat="41.4213749" lon="2.0917441">
        <ele>310.69998169</ele>
        <time>2022-10-30T08:32:48Z</time>
      </trkpt>
      <trkpt lat="41.4213839" lon="2.0917242">
        <ele>310.7199707</ele>
        <time>2022-10-30T08:32:49Z</time>
      </trkpt>
      <trkpt lat="41.4213848" lon="2.0916852">
        <ele>310.73995972</ele>
        <time>2022-10-30T08:32:50Z</time>
      </trkpt>
      <trkpt lat="41.4213937" lon="2.0916353">
        <ele>310.93997192</ele>
        <time>2022-10-30T08:32:51Z</time>
      </trkpt>
      <trkpt lat="41.4214037" lon="2.0916003">
        <ele>311.17996216</ele>
        <time>2022-10-30T08:32:52Z</time>
      </trkpt>
      <trkpt lat="41.4214017" lon="2.0915773">
        <ele>311.39996338</ele>
        <time>2022-10-30T08:32:53Z</time>
      </trkpt>
      <trkpt lat="41.4213997" lon="2.0915513">
        <ele>311.69995117</ele>
        <time>2022-10-30T08:32:54Z</time>
      </trkpt>
      <trkpt lat="41.4213917" lon="2.0915404">
        <ele>311.93994141</ele>
        <time>2022-10-30T08:32:55Z</time>
      </trkpt>
      <trkpt lat="41.4213838" lon="2.0915185">
        <ele>312.22994995</ele>
        <time>2022-10-30T08:32:56Z</time>
      </trkpt>
      <trkpt lat="41.4213678" lon="2.0914996">
        <ele>312.56994629</ele>
        <time>2022-10-30T08:32:57Z</time>
      </trkpt>
      <trkpt lat="41.4213518" lon="2.0914836">
        <ele>312.97994995</ele>
        <time>2022-10-30T08:32:58Z</time>
      </trkpt>
      <trkpt lat="41.4213389" lon="2.0914766">
        <ele>313.45996094</ele>
        <time>2022-10-30T08:32:59Z</time>
      </trkpt>
      <trkpt lat="41.4213029" lon="2.0914766">
        <ele>313.91995239</ele>
        <time>2022-10-30T08:33:00Z</time>
      </trkpt>
      <trkpt lat="41.4213198" lon="2.0914316">
        <ele>314.33996582</ele>
        <time>2022-10-30T08:33:01Z</time>
      </trkpt>
      <trkpt lat="41.4213338" lon="2.0913817">
        <ele>314.70996094</ele>
        <time>2022-10-30T08:33:02Z</time>
      </trkpt>
      <trkpt lat="41.4213118" lon="2.0913807">
        <ele>315.0199585</ele>
        <time>2022-10-30T08:33:03Z</time>
      </trkpt>
      <trkpt lat="41.4213038" lon="2.0913547">
        <ele>315.33996582</ele>
        <time>2022-10-30T08:33:04Z</time>
      </trkpt>
      <trkpt lat="41.4212898" lon="2.0913257">
        <ele>315.67996216</ele>
        <time>2022-10-30T08:33:05Z</time>
      </trkpt>
      <trkpt lat="41.4212839" lon="2.0913008">
        <ele>315.92996216</ele>
        <time>2022-10-30T08:33:06Z</time>
      </trkpt>
      <trkpt lat="41.42128" lon="2.0912799">
        <ele>316.22994995</ele>
        <time>2022-10-30T08:33:07Z</time>
      </trkpt>
      <trkpt lat="41.421266" lon="2.0912948">
        <ele>316.49993896</ele>
        <time>2022-10-30T08:33:08Z</time>
      </trkpt>
      <trkpt lat="41.421252" lon="2.0912908">
        <ele>316.76992798</ele>
        <time>2022-10-30T08:33:09Z</time>
      </trkpt>
      <trkpt lat="41.421231" lon="2.0912799">
        <ele>317.12991333</ele>
        <time>2022-10-30T08:33:10Z</time>
      </trkpt>
      <trkpt lat="41.4212161" lon="2.0912848">
        <ele>317.42990112</ele>
        <time>2022-10-30T08:33:11Z</time>
      </trkpt>
      <trkpt lat="41.421234" lon="2.0912289">
        <ele>317.74990845</ele>
        <time>2022-10-30T08:33:12Z</time>
      </trkpt>
      <trkpt lat="41.4212181" lon="2.0912109">
        <ele>318.02990723</ele>
        <time>2022-10-30T08:33:13Z</time>
      </trkpt>
      <trkpt lat="41.4212121" lon="2.091194">
        <ele>318.34991455</ele>
        <time>2022-10-30T08:33:14Z</time>
      </trkpt>
      <trkpt lat="41.4212181" lon="2.091184">
        <ele>318.69992065</ele>
        <time>2022-10-30T08:33:15Z</time>
      </trkpt>
      <trkpt lat="41.4212101" lon="2.09118">
        <ele>319.10992432</ele>
        <time>2022-10-30T08:33:16Z</time>
      </trkpt>
      <trkpt lat="41.421223" lon="2.0911661">
        <ele>319.57992554</ele>
        <time>2022-10-30T08:33:17Z</time>
      </trkpt>
      <trkpt lat="41.4212171" lon="2.091169">
        <ele>320.09991455</ele>
        <time>2022-10-30T08:33:18Z</time>
      </trkpt>
      <trkpt lat="41.4211972" lon="2.0911709">
        <ele>320.78991699</ele>
        <time>2022-10-30T08:33:19Z</time>
      </trkpt>
      <trkpt lat="41.4211853" lon="2.0911728">
        <ele>321.35992432</ele>
        <time>2022-10-30T08:33:20Z</time>
      </trkpt>
      <trkpt lat="41.421257" lon="2.090988">
        <ele>324.04998779</ele>
        <time>2022-10-30T08:33:37Z</time>
      </trkpt>
      <trkpt lat="41.4212561" lon="2.0909939">
        <ele>324.25997925</ele>
        <time>2022-10-30T08:33:38Z</time>
      </trkpt>
      <trkpt lat="41.4212502" lon="2.0909939">
        <ele>324.44998169</ele>
        <time>2022-10-30T08:33:39Z</time>
      </trkpt>
      <trkpt lat="41.4210641" lon="2.0913039">
        <ele>324.95001221</ele>
        <time>2022-10-30T08:34:27Z</time>
      </trkpt>
      <trkpt lat="41.421076" lon="2.091301">
        <ele>325.15002441</ele>
        <time>2022-10-30T08:34:28Z</time>
      </trkpt>
      <trkpt lat="41.4210909" lon="2.091297">
        <ele>325.41003418</ele>
        <time>2022-10-30T08:34:29Z</time>
      </trkpt>
      <trkpt lat="41.4211078" lon="2.0912921">
        <ele>325.72003174</ele>
        <time>2022-10-30T08:34:30Z</time>
      </trkpt>
      <trkpt lat="41.4211298" lon="2.0912851">
        <ele>326.04003906</ele>
        <time>2022-10-30T08:34:31Z</time>
      </trkpt>
      <trkpt lat="41.4211497" lon="2.0912811">
        <ele>326.30004883</ele>
        <time>2022-10-30T08:34:32Z</time>
      </trkpt>
      <trkpt lat="41.4211687" lon="2.0912722">
        <ele>326.57003784</ele>
        <time>2022-10-30T08:34:33Z</time>
      </trkpt>
      <trkpt lat="41.4211907" lon="2.0912592">
        <ele>326.83004761</ele>
        <time>2022-10-30T08:34:34Z</time>
      </trkpt>
      <trkpt lat="41.4212026" lon="2.0912672">
        <ele>327.01004028</ele>
        <time>2022-10-30T08:34:35Z</time>
      </trkpt>
      <trkpt lat="41.4211927" lon="2.0913091">
        <ele>327.30004883</ele>
        <time>2022-10-30T08:34:36Z</time>
      </trkpt>
      <trkpt lat="41.4211637" lon="2.0913391">
        <ele>327.6300354</ele>
        <time>2022-10-30T08:34:37Z</time>
      </trkpt>
      <trkpt lat="41.4211468" lon="2.091345">
        <ele>328.01004028</ele>
        <time>2022-10-30T08:34:38Z</time>
      </trkpt>
      <trkpt lat="41.4211419" lon="2.0913569">
        <ele>328.4800415</ele>
        <time>2022-10-30T08:34:39Z</time>
      </trkpt>
      <trkpt lat="41.4211389" lon="2.0913809">
        <ele>328.84002686</ele>
        <time>2022-10-30T08:34:40Z</time>
      </trkpt>
      <trkpt lat="41.4211559" lon="2.0913878">
        <ele>329.21002197</ele>
        <time>2022-10-30T08:34:41Z</time>
      </trkpt>
      <trkpt lat="41.4211419" lon="2.0913988">
        <ele>329.5300293</ele>
        <time>2022-10-30T08:34:42Z</time>
      </trkpt>
      <trkpt lat="41.4211209" lon="2.0914167">
        <ele>329.7300415</ele>
        <time>2022-10-30T08:34:43Z</time>
      </trkpt>
      <trkpt lat="41.4211438" lon="2.0914037">
        <ele>330.0300293</ele>
        <time>2022-10-30T08:34:44Z</time>
      </trkpt>
      <trkpt lat="41.4211558" lon="2.0913938">
        <ele>330.35003662</ele>
        <time>2022-10-30T08:34:45Z</time>
      </trkpt>
      <trkpt lat="41.4211607" lon="2.0913947">
        <ele>330.80004883</ele>
        <time>2022-10-30T08:34:46Z</time>
      </trkpt>
      <trkpt lat="41.4211548" lon="2.0913907">
        <ele>331.35003662</ele>
        <time>2022-10-30T08:34:47Z</time>
      </trkpt>
      <trkpt lat="41.4211519" lon="2.0913638">
        <ele>331.85003662</ele>
        <time>2022-10-30T08:34:48Z</time>
      </trkpt>
      <trkpt lat="41.4211569" lon="2.0913408">
        <ele>332.33004761</ele>
        <time>2022-10-30T08:34:49Z</time>
      </trkpt>
      <trkpt lat="41.4211619" lon="2.0913278">
        <ele>332.72006226</ele>
        <time>2022-10-30T08:34:50Z</time>
      </trkpt>
      <trkpt lat="41.4211628" lon="2.0913069">
        <ele>333.0100708</ele>
        <time>2022-10-30T08:34:51Z</time>
      </trkpt>
      <trkpt lat="41.4211687" lon="2.0912839">
        <ele>333.29006958</ele>
        <time>2022-10-30T08:34:52Z</time>
      </trkpt>
      <trkpt lat="41.4211776" lon="2.0912639">
        <ele>333.5100708</ele>
        <time>2022-10-30T08:34:53Z</time>
      </trkpt>
      <trkpt lat="41.4211647" lon="2.0912649">
        <ele>333.68008423</ele>
        <time>2022-10-30T08:34:54Z</time>
      </trkpt>
      <trkpt lat="41.4211537" lon="2.0912609">
        <ele>333.94009399</ele>
        <time>2022-10-30T08:34:55Z</time>
      </trkpt>
      <trkpt lat="41.4211546" lon="2.091243">
        <ele>334.20010376</ele>
        <time>2022-10-30T08:34:56Z</time>
      </trkpt>
      <trkpt lat="41.4211566" lon="2.091223">
        <ele>334.51010132</ele>
        <time>2022-10-30T08:34:57Z</time>
      </trkpt>
      <trkpt lat="41.4211397" lon="2.091223">
        <ele>334.86010742</ele>
        <time>2022-10-30T08:34:58Z</time>
      </trkpt>
      <trkpt lat="41.4211327" lon="2.0912201">
        <ele>335.23010254</ele>
        <time>2022-10-30T08:34:59Z</time>
      </trkpt>
      <trkpt lat="41.4211217" lon="2.0912101">
        <ele>335.66009521</ele>
        <time>2022-10-30T08:35:00Z</time>
      </trkpt>
      <trkpt lat="41.4211198" lon="2.0912032">
        <ele>336.06008911</ele>
        <time>2022-10-30T08:35:01Z</time>
      </trkpt>
      <trkpt lat="41.4211038" lon="2.0911792">
        <ele>336.5401001</ele>
        <time>2022-10-30T08:35:02Z</time>
      </trkpt>
      <trkpt lat="41.4210919" lon="2.0911683">
        <ele>336.97009277</ele>
        <time>2022-10-30T08:35:03Z</time>
      </trkpt>
      <trkpt lat="41.4210948" lon="2.0911443">
        <ele>337.38009644</ele>
        <time>2022-10-30T08:35:04Z</time>
      </trkpt>
      <trkpt lat="41.4211067" lon="2.0911093">
        <ele>337.83010864</ele>
        <time>2022-10-30T08:35:05Z</time>
      </trkpt>
      <trkpt lat="41.4211126" lon="2.0910814">
        <ele>338.17010498</ele>
        <time>2022-10-30T08:35:06Z</time>
      </trkpt>
      <trkpt lat="41.4211226" lon="2.0910515">
        <ele>338.44009399</ele>
        <time>2022-10-30T08:35:07Z</time>
      </trkpt>
      <trkpt lat="41.4211265" lon="2.0910345">
        <ele>338.61010742</ele>
        <time>2022-10-30T08:35:08Z</time>
      </trkpt>
      <trkpt lat="41.4211196" lon="2.0910166">
        <ele>338.73010254</ele>
        <time>2022-10-30T08:35:09Z</time>
      </trkpt>
      <trkpt lat="41.4211146" lon="2.0910076">
        <ele>338.81008911</ele>
        <time>2022-10-30T08:35:10Z</time>
      </trkpt>
      <trkpt lat="41.4211087" lon="2.0909897">
        <ele>338.99008179</ele>
        <time>2022-10-30T08:35:11Z</time>
      </trkpt>
      <trkpt lat="41.4211077" lon="2.0909757">
        <ele>339.21008301</ele>
        <time>2022-10-30T08:35:12Z</time>
      </trkpt>
      <trkpt lat="41.4210928" lon="2.0909658">
        <ele>339.50009155</ele>
        <time>2022-10-30T08:35:13Z</time>
      </trkpt>
      <trkpt lat="41.4210799" lon="2.0909538">
        <ele>339.99008179</ele>
        <time>2022-10-30T08:35:14Z</time>
      </trkpt>
      <trkpt lat="41.4210769" lon="2.0909289">
        <ele>340.41009521</ele>
        <time>2022-10-30T08:35:15Z</time>
      </trkpt>
      <trkpt lat="41.421067" lon="2.090902">
        <ele>340.96008301</ele>
        <time>2022-10-30T08:35:16Z</time>
      </trkpt>
      <trkpt lat="41.421051" lon="2.090892">
        <ele>341.49008179</ele>
        <time>2022-10-30T08:35:17Z</time>
      </trkpt>
      <trkpt lat="41.421046" lon="2.0908731">
        <ele>341.89007568</ele>
        <time>2022-10-30T08:35:18Z</time>
      </trkpt>
      <trkpt lat="41.4210391" lon="2.0908531">
        <ele>342.37008667</ele>
        <time>2022-10-30T08:35:19Z</time>
      </trkpt>
      <trkpt lat="41.4210162" lon="2.0908271">
        <ele>342.72009277</ele>
        <time>2022-10-30T08:35:20Z</time>
      </trkpt>
      <trkpt lat="41.4209922" lon="2.0908192">
        <ele>343.1401062</ele>
        <time>2022-10-30T08:35:21Z</time>
      </trkpt>
      <trkpt lat="41.4209753" lon="2.0908142">
        <ele>343.57009888</ele>
        <time>2022-10-30T08:35:22Z</time>
      </trkpt>
      <trkpt lat="41.4209574" lon="2.0908073">
        <ele>343.98010254</ele>
        <time>2022-10-30T08:35:23Z</time>
      </trkpt>
      <trkpt lat="41.4209504" lon="2.0907993">
        <ele>344.40011597</ele>
        <time>2022-10-30T08:35:24Z</time>
      </trkpt>
      <trkpt lat="41.4209594" lon="2.0907744">
        <ele>344.67010498</ele>
        <time>2022-10-30T08:35:25Z</time>
      </trkpt>
      <trkpt lat="41.4209693" lon="2.0907555">
        <ele>344.85009766</ele>
        <time>2022-10-30T08:35:26Z</time>
      </trkpt>
      <trkpt lat="41.4209673" lon="2.0907395">
        <ele>344.9901123</ele>
        <time>2022-10-30T08:35:27Z</time>
      </trkpt>
      <trkpt lat="41.4209554" lon="2.0907195">
        <ele>345.08010864</ele>
        <time>2022-10-30T08:35:28Z</time>
      </trkpt>
      <trkpt lat="41.4209474" lon="2.0906776">
        <ele>345.12011719</ele>
        <time>2022-10-30T08:35:29Z</time>
      </trkpt>
      <trkpt lat="41.4209494" lon="2.0906596">
        <ele>345.18011475</ele>
        <time>2022-10-30T08:35:30Z</time>
      </trkpt>
      <trkpt lat="41.4209485" lon="2.0906427">
        <ele>345.17010498</ele>
        <time>2022-10-30T08:35:31Z</time>
      </trkpt>
      <trkpt lat="41.4209445" lon="2.0906347">
        <ele>345.17010498</ele>
        <time>2022-10-30T08:35:32Z</time>
      </trkpt>
      <trkpt lat="41.4209356" lon="2.0906198">
        <ele>345.17010498</ele>
        <time>2022-10-30T08:35:33Z</time>
      </trkpt>
      <trkpt lat="41.4209177" lon="2.0905979">
        <ele>345.17010498</ele>
        <time>2022-10-30T08:35:34Z</time>
      </trkpt>
      <trkpt lat="41.4208927" lon="2.0905609">
        <ele>345.26010132</ele>
        <time>2022-10-30T08:35:35Z</time>
      </trkpt>
      <trkpt lat="41.4208667" lon="2.0905129">
        <ele>345.34008789</ele>
        <time>2022-10-30T08:35:36Z</time>
      </trkpt>
      <trkpt lat="41.4208348" lon="2.090501">
        <ele>345.55007935</ele>
        <time>2022-10-30T08:35:37Z</time>
      </trkpt>
      <trkpt lat="41.4208309" lon="2.090485">
        <ele>345.82006836</ele>
        <time>2022-10-30T08:35:38Z</time>
      </trkpt>
      <trkpt lat="41.4208169" lon="2.090459">
        <ele>346.08007812</ele>
        <time>2022-10-30T08:35:39Z</time>
      </trkpt>
      <trkpt lat="41.420797" lon="2.0904321">
        <ele>346.44006348</ele>
        <time>2022-10-30T08:35:40Z</time>
      </trkpt>
      <trkpt lat="41.420775" lon="2.0904082">
        <ele>346.71005249</ele>
        <time>2022-10-30T08:35:41Z</time>
      </trkpt>
      <trkpt lat="41.420746" lon="2.0903862">
        <ele>347.02005005</ele>
        <time>2022-10-30T08:35:42Z</time>
      </trkpt>
      <trkpt lat="41.4207111" lon="2.0903512">
        <ele>347.28005981</ele>
        <time>2022-10-30T08:35:43Z</time>
      </trkpt>
      <trkpt lat="41.4206762" lon="2.0903413">
        <ele>347.56005859</ele>
        <time>2022-10-30T08:35:44Z</time>
      </trkpt>
      <trkpt lat="41.4206512" lon="2.0903293">
        <ele>348.00006104</ele>
        <time>2022-10-30T08:35:45Z</time>
      </trkpt>
      <trkpt lat="41.4206352" lon="2.0903224">
        <ele>348.39007568</ele>
        <time>2022-10-30T08:35:46Z</time>
      </trkpt>
      <trkpt lat="41.4205983" lon="2.0903035">
        <ele>348.88006592</ele>
        <time>2022-10-30T08:35:47Z</time>
      </trkpt>
      <trkpt lat="41.4205674" lon="2.0902975">
        <ele>349.42007446</ele>
        <time>2022-10-30T08:35:48Z</time>
      </trkpt>
      <trkpt lat="41.4205514" lon="2.0902856">
        <ele>350.03005981</ele>
        <time>2022-10-30T08:35:49Z</time>
      </trkpt>
      <trkpt lat="41.4205255" lon="2.0902896">
        <ele>350.68005371</ele>
        <time>2022-10-30T08:35:50Z</time>
      </trkpt>
      <trkpt lat="41.4205095" lon="2.0902837">
        <ele>351.43005371</ele>
        <time>2022-10-30T08:35:51Z</time>
      </trkpt>
      <trkpt lat="41.4204875" lon="2.0902688">
        <ele>352.13006592</ele>
        <time>2022-10-30T08:35:52Z</time>
      </trkpt>
      <trkpt lat="41.4204676" lon="2.0902408">
        <ele>352.80007935</ele>
        <time>2022-10-30T08:35:53Z</time>
      </trkpt>
      <trkpt lat="41.4204477" lon="2.0902079">
        <ele>353.37008667</ele>
        <time>2022-10-30T08:35:54Z</time>
      </trkpt>
      <trkpt lat="41.4204278" lon="2.0901709">
        <ele>353.84008789</ele>
        <time>2022-10-30T08:35:55Z</time>
      </trkpt>
      <trkpt lat="41.4204179" lon="2.090122">
        <ele>354.35009766</ele>
        <time>2022-10-30T08:35:56Z</time>
      </trkpt>
      <trkpt lat="41.4204159" lon="2.090096">
        <ele>352.1401062</ele>
        <time>2022-10-30T08:35:57Z</time>
      </trkpt>
      <trkpt lat="41.4204119" lon="2.0900781">
        <ele>353.80010986</ele>
        <time>2022-10-30T08:35:58Z</time>
      </trkpt>
      <trkpt lat="41.420405" lon="2.0900731">
        <ele>354.33010864</ele>
        <time>2022-10-30T08:35:59Z</time>
      </trkpt>
      <trkpt lat="41.420395" lon="2.0900722">
        <ele>354.55010986</ele>
        <time>2022-10-30T08:36:00Z</time>
      </trkpt>
      <trkpt lat="41.4204" lon="2.0900662">
        <ele>357.35009766</ele>
        <time>2022-10-30T08:36:01Z</time>
      </trkpt>
      <trkpt lat="41.4204059" lon="2.0900613">
        <ele>356.27011108</ele>
        <time>2022-10-30T08:36:02Z</time>
      </trkpt>
      <trkpt lat="41.4204069" lon="2.0900534">
        <ele>356.23010254</ele>
        <time>2022-10-30T08:36:03Z</time>
      </trkpt>
      <trkpt lat="41.4203779" lon="2.0900694">
        <ele>356.34008789</ele>
        <time>2022-10-30T08:36:04Z</time>
      </trkpt>
      <trkpt lat="41.420342" lon="2.0900823">
        <ele>356.44009399</ele>
        <time>2022-10-30T08:36:05Z</time>
      </trkpt>
      <trkpt lat="41.420323" lon="2.0900903">
        <ele>356.60009766</ele>
        <time>2022-10-30T08:36:06Z</time>
      </trkpt>
      <trkpt lat="41.420305" lon="2.0901012">
        <ele>356.7401123</ele>
        <time>2022-10-30T08:36:07Z</time>
      </trkpt>
      <trkpt lat="41.4202901" lon="2.0901032">
        <ele>356.85009766</ele>
        <time>2022-10-30T08:36:08Z</time>
      </trkpt>
      <trkpt lat="41.4202802" lon="2.0901241">
        <ele>356.95010376</ele>
        <time>2022-10-30T08:36:09Z</time>
      </trkpt>
      <trkpt lat="41.4202762" lon="2.0901501">
        <ele>357.02011108</ele>
        <time>2022-10-30T08:36:10Z</time>
      </trkpt>
      <trkpt lat="41.4202682" lon="2.0901671">
        <ele>357.11010742</ele>
        <time>2022-10-30T08:36:11Z</time>
      </trkpt>
      <trkpt lat="41.4202563" lon="2.090189">
        <ele>357.22009277</ele>
        <time>2022-10-30T08:36:12Z</time>
      </trkpt>
      <trkpt lat="41.4202444" lon="2.0902069">
        <ele>357.35009766</ele>
        <time>2022-10-30T08:36:13Z</time>
      </trkpt>
      <trkpt lat="41.4202275" lon="2.0902239">
        <ele>357.4901123</ele>
        <time>2022-10-30T08:36:14Z</time>
      </trkpt>
      <trkpt lat="41.4202155" lon="2.0902369">
        <ele>357.66012573</ele>
        <time>2022-10-30T08:36:15Z</time>
      </trkpt>
      <trkpt lat="41.4202036" lon="2.0902428">
        <ele>357.85012817</ele>
        <time>2022-10-30T08:36:16Z</time>
      </trkpt>
      <trkpt lat="41.4201867" lon="2.0902537">
        <ele>358.04013062</ele>
        <time>2022-10-30T08:36:17Z</time>
      </trkpt>
      <trkpt lat="41.4201698" lon="2.0902817">
        <ele>358.22012329</ele>
        <time>2022-10-30T08:36:18Z</time>
      </trkpt>
      <trkpt lat="41.4201538" lon="2.0902986">
        <ele>358.4201355</ele>
        <time>2022-10-30T08:36:19Z</time>
      </trkpt>
      <trkpt lat="41.4201389" lon="2.0903135">
        <ele>358.59014893</ele>
        <time>2022-10-30T08:36:20Z</time>
      </trkpt>
      <trkpt lat="41.420113" lon="2.0903355">
        <ele>358.78015137</ele>
        <time>2022-10-30T08:36:21Z</time>
      </trkpt>
      <trkpt lat="41.420091" lon="2.0903614">
        <ele>359.00015259</ele>
        <time>2022-10-30T08:36:22Z</time>
      </trkpt>
      <trkpt lat="41.4200671" lon="2.0903944">
        <ele>359.20016479</ele>
        <time>2022-10-30T08:36:23Z</time>
      </trkpt>
      <trkpt lat="41.4200531" lon="2.0904114">
        <ele>359.39016724</ele>
        <time>2022-10-30T08:36:24Z</time>
      </trkpt>
      <trkpt lat="41.4200331" lon="2.0904223">
        <ele>359.53018188</ele>
        <time>2022-10-30T08:36:25Z</time>
      </trkpt>
      <trkpt lat="41.4200142" lon="2.0904342">
        <ele>359.650177</ele>
        <time>2022-10-30T08:36:26Z</time>
      </trkpt>
      <trkpt lat="41.4199773" lon="2.0904313">
        <ele>359.73016357</ele>
        <time>2022-10-30T08:36:27Z</time>
      </trkpt>
      <trkpt lat="41.4199513" lon="2.0904342">
        <ele>359.81015015</ele>
        <time>2022-10-30T08:36:28Z</time>
      </trkpt>
      <trkpt lat="41.4199354" lon="2.0904392">
        <ele>359.9201355</ele>
        <time>2022-10-30T08:36:29Z</time>
      </trkpt>
      <trkpt lat="41.4199144" lon="2.0904541">
        <ele>360.04013062</ele>
        <time>2022-10-30T08:36:30Z</time>
      </trkpt>
      <trkpt lat="41.4198864" lon="2.0904621">
        <ele>360.16012573</ele>
        <time>2022-10-30T08:36:31Z</time>
      </trkpt>
      <trkpt lat="41.4198625" lon="2.090463">
        <ele>360.30014038</ele>
        <time>2022-10-30T08:36:32Z</time>
      </trkpt>
      <trkpt lat="41.4198495" lon="2.090465">
        <ele>360.40014648</ele>
        <time>2022-10-30T08:36:33Z</time>
      </trkpt>
      <trkpt lat="41.4198376" lon="2.0904779">
        <ele>360.44015503</ele>
        <time>2022-10-30T08:36:34Z</time>
      </trkpt>
      <trkpt lat="41.4198177" lon="2.0904819">
        <ele>360.50015259</ele>
        <time>2022-10-30T08:36:35Z</time>
      </trkpt>
      <trkpt lat="41.4198057" lon="2.0904779">
        <ele>360.54016113</ele>
        <time>2022-10-30T08:36:36Z</time>
      </trkpt>
      <trkpt lat="41.4197838" lon="2.0904909">
        <ele>360.61016846</ele>
        <time>2022-10-30T08:36:37Z</time>
      </trkpt>
      <trkpt lat="41.4197788" lon="2.0905119">
        <ele>360.70016479</ele>
        <time>2022-10-30T08:36:38Z</time>
      </trkpt>
      <trkpt lat="41.4197797" lon="2.0905219">
        <ele>360.75015259</ele>
        <time>2022-10-30T08:36:39Z</time>
      </trkpt>
      <trkpt lat="41.4197728" lon="2.0905408">
        <ele>360.80014038</ele>
        <time>2022-10-30T08:36:40Z</time>
      </trkpt>
      <trkpt lat="41.4197568" lon="2.0905568">
        <ele>360.84014893</ele>
        <time>2022-10-30T08:36:41Z</time>
      </trkpt>
      <trkpt lat="41.4197518" lon="2.0905667">
        <ele>360.86013794</ele>
        <time>2022-10-30T08:36:42Z</time>
      </trkpt>
      <trkpt lat="41.4197438" lon="2.0905787">
        <ele>360.87014771</ele>
        <time>2022-10-30T08:36:43Z</time>
      </trkpt>
      <trkpt lat="41.4197279" lon="2.0905876">
        <ele>360.87014771</ele>
        <time>2022-10-30T08:36:44Z</time>
      </trkpt>
      <trkpt lat="41.4197029" lon="2.0905946">
        <ele>360.80014038</ele>
        <time>2022-10-30T08:36:45Z</time>
      </trkpt>
      <trkpt lat="41.4196899" lon="2.0906085">
        <ele>360.71014404</ele>
        <time>2022-10-30T08:36:46Z</time>
      </trkpt>
      <trkpt lat="41.419672" lon="2.0906295">
        <ele>360.65014648</ele>
        <time>2022-10-30T08:36:47Z</time>
      </trkpt>
      <trkpt lat="41.419647" lon="2.0906455">
        <ele>360.56015015</ele>
        <time>2022-10-30T08:36:48Z</time>
      </trkpt>
      <trkpt lat="41.419628" lon="2.0906664">
        <ele>360.51016235</ele>
        <time>2022-10-30T08:36:49Z</time>
      </trkpt>
      <trkpt lat="41.4195931" lon="2.0907253">
        <ele>360.41015625</ele>
        <time>2022-10-30T08:36:50Z</time>
      </trkpt>
      <trkpt lat="41.4195622" lon="2.0907543">
        <ele>360.29016113</ele>
        <time>2022-10-30T08:36:51Z</time>
      </trkpt>
      <trkpt lat="41.4195332" lon="2.0907792">
        <ele>360.18017578</ele>
        <time>2022-10-30T08:36:52Z</time>
      </trkpt>
      <trkpt lat="41.4195052" lon="2.0907952">
        <ele>360.0501709</ele>
        <time>2022-10-30T08:36:53Z</time>
      </trkpt>
      <trkpt lat="41.4194723" lon="2.0908002">
        <ele>359.98016357</ele>
        <time>2022-10-30T08:36:54Z</time>
      </trkpt>
      <trkpt lat="41.4194253" lon="2.0907753">
        <ele>359.87017822</ele>
        <time>2022-10-30T08:36:55Z</time>
      </trkpt>
      <trkpt lat="41.4193994" lon="2.0907483">
        <ele>359.650177</ele>
        <time>2022-10-30T08:36:56Z</time>
      </trkpt>
      <trkpt lat="41.4193724" lon="2.0907124">
        <ele>359.41018677</ele>
        <time>2022-10-30T08:36:57Z</time>
      </trkpt>
      <trkpt lat="41.4193474" lon="2.0906704">
        <ele>359.01019287</ele>
        <time>2022-10-30T08:36:58Z</time>
      </trkpt>
      <trkpt lat="41.4193095" lon="2.0906174">
        <ele>358.61019897</ele>
        <time>2022-10-30T08:36:59Z</time>
      </trkpt>
      <trkpt lat="41.4192685" lon="2.0906005">
        <ele>358.1802063</ele>
        <time>2022-10-30T08:37:00Z</time>
      </trkpt>
      <trkpt lat="41.4192216" lon="2.0905445">
        <ele>357.66021729</ele>
        <time>2022-10-30T08:37:01Z</time>
      </trkpt>
      <trkpt lat="41.4191836" lon="2.0904986">
        <ele>357.23022461</ele>
        <time>2022-10-30T08:37:02Z</time>
      </trkpt>
      <trkpt lat="41.4191177" lon="2.0904396">
        <ele>356.84020996</ele>
        <time>2022-10-30T08:37:03Z</time>
      </trkpt>
      <trkpt lat="41.4190577" lon="2.0904117">
        <ele>356.55020142</ele>
        <time>2022-10-30T08:37:04Z</time>
      </trkpt>
      <trkpt lat="41.4190068" lon="2.0903938">
        <ele>356.37020874</ele>
        <time>2022-10-30T08:37:05Z</time>
      </trkpt>
      <trkpt lat="41.4189639" lon="2.0903798">
        <ele>356.30020142</ele>
        <time>2022-10-30T08:37:06Z</time>
      </trkpt>
      <trkpt lat="41.4189149" lon="2.0903719">
        <ele>356.41018677</ele>
        <time>2022-10-30T08:37:07Z</time>
      </trkpt>
      <trkpt lat="41.418857" lon="2.0903908">
        <ele>356.64019775</ele>
        <time>2022-10-30T08:37:08Z</time>
      </trkpt>
      <trkpt lat="41.4188281" lon="2.0903978">
        <ele>357.00018311</ele>
        <time>2022-10-30T08:37:09Z</time>
      </trkpt>
      <trkpt lat="41.4187951" lon="2.0904277">
        <ele>357.400177</ele>
        <time>2022-10-30T08:37:10Z</time>
      </trkpt>
      <trkpt lat="41.4187651" lon="2.0904526">
        <ele>357.650177</ele>
        <time>2022-10-30T08:37:11Z</time>
      </trkpt>
      <trkpt lat="41.4187442" lon="2.0904706">
        <ele>357.93017578</ele>
        <time>2022-10-30T08:37:12Z</time>
      </trkpt>
      <trkpt lat="41.4187133" lon="2.0905065">
        <ele>358.14016724</ele>
        <time>2022-10-30T08:37:13Z</time>
      </trkpt>
      <trkpt lat="41.4186934" lon="2.0905265">
        <ele>358.32015991</ele>
        <time>2022-10-30T08:37:14Z</time>
      </trkpt>
      <trkpt lat="41.4186644" lon="2.0905484">
        <ele>358.53015137</ele>
        <time>2022-10-30T08:37:15Z</time>
      </trkpt>
      <trkpt lat="41.4186545" lon="2.0905425">
        <ele>358.70016479</ele>
        <time>2022-10-30T08:37:16Z</time>
      </trkpt>
      <trkpt lat="41.4186316" lon="2.0905465">
        <ele>358.900177</ele>
        <time>2022-10-30T08:37:17Z</time>
      </trkpt>
      <trkpt lat="41.4186276" lon="2.0905494">
        <ele>359.12017822</ele>
        <time>2022-10-30T08:37:18Z</time>
      </trkpt>
      <trkpt lat="41.4186116" lon="2.0905405">
        <ele>359.36016846</ele>
        <time>2022-10-30T08:37:19Z</time>
      </trkpt>
      <trkpt lat="41.4185976" lon="2.0905524">
        <ele>359.58016968</ele>
        <time>2022-10-30T08:37:20Z</time>
      </trkpt>
      <trkpt lat="41.4185757" lon="2.0905793">
        <ele>359.76016235</ele>
        <time>2022-10-30T08:37:21Z</time>
      </trkpt>
      <trkpt lat="41.4185607" lon="2.0905973">
        <ele>359.900177</ele>
        <time>2022-10-30T08:37:22Z</time>
      </trkpt>
      <trkpt lat="41.4185458" lon="2.0906212">
        <ele>360.03018188</ele>
        <time>2022-10-30T08:37:23Z</time>
      </trkpt>
      <trkpt lat="41.4185309" lon="2.0906472">
        <ele>360.12017822</ele>
        <time>2022-10-30T08:37:24Z</time>
      </trkpt>
      <trkpt lat="41.4185069" lon="2.0906781">
        <ele>360.23016357</ele>
        <time>2022-10-30T08:37:25Z</time>
      </trkpt>
      <trkpt lat="41.418469" lon="2.090732">
        <ele>360.32015991</ele>
        <time>2022-10-30T08:37:26Z</time>
      </trkpt>
      <trkpt lat="41.418442" lon="2.090753">
        <ele>360.35015869</ele>
        <time>2022-10-30T08:37:27Z</time>
      </trkpt>
      <trkpt lat="41.418417" lon="2.0907739">
        <ele>360.39016724</ele>
        <time>2022-10-30T08:37:28Z</time>
      </trkpt>
      <trkpt lat="41.4183901" lon="2.0907978">
        <ele>360.37017822</ele>
        <time>2022-10-30T08:37:29Z</time>
      </trkpt>
      <trkpt lat="41.4183691" lon="2.0908138">
        <ele>360.32019043</ele>
        <time>2022-10-30T08:37:30Z</time>
      </trkpt>
      <trkpt lat="41.4183462" lon="2.0908378">
        <ele>360.21020508</ele>
        <time>2022-10-30T08:37:31Z</time>
      </trkpt>
      <trkpt lat="41.4183272" lon="2.0908578">
        <ele>359.99020386</ele>
        <time>2022-10-30T08:37:32Z</time>
      </trkpt>
      <trkpt lat="41.4183073" lon="2.0908847">
        <ele>359.69021606</ele>
        <time>2022-10-30T08:37:33Z</time>
      </trkpt>
      <trkpt lat="41.4182874" lon="2.0909147">
        <ele>359.25021362</ele>
        <time>2022-10-30T08:37:34Z</time>
      </trkpt>
      <trkpt lat="41.4182484" lon="2.0909726">
        <ele>358.66021729</ele>
        <time>2022-10-30T08:37:35Z</time>
      </trkpt>
      <trkpt lat="41.4182094" lon="2.0910176">
        <ele>358.02020264</ele>
        <time>2022-10-30T08:37:36Z</time>
      </trkpt>
      <trkpt lat="41.4181674" lon="2.0910766">
        <ele>357.40020752</ele>
        <time>2022-10-30T08:37:37Z</time>
      </trkpt>
      <trkpt lat="41.4181284" lon="2.0911235">
        <ele>356.90020752</ele>
        <time>2022-10-30T08:37:38Z</time>
      </trkpt>
      <trkpt lat="41.4180805" lon="2.0912074">
        <ele>356.50021362</ele>
        <time>2022-10-30T08:37:39Z</time>
      </trkpt>
      <trkpt lat="41.4180576" lon="2.0912674">
        <ele>356.24020386</ele>
        <time>2022-10-30T08:37:40Z</time>
      </trkpt>
      <trkpt lat="41.4180407" lon="2.0913043">
        <ele>355.94021606</ele>
        <time>2022-10-30T08:37:41Z</time>
      </trkpt>
      <trkpt lat="41.4180058" lon="2.0913542">
        <ele>355.57022095</ele>
        <time>2022-10-30T08:37:42Z</time>
      </trkpt>
      <trkpt lat="41.4179638" lon="2.0914192">
        <ele>355.12020874</ele>
        <time>2022-10-30T08:37:43Z</time>
      </trkpt>
      <trkpt lat="41.4178888" lon="2.0915052">
        <ele>354.55020142</ele>
        <time>2022-10-30T08:37:44Z</time>
      </trkpt>
      <trkpt lat="41.4178358" lon="2.0915402">
        <ele>353.80020142</ele>
        <time>2022-10-30T08:37:45Z</time>
      </trkpt>
      <trkpt lat="41.4177938" lon="2.0915332">
        <ele>353.05020142</ele>
        <time>2022-10-30T08:37:46Z</time>
      </trkpt>
      <trkpt lat="41.4177569" lon="2.0915132">
        <ele>352.34020996</ele>
        <time>2022-10-30T08:37:47Z</time>
      </trkpt>
      <trkpt lat="41.417717" lon="2.0914902">
        <ele>351.64019775</ele>
        <time>2022-10-30T08:37:48Z</time>
      </trkpt>
      <trkpt lat="41.4176851" lon="2.0914253">
        <ele>351.17019653</ele>
        <time>2022-10-30T08:37:49Z</time>
      </trkpt>
      <trkpt lat="41.4176741" lon="2.0913754">
        <ele>350.73019409</ele>
        <time>2022-10-30T08:37:50Z</time>
      </trkpt>
      <trkpt lat="41.4176682" lon="2.0913114">
        <ele>350.34017944</ele>
        <time>2022-10-30T08:37:51Z</time>
      </trkpt>
      <trkpt lat="41.4176483" lon="2.0912744">
        <ele>350.10018921</ele>
        <time>2022-10-30T08:37:52Z</time>
      </trkpt>
      <trkpt lat="41.4176013" lon="2.0912485">
        <ele>349.93017578</ele>
        <time>2022-10-30T08:37:53Z</time>
      </trkpt>
      <trkpt lat="41.4175903" lon="2.0912065">
        <ele>349.88018799</ele>
        <time>2022-10-30T08:37:54Z</time>
      </trkpt>
      <trkpt lat="41.4175833" lon="2.0911565">
        <ele>349.89019775</ele>
        <time>2022-10-30T08:37:55Z</time>
      </trkpt>
      <trkpt lat="41.4175724" lon="2.0911166">
        <ele>349.92019653</ele>
        <time>2022-10-30T08:37:56Z</time>
      </trkpt>
      <trkpt lat="41.4175594" lon="2.0910727">
        <ele>349.95019531</ele>
        <time>2022-10-30T08:37:57Z</time>
      </trkpt>
      <trkpt lat="41.4175434" lon="2.0910068">
        <ele>349.98019409</ele>
        <time>2022-10-30T08:37:58Z</time>
      </trkpt>
      <trkpt lat="41.4175324" lon="2.0909689">
        <ele>349.97018433</ele>
        <time>2022-10-30T08:37:59Z</time>
      </trkpt>
      <trkpt lat="41.4175135" lon="2.090931">
        <ele>349.93017578</ele>
        <time>2022-10-30T08:38:00Z</time>
      </trkpt>
      <trkpt lat="41.4174955" lon="2.090878">
        <ele>349.83016968</ele>
        <time>2022-10-30T08:38:01Z</time>
      </trkpt>
      <trkpt lat="41.4174726" lon="2.0908051">
        <ele>349.66015625</ele>
        <time>2022-10-30T08:38:02Z</time>
      </trkpt>
      <trkpt lat="41.4174547" lon="2.0907541">
        <ele>349.50015259</ele>
        <time>2022-10-30T08:38:03Z</time>
      </trkpt>
      <trkpt lat="41.4174447" lon="2.0907091">
        <ele>349.34014893</ele>
        <time>2022-10-30T08:38:04Z</time>
      </trkpt>
      <trkpt lat="41.4174268" lon="2.0906741">
        <ele>349.19015503</ele>
        <time>2022-10-30T08:38:05Z</time>
      </trkpt>
      <trkpt lat="41.4174028" lon="2.0906482">
        <ele>349.09014893</ele>
        <time>2022-10-30T08:38:06Z</time>
      </trkpt>
      <trkpt lat="41.4173629" lon="2.0906073">
        <ele>349.0201416</ele>
        <time>2022-10-30T08:38:07Z</time>
      </trkpt>
      <trkpt lat="41.417331" lon="2.0906033">
        <ele>348.88012695</ele>
        <time>2022-10-30T08:38:08Z</time>
      </trkpt>
      <trkpt lat="41.417297" lon="2.0905963">
        <ele>348.7401123</ele>
        <time>2022-10-30T08:38:09Z</time>
      </trkpt>
      <trkpt lat="41.4172651" lon="2.0905893">
        <ele>348.52011108</ele>
        <time>2022-10-30T08:38:10Z</time>
      </trkpt>
      <trkpt lat="41.4172142" lon="2.0906093">
        <ele>348.2401123</ele>
        <time>2022-10-30T08:38:11Z</time>
      </trkpt>
      <trkpt lat="41.4171762" lon="2.0906272">
        <ele>347.95010376</ele>
        <time>2022-10-30T08:38:12Z</time>
      </trkpt>
      <trkpt lat="41.4171333" lon="2.0906602">
        <ele>347.65011597</ele>
        <time>2022-10-30T08:38:13Z</time>
      </trkpt>
      <trkpt lat="41.4170984" lon="2.0906841">
        <ele>347.26010132</ele>
        <time>2022-10-30T08:38:14Z</time>
      </trkpt>
      <trkpt lat="41.4170594" lon="2.0907141">
        <ele>346.7401123</ele>
        <time>2022-10-30T08:38:15Z</time>
      </trkpt>
      <trkpt lat="41.4170025" lon="2.090754">
        <ele>346.16012573</ele>
        <time>2022-10-30T08:38:16Z</time>
      </trkpt>
      <trkpt lat="41.4169575" lon="2.0907819">
        <ele>345.51013184</ele>
        <time>2022-10-30T08:38:17Z</time>
      </trkpt>
      <trkpt lat="41.4169195" lon="2.0908239">
        <ele>344.84011841</ele>
        <time>2022-10-30T08:38:18Z</time>
      </trkpt>
      <trkpt lat="41.4169106" lon="2.0908868">
        <ele>344.25012207</ele>
        <time>2022-10-30T08:38:19Z</time>
      </trkpt>
      <trkpt lat="41.4168586" lon="2.0910137">
        <ele>343.82012939</ele>
        <time>2022-10-30T08:38:20Z</time>
      </trkpt>
      <trkpt lat="41.4168107" lon="2.0911007">
        <ele>343.48013306</ele>
        <time>2022-10-30T08:38:21Z</time>
      </trkpt>
      <trkpt lat="41.4167578" lon="2.0911487">
        <ele>343.26013184</ele>
        <time>2022-10-30T08:38:22Z</time>
      </trkpt>
      <trkpt lat="41.4167088" lon="2.0911896">
        <ele>343.15014648</ele>
        <time>2022-10-30T08:38:23Z</time>
      </trkpt>
      <trkpt lat="41.4166539" lon="2.0912696">
        <ele>342.97015381</ele>
        <time>2022-10-30T08:38:24Z</time>
      </trkpt>
      <trkpt lat="41.4166099" lon="2.0913295">
        <ele>342.78015137</ele>
        <time>2022-10-30T08:38:25Z</time>
      </trkpt>
      <trkpt lat="41.4165709" lon="2.0913685">
        <ele>342.63015747</ele>
        <time>2022-10-30T08:38:26Z</time>
      </trkpt>
      <trkpt lat="41.4165379" lon="2.0914064">
        <ele>342.47015381</ele>
        <time>2022-10-30T08:38:27Z</time>
      </trkpt>
      <trkpt lat="41.416511" lon="2.0914503">
        <ele>342.34014893</ele>
        <time>2022-10-30T08:38:28Z</time>
      </trkpt>
      <trkpt lat="41.416475" lon="2.0915062">
        <ele>342.30014038</ele>
        <time>2022-10-30T08:38:29Z</time>
      </trkpt>
      <trkpt lat="41.4164521" lon="2.0915501">
        <ele>342.25015259</ele>
        <time>2022-10-30T08:38:30Z</time>
      </trkpt>
      <trkpt lat="41.4164311" lon="2.0915921">
        <ele>342.23016357</ele>
        <time>2022-10-30T08:38:31Z</time>
      </trkpt>
      <trkpt lat="41.4164102" lon="2.091649">
        <ele>342.18017578</ele>
        <time>2022-10-30T08:38:32Z</time>
      </trkpt>
      <trkpt lat="41.4163763" lon="2.091714">
        <ele>342.11016846</ele>
        <time>2022-10-30T08:38:33Z</time>
      </trkpt>
      <trkpt lat="41.4163493" lon="2.0917629">
        <ele>341.92016602</ele>
        <time>2022-10-30T08:38:34Z</time>
      </trkpt>
      <trkpt lat="41.4163194" lon="2.0918129">
        <ele>341.59017944</ele>
        <time>2022-10-30T08:38:35Z</time>
      </trkpt>
      <trkpt lat="41.4162814" lon="2.0918538">
        <ele>341.25018311</ele>
        <time>2022-10-30T08:38:36Z</time>
      </trkpt>
      <trkpt lat="41.4162325" lon="2.0918927">
        <ele>340.77017212</ele>
        <time>2022-10-30T08:38:37Z</time>
      </trkpt>
      <trkpt lat="41.4161506" lon="2.0919507">
        <ele>340.32015991</ele>
        <time>2022-10-30T08:38:38Z</time>
      </trkpt>
      <trkpt lat="41.4160986" lon="2.0919837">
        <ele>339.95016479</ele>
        <time>2022-10-30T08:38:39Z</time>
      </trkpt>
      <trkpt lat="41.4160566" lon="2.0920246">
        <ele>339.49017334</ele>
        <time>2022-10-30T08:38:40Z</time>
      </trkpt>
      <trkpt lat="41.4160077" lon="2.0920696">
        <ele>339.08016968</ele>
        <time>2022-10-30T08:38:41Z</time>
      </trkpt>
      <trkpt lat="41.4159458" lon="2.0921295">
        <ele>338.69015503</ele>
        <time>2022-10-30T08:38:42Z</time>
      </trkpt>
      <trkpt lat="41.4159259" lon="2.0921845">
        <ele>338.26016235</ele>
        <time>2022-10-30T08:38:43Z</time>
      </trkpt>
      <trkpt lat="41.415916" lon="2.092185">
        <ele>338.54000854</ele>
        <time>2022-10-30T08:38:43Z</time>
      </trkpt>
      <trkpt lat="41.415894" lon="2.0922299">
        <ele>338.20001221</ele>
        <time>2022-10-30T08:38:44Z</time>
      </trkpt>
      <trkpt lat="41.415875" lon="2.0922889">
        <ele>337.87002563</ele>
        <time>2022-10-30T08:38:45Z</time>
      </trkpt>
      <trkpt lat="41.415856" lon="2.0923388">
        <ele>337.59002686</ele>
        <time>2022-10-30T08:38:46Z</time>
      </trkpt>
      <trkpt lat="41.4158231" lon="2.0923898">
        <ele>337.2800293</ele>
        <time>2022-10-30T08:38:47Z</time>
      </trkpt>
      <trkpt lat="41.4158071" lon="2.0924107">
        <ele>336.99002075</ele>
        <time>2022-10-30T08:38:48Z</time>
      </trkpt>
      <trkpt lat="41.4157931" lon="2.0924327">
        <ele>336.75003052</ele>
        <time>2022-10-30T08:38:49Z</time>
      </trkpt>
      <trkpt lat="41.4157782" lon="2.0924646">
        <ele>336.55001831</ele>
        <time>2022-10-30T08:38:50Z</time>
      </trkpt>
      <trkpt lat="41.4157602" lon="2.0924726">
        <ele>336.38000488</ele>
        <time>2022-10-30T08:38:51Z</time>
      </trkpt>
      <trkpt lat="41.4157322" lon="2.0924805">
        <ele>336.27999878</ele>
        <time>2022-10-30T08:38:52Z</time>
      </trkpt>
      <trkpt lat="41.4157123" lon="2.0925024">
        <ele>336.20001221</ele>
        <time>2022-10-30T08:38:53Z</time>
      </trkpt>
      <trkpt lat="41.4156864" lon="2.0925334">
        <ele>336.15002441</ele>
        <time>2022-10-30T08:38:54Z</time>
      </trkpt>
      <trkpt lat="41.4156534" lon="2.0925643">
        <ele>336.10003662</ele>
        <time>2022-10-30T08:38:55Z</time>
      </trkpt>
      <trkpt lat="41.4156365" lon="2.0925573">
        <ele>335.99005127</ele>
        <time>2022-10-30T08:38:56Z</time>
      </trkpt>
      <trkpt lat="41.4156255" lon="2.0925384">
        <ele>335.94006348</ele>
        <time>2022-10-30T08:38:57Z</time>
      </trkpt>
      <trkpt lat="41.4156196" lon="2.0925314">
        <ele>335.85006714</ele>
        <time>2022-10-30T08:38:58Z</time>
      </trkpt>
      <trkpt lat="41.4156017" lon="2.0925314">
        <ele>335.83007812</ele>
        <time>2022-10-30T08:38:59Z</time>
      </trkpt>
      <trkpt lat="41.4155867" lon="2.0925424">
        <ele>335.83007812</ele>
        <time>2022-10-30T08:39:00Z</time>
      </trkpt>
      <trkpt lat="41.4155858" lon="2.0925365">
        <ele>335.80007935</ele>
        <time>2022-10-30T08:39:01Z</time>
      </trkpt>
      <trkpt lat="41.4155878" lon="2.0925205">
        <ele>335.80007935</ele>
        <time>2022-10-30T08:39:02Z</time>
      </trkpt>
      <trkpt lat="41.4155868" lon="2.0925056">
        <ele>335.75009155</ele>
        <time>2022-10-30T08:39:03Z</time>
      </trkpt>
      <trkpt lat="41.4155788" lon="2.0924867">
        <ele>335.70010376</ele>
        <time>2022-10-30T08:39:04Z</time>
      </trkpt>
      <trkpt lat="41.4155798" lon="2.0924537">
        <ele>335.66009521</ele>
        <time>2022-10-30T08:39:05Z</time>
      </trkpt>
      <trkpt lat="41.4155818" lon="2.0924358">
        <ele>335.60009766</ele>
        <time>2022-10-30T08:39:06Z</time>
      </trkpt>
      <trkpt lat="41.4155887" lon="2.0924128">
        <ele>335.58010864</ele>
        <time>2022-10-30T08:39:07Z</time>
      </trkpt>
      <trkpt lat="41.4155887" lon="2.0923939">
        <ele>335.59011841</ele>
        <time>2022-10-30T08:39:08Z</time>
      </trkpt>
      <trkpt lat="41.4155916" lon="2.0923549">
        <ele>335.57012939</ele>
        <time>2022-10-30T08:39:09Z</time>
      </trkpt>
      <trkpt lat="41.4156005" lon="2.092334">
        <ele>335.62011719</ele>
        <time>2022-10-30T08:39:10Z</time>
      </trkpt>
      <trkpt lat="41.4156075" lon="2.092318">
        <ele>335.68011475</ele>
        <time>2022-10-30T08:39:11Z</time>
      </trkpt>
      <trkpt lat="41.4156174" lon="2.092305">
        <ele>335.76010132</ele>
        <time>2022-10-30T08:39:12Z</time>
      </trkpt>
      <trkpt lat="41.415641" lon="2.092343">
        <ele>335.92001343</ele>
        <time>2022-10-30T08:40:53Z</time>
      </trkpt>
      <trkpt lat="41.415641" lon="2.0923211">
        <ele>335.92001343</ele>
        <time>2022-10-30T08:40:54Z</time>
      </trkpt>
      <trkpt lat="41.4156479" lon="2.0923031">
        <ele>335.84002686</ele>
        <time>2022-10-30T08:40:55Z</time>
      </trkpt>
      <trkpt lat="41.4156519" lon="2.0922832">
        <ele>335.76004028</ele>
        <time>2022-10-30T08:40:56Z</time>
      </trkpt>
      <trkpt lat="41.4156439" lon="2.0922423">
        <ele>335.71005249</ele>
        <time>2022-10-30T08:40:57Z</time>
      </trkpt>
      <trkpt lat="41.4156439" lon="2.0922113">
        <ele>335.69006348</ele>
        <time>2022-10-30T08:40:58Z</time>
      </trkpt>
      <trkpt lat="41.4156468" lon="2.0921784">
        <ele>335.73007202</ele>
        <time>2022-10-30T08:40:59Z</time>
      </trkpt>
      <trkpt lat="41.4156488" lon="2.0921505">
        <ele>335.7600708</ele>
        <time>2022-10-30T08:41:00Z</time>
      </trkpt>
      <trkpt lat="41.4156547" lon="2.0921286">
        <ele>335.7600708</ele>
        <time>2022-10-30T08:41:01Z</time>
      </trkpt>
      <trkpt lat="41.4156627" lon="2.0921106">
        <ele>335.73007202</ele>
        <time>2022-10-30T08:41:02Z</time>
      </trkpt>
      <trkpt lat="41.4156646" lon="2.0920786">
        <ele>335.73007202</ele>
        <time>2022-10-30T08:41:03Z</time>
      </trkpt>
      <trkpt lat="41.4156726" lon="2.0920587">
        <ele>335.73007202</ele>
        <time>2022-10-30T08:41:04Z</time>
      </trkpt>
      <trkpt lat="41.4156826" lon="2.0920347">
        <ele>335.70007324</ele>
        <time>2022-10-30T08:41:05Z</time>
      </trkpt>
      <trkpt lat="41.4156966" lon="2.0920187">
        <ele>335.71008301</ele>
        <time>2022-10-30T08:41:06Z</time>
      </trkpt>
      <trkpt lat="41.4156966" lon="2.0919788">
        <ele>335.74008179</ele>
        <time>2022-10-30T08:41:07Z</time>
      </trkpt>
      <trkpt lat="41.4157025" lon="2.0919539">
        <ele>335.77008057</ele>
        <time>2022-10-30T08:41:08Z</time>
      </trkpt>
      <trkpt lat="41.4157054" lon="2.0919279">
        <ele>335.91009521</ele>
        <time>2022-10-30T08:41:09Z</time>
      </trkpt>
      <trkpt lat="41.4157083" lon="2.0918989">
        <ele>336.01010132</ele>
        <time>2022-10-30T08:41:10Z</time>
      </trkpt>
      <trkpt lat="41.4157103" lon="2.091859">
        <ele>336.05010986</ele>
        <time>2022-10-30T08:41:11Z</time>
      </trkpt>
      <trkpt lat="41.4157132" lon="2.091836">
        <ele>336.11010742</ele>
        <time>2022-10-30T08:41:12Z</time>
      </trkpt>
      <trkpt lat="41.4157152" lon="2.091815">
        <ele>336.13009644</ele>
        <time>2022-10-30T08:41:13Z</time>
      </trkpt>
      <trkpt lat="41.4157261" lon="2.0917921">
        <ele>336.16009521</ele>
        <time>2022-10-30T08:41:14Z</time>
      </trkpt>
      <trkpt lat="41.4157351" lon="2.0917581">
        <ele>336.16009521</ele>
        <time>2022-10-30T08:41:15Z</time>
      </trkpt>
      <trkpt lat="41.4157461" lon="2.0916992">
        <ele>336.17010498</ele>
        <time>2022-10-30T08:41:16Z</time>
      </trkpt>
      <trkpt lat="41.415756" lon="2.0916683">
        <ele>336.17010498</ele>
        <time>2022-10-30T08:41:17Z</time>
      </trkpt>
      <trkpt lat="41.4157649" lon="2.0916323">
        <ele>336.17010498</ele>
        <time>2022-10-30T08:41:18Z</time>
      </trkpt>
      <trkpt lat="41.4157719" lon="2.0915924">
        <ele>336.21011353</ele>
        <time>2022-10-30T08:41:19Z</time>
      </trkpt>
      <trkpt lat="41.4157918" lon="2.0915364">
        <ele>336.21011353</ele>
        <time>2022-10-30T08:41:20Z</time>
      </trkpt>
      <trkpt lat="41.4158087" lon="2.0915035">
        <ele>336.21011353</ele>
        <time>2022-10-30T08:41:21Z</time>
      </trkpt>
      <trkpt lat="41.4158337" lon="2.0914795">
        <ele>336.23010254</ele>
        <time>2022-10-30T08:41:22Z</time>
      </trkpt>
      <trkpt lat="41.4158426" lon="2.0914345">
        <ele>336.26010132</ele>
        <time>2022-10-30T08:41:23Z</time>
      </trkpt>
      <trkpt lat="41.4158465" lon="2.0913716">
        <ele>336.33010864</ele>
        <time>2022-10-30T08:41:24Z</time>
      </trkpt>
      <trkpt lat="41.4158465" lon="2.0913326">
        <ele>336.44009399</ele>
        <time>2022-10-30T08:41:25Z</time>
      </trkpt>
      <trkpt lat="41.4158406" lon="2.0912897">
        <ele>336.55007935</ele>
        <time>2022-10-30T08:41:26Z</time>
      </trkpt>
      <trkpt lat="41.4158307" lon="2.0912577">
        <ele>336.64007568</ele>
        <time>2022-10-30T08:41:27Z</time>
      </trkpt>
      <trkpt lat="41.4158207" lon="2.0912328">
        <ele>336.73007202</ele>
        <time>2022-10-30T08:41:28Z</time>
      </trkpt>
      <trkpt lat="41.4158038" lon="2.0912028">
        <ele>336.81005859</ele>
        <time>2022-10-30T08:41:29Z</time>
      </trkpt>
      <trkpt lat="41.4157999" lon="2.0911809">
        <ele>336.89004517</ele>
        <time>2022-10-30T08:41:30Z</time>
      </trkpt>
      <trkpt lat="41.4157879" lon="2.0911489">
        <ele>336.99005127</ele>
        <time>2022-10-30T08:41:31Z</time>
      </trkpt>
      <trkpt lat="41.415776" lon="2.091122">
        <ele>337.06005859</ele>
        <time>2022-10-30T08:41:32Z</time>
      </trkpt>
      <trkpt lat="41.415751" lon="2.091102">
        <ele>337.12005615</ele>
        <time>2022-10-30T08:41:33Z</time>
      </trkpt>
      <trkpt lat="41.4157011" lon="2.0910811">
        <ele>337.1600647</ele>
        <time>2022-10-30T08:41:34Z</time>
      </trkpt>
      <trkpt lat="41.4156761" lon="2.0910601">
        <ele>337.17007446</ele>
        <time>2022-10-30T08:41:35Z</time>
      </trkpt>
      <trkpt lat="41.4156491" lon="2.0910392">
        <ele>337.15008545</ele>
        <time>2022-10-30T08:41:36Z</time>
      </trkpt>
      <trkpt lat="41.4156211" lon="2.0910213">
        <ele>337.15008545</ele>
        <time>2022-10-30T08:41:37Z</time>
      </trkpt>
      <trkpt lat="41.4155771" lon="2.0910063">
        <ele>337.15008545</ele>
        <time>2022-10-30T08:41:38Z</time>
      </trkpt>
      <trkpt lat="41.4155552" lon="2.0909984">
        <ele>337.14007568</ele>
        <time>2022-10-30T08:41:39Z</time>
      </trkpt>
      <trkpt lat="41.4155402" lon="2.0909814">
        <ele>337.1600647</ele>
        <time>2022-10-30T08:41:40Z</time>
      </trkpt>
      <trkpt lat="41.4155203" lon="2.0909424">
        <ele>337.1600647</ele>
        <time>2022-10-30T08:41:41Z</time>
      </trkpt>
      <trkpt lat="41.4155013" lon="2.0908925">
        <ele>337.17007446</ele>
        <time>2022-10-30T08:41:42Z</time>
      </trkpt>
      <trkpt lat="41.4154894" lon="2.0908656">
        <ele>337.21008301</ele>
        <time>2022-10-30T08:41:43Z</time>
      </trkpt>
      <trkpt lat="41.4154665" lon="2.0908446">
        <ele>337.24008179</ele>
        <time>2022-10-30T08:41:44Z</time>
      </trkpt>
      <trkpt lat="41.4154466" lon="2.0908077">
        <ele>337.24008179</ele>
        <time>2022-10-30T08:41:45Z</time>
      </trkpt>
      <trkpt lat="41.4154287" lon="2.0907657">
        <ele>337.24008179</ele>
        <time>2022-10-30T08:41:46Z</time>
      </trkpt>
      <trkpt lat="41.4154127" lon="2.0907237">
        <ele>337.23007202</ele>
        <time>2022-10-30T08:41:47Z</time>
      </trkpt>
      <trkpt lat="41.4153978" lon="2.0906968">
        <ele>337.23007202</ele>
        <time>2022-10-30T08:41:48Z</time>
      </trkpt>
      <trkpt lat="41.4153748" lon="2.0906538">
        <ele>337.25006104</ele>
        <time>2022-10-30T08:41:49Z</time>
      </trkpt>
      <trkpt lat="41.4153539" lon="2.0906149">
        <ele>337.32006836</ele>
        <time>2022-10-30T08:41:50Z</time>
      </trkpt>
      <trkpt lat="41.415342" lon="2.090577">
        <ele>337.38006592</ele>
        <time>2022-10-30T08:41:51Z</time>
      </trkpt>
      <trkpt lat="41.415324" lon="2.090502">
        <ele>337.4100647</ele>
        <time>2022-10-30T08:41:52Z</time>
      </trkpt>
      <trkpt lat="41.415325" lon="2.0904531">
        <ele>337.4100647</ele>
        <time>2022-10-30T08:41:53Z</time>
      </trkpt>
      <trkpt lat="41.4153279" lon="2.0904111">
        <ele>337.37005615</ele>
        <time>2022-10-30T08:41:54Z</time>
      </trkpt>
      <trkpt lat="41.4153259" lon="2.0903691">
        <ele>337.34005737</ele>
        <time>2022-10-30T08:41:55Z</time>
      </trkpt>
      <trkpt lat="41.415325" lon="2.0903141">
        <ele>337.33004761</ele>
        <time>2022-10-30T08:41:56Z</time>
      </trkpt>
      <trkpt lat="41.415317" lon="2.0902672">
        <ele>337.34005737</ele>
        <time>2022-10-30T08:41:57Z</time>
      </trkpt>
      <trkpt lat="41.41531" lon="2.0902252">
        <ele>337.34005737</ele>
        <time>2022-10-30T08:41:58Z</time>
      </trkpt>
      <trkpt lat="41.4152911" lon="2.0901793">
        <ele>337.37005615</ele>
        <time>2022-10-30T08:41:59Z</time>
      </trkpt>
      <trkpt lat="41.4152631" lon="2.0901243">
        <ele>337.43005371</ele>
        <time>2022-10-30T08:42:00Z</time>
      </trkpt>
      <trkpt lat="41.4152481" lon="2.0901044">
        <ele>337.46005249</ele>
        <time>2022-10-30T08:42:01Z</time>
      </trkpt>
      <trkpt lat="41.4152291" lon="2.0900964">
        <ele>337.49005127</ele>
        <time>2022-10-30T08:42:02Z</time>
      </trkpt>
      <trkpt lat="41.4152012" lon="2.0900864">
        <ele>337.50006104</ele>
        <time>2022-10-30T08:42:03Z</time>
      </trkpt>
      <trkpt lat="41.4151822" lon="2.0900824">
        <ele>337.50006104</ele>
        <time>2022-10-30T08:42:04Z</time>
      </trkpt>
      <trkpt lat="41.4151453" lon="2.0900924">
        <ele>337.53005981</ele>
        <time>2022-10-30T08:42:05Z</time>
      </trkpt>
      <trkpt lat="41.4151093" lon="2.0900974">
        <ele>337.53005981</ele>
        <time>2022-10-30T08:42:06Z</time>
      </trkpt>
      <trkpt lat="41.4150804" lon="2.0900864">
        <ele>337.52005005</ele>
        <time>2022-10-30T08:42:07Z</time>
      </trkpt>
      <trkpt lat="41.4150404" lon="2.0901083">
        <ele>337.50006104</ele>
        <time>2022-10-30T08:42:08Z</time>
      </trkpt>
      <trkpt lat="41.4149785" lon="2.0901353">
        <ele>337.43005371</ele>
        <time>2022-10-30T08:42:09Z</time>
      </trkpt>
      <trkpt lat="41.4149255" lon="2.0901782">
        <ele>337.38006592</ele>
        <time>2022-10-30T08:42:10Z</time>
      </trkpt>
      <trkpt lat="41.4148836" lon="2.0902212">
        <ele>337.30007935</ele>
        <time>2022-10-30T08:42:11Z</time>
      </trkpt>
      <trkpt lat="41.4148706" lon="2.0902481">
        <ele>337.10006714</ele>
        <time>2022-10-30T08:42:12Z</time>
      </trkpt>
      <trkpt lat="41.4148356" lon="2.090314">
        <ele>336.90005493</ele>
        <time>2022-10-30T08:42:13Z</time>
      </trkpt>
      <trkpt lat="41.4148546" lon="2.09033">
        <ele>336.64004517</ele>
        <time>2022-10-30T08:42:14Z</time>
      </trkpt>
      <trkpt lat="41.4148317" lon="2.09043">
        <ele>336.41003418</ele>
        <time>2022-10-30T08:42:15Z</time>
      </trkpt>
      <trkpt lat="41.4148078" lon="2.0904859">
        <ele>336.2800293</ele>
        <time>2022-10-30T08:42:16Z</time>
      </trkpt>
      <trkpt lat="41.4147748" lon="2.0905778">
        <ele>336.17004395</ele>
        <time>2022-10-30T08:42:17Z</time>
      </trkpt>
      <trkpt lat="41.4147498" lon="2.0906388">
        <ele>336.11004639</ele>
        <time>2022-10-30T08:42:18Z</time>
      </trkpt>
      <trkpt lat="41.4147218" lon="2.0907158">
        <ele>336.03005981</ele>
        <time>2022-10-30T08:42:19Z</time>
      </trkpt>
      <trkpt lat="41.4147019" lon="2.0907678">
        <ele>335.9100647</ele>
        <time>2022-10-30T08:42:20Z</time>
      </trkpt>
      <trkpt lat="41.4146839" lon="2.0908097">
        <ele>335.84005737</ele>
        <time>2022-10-30T08:42:21Z</time>
      </trkpt>
      <trkpt lat="41.41465" lon="2.0908517">
        <ele>335.75006104</ele>
        <time>2022-10-30T08:42:22Z</time>
      </trkpt>
      <trkpt lat="41.4145931" lon="2.0908956">
        <ele>335.6600647</ele>
        <time>2022-10-30T08:42:23Z</time>
      </trkpt>
      <trkpt lat="41.4145601" lon="2.0909156">
        <ele>335.57006836</ele>
        <time>2022-10-30T08:42:24Z</time>
      </trkpt>
      <trkpt lat="41.4145262" lon="2.0909375">
        <ele>335.39007568</ele>
        <time>2022-10-30T08:42:25Z</time>
      </trkpt>
      <trkpt lat="41.4144893" lon="2.0909584">
        <ele>335.20007324</ele>
        <time>2022-10-30T08:42:26Z</time>
      </trkpt>
      <trkpt lat="41.4144294" lon="2.0909834">
        <ele>334.98007202</ele>
        <time>2022-10-30T08:42:27Z</time>
      </trkpt>
      <trkpt lat="41.4143925" lon="2.0909853">
        <ele>334.75006104</ele>
        <time>2022-10-30T08:42:28Z</time>
      </trkpt>
      <trkpt lat="41.4143575" lon="2.0909902">
        <ele>334.59005737</ele>
        <time>2022-10-30T08:42:29Z</time>
      </trkpt>
      <trkpt lat="41.4143276" lon="2.0910262">
        <ele>334.42004395</ele>
        <time>2022-10-30T08:42:30Z</time>
      </trkpt>
      <trkpt lat="41.4142946" lon="2.0910782">
        <ele>334.27005005</ele>
        <time>2022-10-30T08:42:31Z</time>
      </trkpt>
      <trkpt lat="41.4142526" lon="2.0911521">
        <ele>334.12005615</ele>
        <time>2022-10-30T08:42:32Z</time>
      </trkpt>
      <trkpt lat="41.4142246" lon="2.0911831">
        <ele>334.04006958</ele>
        <time>2022-10-30T08:42:33Z</time>
      </trkpt>
      <trkpt lat="41.4141856" lon="2.09123">
        <ele>333.95007324</ele>
        <time>2022-10-30T08:42:34Z</time>
      </trkpt>
      <trkpt lat="41.4141526" lon="2.0912799">
        <ele>333.79006958</ele>
        <time>2022-10-30T08:42:35Z</time>
      </trkpt>
      <trkpt lat="41.4140907" lon="2.0913458">
        <ele>333.57006836</ele>
        <time>2022-10-30T08:42:36Z</time>
      </trkpt>
      <trkpt lat="41.4140478" lon="2.0913718">
        <ele>333.32006836</ele>
        <time>2022-10-30T08:42:37Z</time>
      </trkpt>
      <trkpt lat="41.4140099" lon="2.0913848">
        <ele>333.14007568</ele>
        <time>2022-10-30T08:42:38Z</time>
      </trkpt>
      <trkpt lat="41.4139729" lon="2.0913997">
        <ele>333.03009033</ele>
        <time>2022-10-30T08:42:39Z</time>
      </trkpt>
      <trkpt lat="41.413927" lon="2.0914237">
        <ele>332.89007568</ele>
        <time>2022-10-30T08:42:40Z</time>
      </trkpt>
      <trkpt lat="41.4138451" lon="2.0914606">
        <ele>332.70007324</ele>
        <time>2022-10-30T08:42:41Z</time>
      </trkpt>
      <trkpt lat="41.4137992" lon="2.0914896">
        <ele>332.46008301</ele>
        <time>2022-10-30T08:42:42Z</time>
      </trkpt>
      <trkpt lat="41.4137662" lon="2.0915416">
        <ele>332.20007324</ele>
        <time>2022-10-30T08:42:43Z</time>
      </trkpt>
      <trkpt lat="41.4137493" lon="2.0915705">
        <ele>332.08007812</ele>
        <time>2022-10-30T08:42:44Z</time>
      </trkpt>
      <trkpt lat="41.4137184" lon="2.0916135">
        <ele>331.97009277</ele>
        <time>2022-10-30T08:42:45Z</time>
      </trkpt>
      <trkpt lat="41.4136845" lon="2.0917025">
        <ele>331.85009766</ele>
        <time>2022-10-30T08:42:46Z</time>
      </trkpt>
      <trkpt lat="41.4136586" lon="2.0917345">
        <ele>331.76010132</ele>
        <time>2022-10-30T08:42:47Z</time>
      </trkpt>
      <trkpt lat="41.4136266" lon="2.0917695">
        <ele>331.63009644</ele>
        <time>2022-10-30T08:42:48Z</time>
      </trkpt>
      <trkpt lat="41.4135617" lon="2.0918365">
        <ele>331.53009033</ele>
        <time>2022-10-30T08:42:49Z</time>
      </trkpt>
      <trkpt lat="41.4134988" lon="2.0919005">
        <ele>331.45010376</ele>
        <time>2022-10-30T08:42:50Z</time>
      </trkpt>
      <trkpt lat="41.4134378" lon="2.0919694">
        <ele>331.30010986</ele>
        <time>2022-10-30T08:42:51Z</time>
      </trkpt>
      <trkpt lat="41.4133928" lon="2.0920293">
        <ele>331.1401062</ele>
        <time>2022-10-30T08:42:52Z</time>
      </trkpt>
      <trkpt lat="41.4133639" lon="2.0920933">
        <ele>330.9901123</ele>
        <time>2022-10-30T08:42:53Z</time>
      </trkpt>
      <trkpt lat="41.4133529" lon="2.0921782">
        <ele>330.81011963</ele>
        <time>2022-10-30T08:42:54Z</time>
      </trkpt>
      <trkpt lat="41.413344" lon="2.0922232">
        <ele>330.63012695</ele>
        <time>2022-10-30T08:42:55Z</time>
      </trkpt>
      <trkpt lat="41.413332" lon="2.0922902">
        <ele>330.51013184</ele>
        <time>2022-10-30T08:42:56Z</time>
      </trkpt>
      <trkpt lat="41.4133091" lon="2.0923501">
        <ele>330.37011719</ele>
        <time>2022-10-30T08:42:57Z</time>
      </trkpt>
      <trkpt lat="41.4132871" lon="2.0923951">
        <ele>330.2401123</ele>
        <time>2022-10-30T08:42:58Z</time>
      </trkpt>
      <trkpt lat="41.4132432" lon="2.092449">
        <ele>330.08010864</ele>
        <time>2022-10-30T08:42:59Z</time>
      </trkpt>
      <trkpt lat="41.4132152" lon="2.0924949">
        <ele>329.81011963</ele>
        <time>2022-10-30T08:43:00Z</time>
      </trkpt>
      <trkpt lat="41.4131972" lon="2.0925429">
        <ele>329.46011353</ele>
        <time>2022-10-30T08:43:01Z</time>
      </trkpt>
      <trkpt lat="41.4131913" lon="2.0925949">
        <ele>329.21011353</ele>
        <time>2022-10-30T08:43:02Z</time>
      </trkpt>
      <trkpt lat="41.4131794" lon="2.0926468">
        <ele>329.01010132</ele>
        <time>2022-10-30T08:43:03Z</time>
      </trkpt>
      <trkpt lat="41.4131494" lon="2.0927178">
        <ele>328.93011475</ele>
        <time>2022-10-30T08:43:04Z</time>
      </trkpt>
      <trkpt lat="41.4131315" lon="2.0927598">
        <ele>328.88012695</ele>
        <time>2022-10-30T08:43:05Z</time>
      </trkpt>
      <trkpt lat="41.4131075" lon="2.0928097">
        <ele>328.82012939</ele>
        <time>2022-10-30T08:43:06Z</time>
      </trkpt>
      <trkpt lat="41.4130776" lon="2.0928687">
        <ele>328.9201355</ele>
        <time>2022-10-30T08:43:07Z</time>
      </trkpt>
      <trkpt lat="41.4130726" lon="2.0928876">
        <ele>329.11013794</ele>
        <time>2022-10-30T08:43:08Z</time>
      </trkpt>
      <trkpt lat="41.4130776" lon="2.0928905">
        <ele>329.51013184</ele>
        <time>2022-10-30T08:43:09Z</time>
      </trkpt>
      <trkpt lat="41.4130815" lon="2.0928905">
        <ele>329.96014404</ele>
        <time>2022-10-30T08:43:10Z</time>
      </trkpt>
      <trkpt lat="41.4130835" lon="2.0928944">
        <ele>330.39013672</ele>
        <time>2022-10-30T08:43:11Z</time>
      </trkpt>
      <trkpt lat="41.4130826" lon="2.0929144">
        <ele>330.82012939</ele>
        <time>2022-10-30T08:43:12Z</time>
      </trkpt>
      <trkpt lat="41.4130716" lon="2.0929494">
        <ele>331.19012451</ele>
        <time>2022-10-30T08:43:13Z</time>
      </trkpt>
      <trkpt lat="41.4130805" lon="2.0929794">
        <ele>331.56011963</ele>
        <time>2022-10-30T08:43:14Z</time>
      </trkpt>
      <trkpt lat="41.4130725" lon="2.0930084">
        <ele>331.8901062</ele>
        <time>2022-10-30T08:43:15Z</time>
      </trkpt>
      <trkpt lat="41.4130516" lon="2.0930503">
        <ele>332.22009277</ele>
        <time>2022-10-30T08:43:16Z</time>
      </trkpt>
      <trkpt lat="41.4130186" lon="2.0931123">
        <ele>332.56008911</ele>
        <time>2022-10-30T08:43:17Z</time>
      </trkpt>
      <trkpt lat="41.4129877" lon="2.0931422">
        <ele>332.88009644</ele>
        <time>2022-10-30T08:43:18Z</time>
      </trkpt>
      <trkpt lat="41.4129916" lon="2.0931243">
        <ele>333.20010376</ele>
        <time>2022-10-30T08:43:19Z</time>
      </trkpt>
      <trkpt lat="41.4129747" lon="2.0931633">
        <ele>333.46011353</ele>
        <time>2022-10-30T08:43:20Z</time>
      </trkpt>
      <trkpt lat="41.4129568" lon="2.0931752">
        <ele>333.69012451</ele>
        <time>2022-10-30T08:43:21Z</time>
      </trkpt>
      <trkpt lat="41.4129378" lon="2.0931822">
        <ele>333.94012451</ele>
        <time>2022-10-30T08:43:22Z</time>
      </trkpt>
      <trkpt lat="41.4129149" lon="2.0931971">
        <ele>334.15011597</ele>
        <time>2022-10-30T08:43:23Z</time>
      </trkpt>
      <trkpt lat="41.4128759" lon="2.0932081">
        <ele>334.3901062</ele>
        <time>2022-10-30T08:43:24Z</time>
      </trkpt>
      <trkpt lat="41.412844" lon="2.093227">
        <ele>334.62011719</ele>
        <time>2022-10-30T08:43:25Z</time>
      </trkpt>
      <trkpt lat="41.412821" lon="2.0932439">
        <ele>334.84011841</ele>
        <time>2022-10-30T08:43:26Z</time>
      </trkpt>
      <trkpt lat="41.4128011" lon="2.0932669">
        <ele>335.10012817</ele>
        <time>2022-10-30T08:43:27Z</time>
      </trkpt>
      <trkpt lat="41.4127852" lon="2.0932969">
        <ele>335.34011841</ele>
        <time>2022-10-30T08:43:28Z</time>
      </trkpt>
      <trkpt lat="41.4127602" lon="2.0933218">
        <ele>335.54013062</ele>
        <time>2022-10-30T08:43:29Z</time>
      </trkpt>
      <trkpt lat="41.4127332" lon="2.0933457">
        <ele>335.71014404</ele>
        <time>2022-10-30T08:43:30Z</time>
      </trkpt>
      <trkpt lat="41.4127153" lon="2.0933667">
        <ele>335.84014893</ele>
        <time>2022-10-30T08:43:31Z</time>
      </trkpt>
      <trkpt lat="41.4126984" lon="2.0933696">
        <ele>335.99014282</ele>
        <time>2022-10-30T08:43:32Z</time>
      </trkpt>
      <trkpt lat="41.4126844" lon="2.0933845">
        <ele>336.19015503</ele>
        <time>2022-10-30T08:43:33Z</time>
      </trkpt>
      <trkpt lat="41.4126834" lon="2.0933715">
        <ele>336.39016724</ele>
        <time>2022-10-30T08:43:34Z</time>
      </trkpt>
      <trkpt lat="41.4126635" lon="2.0933575">
        <ele>336.60015869</ele>
        <time>2022-10-30T08:43:35Z</time>
      </trkpt>
      <trkpt lat="41.4126376" lon="2.0933526">
        <ele>336.77017212</ele>
        <time>2022-10-30T08:43:36Z</time>
      </trkpt>
      <trkpt lat="41.4126137" lon="2.0933416">
        <ele>336.91018677</ele>
        <time>2022-10-30T08:43:37Z</time>
      </trkpt>
      <trkpt lat="41.4126047" lon="2.0933096">
        <ele>337.10018921</ele>
        <time>2022-10-30T08:43:38Z</time>
      </trkpt>
      <trkpt lat="41.4125958" lon="2.0932947">
        <ele>337.32019043</ele>
        <time>2022-10-30T08:43:39Z</time>
      </trkpt>
      <trkpt lat="41.4125869" lon="2.0932898">
        <ele>337.57019043</ele>
        <time>2022-10-30T08:43:40Z</time>
      </trkpt>
      <trkpt lat="41.4125878" lon="2.0932758">
        <ele>337.84017944</ele>
        <time>2022-10-30T08:43:41Z</time>
      </trkpt>
      <trkpt lat="41.4125888" lon="2.0932579">
        <ele>338.10018921</ele>
        <time>2022-10-30T08:43:42Z</time>
      </trkpt>
      <trkpt lat="41.4125897" lon="2.093227">
        <ele>338.36019897</ele>
        <time>2022-10-30T08:43:43Z</time>
      </trkpt>
      <trkpt lat="41.4125868" lon="2.093182">
        <ele>338.59020996</ele>
        <time>2022-10-30T08:43:44Z</time>
      </trkpt>
      <trkpt lat="41.4125967" lon="2.0931571">
        <ele>338.88021851</ele>
        <time>2022-10-30T08:43:45Z</time>
      </trkpt>
      <trkpt lat="41.4125938" lon="2.0931181">
        <ele>339.1802063</ele>
        <time>2022-10-30T08:43:46Z</time>
      </trkpt>
      <trkpt lat="41.4126028" lon="2.0930881">
        <ele>339.50021362</ele>
        <time>2022-10-30T08:43:47Z</time>
      </trkpt>
      <trkpt lat="41.4126018" lon="2.0930412">
        <ele>339.87020874</ele>
        <time>2022-10-30T08:43:48Z</time>
      </trkpt>
      <trkpt lat="41.4126077" lon="2.0930273">
        <ele>340.20019531</ele>
        <time>2022-10-30T08:43:49Z</time>
      </trkpt>
      <trkpt lat="41.4125988" lon="2.0930244">
        <ele>340.50018311</ele>
        <time>2022-10-30T08:43:50Z</time>
      </trkpt>
      <trkpt lat="41.4125938" lon="2.0930144">
        <ele>340.84017944</ele>
        <time>2022-10-30T08:43:51Z</time>
      </trkpt>
      <trkpt lat="41.4125869" lon="2.0930014">
        <ele>341.19018555</ele>
        <time>2022-10-30T08:43:52Z</time>
      </trkpt>
      <trkpt lat="41.4125759" lon="2.0929895">
        <ele>341.5501709</ele>
        <time>2022-10-30T08:43:53Z</time>
      </trkpt>
      <trkpt lat="41.4125878" lon="2.0929745">
        <ele>341.91015625</ele>
        <time>2022-10-30T08:43:54Z</time>
      </trkpt>
      <trkpt lat="41.4125888" lon="2.0929425">
        <ele>342.29016113</ele>
        <time>2022-10-30T08:43:55Z</time>
      </trkpt>
      <trkpt lat="41.4125829" lon="2.0929096">
        <ele>342.67016602</ele>
        <time>2022-10-30T08:43:56Z</time>
      </trkpt>
      <trkpt lat="41.4125829" lon="2.0928776">
        <ele>343.12017822</ele>
        <time>2022-10-30T08:43:57Z</time>
      </trkpt>
      <trkpt lat="41.4126058" lon="2.0928546">
        <ele>343.59017944</ele>
        <time>2022-10-30T08:43:58Z</time>
      </trkpt>
      <trkpt lat="41.4126207" lon="2.0928605">
        <ele>344.03018188</ele>
        <time>2022-10-30T08:43:59Z</time>
      </trkpt>
      <trkpt lat="41.4126386" lon="2.0928624">
        <ele>344.47018433</ele>
        <time>2022-10-30T08:44:00Z</time>
      </trkpt>
      <trkpt lat="41.4126446" lon="2.0928585">
        <ele>344.87017822</ele>
        <time>2022-10-30T08:44:01Z</time>
      </trkpt>
      <trkpt lat="41.4126605" lon="2.0928435">
        <ele>345.37017822</ele>
        <time>2022-10-30T08:44:02Z</time>
      </trkpt>
      <trkpt lat="41.4126645" lon="2.0928346">
        <ele>345.87017822</ele>
        <time>2022-10-30T08:44:03Z</time>
      </trkpt>
      <trkpt lat="41.4126616" lon="2.0928147">
        <ele>346.37017822</ele>
        <time>2022-10-30T08:44:04Z</time>
      </trkpt>
      <trkpt lat="41.4126587" lon="2.0927787">
        <ele>346.88018799</ele>
        <time>2022-10-30T08:44:05Z</time>
      </trkpt>
      <trkpt lat="41.4126806" lon="2.0927348">
        <ele>347.30020142</ele>
        <time>2022-10-30T08:44:06Z</time>
      </trkpt>
      <trkpt lat="41.4127026" lon="2.0927308">
        <ele>347.71020508</ele>
        <time>2022-10-30T08:44:07Z</time>
      </trkpt>
      <trkpt lat="41.4127156" lon="2.0926909">
        <ele>348.09020996</ele>
        <time>2022-10-30T08:44:08Z</time>
      </trkpt>
      <trkpt lat="41.4127146" lon="2.0926589">
        <ele>348.42019653</ele>
        <time>2022-10-30T08:44:09Z</time>
      </trkpt>
      <trkpt lat="41.4127166" lon="2.0926319">
        <ele>348.79019165</ele>
        <time>2022-10-30T08:44:10Z</time>
      </trkpt>
      <trkpt lat="41.4127326" lon="2.092613">
        <ele>349.14019775</ele>
        <time>2022-10-30T08:44:11Z</time>
      </trkpt>
      <trkpt lat="41.4127415" lon="2.0925951">
        <ele>349.51019287</ele>
        <time>2022-10-30T08:44:12Z</time>
      </trkpt>
      <trkpt lat="41.4127555" lon="2.0925751">
        <ele>349.94018555</ele>
        <time>2022-10-30T08:44:13Z</time>
      </trkpt>
      <trkpt lat="41.4127575" lon="2.0925491">
        <ele>350.34017944</ele>
        <time>2022-10-30T08:44:14Z</time>
      </trkpt>
      <trkpt lat="41.4127655" lon="2.0924932">
        <ele>350.79019165</ele>
        <time>2022-10-30T08:44:15Z</time>
      </trkpt>
      <trkpt lat="41.4127694" lon="2.0924542">
        <ele>351.23019409</ele>
        <time>2022-10-30T08:44:16Z</time>
      </trkpt>
      <trkpt lat="41.4127744" lon="2.0924122">
        <ele>351.60018921</ele>
        <time>2022-10-30T08:44:17Z</time>
      </trkpt>
      <trkpt lat="41.4127794" lon="2.0923763">
        <ele>351.98019409</ele>
        <time>2022-10-30T08:44:18Z</time>
      </trkpt>
      <trkpt lat="41.412775" lon="2.092375">
        <ele>352.16000366</ele>
        <time>2022-10-30T08:44:18Z</time>
      </trkpt>
      <trkpt lat="41.412771" lon="2.092339">
        <ele>352.5</ele>
        <time>2022-10-30T08:44:19Z</time>
      </trkpt>
      <trkpt lat="41.4127719" lon="2.0922921">
        <ele>352.85998535</ele>
        <time>2022-10-30T08:44:20Z</time>
      </trkpt>
      <trkpt lat="41.412769" lon="2.0922661">
        <ele>353.22998047</ele>
        <time>2022-10-30T08:44:21Z</time>
      </trkpt>
      <trkpt lat="41.412769" lon="2.0922352">
        <ele>353.66998291</ele>
        <time>2022-10-30T08:44:22Z</time>
      </trkpt>
      <trkpt lat="41.412777" lon="2.0922082">
        <ele>354.10998535</ele>
        <time>2022-10-30T08:44:23Z</time>
      </trkpt>
      <trkpt lat="41.4127859" lon="2.0921773">
        <ele>354.54998779</ele>
        <time>2022-10-30T08:44:24Z</time>
      </trkpt>
      <trkpt lat="41.4127888" lon="2.0921673">
        <ele>355.00997925</ele>
        <time>2022-10-30T08:44:25Z</time>
      </trkpt>
      <trkpt lat="41.4128038" lon="2.0921634">
        <ele>355.44998169</ele>
        <time>2022-10-30T08:44:26Z</time>
      </trkpt>
      <trkpt lat="41.4128107" lon="2.0921444">
        <ele>355.75997925</ele>
        <time>2022-10-30T08:44:27Z</time>
      </trkpt>
      <trkpt lat="41.4128058" lon="2.0921085">
        <ele>356.00997925</ele>
        <time>2022-10-30T08:44:28Z</time>
      </trkpt>
      <trkpt lat="41.4127998" lon="2.0920535">
        <ele>356.22998047</ele>
        <time>2022-10-30T08:44:29Z</time>
      </trkpt>
      <trkpt lat="41.4128027" lon="2.0920396">
        <ele>356.36999512</ele>
        <time>2022-10-30T08:44:30Z</time>
      </trkpt>
      <trkpt lat="41.4128067" lon="2.0920166">
        <ele>356.51998901</ele>
        <time>2022-10-30T08:44:31Z</time>
      </trkpt>
      <trkpt lat="41.4128156" lon="2.0919956">
        <ele>356.63998413</ele>
        <time>2022-10-30T08:44:32Z</time>
      </trkpt>
      <trkpt lat="41.4128147" lon="2.0919636">
        <ele>356.73999023</ele>
        <time>2022-10-30T08:44:33Z</time>
      </trkpt>
      <trkpt lat="41.4128246" lon="2.0919437">
        <ele>356.88998413</ele>
        <time>2022-10-30T08:44:34Z</time>
      </trkpt>
      <trkpt lat="41.4128296" lon="2.0919378">
        <ele>357.04998779</ele>
        <time>2022-10-30T08:44:35Z</time>
      </trkpt>
      <trkpt lat="41.4128376" lon="2.0919208">
        <ele>357.22000122</ele>
        <time>2022-10-30T08:44:36Z</time>
      </trkpt>
      <trkpt lat="41.4128356" lon="2.0918989">
        <ele>357.39001465</ele>
        <time>2022-10-30T08:44:37Z</time>
      </trkpt>
      <trkpt lat="41.4128406" lon="2.0918699">
        <ele>357.54000854</ele>
        <time>2022-10-30T08:44:38Z</time>
      </trkpt>
      <trkpt lat="41.4128456" lon="2.0918399">
        <ele>357.63000488</ele>
        <time>2022-10-30T08:44:39Z</time>
      </trkpt>
      <trkpt lat="41.4128427" lon="2.091797">
        <ele>357.70999146</ele>
        <time>2022-10-30T08:44:40Z</time>
      </trkpt>
      <trkpt lat="41.4128586" lon="2.0917721">
        <ele>357.82998657</ele>
        <time>2022-10-30T08:44:41Z</time>
      </trkpt>
      <trkpt lat="41.4129216" lon="2.091774">
        <ele>357.92999268</ele>
        <time>2022-10-30T08:44:42Z</time>
      </trkpt>
      <trkpt lat="41.4129455" lon="2.091776">
        <ele>358.00997925</ele>
        <time>2022-10-30T08:44:43Z</time>
      </trkpt>
      <trkpt lat="41.4129635" lon="2.091755">
        <ele>358.05996704</ele>
        <time>2022-10-30T08:44:44Z</time>
      </trkpt>
      <trkpt lat="41.4129724" lon="2.0917361">
        <ele>358.06997681</ele>
        <time>2022-10-30T08:44:45Z</time>
      </trkpt>
      <trkpt lat="41.4129644" lon="2.0917182">
        <ele>358.09997559</ele>
        <time>2022-10-30T08:44:46Z</time>
      </trkpt>
      <trkpt lat="41.4129733" lon="2.0917003">
        <ele>358.17996216</ele>
        <time>2022-10-30T08:44:47Z</time>
      </trkpt>
      <trkpt lat="41.4129762" lon="2.0916983">
        <ele>358.23995972</ele>
        <time>2022-10-30T08:44:48Z</time>
      </trkpt>
      <trkpt lat="41.4129723" lon="2.0917023">
        <ele>358.28994751</ele>
        <time>2022-10-30T08:44:49Z</time>
      </trkpt>
      <trkpt lat="41.4129583" lon="2.0916783">
        <ele>358.30993652</ele>
        <time>2022-10-30T08:44:50Z</time>
      </trkpt>
      <trkpt lat="41.4129592" lon="2.0916314">
        <ele>358.29992676</ele>
        <time>2022-10-30T08:44:51Z</time>
      </trkpt>
      <trkpt lat="41.4129662" lon="2.0916154">
        <ele>358.24993896</ele>
        <time>2022-10-30T08:44:52Z</time>
      </trkpt>
      <trkpt lat="41.4129712" lon="2.0915915">
        <ele>358.22994995</ele>
        <time>2022-10-30T08:44:53Z</time>
      </trkpt>
      <trkpt lat="41.4129721" lon="2.0915525">
        <ele>358.13995361</ele>
        <time>2022-10-30T08:44:54Z</time>
      </trkpt>
      <trkpt lat="41.4129692" lon="2.0914945">
        <ele>358.0199585</ele>
        <time>2022-10-30T08:44:55Z</time>
      </trkpt>
      <trkpt lat="41.4129861" lon="2.0914426">
        <ele>357.93997192</ele>
        <time>2022-10-30T08:44:56Z</time>
      </trkpt>
      <trkpt lat="41.4129941" lon="2.0914307">
        <ele>357.82998657</ele>
        <time>2022-10-30T08:44:57Z</time>
      </trkpt>
      <trkpt lat="41.412995" lon="2.0914197">
        <ele>357.82998657</ele>
        <time>2022-10-30T08:44:58Z</time>
      </trkpt>
      <trkpt lat="41.413002" lon="2.0914226">
        <ele>357.88998413</ele>
        <time>2022-10-30T08:44:59Z</time>
      </trkpt>
      <trkpt lat="41.4130179" lon="2.0913817">
        <ele>357.92999268</ele>
        <time>2022-10-30T08:45:00Z</time>
      </trkpt>
      <trkpt lat="41.4130329" lon="2.0913248">
        <ele>357.88000488</ele>
        <time>2022-10-30T08:45:01Z</time>
      </trkpt>
      <trkpt lat="41.4130348" lon="2.0912779">
        <ele>357.82000732</ele>
        <time>2022-10-30T08:45:02Z</time>
      </trkpt>
      <trkpt lat="41.4130468" lon="2.0912269">
        <ele>357.55999756</ele>
        <time>2022-10-30T08:45:03Z</time>
      </trkpt>
      <trkpt lat="41.4130667" lon="2.0912189">
        <ele>357.29000854</ele>
        <time>2022-10-30T08:45:04Z</time>
      </trkpt>
      <trkpt lat="41.4130976" lon="2.0911679">
        <ele>357.1000061</ele>
        <time>2022-10-30T08:45:05Z</time>
      </trkpt>
      <trkpt lat="41.4131355" lon="2.09113">
        <ele>356.86001587</ele>
        <time>2022-10-30T08:45:06Z</time>
      </trkpt>
      <trkpt lat="41.4131754" lon="2.0910991">
        <ele>356.80001831</ele>
        <time>2022-10-30T08:45:07Z</time>
      </trkpt>
      <trkpt lat="41.4132194" lon="2.0910532">
        <ele>356.80001831</ele>
        <time>2022-10-30T08:45:08Z</time>
      </trkpt>
      <trkpt lat="41.4132784" lon="2.0909652">
        <ele>356.8500061</ele>
        <time>2022-10-30T08:45:09Z</time>
      </trkpt>
      <trkpt lat="41.4133034" lon="2.0909103">
        <ele>356.95999146</ele>
        <time>2022-10-30T08:45:10Z</time>
      </trkpt>
      <trkpt lat="41.4133233" lon="2.0908593">
        <ele>357.06997681</ele>
        <time>2022-10-30T08:45:11Z</time>
      </trkpt>
      <trkpt lat="41.4133402" lon="2.0908173">
        <ele>357.19998169</ele>
        <time>2022-10-30T08:45:12Z</time>
      </trkpt>
      <trkpt lat="41.4133741" lon="2.0907653">
        <ele>357.29998779</ele>
        <time>2022-10-30T08:45:13Z</time>
      </trkpt>
      <trkpt lat="41.413403" lon="2.0907324">
        <ele>357.42999268</ele>
        <time>2022-10-30T08:45:14Z</time>
      </trkpt>
      <trkpt lat="41.413445" lon="2.0906904">
        <ele>357.51998901</ele>
        <time>2022-10-30T08:45:15Z</time>
      </trkpt>
      <trkpt lat="41.413484" lon="2.0906484">
        <ele>357.6499939</ele>
        <time>2022-10-30T08:45:16Z</time>
      </trkpt>
      <trkpt lat="41.4135179" lon="2.0906085">
        <ele>357.86999512</ele>
        <time>2022-10-30T08:45:17Z</time>
      </trkpt>
      <trkpt lat="41.4135399" lon="2.0905835">
        <ele>358.08999634</ele>
        <time>2022-10-30T08:45:18Z</time>
      </trkpt>
      <trkpt lat="41.4135548" lon="2.0905476">
        <ele>358.41000366</ele>
        <time>2022-10-30T08:45:19Z</time>
      </trkpt>
      <trkpt lat="41.4135668" lon="2.0905316">
        <ele>358.82000732</ele>
        <time>2022-10-30T08:45:20Z</time>
      </trkpt>
      <trkpt lat="41.4135757" lon="2.0905037">
        <ele>359.17999268</ele>
        <time>2022-10-30T08:45:21Z</time>
      </trkpt>
      <trkpt lat="41.4135977" lon="2.0904747">
        <ele>359.60998535</ele>
        <time>2022-10-30T08:45:22Z</time>
      </trkpt>
      <trkpt lat="41.4136257" lon="2.0904447">
        <ele>360.06997681</ele>
        <time>2022-10-30T08:45:23Z</time>
      </trkpt>
      <trkpt lat="41.4136486" lon="2.0904258">
        <ele>360.48999023</ele>
        <time>2022-10-30T08:45:24Z</time>
      </trkpt>
      <trkpt lat="41.4136695" lon="2.0903979">
        <ele>360.88000488</ele>
        <time>2022-10-30T08:45:25Z</time>
      </trkpt>
      <trkpt lat="41.4136915" lon="2.090367">
        <ele>361.20001221</ele>
        <time>2022-10-30T08:45:26Z</time>
      </trkpt>
      <trkpt lat="41.4137125" lon="2.090312">
        <ele>361.5</ele>
        <time>2022-10-30T08:45:27Z</time>
      </trkpt>
      <trkpt lat="41.4137194" lon="2.090279">
        <ele>361.76998901</ele>
        <time>2022-10-30T08:45:28Z</time>
      </trkpt>
      <trkpt lat="41.4137294" lon="2.0902481">
        <ele>362.11999512</ele>
        <time>2022-10-30T08:45:29Z</time>
      </trkpt>
      <trkpt lat="41.4137343" lon="2.0902202">
        <ele>362.47998047</ele>
        <time>2022-10-30T08:45:30Z</time>
      </trkpt>
      <trkpt lat="41.4137383" lon="2.0901912">
        <ele>362.79998779</ele>
        <time>2022-10-30T08:45:31Z</time>
      </trkpt>
      <trkpt lat="41.4137603" lon="2.0901633">
        <ele>363.07998657</ele>
        <time>2022-10-30T08:45:32Z</time>
      </trkpt>
      <trkpt lat="41.4137672" lon="2.0901394">
        <ele>363.32998657</ele>
        <time>2022-10-30T08:45:33Z</time>
      </trkpt>
      <trkpt lat="41.4137652" lon="2.0901174">
        <ele>363.59997559</ele>
        <time>2022-10-30T08:45:34Z</time>
      </trkpt>
      <trkpt lat="41.4137692" lon="2.0900885">
        <ele>363.87997437</ele>
        <time>2022-10-30T08:45:35Z</time>
      </trkpt>
      <trkpt lat="41.4137802" lon="2.0900585">
        <ele>364.17996216</ele>
        <time>2022-10-30T08:45:36Z</time>
      </trkpt>
      <trkpt lat="41.4137991" lon="2.0900346">
        <ele>364.52996826</ele>
        <time>2022-10-30T08:45:37Z</time>
      </trkpt>
      <trkpt lat="41.4138021" lon="2.0900056">
        <ele>364.90997314</ele>
        <time>2022-10-30T08:45:38Z</time>
      </trkpt>
      <trkpt lat="41.413811" lon="2.0899766">
        <ele>365.28997803</ele>
        <time>2022-10-30T08:45:39Z</time>
      </trkpt>
      <trkpt lat="41.4138159" lon="2.0899466">
        <ele>365.70999146</ele>
        <time>2022-10-30T08:45:40Z</time>
      </trkpt>
      <trkpt lat="41.4138269" lon="2.0899237">
        <ele>366.01998901</ele>
        <time>2022-10-30T08:45:41Z</time>
      </trkpt>
      <trkpt lat="41.4138379" lon="2.0899037">
        <ele>366.32998657</ele>
        <time>2022-10-30T08:45:42Z</time>
      </trkpt>
      <trkpt lat="41.4138459" lon="2.0898888">
        <ele>366.65997314</ele>
        <time>2022-10-30T08:45:43Z</time>
      </trkpt>
      <trkpt lat="41.4138559" lon="2.0898628">
        <ele>366.98995972</ele>
        <time>2022-10-30T08:45:44Z</time>
      </trkpt>
      <trkpt lat="41.4138628" lon="2.0898428">
        <ele>367.37997437</ele>
        <time>2022-10-30T08:45:45Z</time>
      </trkpt>
      <trkpt lat="41.4138768" lon="2.0898179">
        <ele>367.69998169</ele>
        <time>2022-10-30T08:45:46Z</time>
      </trkpt>
      <trkpt lat="41.4138898" lon="2.0898019">
        <ele>368.07998657</ele>
        <time>2022-10-30T08:45:47Z</time>
      </trkpt>
      <trkpt lat="41.4138957" lon="2.0897939">
        <ele>368.43997192</ele>
        <time>2022-10-30T08:45:48Z</time>
      </trkpt>
      <trkpt lat="41.4139067" lon="2.0897779">
        <ele>368.84997559</ele>
        <time>2022-10-30T08:45:49Z</time>
      </trkpt>
      <trkpt lat="41.4139136" lon="2.089759">
        <ele>369.28997803</ele>
        <time>2022-10-30T08:45:50Z</time>
      </trkpt>
      <trkpt lat="41.4139176" lon="2.0897401">
        <ele>369.65997314</ele>
        <time>2022-10-30T08:45:51Z</time>
      </trkpt>
      <trkpt lat="41.4139256" lon="2.0897232">
        <ele>370.09997559</ele>
        <time>2022-10-30T08:45:52Z</time>
      </trkpt>
      <trkpt lat="41.4139275" lon="2.0896942">
        <ele>370.51998901</ele>
        <time>2022-10-30T08:45:53Z</time>
      </trkpt>
      <trkpt lat="41.4139165" lon="2.0896742">
        <ele>371.04998779</ele>
        <time>2022-10-30T08:45:54Z</time>
      </trkpt>
      <trkpt lat="41.4138996" lon="2.0896473">
        <ele>371.54998779</ele>
        <time>2022-10-30T08:45:55Z</time>
      </trkpt>
      <trkpt lat="41.4138886" lon="2.0896284">
        <ele>372.09997559</ele>
        <time>2022-10-30T08:45:56Z</time>
      </trkpt>
      <trkpt lat="41.4138737" lon="2.0896134">
        <ele>372.67996216</ele>
        <time>2022-10-30T08:45:57Z</time>
      </trkpt>
      <trkpt lat="41.4138627" lon="2.0895935">
        <ele>373.2699585</ele>
        <time>2022-10-30T08:45:58Z</time>
      </trkpt>
      <trkpt lat="41.4138478" lon="2.0895595">
        <ele>373.88995361</ele>
        <time>2022-10-30T08:45:59Z</time>
      </trkpt>
      <trkpt lat="41.4138378" lon="2.0895416">
        <ele>374.37994385</ele>
        <time>2022-10-30T08:46:00Z</time>
      </trkpt>
      <trkpt lat="41.4138268" lon="2.0895286">
        <ele>374.80993652</ele>
        <time>2022-10-30T08:46:01Z</time>
      </trkpt>
      <trkpt lat="41.4138149" lon="2.0895077">
        <ele>375.17993164</ele>
        <time>2022-10-30T08:46:02Z</time>
      </trkpt>
      <trkpt lat="41.413798" lon="2.0894768">
        <ele>375.5899353</ele>
        <time>2022-10-30T08:46:03Z</time>
      </trkpt>
      <trkpt lat="41.4137941" lon="2.0894528">
        <ele>376.03994751</ele>
        <time>2022-10-30T08:46:04Z</time>
      </trkpt>
      <trkpt lat="41.4137921" lon="2.0894268">
        <ele>376.5199585</ele>
        <time>2022-10-30T08:46:05Z</time>
      </trkpt>
      <trkpt lat="41.4137901" lon="2.0894099">
        <ele>376.91995239</ele>
        <time>2022-10-30T08:46:06Z</time>
      </trkpt>
      <trkpt lat="41.4137872" lon="2.0893959">
        <ele>377.16995239</ele>
        <time>2022-10-30T08:46:07Z</time>
      </trkpt>
      <trkpt lat="41.4137822" lon="2.0893819">
        <ele>377.38995361</ele>
        <time>2022-10-30T08:46:08Z</time>
      </trkpt>
      <trkpt lat="41.413785" lon="2.089377">
        <ele>377.76998901</ele>
        <time>2022-10-30T08:46:08Z</time>
      </trkpt>
      <trkpt lat="41.4137461" lon="2.0893011">
        <ele>378.12997437</ele>
        <time>2022-10-30T08:46:30Z</time>
      </trkpt>
      <trkpt lat="41.413748" lon="2.0893111">
        <ele>378.08996582</ele>
        <time>2022-10-30T08:46:31Z</time>
      </trkpt>
      <trkpt lat="41.413758" lon="2.0893041">
        <ele>378.02996826</ele>
        <time>2022-10-30T08:46:32Z</time>
      </trkpt>
      <trkpt lat="41.4137749" lon="2.0892832">
        <ele>378.02996826</ele>
        <time>2022-10-30T08:46:33Z</time>
      </trkpt>
      <trkpt lat="41.4137978" lon="2.0892702">
        <ele>378.02996826</ele>
        <time>2022-10-30T08:46:34Z</time>
      </trkpt>
      <trkpt lat="41.4138278" lon="2.0892523">
        <ele>378.10995483</ele>
        <time>2022-10-30T08:46:35Z</time>
      </trkpt>
      <trkpt lat="41.4138418" lon="2.0892453">
        <ele>378.21994019</ele>
        <time>2022-10-30T08:46:36Z</time>
      </trkpt>
      <trkpt lat="41.4138517" lon="2.0892304">
        <ele>378.29992676</ele>
        <time>2022-10-30T08:46:37Z</time>
      </trkpt>
      <trkpt lat="41.4138606" lon="2.0892094">
        <ele>378.44992065</ele>
        <time>2022-10-30T08:46:38Z</time>
      </trkpt>
      <trkpt lat="41.4138666" lon="2.0891885">
        <ele>378.56991577</ele>
        <time>2022-10-30T08:46:39Z</time>
      </trkpt>
      <trkpt lat="41.4138845" lon="2.0891546">
        <ele>378.67990112</ele>
        <time>2022-10-30T08:46:40Z</time>
      </trkpt>
      <trkpt lat="41.4138975" lon="2.0891296">
        <ele>378.82989502</ele>
        <time>2022-10-30T08:46:41Z</time>
      </trkpt>
      <trkpt lat="41.4139154" lon="2.0890967">
        <ele>378.96990967</ele>
        <time>2022-10-30T08:46:42Z</time>
      </trkpt>
      <trkpt lat="41.4139333" lon="2.0890637">
        <ele>379.12991333</ele>
        <time>2022-10-30T08:46:43Z</time>
      </trkpt>
      <trkpt lat="41.4139543" lon="2.0890217">
        <ele>379.35992432</ele>
        <time>2022-10-30T08:46:44Z</time>
      </trkpt>
      <trkpt lat="41.4139672" lon="2.0889858">
        <ele>379.60992432</ele>
        <time>2022-10-30T08:46:45Z</time>
      </trkpt>
      <trkpt lat="41.4139822" lon="2.0889488">
        <ele>379.91992188</ele>
        <time>2022-10-30T08:46:46Z</time>
      </trkpt>
      <trkpt lat="41.4139932" lon="2.0889219">
        <ele>380.31991577</ele>
        <time>2022-10-30T08:46:47Z</time>
      </trkpt>
      <trkpt lat="41.4140101" lon="2.0889049">
        <ele>380.74990845</ele>
        <time>2022-10-30T08:46:48Z</time>
      </trkpt>
      <trkpt lat="41.414036" lon="2.088884">
        <ele>381.19992065</ele>
        <time>2022-10-30T08:46:49Z</time>
      </trkpt>
      <trkpt lat="41.4140419" lon="2.0888721">
        <ele>381.60992432</ele>
        <time>2022-10-30T08:46:50Z</time>
      </trkpt>
      <trkpt lat="41.4140499" lon="2.0888451">
        <ele>381.95993042</ele>
        <time>2022-10-30T08:46:51Z</time>
      </trkpt>
      <trkpt lat="41.4140538" lon="2.0888221">
        <ele>382.34994507</ele>
        <time>2022-10-30T08:46:52Z</time>
      </trkpt>
      <trkpt lat="41.4140737" lon="2.0887901">
        <ele>382.71994019</ele>
        <time>2022-10-30T08:46:53Z</time>
      </trkpt>
      <trkpt lat="41.4140906" lon="2.0887692">
        <ele>383.01992798</ele>
        <time>2022-10-30T08:46:54Z</time>
      </trkpt>
      <trkpt lat="41.4141076" lon="2.0887573">
        <ele>383.29992676</ele>
        <time>2022-10-30T08:46:55Z</time>
      </trkpt>
      <trkpt lat="41.4141225" lon="2.0887554">
        <ele>383.49993896</ele>
        <time>2022-10-30T08:46:56Z</time>
      </trkpt>
      <trkpt lat="41.4141464" lon="2.0887514">
        <ele>383.66995239</ele>
        <time>2022-10-30T08:46:57Z</time>
      </trkpt>
      <trkpt lat="41.4141784" lon="2.0887533">
        <ele>383.92996216</ele>
        <time>2022-10-30T08:46:58Z</time>
      </trkpt>
      <trkpt lat="41.4141963" lon="2.0887533">
        <ele>384.14996338</ele>
        <time>2022-10-30T08:46:59Z</time>
      </trkpt>
      <trkpt lat="41.4142082" lon="2.0887463">
        <ele>384.32995605</ele>
        <time>2022-10-30T08:47:00Z</time>
      </trkpt>
      <trkpt lat="41.4142182" lon="2.0887264">
        <ele>384.50994873</ele>
        <time>2022-10-30T08:47:01Z</time>
      </trkpt>
      <trkpt lat="41.4142301" lon="2.0887034">
        <ele>384.55993652</ele>
        <time>2022-10-30T08:47:02Z</time>
      </trkpt>
      <trkpt lat="41.414236" lon="2.0886885">
        <ele>384.6399231</ele>
        <time>2022-10-30T08:47:03Z</time>
      </trkpt>
      <trkpt lat="41.4142419" lon="2.0886795">
        <ele>384.71990967</ele>
        <time>2022-10-30T08:47:04Z</time>
      </trkpt>
      <trkpt lat="41.4142539" lon="2.0886635">
        <ele>384.77990723</ele>
        <time>2022-10-30T08:47:05Z</time>
      </trkpt>
      <trkpt lat="41.4142698" lon="2.0886556">
        <ele>384.88989258</ele>
        <time>2022-10-30T08:47:06Z</time>
      </trkpt>
      <trkpt lat="41.4142778" lon="2.0886456">
        <ele>384.9598999</ele>
        <time>2022-10-30T08:47:07Z</time>
      </trkpt>
      <trkpt lat="41.4142867" lon="2.0886377">
        <ele>384.9598999</ele>
        <time>2022-10-30T08:47:08Z</time>
      </trkpt>
      <trkpt lat="41.4142967" lon="2.0886318">
        <ele>384.89990234</ele>
        <time>2022-10-30T08:47:09Z</time>
      </trkpt>
      <trkpt lat="41.4143097" lon="2.0886268">
        <ele>384.80990601</ele>
        <time>2022-10-30T08:47:10Z</time>
      </trkpt>
      <trkpt lat="41.4143426" lon="2.0886228">
        <ele>384.66989136</ele>
        <time>2022-10-30T08:47:11Z</time>
      </trkpt>
      <trkpt lat="41.4143646" lon="2.0886328">
        <ele>384.5098877</ele>
        <time>2022-10-30T08:47:12Z</time>
      </trkpt>
      <trkpt lat="41.4143936" lon="2.0886528">
        <ele>384.26989746</ele>
        <time>2022-10-30T08:47:13Z</time>
      </trkpt>
      <trkpt lat="41.4144195" lon="2.0886668">
        <ele>383.92990112</ele>
        <time>2022-10-30T08:47:14Z</time>
      </trkpt>
      <trkpt lat="41.4144404" lon="2.0886807">
        <ele>383.5098877</ele>
        <time>2022-10-30T08:47:15Z</time>
      </trkpt>
      <trkpt lat="41.4144654" lon="2.0887037">
        <ele>383.08987427</ele>
        <time>2022-10-30T08:47:16Z</time>
      </trkpt>
      <trkpt lat="41.4144833" lon="2.0887107">
        <ele>382.78988647</ele>
        <time>2022-10-30T08:47:17Z</time>
      </trkpt>
      <trkpt lat="41.4145033" lon="2.0886977">
        <ele>382.64987183</ele>
        <time>2022-10-30T08:47:18Z</time>
      </trkpt>
      <trkpt lat="41.4145112" lon="2.0886717">
        <ele>382.63986206</ele>
        <time>2022-10-30T08:47:19Z</time>
      </trkpt>
      <trkpt lat="41.4145132" lon="2.0886287">
        <ele>382.66986084</ele>
        <time>2022-10-30T08:47:20Z</time>
      </trkpt>
      <trkpt lat="41.4145342" lon="2.0885937">
        <ele>382.7298584</ele>
        <time>2022-10-30T08:47:21Z</time>
      </trkpt>
      <trkpt lat="41.4145482" lon="2.0885718">
        <ele>382.81985474</ele>
        <time>2022-10-30T08:47:22Z</time>
      </trkpt>
      <trkpt lat="41.4145611" lon="2.0885558">
        <ele>382.86984253</ele>
        <time>2022-10-30T08:47:23Z</time>
      </trkpt>
      <trkpt lat="41.4145761" lon="2.0885459">
        <ele>382.96984863</ele>
        <time>2022-10-30T08:47:24Z</time>
      </trkpt>
      <trkpt lat="41.414588" lon="2.0885379">
        <ele>383.06985474</ele>
        <time>2022-10-30T08:47:25Z</time>
      </trkpt>
      <trkpt lat="41.4146039" lon="2.0885119">
        <ele>383.13986206</ele>
        <time>2022-10-30T08:47:26Z</time>
      </trkpt>
      <trkpt lat="41.4146189" lon="2.0884859">
        <ele>383.28985596</ele>
        <time>2022-10-30T08:47:27Z</time>
      </trkpt>
      <trkpt lat="41.4146398" lon="2.088462">
        <ele>383.41986084</ele>
        <time>2022-10-30T08:47:28Z</time>
      </trkpt>
      <trkpt lat="41.4146638" lon="2.0884311">
        <ele>383.54986572</ele>
        <time>2022-10-30T08:47:29Z</time>
      </trkpt>
      <trkpt lat="41.4146757" lon="2.0884092">
        <ele>383.64987183</ele>
        <time>2022-10-30T08:47:30Z</time>
      </trkpt>
      <trkpt lat="41.4146816" lon="2.0884082">
        <ele>383.74987793</ele>
        <time>2022-10-30T08:47:31Z</time>
      </trkpt>
      <trkpt lat="41.4147026" lon="2.0883982">
        <ele>383.97988892</ele>
        <time>2022-10-30T08:47:32Z</time>
      </trkpt>
      <trkpt lat="41.4147235" lon="2.0883942">
        <ele>384.17990112</ele>
        <time>2022-10-30T08:47:33Z</time>
      </trkpt>
      <trkpt lat="41.4147585" lon="2.0883683">
        <ele>384.41989136</ele>
        <time>2022-10-30T08:47:34Z</time>
      </trkpt>
      <trkpt lat="41.4147725" lon="2.0883643">
        <ele>384.66989136</ele>
        <time>2022-10-30T08:47:35Z</time>
      </trkpt>
      <trkpt lat="41.4147854" lon="2.0883554">
        <ele>384.87988281</ele>
        <time>2022-10-30T08:47:36Z</time>
      </trkpt>
      <trkpt lat="41.4148044" lon="2.0883484">
        <ele>385.23986816</ele>
        <time>2022-10-30T08:47:37Z</time>
      </trkpt>
      <trkpt lat="41.4148344" lon="2.0883344">
        <ele>385.63986206</ele>
        <time>2022-10-30T08:47:38Z</time>
      </trkpt>
      <trkpt lat="41.4148443" lon="2.0883394">
        <ele>386.03985596</ele>
        <time>2022-10-30T08:47:39Z</time>
      </trkpt>
      <trkpt lat="41.4148583" lon="2.0883305">
        <ele>386.48986816</ele>
        <time>2022-10-30T08:47:40Z</time>
      </trkpt>
      <trkpt lat="41.4148732" lon="2.0883305">
        <ele>386.81985474</ele>
        <time>2022-10-30T08:47:41Z</time>
      </trkpt>
      <trkpt lat="41.4148922" lon="2.0883045">
        <ele>387.20986938</ele>
        <time>2022-10-30T08:47:42Z</time>
      </trkpt>
      <trkpt lat="41.4149041" lon="2.0882915">
        <ele>387.54986572</ele>
        <time>2022-10-30T08:47:43Z</time>
      </trkpt>
      <trkpt lat="41.4149201" lon="2.0882645">
        <ele>387.84985352</ele>
        <time>2022-10-30T08:47:44Z</time>
      </trkpt>
      <trkpt lat="41.4149381" lon="2.0882546">
        <ele>388.25985718</ele>
        <time>2022-10-30T08:47:45Z</time>
      </trkpt>
      <trkpt lat="41.414954" lon="2.0882446">
        <ele>388.53985596</ele>
        <time>2022-10-30T08:47:46Z</time>
      </trkpt>
      <trkpt lat="41.414978" lon="2.0882376">
        <ele>388.81985474</ele>
        <time>2022-10-30T08:47:47Z</time>
      </trkpt>
      <trkpt lat="41.4149959" lon="2.0882287">
        <ele>389.11984253</ele>
        <time>2022-10-30T08:47:48Z</time>
      </trkpt>
      <trkpt lat="41.4150099" lon="2.0882147">
        <ele>389.34985352</ele>
        <time>2022-10-30T08:47:49Z</time>
      </trkpt>
      <trkpt lat="41.4150218" lon="2.0882098">
        <ele>389.60986328</ele>
        <time>2022-10-30T08:47:50Z</time>
      </trkpt>
      <trkpt lat="41.4150398" lon="2.0881978">
        <ele>389.91986084</ele>
        <time>2022-10-30T08:47:51Z</time>
      </trkpt>
      <trkpt lat="41.4150497" lon="2.0881809">
        <ele>390.25985718</ele>
        <time>2022-10-30T08:47:52Z</time>
      </trkpt>
      <trkpt lat="41.4150657" lon="2.0881709">
        <ele>390.56985474</ele>
        <time>2022-10-30T08:47:53Z</time>
      </trkpt>
      <trkpt lat="41.4150806" lon="2.0881629">
        <ele>390.99984741</ele>
        <time>2022-10-30T08:47:54Z</time>
      </trkpt>
      <trkpt lat="41.4151016" lon="2.088142">
        <ele>391.46984863</ele>
        <time>2022-10-30T08:47:55Z</time>
      </trkpt>
      <trkpt lat="41.4151126" lon="2.088125">
        <ele>391.84985352</ele>
        <time>2022-10-30T08:47:56Z</time>
      </trkpt>
      <trkpt lat="41.4151236" lon="2.088127">
        <ele>392.23986816</ele>
        <time>2022-10-30T08:47:57Z</time>
      </trkpt>
      <trkpt lat="41.4151435" lon="2.088116">
        <ele>392.44985962</ele>
        <time>2022-10-30T08:47:58Z</time>
      </trkpt>
      <trkpt lat="41.4151624" lon="2.0881081">
        <ele>392.62985229</ele>
        <time>2022-10-30T08:47:59Z</time>
      </trkpt>
      <trkpt lat="41.4151764" lon="2.0880951">
        <ele>392.78985596</ele>
        <time>2022-10-30T08:48:00Z</time>
      </trkpt>
      <trkpt lat="41.4151864" lon="2.0880471">
        <ele>392.92987061</ele>
        <time>2022-10-30T08:48:01Z</time>
      </trkpt>
      <trkpt lat="41.4151893" lon="2.0880282">
        <ele>393.16986084</ele>
        <time>2022-10-30T08:48:02Z</time>
      </trkpt>
      <trkpt lat="41.4151963" lon="2.0880142">
        <ele>393.40985107</ele>
        <time>2022-10-30T08:48:03Z</time>
      </trkpt>
      <trkpt lat="41.4152022" lon="2.0880063">
        <ele>393.62985229</ele>
        <time>2022-10-30T08:48:04Z</time>
      </trkpt>
      <trkpt lat="41.415207" lon="2.088003">
        <ele>393.98999023</ele>
        <time>2022-10-30T08:48:04Z</time>
      </trkpt>
      <trkpt lat="41.4152669" lon="2.0880001">
        <ele>394.51998901</ele>
        <time>2022-10-30T08:48:17Z</time>
      </trkpt>
      <trkpt lat="41.4152919" lon="2.0879821">
        <ele>394.54998779</ele>
        <time>2022-10-30T08:48:18Z</time>
      </trkpt>
      <trkpt lat="41.4152999" lon="2.0879931">
        <ele>394.60998535</ele>
        <time>2022-10-30T08:48:19Z</time>
      </trkpt>
      <trkpt lat="41.4153128" lon="2.0880061">
        <ele>394.70999146</ele>
        <time>2022-10-30T08:48:20Z</time>
      </trkpt>
      <trkpt lat="41.4153297" lon="2.088008">
        <ele>394.78997803</ele>
        <time>2022-10-30T08:48:21Z</time>
      </trkpt>
      <trkpt lat="41.4153397" lon="2.088013">
        <ele>395.00997925</ele>
        <time>2022-10-30T08:48:22Z</time>
      </trkpt>
      <trkpt lat="41.4153667" lon="2.0880149">
        <ele>395.23999023</ele>
        <time>2022-10-30T08:48:23Z</time>
      </trkpt>
      <trkpt lat="41.4153916" lon="2.0880168">
        <ele>395.38000488</ele>
        <time>2022-10-30T08:48:24Z</time>
      </trkpt>
      <trkpt lat="41.4154106" lon="2.0880238">
        <ele>395.72000122</ele>
        <time>2022-10-30T08:48:25Z</time>
      </trkpt>
      <trkpt lat="41.4154225" lon="2.0880278">
        <ele>395.86999512</ele>
        <time>2022-10-30T08:48:26Z</time>
      </trkpt>
      <trkpt lat="41.4154325" lon="2.0880219">
        <ele>396.13998413</ele>
        <time>2022-10-30T08:48:27Z</time>
      </trkpt>
      <trkpt lat="41.4154474" lon="2.0880109">
        <ele>396.58999634</ele>
        <time>2022-10-30T08:48:28Z</time>
      </trkpt>
      <trkpt lat="41.415531" lon="2.088044">
        <ele>398.51000977</ele>
        <time>2022-10-30T08:48:45Z</time>
      </trkpt>
      <trkpt lat="41.415542" lon="2.0880391">
        <ele>398.54000854</ele>
        <time>2022-10-30T08:48:46Z</time>
      </trkpt>
      <trkpt lat="41.415564" lon="2.0880251">
        <ele>398.58001709</ele>
        <time>2022-10-30T08:48:47Z</time>
      </trkpt>
      <trkpt lat="41.4155759" lon="2.088028">
        <ele>398.65002441</ele>
        <time>2022-10-30T08:48:48Z</time>
      </trkpt>
      <trkpt lat="41.4155918" lon="2.0880339">
        <ele>398.74002075</ele>
        <time>2022-10-30T08:48:49Z</time>
      </trkpt>
      <trkpt lat="41.4156098" lon="2.0880479">
        <ele>398.82000732</ele>
        <time>2022-10-30T08:48:50Z</time>
      </trkpt>
      <trkpt lat="41.4156208" lon="2.0880739">
        <ele>398.91000366</ele>
        <time>2022-10-30T08:48:51Z</time>
      </trkpt>
      <trkpt lat="41.4156337" lon="2.0880948">
        <ele>399.14001465</ele>
        <time>2022-10-30T08:48:52Z</time>
      </trkpt>
      <trkpt lat="41.4156407" lon="2.0881137">
        <ele>399.30001831</ele>
        <time>2022-10-30T08:48:53Z</time>
      </trkpt>
      <trkpt lat="41.4156687" lon="2.0881088">
        <ele>399.46002197</ele>
        <time>2022-10-30T08:48:54Z</time>
      </trkpt>
      <trkpt lat="41.4156986" lon="2.0881217">
        <ele>399.61001587</ele>
        <time>2022-10-30T08:48:55Z</time>
      </trkpt>
      <trkpt lat="41.4157096" lon="2.0881347">
        <ele>399.69000244</ele>
        <time>2022-10-30T08:48:56Z</time>
      </trkpt>
      <trkpt lat="41.4157146" lon="2.0881507">
        <ele>399.80999756</ele>
        <time>2022-10-30T08:48:57Z</time>
      </trkpt>
      <trkpt lat="41.4157235" lon="2.0881627">
        <ele>399.92999268</ele>
        <time>2022-10-30T08:48:58Z</time>
      </trkpt>
      <trkpt lat="41.4157585" lon="2.0881577">
        <ele>400.04998779</ele>
        <time>2022-10-30T08:48:59Z</time>
      </trkpt>
      <trkpt lat="41.4157744" lon="2.0881577">
        <ele>400.19000244</ele>
        <time>2022-10-30T08:49:00Z</time>
      </trkpt>
      <trkpt lat="41.4157854" lon="2.0881737">
        <ele>400.23999023</ele>
        <time>2022-10-30T08:49:01Z</time>
      </trkpt>
      <trkpt lat="41.4157994" lon="2.0881867">
        <ele>400.31997681</ele>
        <time>2022-10-30T08:49:02Z</time>
      </trkpt>
      <trkpt lat="41.4158144" lon="2.0881986">
        <ele>400.45999146</ele>
        <time>2022-10-30T08:49:03Z</time>
      </trkpt>
      <trkpt lat="41.4158373" lon="2.0882096">
        <ele>400.53997803</ele>
        <time>2022-10-30T08:49:04Z</time>
      </trkpt>
      <trkpt lat="41.4158623" lon="2.0882096">
        <ele>400.7199707</ele>
        <time>2022-10-30T08:49:05Z</time>
      </trkpt>
      <trkpt lat="41.4158862" lon="2.0882105">
        <ele>400.84997559</ele>
        <time>2022-10-30T08:49:06Z</time>
      </trkpt>
      <trkpt lat="41.4159072" lon="2.0882066">
        <ele>400.93997192</ele>
        <time>2022-10-30T08:49:07Z</time>
      </trkpt>
      <trkpt lat="41.4159212" lon="2.0882245">
        <ele>401.12997437</ele>
        <time>2022-10-30T08:49:08Z</time>
      </trkpt>
      <trkpt lat="41.4159381" lon="2.0882255">
        <ele>401.22998047</ele>
        <time>2022-10-30T08:49:09Z</time>
      </trkpt>
      <trkpt lat="41.41595" lon="2.0882235">
        <ele>401.38998413</ele>
        <time>2022-10-30T08:49:10Z</time>
      </trkpt>
      <trkpt lat="41.415969" lon="2.0882324">
        <ele>401.59997559</ele>
        <time>2022-10-30T08:49:11Z</time>
      </trkpt>
      <trkpt lat="41.4159849" lon="2.0882195">
        <ele>401.70996094</ele>
        <time>2022-10-30T08:49:12Z</time>
      </trkpt>
      <trkpt lat="41.415984" lon="2.0882155">
        <ele>401.88995361</ele>
        <time>2022-10-30T08:49:13Z</time>
      </trkpt>
      <trkpt lat="41.415986" lon="2.0882145">
        <ele>402.07995605</ele>
        <time>2022-10-30T08:49:14Z</time>
      </trkpt>
      <trkpt lat="41.4159979" lon="2.0882026">
        <ele>402.2699585</ele>
        <time>2022-10-30T08:49:15Z</time>
      </trkpt>
      <trkpt lat="41.4160158" lon="2.0882045">
        <ele>402.56994629</ele>
        <time>2022-10-30T08:49:16Z</time>
      </trkpt>
      <trkpt lat="41.4160428" lon="2.0882006">
        <ele>402.97994995</ele>
        <time>2022-10-30T08:49:17Z</time>
      </trkpt>
      <trkpt lat="41.4160588" lon="2.0882035">
        <ele>403.41995239</ele>
        <time>2022-10-30T08:49:18Z</time>
      </trkpt>
      <trkpt lat="41.4160747" lon="2.0882165">
        <ele>403.87994385</ele>
        <time>2022-10-30T08:49:19Z</time>
      </trkpt>
      <trkpt lat="41.4160937" lon="2.0882204">
        <ele>404.41995239</ele>
        <time>2022-10-30T08:49:20Z</time>
      </trkpt>
      <trkpt lat="41.4161077" lon="2.0882344">
        <ele>404.84994507</ele>
        <time>2022-10-30T08:49:21Z</time>
      </trkpt>
      <trkpt lat="41.4161187" lon="2.0882593">
        <ele>405.22994995</ele>
        <time>2022-10-30T08:49:22Z</time>
      </trkpt>
      <trkpt lat="41.4161257" lon="2.0882763">
        <ele>405.70996094</ele>
        <time>2022-10-30T08:49:23Z</time>
      </trkpt>
      <trkpt lat="41.4161366" lon="2.0882734">
        <ele>406.23995972</ele>
        <time>2022-10-30T08:49:24Z</time>
      </trkpt>
      <trkpt lat="41.4161536" lon="2.0882664">
        <ele>406.85995483</ele>
        <time>2022-10-30T08:49:25Z</time>
      </trkpt>
      <trkpt lat="41.416155" lon="2.088267">
        <ele>407.1000061</ele>
        <time>2022-10-30T08:49:25Z</time>
      </trkpt>
      <trkpt lat="41.4162359" lon="2.0882611">
        <ele>408.55999756</ele>
        <time>2022-10-30T08:49:36Z</time>
      </trkpt>
      <trkpt lat="41.4162549" lon="2.088263">
        <ele>408.70001221</ele>
        <time>2022-10-30T08:49:37Z</time>
      </trkpt>
      <trkpt lat="41.4162668" lon="2.08827">
        <ele>408.8500061</ele>
        <time>2022-10-30T08:49:38Z</time>
      </trkpt>
      <trkpt lat="41.4162758" lon="2.0882819">
        <ele>409.07000732</ele>
        <time>2022-10-30T08:49:39Z</time>
      </trkpt>
      <trkpt lat="41.4162857" lon="2.0883019">
        <ele>409.39001465</ele>
        <time>2022-10-30T08:49:40Z</time>
      </trkpt>
      <trkpt lat="41.4162946" lon="2.0883078">
        <ele>409.81002808</ele>
        <time>2022-10-30T08:49:41Z</time>
      </trkpt>
      <trkpt lat="41.4162996" lon="2.0883137">
        <ele>410.25003052</ele>
        <time>2022-10-30T08:49:42Z</time>
      </trkpt>
      <trkpt lat="41.4163046" lon="2.0883267">
        <ele>410.69003296</ele>
        <time>2022-10-30T08:49:43Z</time>
      </trkpt>
      <trkpt lat="41.4163315" lon="2.0883367">
        <ele>411.02001953</ele>
        <time>2022-10-30T08:49:44Z</time>
      </trkpt>
      <trkpt lat="41.4163435" lon="2.0883386">
        <ele>411.29000854</ele>
        <time>2022-10-30T08:49:45Z</time>
      </trkpt>
      <trkpt lat="41.4163554" lon="2.0883475">
        <ele>411.48001099</ele>
        <time>2022-10-30T08:49:46Z</time>
      </trkpt>
      <trkpt lat="41.4163684" lon="2.0883545">
        <ele>411.69000244</ele>
        <time>2022-10-30T08:49:47Z</time>
      </trkpt>
      <trkpt lat="41.4163883" lon="2.0883526">
        <ele>411.89001465</ele>
        <time>2022-10-30T08:49:48Z</time>
      </trkpt>
      <trkpt lat="41.4164012" lon="2.0883686">
        <ele>412.12002563</ele>
        <time>2022-10-30T08:49:49Z</time>
      </trkpt>
      <trkpt lat="41.4164112" lon="2.0883846">
        <ele>412.40002441</ele>
        <time>2022-10-30T08:49:50Z</time>
      </trkpt>
      <trkpt lat="41.4164141" lon="2.0884045">
        <ele>412.68002319</ele>
        <time>2022-10-30T08:49:51Z</time>
      </trkpt>
      <trkpt lat="41.41642" lon="2.0884175">
        <ele>413.09002686</ele>
        <time>2022-10-30T08:49:52Z</time>
      </trkpt>
      <trkpt lat="41.416433" lon="2.0884175">
        <ele>413.40002441</ele>
        <time>2022-10-30T08:49:53Z</time>
      </trkpt>
      <trkpt lat="41.4164459" lon="2.0884215">
        <ele>413.69003296</ele>
        <time>2022-10-30T08:49:54Z</time>
      </trkpt>
      <trkpt lat="41.4164729" lon="2.0884186">
        <ele>414.11004639</ele>
        <time>2022-10-30T08:49:55Z</time>
      </trkpt>
      <trkpt lat="41.4164889" lon="2.0884146">
        <ele>414.34005737</ele>
        <time>2022-10-30T08:49:56Z</time>
      </trkpt>
      <trkpt lat="41.4165008" lon="2.0884196">
        <ele>414.71005249</ele>
        <time>2022-10-30T08:49:57Z</time>
      </trkpt>
      <trkpt lat="41.4165088" lon="2.0884255">
        <ele>415.17004395</ele>
        <time>2022-10-30T08:49:58Z</time>
      </trkpt>
      <trkpt lat="41.4165307" lon="2.0884415">
        <ele>415.49005127</ele>
        <time>2022-10-30T08:49:59Z</time>
      </trkpt>
      <trkpt lat="41.4165517" lon="2.0884545">
        <ele>415.96005249</ele>
        <time>2022-10-30T08:50:00Z</time>
      </trkpt>
      <trkpt lat="41.4165647" lon="2.0884584">
        <ele>416.40005493</ele>
        <time>2022-10-30T08:50:01Z</time>
      </trkpt>
      <trkpt lat="41.4165726" lon="2.0884624">
        <ele>416.81005859</ele>
        <time>2022-10-30T08:50:02Z</time>
      </trkpt>
      <trkpt lat="41.4165746" lon="2.0884674">
        <ele>417.17004395</ele>
        <time>2022-10-30T08:50:03Z</time>
      </trkpt>
      <trkpt lat="41.4165726" lon="2.0884753">
        <ele>417.40005493</ele>
        <time>2022-10-30T08:50:04Z</time>
      </trkpt>
      <trkpt lat="41.4165717" lon="2.0884853">
        <ele>417.57006836</ele>
        <time>2022-10-30T08:50:05Z</time>
      </trkpt>
      <trkpt lat="41.41666" lon="2.0884809">
        <ele>418.01998901</ele>
        <time>2022-10-30T08:50:40Z</time>
      </trkpt>
      <trkpt lat="41.416655" lon="2.088469">
        <ele>417.95999146</ele>
        <time>2022-10-30T08:50:41Z</time>
      </trkpt>
      <trkpt lat="41.4166491" lon="2.0884551">
        <ele>418.02999878</ele>
        <time>2022-10-30T08:50:42Z</time>
      </trkpt>
      <trkpt lat="41.4166452" lon="2.0884421">
        <ele>418.23001099</ele>
        <time>2022-10-30T08:50:43Z</time>
      </trkpt>
      <trkpt lat="41.4166402" lon="2.0884291">
        <ele>418.41000366</ele>
        <time>2022-10-30T08:50:44Z</time>
      </trkpt>
      <trkpt lat="41.4166262" lon="2.0884081">
        <ele>418.67001343</ele>
        <time>2022-10-30T08:50:45Z</time>
      </trkpt>
      <trkpt lat="41.4166152" lon="2.0883832">
        <ele>418.92001343</ele>
        <time>2022-10-30T08:50:46Z</time>
      </trkpt>
      <trkpt lat="41.4166042" lon="2.0883482">
        <ele>419.16000366</ele>
        <time>2022-10-30T08:50:47Z</time>
      </trkpt>
      <trkpt lat="41.4166062" lon="2.0883253">
        <ele>419.42001343</ele>
        <time>2022-10-30T08:50:48Z</time>
      </trkpt>
      <trkpt lat="41.4166081" lon="2.0883033">
        <ele>419.69000244</ele>
        <time>2022-10-30T08:50:49Z</time>
      </trkpt>
      <trkpt lat="41.4166121" lon="2.0882774">
        <ele>419.86001587</ele>
        <time>2022-10-30T08:50:50Z</time>
      </trkpt>
      <trkpt lat="41.416624" lon="2.0882424">
        <ele>420.04000854</ele>
        <time>2022-10-30T08:50:51Z</time>
      </trkpt>
      <trkpt lat="41.416637" lon="2.0882254">
        <ele>420.27001953</ele>
        <time>2022-10-30T08:50:52Z</time>
      </trkpt>
      <trkpt lat="41.4166529" lon="2.0882084">
        <ele>420.46002197</ele>
        <time>2022-10-30T08:50:53Z</time>
      </trkpt>
      <trkpt lat="41.4166689" lon="2.0881965">
        <ele>420.69003296</ele>
        <time>2022-10-30T08:50:54Z</time>
      </trkpt>
      <trkpt lat="41.4166879" lon="2.0881835">
        <ele>420.94003296</ele>
        <time>2022-10-30T08:50:55Z</time>
      </trkpt>
      <trkpt lat="41.4167129" lon="2.0881566">
        <ele>421.09002686</ele>
        <time>2022-10-30T08:50:56Z</time>
      </trkpt>
      <trkpt lat="41.4167349" lon="2.0881386">
        <ele>421.2300415</ele>
        <time>2022-10-30T08:50:57Z</time>
      </trkpt>
      <trkpt lat="41.4167518" lon="2.0881207">
        <ele>421.36004639</ele>
        <time>2022-10-30T08:50:58Z</time>
      </trkpt>
      <trkpt lat="41.4167727" lon="2.0880968">
        <ele>421.51004028</ele>
        <time>2022-10-30T08:50:59Z</time>
      </trkpt>
      <trkpt lat="41.4167867" lon="2.0880788">
        <ele>421.75003052</ele>
        <time>2022-10-30T08:51:00Z</time>
      </trkpt>
      <trkpt lat="41.4168117" lon="2.0880468">
        <ele>422.05001831</ele>
        <time>2022-10-30T08:51:01Z</time>
      </trkpt>
      <trkpt lat="41.4168186" lon="2.0880259">
        <ele>422.36001587</ele>
        <time>2022-10-30T08:51:02Z</time>
      </trkpt>
      <trkpt lat="41.4168276" lon="2.0880119">
        <ele>422.65002441</ele>
        <time>2022-10-30T08:51:03Z</time>
      </trkpt>
      <trkpt lat="41.4168455" lon="2.088005">
        <ele>422.97003174</ele>
        <time>2022-10-30T08:51:04Z</time>
      </trkpt>
      <trkpt lat="41.4168464" lon="2.087987">
        <ele>423.25003052</ele>
        <time>2022-10-30T08:51:05Z</time>
      </trkpt>
      <trkpt lat="41.4168445" lon="2.0879531">
        <ele>423.59002686</ele>
        <time>2022-10-30T08:51:06Z</time>
      </trkpt>
      <trkpt lat="41.4168375" lon="2.0879211">
        <ele>423.82003784</ele>
        <time>2022-10-30T08:51:07Z</time>
      </trkpt>
      <trkpt lat="41.4168434" lon="2.0878981">
        <ele>424.0300293</ele>
        <time>2022-10-30T08:51:08Z</time>
      </trkpt>
      <trkpt lat="41.4168584" lon="2.0878812">
        <ele>424.33001709</ele>
        <time>2022-10-30T08:51:09Z</time>
      </trkpt>
      <trkpt lat="41.4168813" lon="2.0878582">
        <ele>424.56002808</ele>
        <time>2022-10-30T08:51:10Z</time>
      </trkpt>
      <trkpt lat="41.4168882" lon="2.0878502">
        <ele>424.86001587</ele>
        <time>2022-10-30T08:51:11Z</time>
      </trkpt>
      <trkpt lat="41.4168992" lon="2.0878233">
        <ele>425.14001465</ele>
        <time>2022-10-30T08:51:12Z</time>
      </trkpt>
      <trkpt lat="41.4169072" lon="2.0877933">
        <ele>425.34002686</ele>
        <time>2022-10-30T08:51:13Z</time>
      </trkpt>
      <trkpt lat="41.4169182" lon="2.0877604">
        <ele>425.60003662</ele>
        <time>2022-10-30T08:51:14Z</time>
      </trkpt>
      <trkpt lat="41.4169292" lon="2.0877444">
        <ele>425.87002563</ele>
        <time>2022-10-30T08:51:15Z</time>
      </trkpt>
      <trkpt lat="41.4169351" lon="2.0877154">
        <ele>426.05001831</ele>
        <time>2022-10-30T08:51:16Z</time>
      </trkpt>
      <trkpt lat="41.4169401" lon="2.0876854">
        <ele>426.25003052</ele>
        <time>2022-10-30T08:51:17Z</time>
      </trkpt>
      <trkpt lat="41.4169401" lon="2.0876555">
        <ele>426.40002441</ele>
        <time>2022-10-30T08:51:18Z</time>
      </trkpt>
      <trkpt lat="41.4169621" lon="2.0876055">
        <ele>426.57003784</ele>
        <time>2022-10-30T08:51:19Z</time>
      </trkpt>
      <trkpt lat="41.41697" lon="2.0875786">
        <ele>426.82003784</ele>
        <time>2022-10-30T08:51:20Z</time>
      </trkpt>
      <trkpt lat="41.416982" lon="2.0875486">
        <ele>427.1300354</ele>
        <time>2022-10-30T08:51:21Z</time>
      </trkpt>
      <trkpt lat="41.4169879" lon="2.0875097">
        <ele>427.47003174</ele>
        <time>2022-10-30T08:51:22Z</time>
      </trkpt>
      <trkpt lat="41.4169959" lon="2.0874667">
        <ele>427.77001953</ele>
        <time>2022-10-30T08:51:23Z</time>
      </trkpt>
      <trkpt lat="41.4169939" lon="2.0874468">
        <ele>428.04000854</ele>
        <time>2022-10-30T08:51:24Z</time>
      </trkpt>
      <trkpt lat="41.4169919" lon="2.0874218">
        <ele>428.25</ele>
        <time>2022-10-30T08:51:25Z</time>
      </trkpt>
      <trkpt lat="41.41699" lon="2.0873999">
        <ele>428.42001343</ele>
        <time>2022-10-30T08:51:26Z</time>
      </trkpt>
      <trkpt lat="41.4169929" lon="2.087366">
        <ele>428.6000061</ele>
        <time>2022-10-30T08:51:27Z</time>
      </trkpt>
      <trkpt lat="41.4170028" lon="2.087346">
        <ele>428.80001831</ele>
        <time>2022-10-30T08:51:28Z</time>
      </trkpt>
      <trkpt lat="41.4170117" lon="2.0873181">
        <ele>428.98001099</ele>
        <time>2022-10-30T08:51:29Z</time>
      </trkpt>
      <trkpt lat="41.4170137" lon="2.0872992">
        <ele>429.14001465</ele>
        <time>2022-10-30T08:51:30Z</time>
      </trkpt>
      <trkpt lat="41.4170226" lon="2.0872813">
        <ele>429.27001953</ele>
        <time>2022-10-30T08:51:31Z</time>
      </trkpt>
      <trkpt lat="41.4170496" lon="2.0872703">
        <ele>429.40002441</ele>
        <time>2022-10-30T08:51:32Z</time>
      </trkpt>
      <trkpt lat="41.4170675" lon="2.0872633">
        <ele>429.54003906</ele>
        <time>2022-10-30T08:51:33Z</time>
      </trkpt>
      <trkpt lat="41.4170855" lon="2.0872444">
        <ele>429.74005127</ele>
        <time>2022-10-30T08:51:34Z</time>
      </trkpt>
      <trkpt lat="41.4171034" lon="2.0872225">
        <ele>429.88006592</ele>
        <time>2022-10-30T08:51:35Z</time>
      </trkpt>
      <trkpt lat="41.4171263" lon="2.0871916">
        <ele>430.09005737</ele>
        <time>2022-10-30T08:51:36Z</time>
      </trkpt>
      <trkpt lat="41.4171462" lon="2.0871737">
        <ele>430.22006226</ele>
        <time>2022-10-30T08:51:37Z</time>
      </trkpt>
      <trkpt lat="41.4171661" lon="2.0871607">
        <ele>430.34005737</ele>
        <time>2022-10-30T08:51:38Z</time>
      </trkpt>
      <trkpt lat="41.4171731" lon="2.0871458">
        <ele>430.61004639</ele>
        <time>2022-10-30T08:51:39Z</time>
      </trkpt>
      <trkpt lat="41.4171891" lon="2.0871278">
        <ele>430.81005859</ele>
        <time>2022-10-30T08:51:40Z</time>
      </trkpt>
      <trkpt lat="41.417213" lon="2.0871059">
        <ele>431.13006592</ele>
        <time>2022-10-30T08:51:41Z</time>
      </trkpt>
      <trkpt lat="41.417223" lon="2.0870989">
        <ele>431.43005371</ele>
        <time>2022-10-30T08:51:42Z</time>
      </trkpt>
      <trkpt lat="41.4172239" lon="2.087081">
        <ele>431.68005371</ele>
        <time>2022-10-30T08:51:43Z</time>
      </trkpt>
      <trkpt lat="41.4172279" lon="2.0870601">
        <ele>431.9800415</ele>
        <time>2022-10-30T08:51:44Z</time>
      </trkpt>
      <trkpt lat="41.4172398" lon="2.0870141">
        <ele>432.25003052</ele>
        <time>2022-10-30T08:51:45Z</time>
      </trkpt>
      <trkpt lat="41.4172487" lon="2.0869751">
        <ele>432.55001831</ele>
        <time>2022-10-30T08:51:46Z</time>
      </trkpt>
      <trkpt lat="41.4172546" lon="2.0869412">
        <ele>432.86001587</ele>
        <time>2022-10-30T08:51:47Z</time>
      </trkpt>
      <trkpt lat="41.4172695" lon="2.0869113">
        <ele>433.18002319</ele>
        <time>2022-10-30T08:51:48Z</time>
      </trkpt>
      <trkpt lat="41.4172765" lon="2.0868903">
        <ele>433.58001709</ele>
        <time>2022-10-30T08:51:49Z</time>
      </trkpt>
      <trkpt lat="41.4172944" lon="2.0868643">
        <ele>434.04000854</ele>
        <time>2022-10-30T08:51:50Z</time>
      </trkpt>
      <trkpt lat="41.4173014" lon="2.0868534">
        <ele>434.49002075</ele>
        <time>2022-10-30T08:51:51Z</time>
      </trkpt>
      <trkpt lat="41.4173103" lon="2.0868394">
        <ele>434.86001587</ele>
        <time>2022-10-30T08:51:52Z</time>
      </trkpt>
      <trkpt lat="41.4173172" lon="2.0868234">
        <ele>435.22000122</ele>
        <time>2022-10-30T08:51:53Z</time>
      </trkpt>
      <trkpt lat="41.4173312" lon="2.0867914">
        <ele>435.48001099</ele>
        <time>2022-10-30T08:51:54Z</time>
      </trkpt>
      <trkpt lat="41.4173432" lon="2.0867795">
        <ele>435.75</ele>
        <time>2022-10-30T08:51:55Z</time>
      </trkpt>
      <trkpt lat="41.4173551" lon="2.0867625">
        <ele>436.10998535</ele>
        <time>2022-10-30T08:51:56Z</time>
      </trkpt>
      <trkpt lat="41.4173711" lon="2.0867456">
        <ele>436.40997314</ele>
        <time>2022-10-30T08:51:57Z</time>
      </trkpt>
      <trkpt lat="41.417384" lon="2.0867296">
        <ele>436.73995972</ele>
        <time>2022-10-30T08:51:58Z</time>
      </trkpt>
      <trkpt lat="41.417408" lon="2.0867345">
        <ele>437.07995605</ele>
        <time>2022-10-30T08:51:59Z</time>
      </trkpt>
      <trkpt lat="41.4174199" lon="2.0867316">
        <ele>437.40994263</ele>
        <time>2022-10-30T08:52:00Z</time>
      </trkpt>
      <trkpt lat="41.4174329" lon="2.0867345">
        <ele>437.7399292</ele>
        <time>2022-10-30T08:52:01Z</time>
      </trkpt>
      <trkpt lat="41.4174428" lon="2.0867336">
        <ele>438.06991577</ele>
        <time>2022-10-30T08:52:02Z</time>
      </trkpt>
      <trkpt lat="41.4174578" lon="2.0867266">
        <ele>438.37991333</ele>
        <time>2022-10-30T08:52:03Z</time>
      </trkpt>
      <trkpt lat="41.4174777" lon="2.0867156">
        <ele>438.6399231</ele>
        <time>2022-10-30T08:52:04Z</time>
      </trkpt>
      <trkpt lat="41.4174976" lon="2.0867026">
        <ele>438.8399353</ele>
        <time>2022-10-30T08:52:05Z</time>
      </trkpt>
      <trkpt lat="41.4175125" lon="2.0866907">
        <ele>439.01992798</ele>
        <time>2022-10-30T08:52:06Z</time>
      </trkpt>
      <trkpt lat="41.4175274" lon="2.0866848">
        <ele>439.16992188</ele>
        <time>2022-10-30T08:52:07Z</time>
      </trkpt>
      <trkpt lat="41.4175574" lon="2.0866867">
        <ele>439.31991577</ele>
        <time>2022-10-30T08:52:08Z</time>
      </trkpt>
      <trkpt lat="41.4175784" lon="2.0866767">
        <ele>439.45993042</ele>
        <time>2022-10-30T08:52:09Z</time>
      </trkpt>
      <trkpt lat="41.4175933" lon="2.0866708">
        <ele>439.56991577</ele>
        <time>2022-10-30T08:52:10Z</time>
      </trkpt>
      <trkpt lat="41.4176132" lon="2.0866589">
        <ele>439.68991089</ele>
        <time>2022-10-30T08:52:11Z</time>
      </trkpt>
      <trkpt lat="41.4176402" lon="2.08665">
        <ele>439.80990601</ele>
        <time>2022-10-30T08:52:12Z</time>
      </trkpt>
      <trkpt lat="41.4176601" lon="2.08664">
        <ele>439.96990967</ele>
        <time>2022-10-30T08:52:13Z</time>
      </trkpt>
      <trkpt lat="41.417678" lon="2.0866281">
        <ele>440.14990234</ele>
        <time>2022-10-30T08:52:14Z</time>
      </trkpt>
      <trkpt lat="41.4176979" lon="2.0866162">
        <ele>440.32989502</ele>
        <time>2022-10-30T08:52:15Z</time>
      </trkpt>
      <trkpt lat="41.4177189" lon="2.0866092">
        <ele>440.51989746</ele>
        <time>2022-10-30T08:52:16Z</time>
      </trkpt>
      <trkpt lat="41.4177408" lon="2.0866003">
        <ele>440.66989136</ele>
        <time>2022-10-30T08:52:17Z</time>
      </trkpt>
      <trkpt lat="41.4177528" lon="2.0865963">
        <ele>440.86990356</ele>
        <time>2022-10-30T08:52:18Z</time>
      </trkpt>
      <trkpt lat="41.4177787" lon="2.0865853">
        <ele>441.07989502</ele>
        <time>2022-10-30T08:52:19Z</time>
      </trkpt>
      <trkpt lat="41.4177956" lon="2.0865774">
        <ele>441.3598938</ele>
        <time>2022-10-30T08:52:20Z</time>
      </trkpt>
      <trkpt lat="41.4178056" lon="2.0865614">
        <ele>441.65988159</ele>
        <time>2022-10-30T08:52:21Z</time>
      </trkpt>
      <trkpt lat="41.4178315" lon="2.0865205">
        <ele>442.02987671</ele>
        <time>2022-10-30T08:52:22Z</time>
      </trkpt>
      <trkpt lat="41.4178494" lon="2.0865035">
        <ele>442.42987061</ele>
        <time>2022-10-30T08:52:23Z</time>
      </trkpt>
      <trkpt lat="41.4178564" lon="2.0864826">
        <ele>442.7298584</ele>
        <time>2022-10-30T08:52:24Z</time>
      </trkpt>
      <trkpt lat="41.4178564" lon="2.0864586">
        <ele>443.00985718</ele>
        <time>2022-10-30T08:52:25Z</time>
      </trkpt>
      <trkpt lat="41.4178583" lon="2.0864177">
        <ele>443.23986816</ele>
        <time>2022-10-30T08:52:26Z</time>
      </trkpt>
      <trkpt lat="41.4178564" lon="2.0863868">
        <ele>443.38986206</ele>
        <time>2022-10-30T08:52:27Z</time>
      </trkpt>
      <trkpt lat="41.4178554" lon="2.0863569">
        <ele>443.53985596</ele>
        <time>2022-10-30T08:52:28Z</time>
      </trkpt>
      <trkpt lat="41.4178583" lon="2.0863309">
        <ele>443.63986206</ele>
        <time>2022-10-30T08:52:29Z</time>
      </trkpt>
      <trkpt lat="41.4178593" lon="2.0862849">
        <ele>443.74984741</ele>
        <time>2022-10-30T08:52:30Z</time>
      </trkpt>
      <trkpt lat="41.4178612" lon="2.086252">
        <ele>443.88986206</ele>
        <time>2022-10-30T08:52:31Z</time>
      </trkpt>
      <trkpt lat="41.4178632" lon="2.086223">
        <ele>444.05987549</ele>
        <time>2022-10-30T08:52:32Z</time>
      </trkpt>
      <trkpt lat="41.4178702" lon="2.086202">
        <ele>444.21987915</ele>
        <time>2022-10-30T08:52:33Z</time>
      </trkpt>
      <trkpt lat="41.4178751" lon="2.086186">
        <ele>444.40988159</ele>
        <time>2022-10-30T08:52:34Z</time>
      </trkpt>
      <trkpt lat="41.4178861" lon="2.0861501">
        <ele>444.66989136</ele>
        <time>2022-10-30T08:52:35Z</time>
      </trkpt>
      <trkpt lat="41.4178901" lon="2.0861191">
        <ele>444.89990234</ele>
        <time>2022-10-30T08:52:36Z</time>
      </trkpt>
      <trkpt lat="41.4178891" lon="2.0860822">
        <ele>445.24990845</ele>
        <time>2022-10-30T08:52:37Z</time>
      </trkpt>
      <trkpt lat="41.4178921" lon="2.0860443">
        <ele>445.51989746</ele>
        <time>2022-10-30T08:52:38Z</time>
      </trkpt>
      <trkpt lat="41.417902" lon="2.0859914">
        <ele>445.73989868</ele>
        <time>2022-10-30T08:52:39Z</time>
      </trkpt>
      <trkpt lat="41.4179029" lon="2.0859644">
        <ele>446.02990723</ele>
        <time>2022-10-30T08:52:40Z</time>
      </trkpt>
      <trkpt lat="41.4179069" lon="2.0859375">
        <ele>446.30990601</ele>
        <time>2022-10-30T08:52:41Z</time>
      </trkpt>
      <trkpt lat="41.4179158" lon="2.0859135">
        <ele>446.54989624</ele>
        <time>2022-10-30T08:52:42Z</time>
      </trkpt>
      <trkpt lat="41.4179288" lon="2.0858916">
        <ele>446.84988403</ele>
        <time>2022-10-30T08:52:43Z</time>
      </trkpt>
      <trkpt lat="41.4179428" lon="2.0858587">
        <ele>447.07989502</ele>
        <time>2022-10-30T08:52:44Z</time>
      </trkpt>
      <trkpt lat="41.4179538" lon="2.0858387">
        <ele>447.39990234</ele>
        <time>2022-10-30T08:52:45Z</time>
      </trkpt>
      <trkpt lat="41.4179607" lon="2.0858157">
        <ele>447.84991455</ele>
        <time>2022-10-30T08:52:46Z</time>
      </trkpt>
      <trkpt lat="41.4179726" lon="2.0857987">
        <ele>448.26992798</ele>
        <time>2022-10-30T08:52:47Z</time>
      </trkpt>
      <trkpt lat="41.4179796" lon="2.0857738">
        <ele>448.70993042</ele>
        <time>2022-10-30T08:52:48Z</time>
      </trkpt>
      <trkpt lat="41.4179906" lon="2.0857429">
        <ele>449.11993408</ele>
        <time>2022-10-30T08:52:49Z</time>
      </trkpt>
      <trkpt lat="41.4179906" lon="2.085716">
        <ele>449.39993286</ele>
        <time>2022-10-30T08:52:50Z</time>
      </trkpt>
      <trkpt lat="41.4179955" lon="2.085691">
        <ele>449.5899353</ele>
        <time>2022-10-30T08:52:51Z</time>
      </trkpt>
      <trkpt lat="41.4180025" lon="2.0856671">
        <ele>449.79992676</ele>
        <time>2022-10-30T08:52:52Z</time>
      </trkpt>
      <trkpt lat="41.4180075" lon="2.0856311">
        <ele>449.89993286</ele>
        <time>2022-10-30T08:52:53Z</time>
      </trkpt>
      <trkpt lat="41.4180104" lon="2.0855942">
        <ele>450.01992798</ele>
        <time>2022-10-30T08:52:54Z</time>
      </trkpt>
      <trkpt lat="41.4180214" lon="2.0855603">
        <ele>450.15994263</ele>
        <time>2022-10-30T08:52:55Z</time>
      </trkpt>
      <trkpt lat="41.4180243" lon="2.0855224">
        <ele>450.30993652</ele>
        <time>2022-10-30T08:52:56Z</time>
      </trkpt>
      <trkpt lat="41.4180193" lon="2.0854884">
        <ele>450.51992798</ele>
        <time>2022-10-30T08:52:57Z</time>
      </trkpt>
      <trkpt lat="41.4180093" lon="2.0854475">
        <ele>450.76992798</ele>
        <time>2022-10-30T08:52:58Z</time>
      </trkpt>
      <trkpt lat="41.4180024" lon="2.0854155">
        <ele>451.02993774</ele>
        <time>2022-10-30T08:52:59Z</time>
      </trkpt>
      <trkpt lat="41.4179884" lon="2.0853805">
        <ele>451.22994995</ele>
        <time>2022-10-30T08:53:00Z</time>
      </trkpt>
      <trkpt lat="41.4179744" lon="2.0853466">
        <ele>451.3699646</ele>
        <time>2022-10-30T08:53:01Z</time>
      </trkpt>
      <trkpt lat="41.4179535" lon="2.0852946">
        <ele>451.43997192</ele>
        <time>2022-10-30T08:53:02Z</time>
      </trkpt>
      <trkpt lat="41.4179365" lon="2.0852657">
        <ele>451.47998047</ele>
        <time>2022-10-30T08:53:03Z</time>
      </trkpt>
      <trkpt lat="41.4179206" lon="2.0852327">
        <ele>451.48999023</ele>
        <time>2022-10-30T08:53:04Z</time>
      </trkpt>
      <trkpt lat="41.4179056" lon="2.0852157">
        <ele>451.52999878</ele>
        <time>2022-10-30T08:53:05Z</time>
      </trkpt>
      <trkpt lat="41.4179109" lon="2.085209">
        <ele>452.23001099</ele>
        <time>2022-10-30T08:53:05Z</time>
      </trkpt>
      <trkpt lat="41.417796" lon="2.08524">
        <ele>452.07000732</ele>
        <time>2022-10-30T08:54:10Z</time>
      </trkpt>
      <trkpt lat="41.417789" lon="2.085218">
        <ele>452.11999512</ele>
        <time>2022-10-30T08:54:11Z</time>
      </trkpt>
      <trkpt lat="41.417787" lon="2.0851921">
        <ele>452.16998291</ele>
        <time>2022-10-30T08:54:12Z</time>
      </trkpt>
      <trkpt lat="41.417787" lon="2.0851702">
        <ele>452.18997192</ele>
        <time>2022-10-30T08:54:13Z</time>
      </trkpt>
      <trkpt lat="41.4177851" lon="2.0851382">
        <ele>452.18997192</ele>
        <time>2022-10-30T08:54:14Z</time>
      </trkpt>
      <trkpt lat="41.417789" lon="2.0851102">
        <ele>452.22998047</ele>
        <time>2022-10-30T08:54:15Z</time>
      </trkpt>
      <trkpt lat="41.417796" lon="2.0850783">
        <ele>452.28997803</ele>
        <time>2022-10-30T08:54:16Z</time>
      </trkpt>
      <trkpt lat="41.4177931" lon="2.0850493">
        <ele>452.3699646</ele>
        <time>2022-10-30T08:54:17Z</time>
      </trkpt>
      <trkpt lat="41.4177861" lon="2.0850253">
        <ele>452.42996216</ele>
        <time>2022-10-30T08:54:18Z</time>
      </trkpt>
      <trkpt lat="41.4177852" lon="2.0849963">
        <ele>452.47994995</ele>
        <time>2022-10-30T08:54:19Z</time>
      </trkpt>
      <trkpt lat="41.4177871" lon="2.0849774">
        <ele>452.56994629</ele>
        <time>2022-10-30T08:54:20Z</time>
      </trkpt>
      <trkpt lat="41.4177852" lon="2.0849595">
        <ele>452.65994263</ele>
        <time>2022-10-30T08:54:21Z</time>
      </trkpt>
      <trkpt lat="41.4177812" lon="2.0849406">
        <ele>452.82995605</ele>
        <time>2022-10-30T08:54:22Z</time>
      </trkpt>
      <trkpt lat="41.4177793" lon="2.0849146">
        <ele>452.99996948</ele>
        <time>2022-10-30T08:54:23Z</time>
      </trkpt>
      <trkpt lat="41.4177773" lon="2.0849057">
        <ele>453.15997314</ele>
        <time>2022-10-30T08:54:24Z</time>
      </trkpt>
      <trkpt lat="41.4177693" lon="2.0849017">
        <ele>453.33996582</ele>
        <time>2022-10-30T08:54:25Z</time>
      </trkpt>
      <trkpt lat="41.4177574" lon="2.0848868">
        <ele>453.49996948</ele>
        <time>2022-10-30T08:54:26Z</time>
      </trkpt>
      <trkpt lat="41.4177474" lon="2.0848638">
        <ele>453.69998169</ele>
        <time>2022-10-30T08:54:27Z</time>
      </trkpt>
      <trkpt lat="41.4177415" lon="2.0848478">
        <ele>453.91998291</ele>
        <time>2022-10-30T08:54:28Z</time>
      </trkpt>
      <trkpt lat="41.4177346" lon="2.0848339">
        <ele>454.19998169</ele>
        <time>2022-10-30T08:54:29Z</time>
      </trkpt>
      <trkpt lat="41.4177246" lon="2.0848229">
        <ele>454.50997925</ele>
        <time>2022-10-30T08:54:30Z</time>
      </trkpt>
      <trkpt lat="41.4177196" lon="2.084812">
        <ele>454.79998779</ele>
        <time>2022-10-30T08:54:31Z</time>
      </trkpt>
      <trkpt lat="41.4177157" lon="2.084795">
        <ele>455.11999512</ele>
        <time>2022-10-30T08:54:32Z</time>
      </trkpt>
      <trkpt lat="41.4177117" lon="2.0847801">
        <ele>455.38000488</ele>
        <time>2022-10-30T08:54:33Z</time>
      </trkpt>
      <trkpt lat="41.4177058" lon="2.0847571">
        <ele>455.66000366</ele>
        <time>2022-10-30T08:54:34Z</time>
      </trkpt>
      <trkpt lat="41.4177029" lon="2.0847322">
        <ele>455.95999146</ele>
        <time>2022-10-30T08:54:35Z</time>
      </trkpt>
      <trkpt lat="41.417676" lon="2.0847112">
        <ele>456.23999023</ele>
        <time>2022-10-30T08:54:36Z</time>
      </trkpt>
      <trkpt lat="41.4176731" lon="2.0846933">
        <ele>456.53997803</ele>
        <time>2022-10-30T08:54:37Z</time>
      </trkpt>
      <trkpt lat="41.4176661" lon="2.0846703">
        <ele>456.79998779</ele>
        <time>2022-10-30T08:54:38Z</time>
      </trkpt>
      <trkpt lat="41.4176551" lon="2.0846554">
        <ele>457.06997681</ele>
        <time>2022-10-30T08:54:39Z</time>
      </trkpt>
      <trkpt lat="41.4176402" lon="2.0846454">
        <ele>457.32998657</ele>
        <time>2022-10-30T08:54:40Z</time>
      </trkpt>
      <trkpt lat="41.4176203" lon="2.0846375">
        <ele>457.55999756</ele>
        <time>2022-10-30T08:54:41Z</time>
      </trkpt>
      <trkpt lat="41.4176093" lon="2.0846235">
        <ele>457.79000854</ele>
        <time>2022-10-30T08:54:42Z</time>
      </trkpt>
      <trkpt lat="41.4176113" lon="2.0845986">
        <ele>458.04000854</ele>
        <time>2022-10-30T08:54:43Z</time>
      </trkpt>
      <trkpt lat="41.4175963" lon="2.0845777">
        <ele>458.27999878</ele>
        <time>2022-10-30T08:54:44Z</time>
      </trkpt>
      <trkpt lat="41.4175844" lon="2.0845567">
        <ele>458.51000977</ele>
        <time>2022-10-30T08:54:45Z</time>
      </trkpt>
      <trkpt lat="41.4175714" lon="2.0845328">
        <ele>458.68002319</ele>
        <time>2022-10-30T08:54:46Z</time>
      </trkpt>
      <trkpt lat="41.4175604" lon="2.0845239">
        <ele>458.77001953</ele>
        <time>2022-10-30T08:54:47Z</time>
      </trkpt>
      <trkpt lat="41.4175425" lon="2.0845149">
        <ele>458.87002563</ele>
        <time>2022-10-30T08:54:48Z</time>
      </trkpt>
      <trkpt lat="41.4175306" lon="2.084498">
        <ele>458.98001099</ele>
        <time>2022-10-30T08:54:49Z</time>
      </trkpt>
      <trkpt lat="41.4175217" lon="2.0844701">
        <ele>459.08999634</ele>
        <time>2022-10-30T08:54:50Z</time>
      </trkpt>
      <trkpt lat="41.4175107" lon="2.0844611">
        <ele>459.25</ele>
        <time>2022-10-30T08:54:51Z</time>
      </trkpt>
      <trkpt lat="41.4175017" lon="2.0844451">
        <ele>459.41000366</ele>
        <time>2022-10-30T08:54:52Z</time>
      </trkpt>
      <trkpt lat="41.4174988" lon="2.0844282">
        <ele>459.52999878</ele>
        <time>2022-10-30T08:54:53Z</time>
      </trkpt>
      <trkpt lat="41.4175017" lon="2.0844003">
        <ele>459.66000366</ele>
        <time>2022-10-30T08:54:54Z</time>
      </trkpt>
      <trkpt lat="41.4174978" lon="2.0843913">
        <ele>459.73001099</ele>
        <time>2022-10-30T08:54:55Z</time>
      </trkpt>
      <trkpt lat="41.4174878" lon="2.0843774">
        <ele>459.80001831</ele>
        <time>2022-10-30T08:54:56Z</time>
      </trkpt>
      <trkpt lat="41.4174789" lon="2.0843585">
        <ele>459.90002441</ele>
        <time>2022-10-30T08:54:57Z</time>
      </trkpt>
      <trkpt lat="41.417467" lon="2.0843396">
        <ele>459.96002197</ele>
        <time>2022-10-30T08:54:58Z</time>
      </trkpt>
      <trkpt lat="41.417431" lon="2.0843376">
        <ele>460.02001953</ele>
        <time>2022-10-30T08:54:59Z</time>
      </trkpt>
      <trkpt lat="41.4174141" lon="2.0843267">
        <ele>460.05001831</ele>
        <time>2022-10-30T08:55:00Z</time>
      </trkpt>
      <trkpt lat="41.4173972" lon="2.0843227">
        <ele>460.0300293</ele>
        <time>2022-10-30T08:55:01Z</time>
      </trkpt>
      <trkpt lat="41.4173803" lon="2.0843187">
        <ele>460.0300293</ele>
        <time>2022-10-30T08:55:02Z</time>
      </trkpt>
      <trkpt lat="41.4173464" lon="2.0842828">
        <ele>459.97003174</ele>
        <time>2022-10-30T08:55:03Z</time>
      </trkpt>
      <trkpt lat="41.4173164" lon="2.0842579">
        <ele>459.87002563</ele>
        <time>2022-10-30T08:55:04Z</time>
      </trkpt>
      <trkpt lat="41.4172865" lon="2.0842429">
        <ele>459.73001099</ele>
        <time>2022-10-30T08:55:05Z</time>
      </trkpt>
      <trkpt lat="41.4172595" lon="2.084222">
        <ele>459.5</ele>
        <time>2022-10-30T08:55:06Z</time>
      </trkpt>
      <trkpt lat="41.4172345" lon="2.0842031">
        <ele>459.32000732</ele>
        <time>2022-10-30T08:55:07Z</time>
      </trkpt>
      <trkpt lat="41.4171856" lon="2.0841711">
        <ele>459.11001587</ele>
        <time>2022-10-30T08:55:08Z</time>
      </trkpt>
      <trkpt lat="41.4171586" lon="2.0841411">
        <ele>458.90002441</ele>
        <time>2022-10-30T08:55:09Z</time>
      </trkpt>
      <trkpt lat="41.4171226" lon="2.0841052">
        <ele>458.80001831</ele>
        <time>2022-10-30T08:55:10Z</time>
      </trkpt>
      <trkpt lat="41.4170837" lon="2.0840773">
        <ele>458.56002808</ele>
        <time>2022-10-30T08:55:11Z</time>
      </trkpt>
      <trkpt lat="41.4170637" lon="2.0840423">
        <ele>458.36001587</ele>
        <time>2022-10-30T08:55:12Z</time>
      </trkpt>
      <trkpt lat="41.4170348" lon="2.0839823">
        <ele>458.23001099</ele>
        <time>2022-10-30T08:55:13Z</time>
      </trkpt>
      <trkpt lat="41.4170098" lon="2.0839473">
        <ele>458.12002563</ele>
        <time>2022-10-30T08:55:14Z</time>
      </trkpt>
      <trkpt lat="41.4169809" lon="2.0839064">
        <ele>458.11001587</ele>
        <time>2022-10-30T08:55:15Z</time>
      </trkpt>
      <trkpt lat="41.416964" lon="2.0838695">
        <ele>458.11001587</ele>
        <time>2022-10-30T08:55:16Z</time>
      </trkpt>
      <trkpt lat="41.4169461" lon="2.0838326">
        <ele>458.14001465</ele>
        <time>2022-10-30T08:55:17Z</time>
      </trkpt>
      <trkpt lat="41.4169201" lon="2.0837856">
        <ele>458.18002319</ele>
        <time>2022-10-30T08:55:18Z</time>
      </trkpt>
      <trkpt lat="41.4169301" lon="2.0837527">
        <ele>458.25003052</ele>
        <time>2022-10-30T08:55:19Z</time>
      </trkpt>
      <trkpt lat="41.4169281" lon="2.0837197">
        <ele>458.37002563</ele>
        <time>2022-10-30T08:55:20Z</time>
      </trkpt>
      <trkpt lat="41.4169222" lon="2.0836888">
        <ele>458.42001343</ele>
        <time>2022-10-30T08:55:21Z</time>
      </trkpt>
      <trkpt lat="41.4169122" lon="2.0836579">
        <ele>458.47000122</ele>
        <time>2022-10-30T08:55:22Z</time>
      </trkpt>
      <trkpt lat="41.4169083" lon="2.0836409">
        <ele>458.48999023</ele>
        <time>2022-10-30T08:55:23Z</time>
      </trkpt>
      <trkpt lat="41.4169003" lon="2.08361">
        <ele>458.30999756</ele>
        <time>2022-10-30T08:55:24Z</time>
      </trkpt>
      <trkpt lat="41.4168813" lon="2.083568">
        <ele>458.08999634</ele>
        <time>2022-10-30T08:55:25Z</time>
      </trkpt>
      <trkpt lat="41.4168374" lon="2.083516">
        <ele>457.63998413</ele>
        <time>2022-10-30T08:55:26Z</time>
      </trkpt>
      <trkpt lat="41.4168074" lon="2.0834841">
        <ele>457.09997559</ele>
        <time>2022-10-30T08:55:27Z</time>
      </trkpt>
      <trkpt lat="41.4167714" lon="2.0834511">
        <ele>456.57998657</ele>
        <time>2022-10-30T08:55:28Z</time>
      </trkpt>
      <trkpt lat="41.4167495" lon="2.0834232">
        <ele>456.07998657</ele>
        <time>2022-10-30T08:55:29Z</time>
      </trkpt>
      <trkpt lat="41.4167175" lon="2.0833972">
        <ele>455.73999023</ele>
        <time>2022-10-30T08:55:30Z</time>
      </trkpt>
      <trkpt lat="41.4166626" lon="2.0833582">
        <ele>455.44998169</ele>
        <time>2022-10-30T08:55:31Z</time>
      </trkpt>
      <trkpt lat="41.4166266" lon="2.0833292">
        <ele>455.30996704</ele>
        <time>2022-10-30T08:55:32Z</time>
      </trkpt>
      <trkpt lat="41.4165806" lon="2.0833143">
        <ele>455.20996094</ele>
        <time>2022-10-30T08:55:33Z</time>
      </trkpt>
      <trkpt lat="41.4165307" lon="2.0832954">
        <ele>455.09997559</ele>
        <time>2022-10-30T08:55:34Z</time>
      </trkpt>
      <trkpt lat="41.4164587" lon="2.0832404">
        <ele>454.97998047</ele>
        <time>2022-10-30T08:55:35Z</time>
      </trkpt>
      <trkpt lat="41.4164068" lon="2.0831995">
        <ele>454.68997192</ele>
        <time>2022-10-30T08:55:36Z</time>
      </trkpt>
      <trkpt lat="41.4163618" lon="2.0831545">
        <ele>454.27996826</ele>
        <time>2022-10-30T08:55:37Z</time>
      </trkpt>
      <trkpt lat="41.4163048" lon="2.0831146">
        <ele>453.7199707</ele>
        <time>2022-10-30T08:55:38Z</time>
      </trkpt>
      <trkpt lat="41.4161919" lon="2.0830427">
        <ele>453.02996826</ele>
        <time>2022-10-30T08:55:39Z</time>
      </trkpt>
      <trkpt lat="41.4161359" lon="2.0829897">
        <ele>452.47998047</ele>
        <time>2022-10-30T08:55:40Z</time>
      </trkpt>
      <trkpt lat="41.416089" lon="2.0829468">
        <ele>452.12997437</ele>
        <time>2022-10-30T08:55:41Z</time>
      </trkpt>
      <trkpt lat="41.416056" lon="2.0829138">
        <ele>452.1199646</ele>
        <time>2022-10-30T08:55:42Z</time>
      </trkpt>
      <trkpt lat="41.4160331" lon="2.0828908">
        <ele>452.48995972</ele>
        <time>2022-10-30T08:55:43Z</time>
      </trkpt>
      <trkpt lat="41.4159971" lon="2.0828729">
        <ele>453.09994507</ele>
        <time>2022-10-30T08:55:44Z</time>
      </trkpt>
      <trkpt lat="41.4159742" lon="2.0828719">
        <ele>453.77993774</ele>
        <time>2022-10-30T08:55:45Z</time>
      </trkpt>
      <trkpt lat="41.4159543" lon="2.082858">
        <ele>454.3899231</ele>
        <time>2022-10-30T08:55:46Z</time>
      </trkpt>
      <trkpt lat="41.4159363" lon="2.0828431">
        <ele>454.84991455</ele>
        <time>2022-10-30T08:55:47Z</time>
      </trkpt>
      <trkpt lat="41.4159234" lon="2.0828341">
        <ele>455.22991943</ele>
        <time>2022-10-30T08:55:48Z</time>
      </trkpt>
      <trkpt lat="41.4159044" lon="2.0828122">
        <ele>455.54992676</ele>
        <time>2022-10-30T08:55:49Z</time>
      </trkpt>
      <trkpt lat="41.4158904" lon="2.0828033">
        <ele>455.86993408</ele>
        <time>2022-10-30T08:55:50Z</time>
      </trkpt>
      <trkpt lat="41.4158774" lon="2.0827933">
        <ele>456.20993042</ele>
        <time>2022-10-30T08:55:51Z</time>
      </trkpt>
      <trkpt lat="41.4158694" lon="2.0827794">
        <ele>456.52993774</ele>
        <time>2022-10-30T08:55:52Z</time>
      </trkpt>
      <trkpt lat="41.4158515" lon="2.0827644">
        <ele>456.87994385</ele>
        <time>2022-10-30T08:55:53Z</time>
      </trkpt>
      <trkpt lat="41.4158506" lon="2.0827535">
        <ele>457.22994995</ele>
        <time>2022-10-30T08:55:54Z</time>
      </trkpt>
      <trkpt lat="41.4158426" lon="2.0827305">
        <ele>457.63995361</ele>
        <time>2022-10-30T08:55:55Z</time>
      </trkpt>
      <trkpt lat="41.4158337" lon="2.0827086">
        <ele>458.00994873</ele>
        <time>2022-10-30T08:55:56Z</time>
      </trkpt>
      <trkpt lat="41.4158247" lon="2.0826886">
        <ele>458.38995361</ele>
        <time>2022-10-30T08:55:57Z</time>
      </trkpt>
      <trkpt lat="41.4158128" lon="2.0826577">
        <ele>458.77996826</ele>
        <time>2022-10-30T08:55:58Z</time>
      </trkpt>
      <trkpt lat="41.4158048" lon="2.0826458">
        <ele>459.12997437</ele>
        <time>2022-10-30T08:55:59Z</time>
      </trkpt>
      <trkpt lat="41.4158009" lon="2.0826258">
        <ele>459.52996826</ele>
        <time>2022-10-30T08:56:00Z</time>
      </trkpt>
      <trkpt lat="41.4157939" lon="2.0826009">
        <ele>459.84997559</ele>
        <time>2022-10-30T08:56:01Z</time>
      </trkpt>
      <trkpt lat="41.415783" lon="2.082564">
        <ele>460.17996216</ele>
        <time>2022-10-30T08:56:02Z</time>
      </trkpt>
      <trkpt lat="41.415783" lon="2.08254">
        <ele>460.43997192</ele>
        <time>2022-10-30T08:56:03Z</time>
      </trkpt>
      <trkpt lat="41.4157849" lon="2.082514">
        <ele>460.69998169</ele>
        <time>2022-10-30T08:56:04Z</time>
      </trkpt>
      <trkpt lat="41.415784" lon="2.0824881">
        <ele>460.94998169</ele>
        <time>2022-10-30T08:56:05Z</time>
      </trkpt>
      <trkpt lat="41.415768" lon="2.0824541">
        <ele>461.13998413</ele>
        <time>2022-10-30T08:56:06Z</time>
      </trkpt>
      <trkpt lat="41.4157581" lon="2.0824332">
        <ele>461.33999634</ele>
        <time>2022-10-30T08:56:07Z</time>
      </trkpt>
      <trkpt lat="41.4157471" lon="2.0824213">
        <ele>461.51000977</ele>
        <time>2022-10-30T08:56:08Z</time>
      </trkpt>
      <trkpt lat="41.415748" lon="2.0824024">
        <ele>461.64001465</ele>
        <time>2022-10-30T08:56:09Z</time>
      </trkpt>
      <trkpt lat="41.4157451" lon="2.0823894">
        <ele>461.67001343</ele>
        <time>2022-10-30T08:56:10Z</time>
      </trkpt>
      <trkpt lat="41.4157431" lon="2.0823684">
        <ele>461.71002197</ele>
        <time>2022-10-30T08:56:11Z</time>
      </trkpt>
      <trkpt lat="41.4157302" lon="2.0823524">
        <ele>461.71002197</ele>
        <time>2022-10-30T08:56:12Z</time>
      </trkpt>
      <trkpt lat="41.4157182" lon="2.0823364">
        <ele>461.67001343</ele>
        <time>2022-10-30T08:56:13Z</time>
      </trkpt>
      <trkpt lat="41.4157083" lon="2.0823155">
        <ele>461.63000488</ele>
        <time>2022-10-30T08:56:14Z</time>
      </trkpt>
      <trkpt lat="41.4156964" lon="2.0822946">
        <ele>461.54000854</ele>
        <time>2022-10-30T08:56:15Z</time>
      </trkpt>
      <trkpt lat="41.4156774" lon="2.0822596">
        <ele>461.46002197</ele>
        <time>2022-10-30T08:56:16Z</time>
      </trkpt>
      <trkpt lat="41.4156545" lon="2.0822336">
        <ele>461.42001343</ele>
        <time>2022-10-30T08:56:17Z</time>
      </trkpt>
      <trkpt lat="41.4156335" lon="2.0822166">
        <ele>461.42001343</ele>
        <time>2022-10-30T08:56:18Z</time>
      </trkpt>
      <trkpt lat="41.4156166" lon="2.0822036">
        <ele>461.45001221</ele>
        <time>2022-10-30T08:56:19Z</time>
      </trkpt>
      <trkpt lat="41.4155976" lon="2.0821847">
        <ele>461.45001221</ele>
        <time>2022-10-30T08:56:20Z</time>
      </trkpt>
      <trkpt lat="41.4155907" lon="2.0821638">
        <ele>461.45001221</ele>
        <time>2022-10-30T08:56:21Z</time>
      </trkpt>
      <trkpt lat="41.4155788" lon="2.0821449">
        <ele>461.45001221</ele>
        <time>2022-10-30T08:56:22Z</time>
      </trkpt>
      <trkpt lat="41.4155619" lon="2.08212">
        <ele>461.45001221</ele>
        <time>2022-10-30T08:56:23Z</time>
      </trkpt>
      <trkpt lat="41.4155409" lon="2.08209">
        <ele>461.45001221</ele>
        <time>2022-10-30T08:56:24Z</time>
      </trkpt>
      <trkpt lat="41.4155049" lon="2.0820621">
        <ele>461.49002075</ele>
        <time>2022-10-30T08:56:25Z</time>
      </trkpt>
      <trkpt lat="41.415471" lon="2.0820382">
        <ele>461.58001709</ele>
        <time>2022-10-30T08:56:26Z</time>
      </trkpt>
      <trkpt lat="41.415446" lon="2.0820122">
        <ele>461.69000244</ele>
        <time>2022-10-30T08:56:27Z</time>
      </trkpt>
      <trkpt lat="41.4154181" lon="2.0819802">
        <ele>461.82000732</ele>
        <time>2022-10-30T08:56:28Z</time>
      </trkpt>
      <trkpt lat="41.4153871" lon="2.0819342">
        <ele>461.94000244</ele>
        <time>2022-10-30T08:56:29Z</time>
      </trkpt>
      <trkpt lat="41.4153602" lon="2.0819052">
        <ele>462</ele>
        <time>2022-10-30T08:56:30Z</time>
      </trkpt>
      <trkpt lat="41.4153453" lon="2.0818813">
        <ele>462.04000854</ele>
        <time>2022-10-30T08:56:31Z</time>
      </trkpt>
      <trkpt lat="41.4153313" lon="2.0818703">
        <ele>462.05999756</ele>
        <time>2022-10-30T08:56:32Z</time>
      </trkpt>
      <trkpt lat="41.4153063" lon="2.0818394">
        <ele>462.07998657</ele>
        <time>2022-10-30T08:56:33Z</time>
      </trkpt>
      <trkpt lat="41.4152853" lon="2.0818205">
        <ele>462.13998413</ele>
        <time>2022-10-30T08:56:34Z</time>
      </trkpt>
      <trkpt lat="41.4152734" lon="2.0817956">
        <ele>462.2199707</ele>
        <time>2022-10-30T08:56:35Z</time>
      </trkpt>
      <trkpt lat="41.4152675" lon="2.0817737">
        <ele>462.31997681</ele>
        <time>2022-10-30T08:56:36Z</time>
      </trkpt>
      <trkpt lat="41.4152666" lon="2.0817477">
        <ele>462.44998169</ele>
        <time>2022-10-30T08:56:37Z</time>
      </trkpt>
      <trkpt lat="41.4152576" lon="2.0817127">
        <ele>462.56997681</ele>
        <time>2022-10-30T08:56:38Z</time>
      </trkpt>
      <trkpt lat="41.4152436" lon="2.0816897">
        <ele>462.67996216</ele>
        <time>2022-10-30T08:56:39Z</time>
      </trkpt>
      <trkpt lat="41.4152465" lon="2.0816628">
        <ele>462.74996948</ele>
        <time>2022-10-30T08:56:40Z</time>
      </trkpt>
      <trkpt lat="41.4152505" lon="2.0816398">
        <ele>462.79995728</ele>
        <time>2022-10-30T08:56:41Z</time>
      </trkpt>
      <trkpt lat="41.4152355" lon="2.0816089">
        <ele>462.83996582</ele>
        <time>2022-10-30T08:56:42Z</time>
      </trkpt>
      <trkpt lat="41.4152136" lon="2.0815979">
        <ele>462.83996582</ele>
        <time>2022-10-30T08:56:43Z</time>
      </trkpt>
      <trkpt lat="41.4152006" lon="2.081581">
        <ele>462.8699646</ele>
        <time>2022-10-30T08:56:44Z</time>
      </trkpt>
      <trkpt lat="41.4151837" lon="2.081557">
        <ele>462.8699646</ele>
        <time>2022-10-30T08:56:45Z</time>
      </trkpt>
      <trkpt lat="41.4151578" lon="2.0815331">
        <ele>462.8699646</ele>
        <time>2022-10-30T08:56:46Z</time>
      </trkpt>
      <trkpt lat="41.4151179" lon="2.0815061">
        <ele>462.8699646</ele>
        <time>2022-10-30T08:56:47Z</time>
      </trkpt>
      <trkpt lat="41.415087" lon="2.0814872">
        <ele>462.80996704</ele>
        <time>2022-10-30T08:56:48Z</time>
      </trkpt>
      <trkpt lat="41.415059" lon="2.0814582">
        <ele>462.67996216</ele>
        <time>2022-10-30T08:56:49Z</time>
      </trkpt>
      <trkpt lat="41.415036" lon="2.0814323">
        <ele>462.42996216</ele>
        <time>2022-10-30T08:56:50Z</time>
      </trkpt>
      <trkpt lat="41.4149851" lon="2.0813923">
        <ele>462.05996704</ele>
        <time>2022-10-30T08:56:51Z</time>
      </trkpt>
      <trkpt lat="41.4149522" lon="2.0813594">
        <ele>461.74996948</ele>
        <time>2022-10-30T08:56:52Z</time>
      </trkpt>
      <trkpt lat="41.4149202" lon="2.0813304">
        <ele>461.39996338</ele>
        <time>2022-10-30T08:56:53Z</time>
      </trkpt>
      <trkpt lat="41.4148933" lon="2.0812984">
        <ele>461.14996338</ele>
        <time>2022-10-30T08:56:54Z</time>
      </trkpt>
      <trkpt lat="41.4148723" lon="2.0812645">
        <ele>461.00994873</ele>
        <time>2022-10-30T08:56:55Z</time>
      </trkpt>
      <trkpt lat="41.4148404" lon="2.0811985">
        <ele>460.89996338</ele>
        <time>2022-10-30T08:56:56Z</time>
      </trkpt>
      <trkpt lat="41.4148235" lon="2.0811566">
        <ele>460.90997314</ele>
        <time>2022-10-30T08:56:57Z</time>
      </trkpt>
      <trkpt lat="41.4148165" lon="2.0811186">
        <ele>460.9699707</ele>
        <time>2022-10-30T08:56:58Z</time>
      </trkpt>
      <trkpt lat="41.4148175" lon="2.0810897">
        <ele>461.04995728</ele>
        <time>2022-10-30T08:56:59Z</time>
      </trkpt>
      <trkpt lat="41.4148105" lon="2.0810737">
        <ele>461.06994629</ele>
        <time>2022-10-30T08:57:00Z</time>
      </trkpt>
      <trkpt lat="41.4148046" lon="2.0810567">
        <ele>461.09994507</ele>
        <time>2022-10-30T08:57:01Z</time>
      </trkpt>
      <trkpt lat="41.4148017" lon="2.0810437">
        <ele>461.10995483</ele>
        <time>2022-10-30T08:57:02Z</time>
      </trkpt>
      <trkpt lat="41.4148037" lon="2.0810388">
        <ele>461.09994507</ele>
        <time>2022-10-30T08:57:03Z</time>
      </trkpt>
      <trkpt lat="41.414771" lon="2.081069">
        <ele>460.58999634</ele>
        <time>2022-10-30T08:58:45Z</time>
      </trkpt>
      <trkpt lat="41.4147719" lon="2.081089">
        <ele>460.54000854</ele>
        <time>2022-10-30T08:58:46Z</time>
      </trkpt>
      <trkpt lat="41.4147699" lon="2.081103">
        <ele>460.46002197</ele>
        <time>2022-10-30T08:58:47Z</time>
      </trkpt>
      <trkpt lat="41.4147799" lon="2.0811039">
        <ele>460.41003418</ele>
        <time>2022-10-30T08:58:48Z</time>
      </trkpt>
      <trkpt lat="41.4147849" lon="2.081095">
        <ele>460.36004639</ele>
        <time>2022-10-30T08:58:49Z</time>
      </trkpt>
      <trkpt lat="41.4147888" lon="2.0810731">
        <ele>460.3800354</ele>
        <time>2022-10-30T08:58:50Z</time>
      </trkpt>
      <trkpt lat="41.4147888" lon="2.0810452">
        <ele>460.41003418</ele>
        <time>2022-10-30T08:58:51Z</time>
      </trkpt>
      <trkpt lat="41.4147849" lon="2.0810233">
        <ele>460.41003418</ele>
        <time>2022-10-30T08:58:52Z</time>
      </trkpt>
      <trkpt lat="41.4147749" lon="2.0809993">
        <ele>460.43002319</ele>
        <time>2022-10-30T08:58:53Z</time>
      </trkpt>
      <trkpt lat="41.4147669" lon="2.0810043">
        <ele>460.3800354</ele>
        <time>2022-10-30T08:58:54Z</time>
      </trkpt>
      <trkpt lat="41.4147669" lon="2.0810132">
        <ele>460.3800354</ele>
        <time>2022-10-30T08:58:55Z</time>
      </trkpt>
      <trkpt lat="41.4147698" lon="2.0810292">
        <ele>460.41003418</ele>
        <time>2022-10-30T08:58:56Z</time>
      </trkpt>
      <trkpt lat="41.4147808" lon="2.0810422">
        <ele>460.46002197</ele>
        <time>2022-10-30T08:58:57Z</time>
      </trkpt>
      <trkpt lat="41.4147908" lon="2.0810751">
        <ele>460.46002197</ele>
        <time>2022-10-30T08:58:58Z</time>
      </trkpt>
      <trkpt lat="41.4147958" lon="2.0810921">
        <ele>460.42001343</ele>
        <time>2022-10-30T08:58:59Z</time>
      </trkpt>
      <trkpt lat="41.4148077" lon="2.0810991">
        <ele>460.40002441</ele>
        <time>2022-10-30T08:59:00Z</time>
      </trkpt>
      <trkpt lat="41.4148226" lon="2.081108">
        <ele>460.41003418</ele>
        <time>2022-10-30T08:59:01Z</time>
      </trkpt>
      <trkpt lat="41.4148255" lon="2.0811229">
        <ele>460.46002197</ele>
        <time>2022-10-30T08:59:02Z</time>
      </trkpt>
      <trkpt lat="41.4148265" lon="2.0811299">
        <ele>460.5300293</ele>
        <time>2022-10-30T08:59:03Z</time>
      </trkpt>
      <trkpt lat="41.4148274" lon="2.0811388">
        <ele>460.57003784</ele>
        <time>2022-10-30T08:59:04Z</time>
      </trkpt>
      <trkpt lat="41.4148265" lon="2.0811428">
        <ele>460.60003662</ele>
        <time>2022-10-30T08:59:05Z</time>
      </trkpt>
      <trkpt lat="41.4148265" lon="2.0811409">
        <ele>460.64004517</ele>
        <time>2022-10-30T08:59:06Z</time>
      </trkpt>
      <trkpt lat="41.414775" lon="2.081085">
        <ele>460.43002319</ele>
        <time>2022-10-30T08:59:13Z</time>
      </trkpt>
      <trkpt lat="41.414785" lon="2.0810641">
        <ele>460.36001587</ele>
        <time>2022-10-30T08:59:14Z</time>
      </trkpt>
      <trkpt lat="41.414775" lon="2.0810411">
        <ele>460.3500061</ele>
        <time>2022-10-30T08:59:15Z</time>
      </trkpt>
      <trkpt lat="41.414756" lon="2.0810052">
        <ele>460.3500061</ele>
        <time>2022-10-30T08:59:16Z</time>
      </trkpt>
      <trkpt lat="41.4147461" lon="2.0809942">
        <ele>460.42999268</ele>
        <time>2022-10-30T08:59:17Z</time>
      </trkpt>
      <trkpt lat="41.4147241" lon="2.0809793">
        <ele>460.50997925</ele>
        <time>2022-10-30T08:59:18Z</time>
      </trkpt>
      <trkpt lat="41.4147051" lon="2.0809734">
        <ele>460.12997437</ele>
        <time>2022-10-30T08:59:19Z</time>
      </trkpt>
      <trkpt lat="41.4146941" lon="2.0809654">
        <ele>459.52996826</ele>
        <time>2022-10-30T08:59:20Z</time>
      </trkpt>
      <trkpt lat="41.4146912" lon="2.0809724">
        <ele>458.82995605</ele>
        <time>2022-10-30T08:59:21Z</time>
      </trkpt>
      <trkpt lat="41.4147869" lon="2.08102">
        <ele>459.72000122</ele>
        <time>2022-10-30T09:00:28Z</time>
      </trkpt>
      <trkpt lat="41.414781" lon="2.08103">
        <ele>459.67001343</ele>
        <time>2022-10-30T09:00:29Z</time>
      </trkpt>
      <trkpt lat="41.414785" lon="2.0810549">
        <ele>459.63000488</ele>
        <time>2022-10-30T09:00:30Z</time>
      </trkpt>
      <trkpt lat="41.4147869" lon="2.0810738">
        <ele>459.54000854</ele>
        <time>2022-10-30T09:00:31Z</time>
      </trkpt>
      <trkpt lat="41.4147939" lon="2.0810998">
        <ele>459.52001953</ele>
        <time>2022-10-30T09:00:32Z</time>
      </trkpt>
      <trkpt lat="41.41479" lon="2.0811027">
        <ele>459.55001831</ele>
        <time>2022-10-30T09:00:33Z</time>
      </trkpt>
      <trkpt lat="41.4147979" lon="2.0811127">
        <ele>459.55001831</ele>
        <time>2022-10-30T09:00:34Z</time>
      </trkpt>
      <trkpt lat="41.4148038" lon="2.0811166">
        <ele>459.55001831</ele>
        <time>2022-10-30T09:00:35Z</time>
      </trkpt>
      <trkpt lat="41.4148099" lon="2.081119">
        <ele>459.54000854</ele>
        <time>2022-10-30T09:00:36Z</time>
      </trkpt>
      <trkpt lat="41.4148348" lon="2.0811649">
        <ele>459.45001221</ele>
        <time>2022-10-30T09:00:44Z</time>
      </trkpt>
      <trkpt lat="41.4148368" lon="2.081154">
        <ele>459.44000244</ele>
        <time>2022-10-30T09:00:45Z</time>
      </trkpt>
      <trkpt lat="41.4148498" lon="2.081126">
        <ele>459.39001465</ele>
        <time>2022-10-30T09:00:46Z</time>
      </trkpt>
      <trkpt lat="41.4148498" lon="2.0811011">
        <ele>459.36001587</ele>
        <time>2022-10-30T09:00:47Z</time>
      </trkpt>
      <trkpt lat="41.4148379" lon="2.0810851">
        <ele>459.37002563</ele>
        <time>2022-10-30T09:00:48Z</time>
      </trkpt>
      <trkpt lat="41.4148189" lon="2.0810751">
        <ele>459.37002563</ele>
        <time>2022-10-30T09:00:49Z</time>
      </trkpt>
      <trkpt lat="41.4147839" lon="2.0810552">
        <ele>459.42001343</ele>
        <time>2022-10-30T09:00:50Z</time>
      </trkpt>
      <trkpt lat="41.414758" lon="2.0810352">
        <ele>459.23001099</ele>
        <time>2022-10-30T09:00:51Z</time>
      </trkpt>
      <trkpt lat="41.4147381" lon="2.0810282">
        <ele>458.61001587</ele>
        <time>2022-10-30T09:00:52Z</time>
      </trkpt>
      <trkpt lat="41.4147312" lon="2.0810253">
        <ele>457.93002319</ele>
        <time>2022-10-30T09:00:53Z</time>
      </trkpt>
      <trkpt lat="41.4147312" lon="2.0810134">
        <ele>457.2800293</ele>
        <time>2022-10-30T09:00:54Z</time>
      </trkpt>
      <trkpt lat="41.414777" lon="2.081027">
        <ele>459.57000732</ele>
        <time>2022-10-30T09:01:20Z</time>
      </trkpt>
      <trkpt lat="41.4147809" lon="2.0810569">
        <ele>459.57000732</ele>
        <time>2022-10-30T09:01:21Z</time>
      </trkpt>
      <trkpt lat="41.4147819" lon="2.0810779">
        <ele>459.54000854</ele>
        <time>2022-10-30T09:01:22Z</time>
      </trkpt>
      <trkpt lat="41.41479" lon="2.0810949">
        <ele>459.38998413</ele>
        <time>2022-10-30T09:01:23Z</time>
      </trkpt>
      <trkpt lat="41.4147939" lon="2.0811068">
        <ele>459.26998901</ele>
        <time>2022-10-30T09:01:24Z</time>
      </trkpt>
      <trkpt lat="41.4148019" lon="2.0811208">
        <ele>459.22998047</ele>
        <time>2022-10-30T09:01:25Z</time>
      </trkpt>
      <trkpt lat="41.4148078" lon="2.0811357">
        <ele>458.1499939</ele>
        <time>2022-10-30T09:01:26Z</time>
      </trkpt>
      <trkpt lat="41.4148167" lon="2.0811338">
        <ele>458.23999023</ele>
        <time>2022-10-30T09:01:27Z</time>
      </trkpt>
      <trkpt lat="41.4148256" lon="2.0811268">
        <ele>458.35998535</ele>
        <time>2022-10-30T09:01:28Z</time>
      </trkpt>
      <trkpt lat="41.4148336" lon="2.0811278">
        <ele>458.4699707</ele>
        <time>2022-10-30T09:01:29Z</time>
      </trkpt>
      <trkpt lat="41.4148625" lon="2.0811378">
        <ele>458.69998169</ele>
        <time>2022-10-30T09:01:37Z</time>
      </trkpt>
      <trkpt lat="41.4148685" lon="2.0811248">
        <ele>458.65997314</ele>
        <time>2022-10-30T09:01:38Z</time>
      </trkpt>
      <trkpt lat="41.4148734" lon="2.0810999">
        <ele>458.59997559</ele>
        <time>2022-10-30T09:01:39Z</time>
      </trkpt>
      <trkpt lat="41.4148675" lon="2.0810739">
        <ele>458.60998535</ele>
        <time>2022-10-30T09:01:40Z</time>
      </trkpt>
      <trkpt lat="41.4148526" lon="2.0810469">
        <ele>458.65997314</ele>
        <time>2022-10-30T09:01:41Z</time>
      </trkpt>
      <trkpt lat="41.4148286" lon="2.081028">
        <ele>458.68997192</ele>
        <time>2022-10-30T09:01:42Z</time>
      </trkpt>
      <trkpt lat="41.4148017" lon="2.0810271">
        <ele>458.74996948</ele>
        <time>2022-10-30T09:01:43Z</time>
      </trkpt>
      <trkpt lat="41.4147547" lon="2.0810091">
        <ele>458.68997192</ele>
        <time>2022-10-30T09:01:44Z</time>
      </trkpt>
      <trkpt lat="41.4147318" lon="2.0809902">
        <ele>458.20996094</ele>
        <time>2022-10-30T09:01:45Z</time>
      </trkpt>
      <trkpt lat="41.414722" lon="2.0809761">
        <ele>457.57000732</ele>
        <time>2022-10-30T09:01:46Z</time>
      </trkpt>
      <trkpt lat="41.4147091" lon="2.0809741">
        <ele>456.8500061</ele>
        <time>2022-10-30T09:01:47Z</time>
      </trkpt>
      <trkpt lat="41.4146741" lon="2.0809032">
        <ele>456.32000732</ele>
        <time>2022-10-30T09:02:22Z</time>
      </trkpt>
      <trkpt lat="41.4146692" lon="2.080913">
        <ele>456.24002075</ele>
        <time>2022-10-30T09:02:24Z</time>
      </trkpt>
      <trkpt lat="41.414686" lon="2.080988">
        <ele>456.52999878</ele>
        <time>2022-10-30T09:05:14Z</time>
      </trkpt>
      <trkpt lat="41.4146939" lon="2.080989">
        <ele>456.54000854</ele>
        <time>2022-10-30T09:05:15Z</time>
      </trkpt>
      <trkpt lat="41.4147039" lon="2.0809929">
        <ele>456.58999634</ele>
        <time>2022-10-30T09:05:16Z</time>
      </trkpt>
      <trkpt lat="41.4147098" lon="2.080992">
        <ele>456.66000366</ele>
        <time>2022-10-30T09:05:17Z</time>
      </trkpt>
      <trkpt lat="41.4147598" lon="2.0810669">
        <ele>459.64001465</ele>
        <time>2022-10-30T09:05:50Z</time>
      </trkpt>
      <trkpt lat="41.4147667" lon="2.0810948">
        <ele>459.56002808</ele>
        <time>2022-10-30T09:05:51Z</time>
      </trkpt>
      <trkpt lat="41.4147747" lon="2.0811188">
        <ele>459.44003296</ele>
        <time>2022-10-30T09:05:52Z</time>
      </trkpt>
      <trkpt lat="41.4147797" lon="2.0811457">
        <ele>459.34002686</ele>
        <time>2022-10-30T09:05:53Z</time>
      </trkpt>
      <trkpt lat="41.4147836" lon="2.0811667">
        <ele>459.32003784</ele>
        <time>2022-10-30T09:05:54Z</time>
      </trkpt>
      <trkpt lat="41.4147916" lon="2.0811876">
        <ele>459.31002808</ele>
        <time>2022-10-30T09:05:55Z</time>
      </trkpt>
      <trkpt lat="41.4147986" lon="2.0811955">
        <ele>459.33001709</ele>
        <time>2022-10-30T09:05:56Z</time>
      </trkpt>
      <trkpt lat="41.4147976" lon="2.0811984">
        <ele>459.43002319</ele>
        <time>2022-10-30T09:05:57Z</time>
      </trkpt>
      <trkpt lat="41.4147947" lon="2.0811905">
        <ele>459.51000977</ele>
        <time>2022-10-30T09:06:05Z</time>
      </trkpt>
      <trkpt lat="41.4147908" lon="2.0811756">
        <ele>459.47000122</ele>
        <time>2022-10-30T09:06:06Z</time>
      </trkpt>
      <trkpt lat="41.4147828" lon="2.0811596">
        <ele>459.39001465</ele>
        <time>2022-10-30T09:06:07Z</time>
      </trkpt>
      <trkpt lat="41.4147789" lon="2.0811326">
        <ele>459.32000732</ele>
        <time>2022-10-30T09:06:08Z</time>
      </trkpt>
      <trkpt lat="41.4147779" lon="2.0810827">
        <ele>459.27001953</ele>
        <time>2022-10-30T09:06:09Z</time>
      </trkpt>
      <trkpt lat="41.414768" lon="2.0810497">
        <ele>459.26000977</ele>
        <time>2022-10-30T09:06:10Z</time>
      </trkpt>
      <trkpt lat="41.414754" lon="2.0810358">
        <ele>459.27999878</ele>
        <time>2022-10-30T09:06:11Z</time>
      </trkpt>
      <trkpt lat="41.414729" lon="2.0810158">
        <ele>459.32998657</ele>
        <time>2022-10-30T09:06:12Z</time>
      </trkpt>
      <trkpt lat="41.414682" lon="2.0809919">
        <ele>459.35998535</ele>
        <time>2022-10-30T09:06:13Z</time>
      </trkpt>
      <trkpt lat="41.4146551" lon="2.080989">
        <ele>458.92999268</ele>
        <time>2022-10-30T09:06:14Z</time>
      </trkpt>
      <trkpt lat="41.4146471" lon="2.0809899">
        <ele>458.30999756</ele>
        <time>2022-10-30T09:06:15Z</time>
      </trkpt>
      <trkpt lat="41.4146442" lon="2.080989">
        <ele>457.63000488</ele>
        <time>2022-10-30T09:06:16Z</time>
      </trkpt>
      <trkpt lat="41.414693" lon="2.080981">
        <ele>455.6000061</ele>
        <time>2022-10-30T09:06:47Z</time>
      </trkpt>
      <trkpt lat="41.4146989" lon="2.0809751">
        <ele>455.6000061</ele>
        <time>2022-10-30T09:06:48Z</time>
      </trkpt>
      <trkpt lat="41.4147018" lon="2.0809732">
        <ele>455.58001709</ele>
        <time>2022-10-30T09:06:49Z</time>
      </trkpt>
      <trkpt lat="41.4147038" lon="2.0809692">
        <ele>455.5300293</ele>
        <time>2022-10-30T09:06:50Z</time>
      </trkpt>
      <trkpt lat="41.4147109" lon="2.0809501">
        <ele>455.67001343</ele>
        <time>2022-10-30T09:07:05Z</time>
      </trkpt>
      <trkpt lat="41.4147119" lon="2.0809412">
        <ele>455.66000366</ele>
        <time>2022-10-30T09:07:06Z</time>
      </trkpt>
      <trkpt lat="41.4147099" lon="2.0809372">
        <ele>455.61001587</ele>
        <time>2022-10-30T09:07:07Z</time>
      </trkpt>
      <trkpt lat="41.4147138" lon="2.0809262">
        <ele>455.66000366</ele>
        <time>2022-10-30T09:07:08Z</time>
      </trkpt>
      <trkpt lat="41.4147198" lon="2.0809253">
        <ele>455.61001587</ele>
        <time>2022-10-30T09:07:09Z</time>
      </trkpt>
      <trkpt lat="41.4147247" lon="2.0809262">
        <ele>455.6000061</ele>
        <time>2022-10-30T09:07:10Z</time>
      </trkpt>
      <trkpt lat="41.414745" lon="2.08094">
        <ele>455.92001343</ele>
        <time>2022-10-30T09:07:14Z</time>
      </trkpt>
      <trkpt lat="41.4147499" lon="2.0809419">
        <ele>456.07000732</ele>
        <time>2022-10-30T09:07:15Z</time>
      </trkpt>
      <trkpt lat="41.4147579" lon="2.080939">
        <ele>456.24002075</ele>
        <time>2022-10-30T09:07:16Z</time>
      </trkpt>
      <trkpt lat="41.4147638" lon="2.0809271">
        <ele>456.48001099</ele>
        <time>2022-10-30T09:07:17Z</time>
      </trkpt>
      <trkpt lat="41.414785" lon="2.0809299">
        <ele>457.16000366</ele>
        <time>2022-10-30T09:07:20Z</time>
      </trkpt>
      <trkpt lat="41.4148049" lon="2.0809318">
        <ele>457.38000488</ele>
        <time>2022-10-30T09:07:21Z</time>
      </trkpt>
      <trkpt lat="41.4148088" lon="2.0809358">
        <ele>457.6000061</ele>
        <time>2022-10-30T09:07:22Z</time>
      </trkpt>
      <trkpt lat="41.4148059" lon="2.0809477">
        <ele>457.8500061</ele>
        <time>2022-10-30T09:07:23Z</time>
      </trkpt>
      <trkpt lat="41.4148119" lon="2.0810079">
        <ele>457.88998413</ele>
        <time>2022-10-30T09:07:27Z</time>
      </trkpt>
      <trkpt lat="41.4148159" lon="2.0810258">
        <ele>457.86999512</ele>
        <time>2022-10-30T09:07:28Z</time>
      </trkpt>
      <trkpt lat="41.4148239" lon="2.0810477">
        <ele>457.86999512</ele>
        <time>2022-10-30T09:07:29Z</time>
      </trkpt>
      <trkpt lat="41.4148179" lon="2.0810816">
        <ele>457.85998535</ele>
        <time>2022-10-30T09:07:30Z</time>
      </trkpt>
      <trkpt lat="41.4148259" lon="2.0811026">
        <ele>457.84997559</ele>
        <time>2022-10-30T09:07:31Z</time>
      </trkpt>
      <trkpt lat="41.4148288" lon="2.0811186">
        <ele>457.87997437</ele>
        <time>2022-10-30T09:07:32Z</time>
      </trkpt>
      <trkpt lat="41.4148358" lon="2.0811275">
        <ele>457.89996338</ele>
        <time>2022-10-30T09:07:33Z</time>
      </trkpt>
      <trkpt lat="41.4148329" lon="2.0811384">
        <ele>457.84997559</ele>
        <time>2022-10-30T09:07:34Z</time>
      </trkpt>
      <trkpt lat="41.414816" lon="2.0811424">
        <ele>457.87997437</ele>
        <time>2022-10-30T09:07:35Z</time>
      </trkpt>
      <trkpt lat="41.4147869" lon="2.081124">
        <ele>458.04998779</ele>
        <time>2022-10-30T09:07:45Z</time>
      </trkpt>
      <trkpt lat="41.414776" lon="2.0811061">
        <ele>458</ele>
        <time>2022-10-30T09:07:46Z</time>
      </trkpt>
      <trkpt lat="41.414766" lon="2.0810801">
        <ele>457.89001465</ele>
        <time>2022-10-30T09:07:47Z</time>
      </trkpt>
      <trkpt lat="41.414753" lon="2.0810511">
        <ele>457.80001831</ele>
        <time>2022-10-30T09:07:48Z</time>
      </trkpt>
      <trkpt lat="41.4147351" lon="2.0810072">
        <ele>457.76000977</ele>
        <time>2022-10-30T09:07:49Z</time>
      </trkpt>
      <trkpt lat="41.4147221" lon="2.0809823">
        <ele>457.77999878</ele>
        <time>2022-10-30T09:07:50Z</time>
      </trkpt>
      <trkpt lat="41.4147042" lon="2.0809593">
        <ele>457.82000732</ele>
        <time>2022-10-30T09:07:51Z</time>
      </trkpt>
      <trkpt lat="41.4146703" lon="2.0809374">
        <ele>457.77001953</ele>
        <time>2022-10-30T09:07:52Z</time>
      </trkpt>
      <trkpt lat="41.4146253" lon="2.0809285">
        <ele>457.43002319</ele>
        <time>2022-10-30T09:07:53Z</time>
      </trkpt>
      <trkpt lat="41.4146173" lon="2.0809314">
        <ele>456.7800293</ele>
        <time>2022-10-30T09:07:54Z</time>
      </trkpt>
      <trkpt lat="41.4146123" lon="2.0809373">
        <ele>456.20004272</ele>
        <time>2022-10-30T09:07:55Z</time>
      </trkpt>
      <trkpt lat="41.414693" lon="2.08095">
        <ele>455.32998657</ele>
        <time>2022-10-30T09:09:14Z</time>
      </trkpt>
      <trkpt lat="41.4146959" lon="2.080946">
        <ele>455.31997681</ele>
        <time>2022-10-30T09:09:15Z</time>
      </trkpt>
      <trkpt lat="41.4146979" lon="2.0809479">
        <ele>455.28997803</ele>
        <time>2022-10-30T09:09:16Z</time>
      </trkpt>
      <trkpt lat="41.41465" lon="2.081035">
        <ele>454.73999023</ele>
        <time>2022-10-30T09:09:41Z</time>
      </trkpt>
      <trkpt lat="41.414635" lon="2.081043">
        <ele>454.63000488</ele>
        <time>2022-10-30T09:09:42Z</time>
      </trkpt>
      <trkpt lat="41.4146201" lon="2.0810509">
        <ele>454.33999634</ele>
        <time>2022-10-30T09:09:43Z</time>
      </trkpt>
      <trkpt lat="41.4146071" lon="2.0810579">
        <ele>453.76998901</ele>
        <time>2022-10-30T09:09:44Z</time>
      </trkpt>
      <trkpt lat="41.4146002" lon="2.0810649">
        <ele>453.13998413</ele>
        <time>2022-10-30T09:09:45Z</time>
      </trkpt>
      <trkpt lat="41.4145902" lon="2.0810788">
        <ele>452.37997437</ele>
        <time>2022-10-30T09:09:46Z</time>
      </trkpt>
      <trkpt lat="41.4145813" lon="2.0810699">
        <ele>451.62997437</ele>
        <time>2022-10-30T09:09:47Z</time>
      </trkpt>
      <trkpt lat="41.4145694" lon="2.081055">
        <ele>450.94998169</ele>
        <time>2022-10-30T09:09:48Z</time>
      </trkpt>
      <trkpt lat="41.4145584" lon="2.081038">
        <ele>450.25997925</ele>
        <time>2022-10-30T09:09:49Z</time>
      </trkpt>
      <trkpt lat="41.4145394" lon="2.081025">
        <ele>449.34997559</ele>
        <time>2022-10-30T09:09:50Z</time>
      </trkpt>
      <trkpt lat="41.4145394" lon="2.0810161">
        <ele>448.53997803</ele>
        <time>2022-10-30T09:09:51Z</time>
      </trkpt>
      <trkpt lat="41.4145265" lon="2.0810012">
        <ele>447.7199707</ele>
        <time>2022-10-30T09:09:52Z</time>
      </trkpt>
      <trkpt lat="41.4145005" lon="2.0809983">
        <ele>446.67996216</ele>
        <time>2022-10-30T09:09:53Z</time>
      </trkpt>
      <trkpt lat="41.4144726" lon="2.0809924">
        <ele>445.88995361</ele>
        <time>2022-10-30T09:09:54Z</time>
      </trkpt>
      <trkpt lat="41.4144576" lon="2.0809814">
        <ele>445.02996826</ele>
        <time>2022-10-30T09:09:55Z</time>
      </trkpt>
      <trkpt lat="41.4144367" lon="2.0809765">
        <ele>444.22998047</ele>
        <time>2022-10-30T09:09:56Z</time>
      </trkpt>
      <trkpt lat="41.4144168" lon="2.0809725">
        <ele>443.3999939</ele>
        <time>2022-10-30T09:09:57Z</time>
      </trkpt>
      <trkpt lat="41.4143908" lon="2.0809715">
        <ele>442.67999268</ele>
        <time>2022-10-30T09:09:58Z</time>
      </trkpt>
      <trkpt lat="41.4143709" lon="2.0809585">
        <ele>441.8500061</ele>
        <time>2022-10-30T09:09:59Z</time>
      </trkpt>
      <trkpt lat="41.4143599" lon="2.0809506">
        <ele>441.1000061</ele>
        <time>2022-10-30T09:10:00Z</time>
      </trkpt>
      <trkpt lat="41.41434" lon="2.0809466">
        <ele>440.58001709</ele>
        <time>2022-10-30T09:10:01Z</time>
      </trkpt>
      <trkpt lat="41.4143231" lon="2.0809387">
        <ele>440.0300293</ele>
        <time>2022-10-30T09:10:02Z</time>
      </trkpt>
      <trkpt lat="41.4143112" lon="2.0809317">
        <ele>439.7300415</ele>
        <time>2022-10-30T09:10:03Z</time>
      </trkpt>
      <trkpt lat="41.4142883" lon="2.0809068">
        <ele>439.34002686</ele>
        <time>2022-10-30T09:10:04Z</time>
      </trkpt>
      <trkpt lat="41.4142654" lon="2.0809127">
        <ele>438.69003296</ele>
        <time>2022-10-30T09:10:05Z</time>
      </trkpt>
      <trkpt lat="41.4142594" lon="2.0809117">
        <ele>437.80001831</ele>
        <time>2022-10-30T09:10:06Z</time>
      </trkpt>
      <trkpt lat="41.4142425" lon="2.0808998">
        <ele>436.49002075</ele>
        <time>2022-10-30T09:10:07Z</time>
      </trkpt>
      <trkpt lat="41.4142216" lon="2.0809027">
        <ele>435.14001465</ele>
        <time>2022-10-30T09:10:08Z</time>
      </trkpt>
      <trkpt lat="41.4142106" lon="2.0809176">
        <ele>434.07000732</ele>
        <time>2022-10-30T09:10:09Z</time>
      </trkpt>
      <trkpt lat="41.4141937" lon="2.0809286">
        <ele>433.25</ele>
        <time>2022-10-30T09:10:10Z</time>
      </trkpt>
      <trkpt lat="41.4141777" lon="2.0809525">
        <ele>432.76000977</ele>
        <time>2022-10-30T09:10:11Z</time>
      </trkpt>
      <trkpt lat="41.4141558" lon="2.0809795">
        <ele>432.36001587</ele>
        <time>2022-10-30T09:10:12Z</time>
      </trkpt>
      <trkpt lat="41.4141418" lon="2.0809934">
        <ele>431.92001343</ele>
        <time>2022-10-30T09:10:13Z</time>
      </trkpt>
      <trkpt lat="41.4141228" lon="2.0810074">
        <ele>431.46002197</ele>
        <time>2022-10-30T09:10:14Z</time>
      </trkpt>
      <trkpt lat="41.4141148" lon="2.0810234">
        <ele>430.95001221</ele>
        <time>2022-10-30T09:10:15Z</time>
      </trkpt>
      <trkpt lat="41.4140969" lon="2.0810494">
        <ele>430.43002319</ele>
        <time>2022-10-30T09:10:16Z</time>
      </trkpt>
      <trkpt lat="41.4140749" lon="2.0810643">
        <ele>429.94003296</ele>
        <time>2022-10-30T09:10:17Z</time>
      </trkpt>
      <trkpt lat="41.4140818" lon="2.0810573">
        <ele>429.57003784</ele>
        <time>2022-10-30T09:10:18Z</time>
      </trkpt>
      <trkpt lat="41.4140928" lon="2.0810464">
        <ele>429.31002808</ele>
        <time>2022-10-30T09:10:19Z</time>
      </trkpt>
      <trkpt lat="41.4140968" lon="2.0810264">
        <ele>429.12002563</ele>
        <time>2022-10-30T09:10:20Z</time>
      </trkpt>
      <trkpt lat="41.4141157" lon="2.0810024">
        <ele>429.09002686</ele>
        <time>2022-10-30T09:10:21Z</time>
      </trkpt>
      <trkpt lat="41.4141477" lon="2.0809835">
        <ele>429.0300293</ele>
        <time>2022-10-30T09:10:22Z</time>
      </trkpt>
      <trkpt lat="41.4141557" lon="2.0809915">
        <ele>428.99002075</ele>
        <time>2022-10-30T09:10:23Z</time>
      </trkpt>
      <trkpt lat="41.4141527" lon="2.0810024">
        <ele>428.97003174</ele>
        <time>2022-10-30T09:10:24Z</time>
      </trkpt>
      <trkpt lat="41.4141478" lon="2.0810244">
        <ele>428.82003784</ele>
        <time>2022-10-30T09:10:25Z</time>
      </trkpt>
      <trkpt lat="41.4141198" lon="2.0810583">
        <ele>428.86004639</ele>
        <time>2022-10-30T09:10:26Z</time>
      </trkpt>
      <trkpt lat="41.4141038" lon="2.0810802">
        <ele>428.84005737</ele>
        <time>2022-10-30T09:10:27Z</time>
      </trkpt>
      <trkpt lat="41.4140958" lon="2.0810942">
        <ele>428.78005981</ele>
        <time>2022-10-30T09:10:28Z</time>
      </trkpt>
      <trkpt lat="41.4140738" lon="2.0811051">
        <ele>428.74005127</ele>
        <time>2022-10-30T09:10:29Z</time>
      </trkpt>
      <trkpt lat="41.4140569" lon="2.0811121">
        <ele>428.4100647</ele>
        <time>2022-10-30T09:10:30Z</time>
      </trkpt>
      <trkpt lat="41.414044" lon="2.08114">
        <ele>428.04006958</ele>
        <time>2022-10-30T09:10:31Z</time>
      </trkpt>
      <trkpt lat="41.414016" lon="2.081167">
        <ele>427.7600708</ele>
        <time>2022-10-30T09:10:32Z</time>
      </trkpt>
      <trkpt lat="41.413991" lon="2.0811869">
        <ele>427.3600769</ele>
        <time>2022-10-30T09:10:33Z</time>
      </trkpt>
      <trkpt lat="41.413989" lon="2.081187">
        <ele>427.1000061</ele>
        <time>2022-10-30T09:10:33Z</time>
      </trkpt>
      <trkpt lat="41.4138251" lon="2.081438">
        <ele>420.66000366</ele>
        <time>2022-10-30T09:14:48Z</time>
      </trkpt>
      <trkpt lat="41.4138241" lon="2.081431">
        <ele>420.54000854</ele>
        <time>2022-10-30T09:14:49Z</time>
      </trkpt>
      <trkpt lat="41.41383" lon="2.0814339">
        <ele>420.54000854</ele>
        <time>2022-10-30T09:14:50Z</time>
      </trkpt>
      <trkpt lat="41.413839" lon="2.0814419">
        <ele>420.33001709</ele>
        <time>2022-10-30T09:14:51Z</time>
      </trkpt>
      <trkpt lat="41.413766" lon="2.0812811">
        <ele>419.91000366</ele>
        <time>2022-10-30T09:18:14Z</time>
      </trkpt>
      <trkpt lat="41.413755" lon="2.0812641">
        <ele>419.80001831</ele>
        <time>2022-10-30T09:18:15Z</time>
      </trkpt>
      <trkpt lat="41.413748" lon="2.0812341">
        <ele>419.50003052</ele>
        <time>2022-10-30T09:18:16Z</time>
      </trkpt>
      <trkpt lat="41.4137441" lon="2.0811982">
        <ele>419.01004028</ele>
        <time>2022-10-30T09:18:17Z</time>
      </trkpt>
      <trkpt lat="41.4137341" lon="2.0811612">
        <ele>418.37002563</ele>
        <time>2022-10-30T09:18:18Z</time>
      </trkpt>
      <trkpt lat="41.4137291" lon="2.0811083">
        <ele>417.67001343</ele>
        <time>2022-10-30T09:18:19Z</time>
      </trkpt>
      <trkpt lat="41.4137222" lon="2.0810763">
        <ele>417.20001221</ele>
        <time>2022-10-30T09:18:20Z</time>
      </trkpt>
      <trkpt lat="41.4137062" lon="2.0810394">
        <ele>416.64001465</ele>
        <time>2022-10-30T09:18:21Z</time>
      </trkpt>
      <trkpt lat="41.4136883" lon="2.0810064">
        <ele>415.92001343</ele>
        <time>2022-10-30T09:18:22Z</time>
      </trkpt>
      <trkpt lat="41.4136773" lon="2.0809644">
        <ele>415.1000061</ele>
        <time>2022-10-30T09:18:23Z</time>
      </trkpt>
      <trkpt lat="41.4136734" lon="2.0809415">
        <ele>414.16000366</ele>
        <time>2022-10-30T09:18:24Z</time>
      </trkpt>
      <trkpt lat="41.4136664" lon="2.0809275">
        <ele>413.30999756</ele>
        <time>2022-10-30T09:18:25Z</time>
      </trkpt>
      <trkpt lat="41.4136474" lon="2.0809166">
        <ele>412.63998413</ele>
        <time>2022-10-30T09:18:26Z</time>
      </trkpt>
      <trkpt lat="41.4136145" lon="2.0808966">
        <ele>411.91998291</ele>
        <time>2022-10-30T09:18:27Z</time>
      </trkpt>
      <trkpt lat="41.4135855" lon="2.0808937">
        <ele>410.9699707</ele>
        <time>2022-10-30T09:18:28Z</time>
      </trkpt>
      <trkpt lat="41.4135596" lon="2.0808767">
        <ele>409.75997925</ele>
        <time>2022-10-30T09:18:29Z</time>
      </trkpt>
      <trkpt lat="41.4135376" lon="2.0808498">
        <ele>408.4699707</ele>
        <time>2022-10-30T09:18:30Z</time>
      </trkpt>
      <trkpt lat="41.4135277" lon="2.0808188">
        <ele>407.20996094</ele>
        <time>2022-10-30T09:18:31Z</time>
      </trkpt>
      <trkpt lat="41.4135167" lon="2.0807889">
        <ele>406.35995483</ele>
        <time>2022-10-30T09:18:32Z</time>
      </trkpt>
      <trkpt lat="41.4135007" lon="2.0807729">
        <ele>405.41995239</ele>
        <time>2022-10-30T09:18:33Z</time>
      </trkpt>
      <trkpt lat="41.4134888" lon="2.0807519">
        <ele>404.32995605</ele>
        <time>2022-10-30T09:18:34Z</time>
      </trkpt>
      <trkpt lat="41.4134829" lon="2.080726">
        <ele>403.1199646</ele>
        <time>2022-10-30T09:18:35Z</time>
      </trkpt>
      <trkpt lat="41.4134868" lon="2.080693">
        <ele>401.64996338</ele>
        <time>2022-10-30T09:18:36Z</time>
      </trkpt>
      <trkpt lat="41.4135048" lon="2.080682">
        <ele>400.55996704</ele>
        <time>2022-10-30T09:18:37Z</time>
      </trkpt>
      <trkpt lat="41.4135127" lon="2.0806661">
        <ele>399.80996704</ele>
        <time>2022-10-30T09:18:38Z</time>
      </trkpt>
      <trkpt lat="41.4135108" lon="2.0806361">
        <ele>399.12997437</ele>
        <time>2022-10-30T09:18:39Z</time>
      </trkpt>
      <trkpt lat="41.4135108" lon="2.0806082">
        <ele>398.44998169</ele>
        <time>2022-10-30T09:18:40Z</time>
      </trkpt>
      <trkpt lat="41.4135068" lon="2.0805423">
        <ele>397.68997192</ele>
        <time>2022-10-30T09:18:41Z</time>
      </trkpt>
      <trkpt lat="41.4135097" lon="2.0805073">
        <ele>396.59997559</ele>
        <time>2022-10-30T09:18:42Z</time>
      </trkpt>
      <trkpt lat="41.4135156" lon="2.0804783">
        <ele>395.65997314</ele>
        <time>2022-10-30T09:18:43Z</time>
      </trkpt>
      <trkpt lat="41.4135216" lon="2.0804443">
        <ele>394.94998169</ele>
        <time>2022-10-30T09:18:44Z</time>
      </trkpt>
      <trkpt lat="41.4135345" lon="2.0804244">
        <ele>394.49996948</ele>
        <time>2022-10-30T09:18:45Z</time>
      </trkpt>
      <trkpt lat="41.4135485" lon="2.0803924">
        <ele>394.47998047</ele>
        <time>2022-10-30T09:18:46Z</time>
      </trkpt>
      <trkpt lat="41.4135635" lon="2.0803784">
        <ele>394.62997437</ele>
        <time>2022-10-30T09:18:47Z</time>
      </trkpt>
      <trkpt lat="41.4135764" lon="2.0803755">
        <ele>394.80996704</ele>
        <time>2022-10-30T09:18:48Z</time>
      </trkpt>
      <trkpt lat="41.4135894" lon="2.0803516">
        <ele>394.97998047</ele>
        <time>2022-10-30T09:18:49Z</time>
      </trkpt>
      <trkpt lat="41.4135983" lon="2.0803356">
        <ele>395.13998413</ele>
        <time>2022-10-30T09:18:50Z</time>
      </trkpt>
      <trkpt lat="41.4136123" lon="2.0803267">
        <ele>395.20999146</ele>
        <time>2022-10-30T09:18:51Z</time>
      </trkpt>
      <trkpt lat="41.4136283" lon="2.0803197">
        <ele>395.27999878</ele>
        <time>2022-10-30T09:18:52Z</time>
      </trkpt>
      <trkpt lat="41.4136442" lon="2.0802997">
        <ele>395.35998535</ele>
        <time>2022-10-30T09:18:53Z</time>
      </trkpt>
      <trkpt lat="41.4136712" lon="2.0802728">
        <ele>395.43997192</ele>
        <time>2022-10-30T09:18:54Z</time>
      </trkpt>
      <trkpt lat="41.4136891" lon="2.0802468">
        <ele>395.52996826</ele>
        <time>2022-10-30T09:18:55Z</time>
      </trkpt>
      <trkpt lat="41.4136971" lon="2.0802189">
        <ele>395.64996338</ele>
        <time>2022-10-30T09:18:56Z</time>
      </trkpt>
      <trkpt lat="41.4137081" lon="2.0801899">
        <ele>395.74996948</ele>
        <time>2022-10-30T09:18:57Z</time>
      </trkpt>
      <trkpt lat="41.4137131" lon="2.0801589">
        <ele>395.81997681</ele>
        <time>2022-10-30T09:18:58Z</time>
      </trkpt>
      <trkpt lat="41.4137102" lon="2.080125">
        <ele>395.94998169</ele>
        <time>2022-10-30T09:18:59Z</time>
      </trkpt>
      <trkpt lat="41.4137131" lon="2.0801031">
        <ele>396.05996704</ele>
        <time>2022-10-30T09:19:00Z</time>
      </trkpt>
      <trkpt lat="41.4137211" lon="2.0800852">
        <ele>396.15997314</ele>
        <time>2022-10-30T09:19:01Z</time>
      </trkpt>
      <trkpt lat="41.413727" lon="2.0800742">
        <ele>396.2699585</ele>
        <time>2022-10-30T09:19:02Z</time>
      </trkpt>
      <trkpt lat="41.4137309" lon="2.0800683">
        <ele>396.38995361</ele>
        <time>2022-10-30T09:19:03Z</time>
      </trkpt>
      <trkpt lat="41.413731" lon="2.080027">
        <ele>396.23999023</ele>
        <time>2022-10-30T09:19:09Z</time>
      </trkpt>
      <trkpt lat="41.4137181" lon="2.080037">
        <ele>396.20999146</ele>
        <time>2022-10-30T09:19:10Z</time>
      </trkpt>
      <trkpt lat="41.4137041" lon="2.080039">
        <ele>396.16000366</ele>
        <time>2022-10-30T09:19:11Z</time>
      </trkpt>
      <trkpt lat="41.4136751" lon="2.08003">
        <ele>395.97000122</ele>
        <time>2022-10-30T09:19:12Z</time>
      </trkpt>
      <trkpt lat="41.4136342" lon="2.0799691">
        <ele>395.52999878</ele>
        <time>2022-10-30T09:19:13Z</time>
      </trkpt>
      <trkpt lat="41.4136113" lon="2.0799251">
        <ele>394.95999146</ele>
        <time>2022-10-30T09:19:14Z</time>
      </trkpt>
      <trkpt lat="41.4135903" lon="2.0798792">
        <ele>394.57998657</ele>
        <time>2022-10-30T09:19:15Z</time>
      </trkpt>
      <trkpt lat="41.4135713" lon="2.0798442">
        <ele>394.26998901</ele>
        <time>2022-10-30T09:19:16Z</time>
      </trkpt>
      <trkpt lat="41.4135314" lon="2.0797973">
        <ele>394.10998535</ele>
        <time>2022-10-30T09:19:17Z</time>
      </trkpt>
      <trkpt lat="41.4135005" lon="2.0797573">
        <ele>394.06997681</ele>
        <time>2022-10-30T09:19:18Z</time>
      </trkpt>
      <trkpt lat="41.4134585" lon="2.0797174">
        <ele>393.75997925</ele>
        <time>2022-10-30T09:19:19Z</time>
      </trkpt>
      <trkpt lat="41.4134255" lon="2.0796854">
        <ele>393.12997437</ele>
        <time>2022-10-30T09:19:20Z</time>
      </trkpt>
      <trkpt lat="41.4133776" lon="2.0796285">
        <ele>392.30996704</ele>
        <time>2022-10-30T09:19:21Z</time>
      </trkpt>
      <trkpt lat="41.4133707" lon="2.0795846">
        <ele>391.43997192</ele>
        <time>2022-10-30T09:19:22Z</time>
      </trkpt>
      <trkpt lat="41.4133787" lon="2.0795437">
        <ele>390.59997559</ele>
        <time>2022-10-30T09:19:23Z</time>
      </trkpt>
      <trkpt lat="41.4133806" lon="2.0794977">
        <ele>389.94998169</ele>
        <time>2022-10-30T09:19:24Z</time>
      </trkpt>
      <trkpt lat="41.4133757" lon="2.0794478">
        <ele>389.3999939</ele>
        <time>2022-10-30T09:19:25Z</time>
      </trkpt>
      <trkpt lat="41.4133637" lon="2.0793819">
        <ele>388.75</ele>
        <time>2022-10-30T09:19:26Z</time>
      </trkpt>
      <trkpt lat="41.4133488" lon="2.079357">
        <ele>388</ele>
        <time>2022-10-30T09:19:27Z</time>
      </trkpt>
      <trkpt lat="41.4133339" lon="2.079322">
        <ele>387.20001221</ele>
        <time>2022-10-30T09:19:28Z</time>
      </trkpt>
      <trkpt lat="41.4133319" lon="2.079301">
        <ele>386.38000488</ele>
        <time>2022-10-30T09:19:29Z</time>
      </trkpt>
      <trkpt lat="41.4133189" lon="2.079253">
        <ele>385.45999146</ele>
        <time>2022-10-30T09:19:30Z</time>
      </trkpt>
      <trkpt lat="41.413302" lon="2.0792071">
        <ele>384.53997803</ele>
        <time>2022-10-30T09:19:31Z</time>
      </trkpt>
      <trkpt lat="41.4132821" lon="2.0791621">
        <ele>383.35998535</ele>
        <time>2022-10-30T09:19:32Z</time>
      </trkpt>
      <trkpt lat="41.4132592" lon="2.0791271">
        <ele>382.18997192</ele>
        <time>2022-10-30T09:19:33Z</time>
      </trkpt>
      <trkpt lat="41.4132013" lon="2.0790932">
        <ele>380.94998169</ele>
        <time>2022-10-30T09:19:34Z</time>
      </trkpt>
      <trkpt lat="41.4131293" lon="2.0790542">
        <ele>379.55996704</ele>
        <time>2022-10-30T09:19:35Z</time>
      </trkpt>
      <trkpt lat="41.4130733" lon="2.0790302">
        <ele>378.62997437</ele>
        <time>2022-10-30T09:19:36Z</time>
      </trkpt>
      <trkpt lat="41.4130224" lon="2.0790302">
        <ele>377.66998291</ele>
        <time>2022-10-30T09:19:37Z</time>
      </trkpt>
      <trkpt lat="41.4129575" lon="2.0790063">
        <ele>376.86999512</ele>
        <time>2022-10-30T09:19:38Z</time>
      </trkpt>
      <trkpt lat="41.4128715" lon="2.0789624">
        <ele>376.41000366</ele>
        <time>2022-10-30T09:19:39Z</time>
      </trkpt>
      <trkpt lat="41.4128295" lon="2.0789215">
        <ele>375.79000854</ele>
        <time>2022-10-30T09:19:40Z</time>
      </trkpt>
      <trkpt lat="41.4127796" lon="2.0788996">
        <ele>375.23001099</ele>
        <time>2022-10-30T09:19:41Z</time>
      </trkpt>
      <trkpt lat="41.4127366" lon="2.0788546">
        <ele>374.62002563</ele>
        <time>2022-10-30T09:19:42Z</time>
      </trkpt>
      <trkpt lat="41.4126937" lon="2.0788226">
        <ele>373.64001465</ele>
        <time>2022-10-30T09:19:43Z</time>
      </trkpt>
      <trkpt lat="41.4126217" lon="2.0787847">
        <ele>372.67001343</ele>
        <time>2022-10-30T09:19:44Z</time>
      </trkpt>
      <trkpt lat="41.4125708" lon="2.0787447">
        <ele>371.79000854</ele>
        <time>2022-10-30T09:19:45Z</time>
      </trkpt>
      <trkpt lat="41.4125249" lon="2.0787068">
        <ele>371.14001465</ele>
        <time>2022-10-30T09:19:46Z</time>
      </trkpt>
      <trkpt lat="41.4124869" lon="2.0786969">
        <ele>370.48001099</ele>
        <time>2022-10-30T09:19:47Z</time>
      </trkpt>
      <trkpt lat="41.412459" lon="2.0786509">
        <ele>369.90002441</ele>
        <time>2022-10-30T09:19:48Z</time>
      </trkpt>
      <trkpt lat="41.412422" lon="2.0785679">
        <ele>369.14001465</ele>
        <time>2022-10-30T09:19:49Z</time>
      </trkpt>
      <trkpt lat="41.4123981" lon="2.078546">
        <ele>368.27001953</ele>
        <time>2022-10-30T09:19:50Z</time>
      </trkpt>
      <trkpt lat="41.4123801" lon="2.0785031">
        <ele>367.50003052</ele>
        <time>2022-10-30T09:19:51Z</time>
      </trkpt>
      <trkpt lat="41.4123532" lon="2.0784492">
        <ele>366.89004517</ele>
        <time>2022-10-30T09:19:52Z</time>
      </trkpt>
      <trkpt lat="41.4123182" lon="2.0783733">
        <ele>366.43005371</ele>
        <time>2022-10-30T09:19:53Z</time>
      </trkpt>
      <trkpt lat="41.4122843" lon="2.0783573">
        <ele>365.99005127</ele>
        <time>2022-10-30T09:19:54Z</time>
      </trkpt>
      <trkpt lat="41.4122634" lon="2.0783194">
        <ele>365.76004028</ele>
        <time>2022-10-30T09:19:55Z</time>
      </trkpt>
      <trkpt lat="41.4122375" lon="2.0782764">
        <ele>365.43005371</ele>
        <time>2022-10-30T09:19:56Z</time>
      </trkpt>
      <trkpt lat="41.4122176" lon="2.0782374">
        <ele>365.20004272</ele>
        <time>2022-10-30T09:19:57Z</time>
      </trkpt>
      <trkpt lat="41.4121836" lon="2.0781915">
        <ele>365.10003662</ele>
        <time>2022-10-30T09:19:58Z</time>
      </trkpt>
      <trkpt lat="41.4121647" lon="2.0781595">
        <ele>364.97003174</ele>
        <time>2022-10-30T09:19:59Z</time>
      </trkpt>
      <trkpt lat="41.4121527" lon="2.0781395">
        <ele>364.87002563</ele>
        <time>2022-10-30T09:20:00Z</time>
      </trkpt>
      <trkpt lat="41.4121478" lon="2.0781176">
        <ele>364.72003174</ele>
        <time>2022-10-30T09:20:01Z</time>
      </trkpt>
      <trkpt lat="41.4121458" lon="2.0780886">
        <ele>364.55001831</ele>
        <time>2022-10-30T09:20:02Z</time>
      </trkpt>
      <trkpt lat="41.4121429" lon="2.0780347">
        <ele>364.27001953</ele>
        <time>2022-10-30T09:20:03Z</time>
      </trkpt>
      <trkpt lat="41.4121219" lon="2.0779888">
        <ele>363.71002197</ele>
        <time>2022-10-30T09:20:04Z</time>
      </trkpt>
      <trkpt lat="41.4120939" lon="2.0779588">
        <ele>362.94003296</ele>
        <time>2022-10-30T09:20:05Z</time>
      </trkpt>
      <trkpt lat="41.412061" lon="2.0779008">
        <ele>362.08004761</ele>
        <time>2022-10-30T09:20:06Z</time>
      </trkpt>
      <trkpt lat="41.4120301" lon="2.0778599">
        <ele>361.26004028</ele>
        <time>2022-10-30T09:20:07Z</time>
      </trkpt>
      <trkpt lat="41.4120072" lon="2.07783">
        <ele>360.5300293</ele>
        <time>2022-10-30T09:20:08Z</time>
      </trkpt>
      <trkpt lat="41.4119742" lon="2.077801">
        <ele>360.01004028</ele>
        <time>2022-10-30T09:20:09Z</time>
      </trkpt>
      <trkpt lat="41.4119502" lon="2.0777571">
        <ele>359.4800415</ele>
        <time>2022-10-30T09:20:10Z</time>
      </trkpt>
      <trkpt lat="41.4119153" lon="2.0776912">
        <ele>359.07003784</ele>
        <time>2022-10-30T09:20:11Z</time>
      </trkpt>
      <trkpt lat="41.4119133" lon="2.0776462">
        <ele>358.80004883</ele>
        <time>2022-10-30T09:20:12Z</time>
      </trkpt>
      <trkpt lat="41.4118993" lon="2.0775962">
        <ele>358.42004395</ele>
        <time>2022-10-30T09:20:13Z</time>
      </trkpt>
      <trkpt lat="41.4118764" lon="2.0775493">
        <ele>358.07003784</ele>
        <time>2022-10-30T09:20:14Z</time>
      </trkpt>
      <trkpt lat="41.4118445" lon="2.0774674">
        <ele>357.6300354</ele>
        <time>2022-10-30T09:20:15Z</time>
      </trkpt>
      <trkpt lat="41.4118386" lon="2.0774094">
        <ele>357.00003052</ele>
        <time>2022-10-30T09:20:16Z</time>
      </trkpt>
      <trkpt lat="41.4118176" lon="2.0773454">
        <ele>356.30001831</ele>
        <time>2022-10-30T09:20:17Z</time>
      </trkpt>
      <trkpt lat="41.4117917" lon="2.0773035">
        <ele>355.52001953</ele>
        <time>2022-10-30T09:20:18Z</time>
      </trkpt>
      <trkpt lat="41.4117677" lon="2.0772985">
        <ele>354.59002686</ele>
        <time>2022-10-30T09:20:19Z</time>
      </trkpt>
      <trkpt lat="41.4117298" lon="2.0772436">
        <ele>353.46002197</ele>
        <time>2022-10-30T09:20:20Z</time>
      </trkpt>
      <trkpt lat="41.4117078" lon="2.0771936">
        <ele>352.42001343</ele>
        <time>2022-10-30T09:20:21Z</time>
      </trkpt>
      <trkpt lat="41.4116959" lon="2.0771486">
        <ele>351.29000854</ele>
        <time>2022-10-30T09:20:22Z</time>
      </trkpt>
      <trkpt lat="41.4116739" lon="2.0771197">
        <ele>350.19000244</ele>
        <time>2022-10-30T09:20:23Z</time>
      </trkpt>
      <trkpt lat="41.4116489" lon="2.0770937">
        <ele>349.29998779</ele>
        <time>2022-10-30T09:20:24Z</time>
      </trkpt>
      <trkpt lat="41.411618" lon="2.0770217">
        <ele>348.42999268</ele>
        <time>2022-10-30T09:20:25Z</time>
      </trkpt>
      <trkpt lat="41.4116249" lon="2.0769878">
        <ele>347.69998169</ele>
        <time>2022-10-30T09:20:26Z</time>
      </trkpt>
      <trkpt lat="41.4116329" lon="2.0769789">
        <ele>347.09997559</ele>
        <time>2022-10-30T09:20:27Z</time>
      </trkpt>
      <trkpt lat="41.4116439" lon="2.0769808">
        <ele>346.54998779</ele>
        <time>2022-10-30T09:20:28Z</time>
      </trkpt>
      <trkpt lat="41.4116789" lon="2.0769898">
        <ele>345.92999268</ele>
        <time>2022-10-30T09:20:29Z</time>
      </trkpt>
      <trkpt lat="41.4117108" lon="2.0769898">
        <ele>345.27999878</ele>
        <time>2022-10-30T09:20:30Z</time>
      </trkpt>
      <trkpt lat="41.4117397" lon="2.0770117">
        <ele>344.38998413</ele>
        <time>2022-10-30T09:20:31Z</time>
      </trkpt>
      <trkpt lat="41.4117587" lon="2.0770166">
        <ele>343.52999878</ele>
        <time>2022-10-30T09:20:32Z</time>
      </trkpt>
      <trkpt lat="41.4117937" lon="2.0770195">
        <ele>342.75</ele>
        <time>2022-10-30T09:20:33Z</time>
      </trkpt>
      <trkpt lat="41.4118226" lon="2.0770425">
        <ele>341.82998657</ele>
        <time>2022-10-30T09:20:34Z</time>
      </trkpt>
      <trkpt lat="41.4118515" lon="2.0770694">
        <ele>340.97998047</ele>
        <time>2022-10-30T09:20:35Z</time>
      </trkpt>
      <trkpt lat="41.4118884" lon="2.0770814">
        <ele>340.12997437</ele>
        <time>2022-10-30T09:20:36Z</time>
      </trkpt>
      <trkpt lat="41.4119214" lon="2.0770644">
        <ele>339.15997314</ele>
        <time>2022-10-30T09:20:37Z</time>
      </trkpt>
      <trkpt lat="41.4119664" lon="2.0770314">
        <ele>338.2699585</ele>
        <time>2022-10-30T09:20:38Z</time>
      </trkpt>
      <trkpt lat="41.4119813" lon="2.0770145">
        <ele>337.35995483</ele>
        <time>2022-10-30T09:20:39Z</time>
      </trkpt>
      <trkpt lat="41.4119982" lon="2.0770055">
        <ele>336.41995239</ele>
        <time>2022-10-30T09:20:40Z</time>
      </trkpt>
      <trkpt lat="41.4120072" lon="2.0769846">
        <ele>335.53994751</ele>
        <time>2022-10-30T09:20:41Z</time>
      </trkpt>
      <trkpt lat="41.4120161" lon="2.0769965">
        <ele>334.68994141</ele>
        <time>2022-10-30T09:20:42Z</time>
      </trkpt>
      <trkpt lat="41.4120411" lon="2.0769856">
        <ele>333.51992798</ele>
        <time>2022-10-30T09:20:43Z</time>
      </trkpt>
      <trkpt lat="41.41206" lon="2.0769786">
        <ele>332.24993896</ele>
        <time>2022-10-30T09:20:44Z</time>
      </trkpt>
      <trkpt lat="41.412079" lon="2.0769786">
        <ele>331.00994873</ele>
        <time>2022-10-30T09:20:45Z</time>
      </trkpt>
      <trkpt lat="41.4121049" lon="2.0769986">
        <ele>329.90994263</ele>
        <time>2022-10-30T09:20:46Z</time>
      </trkpt>
      <trkpt lat="41.4121509" lon="2.0770086">
        <ele>329.38995361</ele>
        <time>2022-10-30T09:20:47Z</time>
      </trkpt>
      <trkpt lat="41.4121708" lon="2.0769876">
        <ele>329.02996826</ele>
        <time>2022-10-30T09:20:48Z</time>
      </trkpt>
      <trkpt lat="41.4121877" lon="2.0769577">
        <ele>328.62997437</ele>
        <time>2022-10-30T09:20:49Z</time>
      </trkpt>
      <trkpt lat="41.4121857" lon="2.0769237">
        <ele>328.15997314</ele>
        <time>2022-10-30T09:20:50Z</time>
      </trkpt>
      <trkpt lat="41.4121848" lon="2.0768437">
        <ele>327.38998413</ele>
        <time>2022-10-30T09:20:51Z</time>
      </trkpt>
      <trkpt lat="41.4121568" lon="2.0768058">
        <ele>326.55999756</ele>
        <time>2022-10-30T09:20:52Z</time>
      </trkpt>
      <trkpt lat="41.4121229" lon="2.0767459">
        <ele>325.70001221</ele>
        <time>2022-10-30T09:20:53Z</time>
      </trkpt>
      <trkpt lat="41.412097" lon="2.076704">
        <ele>324.77001953</ele>
        <time>2022-10-30T09:20:54Z</time>
      </trkpt>
      <trkpt lat="41.412077" lon="2.076677">
        <ele>323.92001343</ele>
        <time>2022-10-30T09:20:55Z</time>
      </trkpt>
      <trkpt lat="41.4120441" lon="2.076577">
        <ele>322.96002197</ele>
        <time>2022-10-30T09:20:56Z</time>
      </trkpt>
      <trkpt lat="41.4120272" lon="2.0764841">
        <ele>322.07000732</ele>
        <time>2022-10-30T09:20:57Z</time>
      </trkpt>
      <trkpt lat="41.4120243" lon="2.0763951">
        <ele>321.05999756</ele>
        <time>2022-10-30T09:20:58Z</time>
      </trkpt>
      <trkpt lat="41.4120143" lon="2.0763051">
        <ele>320.1499939</ele>
        <time>2022-10-30T09:20:59Z</time>
      </trkpt>
      <trkpt lat="41.4119893" lon="2.0761922">
        <ele>319.16998291</ele>
        <time>2022-10-30T09:21:00Z</time>
      </trkpt>
      <trkpt lat="41.4119804" lon="2.0761202">
        <ele>318.17999268</ele>
        <time>2022-10-30T09:21:01Z</time>
      </trkpt>
      <trkpt lat="41.4119994" lon="2.0760502">
        <ele>317.17999268</ele>
        <time>2022-10-30T09:21:02Z</time>
      </trkpt>
      <trkpt lat="41.4120083" lon="2.0759813">
        <ele>316.03997803</ele>
        <time>2022-10-30T09:21:03Z</time>
      </trkpt>
      <trkpt lat="41.4120142" lon="2.0759143">
        <ele>314.83996582</ele>
        <time>2022-10-30T09:21:04Z</time>
      </trkpt>
      <trkpt lat="41.4120222" lon="2.0758213">
        <ele>313.56997681</ele>
        <time>2022-10-30T09:21:05Z</time>
      </trkpt>
      <trkpt lat="41.4119903" lon="2.0757624">
        <ele>312.2199707</ele>
        <time>2022-10-30T09:21:06Z</time>
      </trkpt>
      <trkpt lat="41.4119573" lon="2.0757294">
        <ele>310.7699585</ele>
        <time>2022-10-30T09:21:07Z</time>
      </trkpt>
      <trkpt lat="41.4119353" lon="2.0757115">
        <ele>309.49996948</ele>
        <time>2022-10-30T09:21:08Z</time>
      </trkpt>
      <trkpt lat="41.4119324" lon="2.0756836">
        <ele>308.17996216</ele>
        <time>2022-10-30T09:21:09Z</time>
      </trkpt>
      <trkpt lat="41.4119533" lon="2.0756497">
        <ele>307.1199646</ele>
        <time>2022-10-30T09:21:10Z</time>
      </trkpt>
      <trkpt lat="41.4119663" lon="2.0756526">
        <ele>306.2699585</ele>
        <time>2022-10-30T09:21:11Z</time>
      </trkpt>
      <trkpt lat="41.4119782" lon="2.0756755">
        <ele>305.55996704</ele>
        <time>2022-10-30T09:21:12Z</time>
      </trkpt>
      <trkpt lat="41.4119892" lon="2.0757205">
        <ele>305.08996582</ele>
        <time>2022-10-30T09:21:13Z</time>
      </trkpt>
      <trkpt lat="41.4120291" lon="2.0757575">
        <ele>304.7199707</ele>
        <time>2022-10-30T09:21:14Z</time>
      </trkpt>
      <trkpt lat="41.4120511" lon="2.0757774">
        <ele>304.30996704</ele>
        <time>2022-10-30T09:21:15Z</time>
      </trkpt>
      <trkpt lat="41.412091" lon="2.0757993">
        <ele>303.81997681</ele>
        <time>2022-10-30T09:21:16Z</time>
      </trkpt>
      <trkpt lat="41.412115" lon="2.0758303">
        <ele>302.9699707</ele>
        <time>2022-10-30T09:21:17Z</time>
      </trkpt>
      <trkpt lat="41.4121609" lon="2.0758592">
        <ele>301.91998291</ele>
        <time>2022-10-30T09:21:18Z</time>
      </trkpt>
      <trkpt lat="41.4121999" lon="2.0758782">
        <ele>300.90997314</ele>
        <time>2022-10-30T09:21:19Z</time>
      </trkpt>
      <trkpt lat="41.4122308" lon="2.0759041">
        <ele>299.77996826</ele>
        <time>2022-10-30T09:21:20Z</time>
      </trkpt>
      <trkpt lat="41.4122518" lon="2.0759321">
        <ele>298.7199707</ele>
        <time>2022-10-30T09:21:21Z</time>
      </trkpt>
      <trkpt lat="41.4122807" lon="2.0759321">
        <ele>297.52996826</ele>
        <time>2022-10-30T09:21:22Z</time>
      </trkpt>
      <trkpt lat="41.4123167" lon="2.07596">
        <ele>296.28997803</ele>
        <time>2022-10-30T09:21:23Z</time>
      </trkpt>
      <trkpt lat="41.4123256" lon="2.075955">
        <ele>295.14996338</ele>
        <time>2022-10-30T09:21:24Z</time>
      </trkpt>
      <trkpt lat="41.4123265" lon="2.075907">
        <ele>294.20996094</ele>
        <time>2022-10-30T09:21:25Z</time>
      </trkpt>
      <trkpt lat="41.4123226" lon="2.0758361">
        <ele>293.3699646</ele>
        <time>2022-10-30T09:21:26Z</time>
      </trkpt>
      <trkpt lat="41.4123786" lon="2.0757361">
        <ele>292.44995117</ele>
        <time>2022-10-30T09:21:27Z</time>
      </trkpt>
      <trkpt lat="41.4123666" lon="2.0756582">
        <ele>291.44995117</ele>
        <time>2022-10-30T09:21:28Z</time>
      </trkpt>
      <trkpt lat="41.4123557" lon="2.0755733">
        <ele>290.22994995</ele>
        <time>2022-10-30T09:21:29Z</time>
      </trkpt>
      <trkpt lat="41.4123447" lon="2.0754753">
        <ele>288.90994263</ele>
        <time>2022-10-30T09:21:30Z</time>
      </trkpt>
      <trkpt lat="41.4123486" lon="2.0753764">
        <ele>287.70993042</ele>
        <time>2022-10-30T09:21:31Z</time>
      </trkpt>
      <trkpt lat="41.4123346" lon="2.0752414">
        <ele>286.32992554</ele>
        <time>2022-10-30T09:21:32Z</time>
      </trkpt>
      <trkpt lat="41.4123435" lon="2.0751505">
        <ele>285.19992065</ele>
        <time>2022-10-30T09:21:33Z</time>
      </trkpt>
      <trkpt lat="41.4123445" lon="2.0750675">
        <ele>284.07992554</ele>
        <time>2022-10-30T09:21:34Z</time>
      </trkpt>
      <trkpt lat="41.4123276" lon="2.0750065">
        <ele>282.78991699</ele>
        <time>2022-10-30T09:21:35Z</time>
      </trkpt>
      <trkpt lat="41.4122716" lon="2.0749466">
        <ele>281.67993164</ele>
        <time>2022-10-30T09:21:36Z</time>
      </trkpt>
      <trkpt lat="41.4122456" lon="2.0749127">
        <ele>280.30993652</ele>
        <time>2022-10-30T09:21:37Z</time>
      </trkpt>
      <trkpt lat="41.4122087" lon="2.0748927">
        <ele>279.10992432</ele>
        <time>2022-10-30T09:21:38Z</time>
      </trkpt>
      <trkpt lat="41.4121488" lon="2.0748618">
        <ele>277.8399353</ele>
        <time>2022-10-30T09:21:39Z</time>
      </trkpt>
      <trkpt lat="41.4121038" lon="2.0748198">
        <ele>276.55993652</ele>
        <time>2022-10-30T09:21:40Z</time>
      </trkpt>
      <trkpt lat="41.4120329" lon="2.0747708">
        <ele>275.25994873</ele>
        <time>2022-10-30T09:21:41Z</time>
      </trkpt>
      <trkpt lat="41.411976" lon="2.0747379">
        <ele>273.99993896</ele>
        <time>2022-10-30T09:21:42Z</time>
      </trkpt>
      <trkpt lat="41.411931" lon="2.0746909">
        <ele>272.94995117</ele>
        <time>2022-10-30T09:21:43Z</time>
      </trkpt>
      <trkpt lat="41.411889" lon="2.074636">
        <ele>271.99993896</ele>
        <time>2022-10-30T09:21:44Z</time>
      </trkpt>
      <trkpt lat="41.411847" lon="2.074588">
        <ele>271.26992798</ele>
        <time>2022-10-30T09:21:45Z</time>
      </trkpt>
      <trkpt lat="41.411826" lon="2.074588">
        <ele>270.5899353</ele>
        <time>2022-10-30T09:21:46Z</time>
      </trkpt>
      <trkpt lat="41.411812" lon="2.074575">
        <ele>270.09994507</ele>
        <time>2022-10-30T09:21:47Z</time>
      </trkpt>
      <trkpt lat="41.4117991" lon="2.074551">
        <ele>269.67993164</ele>
        <time>2022-10-30T09:21:48Z</time>
      </trkpt>
      <trkpt lat="41.4117861" lon="2.0745281">
        <ele>269.31994629</ele>
        <time>2022-10-30T09:21:49Z</time>
      </trkpt>
      <trkpt lat="41.4117572" lon="2.0745011">
        <ele>268.92993164</ele>
        <time>2022-10-30T09:21:50Z</time>
      </trkpt>
      <trkpt lat="41.4117601" lon="2.0744591">
        <ele>268.46994019</ele>
        <time>2022-10-30T09:21:51Z</time>
      </trkpt>
      <trkpt lat="41.4117651" lon="2.0744152">
        <ele>268.01992798</ele>
        <time>2022-10-30T09:21:52Z</time>
      </trkpt>
      <trkpt lat="41.41177" lon="2.0743713">
        <ele>267.40994263</ele>
        <time>2022-10-30T09:21:53Z</time>
      </trkpt>
      <trkpt lat="41.411814" lon="2.0742834">
        <ele>266.75994873</ele>
        <time>2022-10-30T09:21:54Z</time>
      </trkpt>
      <trkpt lat="41.4118449" lon="2.0742384">
        <ele>265.78994751</ele>
        <time>2022-10-30T09:21:55Z</time>
      </trkpt>
      <trkpt lat="41.4118708" lon="2.0741855">
        <ele>264.64993286</ele>
        <time>2022-10-30T09:21:56Z</time>
      </trkpt>
      <trkpt lat="41.4118808" lon="2.0741465">
        <ele>263.62994385</ele>
        <time>2022-10-30T09:21:57Z</time>
      </trkpt>
      <trkpt lat="41.4118837" lon="2.0741075">
        <ele>262.66995239</ele>
        <time>2022-10-30T09:21:58Z</time>
      </trkpt>
      <trkpt lat="41.4118827" lon="2.0740465">
        <ele>261.55996704</ele>
        <time>2022-10-30T09:21:59Z</time>
      </trkpt>
      <trkpt lat="41.4118917" lon="2.0740305">
        <ele>260.63995361</ele>
        <time>2022-10-30T09:22:00Z</time>
      </trkpt>
      <trkpt lat="41.4119027" lon="2.0740305">
        <ele>259.58996582</ele>
        <time>2022-10-30T09:22:01Z</time>
      </trkpt>
      <trkpt lat="41.4119126" lon="2.0740226">
        <ele>258.5199585</ele>
        <time>2022-10-30T09:22:02Z</time>
      </trkpt>
      <trkpt lat="41.4119046" lon="2.0740047">
        <ele>257.97994995</ele>
        <time>2022-10-30T09:22:03Z</time>
      </trkpt>
      <trkpt lat="41.4118787" lon="2.0739727">
        <ele>257.30993652</ele>
        <time>2022-10-30T09:22:04Z</time>
      </trkpt>
      <trkpt lat="41.4118778" lon="2.0739297">
        <ele>256.68994141</ele>
        <time>2022-10-30T09:22:05Z</time>
      </trkpt>
      <trkpt lat="41.4118658" lon="2.0739128">
        <ele>255.88993835</ele>
        <time>2022-10-30T09:22:06Z</time>
      </trkpt>
      <trkpt lat="41.4118639" lon="2.0738768">
        <ele>254.91993713</ele>
        <time>2022-10-30T09:22:07Z</time>
      </trkpt>
      <trkpt lat="41.4118509" lon="2.0738049">
        <ele>253.94993591</ele>
        <time>2022-10-30T09:22:08Z</time>
      </trkpt>
      <trkpt lat="41.4118489" lon="2.0737569">
        <ele>252.80993652</ele>
        <time>2022-10-30T09:22:09Z</time>
      </trkpt>
      <trkpt lat="41.411842" lon="2.0737229">
        <ele>251.87994385</ele>
        <time>2022-10-30T09:22:10Z</time>
      </trkpt>
      <trkpt lat="41.4118221" lon="2.073681">
        <ele>250.97994995</ele>
        <time>2022-10-30T09:22:11Z</time>
      </trkpt>
      <trkpt lat="41.4117771" lon="2.073612">
        <ele>250.14994812</ele>
        <time>2022-10-30T09:22:12Z</time>
      </trkpt>
      <trkpt lat="41.4117551" lon="2.0735651">
        <ele>249.48994446</ele>
        <time>2022-10-30T09:22:13Z</time>
      </trkpt>
      <trkpt lat="41.4117292" lon="2.0735152">
        <ele>248.70994568</ele>
        <time>2022-10-30T09:22:14Z</time>
      </trkpt>
      <trkpt lat="41.4117182" lon="2.0734333">
        <ele>248.04994202</ele>
        <time>2022-10-30T09:22:15Z</time>
      </trkpt>
      <trkpt lat="41.4117132" lon="2.0733673">
        <ele>247.0899353</ele>
        <time>2022-10-30T09:22:16Z</time>
      </trkpt>
      <trkpt lat="41.4117141" lon="2.0733054">
        <ele>246.03993225</ele>
        <time>2022-10-30T09:22:17Z</time>
      </trkpt>
      <trkpt lat="41.4117032" lon="2.0732914">
        <ele>245.07992554</ele>
        <time>2022-10-30T09:22:18Z</time>
      </trkpt>
      <trkpt lat="41.4116832" lon="2.0732655">
        <ele>243.79992676</ele>
        <time>2022-10-30T09:22:19Z</time>
      </trkpt>
      <trkpt lat="41.4116783" lon="2.0732086">
        <ele>242.58992004</ele>
        <time>2022-10-30T09:22:20Z</time>
      </trkpt>
      <trkpt lat="41.4116653" lon="2.0731146">
        <ele>241.3899231</ele>
        <time>2022-10-30T09:22:21Z</time>
      </trkpt>
      <trkpt lat="41.4116373" lon="2.0730767">
        <ele>240.17991638</ele>
        <time>2022-10-30T09:22:22Z</time>
      </trkpt>
      <trkpt lat="41.4116164" lon="2.0730588">
        <ele>239.25991821</ele>
        <time>2022-10-30T09:22:23Z</time>
      </trkpt>
      <trkpt lat="41.4115995" lon="2.0730438">
        <ele>238.61991882</ele>
        <time>2022-10-30T09:22:24Z</time>
      </trkpt>
      <trkpt lat="41.4115885" lon="2.0730419">
        <ele>238.09991455</ele>
        <time>2022-10-30T09:22:25Z</time>
      </trkpt>
      <trkpt lat="41.4115656" lon="2.0730219">
        <ele>237.63990784</ele>
        <time>2022-10-30T09:22:26Z</time>
      </trkpt>
      <trkpt lat="41.4115476" lon="2.0729709">
        <ele>237.20991516</ele>
        <time>2022-10-30T09:22:27Z</time>
      </trkpt>
      <trkpt lat="41.4115366" lon="2.072921">
        <ele>236.81991577</ele>
        <time>2022-10-30T09:22:28Z</time>
      </trkpt>
      <trkpt lat="41.4115237" lon="2.0728591">
        <ele>236.56991577</ele>
        <time>2022-10-30T09:22:29Z</time>
      </trkpt>
      <trkpt lat="41.4115167" lon="2.0727721">
        <ele>236.36991882</ele>
        <time>2022-10-30T09:22:30Z</time>
      </trkpt>
      <trkpt lat="41.4114998" lon="2.0727412">
        <ele>236.22991943</ele>
        <time>2022-10-30T09:22:31Z</time>
      </trkpt>
      <trkpt lat="41.4114759" lon="2.0727172">
        <ele>236.03991699</ele>
        <time>2022-10-30T09:22:32Z</time>
      </trkpt>
      <trkpt lat="41.4114679" lon="2.0726933">
        <ele>235.8899231</ele>
        <time>2022-10-30T09:22:33Z</time>
      </trkpt>
      <trkpt lat="41.4114639" lon="2.0726684">
        <ele>235.6399231</ele>
        <time>2022-10-30T09:22:34Z</time>
      </trkpt>
      <trkpt lat="41.4114529" lon="2.0726094">
        <ele>235.28991699</ele>
        <time>2022-10-30T09:22:35Z</time>
      </trkpt>
      <trkpt lat="41.411436" lon="2.0725715">
        <ele>234.8999176</ele>
        <time>2022-10-30T09:22:36Z</time>
      </trkpt>
      <trkpt lat="41.4114241" lon="2.0725486">
        <ele>234.27992249</ele>
        <time>2022-10-30T09:22:37Z</time>
      </trkpt>
      <trkpt lat="41.4114002" lon="2.0725336">
        <ele>233.8899231</ele>
        <time>2022-10-30T09:22:38Z</time>
      </trkpt>
      <trkpt lat="41.4113722" lon="2.0724867">
        <ele>233.50991821</ele>
        <time>2022-10-30T09:22:39Z</time>
      </trkpt>
      <trkpt lat="41.4113582" lon="2.0724438">
        <ele>232.90991211</ele>
        <time>2022-10-30T09:22:40Z</time>
      </trkpt>
      <trkpt lat="41.4113422" lon="2.0724029">
        <ele>232.33990479</ele>
        <time>2022-10-30T09:22:41Z</time>
      </trkpt>
      <trkpt lat="41.4113163" lon="2.0723799">
        <ele>231.46990967</ele>
        <time>2022-10-30T09:22:42Z</time>
      </trkpt>
      <trkpt lat="41.4112663" lon="2.072358">
        <ele>230.49990845</ele>
        <time>2022-10-30T09:22:43Z</time>
      </trkpt>
      <trkpt lat="41.4112494" lon="2.072316">
        <ele>229.77990723</ele>
        <time>2022-10-30T09:22:44Z</time>
      </trkpt>
      <trkpt lat="41.4112104" lon="2.07228">
        <ele>229.14990234</ele>
        <time>2022-10-30T09:22:45Z</time>
      </trkpt>
      <trkpt lat="41.4111705" lon="2.0722691">
        <ele>228.60990906</ele>
        <time>2022-10-30T09:22:46Z</time>
      </trkpt>
      <trkpt lat="41.4111366" lon="2.0722371">
        <ele>228.20991516</ele>
        <time>2022-10-30T09:22:47Z</time>
      </trkpt>
      <trkpt lat="41.4110717" lon="2.0721971">
        <ele>227.95991516</ele>
        <time>2022-10-30T09:22:48Z</time>
      </trkpt>
      <trkpt lat="41.4110408" lon="2.0721892">
        <ele>227.82991028</ele>
        <time>2022-10-30T09:22:49Z</time>
      </trkpt>
      <trkpt lat="41.4110148" lon="2.0721842">
        <ele>227.82991028</ele>
        <time>2022-10-30T09:22:50Z</time>
      </trkpt>
      <trkpt lat="41.4109839" lon="2.0721892">
        <ele>227.8999176</ele>
        <time>2022-10-30T09:22:51Z</time>
      </trkpt>
      <trkpt lat="41.410954" lon="2.0722052">
        <ele>227.96992493</ele>
        <time>2022-10-30T09:22:52Z</time>
      </trkpt>
      <trkpt lat="41.410924" lon="2.0721822">
        <ele>228.02992249</ele>
        <time>2022-10-30T09:22:53Z</time>
      </trkpt>
      <trkpt lat="41.410897" lon="2.0721922">
        <ele>228.03991699</ele>
        <time>2022-10-30T09:22:54Z</time>
      </trkpt>
      <trkpt lat="41.4108651" lon="2.0722001">
        <ele>228.00991821</ele>
        <time>2022-10-30T09:22:55Z</time>
      </trkpt>
      <trkpt lat="41.4108362" lon="2.0721912">
        <ele>227.82992554</ele>
        <time>2022-10-30T09:22:56Z</time>
      </trkpt>
      <trkpt lat="41.4108042" lon="2.0721773">
        <ele>227.57992554</ele>
        <time>2022-10-30T09:22:57Z</time>
      </trkpt>
      <trkpt lat="41.4107573" lon="2.0721563">
        <ele>227.19992065</ele>
        <time>2022-10-30T09:22:58Z</time>
      </trkpt>
      <trkpt lat="41.4107204" lon="2.0721424">
        <ele>226.76992798</ele>
        <time>2022-10-30T09:22:59Z</time>
      </trkpt>
      <trkpt lat="41.4106924" lon="2.0720734">
        <ele>226.26992798</ele>
        <time>2022-10-30T09:23:00Z</time>
      </trkpt>
      <trkpt lat="41.4106724" lon="2.0720075">
        <ele>225.71992493</ele>
        <time>2022-10-30T09:23:01Z</time>
      </trkpt>
      <trkpt lat="41.4106575" lon="2.0719055">
        <ele>225.00991821</ele>
        <time>2022-10-30T09:23:02Z</time>
      </trkpt>
      <trkpt lat="41.4106236" lon="2.0718806">
        <ele>224.22991943</ele>
        <time>2022-10-30T09:23:03Z</time>
      </trkpt>
      <trkpt lat="41.4105867" lon="2.0718567">
        <ele>223.41992188</ele>
        <time>2022-10-30T09:23:04Z</time>
      </trkpt>
      <trkpt lat="41.4105468" lon="2.0718288">
        <ele>222.59991455</ele>
        <time>2022-10-30T09:23:05Z</time>
      </trkpt>
      <trkpt lat="41.4104929" lon="2.0717998">
        <ele>221.91992188</ele>
        <time>2022-10-30T09:23:06Z</time>
      </trkpt>
      <trkpt lat="41.4104359" lon="2.0717838">
        <ele>221.19992065</ele>
        <time>2022-10-30T09:23:07Z</time>
      </trkpt>
      <trkpt lat="41.410365" lon="2.0717847">
        <ele>220.43992615</ele>
        <time>2022-10-30T09:23:08Z</time>
      </trkpt>
      <trkpt lat="41.4102881" lon="2.0718007">
        <ele>219.78993225</ele>
        <time>2022-10-30T09:23:09Z</time>
      </trkpt>
      <trkpt lat="41.4101651" lon="2.0718407">
        <ele>218.94993591</ele>
        <time>2022-10-30T09:23:10Z</time>
      </trkpt>
      <trkpt lat="41.4100951" lon="2.0718606">
        <ele>218.29994202</ele>
        <time>2022-10-30T09:23:11Z</time>
      </trkpt>
      <trkpt lat="41.4100421" lon="2.0718227">
        <ele>217.84994507</ele>
        <time>2022-10-30T09:23:12Z</time>
      </trkpt>
      <trkpt lat="41.4100001" lon="2.0717968">
        <ele>217.36994934</ele>
        <time>2022-10-30T09:23:13Z</time>
      </trkpt>
      <trkpt lat="41.4099692" lon="2.0717758">
        <ele>217.11994934</ele>
        <time>2022-10-30T09:23:14Z</time>
      </trkpt>
      <trkpt lat="41.4099263" lon="2.0717349">
        <ele>216.72994995</ele>
        <time>2022-10-30T09:23:15Z</time>
      </trkpt>
      <trkpt lat="41.4098954" lon="2.071716">
        <ele>216.48994446</ele>
        <time>2022-10-30T09:23:16Z</time>
      </trkpt>
      <trkpt lat="41.4098654" lon="2.0716911">
        <ele>216.27993774</ele>
        <time>2022-10-30T09:23:17Z</time>
      </trkpt>
      <trkpt lat="41.4098415" lon="2.0716672">
        <ele>216.23994446</ele>
        <time>2022-10-30T09:23:18Z</time>
      </trkpt>
      <trkpt lat="41.4098126" lon="2.0716512">
        <ele>216.38993835</ele>
        <time>2022-10-30T09:23:19Z</time>
      </trkpt>
      <trkpt lat="41.4098046" lon="2.0715812">
        <ele>216.49993896</ele>
        <time>2022-10-30T09:23:20Z</time>
      </trkpt>
      <trkpt lat="41.4097957" lon="2.0715252">
        <ele>216.5899353</ele>
        <time>2022-10-30T09:23:21Z</time>
      </trkpt>
      <trkpt lat="41.4097947" lon="2.0714713">
        <ele>216.64993286</ele>
        <time>2022-10-30T09:23:22Z</time>
      </trkpt>
      <trkpt lat="41.4097888" lon="2.0714393">
        <ele>216.63993835</ele>
        <time>2022-10-30T09:23:23Z</time>
      </trkpt>
      <trkpt lat="41.4097728" lon="2.0713874">
        <ele>216.63993835</ele>
        <time>2022-10-30T09:23:24Z</time>
      </trkpt>
      <trkpt lat="41.4097519" lon="2.0713574">
        <ele>216.63993835</ele>
        <time>2022-10-30T09:23:25Z</time>
      </trkpt>
      <trkpt lat="41.409732" lon="2.0713335">
        <ele>216.66993713</ele>
        <time>2022-10-30T09:23:26Z</time>
      </trkpt>
      <trkpt lat="41.409719" lon="2.0712945">
        <ele>216.73994446</ele>
        <time>2022-10-30T09:23:27Z</time>
      </trkpt>
      <trkpt lat="41.4097041" lon="2.0712545">
        <ele>216.77993774</ele>
        <time>2022-10-30T09:23:28Z</time>
      </trkpt>
      <trkpt lat="41.4096661" lon="2.0712166">
        <ele>216.86993408</ele>
        <time>2022-10-30T09:23:29Z</time>
      </trkpt>
      <trkpt lat="41.4096342" lon="2.0711987">
        <ele>216.87992859</ele>
        <time>2022-10-30T09:23:30Z</time>
      </trkpt>
      <trkpt lat="41.4096092" lon="2.0711697">
        <ele>216.91992188</ele>
        <time>2022-10-30T09:23:31Z</time>
      </trkpt>
      <trkpt lat="41.4095822" lon="2.0711458">
        <ele>216.91992188</ele>
        <time>2022-10-30T09:23:32Z</time>
      </trkpt>
      <trkpt lat="41.4095593" lon="2.0711158">
        <ele>216.8899231</ele>
        <time>2022-10-30T09:23:33Z</time>
      </trkpt>
      <trkpt lat="41.4095203" lon="2.0710829">
        <ele>216.8999176</ele>
        <time>2022-10-30T09:23:34Z</time>
      </trkpt>
      <trkpt lat="41.4095063" lon="2.0710559">
        <ele>216.92991638</ele>
        <time>2022-10-30T09:23:35Z</time>
      </trkpt>
      <trkpt lat="41.4094984" lon="2.0710209">
        <ele>216.97991943</ele>
        <time>2022-10-30T09:23:36Z</time>
      </trkpt>
      <trkpt lat="41.4094884" lon="2.0709859">
        <ele>217.03991699</ele>
        <time>2022-10-30T09:23:37Z</time>
      </trkpt>
      <trkpt lat="41.4094694" lon="2.070933">
        <ele>216.96990967</ele>
        <time>2022-10-30T09:23:38Z</time>
      </trkpt>
      <trkpt lat="41.4094355" lon="2.070906">
        <ele>216.77990723</ele>
        <time>2022-10-30T09:23:39Z</time>
      </trkpt>
      <trkpt lat="41.4093986" lon="2.070877">
        <ele>216.50990295</ele>
        <time>2022-10-30T09:23:40Z</time>
      </trkpt>
      <trkpt lat="41.4093587" lon="2.0708591">
        <ele>216.26989746</ele>
        <time>2022-10-30T09:23:41Z</time>
      </trkpt>
      <trkpt lat="41.4093177" lon="2.0708461">
        <ele>216.07989502</ele>
        <time>2022-10-30T09:23:42Z</time>
      </trkpt>
      <trkpt lat="41.4092598" lon="2.0708222">
        <ele>215.90989685</ele>
        <time>2022-10-30T09:23:43Z</time>
      </trkpt>
      <trkpt lat="41.4092268" lon="2.0708022">
        <ele>215.84989929</ele>
        <time>2022-10-30T09:23:44Z</time>
      </trkpt>
      <trkpt lat="41.4091899" lon="2.0707922">
        <ele>215.80990601</ele>
        <time>2022-10-30T09:23:45Z</time>
      </trkpt>
      <trkpt lat="41.4091449" lon="2.0707803">
        <ele>215.86990356</ele>
        <time>2022-10-30T09:23:46Z</time>
      </trkpt>
      <trkpt lat="41.409105" lon="2.0707803">
        <ele>216.01989746</ele>
        <time>2022-10-30T09:23:47Z</time>
      </trkpt>
      <trkpt lat="41.40906" lon="2.0707784">
        <ele>216.13989258</ele>
        <time>2022-10-30T09:23:48Z</time>
      </trkpt>
      <trkpt lat="41.4090091" lon="2.0707725">
        <ele>216.22988892</ele>
        <time>2022-10-30T09:23:49Z</time>
      </trkpt>
      <trkpt lat="41.4089651" lon="2.0707744">
        <ele>216.2598877</ele>
        <time>2022-10-30T09:23:50Z</time>
      </trkpt>
      <trkpt lat="41.4089291" lon="2.0707823">
        <ele>216.2598877</ele>
        <time>2022-10-30T09:23:51Z</time>
      </trkpt>
      <trkpt lat="41.4088692" lon="2.0707973">
        <ele>216.32989502</ele>
        <time>2022-10-30T09:23:52Z</time>
      </trkpt>
      <trkpt lat="41.4088213" lon="2.0708073">
        <ele>216.33988953</ele>
        <time>2022-10-30T09:23:53Z</time>
      </trkpt>
      <trkpt lat="41.4087844" lon="2.0708073">
        <ele>216.33988953</ele>
        <time>2022-10-30T09:23:54Z</time>
      </trkpt>
      <trkpt lat="41.4087614" lon="2.0707923">
        <ele>216.37988281</ele>
        <time>2022-10-30T09:23:55Z</time>
      </trkpt>
      <trkpt lat="41.4087075" lon="2.0708243">
        <ele>216.43988037</ele>
        <time>2022-10-30T09:23:56Z</time>
      </trkpt>
      <trkpt lat="41.4086795" lon="2.0708492">
        <ele>216.54988098</ele>
        <time>2022-10-30T09:23:57Z</time>
      </trkpt>
      <trkpt lat="41.4086556" lon="2.0708622">
        <ele>216.69987488</ele>
        <time>2022-10-30T09:23:58Z</time>
      </trkpt>
      <trkpt lat="41.4086286" lon="2.0708862">
        <ele>216.79988098</ele>
        <time>2022-10-30T09:23:59Z</time>
      </trkpt>
      <trkpt lat="41.4085907" lon="2.0709051">
        <ele>216.80987549</ele>
        <time>2022-10-30T09:24:00Z</time>
      </trkpt>
      <trkpt lat="41.4085467" lon="2.070944">
        <ele>216.80987549</ele>
        <time>2022-10-30T09:24:01Z</time>
      </trkpt>
      <trkpt lat="41.4085027" lon="2.070976">
        <ele>216.83987427</ele>
        <time>2022-10-30T09:24:02Z</time>
      </trkpt>
      <trkpt lat="41.4084618" lon="2.070999">
        <ele>216.98986816</ele>
        <time>2022-10-30T09:24:03Z</time>
      </trkpt>
      <trkpt lat="41.4084189" lon="2.0710209">
        <ele>217.09986877</ele>
        <time>2022-10-30T09:24:04Z</time>
      </trkpt>
      <trkpt lat="41.4083709" lon="2.0710449">
        <ele>217.33987427</ele>
        <time>2022-10-30T09:24:05Z</time>
      </trkpt>
      <trkpt lat="41.408345" lon="2.0710379">
        <ele>217.58987427</ele>
        <time>2022-10-30T09:24:06Z</time>
      </trkpt>
      <trkpt lat="41.4083301" lon="2.0710329">
        <ele>217.75987244</ele>
        <time>2022-10-30T09:24:07Z</time>
      </trkpt>
      <trkpt lat="41.4083161" lon="2.07103">
        <ele>218.07987976</ele>
        <time>2022-10-30T09:24:08Z</time>
      </trkpt>
      <trkpt lat="41.4083012" lon="2.0710281">
        <ele>218.27987671</ele>
        <time>2022-10-30T09:24:09Z</time>
      </trkpt>
      <trkpt lat="41.4082922" lon="2.0710181">
        <ele>218.48988342</ele>
        <time>2022-10-30T09:24:10Z</time>
      </trkpt>
      <trkpt lat="41.4082843" lon="2.0710311">
        <ele>218.73988342</ele>
        <time>2022-10-30T09:24:11Z</time>
      </trkpt>
      <trkpt lat="41.4082673" lon="2.0710321">
        <ele>218.9198761</ele>
        <time>2022-10-30T09:24:12Z</time>
      </trkpt>
      <trkpt lat="41.4082424" lon="2.071035">
        <ele>219.13987732</ele>
        <time>2022-10-30T09:24:13Z</time>
      </trkpt>
      <trkpt lat="41.408233" lon="2.071025">
        <ele>218.1000061</ele>
        <time>2022-10-30T09:24:13Z</time>
      </trkpt>
      <trkpt lat="41.4082021" lon="2.0710449">
        <ele>218.23001099</ele>
        <time>2022-10-30T09:24:14Z</time>
      </trkpt>
      <trkpt lat="41.4081831" lon="2.071038">
        <ele>218.36001587</ele>
        <time>2022-10-30T09:24:15Z</time>
      </trkpt>
      <trkpt lat="41.4081772" lon="2.070977">
        <ele>218.52001953</ele>
        <time>2022-10-30T09:24:16Z</time>
      </trkpt>
      <trkpt lat="41.4081791" lon="2.0709491">
        <ele>218.66001892</ele>
        <time>2022-10-30T09:24:17Z</time>
      </trkpt>
      <trkpt lat="41.4081831" lon="2.0709121">
        <ele>218.87002563</ele>
        <time>2022-10-30T09:24:18Z</time>
      </trkpt>
      <trkpt lat="41.408187" lon="2.0708991">
        <ele>219.07002258</ele>
        <time>2022-10-30T09:24:19Z</time>
      </trkpt>
      <trkpt lat="41.408187" lon="2.0709061">
        <ele>219.2900238</ele>
        <time>2022-10-30T09:24:20Z</time>
      </trkpt>
      <trkpt lat="41.408188" lon="2.070915">
        <ele>219.46002197</ele>
        <time>2022-10-30T09:24:21Z</time>
      </trkpt>
      <trkpt lat="41.408188" lon="2.070925">
        <ele>219.62002563</ele>
        <time>2022-10-30T09:24:22Z</time>
      </trkpt>
      <trkpt lat="41.408178" lon="2.0709279">
        <ele>219.74002075</ele>
        <time>2022-10-30T09:24:23Z</time>
      </trkpt>
      <trkpt lat="41.4081899" lon="2.070882">
        <ele>219.7900238</ele>
        <time>2022-10-30T09:24:24Z</time>
      </trkpt>
      <trkpt lat="41.4081899" lon="2.0708761">
        <ele>219.86003113</ele>
        <time>2022-10-30T09:24:25Z</time>
      </trkpt>
      <trkpt lat="41.4081919" lon="2.070883">
        <ele>219.92002869</ele>
        <time>2022-10-30T09:24:26Z</time>
      </trkpt>
      <trkpt lat="41.408186" lon="2.0708859">
        <ele>219.98002625</ele>
        <time>2022-10-30T09:24:27Z</time>
      </trkpt>
      <trkpt lat="41.4081889" lon="2.0708889">
        <ele>220.0300293</ele>
        <time>2022-10-30T09:24:28Z</time>
      </trkpt>
      <trkpt lat="41.4081978" lon="2.0708859">
        <ele>220.12002563</ele>
        <time>2022-10-30T09:24:29Z</time>
      </trkpt>
      <trkpt lat="41.4082048" lon="2.070876">
        <ele>220.20002747</ele>
        <time>2022-10-30T09:24:30Z</time>
      </trkpt>
      <trkpt lat="41.4082188" lon="2.070864">
        <ele>220.31002808</ele>
        <time>2022-10-30T09:24:31Z</time>
      </trkpt>
      <trkpt lat="41.4082377" lon="2.0708401">
        <ele>220.39002991</ele>
        <time>2022-10-30T09:24:32Z</time>
      </trkpt>
      <trkpt lat="41.4082527" lon="2.0708241">
        <ele>220.45002747</ele>
        <time>2022-10-30T09:24:33Z</time>
      </trkpt>
      <trkpt lat="41.4082747" lon="2.0707972">
        <ele>220.5300293</ele>
        <time>2022-10-30T09:24:34Z</time>
      </trkpt>
      <trkpt lat="41.4082956" lon="2.0707732">
        <ele>220.64002991</ele>
        <time>2022-10-30T09:24:35Z</time>
      </trkpt>
      <trkpt lat="41.4083176" lon="2.0707742">
        <ele>220.77003479</ele>
        <time>2022-10-30T09:24:36Z</time>
      </trkpt>
      <trkpt lat="41.4083426" lon="2.0708111">
        <ele>220.90003967</ele>
        <time>2022-10-30T09:24:37Z</time>
      </trkpt>
      <trkpt lat="41.4083625" lon="2.070814">
        <ele>221.03004456</ele>
        <time>2022-10-30T09:24:38Z</time>
      </trkpt>
      <trkpt lat="41.4083824" lon="2.070807">
        <ele>221.16004944</ele>
        <time>2022-10-30T09:24:39Z</time>
      </trkpt>
      <trkpt lat="41.4084074" lon="2.0707831">
        <ele>221.28004456</ele>
        <time>2022-10-30T09:24:40Z</time>
      </trkpt>
      <trkpt lat="41.4084343" lon="2.0707371">
        <ele>221.41004944</ele>
        <time>2022-10-30T09:24:41Z</time>
      </trkpt>
      <trkpt lat="41.4084443" lon="2.0707072">
        <ele>221.54005432</ele>
        <time>2022-10-30T09:24:42Z</time>
      </trkpt>
      <trkpt lat="41.4084553" lon="2.0706812">
        <ele>221.6700592</ele>
        <time>2022-10-30T09:24:43Z</time>
      </trkpt>
      <trkpt lat="41.4084652" lon="2.0706702">
        <ele>221.81005859</ele>
        <time>2022-10-30T09:24:44Z</time>
      </trkpt>
      <trkpt lat="41.4084762" lon="2.0706563">
        <ele>222.00006104</ele>
        <time>2022-10-30T09:24:45Z</time>
      </trkpt>
      <trkpt lat="41.4085032" lon="2.0706363">
        <ele>222.20005798</ele>
        <time>2022-10-30T09:24:46Z</time>
      </trkpt>
      <trkpt lat="41.4085222" lon="2.0706194">
        <ele>222.37005615</ele>
        <time>2022-10-30T09:24:47Z</time>
      </trkpt>
      <trkpt lat="41.4085371" lon="2.0706124">
        <ele>222.5700531</ele>
        <time>2022-10-30T09:24:48Z</time>
      </trkpt>
      <trkpt lat="41.4085561" lon="2.0706054">
        <ele>222.69004822</ele>
        <time>2022-10-30T09:24:49Z</time>
      </trkpt>
      <trkpt lat="41.408587" lon="2.0706103">
        <ele>222.74005127</ele>
        <time>2022-10-30T09:24:50Z</time>
      </trkpt>
      <trkpt lat="41.4085999" lon="2.0706143">
        <ele>222.78004456</ele>
        <time>2022-10-30T09:24:51Z</time>
      </trkpt>
      <trkpt lat="41.4086269" lon="2.0706124">
        <ele>222.78004456</ele>
        <time>2022-10-30T09:24:52Z</time>
      </trkpt>
      <trkpt lat="41.4086429" lon="2.0706284">
        <ele>222.80004883</ele>
        <time>2022-10-30T09:24:53Z</time>
      </trkpt>
      <trkpt lat="41.4086588" lon="2.0706423">
        <ele>222.86004639</ele>
        <time>2022-10-30T09:24:54Z</time>
      </trkpt>
      <trkpt lat="41.4086848" lon="2.0706523">
        <ele>222.92004395</ele>
        <time>2022-10-30T09:24:55Z</time>
      </trkpt>
      <trkpt lat="41.4086917" lon="2.0706563">
        <ele>222.9800415</ele>
        <time>2022-10-30T09:24:56Z</time>
      </trkpt>
      <trkpt lat="41.4087127" lon="2.0706504">
        <ele>223.05004883</ele>
        <time>2022-10-30T09:24:57Z</time>
      </trkpt>
      <trkpt lat="41.4087256" lon="2.0706593">
        <ele>223.16004944</ele>
        <time>2022-10-30T09:24:58Z</time>
      </trkpt>
      <trkpt lat="41.4087636" lon="2.0706802">
        <ele>223.3200531</ele>
        <time>2022-10-30T09:24:59Z</time>
      </trkpt>
      <trkpt lat="41.4087965" lon="2.0706831">
        <ele>223.51005554</ele>
        <time>2022-10-30T09:25:00Z</time>
      </trkpt>
      <trkpt lat="41.4088235" lon="2.0706871">
        <ele>223.73005676</ele>
        <time>2022-10-30T09:25:01Z</time>
      </trkpt>
      <trkpt lat="41.4088535" lon="2.0706842">
        <ele>223.97006226</ele>
        <time>2022-10-30T09:25:02Z</time>
      </trkpt>
      <trkpt lat="41.4088894" lon="2.0706753">
        <ele>224.19006348</ele>
        <time>2022-10-30T09:25:03Z</time>
      </trkpt>
      <trkpt lat="41.4089074" lon="2.0706734">
        <ele>224.36006165</ele>
        <time>2022-10-30T09:25:04Z</time>
      </trkpt>
      <trkpt lat="41.4089294" lon="2.0706684">
        <ele>224.53005981</ele>
        <time>2022-10-30T09:25:05Z</time>
      </trkpt>
      <trkpt lat="41.4089544" lon="2.0706655">
        <ele>224.68005371</ele>
        <time>2022-10-30T09:25:06Z</time>
      </trkpt>
      <trkpt lat="41.4089783" lon="2.0706546">
        <ele>224.87005615</ele>
        <time>2022-10-30T09:25:07Z</time>
      </trkpt>
      <trkpt lat="41.4090012" lon="2.0706585">
        <ele>225.12005615</ele>
        <time>2022-10-30T09:25:08Z</time>
      </trkpt>
      <trkpt lat="41.4090152" lon="2.0706695">
        <ele>225.37005615</ele>
        <time>2022-10-30T09:25:09Z</time>
      </trkpt>
      <trkpt lat="41.4090342" lon="2.0706754">
        <ele>225.64006042</ele>
        <time>2022-10-30T09:25:10Z</time>
      </trkpt>
      <trkpt lat="41.4090581" lon="2.0706783">
        <ele>225.88006592</ele>
        <time>2022-10-30T09:25:11Z</time>
      </trkpt>
      <trkpt lat="41.4090851" lon="2.0706783">
        <ele>226.09007263</ele>
        <time>2022-10-30T09:25:12Z</time>
      </trkpt>
      <trkpt lat="41.409108" lon="2.0706812">
        <ele>226.30007935</ele>
        <time>2022-10-30T09:25:13Z</time>
      </trkpt>
      <trkpt lat="41.4091249" lon="2.0706901">
        <ele>226.53007507</ele>
        <time>2022-10-30T09:25:14Z</time>
      </trkpt>
      <trkpt lat="41.4091359" lon="2.0706882">
        <ele>226.77008057</ele>
        <time>2022-10-30T09:25:15Z</time>
      </trkpt>
      <trkpt lat="41.4091549" lon="2.0707082">
        <ele>227.13008118</ele>
        <time>2022-10-30T09:25:16Z</time>
      </trkpt>
      <trkpt lat="41.4091608" lon="2.0707211">
        <ele>227.48008728</ele>
        <time>2022-10-30T09:25:17Z</time>
      </trkpt>
      <trkpt lat="41.4091667" lon="2.0707371">
        <ele>227.88008118</ele>
        <time>2022-10-30T09:25:18Z</time>
      </trkpt>
      <trkpt lat="41.4091747" lon="2.0707531">
        <ele>228.33007812</ele>
        <time>2022-10-30T09:25:19Z</time>
      </trkpt>
      <trkpt lat="41.4091907" lon="2.0707731">
        <ele>228.68008423</ele>
        <time>2022-10-30T09:25:20Z</time>
      </trkpt>
      <trkpt lat="41.4092096" lon="2.0707841">
        <ele>229.05007935</ele>
        <time>2022-10-30T09:25:21Z</time>
      </trkpt>
      <trkpt lat="41.4092326" lon="2.070813">
        <ele>229.39007568</ele>
        <time>2022-10-30T09:25:22Z</time>
      </trkpt>
      <trkpt lat="41.4092495" lon="2.070833">
        <ele>229.72007751</ele>
        <time>2022-10-30T09:25:23Z</time>
      </trkpt>
      <trkpt lat="41.4092724" lon="2.07086">
        <ele>230.12007141</ele>
        <time>2022-10-30T09:25:24Z</time>
      </trkpt>
      <trkpt lat="41.4092893" lon="2.0708819">
        <ele>230.58007812</ele>
        <time>2022-10-30T09:25:25Z</time>
      </trkpt>
      <trkpt lat="41.4093102" lon="2.0709049">
        <ele>231.04008484</ele>
        <time>2022-10-30T09:25:26Z</time>
      </trkpt>
      <trkpt lat="41.4093292" lon="2.0709158">
        <ele>231.48008728</ele>
        <time>2022-10-30T09:25:27Z</time>
      </trkpt>
      <trkpt lat="41.4093482" lon="2.0709258">
        <ele>231.90008545</ele>
        <time>2022-10-30T09:25:28Z</time>
      </trkpt>
      <trkpt lat="41.4093732" lon="2.0709317">
        <ele>232.30007935</ele>
        <time>2022-10-30T09:25:29Z</time>
      </trkpt>
      <trkpt lat="41.4093952" lon="2.0709366">
        <ele>232.72007751</ele>
        <time>2022-10-30T09:25:30Z</time>
      </trkpt>
      <trkpt lat="41.4094291" lon="2.0709466">
        <ele>233.15007019</ele>
        <time>2022-10-30T09:25:31Z</time>
      </trkpt>
      <trkpt lat="41.409449" lon="2.0709536">
        <ele>233.6100769</ele>
        <time>2022-10-30T09:25:32Z</time>
      </trkpt>
      <trkpt lat="41.4094689" lon="2.0709595">
        <ele>234.1000824</ele>
        <time>2022-10-30T09:25:33Z</time>
      </trkpt>
      <trkpt lat="41.4094909" lon="2.0709684">
        <ele>234.53007507</ele>
        <time>2022-10-30T09:25:34Z</time>
      </trkpt>
      <trkpt lat="41.4095288" lon="2.0709734">
        <ele>235.0100708</ele>
        <time>2022-10-30T09:25:35Z</time>
      </trkpt>
      <trkpt lat="41.4095568" lon="2.0709823">
        <ele>235.45007324</ele>
        <time>2022-10-30T09:25:36Z</time>
      </trkpt>
      <trkpt lat="41.4095778" lon="2.0709902">
        <ele>235.84007263</ele>
        <time>2022-10-30T09:25:37Z</time>
      </trkpt>
      <trkpt lat="41.4095888" lon="2.0709972">
        <ele>236.27006531</ele>
        <time>2022-10-30T09:25:38Z</time>
      </trkpt>
      <trkpt lat="41.4095967" lon="2.0710202">
        <ele>236.6600647</ele>
        <time>2022-10-30T09:25:39Z</time>
      </trkpt>
      <trkpt lat="41.4096077" lon="2.0710351">
        <ele>237.09005737</ele>
        <time>2022-10-30T09:25:40Z</time>
      </trkpt>
      <trkpt lat="41.409611" lon="2.071036">
        <ele>237.52999878</ele>
        <time>2022-10-30T09:25:40Z</time>
      </trkpt>
      <trkpt lat="41.409626" lon="2.0710419">
        <ele>238.03999329</ele>
        <time>2022-10-30T09:25:41Z</time>
      </trkpt>
      <trkpt lat="41.4096349" lon="2.0710529">
        <ele>238.48999023</ele>
        <time>2022-10-30T09:25:42Z</time>
      </trkpt>
      <trkpt lat="41.4096578" lon="2.0710608">
        <ele>238.88998413</ele>
        <time>2022-10-30T09:25:43Z</time>
      </trkpt>
      <trkpt lat="41.4096858" lon="2.0710648">
        <ele>239.22998047</ele>
        <time>2022-10-30T09:25:44Z</time>
      </trkpt>
      <trkpt lat="41.4096988" lon="2.0710767">
        <ele>239.46998596</ele>
        <time>2022-10-30T09:25:45Z</time>
      </trkpt>
      <trkpt lat="41.4097177" lon="2.0710847">
        <ele>239.70999146</ele>
        <time>2022-10-30T09:25:46Z</time>
      </trkpt>
      <trkpt lat="41.4097387" lon="2.0710896">
        <ele>239.92999268</ele>
        <time>2022-10-30T09:25:47Z</time>
      </trkpt>
      <trkpt lat="41.4097626" lon="2.0710916">
        <ele>240.1599884</ele>
        <time>2022-10-30T09:25:48Z</time>
      </trkpt>
      <trkpt lat="41.4097995" lon="2.0710916">
        <ele>240.34999084</ele>
        <time>2022-10-30T09:25:49Z</time>
      </trkpt>
      <trkpt lat="41.4098205" lon="2.0710955">
        <ele>240.52998352</ele>
        <time>2022-10-30T09:25:50Z</time>
      </trkpt>
      <trkpt lat="41.4098464" lon="2.0710984">
        <ele>240.72998047</ele>
        <time>2022-10-30T09:25:51Z</time>
      </trkpt>
      <trkpt lat="41.4098693" lon="2.0710975">
        <ele>240.94998169</ele>
        <time>2022-10-30T09:25:52Z</time>
      </trkpt>
      <trkpt lat="41.4098922" lon="2.0710955">
        <ele>241.19998169</ele>
        <time>2022-10-30T09:25:53Z</time>
      </trkpt>
      <trkpt lat="41.4099132" lon="2.0710965">
        <ele>241.4099884</ele>
        <time>2022-10-30T09:25:54Z</time>
      </trkpt>
      <trkpt lat="41.4099301" lon="2.0710925">
        <ele>241.57998657</ele>
        <time>2022-10-30T09:25:55Z</time>
      </trkpt>
      <trkpt lat="41.409954" lon="2.0710886">
        <ele>241.69998169</ele>
        <time>2022-10-30T09:25:56Z</time>
      </trkpt>
      <trkpt lat="41.409994" lon="2.0710766">
        <ele>241.83998108</ele>
        <time>2022-10-30T09:25:57Z</time>
      </trkpt>
      <trkpt lat="41.4100119" lon="2.0710886">
        <ele>241.99998474</ele>
        <time>2022-10-30T09:25:58Z</time>
      </trkpt>
      <trkpt lat="41.4100359" lon="2.0711075">
        <ele>242.20999146</ele>
        <time>2022-10-30T09:25:59Z</time>
      </trkpt>
      <trkpt lat="41.4100538" lon="2.0711264">
        <ele>242.42999268</ele>
        <time>2022-10-30T09:26:00Z</time>
      </trkpt>
      <trkpt lat="41.4100737" lon="2.0711363">
        <ele>242.63999939</ele>
        <time>2022-10-30T09:26:01Z</time>
      </trkpt>
      <trkpt lat="41.4101046" lon="2.0711473">
        <ele>242.86000061</ele>
        <time>2022-10-30T09:26:02Z</time>
      </trkpt>
      <trkpt lat="41.4101266" lon="2.0711532">
        <ele>243.08000183</ele>
        <time>2022-10-30T09:26:03Z</time>
      </trkpt>
      <trkpt lat="41.4101536" lon="2.0711522">
        <ele>243.27999878</ele>
        <time>2022-10-30T09:26:04Z</time>
      </trkpt>
      <trkpt lat="41.4101785" lon="2.0711562">
        <ele>243.44999695</ele>
        <time>2022-10-30T09:26:05Z</time>
      </trkpt>
      <trkpt lat="41.4102045" lon="2.0711621">
        <ele>243.62998962</ele>
        <time>2022-10-30T09:26:06Z</time>
      </trkpt>
      <trkpt lat="41.4102404" lon="2.071168">
        <ele>243.77998352</ele>
        <time>2022-10-30T09:26:07Z</time>
      </trkpt>
      <trkpt lat="41.4102684" lon="2.071173">
        <ele>243.9599762</ele>
        <time>2022-10-30T09:26:08Z</time>
      </trkpt>
      <trkpt lat="41.4102924" lon="2.07118">
        <ele>244.17997742</ele>
        <time>2022-10-30T09:26:09Z</time>
      </trkpt>
      <trkpt lat="41.4103153" lon="2.0711889">
        <ele>244.37997437</ele>
        <time>2022-10-30T09:26:10Z</time>
      </trkpt>
      <trkpt lat="41.4103503" lon="2.0712028">
        <ele>244.59997559</ele>
        <time>2022-10-30T09:26:11Z</time>
      </trkpt>
      <trkpt lat="41.4103722" lon="2.0712118">
        <ele>244.83998108</ele>
        <time>2022-10-30T09:26:12Z</time>
      </trkpt>
      <trkpt lat="41.4103912" lon="2.0712177">
        <ele>245.06997681</ele>
        <time>2022-10-30T09:26:13Z</time>
      </trkpt>
      <trkpt lat="41.4104111" lon="2.0712256">
        <ele>245.35997009</ele>
        <time>2022-10-30T09:26:14Z</time>
      </trkpt>
      <trkpt lat="41.410428" lon="2.0712356">
        <ele>245.65997314</ele>
        <time>2022-10-30T09:26:15Z</time>
      </trkpt>
      <trkpt lat="41.4104619" lon="2.0712486">
        <ele>245.99996948</ele>
        <time>2022-10-30T09:26:16Z</time>
      </trkpt>
      <trkpt lat="41.4104849" lon="2.0712526">
        <ele>246.34997559</ele>
        <time>2022-10-30T09:26:17Z</time>
      </trkpt>
      <trkpt lat="41.4105048" lon="2.0712526">
        <ele>246.67997742</ele>
        <time>2022-10-30T09:26:18Z</time>
      </trkpt>
      <trkpt lat="41.4105177" lon="2.0712535">
        <ele>247.03997803</ele>
        <time>2022-10-30T09:26:19Z</time>
      </trkpt>
      <trkpt lat="41.4105427" lon="2.0712594">
        <ele>247.33998108</ele>
        <time>2022-10-30T09:26:20Z</time>
      </trkpt>
      <trkpt lat="41.4105537" lon="2.0712555">
        <ele>247.66998291</ele>
        <time>2022-10-30T09:26:21Z</time>
      </trkpt>
      <trkpt lat="41.4105706" lon="2.0712505">
        <ele>247.98999023</ele>
        <time>2022-10-30T09:26:22Z</time>
      </trkpt>
      <trkpt lat="41.4105806" lon="2.0712534">
        <ele>248.27998352</ele>
        <time>2022-10-30T09:26:23Z</time>
      </trkpt>
      <trkpt lat="41.4105835" lon="2.0712584">
        <ele>248.59999084</ele>
        <time>2022-10-30T09:26:24Z</time>
      </trkpt>
      <trkpt lat="41.4106024" lon="2.0712624">
        <ele>248.88998413</ele>
        <time>2022-10-30T09:26:25Z</time>
      </trkpt>
      <trkpt lat="41.4106184" lon="2.0712673">
        <ele>249.14997864</ele>
        <time>2022-10-30T09:26:26Z</time>
      </trkpt>
      <trkpt lat="41.4106394" lon="2.0712692">
        <ele>249.43997192</ele>
        <time>2022-10-30T09:26:27Z</time>
      </trkpt>
      <trkpt lat="41.4106534" lon="2.0712721">
        <ele>249.7199707</ele>
        <time>2022-10-30T09:26:28Z</time>
      </trkpt>
      <trkpt lat="41.4106753" lon="2.0712741">
        <ele>250.02996826</ele>
        <time>2022-10-30T09:26:29Z</time>
      </trkpt>
      <trkpt lat="41.4106943" lon="2.0712741">
        <ele>250.32997131</ele>
        <time>2022-10-30T09:26:30Z</time>
      </trkpt>
      <trkpt lat="41.4107172" lon="2.071275">
        <ele>250.58996582</ele>
        <time>2022-10-30T09:26:31Z</time>
      </trkpt>
      <trkpt lat="41.4107332" lon="2.071284">
        <ele>250.81996155</ele>
        <time>2022-10-30T09:26:32Z</time>
      </trkpt>
      <trkpt lat="41.4107632" lon="2.0712919">
        <ele>251.02996826</ele>
        <time>2022-10-30T09:26:33Z</time>
      </trkpt>
      <trkpt lat="41.4107791" lon="2.0713019">
        <ele>251.20996094</ele>
        <time>2022-10-30T09:26:34Z</time>
      </trkpt>
      <trkpt lat="41.4107981" lon="2.0713059">
        <ele>251.38995361</ele>
        <time>2022-10-30T09:26:35Z</time>
      </trkpt>
      <trkpt lat="41.4108231" lon="2.0713088">
        <ele>251.60995483</ele>
        <time>2022-10-30T09:26:36Z</time>
      </trkpt>
      <trkpt lat="41.4108391" lon="2.0713137">
        <ele>251.79995728</ele>
        <time>2022-10-30T09:26:37Z</time>
      </trkpt>
      <trkpt lat="41.410868" lon="2.0713237">
        <ele>252.0199585</ele>
        <time>2022-10-30T09:26:38Z</time>
      </trkpt>
      <trkpt lat="41.410884" lon="2.0713347">
        <ele>252.22996521</ele>
        <time>2022-10-30T09:26:39Z</time>
      </trkpt>
      <trkpt lat="41.4109009" lon="2.0713416">
        <ele>252.42996216</ele>
        <time>2022-10-30T09:26:40Z</time>
      </trkpt>
      <trkpt lat="41.4109188" lon="2.0713546">
        <ele>252.65995789</ele>
        <time>2022-10-30T09:26:41Z</time>
      </trkpt>
      <trkpt lat="41.4109268" lon="2.0713746">
        <ele>252.90995789</ele>
        <time>2022-10-30T09:26:42Z</time>
      </trkpt>
      <trkpt lat="41.4109527" lon="2.0713825">
        <ele>253.19995117</ele>
        <time>2022-10-30T09:26:43Z</time>
      </trkpt>
      <trkpt lat="41.4109657" lon="2.0713854">
        <ele>253.529953</ele>
        <time>2022-10-30T09:26:44Z</time>
      </trkpt>
      <trkpt lat="41.4109816" lon="2.0713815">
        <ele>253.81994629</ele>
        <time>2022-10-30T09:26:45Z</time>
      </trkpt>
      <trkpt lat="41.4109986" lon="2.0713775">
        <ele>254.15994263</ele>
        <time>2022-10-30T09:26:46Z</time>
      </trkpt>
      <trkpt lat="41.4110215" lon="2.0713726">
        <ele>254.48994446</ele>
        <time>2022-10-30T09:26:47Z</time>
      </trkpt>
      <trkpt lat="41.4110384" lon="2.0713646">
        <ele>254.75994873</ele>
        <time>2022-10-30T09:26:48Z</time>
      </trkpt>
      <trkpt lat="41.4110583" lon="2.0713546">
        <ele>255.09994507</ele>
        <time>2022-10-30T09:26:49Z</time>
      </trkpt>
      <trkpt lat="41.4110792" lon="2.0713377">
        <ele>255.38993835</ele>
        <time>2022-10-30T09:26:50Z</time>
      </trkpt>
      <trkpt lat="41.4111072" lon="2.0713097">
        <ele>255.65994263</ele>
        <time>2022-10-30T09:26:51Z</time>
      </trkpt>
      <trkpt lat="41.4111262" lon="2.0712928">
        <ele>255.90994263</ele>
        <time>2022-10-30T09:26:52Z</time>
      </trkpt>
      <trkpt lat="41.4111452" lon="2.0712809">
        <ele>256.12994385</ele>
        <time>2022-10-30T09:26:53Z</time>
      </trkpt>
      <trkpt lat="41.4111611" lon="2.0712679">
        <ele>256.34994507</ele>
        <time>2022-10-30T09:26:54Z</time>
      </trkpt>
      <trkpt lat="41.4111771" lon="2.071246">
        <ele>256.5899353</ele>
        <time>2022-10-30T09:26:55Z</time>
      </trkpt>
      <trkpt lat="41.4112071" lon="2.071226">
        <ele>256.87994385</ele>
        <time>2022-10-30T09:26:56Z</time>
      </trkpt>
      <trkpt lat="41.41122" lon="2.071216">
        <ele>257.12994385</ele>
        <time>2022-10-30T09:26:57Z</time>
      </trkpt>
      <trkpt lat="41.411234" lon="2.071199">
        <ele>257.41995239</ele>
        <time>2022-10-30T09:26:58Z</time>
      </trkpt>
      <trkpt lat="41.411253" lon="2.0711811">
        <ele>257.68994141</ele>
        <time>2022-10-30T09:26:59Z</time>
      </trkpt>
      <trkpt lat="41.41128" lon="2.0711632">
        <ele>257.96994019</ele>
        <time>2022-10-30T09:27:00Z</time>
      </trkpt>
      <trkpt lat="41.4112959" lon="2.0711472">
        <ele>258.28994751</ele>
        <time>2022-10-30T09:27:01Z</time>
      </trkpt>
      <trkpt lat="41.4113089" lon="2.0711332">
        <ele>258.5899353</ele>
        <time>2022-10-30T09:27:02Z</time>
      </trkpt>
      <trkpt lat="41.4113279" lon="2.0711213">
        <ele>258.95993042</ele>
        <time>2022-10-30T09:27:03Z</time>
      </trkpt>
      <trkpt lat="41.4113448" lon="2.0711173">
        <ele>259.26992798</ele>
        <time>2022-10-30T09:27:04Z</time>
      </trkpt>
      <trkpt lat="41.4113717" lon="2.0710984">
        <ele>259.6399231</ele>
        <time>2022-10-30T09:27:05Z</time>
      </trkpt>
      <trkpt lat="41.4113957" lon="2.0710805">
        <ele>259.99990845</ele>
        <time>2022-10-30T09:27:06Z</time>
      </trkpt>
      <trkpt lat="41.4114067" lon="2.0710735">
        <ele>260.36990356</ele>
        <time>2022-10-30T09:27:07Z</time>
      </trkpt>
      <trkpt lat="41.4114106" lon="2.0710735">
        <ele>260.79989624</ele>
        <time>2022-10-30T09:27:08Z</time>
      </trkpt>
      <trkpt lat="41.4114226" lon="2.0710735">
        <ele>261.15988159</ele>
        <time>2022-10-30T09:27:09Z</time>
      </trkpt>
      <trkpt lat="41.4114385" lon="2.0710635">
        <ele>261.52987671</ele>
        <time>2022-10-30T09:27:10Z</time>
      </trkpt>
      <trkpt lat="41.4114635" lon="2.0710565">
        <ele>261.84988403</ele>
        <time>2022-10-30T09:27:11Z</time>
      </trkpt>
      <trkpt lat="41.4114864" lon="2.0710565">
        <ele>262.11987305</ele>
        <time>2022-10-30T09:27:12Z</time>
      </trkpt>
      <trkpt lat="41.4115014" lon="2.0710556">
        <ele>262.41986084</ele>
        <time>2022-10-30T09:27:13Z</time>
      </trkpt>
      <trkpt lat="41.4115223" lon="2.0710565">
        <ele>262.67987061</ele>
        <time>2022-10-30T09:27:14Z</time>
      </trkpt>
      <trkpt lat="41.4115363" lon="2.0710845">
        <ele>262.86987305</ele>
        <time>2022-10-30T09:27:15Z</time>
      </trkpt>
      <trkpt lat="41.4115422" lon="2.0710924">
        <ele>263.03988647</ele>
        <time>2022-10-30T09:27:16Z</time>
      </trkpt>
      <trkpt lat="41.4115602" lon="2.0711084">
        <ele>263.16989136</ele>
        <time>2022-10-30T09:27:17Z</time>
      </trkpt>
      <trkpt lat="41.4116031" lon="2.0711124">
        <ele>263.31988525</ele>
        <time>2022-10-30T09:27:18Z</time>
      </trkpt>
      <trkpt lat="41.411621" lon="2.0710964">
        <ele>263.51989746</ele>
        <time>2022-10-30T09:27:19Z</time>
      </trkpt>
      <trkpt lat="41.411636" lon="2.0710734">
        <ele>263.69989014</ele>
        <time>2022-10-30T09:27:20Z</time>
      </trkpt>
      <trkpt lat="41.4116469" lon="2.0710474">
        <ele>263.8598938</ele>
        <time>2022-10-30T09:27:21Z</time>
      </trkpt>
      <trkpt lat="41.4116619" lon="2.0710195">
        <ele>263.99990845</ele>
        <time>2022-10-30T09:27:22Z</time>
      </trkpt>
      <trkpt lat="41.4116979" lon="2.0710055">
        <ele>264.1098938</ele>
        <time>2022-10-30T09:27:23Z</time>
      </trkpt>
      <trkpt lat="41.4117089" lon="2.0709956">
        <ele>264.2098999</ele>
        <time>2022-10-30T09:27:24Z</time>
      </trkpt>
      <trkpt lat="41.4117138" lon="2.0709866">
        <ele>264.36990356</ele>
        <time>2022-10-30T09:27:25Z</time>
      </trkpt>
      <trkpt lat="41.4117258" lon="2.0709767">
        <ele>265.25991821</ele>
        <time>2022-10-30T09:27:26Z</time>
      </trkpt>
      <trkpt lat="41.4117367" lon="2.0709597">
        <ele>265.39993286</ele>
        <time>2022-10-30T09:27:27Z</time>
      </trkpt>
      <trkpt lat="41.4117707" lon="2.0709437">
        <ele>265.55993652</ele>
        <time>2022-10-30T09:27:28Z</time>
      </trkpt>
      <trkpt lat="41.4117866" lon="2.0709207">
        <ele>265.67993164</ele>
        <time>2022-10-30T09:27:29Z</time>
      </trkpt>
      <trkpt lat="41.4117925" lon="2.0709058">
        <ele>265.81994629</ele>
        <time>2022-10-30T09:27:30Z</time>
      </trkpt>
      <trkpt lat="41.4117906" lon="2.0708958">
        <ele>265.95996094</ele>
        <time>2022-10-30T09:27:31Z</time>
      </trkpt>
      <trkpt lat="41.4117896" lon="2.0708939">
        <ele>266.09997559</ele>
        <time>2022-10-30T09:27:32Z</time>
      </trkpt>
      <trkpt lat="41.4117877" lon="2.0708968">
        <ele>266.22998047</ele>
        <time>2022-10-30T09:27:33Z</time>
      </trkpt>
      <trkpt lat="41.4118056" lon="2.0708898">
        <ele>266.35998535</ele>
        <time>2022-10-30T09:27:34Z</time>
      </trkpt>
      <trkpt lat="41.4118235" lon="2.0708749">
        <ele>266.48999023</ele>
        <time>2022-10-30T09:27:35Z</time>
      </trkpt>
      <trkpt lat="41.4118425" lon="2.0708619">
        <ele>266.6499939</ele>
        <time>2022-10-30T09:27:36Z</time>
      </trkpt>
      <trkpt lat="41.4118755" lon="2.0708449">
        <ele>266.80999756</ele>
        <time>2022-10-30T09:27:37Z</time>
      </trkpt>
      <trkpt lat="41.4118934" lon="2.0708349">
        <ele>266.98001099</ele>
        <time>2022-10-30T09:27:38Z</time>
      </trkpt>
      <trkpt lat="41.4119054" lon="2.070829">
        <ele>267.18002319</ele>
        <time>2022-10-30T09:27:39Z</time>
      </trkpt>
      <trkpt lat="41.4119363" lon="2.0708181">
        <ele>267.39001465</ele>
        <time>2022-10-30T09:27:40Z</time>
      </trkpt>
      <trkpt lat="41.4119582" lon="2.070826">
        <ele>267.66000366</ele>
        <time>2022-10-30T09:27:41Z</time>
      </trkpt>
      <trkpt lat="41.4119891" lon="2.0708231">
        <ele>267.95999146</ele>
        <time>2022-10-30T09:27:42Z</time>
      </trkpt>
      <trkpt lat="41.4120111" lon="2.070826">
        <ele>268.29998779</ele>
        <time>2022-10-30T09:27:43Z</time>
      </trkpt>
      <trkpt lat="41.4120331" lon="2.070834">
        <ele>268.66998291</ele>
        <time>2022-10-30T09:27:44Z</time>
      </trkpt>
      <trkpt lat="41.4120571" lon="2.0708449">
        <ele>268.98999023</ele>
        <time>2022-10-30T09:27:45Z</time>
      </trkpt>
      <trkpt lat="41.412064" lon="2.0708568">
        <ele>269.30999756</ele>
        <time>2022-10-30T09:27:46Z</time>
      </trkpt>
      <trkpt lat="41.4120759" lon="2.0708618">
        <ele>269.6000061</ele>
        <time>2022-10-30T09:27:47Z</time>
      </trkpt>
      <trkpt lat="41.4120909" lon="2.0708697">
        <ele>269.8500061</ele>
        <time>2022-10-30T09:27:48Z</time>
      </trkpt>
      <trkpt lat="41.4121288" lon="2.0708648">
        <ele>270.11999512</ele>
        <time>2022-10-30T09:27:49Z</time>
      </trkpt>
      <trkpt lat="41.4121728" lon="2.0708589">
        <ele>270.3500061</ele>
        <time>2022-10-30T09:27:50Z</time>
      </trkpt>
      <trkpt lat="41.4121987" lon="2.0708489">
        <ele>270.54000854</ele>
        <time>2022-10-30T09:27:51Z</time>
      </trkpt>
      <trkpt lat="41.4122416" lon="2.070834">
        <ele>270.75</ele>
        <time>2022-10-30T09:27:52Z</time>
      </trkpt>
      <trkpt lat="41.4122686" lon="2.070827">
        <ele>270.95001221</ele>
        <time>2022-10-30T09:27:53Z</time>
      </trkpt>
      <trkpt lat="41.4122986" lon="2.070812">
        <ele>271.21002197</ele>
        <time>2022-10-30T09:27:54Z</time>
      </trkpt>
      <trkpt lat="41.4123335" lon="2.0707991">
        <ele>271.52001953</ele>
        <time>2022-10-30T09:27:55Z</time>
      </trkpt>
      <trkpt lat="41.4123615" lon="2.0707851">
        <ele>271.81002808</ele>
        <time>2022-10-30T09:27:56Z</time>
      </trkpt>
      <trkpt lat="41.4123775" lon="2.0707691">
        <ele>272.10003662</ele>
        <time>2022-10-30T09:27:57Z</time>
      </trkpt>
      <trkpt lat="41.4123794" lon="2.0707591">
        <ele>272.35003662</ele>
        <time>2022-10-30T09:27:58Z</time>
      </trkpt>
      <trkpt lat="41.4123894" lon="2.0707271">
        <ele>272.58004761</ele>
        <time>2022-10-30T09:27:59Z</time>
      </trkpt>
      <trkpt lat="41.4123993" lon="2.0707182">
        <ele>272.76004028</ele>
        <time>2022-10-30T09:28:00Z</time>
      </trkpt>
      <trkpt lat="41.4124013" lon="2.0706963">
        <ele>272.91003418</ele>
        <time>2022-10-30T09:28:01Z</time>
      </trkpt>
      <trkpt lat="41.4124083" lon="2.0706693">
        <ele>273.00003052</ele>
        <time>2022-10-30T09:28:02Z</time>
      </trkpt>
      <trkpt lat="41.4124162" lon="2.0706404">
        <ele>273.02001953</ele>
        <time>2022-10-30T09:28:03Z</time>
      </trkpt>
      <trkpt lat="41.4124202" lon="2.0706025">
        <ele>273.06002808</ele>
        <time>2022-10-30T09:28:04Z</time>
      </trkpt>
      <trkpt lat="41.4124143" lon="2.0705805">
        <ele>273.04003906</ele>
        <time>2022-10-30T09:28:05Z</time>
      </trkpt>
      <trkpt lat="41.4124023" lon="2.0705616">
        <ele>273.04003906</ele>
        <time>2022-10-30T09:28:06Z</time>
      </trkpt>
      <trkpt lat="41.4123934" lon="2.0705457">
        <ele>273.05004883</ele>
        <time>2022-10-30T09:28:07Z</time>
      </trkpt>
      <trkpt lat="41.4123735" lon="2.0705177">
        <ele>273.03005981</ele>
        <time>2022-10-30T09:28:08Z</time>
      </trkpt>
      <trkpt lat="41.4123575" lon="2.0705098">
        <ele>273.07006836</ele>
        <time>2022-10-30T09:28:09Z</time>
      </trkpt>
      <trkpt lat="41.4123316" lon="2.0705127">
        <ele>273.1100769</ele>
        <time>2022-10-30T09:28:10Z</time>
      </trkpt>
      <trkpt lat="41.4123137" lon="2.0705098">
        <ele>273.18008423</ele>
        <time>2022-10-30T09:28:11Z</time>
      </trkpt>
      <trkpt lat="41.4122957" lon="2.0705088">
        <ele>273.29006958</ele>
        <time>2022-10-30T09:28:12Z</time>
      </trkpt>
      <trkpt lat="41.4122598" lon="2.0705188">
        <ele>273.40005493</ele>
        <time>2022-10-30T09:28:13Z</time>
      </trkpt>
      <trkpt lat="41.4122429" lon="2.0705178">
        <ele>273.54006958</ele>
        <time>2022-10-30T09:28:14Z</time>
      </trkpt>
      <trkpt lat="41.4122269" lon="2.0705188">
        <ele>273.6600647</ele>
        <time>2022-10-30T09:28:15Z</time>
      </trkpt>
      <trkpt lat="41.4122169" lon="2.0705139">
        <ele>273.7600708</ele>
        <time>2022-10-30T09:28:16Z</time>
      </trkpt>
      <trkpt lat="41.412199" lon="2.0705248">
        <ele>273.85006714</ele>
        <time>2022-10-30T09:28:17Z</time>
      </trkpt>
      <trkpt lat="41.412188" lon="2.0705298">
        <ele>273.89007568</ele>
        <time>2022-10-30T09:28:18Z</time>
      </trkpt>
      <trkpt lat="41.4121671" lon="2.0705367">
        <ele>273.92007446</ele>
        <time>2022-10-30T09:28:19Z</time>
      </trkpt>
      <trkpt lat="41.4121441" lon="2.0705387">
        <ele>273.99008179</ele>
        <time>2022-10-30T09:28:20Z</time>
      </trkpt>
      <trkpt lat="41.4121182" lon="2.0705367">
        <ele>274.05007935</ele>
        <time>2022-10-30T09:28:21Z</time>
      </trkpt>
      <trkpt lat="41.4121023" lon="2.0705396">
        <ele>274.13006592</ele>
        <time>2022-10-30T09:28:22Z</time>
      </trkpt>
      <trkpt lat="41.4120893" lon="2.0705367">
        <ele>274.2600708</ele>
        <time>2022-10-30T09:28:23Z</time>
      </trkpt>
      <trkpt lat="41.4120763" lon="2.0705318">
        <ele>274.43008423</ele>
        <time>2022-10-30T09:28:24Z</time>
      </trkpt>
      <trkpt lat="41.4120594" lon="2.0705299">
        <ele>274.60009766</ele>
        <time>2022-10-30T09:28:25Z</time>
      </trkpt>
      <trkpt lat="41.4120445" lon="2.0705189">
        <ele>274.86010742</ele>
        <time>2022-10-30T09:28:26Z</time>
      </trkpt>
      <trkpt lat="41.4120335" lon="2.070511">
        <ele>275.10009766</ele>
        <time>2022-10-30T09:28:27Z</time>
      </trkpt>
      <trkpt lat="41.4120276" lon="2.070506">
        <ele>275.33010864</ele>
        <time>2022-10-30T09:28:28Z</time>
      </trkpt>
      <trkpt lat="41.4120256" lon="2.070499">
        <ele>275.6401062</ele>
        <time>2022-10-30T09:28:29Z</time>
      </trkpt>
      <trkpt lat="41.4120107" lon="2.070489">
        <ele>275.95010376</ele>
        <time>2022-10-30T09:28:30Z</time>
      </trkpt>
      <trkpt lat="41.4119917" lon="2.0704831">
        <ele>276.26010132</ele>
        <time>2022-10-30T09:28:31Z</time>
      </trkpt>
      <trkpt lat="41.4119777" lon="2.0704671">
        <ele>276.60009766</ele>
        <time>2022-10-30T09:28:32Z</time>
      </trkpt>
      <trkpt lat="41.4119628" lon="2.0704572">
        <ele>276.92010498</ele>
        <time>2022-10-30T09:28:33Z</time>
      </trkpt>
      <trkpt lat="41.4119438" lon="2.0704482">
        <ele>277.19009399</ele>
        <time>2022-10-30T09:28:34Z</time>
      </trkpt>
      <trkpt lat="41.4119259" lon="2.0704293">
        <ele>277.53009033</ele>
        <time>2022-10-30T09:28:35Z</time>
      </trkpt>
      <trkpt lat="41.4119069" lon="2.0704303">
        <ele>277.81008911</ele>
        <time>2022-10-30T09:28:36Z</time>
      </trkpt>
      <trkpt lat="41.4118889" lon="2.0704284">
        <ele>278.14007568</ele>
        <time>2022-10-30T09:28:37Z</time>
      </trkpt>
      <trkpt lat="41.411869" lon="2.0704204">
        <ele>278.53009033</ele>
        <time>2022-10-30T09:28:38Z</time>
      </trkpt>
      <trkpt lat="41.4118331" lon="2.0704175">
        <ele>278.87008667</ele>
        <time>2022-10-30T09:28:39Z</time>
      </trkpt>
      <trkpt lat="41.4118131" lon="2.0704165">
        <ele>279.25009155</ele>
        <time>2022-10-30T09:28:40Z</time>
      </trkpt>
      <trkpt lat="41.4118072" lon="2.0704056">
        <ele>279.57009888</ele>
        <time>2022-10-30T09:28:41Z</time>
      </trkpt>
      <trkpt lat="41.4117962" lon="2.0703946">
        <ele>279.84008789</ele>
        <time>2022-10-30T09:28:42Z</time>
      </trkpt>
      <trkpt lat="41.4117803" lon="2.0703887">
        <ele>280.15008545</ele>
        <time>2022-10-30T09:28:43Z</time>
      </trkpt>
      <trkpt lat="41.4117563" lon="2.0703937">
        <ele>280.42007446</ele>
        <time>2022-10-30T09:28:44Z</time>
      </trkpt>
      <trkpt lat="41.4117414" lon="2.0703927">
        <ele>280.73007202</ele>
        <time>2022-10-30T09:28:45Z</time>
      </trkpt>
      <trkpt lat="41.4117204" lon="2.0703986">
        <ele>281.08007812</ele>
        <time>2022-10-30T09:28:46Z</time>
      </trkpt>
      <trkpt lat="41.4116995" lon="2.0704096">
        <ele>281.39007568</ele>
        <time>2022-10-30T09:28:47Z</time>
      </trkpt>
      <trkpt lat="41.4116835" lon="2.0704155">
        <ele>281.82006836</ele>
        <time>2022-10-30T09:28:48Z</time>
      </trkpt>
      <trkpt lat="41.4116576" lon="2.0704225">
        <ele>282.23007202</ele>
        <time>2022-10-30T09:28:49Z</time>
      </trkpt>
      <trkpt lat="41.4116466" lon="2.0704205">
        <ele>282.67007446</ele>
        <time>2022-10-30T09:28:50Z</time>
      </trkpt>
      <trkpt lat="41.4116216" lon="2.0704165">
        <ele>283.19006348</ele>
        <time>2022-10-30T09:28:51Z</time>
      </trkpt>
      <trkpt lat="41.4116106" lon="2.0704056">
        <ele>283.72006226</ele>
        <time>2022-10-30T09:28:52Z</time>
      </trkpt>
      <trkpt lat="41.4116057" lon="2.0703926">
        <ele>284.28005981</ele>
        <time>2022-10-30T09:28:53Z</time>
      </trkpt>
      <trkpt lat="41.4115877" lon="2.0703975">
        <ele>284.83004761</ele>
        <time>2022-10-30T09:28:54Z</time>
      </trkpt>
      <trkpt lat="41.4115687" lon="2.0704004">
        <ele>285.34005737</ele>
        <time>2022-10-30T09:28:55Z</time>
      </trkpt>
      <trkpt lat="41.4115538" lon="2.0704024">
        <ele>285.82006836</ele>
        <time>2022-10-30T09:28:56Z</time>
      </trkpt>
      <trkpt lat="41.4115428" lon="2.0703775">
        <ele>286.2600708</ele>
        <time>2022-10-30T09:28:57Z</time>
      </trkpt>
      <trkpt lat="41.4115259" lon="2.0703834">
        <ele>286.67007446</ele>
        <time>2022-10-30T09:28:58Z</time>
      </trkpt>
      <trkpt lat="41.411511" lon="2.0703863">
        <ele>287.06008911</ele>
        <time>2022-10-30T09:28:59Z</time>
      </trkpt>
      <trkpt lat="41.411487" lon="2.0703903">
        <ele>287.40008545</ele>
        <time>2022-10-30T09:29:00Z</time>
      </trkpt>
      <trkpt lat="41.4114661" lon="2.0703813">
        <ele>287.74008179</ele>
        <time>2022-10-30T09:29:01Z</time>
      </trkpt>
      <trkpt lat="41.4114402" lon="2.0703524">
        <ele>288.06008911</ele>
        <time>2022-10-30T09:29:02Z</time>
      </trkpt>
      <trkpt lat="41.4114352" lon="2.0703164">
        <ele>288.38009644</ele>
        <time>2022-10-30T09:29:03Z</time>
      </trkpt>
      <trkpt lat="41.4114153" lon="2.0703114">
        <ele>288.75009155</ele>
        <time>2022-10-30T09:29:04Z</time>
      </trkpt>
      <trkpt lat="41.4114083" lon="2.0703035">
        <ele>289.1401062</ele>
        <time>2022-10-30T09:29:05Z</time>
      </trkpt>
      <trkpt lat="41.4114054" lon="2.0702976">
        <ele>289.60009766</ele>
        <time>2022-10-30T09:29:06Z</time>
      </trkpt>
      <trkpt lat="41.4113935" lon="2.0702827">
        <ele>290.19009399</ele>
        <time>2022-10-30T09:29:07Z</time>
      </trkpt>
      <trkpt lat="41.4113695" lon="2.0702856">
        <ele>290.76010132</ele>
        <time>2022-10-30T09:29:08Z</time>
      </trkpt>
      <trkpt lat="41.4113486" lon="2.0702797">
        <ele>291.34008789</ele>
        <time>2022-10-30T09:29:09Z</time>
      </trkpt>
      <trkpt lat="41.4113397" lon="2.0702667">
        <ele>291.89007568</ele>
        <time>2022-10-30T09:29:10Z</time>
      </trkpt>
      <trkpt lat="41.4113228" lon="2.0702478">
        <ele>292.28009033</ele>
        <time>2022-10-30T09:29:11Z</time>
      </trkpt>
      <trkpt lat="41.4113128" lon="2.0702438">
        <ele>292.66009521</ele>
        <time>2022-10-30T09:29:12Z</time>
      </trkpt>
      <trkpt lat="41.4112988" lon="2.0702358">
        <ele>293.05010986</ele>
        <time>2022-10-30T09:29:13Z</time>
      </trkpt>
      <trkpt lat="41.4112839" lon="2.0702198">
        <ele>293.45010376</ele>
        <time>2022-10-30T09:29:14Z</time>
      </trkpt>
      <trkpt lat="41.4112659" lon="2.0701969">
        <ele>293.97009277</ele>
        <time>2022-10-30T09:29:15Z</time>
      </trkpt>
      <trkpt lat="41.411246" lon="2.070178">
        <ele>294.46008301</ele>
        <time>2022-10-30T09:29:16Z</time>
      </trkpt>
      <trkpt lat="41.411235" lon="2.070152">
        <ele>294.93008423</ele>
        <time>2022-10-30T09:29:17Z</time>
      </trkpt>
      <trkpt lat="41.4112281" lon="2.0701401">
        <ele>295.45007324</ele>
        <time>2022-10-30T09:29:18Z</time>
      </trkpt>
      <trkpt lat="41.4112192" lon="2.0701231">
        <ele>295.82006836</ele>
        <time>2022-10-30T09:29:19Z</time>
      </trkpt>
      <trkpt lat="41.4112012" lon="2.0701001">
        <ele>296.20007324</ele>
        <time>2022-10-30T09:29:20Z</time>
      </trkpt>
      <trkpt lat="41.4111923" lon="2.0700942">
        <ele>296.55007935</ele>
        <time>2022-10-30T09:29:21Z</time>
      </trkpt>
      <trkpt lat="41.4111834" lon="2.0700982">
        <ele>296.72009277</ele>
        <time>2022-10-30T09:29:22Z</time>
      </trkpt>
      <trkpt lat="41.4111805" lon="2.0700942">
        <ele>296.91009521</ele>
        <time>2022-10-30T09:29:23Z</time>
      </trkpt>
      <trkpt lat="41.4111805" lon="2.0700982">
        <ele>297.05010986</ele>
        <time>2022-10-30T09:29:24Z</time>
      </trkpt>
      <trkpt lat="41.411091" lon="2.07017">
        <ele>297.80999756</ele>
        <time>2022-10-30T09:32:06Z</time>
      </trkpt>
      <trkpt lat="41.411083" lon="2.070157">
        <ele>297.77999878</ele>
        <time>2022-10-30T09:32:07Z</time>
      </trkpt>
      <trkpt lat="41.4110711" lon="2.0701481">
        <ele>297.75</ele>
        <time>2022-10-30T09:32:08Z</time>
      </trkpt>
      <trkpt lat="41.4110551" lon="2.0701371">
        <ele>297.82998657</ele>
        <time>2022-10-30T09:32:09Z</time>
      </trkpt>
      <trkpt lat="41.4110382" lon="2.0701301">
        <ele>297.8999939</ele>
        <time>2022-10-30T09:32:10Z</time>
      </trkpt>
      <trkpt lat="41.4110173" lon="2.0701141">
        <ele>297.91998291</ele>
        <time>2022-10-30T09:32:11Z</time>
      </trkpt>
      <trkpt lat="41.4110033" lon="2.0701022">
        <ele>297.93997192</ele>
        <time>2022-10-30T09:32:12Z</time>
      </trkpt>
      <trkpt lat="41.4109953" lon="2.0700903">
        <ele>297.95996094</ele>
        <time>2022-10-30T09:32:13Z</time>
      </trkpt>
      <trkpt lat="41.4109784" lon="2.0700854">
        <ele>298.1199646</ele>
        <time>2022-10-30T09:32:14Z</time>
      </trkpt>
      <trkpt lat="41.4109495" lon="2.0700764">
        <ele>298.30996704</ele>
        <time>2022-10-30T09:32:15Z</time>
      </trkpt>
      <trkpt lat="41.4109385" lon="2.0700695">
        <ele>298.64996338</ele>
        <time>2022-10-30T09:32:16Z</time>
      </trkpt>
      <trkpt lat="41.4109285" lon="2.0700645">
        <ele>299.02996826</ele>
        <time>2022-10-30T09:32:17Z</time>
      </trkpt>
      <trkpt lat="41.4109196" lon="2.0700616">
        <ele>299.41998291</ele>
        <time>2022-10-30T09:32:18Z</time>
      </trkpt>
      <trkpt lat="41.4109146" lon="2.0700546">
        <ele>299.84997559</ele>
        <time>2022-10-30T09:32:19Z</time>
      </trkpt>
      <trkpt lat="41.4108987" lon="2.0700457">
        <ele>300.17996216</ele>
        <time>2022-10-30T09:32:20Z</time>
      </trkpt>
      <trkpt lat="41.4108797" lon="2.0700387">
        <ele>300.39996338</ele>
        <time>2022-10-30T09:32:21Z</time>
      </trkpt>
      <trkpt lat="41.4108647" lon="2.0700348">
        <ele>300.4699707</ele>
        <time>2022-10-30T09:32:22Z</time>
      </trkpt>
      <trkpt lat="41.4108438" lon="2.0700328">
        <ele>300.44998169</ele>
        <time>2022-10-30T09:32:23Z</time>
      </trkpt>
      <trkpt lat="41.4108198" lon="2.0700239">
        <ele>300.42999268</ele>
        <time>2022-10-30T09:32:24Z</time>
      </trkpt>
      <trkpt lat="41.4107999" lon="2.0700279">
        <ele>300.44000244</ele>
        <time>2022-10-30T09:32:25Z</time>
      </trkpt>
      <trkpt lat="41.410781" lon="2.0700169">
        <ele>300.3999939</ele>
        <time>2022-10-30T09:32:26Z</time>
      </trkpt>
      <trkpt lat="41.410763" lon="2.070014">
        <ele>300.47000122</ele>
        <time>2022-10-30T09:32:27Z</time>
      </trkpt>
      <trkpt lat="41.4107431" lon="2.0700081">
        <ele>300.52999878</ele>
        <time>2022-10-30T09:32:28Z</time>
      </trkpt>
      <trkpt lat="41.4107092" lon="2.0700071">
        <ele>300.63000488</ele>
        <time>2022-10-30T09:32:29Z</time>
      </trkpt>
      <trkpt lat="41.4106853" lon="2.0700052">
        <ele>300.79000854</ele>
        <time>2022-10-30T09:32:30Z</time>
      </trkpt>
      <trkpt lat="41.4106643" lon="2.0700012">
        <ele>300.93002319</ele>
        <time>2022-10-30T09:32:31Z</time>
      </trkpt>
      <trkpt lat="41.4106464" lon="2.0699863">
        <ele>301.02001953</ele>
        <time>2022-10-30T09:32:32Z</time>
      </trkpt>
      <trkpt lat="41.4106334" lon="2.0699644">
        <ele>301.0300293</ele>
        <time>2022-10-30T09:32:33Z</time>
      </trkpt>
      <trkpt lat="41.4106155" lon="2.0699284">
        <ele>300.99002075</ele>
        <time>2022-10-30T09:32:34Z</time>
      </trkpt>
      <trkpt lat="41.4106065" lon="2.0698964">
        <ele>300.8800354</ele>
        <time>2022-10-30T09:32:35Z</time>
      </trkpt>
      <trkpt lat="41.4105766" lon="2.0698835">
        <ele>300.75003052</ele>
        <time>2022-10-30T09:32:36Z</time>
      </trkpt>
      <trkpt lat="41.4105427" lon="2.0698655">
        <ele>300.60003662</ele>
        <time>2022-10-30T09:32:37Z</time>
      </trkpt>
      <trkpt lat="41.4104987" lon="2.0698295">
        <ele>300.43002319</ele>
        <time>2022-10-30T09:32:38Z</time>
      </trkpt>
      <trkpt lat="41.4104717" lon="2.0698046">
        <ele>300.32003784</ele>
        <time>2022-10-30T09:32:39Z</time>
      </trkpt>
      <trkpt lat="41.4104428" lon="2.0697797">
        <ele>300.19003296</ele>
        <time>2022-10-30T09:32:40Z</time>
      </trkpt>
      <trkpt lat="41.4104148" lon="2.0697558">
        <ele>300.04003906</ele>
        <time>2022-10-30T09:32:41Z</time>
      </trkpt>
      <trkpt lat="41.4103749" lon="2.0697228">
        <ele>299.8800354</ele>
        <time>2022-10-30T09:32:42Z</time>
      </trkpt>
      <trkpt lat="41.4103509" lon="2.0697049">
        <ele>299.65002441</ele>
        <time>2022-10-30T09:32:43Z</time>
      </trkpt>
      <trkpt lat="41.410331" lon="2.0696909">
        <ele>299.5300293</ele>
        <time>2022-10-30T09:32:44Z</time>
      </trkpt>
      <trkpt lat="41.4103161" lon="2.0696749">
        <ele>299.5300293</ele>
        <time>2022-10-30T09:32:45Z</time>
      </trkpt>
      <trkpt lat="41.4102952" lon="2.0696489">
        <ele>299.59002686</ele>
        <time>2022-10-30T09:32:46Z</time>
      </trkpt>
      <trkpt lat="41.4102652" lon="2.06959">
        <ele>299.57003784</ele>
        <time>2022-10-30T09:32:47Z</time>
      </trkpt>
      <trkpt lat="41.4102522" lon="2.069554">
        <ele>299.46005249</ele>
        <time>2022-10-30T09:32:48Z</time>
      </trkpt>
      <trkpt lat="41.4102343" lon="2.0695371">
        <ele>299.28005981</ele>
        <time>2022-10-30T09:32:49Z</time>
      </trkpt>
      <trkpt lat="41.4102164" lon="2.0695152">
        <ele>299.07006836</ele>
        <time>2022-10-30T09:32:50Z</time>
      </trkpt>
      <trkpt lat="41.4101834" lon="2.0694852">
        <ele>299.08007812</ele>
        <time>2022-10-30T09:32:51Z</time>
      </trkpt>
      <trkpt lat="41.4101694" lon="2.0694673">
        <ele>299.25009155</ele>
        <time>2022-10-30T09:32:52Z</time>
      </trkpt>
      <trkpt lat="41.4101495" lon="2.0694513">
        <ele>299.40008545</ele>
        <time>2022-10-30T09:32:53Z</time>
      </trkpt>
      <trkpt lat="41.4101285" lon="2.0694324">
        <ele>299.62008667</ele>
        <time>2022-10-30T09:32:54Z</time>
      </trkpt>
      <trkpt lat="41.4100876" lon="2.0693994">
        <ele>299.72009277</ele>
        <time>2022-10-30T09:32:55Z</time>
      </trkpt>
      <trkpt lat="41.4100766" lon="2.0693725">
        <ele>299.67010498</ele>
        <time>2022-10-30T09:32:56Z</time>
      </trkpt>
      <trkpt lat="41.4100556" lon="2.0693495">
        <ele>299.68011475</ele>
        <time>2022-10-30T09:32:57Z</time>
      </trkpt>
      <trkpt lat="41.4100407" lon="2.0693265">
        <ele>299.6401062</ele>
        <time>2022-10-30T09:32:58Z</time>
      </trkpt>
      <trkpt lat="41.4100217" lon="2.0693116">
        <ele>299.70010376</ele>
        <time>2022-10-30T09:32:59Z</time>
      </trkpt>
      <trkpt lat="41.4100088" lon="2.0692997">
        <ele>299.82009888</ele>
        <time>2022-10-30T09:33:00Z</time>
      </trkpt>
      <trkpt lat="41.4099889" lon="2.0692808">
        <ele>299.98010254</ele>
        <time>2022-10-30T09:33:01Z</time>
      </trkpt>
      <trkpt lat="41.4099829" lon="2.0692738">
        <ele>300.08010864</ele>
        <time>2022-10-30T09:33:02Z</time>
      </trkpt>
      <trkpt lat="41.40998" lon="2.0692709">
        <ele>300.09011841</ele>
        <time>2022-10-30T09:33:03Z</time>
      </trkpt>
      <trkpt lat="41.409977" lon="2.069268">
        <ele>300.20999146</ele>
        <time>2022-10-30T09:33:03Z</time>
      </trkpt>
      <trkpt lat="41.409902" lon="2.069228">
        <ele>297.64001465</ele>
        <time>2022-10-30T09:39:55Z</time>
      </trkpt>
      <trkpt lat="41.4098991" lon="2.0692161">
        <ele>297.49002075</ele>
        <time>2022-10-30T09:39:56Z</time>
      </trkpt>
      <trkpt lat="41.4098931" lon="2.0692082">
        <ele>297.31002808</ele>
        <time>2022-10-30T09:39:57Z</time>
      </trkpt>
      <trkpt lat="41.4098782" lon="2.0692101">
        <ele>297.06002808</ele>
        <time>2022-10-30T09:39:58Z</time>
      </trkpt>
      <trkpt lat="41.4098573" lon="2.069212">
        <ele>296.87002563</ele>
        <time>2022-10-30T09:39:59Z</time>
      </trkpt>
      <trkpt lat="41.4098453" lon="2.0692091">
        <ele>296.71002197</ele>
        <time>2022-10-30T09:40:00Z</time>
      </trkpt>
      <trkpt lat="41.4098324" lon="2.0691892">
        <ele>296.42001343</ele>
        <time>2022-10-30T09:40:01Z</time>
      </trkpt>
      <trkpt lat="41.4098214" lon="2.0691732">
        <ele>296.08001709</ele>
        <time>2022-10-30T09:40:02Z</time>
      </trkpt>
      <trkpt lat="41.4098024" lon="2.0691572">
        <ele>295.6000061</ele>
        <time>2022-10-30T09:40:03Z</time>
      </trkpt>
      <trkpt lat="41.4097494" lon="2.0691591">
        <ele>294.99002075</ele>
        <time>2022-10-30T09:40:04Z</time>
      </trkpt>
      <trkpt lat="41.4097125" lon="2.069161">
        <ele>294.24002075</ele>
        <time>2022-10-30T09:40:05Z</time>
      </trkpt>
      <trkpt lat="41.4096856" lon="2.069163">
        <ele>293.39001465</ele>
        <time>2022-10-30T09:40:06Z</time>
      </trkpt>
      <trkpt lat="41.4096736" lon="2.0691639">
        <ele>292.56002808</ele>
        <time>2022-10-30T09:40:07Z</time>
      </trkpt>
      <trkpt lat="41.4096727" lon="2.0691699">
        <ele>291.90002441</ele>
        <time>2022-10-30T09:40:08Z</time>
      </trkpt>
      <trkpt lat="41.4096411" lon="2.0692039">
        <ele>291.94000244</ele>
        <time>2022-10-30T09:41:15Z</time>
      </trkpt>
      <trkpt lat="41.409647" lon="2.0692029">
        <ele>292.01998901</ele>
        <time>2022-10-30T09:41:16Z</time>
      </trkpt>
      <trkpt lat="41.409645" lon="2.0692029">
        <ele>292.09997559</ele>
        <time>2022-10-30T09:41:17Z</time>
      </trkpt>
      <trkpt lat="41.4096509" lon="2.0692069">
        <ele>292.17996216</ele>
        <time>2022-10-30T09:41:18Z</time>
      </trkpt>
      <trkpt lat="41.4096559" lon="2.0692098">
        <ele>292.31997681</ele>
        <time>2022-10-30T09:41:19Z</time>
      </trkpt>
      <trkpt lat="41.4096699" lon="2.0692069">
        <ele>292.45999146</ele>
        <time>2022-10-30T09:41:20Z</time>
      </trkpt>
      <trkpt lat="41.4096769" lon="2.069204">
        <ele>292.69000244</ele>
        <time>2022-10-30T09:41:21Z</time>
      </trkpt>
      <trkpt lat="41.4096868" lon="2.0692011">
        <ele>292.83001709</ele>
        <time>2022-10-30T09:41:22Z</time>
      </trkpt>
      <trkpt lat="41.4096968" lon="2.0692011">
        <ele>293.02001953</ele>
        <time>2022-10-30T09:41:23Z</time>
      </trkpt>
      <trkpt lat="41.4097007" lon="2.069207">
        <ele>293.25003052</ele>
        <time>2022-10-30T09:41:24Z</time>
      </trkpt>
      <trkpt lat="41.4097127" lon="2.0692011">
        <ele>293.40002441</ele>
        <time>2022-10-30T09:41:25Z</time>
      </trkpt>
      <trkpt lat="41.4097156" lon="2.0691961">
        <ele>293.56002808</ele>
        <time>2022-10-30T09:41:26Z</time>
      </trkpt>
      <trkpt lat="41.4097156" lon="2.0692011">
        <ele>293.76004028</ele>
        <time>2022-10-30T09:41:27Z</time>
      </trkpt>
      <trkpt lat="41.4097076" lon="2.069207">
        <ele>293.95004272</ele>
        <time>2022-10-30T09:41:28Z</time>
      </trkpt>
      <trkpt lat="41.4097245" lon="2.069207">
        <ele>294.15005493</ele>
        <time>2022-10-30T09:41:29Z</time>
      </trkpt>
      <trkpt lat="41.4097414" lon="2.0691951">
        <ele>294.30004883</ele>
        <time>2022-10-30T09:41:30Z</time>
      </trkpt>
      <trkpt lat="41.409721" lon="2.069181">
        <ele>294.83999634</ele>
        <time>2022-10-30T09:41:51Z</time>
      </trkpt>
      <trkpt lat="41.409696" lon="2.069174">
        <ele>294.57000732</ele>
        <time>2022-10-30T09:41:52Z</time>
      </trkpt>
      <trkpt lat="41.4096691" lon="2.0691681">
        <ele>293.92999268</ele>
        <time>2022-10-30T09:41:53Z</time>
      </trkpt>
      <trkpt lat="41.4096402" lon="2.0691761">
        <ele>293.27999878</ele>
        <time>2022-10-30T09:41:54Z</time>
      </trkpt>
      <trkpt lat="41.4096292" lon="2.0691751">
        <ele>292.61999512</ele>
        <time>2022-10-30T09:41:55Z</time>
      </trkpt>
      <trkpt lat="41.4096263" lon="2.0691821">
        <ele>292.04998779</ele>
        <time>2022-10-30T09:41:56Z</time>
      </trkpt>
      <trkpt lat="41.4096339" lon="2.069183">
        <ele>290.60998535</ele>
        <time>2022-10-30T09:44:11Z</time>
      </trkpt>
      <trkpt lat="41.4096419" lon="2.0691849">
        <ele>290.6499939</ele>
        <time>2022-10-30T09:44:12Z</time>
      </trkpt>
      <trkpt lat="41.4096508" lon="2.0691868">
        <ele>290.72998047</ele>
        <time>2022-10-30T09:44:13Z</time>
      </trkpt>
      <trkpt lat="41.4096689" lon="2.069198">
        <ele>291.09997559</ele>
        <time>2022-10-30T09:44:16Z</time>
      </trkpt>
      <trkpt lat="41.4096728" lon="2.069198">
        <ele>291.17996216</ele>
        <time>2022-10-30T09:44:17Z</time>
      </trkpt>
      <trkpt lat="41.4096757" lon="2.0692009">
        <ele>291.20996094</ele>
        <time>2022-10-30T09:44:18Z</time>
      </trkpt>
      <trkpt lat="41.4098169" lon="2.0692529">
        <ele>293.97000122</ele>
        <time>2022-10-30T09:44:53Z</time>
      </trkpt>
      <trkpt lat="41.4098279" lon="2.06924">
        <ele>294.05999756</ele>
        <time>2022-10-30T09:44:54Z</time>
      </trkpt>
      <trkpt lat="41.4098419" lon="2.069236">
        <ele>294.1000061</ele>
        <time>2022-10-30T09:44:55Z</time>
      </trkpt>
      <trkpt lat="41.4098618" lon="2.069236">
        <ele>294.22000122</ele>
        <time>2022-10-30T09:44:56Z</time>
      </trkpt>
      <trkpt lat="41.4098748" lon="2.069237">
        <ele>294.36001587</ele>
        <time>2022-10-30T09:44:57Z</time>
      </trkpt>
      <trkpt lat="41.4098768" lon="2.0692489">
        <ele>294.48001099</ele>
        <time>2022-10-30T09:44:58Z</time>
      </trkpt>
      <trkpt lat="41.4098837" lon="2.0692548">
        <ele>294.67001343</ele>
        <time>2022-10-30T09:44:59Z</time>
      </trkpt>
      <trkpt lat="41.4098917" lon="2.0692577">
        <ele>294.79000854</ele>
        <time>2022-10-30T09:45:00Z</time>
      </trkpt>
      <trkpt lat="41.4098976" lon="2.0692596">
        <ele>294.88000488</ele>
        <time>2022-10-30T09:45:01Z</time>
      </trkpt>
      <trkpt lat="41.409909" lon="2.0692431">
        <ele>294.05001831</ele>
        <time>2022-10-30T09:45:47Z</time>
      </trkpt>
      <trkpt lat="41.409893" lon="2.0692402">
        <ele>293.92001343</ele>
        <time>2022-10-30T09:45:48Z</time>
      </trkpt>
      <trkpt lat="41.4098721" lon="2.0692421">
        <ele>293.74002075</ele>
        <time>2022-10-30T09:45:49Z</time>
      </trkpt>
      <trkpt lat="41.4098471" lon="2.0692392">
        <ele>293.52001953</ele>
        <time>2022-10-30T09:45:50Z</time>
      </trkpt>
      <trkpt lat="41.4098311" lon="2.0692222">
        <ele>293.11001587</ele>
        <time>2022-10-30T09:45:51Z</time>
      </trkpt>
      <trkpt lat="41.4098102" lon="2.0692133">
        <ele>292.74002075</ele>
        <time>2022-10-30T09:45:52Z</time>
      </trkpt>
      <trkpt lat="41.4097852" lon="2.0692014">
        <ele>292.16003418</ele>
        <time>2022-10-30T09:45:53Z</time>
      </trkpt>
      <trkpt lat="41.4097552" lon="2.0691955">
        <ele>291.49002075</ele>
        <time>2022-10-30T09:45:54Z</time>
      </trkpt>
      <trkpt lat="41.4097013" lon="2.0692044">
        <ele>290.64001465</ele>
        <time>2022-10-30T09:45:55Z</time>
      </trkpt>
      <trkpt lat="41.4096714" lon="2.0692114">
        <ele>289.63000488</ele>
        <time>2022-10-30T09:45:56Z</time>
      </trkpt>
      <trkpt lat="41.4096524" lon="2.0692044">
        <ele>288.83999634</ele>
        <time>2022-10-30T09:45:57Z</time>
      </trkpt>
      <trkpt lat="41.4096355" lon="2.0691925">
        <ele>288.01998901</ele>
        <time>2022-10-30T09:45:58Z</time>
      </trkpt>
      <trkpt lat="41.4096156" lon="2.0691795">
        <ele>287.32998657</ele>
        <time>2022-10-30T09:45:59Z</time>
      </trkpt>
      <trkpt lat="41.4096136" lon="2.0691766">
        <ele>286.62997437</ele>
        <time>2022-10-30T09:46:00Z</time>
      </trkpt>
      <trkpt lat="41.4096205" lon="2.0691677">
        <ele>285.93997192</ele>
        <time>2022-10-30T09:46:01Z</time>
      </trkpt>
      <trkpt lat="41.409569" lon="2.0692009">
        <ele>284.18997192</ele>
        <time>2022-10-30T09:48:11Z</time>
      </trkpt>
      <trkpt lat="41.409558" lon="2.0692038">
        <ele>284.00997925</ele>
        <time>2022-10-30T09:48:12Z</time>
      </trkpt>
      <trkpt lat="41.4095381" lon="2.0692009">
        <ele>283.60998535</ele>
        <time>2022-10-30T09:48:13Z</time>
      </trkpt>
      <trkpt lat="41.4095152" lon="2.0692118">
        <ele>283.18997192</ele>
        <time>2022-10-30T09:48:14Z</time>
      </trkpt>
      <trkpt lat="41.4094962" lon="2.0692298">
        <ele>282.65997314</ele>
        <time>2022-10-30T09:48:15Z</time>
      </trkpt>
      <trkpt lat="41.4094753" lon="2.0692317">
        <ele>282.08996582</ele>
        <time>2022-10-30T09:48:16Z</time>
      </trkpt>
      <trkpt lat="41.4094464" lon="2.0692417">
        <ele>281.6199646</ele>
        <time>2022-10-30T09:48:17Z</time>
      </trkpt>
      <trkpt lat="41.4094194" lon="2.0692328">
        <ele>280.91995239</ele>
        <time>2022-10-30T09:48:18Z</time>
      </trkpt>
      <trkpt lat="41.4093864" lon="2.0691998">
        <ele>280.14996338</ele>
        <time>2022-10-30T09:48:19Z</time>
      </trkpt>
      <trkpt lat="41.4093605" lon="2.0691789">
        <ele>279.25994873</ele>
        <time>2022-10-30T09:48:20Z</time>
      </trkpt>
      <trkpt lat="41.4093256" lon="2.0691709">
        <ele>278.20996094</ele>
        <time>2022-10-30T09:48:21Z</time>
      </trkpt>
      <trkpt lat="41.4092956" lon="2.0691768">
        <ele>277.32995605</ele>
        <time>2022-10-30T09:48:22Z</time>
      </trkpt>
      <trkpt lat="41.4092467" lon="2.0692028">
        <ele>276.38995361</ele>
        <time>2022-10-30T09:48:23Z</time>
      </trkpt>
      <trkpt lat="41.4092077" lon="2.0691949">
        <ele>275.48995972</ele>
        <time>2022-10-30T09:48:24Z</time>
      </trkpt>
      <trkpt lat="41.4091738" lon="2.0691899">
        <ele>274.78994751</ele>
        <time>2022-10-30T09:48:25Z</time>
      </trkpt>
      <trkpt lat="41.4091399" lon="2.0691909">
        <ele>274.0199585</ele>
        <time>2022-10-30T09:48:26Z</time>
      </trkpt>
      <trkpt lat="41.4091049" lon="2.0692009">
        <ele>273.40997314</ele>
        <time>2022-10-30T09:48:27Z</time>
      </trkpt>
      <trkpt lat="41.409057" lon="2.0691899">
        <ele>272.81997681</ele>
        <time>2022-10-30T09:48:28Z</time>
      </trkpt>
      <trkpt lat="41.4090331" lon="2.069166">
        <ele>272.23999023</ele>
        <time>2022-10-30T09:48:29Z</time>
      </trkpt>
      <trkpt lat="41.4090091" lon="2.0691471">
        <ele>271.84997559</ele>
        <time>2022-10-30T09:48:30Z</time>
      </trkpt>
      <trkpt lat="41.4089882" lon="2.0691341">
        <ele>271.49996948</ele>
        <time>2022-10-30T09:48:31Z</time>
      </trkpt>
      <trkpt lat="41.4089562" lon="2.0691041">
        <ele>271.09997559</ele>
        <time>2022-10-30T09:48:32Z</time>
      </trkpt>
      <trkpt lat="41.4089342" lon="2.0690942">
        <ele>270.63998413</ele>
        <time>2022-10-30T09:48:33Z</time>
      </trkpt>
      <trkpt lat="41.4089053" lon="2.0690942">
        <ele>270.05999756</ele>
        <time>2022-10-30T09:48:34Z</time>
      </trkpt>
      <trkpt lat="41.4088803" lon="2.0690842">
        <ele>269.20001221</ele>
        <time>2022-10-30T09:48:35Z</time>
      </trkpt>
      <trkpt lat="41.4088534" lon="2.0690712">
        <ele>268.30999756</ele>
        <time>2022-10-30T09:48:36Z</time>
      </trkpt>
      <trkpt lat="41.4088124" lon="2.0690442">
        <ele>267.17999268</ele>
        <time>2022-10-30T09:48:37Z</time>
      </trkpt>
      <trkpt lat="41.4087964" lon="2.0690152">
        <ele>265.75</ele>
        <time>2022-10-30T09:48:38Z</time>
      </trkpt>
      <trkpt lat="41.4087925" lon="2.0689783">
        <ele>264.54000854</ele>
        <time>2022-10-30T09:48:39Z</time>
      </trkpt>
      <trkpt lat="41.4087875" lon="2.0689404">
        <ele>262.96002197</ele>
        <time>2022-10-30T09:48:40Z</time>
      </trkpt>
      <trkpt lat="41.4087825" lon="2.0688785">
        <ele>261.60003662</ele>
        <time>2022-10-30T09:48:41Z</time>
      </trkpt>
      <trkpt lat="41.4087666" lon="2.0688495">
        <ele>260.2800293</ele>
        <time>2022-10-30T09:48:42Z</time>
      </trkpt>
      <trkpt lat="41.4087566" lon="2.0688285">
        <ele>258.66003418</ele>
        <time>2022-10-30T09:48:43Z</time>
      </trkpt>
      <trkpt lat="41.4087397" lon="2.0688096">
        <ele>257.61004639</ele>
        <time>2022-10-30T09:48:44Z</time>
      </trkpt>
      <trkpt lat="41.4087138" lon="2.0687767">
        <ele>256.45004272</ele>
        <time>2022-10-30T09:48:45Z</time>
      </trkpt>
      <trkpt lat="41.4086988" lon="2.0687607">
        <ele>255.55004883</ele>
        <time>2022-10-30T09:48:46Z</time>
      </trkpt>
      <trkpt lat="41.4086839" lon="2.0687548">
        <ele>254.93005371</ele>
        <time>2022-10-30T09:48:47Z</time>
      </trkpt>
      <trkpt lat="41.408669" lon="2.0687308">
        <ele>254.220047</ele>
        <time>2022-10-30T09:48:48Z</time>
      </trkpt>
      <trkpt lat="41.408648" lon="2.0687169">
        <ele>253.75004578</ele>
        <time>2022-10-30T09:48:49Z</time>
      </trkpt>
      <trkpt lat="41.4086291" lon="2.0686939">
        <ele>253.2300415</ele>
        <time>2022-10-30T09:48:50Z</time>
      </trkpt>
      <trkpt lat="41.408642" lon="2.0686479">
        <ele>252.82003784</ele>
        <time>2022-10-30T09:48:51Z</time>
      </trkpt>
      <trkpt lat="41.408644" lon="2.068601">
        <ele>252.3800354</ele>
        <time>2022-10-30T09:48:52Z</time>
      </trkpt>
      <trkpt lat="41.408628" lon="2.0685831">
        <ele>251.7800293</ele>
        <time>2022-10-30T09:48:53Z</time>
      </trkpt>
      <trkpt lat="41.4085911" lon="2.0685541">
        <ele>251.18002319</ele>
        <time>2022-10-30T09:48:54Z</time>
      </trkpt>
      <trkpt lat="41.4085642" lon="2.0685452">
        <ele>250.46002197</ele>
        <time>2022-10-30T09:48:55Z</time>
      </trkpt>
      <trkpt lat="41.4085312" lon="2.0685292">
        <ele>249.92002869</ele>
        <time>2022-10-30T09:48:56Z</time>
      </trkpt>
      <trkpt lat="41.4085042" lon="2.0685142">
        <ele>249.3800354</ele>
        <time>2022-10-30T09:48:57Z</time>
      </trkpt>
      <trkpt lat="41.4084852" lon="2.0684953">
        <ele>248.87004089</ele>
        <time>2022-10-30T09:48:58Z</time>
      </trkpt>
      <trkpt lat="41.4084503" lon="2.0684854">
        <ele>248.3800354</ele>
        <time>2022-10-30T09:48:59Z</time>
      </trkpt>
      <trkpt lat="41.4084393" lon="2.0684744">
        <ele>247.91003418</ele>
        <time>2022-10-30T09:49:00Z</time>
      </trkpt>
      <trkpt lat="41.4084244" lon="2.0684604">
        <ele>247.59002686</ele>
        <time>2022-10-30T09:49:01Z</time>
      </trkpt>
      <trkpt lat="41.4084164" lon="2.0684425">
        <ele>247.34002686</ele>
        <time>2022-10-30T09:49:02Z</time>
      </trkpt>
      <trkpt lat="41.4083924" lon="2.0684316">
        <ele>246.99002075</ele>
        <time>2022-10-30T09:49:03Z</time>
      </trkpt>
      <trkpt lat="41.4083765" lon="2.0684206">
        <ele>246.67001343</ele>
        <time>2022-10-30T09:49:04Z</time>
      </trkpt>
      <trkpt lat="41.4083505" lon="2.0684206">
        <ele>246.3400116</ele>
        <time>2022-10-30T09:49:05Z</time>
      </trkpt>
      <trkpt lat="41.4083356" lon="2.0684076">
        <ele>245.73001099</ele>
        <time>2022-10-30T09:49:06Z</time>
      </trkpt>
      <trkpt lat="41.4083237" lon="2.0683807">
        <ele>245.26000977</ele>
        <time>2022-10-30T09:49:07Z</time>
      </trkpt>
      <trkpt lat="41.4082808" lon="2.0683407">
        <ele>244.66000366</ele>
        <time>2022-10-30T09:49:08Z</time>
      </trkpt>
      <trkpt lat="41.4082598" lon="2.0683138">
        <ele>243.80000305</ele>
        <time>2022-10-30T09:49:09Z</time>
      </trkpt>
      <trkpt lat="41.4082378" lon="2.0682958">
        <ele>243.24000549</ele>
        <time>2022-10-30T09:49:10Z</time>
      </trkpt>
      <trkpt lat="41.4082139" lon="2.0682809">
        <ele>242.58000183</ele>
        <time>2022-10-30T09:49:11Z</time>
      </trkpt>
      <trkpt lat="41.4081839" lon="2.068262">
        <ele>241.74000549</ele>
        <time>2022-10-30T09:49:12Z</time>
      </trkpt>
      <trkpt lat="41.4081389" lon="2.068251">
        <ele>240.93000793</ele>
        <time>2022-10-30T09:49:13Z</time>
      </trkpt>
      <trkpt lat="41.408115" lon="2.0682471">
        <ele>239.98001099</ele>
        <time>2022-10-30T09:49:14Z</time>
      </trkpt>
      <trkpt lat="41.40809" lon="2.0682352">
        <ele>238.90000916</ele>
        <time>2022-10-30T09:49:15Z</time>
      </trkpt>
      <trkpt lat="41.408063" lon="2.0682062">
        <ele>238.03001404</ele>
        <time>2022-10-30T09:49:16Z</time>
      </trkpt>
      <trkpt lat="41.4080421" lon="2.0681862">
        <ele>237.36001587</ele>
        <time>2022-10-30T09:49:17Z</time>
      </trkpt>
      <trkpt lat="41.4080261" lon="2.0681743">
        <ele>236.82002258</ele>
        <time>2022-10-30T09:49:18Z</time>
      </trkpt>
      <trkpt lat="41.4080041" lon="2.0681624">
        <ele>236.52001953</ele>
        <time>2022-10-30T09:49:19Z</time>
      </trkpt>
      <trkpt lat="41.4079942" lon="2.0681464">
        <ele>236.33001709</ele>
        <time>2022-10-30T09:49:20Z</time>
      </trkpt>
      <trkpt lat="41.4079773" lon="2.0681124">
        <ele>236.02001953</ele>
        <time>2022-10-30T09:49:21Z</time>
      </trkpt>
      <trkpt lat="41.4079483" lon="2.0680484">
        <ele>235.52001953</ele>
        <time>2022-10-30T09:49:22Z</time>
      </trkpt>
      <trkpt lat="41.4079343" lon="2.0680015">
        <ele>234.82002258</ele>
        <time>2022-10-30T09:49:23Z</time>
      </trkpt>
      <trkpt lat="41.4079114" lon="2.0679576">
        <ele>233.97001648</ele>
        <time>2022-10-30T09:49:24Z</time>
      </trkpt>
      <trkpt lat="41.4078915" lon="2.0679297">
        <ele>233.0400238</ele>
        <time>2022-10-30T09:49:25Z</time>
      </trkpt>
      <trkpt lat="41.4078635" lon="2.0678897">
        <ele>232.12002563</ele>
        <time>2022-10-30T09:49:26Z</time>
      </trkpt>
      <trkpt lat="41.4078626" lon="2.0678558">
        <ele>231.27001953</ele>
        <time>2022-10-30T09:49:27Z</time>
      </trkpt>
      <trkpt lat="41.4078576" lon="2.0678339">
        <ele>230.36001587</ele>
        <time>2022-10-30T09:49:28Z</time>
      </trkpt>
      <trkpt lat="41.4078585" lon="2.067816">
        <ele>229.46002197</ele>
        <time>2022-10-30T09:49:29Z</time>
      </trkpt>
      <trkpt lat="41.4078556" lon="2.067815">
        <ele>228.49002075</ele>
        <time>2022-10-30T09:49:30Z</time>
      </trkpt>
      <trkpt lat="41.4078317" lon="2.067828">
        <ele>227.59002686</ele>
        <time>2022-10-30T09:49:31Z</time>
      </trkpt>
      <trkpt lat="41.4078057" lon="2.0678489">
        <ele>226.62002563</ele>
        <time>2022-10-30T09:49:32Z</time>
      </trkpt>
      <trkpt lat="41.4077958" lon="2.0678699">
        <ele>225.5400238</ele>
        <time>2022-10-30T09:49:33Z</time>
      </trkpt>
      <trkpt lat="41.4077899" lon="2.0678769">
        <ele>224.62002563</ele>
        <time>2022-10-30T09:49:34Z</time>
      </trkpt>
      <trkpt lat="41.4077739" lon="2.0679018">
        <ele>223.39002991</ele>
        <time>2022-10-30T09:49:35Z</time>
      </trkpt>
      <trkpt lat="41.407756" lon="2.0679018">
        <ele>222.24003601</ele>
        <time>2022-10-30T09:49:36Z</time>
      </trkpt>
      <trkpt lat="41.40773" lon="2.0679047">
        <ele>221.40003967</ele>
        <time>2022-10-30T09:49:37Z</time>
      </trkpt>
      <trkpt lat="41.4076881" lon="2.0678967">
        <ele>220.50004578</ele>
        <time>2022-10-30T09:49:38Z</time>
      </trkpt>
      <trkpt lat="41.4076331" lon="2.0678897">
        <ele>219.84004211</ele>
        <time>2022-10-30T09:49:39Z</time>
      </trkpt>
      <trkpt lat="41.4076201" lon="2.0678708">
        <ele>219.28004456</ele>
        <time>2022-10-30T09:49:40Z</time>
      </trkpt>
      <trkpt lat="41.4076002" lon="2.0678509">
        <ele>218.68003845</ele>
        <time>2022-10-30T09:49:41Z</time>
      </trkpt>
      <trkpt lat="41.4075823" lon="2.0678269">
        <ele>218.15003967</ele>
        <time>2022-10-30T09:49:42Z</time>
      </trkpt>
      <trkpt lat="41.4075603" lon="2.0678109">
        <ele>217.70004272</ele>
        <time>2022-10-30T09:49:43Z</time>
      </trkpt>
      <trkpt lat="41.4075243" lon="2.0677819">
        <ele>216.96003723</ele>
        <time>2022-10-30T09:49:44Z</time>
      </trkpt>
      <trkpt lat="41.4075034" lon="2.067778">
        <ele>215.86003113</ele>
        <time>2022-10-30T09:49:45Z</time>
      </trkpt>
      <trkpt lat="41.4074805" lon="2.0677721">
        <ele>214.65002441</ele>
        <time>2022-10-30T09:49:46Z</time>
      </trkpt>
      <trkpt lat="41.4074645" lon="2.0677511">
        <ele>213.2800293</ele>
        <time>2022-10-30T09:49:47Z</time>
      </trkpt>
      <trkpt lat="41.4074476" lon="2.0677372">
        <ele>212.21002197</ele>
        <time>2022-10-30T09:49:48Z</time>
      </trkpt>
      <trkpt lat="41.4074107" lon="2.0677153">
        <ele>211.5300293</ele>
        <time>2022-10-30T09:49:49Z</time>
      </trkpt>
      <trkpt lat="41.4073708" lon="2.0677013">
        <ele>210.7900238</ele>
        <time>2022-10-30T09:49:50Z</time>
      </trkpt>
      <trkpt lat="41.4073318" lon="2.0676834">
        <ele>210.08001709</ele>
        <time>2022-10-30T09:49:51Z</time>
      </trkpt>
      <trkpt lat="41.4073149" lon="2.0676584">
        <ele>209.26000977</ele>
        <time>2022-10-30T09:49:52Z</time>
      </trkpt>
      <trkpt lat="41.407312" lon="2.0676325">
        <ele>208.49000549</ele>
        <time>2022-10-30T09:49:53Z</time>
      </trkpt>
      <trkpt lat="41.407306" lon="2.0676145">
        <ele>207.96000671</ele>
        <time>2022-10-30T09:49:54Z</time>
      </trkpt>
      <trkpt lat="41.4072911" lon="2.0675946">
        <ele>207.63000488</ele>
        <time>2022-10-30T09:49:55Z</time>
      </trkpt>
      <trkpt lat="41.4072792" lon="2.0675836">
        <ele>207.32000732</ele>
        <time>2022-10-30T09:49:56Z</time>
      </trkpt>
      <trkpt lat="41.4072542" lon="2.0675647">
        <ele>206.94000244</ele>
        <time>2022-10-30T09:49:57Z</time>
      </trkpt>
      <trkpt lat="41.4072402" lon="2.0675517">
        <ele>206.13000488</ele>
        <time>2022-10-30T09:49:58Z</time>
      </trkpt>
      <trkpt lat="41.4072122" lon="2.0675368">
        <ele>205.21000671</ele>
        <time>2022-10-30T09:49:59Z</time>
      </trkpt>
      <trkpt lat="41.4072131" lon="2.0675189">
        <ele>204.40000916</ele>
        <time>2022-10-30T09:50:00Z</time>
      </trkpt>
      <trkpt lat="41.4071902" lon="2.0675039">
        <ele>203.58000183</ele>
        <time>2022-10-30T09:50:01Z</time>
      </trkpt>
      <trkpt lat="41.4071213" lon="2.067465">
        <ele>203.05000305</ele>
        <time>2022-10-30T09:50:02Z</time>
      </trkpt>
      <trkpt lat="41.4070763" lon="2.06743">
        <ele>202.58000183</ele>
        <time>2022-10-30T09:50:03Z</time>
      </trkpt>
      <trkpt lat="41.4070493" lon="2.067394">
        <ele>202.1000061</ele>
        <time>2022-10-30T09:50:04Z</time>
      </trkpt>
      <trkpt lat="41.4070364" lon="2.0673601">
        <ele>201.67001343</ele>
        <time>2022-10-30T09:50:05Z</time>
      </trkpt>
      <trkpt lat="41.4070334" lon="2.0673291">
        <ele>201.39001465</ele>
        <time>2022-10-30T09:50:06Z</time>
      </trkpt>
      <trkpt lat="41.4070265" lon="2.0672852">
        <ele>201.1900177</ele>
        <time>2022-10-30T09:50:07Z</time>
      </trkpt>
      <trkpt lat="41.4070155" lon="2.0672663">
        <ele>201.03001404</ele>
        <time>2022-10-30T09:50:08Z</time>
      </trkpt>
      <trkpt lat="41.4070075" lon="2.0672524">
        <ele>200.91001892</ele>
        <time>2022-10-30T09:50:09Z</time>
      </trkpt>
      <trkpt lat="41.4069956" lon="2.0672374">
        <ele>200.7900238</ele>
        <time>2022-10-30T09:50:10Z</time>
      </trkpt>
      <trkpt lat="41.4069667" lon="2.0672444">
        <ele>200.72001648</ele>
        <time>2022-10-30T09:50:11Z</time>
      </trkpt>
      <trkpt lat="41.4069487" lon="2.0672325">
        <ele>200.62001038</ele>
        <time>2022-10-30T09:50:12Z</time>
      </trkpt>
      <trkpt lat="41.4069468" lon="2.0671925">
        <ele>200.61001587</ele>
        <time>2022-10-30T09:50:13Z</time>
      </trkpt>
      <trkpt lat="41.4069557" lon="2.0671656">
        <ele>200.61001587</ele>
        <time>2022-10-30T09:50:14Z</time>
      </trkpt>
      <trkpt lat="41.4069637" lon="2.0671326">
        <ele>200.61001587</ele>
        <time>2022-10-30T09:50:15Z</time>
      </trkpt>
      <trkpt lat="41.4069746" lon="2.0671137">
        <ele>200.65000916</ele>
        <time>2022-10-30T09:50:16Z</time>
      </trkpt>
      <trkpt lat="41.4069886" lon="2.0670928">
        <ele>200.5900116</ele>
        <time>2022-10-30T09:50:17Z</time>
      </trkpt>
      <trkpt lat="41.4069896" lon="2.0670779">
        <ele>200.47001648</ele>
        <time>2022-10-30T09:50:18Z</time>
      </trkpt>
      <trkpt lat="41.4069896" lon="2.0670669">
        <ele>200.22001648</ele>
        <time>2022-10-30T09:50:19Z</time>
      </trkpt>
      <trkpt lat="41.4069826" lon="2.067046">
        <ele>199.92001343</ele>
        <time>2022-10-30T09:50:20Z</time>
      </trkpt>
      <trkpt lat="41.4069667" lon="2.0670271">
        <ele>199.64001465</ele>
        <time>2022-10-30T09:50:21Z</time>
      </trkpt>
      <trkpt lat="41.4069498" lon="2.0669971">
        <ele>199.29000854</ele>
        <time>2022-10-30T09:50:22Z</time>
      </trkpt>
      <trkpt lat="41.4069318" lon="2.0669632">
        <ele>198.94000244</ele>
        <time>2022-10-30T09:50:23Z</time>
      </trkpt>
      <trkpt lat="41.4068889" lon="2.0669172">
        <ele>198.51000977</ele>
        <time>2022-10-30T09:50:24Z</time>
      </trkpt>
      <trkpt lat="41.4068669" lon="2.0668923">
        <ele>198.01000977</ele>
        <time>2022-10-30T09:50:25Z</time>
      </trkpt>
      <trkpt lat="41.40684" lon="2.0668663">
        <ele>197.47001648</ele>
        <time>2022-10-30T09:50:26Z</time>
      </trkpt>
      <trkpt lat="41.406805" lon="2.0668634">
        <ele>197.03001404</ele>
        <time>2022-10-30T09:50:27Z</time>
      </trkpt>
      <trkpt lat="41.4067881" lon="2.0668565">
        <ele>196.75001526</ele>
        <time>2022-10-30T09:50:28Z</time>
      </trkpt>
      <trkpt lat="41.4067732" lon="2.0668255">
        <ele>196.51000977</ele>
        <time>2022-10-30T09:50:29Z</time>
      </trkpt>
      <trkpt lat="41.4067643" lon="2.0667965">
        <ele>196.44000244</ele>
        <time>2022-10-30T09:50:30Z</time>
      </trkpt>
      <trkpt lat="41.4067483" lon="2.0667716">
        <ele>196.19999695</ele>
        <time>2022-10-30T09:50:31Z</time>
      </trkpt>
      <trkpt lat="41.4067314" lon="2.0667347">
        <ele>195.86000061</ele>
        <time>2022-10-30T09:50:32Z</time>
      </trkpt>
      <trkpt lat="41.4067115" lon="2.0666927">
        <ele>195.5</ele>
        <time>2022-10-30T09:50:33Z</time>
      </trkpt>
      <trkpt lat="41.4066785" lon="2.0666567">
        <ele>194.94999695</ele>
        <time>2022-10-30T09:50:34Z</time>
      </trkpt>
      <trkpt lat="41.4066606" lon="2.0666328">
        <ele>194.42999268</ele>
        <time>2022-10-30T09:50:35Z</time>
      </trkpt>
      <trkpt lat="41.4066426" lon="2.0666038">
        <ele>193.88999939</ele>
        <time>2022-10-30T09:50:36Z</time>
      </trkpt>
      <trkpt lat="41.4066297" lon="2.0665759">
        <ele>193.22000122</ele>
        <time>2022-10-30T09:50:37Z</time>
      </trkpt>
      <trkpt lat="41.4065997" lon="2.0665469">
        <ele>192.61000061</ele>
        <time>2022-10-30T09:50:38Z</time>
      </trkpt>
      <trkpt lat="41.4065757" lon="2.0665269">
        <ele>191.91999817</ele>
        <time>2022-10-30T09:50:39Z</time>
      </trkpt>
      <trkpt lat="41.4065388" lon="2.066508">
        <ele>191.17999268</ele>
        <time>2022-10-30T09:50:40Z</time>
      </trkpt>
      <trkpt lat="41.4065089" lon="2.0664881">
        <ele>190.44999695</ele>
        <time>2022-10-30T09:50:41Z</time>
      </trkpt>
      <trkpt lat="41.4064979" lon="2.0664692">
        <ele>189.75999451</ele>
        <time>2022-10-30T09:50:42Z</time>
      </trkpt>
      <trkpt lat="41.4064699" lon="2.0664462">
        <ele>189.00999451</ele>
        <time>2022-10-30T09:50:43Z</time>
      </trkpt>
      <trkpt lat="41.406447" lon="2.0664283">
        <ele>188.28999329</ele>
        <time>2022-10-30T09:50:44Z</time>
      </trkpt>
      <trkpt lat="41.406426" lon="2.0663943">
        <ele>187.47999573</ele>
        <time>2022-10-30T09:50:45Z</time>
      </trkpt>
      <trkpt lat="41.406407" lon="2.0663683">
        <ele>186.66999817</ele>
        <time>2022-10-30T09:50:46Z</time>
      </trkpt>
      <trkpt lat="41.4063841" lon="2.0663333">
        <ele>185.99000549</ele>
        <time>2022-10-30T09:50:47Z</time>
      </trkpt>
      <trkpt lat="41.4063532" lon="2.0663114">
        <ele>185.22000122</ele>
        <time>2022-10-30T09:50:48Z</time>
      </trkpt>
      <trkpt lat="41.4063252" lon="2.0662905">
        <ele>184.68000793</ele>
        <time>2022-10-30T09:50:49Z</time>
      </trkpt>
      <trkpt lat="41.4062993" lon="2.0662756">
        <ele>184.0900116</ele>
        <time>2022-10-30T09:50:50Z</time>
      </trkpt>
      <trkpt lat="41.4062863" lon="2.0662775">
        <ele>183.54000854</ele>
        <time>2022-10-30T09:50:51Z</time>
      </trkpt>
      <trkpt lat="41.4062494" lon="2.0662855">
        <ele>182.93000793</ele>
        <time>2022-10-30T09:50:52Z</time>
      </trkpt>
      <trkpt lat="41.4062155" lon="2.0662884">
        <ele>182.22000122</ele>
        <time>2022-10-30T09:50:53Z</time>
      </trkpt>
      <trkpt lat="41.4061806" lon="2.0662814">
        <ele>181.38000488</ele>
        <time>2022-10-30T09:50:54Z</time>
      </trkpt>
      <trkpt lat="41.4061586" lon="2.0662674">
        <ele>180.55999756</ele>
        <time>2022-10-30T09:50:55Z</time>
      </trkpt>
      <trkpt lat="41.4061486" lon="2.0662375">
        <ele>179.97999573</ele>
        <time>2022-10-30T09:50:56Z</time>
      </trkpt>
      <trkpt lat="41.4061387" lon="2.0662095">
        <ele>179.47000122</ele>
        <time>2022-10-30T09:50:57Z</time>
      </trkpt>
      <trkpt lat="41.4061227" lon="2.0661886">
        <ele>179.27999878</ele>
        <time>2022-10-30T09:50:58Z</time>
      </trkpt>
      <trkpt lat="41.4061147" lon="2.0661716">
        <ele>179.20999146</ele>
        <time>2022-10-30T09:50:59Z</time>
      </trkpt>
      <trkpt lat="41.4061037" lon="2.0661547">
        <ele>179.1499939</ele>
        <time>2022-10-30T09:51:00Z</time>
      </trkpt>
      <trkpt lat="41.4060908" lon="2.0661417">
        <ele>179.18998718</ele>
        <time>2022-10-30T09:51:01Z</time>
      </trkpt>
      <trkpt lat="41.4060849" lon="2.0661367">
        <ele>179.18998718</ele>
        <time>2022-10-30T09:51:02Z</time>
      </trkpt>
      <trkpt lat="41.4060719" lon="2.0661268">
        <ele>179.1599884</ele>
        <time>2022-10-30T09:51:03Z</time>
      </trkpt>
      <trkpt lat="41.4060619" lon="2.0661239">
        <ele>179.1499939</ele>
        <time>2022-10-30T09:51:04Z</time>
      </trkpt>
      <trkpt lat="41.406054" lon="2.066117">
        <ele>178.36999512</ele>
        <time>2022-10-30T09:51:04Z</time>
      </trkpt>
      <trkpt lat="41.4059541" lon="2.066043">
        <ele>178.31999207</ele>
        <time>2022-10-30T09:51:39Z</time>
      </trkpt>
      <trkpt lat="41.4059482" lon="2.0660311">
        <ele>178.34999084</ele>
        <time>2022-10-30T09:51:40Z</time>
      </trkpt>
      <trkpt lat="41.4059442" lon="2.0660041">
        <ele>178.20999146</ele>
        <time>2022-10-30T09:51:41Z</time>
      </trkpt>
      <trkpt lat="41.4059323" lon="2.0659902">
        <ele>178.05999756</ele>
        <time>2022-10-30T09:51:42Z</time>
      </trkpt>
      <trkpt lat="41.4059124" lon="2.0659902">
        <ele>177.80999756</ele>
        <time>2022-10-30T09:51:43Z</time>
      </trkpt>
      <trkpt lat="41.4058914" lon="2.0659842">
        <ele>177.33999634</ele>
        <time>2022-10-30T09:51:44Z</time>
      </trkpt>
      <trkpt lat="41.4058715" lon="2.0659603">
        <ele>176.86999512</ele>
        <time>2022-10-30T09:51:45Z</time>
      </trkpt>
      <trkpt lat="41.4058476" lon="2.0659343">
        <ele>176.33999634</ele>
        <time>2022-10-30T09:51:46Z</time>
      </trkpt>
      <trkpt lat="41.4058396" lon="2.0659173">
        <ele>175.75</ele>
        <time>2022-10-30T09:51:47Z</time>
      </trkpt>
      <trkpt lat="41.4058337" lon="2.0659024">
        <ele>175.25</ele>
        <time>2022-10-30T09:51:48Z</time>
      </trkpt>
      <trkpt lat="41.4058267" lon="2.0658775">
        <ele>174.78999329</ele>
        <time>2022-10-30T09:51:49Z</time>
      </trkpt>
      <trkpt lat="41.4058118" lon="2.0658265">
        <ele>173.98999023</ele>
        <time>2022-10-30T09:51:50Z</time>
      </trkpt>
      <trkpt lat="41.4058079" lon="2.0658105">
        <ele>173.26998901</ele>
        <time>2022-10-30T09:51:51Z</time>
      </trkpt>
      <trkpt lat="41.4058019" lon="2.0658086">
        <ele>172.6499939</ele>
        <time>2022-10-30T09:51:52Z</time>
      </trkpt>
      <trkpt lat="41.405793" lon="2.0658027">
        <ele>172.11999512</ele>
        <time>2022-10-30T09:51:53Z</time>
      </trkpt>
      <trkpt lat="41.4057861" lon="2.0658116">
        <ele>172.01998901</ele>
        <time>2022-10-30T09:51:54Z</time>
      </trkpt>
      <trkpt lat="41.405798" lon="2.0658145">
        <ele>171.97999573</ele>
        <time>2022-10-30T09:51:55Z</time>
      </trkpt>
      <trkpt lat="41.405808" lon="2.0658215">
        <ele>171.97999573</ele>
        <time>2022-10-30T09:51:56Z</time>
      </trkpt>
      <trkpt lat="41.405822" lon="2.0658244">
        <ele>172.01998901</ele>
        <time>2022-10-30T09:51:57Z</time>
      </trkpt>
      <trkpt lat="41.4058229" lon="2.0658303">
        <ele>172.02998352</ele>
        <time>2022-10-30T09:51:58Z</time>
      </trkpt>
      <trkpt lat="41.4058249" lon="2.0658203">
        <ele>172.12998962</ele>
        <time>2022-10-30T09:51:59Z</time>
      </trkpt>
      <trkpt lat="41.4058278" lon="2.0658184">
        <ele>172.21998596</ele>
        <time>2022-10-30T09:52:00Z</time>
      </trkpt>
      <trkpt lat="41.4058278" lon="2.0658164">
        <ele>172.34999084</ele>
        <time>2022-10-30T09:52:01Z</time>
      </trkpt>
      <trkpt lat="41.405802" lon="2.0658111">
        <ele>172.3999939</ele>
        <time>2022-10-30T09:52:11Z</time>
      </trkpt>
      <trkpt lat="41.405802" lon="2.0658151">
        <ele>172.42999268</ele>
        <time>2022-10-30T09:52:12Z</time>
      </trkpt>
      <trkpt lat="41.4058029" lon="2.065817">
        <ele>172.42999268</ele>
        <time>2022-10-30T09:52:13Z</time>
      </trkpt>
      <trkpt lat="41.405778" lon="2.0658059">
        <ele>172.17999268</ele>
        <time>2022-10-30T09:53:22Z</time>
      </trkpt>
      <trkpt lat="41.405789" lon="2.0658169">
        <ele>172.18998718</ele>
        <time>2022-10-30T09:53:23Z</time>
      </trkpt>
      <trkpt lat="41.405797" lon="2.0658299">
        <ele>172.20999146</ele>
        <time>2022-10-30T09:53:24Z</time>
      </trkpt>
      <trkpt lat="41.4057979" lon="2.0658418">
        <ele>172.27999878</ele>
        <time>2022-10-30T09:53:25Z</time>
      </trkpt>
      <trkpt lat="41.4057999" lon="2.0658558">
        <ele>172.30000305</ele>
        <time>2022-10-30T09:53:26Z</time>
      </trkpt>
      <trkpt lat="41.4058008" lon="2.0658667">
        <ele>172.30000305</ele>
        <time>2022-10-30T09:53:27Z</time>
      </trkpt>
      <trkpt lat="41.4058048" lon="2.0658747">
        <ele>172.30000305</ele>
        <time>2022-10-30T09:53:28Z</time>
      </trkpt>
      <trkpt lat="41.4058117" lon="2.0658996">
        <ele>172.27000427</ele>
        <time>2022-10-30T09:53:29Z</time>
      </trkpt>
      <trkpt lat="41.4058176" lon="2.0659165">
        <ele>172.30000305</ele>
        <time>2022-10-30T09:53:30Z</time>
      </trkpt>
      <trkpt lat="41.4058236" lon="2.0659305">
        <ele>172.3500061</ele>
        <time>2022-10-30T09:53:31Z</time>
      </trkpt>
      <trkpt lat="41.4058275" lon="2.0659465">
        <ele>172.43000793</ele>
        <time>2022-10-30T09:53:32Z</time>
      </trkpt>
      <trkpt lat="41.4058364" lon="2.0659704">
        <ele>172.54000854</ele>
        <time>2022-10-30T09:53:33Z</time>
      </trkpt>
      <trkpt lat="41.4058423" lon="2.0659824">
        <ele>172.69000244</ele>
        <time>2022-10-30T09:53:34Z</time>
      </trkpt>
      <trkpt lat="41.4058423" lon="2.0659954">
        <ele>172.80999756</ele>
        <time>2022-10-30T09:53:35Z</time>
      </trkpt>
      <trkpt lat="41.4058423" lon="2.0660153">
        <ele>172.88999939</ele>
        <time>2022-10-30T09:53:36Z</time>
      </trkpt>
      <trkpt lat="41.4058443" lon="2.0660372">
        <ele>172.96000671</ele>
        <time>2022-10-30T09:53:37Z</time>
      </trkpt>
      <trkpt lat="41.4058472" lon="2.0660732">
        <ele>173.03001404</ele>
        <time>2022-10-30T09:53:38Z</time>
      </trkpt>
      <trkpt lat="41.4058501" lon="2.0660992">
        <ele>173.12001038</ele>
        <time>2022-10-30T09:53:39Z</time>
      </trkpt>
      <trkpt lat="41.4058521" lon="2.0661181">
        <ele>173.26000977</ele>
        <time>2022-10-30T09:53:40Z</time>
      </trkpt>
      <trkpt lat="41.405859" lon="2.066146">
        <ele>173.43000793</ele>
        <time>2022-10-30T09:53:41Z</time>
      </trkpt>
      <trkpt lat="41.405861" lon="2.066179">
        <ele>173.57000732</ele>
        <time>2022-10-30T09:53:42Z</time>
      </trkpt>
      <trkpt lat="41.4058619" lon="2.0662169">
        <ele>173.71000671</ele>
        <time>2022-10-30T09:53:43Z</time>
      </trkpt>
      <trkpt lat="41.405858" lon="2.0662468">
        <ele>173.83000183</ele>
        <time>2022-10-30T09:53:44Z</time>
      </trkpt>
      <trkpt lat="41.405866" lon="2.0662698">
        <ele>173.94000244</ele>
        <time>2022-10-30T09:53:45Z</time>
      </trkpt>
      <trkpt lat="41.4058719" lon="2.0662977">
        <ele>174.04000854</ele>
        <time>2022-10-30T09:53:46Z</time>
      </trkpt>
      <trkpt lat="41.4059008" lon="2.0663226">
        <ele>174.15000916</ele>
        <time>2022-10-30T09:53:47Z</time>
      </trkpt>
      <trkpt lat="41.4059298" lon="2.0663326">
        <ele>174.24000549</ele>
        <time>2022-10-30T09:53:48Z</time>
      </trkpt>
      <trkpt lat="41.4059417" lon="2.0663616">
        <ele>174.32000732</ele>
        <time>2022-10-30T09:53:49Z</time>
      </trkpt>
      <trkpt lat="41.4059476" lon="2.0663805">
        <ele>174.40000916</ele>
        <time>2022-10-30T09:53:50Z</time>
      </trkpt>
      <trkpt lat="41.4059546" lon="2.0663975">
        <ele>174.47001648</ele>
        <time>2022-10-30T09:53:51Z</time>
      </trkpt>
      <trkpt lat="41.4059705" lon="2.0664124">
        <ele>174.5400238</ele>
        <time>2022-10-30T09:53:52Z</time>
      </trkpt>
      <trkpt lat="41.4059835" lon="2.0664234">
        <ele>174.62002563</ele>
        <time>2022-10-30T09:53:53Z</time>
      </trkpt>
      <trkpt lat="41.4059964" lon="2.0664364">
        <ele>174.68002319</ele>
        <time>2022-10-30T09:53:54Z</time>
      </trkpt>
      <trkpt lat="41.4060074" lon="2.0664543">
        <ele>174.70002747</ele>
        <time>2022-10-30T09:53:55Z</time>
      </trkpt>
      <trkpt lat="41.4060124" lon="2.0664952">
        <ele>174.72003174</ele>
        <time>2022-10-30T09:53:56Z</time>
      </trkpt>
      <trkpt lat="41.4060065" lon="2.0665302">
        <ele>174.73002625</ele>
        <time>2022-10-30T09:53:57Z</time>
      </trkpt>
      <trkpt lat="41.4059965" lon="2.0665641">
        <ele>174.73002625</ele>
        <time>2022-10-30T09:53:58Z</time>
      </trkpt>
      <trkpt lat="41.4059926" lon="2.0665911">
        <ele>174.71002197</ele>
        <time>2022-10-30T09:53:59Z</time>
      </trkpt>
      <trkpt lat="41.4060015" lon="2.066643">
        <ele>174.6900177</ele>
        <time>2022-10-30T09:54:00Z</time>
      </trkpt>
      <trkpt lat="41.4060065" lon="2.066679">
        <ele>174.64001465</ele>
        <time>2022-10-30T09:54:01Z</time>
      </trkpt>
      <trkpt lat="41.4060056" lon="2.066712">
        <ele>174.54000854</ele>
        <time>2022-10-30T09:54:02Z</time>
      </trkpt>
      <trkpt lat="41.4060085" lon="2.0667329">
        <ele>174.41000366</ele>
        <time>2022-10-30T09:54:03Z</time>
      </trkpt>
      <trkpt lat="41.4060144" lon="2.0667629">
        <ele>174.29000854</ele>
        <time>2022-10-30T09:54:04Z</time>
      </trkpt>
      <trkpt lat="41.4060173" lon="2.0668208">
        <ele>174.21000671</ele>
        <time>2022-10-30T09:54:05Z</time>
      </trkpt>
      <trkpt lat="41.4060133" lon="2.0668758">
        <ele>174.18000793</ele>
        <time>2022-10-30T09:54:06Z</time>
      </trkpt>
      <trkpt lat="41.4060084" lon="2.0669287">
        <ele>174.21000671</ele>
        <time>2022-10-30T09:54:07Z</time>
      </trkpt>
      <trkpt lat="41.4060044" lon="2.0669677">
        <ele>174.23001099</ele>
        <time>2022-10-30T09:54:08Z</time>
      </trkpt>
      <trkpt lat="41.4060064" lon="2.0670056">
        <ele>174.22001648</ele>
        <time>2022-10-30T09:54:09Z</time>
      </trkpt>
      <trkpt lat="41.4060174" lon="2.0670566">
        <ele>174.22001648</ele>
        <time>2022-10-30T09:54:10Z</time>
      </trkpt>
      <trkpt lat="41.4060224" lon="2.0670896">
        <ele>174.23001099</ele>
        <time>2022-10-30T09:54:11Z</time>
      </trkpt>
      <trkpt lat="41.4060283" lon="2.0671265">
        <ele>174.23001099</ele>
        <time>2022-10-30T09:54:12Z</time>
      </trkpt>
      <trkpt lat="41.4060333" lon="2.0671604">
        <ele>174.27000427</ele>
        <time>2022-10-30T09:54:13Z</time>
      </trkpt>
      <trkpt lat="41.4060473" lon="2.0672233">
        <ele>174.3400116</ele>
        <time>2022-10-30T09:54:14Z</time>
      </trkpt>
      <trkpt lat="41.4060592" lon="2.0672663">
        <ele>174.38000488</ele>
        <time>2022-10-30T09:54:15Z</time>
      </trkpt>
      <trkpt lat="41.4060642" lon="2.0672942">
        <ele>174.49000549</ele>
        <time>2022-10-30T09:54:16Z</time>
      </trkpt>
      <trkpt lat="41.4060661" lon="2.0673191">
        <ele>174.54000854</ele>
        <time>2022-10-30T09:54:17Z</time>
      </trkpt>
      <trkpt lat="41.4060681" lon="2.0673461">
        <ele>174.62001038</ele>
        <time>2022-10-30T09:54:18Z</time>
      </trkpt>
      <trkpt lat="41.4060781" lon="2.067396">
        <ele>174.76000977</ele>
        <time>2022-10-30T09:54:19Z</time>
      </trkpt>
      <trkpt lat="41.406085" lon="2.067451">
        <ele>174.89001465</ele>
        <time>2022-10-30T09:54:20Z</time>
      </trkpt>
      <trkpt lat="41.406092" lon="2.0674889">
        <ele>175.04000854</ele>
        <time>2022-10-30T09:54:21Z</time>
      </trkpt>
      <trkpt lat="41.4060999" lon="2.0675108">
        <ele>175.14001465</ele>
        <time>2022-10-30T09:54:22Z</time>
      </trkpt>
      <trkpt lat="41.4061129" lon="2.0675537">
        <ele>175.22001648</ele>
        <time>2022-10-30T09:54:23Z</time>
      </trkpt>
      <trkpt lat="41.4061298" lon="2.0675566">
        <ele>175.3400116</ele>
        <time>2022-10-30T09:54:24Z</time>
      </trkpt>
      <trkpt lat="41.4061378" lon="2.0675586">
        <ele>175.49000549</ele>
        <time>2022-10-30T09:54:25Z</time>
      </trkpt>
      <trkpt lat="41.4061417" lon="2.0675605">
        <ele>175.66000366</ele>
        <time>2022-10-30T09:54:26Z</time>
      </trkpt>
      <trkpt lat="41.4061577" lon="2.0675645">
        <ele>175.83000183</ele>
        <time>2022-10-30T09:54:27Z</time>
      </trkpt>
      <trkpt lat="41.406189" lon="2.067593">
        <ele>176.1000061</ele>
        <time>2022-10-30T09:54:31Z</time>
      </trkpt>
      <trkpt lat="41.4061861" lon="2.067616">
        <ele>176.05000305</ele>
        <time>2022-10-30T09:54:32Z</time>
      </trkpt>
      <trkpt lat="41.4061911" lon="2.0676269">
        <ele>176.05999756</ele>
        <time>2022-10-30T09:54:33Z</time>
      </trkpt>
      <trkpt lat="41.4062101" lon="2.0676279">
        <ele>176.13000488</ele>
        <time>2022-10-30T09:54:34Z</time>
      </trkpt>
      <trkpt lat="41.4062211" lon="2.0676298">
        <ele>176.24000549</ele>
        <time>2022-10-30T09:54:35Z</time>
      </trkpt>
      <trkpt lat="41.4062321" lon="2.0676318">
        <ele>176.36000061</ele>
        <time>2022-10-30T09:54:36Z</time>
      </trkpt>
      <trkpt lat="41.406235" lon="2.0676289">
        <ele>176.44999695</ele>
        <time>2022-10-30T09:54:37Z</time>
      </trkpt>
      <trkpt lat="41.4062389" lon="2.0676179">
        <ele>176.50999451</ele>
        <time>2022-10-30T09:54:38Z</time>
      </trkpt>
      <trkpt lat="41.4062389" lon="2.06761">
        <ele>176.54998779</ele>
        <time>2022-10-30T09:54:39Z</time>
      </trkpt>
      <trkpt lat="41.4062418" lon="2.067601">
        <ele>176.57998657</ele>
        <time>2022-10-30T09:54:40Z</time>
      </trkpt>
      <trkpt lat="41.4062319" lon="2.0675921">
        <ele>176.62998962</ele>
        <time>2022-10-30T09:54:41Z</time>
      </trkpt>
      <trkpt lat="41.406215" lon="2.0675761">
        <ele>176.59999084</ele>
        <time>2022-10-30T09:54:42Z</time>
      </trkpt>
      <trkpt lat="41.406197" lon="2.0675552">
        <ele>176.55999756</ele>
        <time>2022-10-30T09:54:43Z</time>
      </trkpt>
      <trkpt lat="41.4061791" lon="2.0675333">
        <ele>176.47999573</ele>
        <time>2022-10-30T09:54:44Z</time>
      </trkpt>
      <trkpt lat="41.4061702" lon="2.0675203">
        <ele>176.36000061</ele>
        <time>2022-10-30T09:54:45Z</time>
      </trkpt>
      <trkpt lat="41.4061533" lon="2.0675014">
        <ele>176.27999878</ele>
        <time>2022-10-30T09:54:46Z</time>
      </trkpt>
      <trkpt lat="41.4061453" lon="2.0674805">
        <ele>176.19999695</ele>
        <time>2022-10-30T09:54:47Z</time>
      </trkpt>
      <trkpt lat="41.4061383" lon="2.0674525">
        <ele>176.05000305</ele>
        <time>2022-10-30T09:54:48Z</time>
      </trkpt>
      <trkpt lat="41.4061374" lon="2.0674205">
        <ele>175.88999939</ele>
        <time>2022-10-30T09:54:49Z</time>
      </trkpt>
      <trkpt lat="41.4061403" lon="2.0673756">
        <ele>175.67999268</ele>
        <time>2022-10-30T09:54:50Z</time>
      </trkpt>
      <trkpt lat="41.4061423" lon="2.0673476">
        <ele>175.47999573</ele>
        <time>2022-10-30T09:54:51Z</time>
      </trkpt>
      <trkpt lat="41.4061394" lon="2.0673247">
        <ele>175.37998962</ele>
        <time>2022-10-30T09:54:52Z</time>
      </trkpt>
      <trkpt lat="41.4061394" lon="2.0672987">
        <ele>175.28999329</ele>
        <time>2022-10-30T09:54:53Z</time>
      </trkpt>
      <trkpt lat="41.4061174" lon="2.0672817">
        <ele>175.23999023</ele>
        <time>2022-10-30T09:54:54Z</time>
      </trkpt>
      <trkpt lat="41.4060994" lon="2.0672936">
        <ele>175.1499939</ele>
        <time>2022-10-30T09:54:55Z</time>
      </trkpt>
      <trkpt lat="41.4061004" lon="2.0673106">
        <ele>174.94999695</ele>
        <time>2022-10-30T09:54:56Z</time>
      </trkpt>
      <trkpt lat="41.4060894" lon="2.0673526">
        <ele>174.66000366</ele>
        <time>2022-10-30T09:54:57Z</time>
      </trkpt>
      <trkpt lat="41.4060814" lon="2.0674106">
        <ele>174.33000183</ele>
        <time>2022-10-30T09:54:58Z</time>
      </trkpt>
      <trkpt lat="41.4060814" lon="2.0674975">
        <ele>173.93000793</ele>
        <time>2022-10-30T09:54:59Z</time>
      </trkpt>
      <trkpt lat="41.4060974" lon="2.0675555">
        <ele>173.57000732</ele>
        <time>2022-10-30T09:55:00Z</time>
      </trkpt>
      <trkpt lat="41.4061313" lon="2.0676075">
        <ele>173.1000061</ele>
        <time>2022-10-30T09:55:01Z</time>
      </trkpt>
      <trkpt lat="41.4061582" lon="2.0676484">
        <ele>172.63000488</ele>
        <time>2022-10-30T09:55:02Z</time>
      </trkpt>
      <trkpt lat="41.4061802" lon="2.0676953">
        <ele>172.16999817</ele>
        <time>2022-10-30T09:55:03Z</time>
      </trkpt>
      <trkpt lat="41.4061951" lon="2.0677482">
        <ele>171.72999573</ele>
        <time>2022-10-30T09:55:04Z</time>
      </trkpt>
      <trkpt lat="41.4062191" lon="2.0677722">
        <ele>171.4099884</ele>
        <time>2022-10-30T09:55:05Z</time>
      </trkpt>
      <trkpt lat="41.406253" lon="2.0678091">
        <ele>170.97999573</ele>
        <time>2022-10-30T09:55:06Z</time>
      </trkpt>
      <trkpt lat="41.4062899" lon="2.067862">
        <ele>170.56999207</ele>
        <time>2022-10-30T09:55:07Z</time>
      </trkpt>
      <trkpt lat="41.4063389" lon="2.067952">
        <ele>170.07998657</ele>
        <time>2022-10-30T09:55:08Z</time>
      </trkpt>
      <trkpt lat="41.4063558" lon="2.068036">
        <ele>169.5599823</ele>
        <time>2022-10-30T09:55:09Z</time>
      </trkpt>
      <trkpt lat="41.4063838" lon="2.0681149">
        <ele>169.12998962</ele>
        <time>2022-10-30T09:55:10Z</time>
      </trkpt>
      <trkpt lat="41.4064077" lon="2.0681968">
        <ele>168.81999207</ele>
        <time>2022-10-30T09:55:11Z</time>
      </trkpt>
      <trkpt lat="41.4064297" lon="2.0682798">
        <ele>168.51998901</ele>
        <time>2022-10-30T09:55:12Z</time>
      </trkpt>
      <trkpt lat="41.4064806" lon="2.0684077">
        <ele>168.21998596</ele>
        <time>2022-10-30T09:55:13Z</time>
      </trkpt>
      <trkpt lat="41.4065125" lon="2.0684977">
        <ele>167.67999268</ele>
        <time>2022-10-30T09:55:14Z</time>
      </trkpt>
      <trkpt lat="41.4065205" lon="2.0685696">
        <ele>167.02999878</ele>
        <time>2022-10-30T09:55:15Z</time>
      </trkpt>
      <trkpt lat="41.4065245" lon="2.0686556">
        <ele>166.45999146</ele>
        <time>2022-10-30T09:55:16Z</time>
      </trkpt>
      <trkpt lat="41.4065325" lon="2.0687726">
        <ele>165.95999146</ele>
        <time>2022-10-30T09:55:17Z</time>
      </trkpt>
      <trkpt lat="41.4065285" lon="2.0688635">
        <ele>165.58999634</ele>
        <time>2022-10-30T09:55:18Z</time>
      </trkpt>
      <trkpt lat="41.4065166" lon="2.0689454">
        <ele>165.30999756</ele>
        <time>2022-10-30T09:55:19Z</time>
      </trkpt>
      <trkpt lat="41.4065066" lon="2.0690154">
        <ele>165</ele>
        <time>2022-10-30T09:55:20Z</time>
      </trkpt>
      <trkpt lat="41.4064827" lon="2.0690894">
        <ele>164.67999268</ele>
        <time>2022-10-30T09:55:21Z</time>
      </trkpt>
      <trkpt lat="41.4064598" lon="2.0691944">
        <ele>164.57998657</ele>
        <time>2022-10-30T09:55:22Z</time>
      </trkpt>
      <trkpt lat="41.4064308" lon="2.0692723">
        <ele>164.46998596</ele>
        <time>2022-10-30T09:55:23Z</time>
      </trkpt>
      <trkpt lat="41.4064028" lon="2.0693512">
        <ele>164.43998718</ele>
        <time>2022-10-30T09:55:24Z</time>
      </trkpt>
      <trkpt lat="41.4063799" lon="2.0694301">
        <ele>164.43998718</ele>
        <time>2022-10-30T09:55:25Z</time>
      </trkpt>
      <trkpt lat="41.4063469" lon="2.0695371">
        <ele>164.44998169</ele>
        <time>2022-10-30T09:55:26Z</time>
      </trkpt>
      <trkpt lat="41.406334" lon="2.0696">
        <ele>164.48997498</ele>
        <time>2022-10-30T09:55:27Z</time>
      </trkpt>
      <trkpt lat="41.406339" lon="2.0696409">
        <ele>164.57997131</ele>
        <time>2022-10-30T09:55:28Z</time>
      </trkpt>
      <trkpt lat="41.4063479" lon="2.0696778">
        <ele>164.74996948</ele>
        <time>2022-10-30T09:55:29Z</time>
      </trkpt>
      <trkpt lat="41.4063508" lon="2.0697078">
        <ele>164.83996582</ele>
        <time>2022-10-30T09:55:30Z</time>
      </trkpt>
      <trkpt lat="41.4063428" lon="2.0697688">
        <ele>164.90997314</ele>
        <time>2022-10-30T09:55:31Z</time>
      </trkpt>
      <trkpt lat="41.4063467" lon="2.0698047">
        <ele>164.99996948</ele>
        <time>2022-10-30T09:55:32Z</time>
      </trkpt>
      <trkpt lat="41.4063557" lon="2.0698437">
        <ele>165.1199646</ele>
        <time>2022-10-30T09:55:33Z</time>
      </trkpt>
      <trkpt lat="41.4063616" lon="2.0698776">
        <ele>165.28996277</ele>
        <time>2022-10-30T09:55:34Z</time>
      </trkpt>
      <trkpt lat="41.4063705" lon="2.0699336">
        <ele>165.46995544</ele>
        <time>2022-10-30T09:55:35Z</time>
      </trkpt>
      <trkpt lat="41.4063824" lon="2.0699626">
        <ele>165.58995056</ele>
        <time>2022-10-30T09:55:36Z</time>
      </trkpt>
      <trkpt lat="41.4063984" lon="2.0699935">
        <ele>165.72994995</ele>
        <time>2022-10-30T09:55:37Z</time>
      </trkpt>
      <trkpt lat="41.4064083" lon="2.0700265">
        <ele>165.88995361</ele>
        <time>2022-10-30T09:55:38Z</time>
      </trkpt>
      <trkpt lat="41.4064143" lon="2.0700544">
        <ele>166.13995361</ele>
        <time>2022-10-30T09:55:39Z</time>
      </trkpt>
      <trkpt lat="41.4064262" lon="2.0701024">
        <ele>166.45996094</ele>
        <time>2022-10-30T09:55:40Z</time>
      </trkpt>
      <trkpt lat="41.4064301" lon="2.0701323">
        <ele>166.77996826</ele>
        <time>2022-10-30T09:55:41Z</time>
      </trkpt>
      <trkpt lat="41.4064351" lon="2.0701593">
        <ele>167.06996155</ele>
        <time>2022-10-30T09:55:42Z</time>
      </trkpt>
      <trkpt lat="41.4064431" lon="2.0701872">
        <ele>167.25996399</ele>
        <time>2022-10-30T09:55:43Z</time>
      </trkpt>
      <trkpt lat="41.4064571" lon="2.0702292">
        <ele>167.44996643</ele>
        <time>2022-10-30T09:55:44Z</time>
      </trkpt>
      <trkpt lat="41.406467" lon="2.0702631">
        <ele>167.60997009</ele>
        <time>2022-10-30T09:55:45Z</time>
      </trkpt>
      <trkpt lat="41.40647" lon="2.070297">
        <ele>167.82997131</ele>
        <time>2022-10-30T09:55:46Z</time>
      </trkpt>
      <trkpt lat="41.4064789" lon="2.070327">
        <ele>168.10997009</ele>
        <time>2022-10-30T09:55:47Z</time>
      </trkpt>
      <trkpt lat="41.4064978" lon="2.070347">
        <ele>168.40997314</ele>
        <time>2022-10-30T09:55:48Z</time>
      </trkpt>
      <trkpt lat="41.4065128" lon="2.0703919">
        <ele>168.7099762</ele>
        <time>2022-10-30T09:55:49Z</time>
      </trkpt>
      <trkpt lat="41.4065197" lon="2.0704229">
        <ele>169.02998352</ele>
        <time>2022-10-30T09:55:50Z</time>
      </trkpt>
      <trkpt lat="41.4065277" lon="2.0704488">
        <ele>169.44998169</ele>
        <time>2022-10-30T09:55:51Z</time>
      </trkpt>
      <trkpt lat="41.4065327" lon="2.0704677">
        <ele>169.88998413</ele>
        <time>2022-10-30T09:55:52Z</time>
      </trkpt>
      <trkpt lat="41.4065307" lon="2.0705107">
        <ele>170.37998962</ele>
        <time>2022-10-30T09:55:53Z</time>
      </trkpt>
      <trkpt lat="41.4065268" lon="2.0705346">
        <ele>170.78999329</ele>
        <time>2022-10-30T09:55:54Z</time>
      </trkpt>
      <trkpt lat="41.4065158" lon="2.0705626">
        <ele>171.08999634</ele>
        <time>2022-10-30T09:55:55Z</time>
      </trkpt>
      <trkpt lat="41.4065149" lon="2.0705935">
        <ele>171.28999329</ele>
        <time>2022-10-30T09:55:56Z</time>
      </trkpt>
      <trkpt lat="41.4065198" lon="2.0706114">
        <ele>171.3999939</ele>
        <time>2022-10-30T09:55:57Z</time>
      </trkpt>
      <trkpt lat="41.4065218" lon="2.0706613">
        <ele>171.5</ele>
        <time>2022-10-30T09:55:58Z</time>
      </trkpt>
      <trkpt lat="41.4065159" lon="2.0706943">
        <ele>171.58999634</ele>
        <time>2022-10-30T09:55:59Z</time>
      </trkpt>
      <trkpt lat="41.406507" lon="2.0707273">
        <ele>171.66000366</ele>
        <time>2022-10-30T09:56:00Z</time>
      </trkpt>
      <trkpt lat="41.406498" lon="2.0707612">
        <ele>171.75</ele>
        <time>2022-10-30T09:56:01Z</time>
      </trkpt>
      <trkpt lat="41.4064771" lon="2.0708101">
        <ele>171.83999634</ele>
        <time>2022-10-30T09:56:02Z</time>
      </trkpt>
      <trkpt lat="41.4064611" lon="2.0708541">
        <ele>171.87998962</ele>
        <time>2022-10-30T09:56:03Z</time>
      </trkpt>
      <trkpt lat="41.4064462" lon="2.070903">
        <ele>171.94999695</ele>
        <time>2022-10-30T09:56:04Z</time>
      </trkpt>
      <trkpt lat="41.4064313" lon="2.0709249">
        <ele>172.02000427</ele>
        <time>2022-10-30T09:56:05Z</time>
      </trkpt>
      <trkpt lat="41.4064063" lon="2.0709939">
        <ele>172.1000061</ele>
        <time>2022-10-30T09:56:06Z</time>
      </trkpt>
      <trkpt lat="41.4063873" lon="2.0710348">
        <ele>172.21000671</ele>
        <time>2022-10-30T09:56:07Z</time>
      </trkpt>
      <trkpt lat="41.4063763" lon="2.0710717">
        <ele>172.3400116</ele>
        <time>2022-10-30T09:56:08Z</time>
      </trkpt>
      <trkpt lat="41.4063713" lon="2.0710996">
        <ele>172.50001526</ele>
        <time>2022-10-30T09:56:09Z</time>
      </trkpt>
      <trkpt lat="41.4063704" lon="2.0711486">
        <ele>172.6900177</ele>
        <time>2022-10-30T09:56:10Z</time>
      </trkpt>
      <trkpt lat="41.4063654" lon="2.0711825">
        <ele>172.89001465</ele>
        <time>2022-10-30T09:56:11Z</time>
      </trkpt>
      <trkpt lat="41.4063495" lon="2.0712264">
        <ele>173.07000732</ele>
        <time>2022-10-30T09:56:12Z</time>
      </trkpt>
      <trkpt lat="41.4063365" lon="2.0712733">
        <ele>173.23001099</ele>
        <time>2022-10-30T09:56:13Z</time>
      </trkpt>
      <trkpt lat="41.4063295" lon="2.0713153">
        <ele>173.41000366</ele>
        <time>2022-10-30T09:56:14Z</time>
      </trkpt>
      <trkpt lat="41.4063395" lon="2.0713722">
        <ele>173.61000061</ele>
        <time>2022-10-30T09:56:15Z</time>
      </trkpt>
      <trkpt lat="41.4063495" lon="2.0714062">
        <ele>173.83999634</ele>
        <time>2022-10-30T09:56:16Z</time>
      </trkpt>
      <trkpt lat="41.4063504" lon="2.0714401">
        <ele>174.08999634</ele>
        <time>2022-10-30T09:56:17Z</time>
      </trkpt>
      <trkpt lat="41.4063484" lon="2.071473">
        <ele>174.27999878</ele>
        <time>2022-10-30T09:56:18Z</time>
      </trkpt>
      <trkpt lat="41.4063683" lon="2.071507">
        <ele>174.47999573</ele>
        <time>2022-10-30T09:56:19Z</time>
      </trkpt>
      <trkpt lat="41.4064073" lon="2.0715639">
        <ele>174.69000244</ele>
        <time>2022-10-30T09:56:20Z</time>
      </trkpt>
      <trkpt lat="41.4064242" lon="2.0715989">
        <ele>174.88000488</ele>
        <time>2022-10-30T09:56:21Z</time>
      </trkpt>
      <trkpt lat="41.4064361" lon="2.0716368">
        <ele>175.18000793</ele>
        <time>2022-10-30T09:56:22Z</time>
      </trkpt>
      <trkpt lat="41.4064561" lon="2.0716658">
        <ele>175.44000244</ele>
        <time>2022-10-30T09:56:23Z</time>
      </trkpt>
      <trkpt lat="41.406464" lon="2.0716987">
        <ele>175.69000244</ele>
        <time>2022-10-30T09:56:24Z</time>
      </trkpt>
      <trkpt lat="41.406471" lon="2.0717396">
        <ele>175.91000366</ele>
        <time>2022-10-30T09:56:25Z</time>
      </trkpt>
      <trkpt lat="41.406515" lon="2.0717606">
        <ele>176.05000305</ele>
        <time>2022-10-30T09:56:26Z</time>
      </trkpt>
      <trkpt lat="41.4065449" lon="2.0717785">
        <ele>176.19999695</ele>
        <time>2022-10-30T09:56:27Z</time>
      </trkpt>
      <trkpt lat="41.4065729" lon="2.0718034">
        <ele>176.31999207</ele>
        <time>2022-10-30T09:56:28Z</time>
      </trkpt>
      <trkpt lat="41.4065949" lon="2.0718443">
        <ele>176.50999451</ele>
        <time>2022-10-30T09:56:29Z</time>
      </trkpt>
      <trkpt lat="41.4066288" lon="2.0718613">
        <ele>176.72999573</ele>
        <time>2022-10-30T09:56:30Z</time>
      </trkpt>
      <trkpt lat="41.4066577" lon="2.0718873">
        <ele>176.97999573</ele>
        <time>2022-10-30T09:56:31Z</time>
      </trkpt>
      <trkpt lat="41.4066746" lon="2.0719112">
        <ele>177.33000183</ele>
        <time>2022-10-30T09:56:32Z</time>
      </trkpt>
      <trkpt lat="41.4066996" lon="2.0719452">
        <ele>177.65000916</ele>
        <time>2022-10-30T09:56:33Z</time>
      </trkpt>
      <trkpt lat="41.4067216" lon="2.0719661">
        <ele>177.96000671</ele>
        <time>2022-10-30T09:56:34Z</time>
      </trkpt>
      <trkpt lat="41.4067505" lon="2.0719821">
        <ele>178.24000549</ele>
        <time>2022-10-30T09:56:35Z</time>
      </trkpt>
      <trkpt lat="41.4067715" lon="2.072006">
        <ele>178.47000122</ele>
        <time>2022-10-30T09:56:36Z</time>
      </trkpt>
      <trkpt lat="41.4067894" lon="2.072039">
        <ele>178.77999878</ele>
        <time>2022-10-30T09:56:37Z</time>
      </trkpt>
      <trkpt lat="41.4068093" lon="2.072084">
        <ele>179.08000183</ele>
        <time>2022-10-30T09:56:38Z</time>
      </trkpt>
      <trkpt lat="41.4068223" lon="2.072113">
        <ele>179.36000061</ele>
        <time>2022-10-30T09:56:39Z</time>
      </trkpt>
      <trkpt lat="41.4068523" lon="2.0721071">
        <ele>179.61999512</ele>
        <time>2022-10-30T09:56:40Z</time>
      </trkpt>
      <trkpt lat="41.4068752" lon="2.0720861">
        <ele>179.86000061</ele>
        <time>2022-10-30T09:56:41Z</time>
      </trkpt>
      <trkpt lat="41.4068781" lon="2.0720901">
        <ele>180.19000244</ele>
        <time>2022-10-30T09:56:42Z</time>
      </trkpt>
      <trkpt lat="41.4068621" lon="2.072092">
        <ele>180.54000854</ele>
        <time>2022-10-30T09:56:43Z</time>
      </trkpt>
      <trkpt lat="41.4068452" lon="2.072096">
        <ele>180.92001343</ele>
        <time>2022-10-30T09:56:44Z</time>
      </trkpt>
      <trkpt lat="41.4068312" lon="2.0721019">
        <ele>181.29000854</ele>
        <time>2022-10-30T09:56:45Z</time>
      </trkpt>
      <trkpt lat="41.4068092" lon="2.0721249">
        <ele>181.58000183</ele>
        <time>2022-10-30T09:56:46Z</time>
      </trkpt>
      <trkpt lat="41.4067743" lon="2.0721708">
        <ele>181.8500061</ele>
        <time>2022-10-30T09:56:47Z</time>
      </trkpt>
      <trkpt lat="41.4067594" lon="2.0722098">
        <ele>182.12001038</ele>
        <time>2022-10-30T09:56:48Z</time>
      </trkpt>
      <trkpt lat="41.4067703" lon="2.0722558">
        <ele>182.36001587</ele>
        <time>2022-10-30T09:56:49Z</time>
      </trkpt>
      <trkpt lat="41.4067604" lon="2.0723027">
        <ele>182.60002136</ele>
        <time>2022-10-30T09:56:50Z</time>
      </trkpt>
      <trkpt lat="41.4067464" lon="2.0723577">
        <ele>182.80001831</ele>
        <time>2022-10-30T09:56:51Z</time>
      </trkpt>
      <trkpt lat="41.4067345" lon="2.0724016">
        <ele>182.99002075</ele>
        <time>2022-10-30T09:56:52Z</time>
      </trkpt>
      <trkpt lat="41.4067095" lon="2.0724285">
        <ele>183.21002197</ele>
        <time>2022-10-30T09:56:53Z</time>
      </trkpt>
      <trkpt lat="41.4066955" lon="2.0724515">
        <ele>183.4400177</ele>
        <time>2022-10-30T09:56:54Z</time>
      </trkpt>
      <trkpt lat="41.4066955" lon="2.0724865">
        <ele>183.73001099</ele>
        <time>2022-10-30T09:56:55Z</time>
      </trkpt>
      <trkpt lat="41.4066855" lon="2.0725424">
        <ele>184.04000854</ele>
        <time>2022-10-30T09:56:56Z</time>
      </trkpt>
      <trkpt lat="41.4066635" lon="2.0725963">
        <ele>184.36001587</ele>
        <time>2022-10-30T09:56:57Z</time>
      </trkpt>
      <trkpt lat="41.4066426" lon="2.0726433">
        <ele>184.63002014</ele>
        <time>2022-10-30T09:56:58Z</time>
      </trkpt>
      <trkpt lat="41.4066367" lon="2.0726783">
        <ele>184.88002014</ele>
        <time>2022-10-30T09:56:59Z</time>
      </trkpt>
      <trkpt lat="41.4066127" lon="2.0727382">
        <ele>185.12002563</ele>
        <time>2022-10-30T09:57:00Z</time>
      </trkpt>
      <trkpt lat="41.4065987" lon="2.0727771">
        <ele>185.33003235</ele>
        <time>2022-10-30T09:57:01Z</time>
      </trkpt>
      <trkpt lat="41.4065898" lon="2.0728111">
        <ele>185.61003113</ele>
        <time>2022-10-30T09:57:02Z</time>
      </trkpt>
      <trkpt lat="41.4065799" lon="2.072839">
        <ele>185.91003418</ele>
        <time>2022-10-30T09:57:03Z</time>
      </trkpt>
      <trkpt lat="41.4065729" lon="2.072874">
        <ele>186.2300415</ele>
        <time>2022-10-30T09:57:04Z</time>
      </trkpt>
      <trkpt lat="41.4065859" lon="2.0729139">
        <ele>186.55004883</ele>
        <time>2022-10-30T09:57:05Z</time>
      </trkpt>
      <trkpt lat="41.4066068" lon="2.0729259">
        <ele>186.87005615</ele>
        <time>2022-10-30T09:57:06Z</time>
      </trkpt>
      <trkpt lat="41.4066198" lon="2.0729558">
        <ele>187.13005066</ele>
        <time>2022-10-30T09:57:07Z</time>
      </trkpt>
      <trkpt lat="41.4066227" lon="2.0729798">
        <ele>187.35005188</ele>
        <time>2022-10-30T09:57:08Z</time>
      </trkpt>
      <trkpt lat="41.4066247" lon="2.0730307">
        <ele>187.53004456</ele>
        <time>2022-10-30T09:57:09Z</time>
      </trkpt>
      <trkpt lat="41.4066157" lon="2.0730607">
        <ele>187.70004272</ele>
        <time>2022-10-30T09:57:10Z</time>
      </trkpt>
      <trkpt lat="41.4066008" lon="2.0730957">
        <ele>187.93003845</ele>
        <time>2022-10-30T09:57:11Z</time>
      </trkpt>
      <trkpt lat="41.4065859" lon="2.0731386">
        <ele>188.16003418</ele>
        <time>2022-10-30T09:57:12Z</time>
      </trkpt>
      <trkpt lat="41.4065789" lon="2.0731976">
        <ele>188.40003967</ele>
        <time>2022-10-30T09:57:13Z</time>
      </trkpt>
      <trkpt lat="41.40657" lon="2.0732355">
        <ele>188.61004639</ele>
        <time>2022-10-30T09:57:14Z</time>
      </trkpt>
      <trkpt lat="41.406559" lon="2.0732694">
        <ele>188.78004456</ele>
        <time>2022-10-30T09:57:15Z</time>
      </trkpt>
      <trkpt lat="41.406548" lon="2.0732844">
        <ele>189.00004578</ele>
        <time>2022-10-30T09:57:16Z</time>
      </trkpt>
      <trkpt lat="41.4065509" lon="2.0733213">
        <ele>189.21005249</ele>
        <time>2022-10-30T09:57:17Z</time>
      </trkpt>
      <trkpt lat="41.4065649" lon="2.0733332">
        <ele>189.49005127</ele>
        <time>2022-10-30T09:57:18Z</time>
      </trkpt>
      <trkpt lat="41.4065699" lon="2.0733611">
        <ele>189.84005737</ele>
        <time>2022-10-30T09:57:19Z</time>
      </trkpt>
      <trkpt lat="41.4065699" lon="2.073402">
        <ele>190.1600647</ele>
        <time>2022-10-30T09:57:20Z</time>
      </trkpt>
      <trkpt lat="41.40656" lon="2.073434">
        <ele>190.50006104</ele>
        <time>2022-10-30T09:57:21Z</time>
      </trkpt>
      <trkpt lat="41.406553" lon="2.073492">
        <ele>190.86006165</ele>
        <time>2022-10-30T09:57:22Z</time>
      </trkpt>
      <trkpt lat="41.406545" lon="2.0735459">
        <ele>191.09005737</ele>
        <time>2022-10-30T09:57:23Z</time>
      </trkpt>
      <trkpt lat="41.4065441" lon="2.0735889">
        <ele>191.33006287</ele>
        <time>2022-10-30T09:57:24Z</time>
      </trkpt>
      <trkpt lat="41.4065322" lon="2.0736328">
        <ele>191.59005737</ele>
        <time>2022-10-30T09:57:25Z</time>
      </trkpt>
      <trkpt lat="41.4065272" lon="2.0736767">
        <ele>191.76005554</ele>
        <time>2022-10-30T09:57:26Z</time>
      </trkpt>
      <trkpt lat="41.4064982" lon="2.0736936">
        <ele>191.98005676</ele>
        <time>2022-10-30T09:57:27Z</time>
      </trkpt>
      <trkpt lat="41.4064973" lon="2.0737246">
        <ele>192.22006226</ele>
        <time>2022-10-30T09:57:28Z</time>
      </trkpt>
      <trkpt lat="41.4064923" lon="2.0737325">
        <ele>192.4100647</ele>
        <time>2022-10-30T09:57:29Z</time>
      </trkpt>
      <trkpt lat="41.4064864" lon="2.0737525">
        <ele>192.61006165</ele>
        <time>2022-10-30T09:57:30Z</time>
      </trkpt>
      <trkpt lat="41.4064825" lon="2.0737845">
        <ele>192.82006836</ele>
        <time>2022-10-30T09:57:31Z</time>
      </trkpt>
      <trkpt lat="41.4064905" lon="2.0738474">
        <ele>192.95007324</ele>
        <time>2022-10-30T09:57:32Z</time>
      </trkpt>
      <trkpt lat="41.4065045" lon="2.0739003">
        <ele>193.12007141</ele>
        <time>2022-10-30T09:57:33Z</time>
      </trkpt>
      <trkpt lat="41.4065134" lon="2.0739493">
        <ele>193.29006958</ele>
        <time>2022-10-30T09:57:34Z</time>
      </trkpt>
      <trkpt lat="41.4065263" lon="2.0740082">
        <ele>193.40007019</ele>
        <time>2022-10-30T09:57:35Z</time>
      </trkpt>
      <trkpt lat="41.4065383" lon="2.0740602">
        <ele>193.56007385</ele>
        <time>2022-10-30T09:57:36Z</time>
      </trkpt>
      <trkpt lat="41.4065422" lon="2.0740971">
        <ele>193.75007629</ele>
        <time>2022-10-30T09:57:37Z</time>
      </trkpt>
      <trkpt lat="41.4065451" lon="2.0741301">
        <ele>193.93006897</ele>
        <time>2022-10-30T09:57:38Z</time>
      </trkpt>
      <trkpt lat="41.4065442" lon="2.0741651">
        <ele>194.18006897</ele>
        <time>2022-10-30T09:57:39Z</time>
      </trkpt>
      <trkpt lat="41.4065462" lon="2.074193">
        <ele>194.42007446</ele>
        <time>2022-10-30T09:57:40Z</time>
      </trkpt>
      <trkpt lat="41.4065521" lon="2.074235">
        <ele>194.66007996</ele>
        <time>2022-10-30T09:57:41Z</time>
      </trkpt>
      <trkpt lat="41.406567" lon="2.0742659">
        <ele>194.95007324</ele>
        <time>2022-10-30T09:57:42Z</time>
      </trkpt>
      <trkpt lat="41.4065819" lon="2.0742989">
        <ele>195.27008057</ele>
        <time>2022-10-30T09:57:43Z</time>
      </trkpt>
      <trkpt lat="41.4065999" lon="2.0743158">
        <ele>195.63008118</ele>
        <time>2022-10-30T09:57:44Z</time>
      </trkpt>
      <trkpt lat="41.4066158" lon="2.0743198">
        <ele>195.99008179</ele>
        <time>2022-10-30T09:57:45Z</time>
      </trkpt>
      <trkpt lat="41.4066548" lon="2.0743268">
        <ele>196.37008667</ele>
        <time>2022-10-30T09:57:46Z</time>
      </trkpt>
      <trkpt lat="41.4066857" lon="2.0743249">
        <ele>196.65008545</ele>
        <time>2022-10-30T09:57:47Z</time>
      </trkpt>
      <trkpt lat="41.4066907" lon="2.0743418">
        <ele>196.96008301</ele>
        <time>2022-10-30T09:57:48Z</time>
      </trkpt>
      <trkpt lat="41.4066898" lon="2.0743688">
        <ele>197.27008057</ele>
        <time>2022-10-30T09:57:49Z</time>
      </trkpt>
      <trkpt lat="41.4067327" lon="2.0744038">
        <ele>197.55007935</ele>
        <time>2022-10-30T09:57:50Z</time>
      </trkpt>
      <trkpt lat="41.4067208" lon="2.0744177">
        <ele>197.92007446</ele>
        <time>2022-10-30T09:57:51Z</time>
      </trkpt>
      <trkpt lat="41.4067188" lon="2.0744058">
        <ele>198.30007935</ele>
        <time>2022-10-30T09:57:52Z</time>
      </trkpt>
      <trkpt lat="41.4066959" lon="2.0743958">
        <ele>198.72007751</ele>
        <time>2022-10-30T09:57:53Z</time>
      </trkpt>
      <trkpt lat="41.4066399" lon="2.0743679">
        <ele>199.22007751</ele>
        <time>2022-10-30T09:57:54Z</time>
      </trkpt>
      <trkpt lat="41.4065819" lon="2.0743669">
        <ele>199.74008179</ele>
        <time>2022-10-30T09:57:55Z</time>
      </trkpt>
      <trkpt lat="41.40655" lon="2.0743669">
        <ele>200.26008606</ele>
        <time>2022-10-30T09:57:56Z</time>
      </trkpt>
      <trkpt lat="41.40656" lon="2.074348">
        <ele>200.69007874</ele>
        <time>2022-10-30T09:57:57Z</time>
      </trkpt>
      <trkpt lat="41.4065619" lon="2.0743201">
        <ele>201.03007507</ele>
        <time>2022-10-30T09:57:58Z</time>
      </trkpt>
      <trkpt lat="41.406546" lon="2.0742962">
        <ele>201.30007935</ele>
        <time>2022-10-30T09:57:59Z</time>
      </trkpt>
      <trkpt lat="41.406513" lon="2.0742692">
        <ele>201.50007629</ele>
        <time>2022-10-30T09:58:00Z</time>
      </trkpt>
      <trkpt lat="41.406499" lon="2.0742223">
        <ele>201.70007324</ele>
        <time>2022-10-30T09:58:01Z</time>
      </trkpt>
      <trkpt lat="41.406475" lon="2.0741944">
        <ele>201.92007446</ele>
        <time>2022-10-30T09:58:02Z</time>
      </trkpt>
      <trkpt lat="41.406453" lon="2.0741234">
        <ele>202.19007874</ele>
        <time>2022-10-30T09:58:03Z</time>
      </trkpt>
      <trkpt lat="41.4064511" lon="2.0740865">
        <ele>202.53007507</ele>
        <time>2022-10-30T09:58:04Z</time>
      </trkpt>
      <trkpt lat="41.4064331" lon="2.0740495">
        <ele>202.89007568</ele>
        <time>2022-10-30T09:58:05Z</time>
      </trkpt>
      <trkpt lat="41.4064012" lon="2.0740066">
        <ele>203.32006836</ele>
        <time>2022-10-30T09:58:06Z</time>
      </trkpt>
      <trkpt lat="41.4063732" lon="2.0739687">
        <ele>203.75006104</ele>
        <time>2022-10-30T09:58:07Z</time>
      </trkpt>
      <trkpt lat="41.4063372" lon="2.0738977">
        <ele>204.1700592</ele>
        <time>2022-10-30T09:58:08Z</time>
      </trkpt>
      <trkpt lat="41.4063173" lon="2.0738627">
        <ele>204.62005615</ele>
        <time>2022-10-30T09:58:09Z</time>
      </trkpt>
      <trkpt lat="41.4063044" lon="2.0738367">
        <ele>205.02005005</ele>
        <time>2022-10-30T09:58:10Z</time>
      </trkpt>
      <trkpt lat="41.4062875" lon="2.0737998">
        <ele>205.42004395</ele>
        <time>2022-10-30T09:58:11Z</time>
      </trkpt>
      <trkpt lat="41.4062984" lon="2.0737349">
        <ele>205.7300415</ele>
        <time>2022-10-30T09:58:12Z</time>
      </trkpt>
      <trkpt lat="41.4063074" lon="2.0736889">
        <ele>206.01004028</ele>
        <time>2022-10-30T09:58:13Z</time>
      </trkpt>
      <trkpt lat="41.4063243" lon="2.0736539">
        <ele>206.33004761</ele>
        <time>2022-10-30T09:58:14Z</time>
      </trkpt>
      <trkpt lat="41.4063412" lon="2.0736209">
        <ele>206.66004944</ele>
        <time>2022-10-30T09:58:15Z</time>
      </trkpt>
      <trkpt lat="41.4063611" lon="2.073547">
        <ele>207.05004883</ele>
        <time>2022-10-30T09:58:16Z</time>
      </trkpt>
      <trkpt lat="41.406367" lon="2.0735191">
        <ele>207.49005127</ele>
        <time>2022-10-30T09:58:17Z</time>
      </trkpt>
      <trkpt lat="41.4063739" lon="2.0734951">
        <ele>207.92004395</ele>
        <time>2022-10-30T09:58:18Z</time>
      </trkpt>
      <trkpt lat="41.4063739" lon="2.0734612">
        <ele>208.37004089</ele>
        <time>2022-10-30T09:58:19Z</time>
      </trkpt>
      <trkpt lat="41.406369" lon="2.0734342">
        <ele>208.80003357</ele>
        <time>2022-10-30T09:58:20Z</time>
      </trkpt>
      <trkpt lat="41.406365" lon="2.0733843">
        <ele>209.14002991</ele>
        <time>2022-10-30T09:58:21Z</time>
      </trkpt>
      <trkpt lat="41.40637" lon="2.0733523">
        <ele>209.44003296</ele>
        <time>2022-10-30T09:58:22Z</time>
      </trkpt>
      <trkpt lat="41.406368" lon="2.0733163">
        <ele>209.68003845</ele>
        <time>2022-10-30T09:58:23Z</time>
      </trkpt>
      <trkpt lat="41.4063671" lon="2.0732784">
        <ele>209.92004395</ele>
        <time>2022-10-30T09:58:24Z</time>
      </trkpt>
      <trkpt lat="41.4063492" lon="2.0732274">
        <ele>210.19004822</ele>
        <time>2022-10-30T09:58:25Z</time>
      </trkpt>
      <trkpt lat="41.4063412" lon="2.0731665">
        <ele>210.44004822</ele>
        <time>2022-10-30T09:58:26Z</time>
      </trkpt>
      <trkpt lat="41.4063392" lon="2.0731305">
        <ele>210.70004272</ele>
        <time>2022-10-30T09:58:27Z</time>
      </trkpt>
      <trkpt lat="41.4063342" lon="2.0730975">
        <ele>210.96003723</ele>
        <time>2022-10-30T09:58:28Z</time>
      </trkpt>
      <trkpt lat="41.4063313" lon="2.0730666">
        <ele>211.2300415</ele>
        <time>2022-10-30T09:58:29Z</time>
      </trkpt>
      <trkpt lat="41.4063432" lon="2.0730026">
        <ele>211.4800415</ele>
        <time>2022-10-30T09:58:30Z</time>
      </trkpt>
      <trkpt lat="41.4063203" lon="2.0729657">
        <ele>211.76004028</ele>
        <time>2022-10-30T09:58:31Z</time>
      </trkpt>
      <trkpt lat="41.4063144" lon="2.0729278">
        <ele>212.01004028</ele>
        <time>2022-10-30T09:58:32Z</time>
      </trkpt>
      <trkpt lat="41.4063034" lon="2.0728948">
        <ele>212.26004028</ele>
        <time>2022-10-30T09:58:33Z</time>
      </trkpt>
      <trkpt lat="41.4062795" lon="2.0728619">
        <ele>212.56004333</ele>
        <time>2022-10-30T09:58:34Z</time>
      </trkpt>
      <trkpt lat="41.4062445" lon="2.072802">
        <ele>212.88005066</ele>
        <time>2022-10-30T09:58:35Z</time>
      </trkpt>
      <trkpt lat="41.4062216" lon="2.072774">
        <ele>213.23005676</ele>
        <time>2022-10-30T09:58:36Z</time>
      </trkpt>
      <trkpt lat="41.4061977" lon="2.0727461">
        <ele>213.61006165</ele>
        <time>2022-10-30T09:58:37Z</time>
      </trkpt>
      <trkpt lat="41.4061727" lon="2.0727242">
        <ele>213.93006897</ele>
        <time>2022-10-30T09:58:38Z</time>
      </trkpt>
      <trkpt lat="41.4061197" lon="2.0727082">
        <ele>214.20007324</ele>
        <time>2022-10-30T09:58:39Z</time>
      </trkpt>
      <trkpt lat="41.4060858" lon="2.0726982">
        <ele>214.46006775</ele>
        <time>2022-10-30T09:58:40Z</time>
      </trkpt>
      <trkpt lat="41.4060588" lon="2.0726843">
        <ele>214.70007324</ele>
        <time>2022-10-30T09:58:41Z</time>
      </trkpt>
      <trkpt lat="41.4060279" lon="2.0726763">
        <ele>214.94007874</ele>
        <time>2022-10-30T09:58:42Z</time>
      </trkpt>
      <trkpt lat="41.405991" lon="2.0726783">
        <ele>215.27008057</ele>
        <time>2022-10-30T09:58:43Z</time>
      </trkpt>
      <trkpt lat="41.4059481" lon="2.0726882">
        <ele>215.6000824</ele>
        <time>2022-10-30T09:58:44Z</time>
      </trkpt>
      <trkpt lat="41.4059181" lon="2.0726902">
        <ele>215.90008545</ele>
        <time>2022-10-30T09:58:45Z</time>
      </trkpt>
      <trkpt lat="41.4058791" lon="2.0726951">
        <ele>216.19007874</ele>
        <time>2022-10-30T09:58:46Z</time>
      </trkpt>
      <trkpt lat="41.4058502" lon="2.0726872">
        <ele>216.40008545</ele>
        <time>2022-10-30T09:58:47Z</time>
      </trkpt>
      <trkpt lat="41.4057812" lon="2.0726813">
        <ele>216.6000824</ele>
        <time>2022-10-30T09:58:48Z</time>
      </trkpt>
      <trkpt lat="41.4057422" lon="2.0726624">
        <ele>216.8600769</ele>
        <time>2022-10-30T09:58:49Z</time>
      </trkpt>
      <trkpt lat="41.4057153" lon="2.0726274">
        <ele>217.16007996</ele>
        <time>2022-10-30T09:58:50Z</time>
      </trkpt>
      <trkpt lat="41.4056974" lon="2.0725824">
        <ele>217.58007812</ele>
        <time>2022-10-30T09:58:51Z</time>
      </trkpt>
      <trkpt lat="41.4056804" lon="2.0725424">
        <ele>218.02008057</ele>
        <time>2022-10-30T09:58:52Z</time>
      </trkpt>
      <trkpt lat="41.4056695" lon="2.0724955">
        <ele>218.55007935</ele>
        <time>2022-10-30T09:58:53Z</time>
      </trkpt>
      <trkpt lat="41.4056615" lon="2.0724595">
        <ele>219.12008667</ele>
        <time>2022-10-30T09:58:54Z</time>
      </trkpt>
      <trkpt lat="41.4056644" lon="2.0724226">
        <ele>219.63008118</ele>
        <time>2022-10-30T09:58:55Z</time>
      </trkpt>
      <trkpt lat="41.4056784" lon="2.0723927">
        <ele>220.19007874</ele>
        <time>2022-10-30T09:58:56Z</time>
      </trkpt>
      <trkpt lat="41.4056704" lon="2.0723607">
        <ele>220.70007324</ele>
        <time>2022-10-30T09:58:57Z</time>
      </trkpt>
      <trkpt lat="41.4056675" lon="2.0722977">
        <ele>221.23007202</ele>
        <time>2022-10-30T09:58:58Z</time>
      </trkpt>
      <trkpt lat="41.4056605" lon="2.0722578">
        <ele>221.71006775</ele>
        <time>2022-10-30T09:58:59Z</time>
      </trkpt>
      <trkpt lat="41.4056465" lon="2.0722149">
        <ele>222.12007141</ele>
        <time>2022-10-30T09:59:00Z</time>
      </trkpt>
      <trkpt lat="41.4056366" lon="2.0721719">
        <ele>222.44007874</ele>
        <time>2022-10-30T09:59:01Z</time>
      </trkpt>
      <trkpt lat="41.4055997" lon="2.072115">
        <ele>222.70007324</ele>
        <time>2022-10-30T09:59:02Z</time>
      </trkpt>
      <trkpt lat="41.4055817" lon="2.0720751">
        <ele>222.93006897</ele>
        <time>2022-10-30T09:59:03Z</time>
      </trkpt>
      <trkpt lat="41.4055597" lon="2.0720342">
        <ele>223.21006775</ele>
        <time>2022-10-30T09:59:04Z</time>
      </trkpt>
      <trkpt lat="41.4055438" lon="2.0719902">
        <ele>223.5100708</ele>
        <time>2022-10-30T09:59:05Z</time>
      </trkpt>
      <trkpt lat="41.4055319" lon="2.0719243">
        <ele>223.80006409</ele>
        <time>2022-10-30T09:59:06Z</time>
      </trkpt>
      <trkpt lat="41.4055169" lon="2.0718464">
        <ele>224.12007141</ele>
        <time>2022-10-30T09:59:07Z</time>
      </trkpt>
      <trkpt lat="41.405466" lon="2.0717954">
        <ele>224.50007629</ele>
        <time>2022-10-30T09:59:08Z</time>
      </trkpt>
      <trkpt lat="41.405479" lon="2.0717455">
        <ele>224.92007446</ele>
        <time>2022-10-30T09:59:09Z</time>
      </trkpt>
      <trkpt lat="41.405468" lon="2.0717065">
        <ele>225.40007019</ele>
        <time>2022-10-30T09:59:10Z</time>
      </trkpt>
      <trkpt lat="41.405441" lon="2.0716496">
        <ele>226.04006958</ele>
        <time>2022-10-30T09:59:11Z</time>
      </trkpt>
      <trkpt lat="41.4054351" lon="2.0716126">
        <ele>226.65007019</ele>
        <time>2022-10-30T09:59:12Z</time>
      </trkpt>
      <trkpt lat="41.4054282" lon="2.0715697">
        <ele>227.19006348</ele>
        <time>2022-10-30T09:59:13Z</time>
      </trkpt>
      <trkpt lat="41.4054222" lon="2.0715228">
        <ele>227.71006775</ele>
        <time>2022-10-30T09:59:14Z</time>
      </trkpt>
      <trkpt lat="41.4054043" lon="2.0714469">
        <ele>228.11006165</ele>
        <time>2022-10-30T09:59:15Z</time>
      </trkpt>
      <trkpt lat="41.4053954" lon="2.0713989">
        <ele>228.49006653</ele>
        <time>2022-10-30T09:59:16Z</time>
      </trkpt>
      <trkpt lat="41.4053785" lon="2.071355">
        <ele>228.90007019</ele>
        <time>2022-10-30T09:59:17Z</time>
      </trkpt>
      <trkpt lat="41.4053605" lon="2.071332">
        <ele>229.28007507</ele>
        <time>2022-10-30T09:59:18Z</time>
      </trkpt>
      <trkpt lat="41.4053366" lon="2.071321">
        <ele>229.63008118</ele>
        <time>2022-10-30T09:59:19Z</time>
      </trkpt>
      <trkpt lat="41.4053137" lon="2.0713399">
        <ele>229.99008179</ele>
        <time>2022-10-30T09:59:20Z</time>
      </trkpt>
      <trkpt lat="41.4053166" lon="2.0713648">
        <ele>230.47007751</ele>
        <time>2022-10-30T09:59:21Z</time>
      </trkpt>
      <trkpt lat="41.4053205" lon="2.0713998">
        <ele>231.03007507</ele>
        <time>2022-10-30T09:59:22Z</time>
      </trkpt>
      <trkpt lat="41.4053275" lon="2.0714238">
        <ele>231.6100769</ele>
        <time>2022-10-30T09:59:23Z</time>
      </trkpt>
      <trkpt lat="41.4053005" lon="2.0714658">
        <ele>232.16007996</ele>
        <time>2022-10-30T09:59:24Z</time>
      </trkpt>
      <trkpt lat="41.4052845" lon="2.0714917">
        <ele>232.56007385</ele>
        <time>2022-10-30T09:59:25Z</time>
      </trkpt>
      <trkpt lat="41.4052636" lon="2.0715197">
        <ele>232.89007568</ele>
        <time>2022-10-30T09:59:26Z</time>
      </trkpt>
      <trkpt lat="41.4052446" lon="2.0715506">
        <ele>233.18006897</ele>
        <time>2022-10-30T09:59:27Z</time>
      </trkpt>
      <trkpt lat="41.4052237" lon="2.0715785">
        <ele>233.42007446</ele>
        <time>2022-10-30T09:59:28Z</time>
      </trkpt>
      <trkpt lat="41.4051977" lon="2.0716314">
        <ele>233.67007446</ele>
        <time>2022-10-30T09:59:29Z</time>
      </trkpt>
      <trkpt lat="41.4051987" lon="2.0716724">
        <ele>233.92007446</ele>
        <time>2022-10-30T09:59:30Z</time>
      </trkpt>
      <trkpt lat="41.4051887" lon="2.0717233">
        <ele>234.20007324</ele>
        <time>2022-10-30T09:59:31Z</time>
      </trkpt>
      <trkpt lat="41.4051907" lon="2.0717693">
        <ele>234.50007629</ele>
        <time>2022-10-30T09:59:32Z</time>
      </trkpt>
      <trkpt lat="41.4052017" lon="2.0718183">
        <ele>234.80007935</ele>
        <time>2022-10-30T09:59:33Z</time>
      </trkpt>
      <trkpt lat="41.4052207" lon="2.0718902">
        <ele>235.02008057</ele>
        <time>2022-10-30T09:59:34Z</time>
      </trkpt>
      <trkpt lat="41.4052336" lon="2.0719412">
        <ele>235.22007751</ele>
        <time>2022-10-30T09:59:35Z</time>
      </trkpt>
      <trkpt lat="41.4052556" lon="2.0719922">
        <ele>235.40007019</ele>
        <time>2022-10-30T09:59:36Z</time>
      </trkpt>
      <trkpt lat="41.4052785" lon="2.0720421">
        <ele>235.58006287</ele>
        <time>2022-10-30T09:59:37Z</time>
      </trkpt>
      <trkpt lat="41.4053205" lon="2.0721101">
        <ele>235.75006104</ele>
        <time>2022-10-30T09:59:38Z</time>
      </trkpt>
      <trkpt lat="41.405319" lon="2.072115">
        <ele>236.77999878</ele>
        <time>2022-10-30T09:59:38Z</time>
      </trkpt>
      <trkpt lat="41.405335" lon="2.072166">
        <ele>236.94000244</ele>
        <time>2022-10-30T09:59:39Z</time>
      </trkpt>
      <trkpt lat="41.405337" lon="2.0722069">
        <ele>237.13999939</ele>
        <time>2022-10-30T09:59:40Z</time>
      </trkpt>
      <trkpt lat="41.405337" lon="2.0722508">
        <ele>237.36000061</ele>
        <time>2022-10-30T09:59:41Z</time>
      </trkpt>
      <trkpt lat="41.405323" lon="2.0722988">
        <ele>237.6499939</ele>
        <time>2022-10-30T09:59:42Z</time>
      </trkpt>
      <trkpt lat="41.405298" lon="2.0723527">
        <ele>237.93998718</ele>
        <time>2022-10-30T09:59:43Z</time>
      </trkpt>
      <trkpt lat="41.4052751" lon="2.0723956">
        <ele>238.11997986</ele>
        <time>2022-10-30T09:59:44Z</time>
      </trkpt>
      <trkpt lat="41.4052442" lon="2.0724386">
        <ele>238.21998596</ele>
        <time>2022-10-30T09:59:45Z</time>
      </trkpt>
      <trkpt lat="41.4052142" lon="2.0724815">
        <ele>238.22998047</ele>
        <time>2022-10-30T09:59:46Z</time>
      </trkpt>
      <trkpt lat="41.4051883" lon="2.0725335">
        <ele>238.23997498</ele>
        <time>2022-10-30T09:59:47Z</time>
      </trkpt>
      <trkpt lat="41.4051693" lon="2.0725664">
        <ele>238.26997375</ele>
        <time>2022-10-30T09:59:48Z</time>
      </trkpt>
      <trkpt lat="41.4051354" lon="2.0725994">
        <ele>238.26997375</ele>
        <time>2022-10-30T09:59:49Z</time>
      </trkpt>
      <trkpt lat="41.4051155" lon="2.0726344">
        <ele>238.32997131</ele>
        <time>2022-10-30T09:59:50Z</time>
      </trkpt>
      <trkpt lat="41.4050975" lon="2.0726933">
        <ele>238.39997864</ele>
        <time>2022-10-30T09:59:51Z</time>
      </trkpt>
      <trkpt lat="41.4051065" lon="2.0727203">
        <ele>238.47998047</ele>
        <time>2022-10-30T09:59:52Z</time>
      </trkpt>
      <trkpt lat="41.4051065" lon="2.0727632">
        <ele>238.67997742</ele>
        <time>2022-10-30T09:59:53Z</time>
      </trkpt>
      <trkpt lat="41.4051134" lon="2.0727982">
        <ele>238.85997009</ele>
        <time>2022-10-30T09:59:54Z</time>
      </trkpt>
      <trkpt lat="41.4051494" lon="2.0728352">
        <ele>239.04997253</ele>
        <time>2022-10-30T09:59:55Z</time>
      </trkpt>
      <trkpt lat="41.4051803" lon="2.0729291">
        <ele>239.29997253</ele>
        <time>2022-10-30T09:59:56Z</time>
      </trkpt>
      <trkpt lat="41.4051872" lon="2.0729941">
        <ele>239.58996582</ele>
        <time>2022-10-30T09:59:57Z</time>
      </trkpt>
      <trkpt lat="41.4051972" lon="2.07303">
        <ele>239.8699646</ele>
        <time>2022-10-30T09:59:58Z</time>
      </trkpt>
      <trkpt lat="41.4051943" lon="2.073057">
        <ele>240.20996094</ele>
        <time>2022-10-30T09:59:59Z</time>
      </trkpt>
      <trkpt lat="41.4052083" lon="2.0730849">
        <ele>240.59996033</ele>
        <time>2022-10-30T10:00:00Z</time>
      </trkpt>
      <trkpt lat="41.4052142" lon="2.0731139">
        <ele>240.96995544</ele>
        <time>2022-10-30T10:00:01Z</time>
      </trkpt>
      <trkpt lat="41.4052142" lon="2.0731478">
        <ele>241.5199585</ele>
        <time>2022-10-30T10:00:02Z</time>
      </trkpt>
      <trkpt lat="41.4052023" lon="2.0731838">
        <ele>242.05995178</ele>
        <time>2022-10-30T10:00:03Z</time>
      </trkpt>
      <trkpt lat="41.4052032" lon="2.0732167">
        <ele>242.60995483</ele>
        <time>2022-10-30T10:00:04Z</time>
      </trkpt>
      <trkpt lat="41.4052472" lon="2.0732627">
        <ele>243.19995117</ele>
        <time>2022-10-30T10:00:05Z</time>
      </trkpt>
      <trkpt lat="41.4053001" lon="2.0732846">
        <ele>243.64994812</ele>
        <time>2022-10-30T10:00:06Z</time>
      </trkpt>
      <trkpt lat="41.4053361" lon="2.0733106">
        <ele>244.04994202</ele>
        <time>2022-10-30T10:00:07Z</time>
      </trkpt>
      <trkpt lat="41.4053551" lon="2.0733505">
        <ele>244.4299469</ele>
        <time>2022-10-30T10:00:08Z</time>
      </trkpt>
      <trkpt lat="41.4053691" lon="2.0734044">
        <ele>244.72994995</ele>
        <time>2022-10-30T10:00:09Z</time>
      </trkpt>
      <trkpt lat="41.4053662" lon="2.0734453">
        <ele>245.06994629</ele>
        <time>2022-10-30T10:00:10Z</time>
      </trkpt>
      <trkpt lat="41.4053552" lon="2.0734832">
        <ele>245.38995361</ele>
        <time>2022-10-30T10:00:11Z</time>
      </trkpt>
      <trkpt lat="41.4053543" lon="2.0735062">
        <ele>245.66995239</ele>
        <time>2022-10-30T10:00:12Z</time>
      </trkpt>
      <trkpt lat="41.4053572" lon="2.0735332">
        <ele>245.91995239</ele>
        <time>2022-10-30T10:00:13Z</time>
      </trkpt>
      <trkpt lat="41.4053572" lon="2.0735652">
        <ele>246.08995056</ele>
        <time>2022-10-30T10:00:14Z</time>
      </trkpt>
      <trkpt lat="41.4053552" lon="2.0735731">
        <ele>246.279953</ele>
        <time>2022-10-30T10:00:15Z</time>
      </trkpt>
      <trkpt lat="41.4053403" lon="2.0735991">
        <ele>246.45994568</ele>
        <time>2022-10-30T10:00:16Z</time>
      </trkpt>
      <trkpt lat="41.4053243" lon="2.0736191">
        <ele>246.59994507</ele>
        <time>2022-10-30T10:00:17Z</time>
      </trkpt>
      <trkpt lat="41.4053163" lon="2.073631">
        <ele>246.75994873</ele>
        <time>2022-10-30T10:00:18Z</time>
      </trkpt>
      <trkpt lat="41.4053094" lon="2.073663">
        <ele>246.90994263</ele>
        <time>2022-10-30T10:00:19Z</time>
      </trkpt>
      <trkpt lat="41.4052914" lon="2.073692">
        <ele>247.09994507</ele>
        <time>2022-10-30T10:00:20Z</time>
      </trkpt>
      <trkpt lat="41.4052855" lon="2.0737169">
        <ele>247.3299408</ele>
        <time>2022-10-30T10:00:21Z</time>
      </trkpt>
      <trkpt lat="41.4052686" lon="2.0737448">
        <ele>247.51994324</ele>
        <time>2022-10-30T10:00:22Z</time>
      </trkpt>
      <trkpt lat="41.4052556" lon="2.0738118">
        <ele>247.71994019</ele>
        <time>2022-10-30T10:00:23Z</time>
      </trkpt>
      <trkpt lat="41.4052626" lon="2.0738577">
        <ele>247.86993408</ele>
        <time>2022-10-30T10:00:24Z</time>
      </trkpt>
      <trkpt lat="41.4052766" lon="2.0738987">
        <ele>248.02993774</ele>
        <time>2022-10-30T10:00:25Z</time>
      </trkpt>
      <trkpt lat="41.4052935" lon="2.0739236">
        <ele>248.27993774</ele>
        <time>2022-10-30T10:00:26Z</time>
      </trkpt>
      <trkpt lat="41.4052944" lon="2.0739785">
        <ele>248.45993042</ele>
        <time>2022-10-30T10:00:27Z</time>
      </trkpt>
      <trkpt lat="41.4053054" lon="2.0740145">
        <ele>248.72993469</ele>
        <time>2022-10-30T10:00:28Z</time>
      </trkpt>
      <trkpt lat="41.4053234" lon="2.0740435">
        <ele>249.05993652</ele>
        <time>2022-10-30T10:00:29Z</time>
      </trkpt>
      <trkpt lat="41.4053443" lon="2.0740785">
        <ele>249.37994385</ele>
        <time>2022-10-30T10:00:30Z</time>
      </trkpt>
      <trkpt lat="41.4053493" lon="2.0741265">
        <ele>249.80993652</ele>
        <time>2022-10-30T10:00:31Z</time>
      </trkpt>
      <trkpt lat="41.4053692" lon="2.0741974">
        <ele>250.26994324</ele>
        <time>2022-10-30T10:00:32Z</time>
      </trkpt>
      <trkpt lat="41.4053761" lon="2.0742394">
        <ele>250.66993713</ele>
        <time>2022-10-30T10:00:33Z</time>
      </trkpt>
      <trkpt lat="41.4053921" lon="2.0742764">
        <ele>251.03993225</ele>
        <time>2022-10-30T10:00:34Z</time>
      </trkpt>
      <trkpt lat="41.4054031" lon="2.0743153">
        <ele>251.36993408</ele>
        <time>2022-10-30T10:00:35Z</time>
      </trkpt>
      <trkpt lat="41.405407" lon="2.0743733">
        <ele>251.63993835</ele>
        <time>2022-10-30T10:00:36Z</time>
      </trkpt>
      <trkpt lat="41.405427" lon="2.0744093">
        <ele>251.88993835</ele>
        <time>2022-10-30T10:00:37Z</time>
      </trkpt>
      <trkpt lat="41.4054369" lon="2.0744492">
        <ele>252.16993713</ele>
        <time>2022-10-30T10:00:38Z</time>
      </trkpt>
      <trkpt lat="41.405434" lon="2.0744922">
        <ele>252.41993713</ele>
        <time>2022-10-30T10:00:39Z</time>
      </trkpt>
      <trkpt lat="41.4054311" lon="2.0745311">
        <ele>252.65994263</ele>
        <time>2022-10-30T10:00:40Z</time>
      </trkpt>
      <trkpt lat="41.4054222" lon="2.0746061">
        <ele>252.90994263</ele>
        <time>2022-10-30T10:00:41Z</time>
      </trkpt>
      <trkpt lat="41.4053963" lon="2.074646">
        <ele>253.14994812</ele>
        <time>2022-10-30T10:00:42Z</time>
      </trkpt>
      <trkpt lat="41.4053813" lon="2.074669">
        <ele>253.4299469</ele>
        <time>2022-10-30T10:00:43Z</time>
      </trkpt>
      <trkpt lat="41.4053563" lon="2.074695">
        <ele>253.70994568</ele>
        <time>2022-10-30T10:00:44Z</time>
      </trkpt>
      <trkpt lat="41.4053344" lon="2.0747319">
        <ele>253.97994995</ele>
        <time>2022-10-30T10:00:45Z</time>
      </trkpt>
      <trkpt lat="41.4053114" lon="2.0747698">
        <ele>254.279953</ele>
        <time>2022-10-30T10:00:46Z</time>
      </trkpt>
      <trkpt lat="41.4052955" lon="2.0748018">
        <ele>254.55995178</ele>
        <time>2022-10-30T10:00:47Z</time>
      </trkpt>
      <trkpt lat="41.4052786" lon="2.0748427">
        <ele>254.84994507</ele>
        <time>2022-10-30T10:00:48Z</time>
      </trkpt>
      <trkpt lat="41.4052626" lon="2.0748736">
        <ele>255.08995056</ele>
        <time>2022-10-30T10:00:49Z</time>
      </trkpt>
      <trkpt lat="41.4052276" lon="2.0749226">
        <ele>255.279953</ele>
        <time>2022-10-30T10:00:50Z</time>
      </trkpt>
      <trkpt lat="41.4052117" lon="2.0749486">
        <ele>255.41995239</ele>
        <time>2022-10-30T10:00:51Z</time>
      </trkpt>
      <trkpt lat="41.4051927" lon="2.0749795">
        <ele>255.5199585</ele>
        <time>2022-10-30T10:00:52Z</time>
      </trkpt>
      <trkpt lat="41.4051728" lon="2.0750224">
        <ele>255.70996094</ele>
        <time>2022-10-30T10:00:53Z</time>
      </trkpt>
      <trkpt lat="41.4051428" lon="2.0750994">
        <ele>255.82995605</ele>
        <time>2022-10-30T10:00:54Z</time>
      </trkpt>
      <trkpt lat="41.4051309" lon="2.0751264">
        <ele>256.04995728</ele>
        <time>2022-10-30T10:00:55Z</time>
      </trkpt>
      <trkpt lat="41.4051169" lon="2.0751953">
        <ele>256.2699585</ele>
        <time>2022-10-30T10:00:56Z</time>
      </trkpt>
      <trkpt lat="41.4051279" lon="2.0752412">
        <ele>256.48995972</ele>
        <time>2022-10-30T10:00:57Z</time>
      </trkpt>
      <trkpt lat="41.405124" lon="2.0752912">
        <ele>256.81994629</ele>
        <time>2022-10-30T10:00:58Z</time>
      </trkpt>
      <trkpt lat="41.405104" lon="2.0753601">
        <ele>257.19995117</ele>
        <time>2022-10-30T10:00:59Z</time>
      </trkpt>
      <trkpt lat="41.4050851" lon="2.0753961">
        <ele>257.58996582</ele>
        <time>2022-10-30T10:01:00Z</time>
      </trkpt>
      <trkpt lat="41.4050622" lon="2.0754281">
        <ele>257.99996948</ele>
        <time>2022-10-30T10:01:01Z</time>
      </trkpt>
      <trkpt lat="41.4050522" lon="2.075455">
        <ele>258.33996582</ele>
        <time>2022-10-30T10:01:02Z</time>
      </trkpt>
      <trkpt lat="41.4050302" lon="2.07551">
        <ele>258.57995605</ele>
        <time>2022-10-30T10:01:03Z</time>
      </trkpt>
      <trkpt lat="41.4050222" lon="2.0755369">
        <ele>258.77996826</ele>
        <time>2022-10-30T10:01:04Z</time>
      </trkpt>
      <trkpt lat="41.4050082" lon="2.0755729">
        <ele>258.99996948</ele>
        <time>2022-10-30T10:01:05Z</time>
      </trkpt>
      <trkpt lat="41.4049832" lon="2.0756098">
        <ele>259.18997192</ele>
        <time>2022-10-30T10:01:06Z</time>
      </trkpt>
      <trkpt lat="41.4049653" lon="2.0756458">
        <ele>259.41998291</ele>
        <time>2022-10-30T10:01:07Z</time>
      </trkpt>
      <trkpt lat="41.4049614" lon="2.0756867">
        <ele>259.66998291</ele>
        <time>2022-10-30T10:01:08Z</time>
      </trkpt>
      <trkpt lat="41.4049643" lon="2.0757187">
        <ele>259.87997437</ele>
        <time>2022-10-30T10:01:09Z</time>
      </trkpt>
      <trkpt lat="41.4049513" lon="2.0757466">
        <ele>260.13998413</ele>
        <time>2022-10-30T10:01:10Z</time>
      </trkpt>
      <trkpt lat="41.4049254" lon="2.0757816">
        <ele>260.43997192</ele>
        <time>2022-10-30T10:01:11Z</time>
      </trkpt>
      <trkpt lat="41.4049124" lon="2.0758146">
        <ele>260.77996826</ele>
        <time>2022-10-30T10:01:12Z</time>
      </trkpt>
      <trkpt lat="41.4048865" lon="2.0758365">
        <ele>261.14996338</ele>
        <time>2022-10-30T10:01:13Z</time>
      </trkpt>
      <trkpt lat="41.4048656" lon="2.0758644">
        <ele>261.47994995</ele>
        <time>2022-10-30T10:01:14Z</time>
      </trkpt>
      <trkpt lat="41.4048526" lon="2.0758974">
        <ele>261.82995605</ele>
        <time>2022-10-30T10:01:15Z</time>
      </trkpt>
      <trkpt lat="41.4048517" lon="2.0759123">
        <ele>262.17996216</ele>
        <time>2022-10-30T10:01:16Z</time>
      </trkpt>
      <trkpt lat="41.4048566" lon="2.0759552">
        <ele>262.56997681</ele>
        <time>2022-10-30T10:01:17Z</time>
      </trkpt>
      <trkpt lat="41.4048566" lon="2.0759882">
        <ele>263.01998901</ele>
        <time>2022-10-30T10:01:18Z</time>
      </trkpt>
      <trkpt lat="41.4048517" lon="2.0760031">
        <ele>263.38998413</ele>
        <time>2022-10-30T10:01:19Z</time>
      </trkpt>
      <trkpt lat="41.4048646" lon="2.076057">
        <ele>263.80999756</ele>
        <time>2022-10-30T10:01:20Z</time>
      </trkpt>
      <trkpt lat="41.4048916" lon="2.0761549">
        <ele>264.19000244</ele>
        <time>2022-10-30T10:01:21Z</time>
      </trkpt>
      <trkpt lat="41.4048676" lon="2.0762219">
        <ele>264.5</ele>
        <time>2022-10-30T10:01:22Z</time>
      </trkpt>
      <trkpt lat="41.4048527" lon="2.0762779">
        <ele>264.82998657</ele>
        <time>2022-10-30T10:01:23Z</time>
      </trkpt>
      <trkpt lat="41.4048447" lon="2.0763618">
        <ele>265.10998535</ele>
        <time>2022-10-30T10:01:24Z</time>
      </trkpt>
      <trkpt lat="41.4048497" lon="2.0764548">
        <ele>265.37997437</ele>
        <time>2022-10-30T10:01:25Z</time>
      </trkpt>
      <trkpt lat="41.4048208" lon="2.0766048">
        <ele>265.73995972</ele>
        <time>2022-10-30T10:01:26Z</time>
      </trkpt>
      <trkpt lat="41.4048078" lon="2.0766528">
        <ele>266.12997437</ele>
        <time>2022-10-30T10:01:27Z</time>
      </trkpt>
      <trkpt lat="41.4047948" lon="2.0766767">
        <ele>266.48995972</ele>
        <time>2022-10-30T10:01:28Z</time>
      </trkpt>
      <trkpt lat="41.4047899" lon="2.0767287">
        <ele>266.78994751</ele>
        <time>2022-10-30T10:01:29Z</time>
      </trkpt>
      <trkpt lat="41.4047779" lon="2.0767596">
        <ele>267.12994385</ele>
        <time>2022-10-30T10:01:30Z</time>
      </trkpt>
      <trkpt lat="41.404776" lon="2.0767736">
        <ele>267.47994995</ele>
        <time>2022-10-30T10:01:31Z</time>
      </trkpt>
      <trkpt lat="41.4047849" lon="2.0768015">
        <ele>267.94995117</ele>
        <time>2022-10-30T10:01:32Z</time>
      </trkpt>
      <trkpt lat="41.4047948" lon="2.0768224">
        <ele>268.57995605</ele>
        <time>2022-10-30T10:01:33Z</time>
      </trkpt>
      <trkpt lat="41.4048068" lon="2.0768603">
        <ele>269.17996216</ele>
        <time>2022-10-30T10:01:34Z</time>
      </trkpt>
      <trkpt lat="41.4048337" lon="2.0769353">
        <ele>269.81997681</ele>
        <time>2022-10-30T10:01:35Z</time>
      </trkpt>
      <trkpt lat="41.4048467" lon="2.0769902">
        <ele>270.3699646</ele>
        <time>2022-10-30T10:01:36Z</time>
      </trkpt>
      <trkpt lat="41.4048476" lon="2.0770332">
        <ele>270.85995483</ele>
        <time>2022-10-30T10:01:37Z</time>
      </trkpt>
      <trkpt lat="41.4048485" lon="2.0770722">
        <ele>271.33996582</ele>
        <time>2022-10-30T10:01:38Z</time>
      </trkpt>
      <trkpt lat="41.4048615" lon="2.0771251">
        <ele>271.78997803</ele>
        <time>2022-10-30T10:01:39Z</time>
      </trkpt>
      <trkpt lat="41.4048715" lon="2.0771571">
        <ele>272.23999023</ele>
        <time>2022-10-30T10:01:40Z</time>
      </trkpt>
      <trkpt lat="41.4048924" lon="2.0771831">
        <ele>272.69000244</ele>
        <time>2022-10-30T10:01:41Z</time>
      </trkpt>
      <trkpt lat="41.4049213" lon="2.077202">
        <ele>273.1499939</ele>
        <time>2022-10-30T10:01:42Z</time>
      </trkpt>
      <trkpt lat="41.4049453" lon="2.0772239">
        <ele>273.6499939</ele>
        <time>2022-10-30T10:01:43Z</time>
      </trkpt>
      <trkpt lat="41.4049813" lon="2.0772559">
        <ele>274.13998413</ele>
        <time>2022-10-30T10:01:44Z</time>
      </trkpt>
      <trkpt lat="41.4049932" lon="2.0772838">
        <ele>274.55999756</ele>
        <time>2022-10-30T10:01:45Z</time>
      </trkpt>
      <trkpt lat="41.4049982" lon="2.0772927">
        <ele>274.94000244</ele>
        <time>2022-10-30T10:01:46Z</time>
      </trkpt>
      <trkpt lat="41.4049962" lon="2.0773187">
        <ele>275.25</ele>
        <time>2022-10-30T10:01:47Z</time>
      </trkpt>
      <trkpt lat="41.4050021" lon="2.0773626">
        <ele>275.61999512</ele>
        <time>2022-10-30T10:01:48Z</time>
      </trkpt>
      <trkpt lat="41.4049932" lon="2.0773926">
        <ele>275.97000122</ele>
        <time>2022-10-30T10:01:49Z</time>
      </trkpt>
      <trkpt lat="41.4049733" lon="2.0774295">
        <ele>276.25</ele>
        <time>2022-10-30T10:01:50Z</time>
      </trkpt>
      <trkpt lat="41.4049603" lon="2.0774594">
        <ele>276.48999023</ele>
        <time>2022-10-30T10:01:51Z</time>
      </trkpt>
      <trkpt lat="41.4049514" lon="2.0774904">
        <ele>276.66998291</ele>
        <time>2022-10-30T10:01:52Z</time>
      </trkpt>
      <trkpt lat="41.4049415" lon="2.0775393">
        <ele>276.87997437</ele>
        <time>2022-10-30T10:01:53Z</time>
      </trkpt>
      <trkpt lat="41.4049544" lon="2.0775693">
        <ele>277.17996216</ele>
        <time>2022-10-30T10:01:54Z</time>
      </trkpt>
      <trkpt lat="41.4049784" lon="2.0776032">
        <ele>277.48995972</ele>
        <time>2022-10-30T10:01:55Z</time>
      </trkpt>
      <trkpt lat="41.4050053" lon="2.0776352">
        <ele>277.85995483</ele>
        <time>2022-10-30T10:01:56Z</time>
      </trkpt>
      <trkpt lat="41.4050672" lon="2.0776712">
        <ele>278.28994751</ele>
        <time>2022-10-30T10:01:57Z</time>
      </trkpt>
      <trkpt lat="41.4050981" lon="2.0776941">
        <ele>278.71994019</ele>
        <time>2022-10-30T10:01:58Z</time>
      </trkpt>
      <trkpt lat="41.4051281" lon="2.0777031">
        <ele>279.17993164</ele>
        <time>2022-10-30T10:01:59Z</time>
      </trkpt>
      <trkpt lat="41.4051551" lon="2.077705">
        <ele>279.57992554</ele>
        <time>2022-10-30T10:02:00Z</time>
      </trkpt>
      <trkpt lat="41.405184" lon="2.077705">
        <ele>279.8899231</ele>
        <time>2022-10-30T10:02:01Z</time>
      </trkpt>
      <trkpt lat="41.405226" lon="2.077737">
        <ele>280.12991333</ele>
        <time>2022-10-30T10:02:02Z</time>
      </trkpt>
      <trkpt lat="41.4052609" lon="2.077741">
        <ele>280.32992554</ele>
        <time>2022-10-30T10:02:03Z</time>
      </trkpt>
      <trkpt lat="41.4052939" lon="2.0777381">
        <ele>280.51992798</ele>
        <time>2022-10-30T10:02:04Z</time>
      </trkpt>
      <trkpt lat="41.4053168" lon="2.077753">
        <ele>280.70993042</ele>
        <time>2022-10-30T10:02:05Z</time>
      </trkpt>
      <trkpt lat="41.4053438" lon="2.077773">
        <ele>280.87994385</ele>
        <time>2022-10-30T10:02:06Z</time>
      </trkpt>
      <trkpt lat="41.4053947" lon="2.0778369">
        <ele>281.07995605</ele>
        <time>2022-10-30T10:02:07Z</time>
      </trkpt>
      <trkpt lat="41.4054246" lon="2.0778659">
        <ele>281.29995728</ele>
        <time>2022-10-30T10:02:08Z</time>
      </trkpt>
      <trkpt lat="41.4054646" lon="2.0778729">
        <ele>281.52996826</ele>
        <time>2022-10-30T10:02:09Z</time>
      </trkpt>
      <trkpt lat="41.4055045" lon="2.077865">
        <ele>281.84997559</ele>
        <time>2022-10-30T10:02:10Z</time>
      </trkpt>
      <trkpt lat="41.4055564" lon="2.077878">
        <ele>282.2199707</ele>
        <time>2022-10-30T10:02:11Z</time>
      </trkpt>
      <trkpt lat="41.4056094" lon="2.0778819">
        <ele>282.58996582</ele>
        <time>2022-10-30T10:02:12Z</time>
      </trkpt>
      <trkpt lat="41.4056474" lon="2.0778899">
        <ele>283.08996582</ele>
        <time>2022-10-30T10:02:13Z</time>
      </trkpt>
      <trkpt lat="41.4056603" lon="2.0779108">
        <ele>283.65997314</ele>
        <time>2022-10-30T10:02:14Z</time>
      </trkpt>
      <trkpt lat="41.4056514" lon="2.0779447">
        <ele>284.30996704</ele>
        <time>2022-10-30T10:02:15Z</time>
      </trkpt>
      <trkpt lat="41.4056255" lon="2.0779807">
        <ele>284.95996094</ele>
        <time>2022-10-30T10:02:16Z</time>
      </trkpt>
      <trkpt lat="41.4055996" lon="2.0779947">
        <ele>285.48995972</ele>
        <time>2022-10-30T10:02:17Z</time>
      </trkpt>
      <trkpt lat="41.4055646" lon="2.0780026">
        <ele>285.89996338</ele>
        <time>2022-10-30T10:02:18Z</time>
      </trkpt>
      <trkpt lat="41.4055237" lon="2.0780106">
        <ele>286.15997314</ele>
        <time>2022-10-30T10:02:19Z</time>
      </trkpt>
      <trkpt lat="41.4054627" lon="2.0780535">
        <ele>286.37997437</ele>
        <time>2022-10-30T10:02:20Z</time>
      </trkpt>
      <trkpt lat="41.4054318" lon="2.0780735">
        <ele>286.62997437</ele>
        <time>2022-10-30T10:02:21Z</time>
      </trkpt>
      <trkpt lat="41.4054128" lon="2.0780895">
        <ele>286.83996582</ele>
        <time>2022-10-30T10:02:22Z</time>
      </trkpt>
      <trkpt lat="41.4053988" lon="2.0781155">
        <ele>287.09997559</ele>
        <time>2022-10-30T10:02:23Z</time>
      </trkpt>
      <trkpt lat="41.4053628" lon="2.0781844">
        <ele>287.39996338</ele>
        <time>2022-10-30T10:02:24Z</time>
      </trkpt>
      <trkpt lat="41.4053488" lon="2.0782413">
        <ele>287.66995239</ele>
        <time>2022-10-30T10:02:25Z</time>
      </trkpt>
      <trkpt lat="41.4053319" lon="2.0782812">
        <ele>287.96994019</ele>
        <time>2022-10-30T10:02:26Z</time>
      </trkpt>
      <trkpt lat="41.405315" lon="2.0783212">
        <ele>288.28994751</ele>
        <time>2022-10-30T10:02:27Z</time>
      </trkpt>
      <trkpt lat="41.4052921" lon="2.0783591">
        <ele>288.55993652</ele>
        <time>2022-10-30T10:02:28Z</time>
      </trkpt>
      <trkpt lat="41.4052632" lon="2.078373">
        <ele>288.87994385</ele>
        <time>2022-10-30T10:02:29Z</time>
      </trkpt>
      <trkpt lat="41.4052313" lon="2.0784">
        <ele>289.18994141</ele>
        <time>2022-10-30T10:02:30Z</time>
      </trkpt>
      <trkpt lat="41.4052043" lon="2.0784399">
        <ele>289.44995117</ele>
        <time>2022-10-30T10:02:31Z</time>
      </trkpt>
      <trkpt lat="41.4051864" lon="2.0784699">
        <ele>289.75994873</ele>
        <time>2022-10-30T10:02:32Z</time>
      </trkpt>
      <trkpt lat="41.4051555" lon="2.0785238">
        <ele>290.0199585</ele>
        <time>2022-10-30T10:02:33Z</time>
      </trkpt>
      <trkpt lat="41.4051345" lon="2.0785558">
        <ele>290.38995361</ele>
        <time>2022-10-30T10:02:34Z</time>
      </trkpt>
      <trkpt lat="41.4051176" lon="2.0785878">
        <ele>290.79995728</ele>
        <time>2022-10-30T10:02:35Z</time>
      </trkpt>
      <trkpt lat="41.4050857" lon="2.0785967">
        <ele>291.17996216</ele>
        <time>2022-10-30T10:02:36Z</time>
      </trkpt>
      <trkpt lat="41.4050628" lon="2.0786107">
        <ele>291.60995483</ele>
        <time>2022-10-30T10:02:37Z</time>
      </trkpt>
      <trkpt lat="41.4050138" lon="2.0785927">
        <ele>291.99996948</ele>
        <time>2022-10-30T10:02:38Z</time>
      </trkpt>
      <trkpt lat="41.4049939" lon="2.0785838">
        <ele>292.44998169</ele>
        <time>2022-10-30T10:02:39Z</time>
      </trkpt>
      <trkpt lat="41.4049699" lon="2.0785878">
        <ele>292.95999146</ele>
        <time>2022-10-30T10:02:40Z</time>
      </trkpt>
      <trkpt lat="41.404964" lon="2.0787028">
        <ele>293.44998169</ele>
        <time>2022-10-30T10:02:41Z</time>
      </trkpt>
      <trkpt lat="41.4049431" lon="2.0787767">
        <ele>293.90997314</ele>
        <time>2022-10-30T10:02:42Z</time>
      </trkpt>
      <trkpt lat="41.4048672" lon="2.0788947">
        <ele>294.34997559</ele>
        <time>2022-10-30T10:02:43Z</time>
      </trkpt>
      <trkpt lat="41.4048383" lon="2.0789416">
        <ele>294.73999023</ele>
        <time>2022-10-30T10:02:44Z</time>
      </trkpt>
      <trkpt lat="41.4048373" lon="2.0790066">
        <ele>295.13998413</ele>
        <time>2022-10-30T10:02:45Z</time>
      </trkpt>
      <trkpt lat="41.4048423" lon="2.0790725">
        <ele>295.55999756</ele>
        <time>2022-10-30T10:02:46Z</time>
      </trkpt>
      <trkpt lat="41.4048563" lon="2.0791595">
        <ele>295.95001221</ele>
        <time>2022-10-30T10:02:47Z</time>
      </trkpt>
      <trkpt lat="41.4048592" lon="2.0792134">
        <ele>296.34002686</ele>
        <time>2022-10-30T10:02:48Z</time>
      </trkpt>
      <trkpt lat="41.4048492" lon="2.0792683">
        <ele>296.76004028</ele>
        <time>2022-10-30T10:02:49Z</time>
      </trkpt>
      <trkpt lat="41.4048502" lon="2.0793173">
        <ele>297.22003174</ele>
        <time>2022-10-30T10:02:50Z</time>
      </trkpt>
      <trkpt lat="41.4048582" lon="2.0793772">
        <ele>297.72003174</ele>
        <time>2022-10-30T10:02:51Z</time>
      </trkpt>
      <trkpt lat="41.4048911" lon="2.0794612">
        <ele>298.2300415</ele>
        <time>2022-10-30T10:02:52Z</time>
      </trkpt>
      <trkpt lat="41.4049681" lon="2.0795041">
        <ele>298.75003052</ele>
        <time>2022-10-30T10:02:53Z</time>
      </trkpt>
      <trkpt lat="41.405062" lon="2.0795171">
        <ele>299.27001953</ele>
        <time>2022-10-30T10:02:54Z</time>
      </trkpt>
      <trkpt lat="41.405149" lon="2.0795271">
        <ele>299.74002075</ele>
        <time>2022-10-30T10:02:55Z</time>
      </trkpt>
      <trkpt lat="41.4052759" lon="2.079532">
        <ele>300.17001343</ele>
        <time>2022-10-30T10:02:56Z</time>
      </trkpt>
      <trkpt lat="41.4053539" lon="2.0795349">
        <ele>300.55001831</ele>
        <time>2022-10-30T10:02:57Z</time>
      </trkpt>
      <trkpt lat="41.4053989" lon="2.0795419">
        <ele>300.88000488</ele>
        <time>2022-10-30T10:02:58Z</time>
      </trkpt>
      <trkpt lat="41.4054319" lon="2.0795429">
        <ele>301.23999023</ele>
        <time>2022-10-30T10:02:59Z</time>
      </trkpt>
      <trkpt lat="41.4054828" lon="2.0795488">
        <ele>301.63998413</ele>
        <time>2022-10-30T10:03:00Z</time>
      </trkpt>
      <trkpt lat="41.4055117" lon="2.0795567">
        <ele>302.08999634</ele>
        <time>2022-10-30T10:03:01Z</time>
      </trkpt>
      <trkpt lat="41.4055357" lon="2.0795767">
        <ele>302.6000061</ele>
        <time>2022-10-30T10:03:02Z</time>
      </trkpt>
      <trkpt lat="41.4055637" lon="2.0795916">
        <ele>303.07000732</ele>
        <time>2022-10-30T10:03:03Z</time>
      </trkpt>
      <trkpt lat="41.4056026" lon="2.0796136">
        <ele>303.57000732</ele>
        <time>2022-10-30T10:03:04Z</time>
      </trkpt>
      <trkpt lat="41.4056536" lon="2.0796485">
        <ele>304.08999634</ele>
        <time>2022-10-30T10:03:05Z</time>
      </trkpt>
      <trkpt lat="41.4056915" lon="2.0796665">
        <ele>304.57998657</ele>
        <time>2022-10-30T10:03:06Z</time>
      </trkpt>
      <trkpt lat="41.4057305" lon="2.0796994">
        <ele>305.08999634</ele>
        <time>2022-10-30T10:03:07Z</time>
      </trkpt>
      <trkpt lat="41.4057734" lon="2.0797384">
        <ele>305.6000061</ele>
        <time>2022-10-30T10:03:08Z</time>
      </trkpt>
      <trkpt lat="41.4058204" lon="2.0797654">
        <ele>306</ele>
        <time>2022-10-30T10:03:09Z</time>
      </trkpt>
      <trkpt lat="41.4058904" lon="2.0798013">
        <ele>306.61999512</ele>
        <time>2022-10-30T10:03:10Z</time>
      </trkpt>
      <trkpt lat="41.4059264" lon="2.0798392">
        <ele>307.23999023</ele>
        <time>2022-10-30T10:03:11Z</time>
      </trkpt>
      <trkpt lat="41.4059653" lon="2.0798792">
        <ele>307.88998413</ele>
        <time>2022-10-30T10:03:12Z</time>
      </trkpt>
      <trkpt lat="41.4059992" lon="2.0799291">
        <ele>308.68997192</ele>
        <time>2022-10-30T10:03:13Z</time>
      </trkpt>
      <trkpt lat="41.4060301" lon="2.0800131">
        <ele>309.31997681</ele>
        <time>2022-10-30T10:03:14Z</time>
      </trkpt>
      <trkpt lat="41.4060461" lon="2.080063">
        <ele>310.00997925</ele>
        <time>2022-10-30T10:03:15Z</time>
      </trkpt>
      <trkpt lat="41.4060671" lon="2.080111">
        <ele>310.67999268</ele>
        <time>2022-10-30T10:03:16Z</time>
      </trkpt>
      <trkpt lat="41.406087" lon="2.0801679">
        <ele>311.25997925</ele>
        <time>2022-10-30T10:03:17Z</time>
      </trkpt>
      <trkpt lat="41.4061189" lon="2.0802708">
        <ele>311.77996826</ele>
        <time>2022-10-30T10:03:18Z</time>
      </trkpt>
      <trkpt lat="41.4061399" lon="2.0803437">
        <ele>312.19998169</ele>
        <time>2022-10-30T10:03:19Z</time>
      </trkpt>
      <trkpt lat="41.4061679" lon="2.0803997">
        <ele>312.57998657</ele>
        <time>2022-10-30T10:03:20Z</time>
      </trkpt>
      <trkpt lat="41.4061938" lon="2.0804586">
        <ele>312.88998413</ele>
        <time>2022-10-30T10:03:21Z</time>
      </trkpt>
      <trkpt lat="41.4062188" lon="2.0805106">
        <ele>313.20999146</ele>
        <time>2022-10-30T10:03:22Z</time>
      </trkpt>
      <trkpt lat="41.4062507" lon="2.0805396">
        <ele>313.53997803</ele>
        <time>2022-10-30T10:03:23Z</time>
      </trkpt>
      <trkpt lat="41.4062846" lon="2.0805515">
        <ele>313.8699646</ele>
        <time>2022-10-30T10:03:24Z</time>
      </trkpt>
      <trkpt lat="41.4063226" lon="2.0805685">
        <ele>314.27996826</ele>
        <time>2022-10-30T10:03:25Z</time>
      </trkpt>
      <trkpt lat="41.4063655" lon="2.0806005">
        <ele>314.69998169</ele>
        <time>2022-10-30T10:03:26Z</time>
      </trkpt>
      <trkpt lat="41.4064114" lon="2.0806204">
        <ele>315.27996826</ele>
        <time>2022-10-30T10:03:27Z</time>
      </trkpt>
      <trkpt lat="41.4064744" lon="2.0806474">
        <ele>315.85995483</ele>
        <time>2022-10-30T10:03:28Z</time>
      </trkpt>
      <trkpt lat="41.4065113" lon="2.0806683">
        <ele>316.47994995</ele>
        <time>2022-10-30T10:03:29Z</time>
      </trkpt>
      <trkpt lat="41.4065432" lon="2.0806883">
        <ele>317.10995483</ele>
        <time>2022-10-30T10:03:30Z</time>
      </trkpt>
      <trkpt lat="41.4065702" lon="2.0807173">
        <ele>317.5199585</ele>
        <time>2022-10-30T10:03:31Z</time>
      </trkpt>
      <trkpt lat="41.4066131" lon="2.0807772">
        <ele>317.93997192</ele>
        <time>2022-10-30T10:03:32Z</time>
      </trkpt>
      <trkpt lat="41.406647" lon="2.0808131">
        <ele>318.2699585</ele>
        <time>2022-10-30T10:03:33Z</time>
      </trkpt>
      <trkpt lat="41.406677" lon="2.0808541">
        <ele>318.55996704</ele>
        <time>2022-10-30T10:03:34Z</time>
      </trkpt>
      <trkpt lat="41.4067039" lon="2.080894">
        <ele>318.97998047</ele>
        <time>2022-10-30T10:03:35Z</time>
      </trkpt>
      <trkpt lat="41.4067319" lon="2.0809469">
        <ele>319.32998657</ele>
        <time>2022-10-30T10:03:36Z</time>
      </trkpt>
      <trkpt lat="41.4067559" lon="2.0809848">
        <ele>319.72998047</ele>
        <time>2022-10-30T10:03:37Z</time>
      </trkpt>
      <trkpt lat="41.4067858" lon="2.0810188">
        <ele>320.22998047</ele>
        <time>2022-10-30T10:03:38Z</time>
      </trkpt>
      <trkpt lat="41.4068158" lon="2.0810607">
        <ele>320.67999268</ele>
        <time>2022-10-30T10:03:39Z</time>
      </trkpt>
      <trkpt lat="41.4068387" lon="2.0810907">
        <ele>321.22998047</ele>
        <time>2022-10-30T10:03:40Z</time>
      </trkpt>
      <trkpt lat="41.4068787" lon="2.0811257">
        <ele>321.79998779</ele>
        <time>2022-10-30T10:03:41Z</time>
      </trkpt>
      <trkpt lat="41.4069046" lon="2.0811506">
        <ele>322.3999939</ele>
        <time>2022-10-30T10:03:42Z</time>
      </trkpt>
      <trkpt lat="41.4069266" lon="2.0811796">
        <ele>322.97998047</ele>
        <time>2022-10-30T10:03:43Z</time>
      </trkpt>
      <trkpt lat="41.4069475" lon="2.0812146">
        <ele>323.60998535</ele>
        <time>2022-10-30T10:03:44Z</time>
      </trkpt>
      <trkpt lat="41.4069715" lon="2.0812496">
        <ele>324.22998047</ele>
        <time>2022-10-30T10:03:45Z</time>
      </trkpt>
      <trkpt lat="41.4069994" lon="2.0813106">
        <ele>324.80996704</ele>
        <time>2022-10-30T10:03:46Z</time>
      </trkpt>
      <trkpt lat="41.4070154" lon="2.0813505">
        <ele>325.39996338</ele>
        <time>2022-10-30T10:03:47Z</time>
      </trkpt>
      <trkpt lat="41.4070243" lon="2.0813955">
        <ele>325.84997559</ele>
        <time>2022-10-30T10:03:48Z</time>
      </trkpt>
      <trkpt lat="41.4070473" lon="2.0814405">
        <ele>326.26998901</ele>
        <time>2022-10-30T10:03:49Z</time>
      </trkpt>
      <trkpt lat="41.4070682" lon="2.0815075">
        <ele>326.61999512</ele>
        <time>2022-10-30T10:03:50Z</time>
      </trkpt>
      <trkpt lat="41.4070792" lon="2.0815525">
        <ele>326.94998169</ele>
        <time>2022-10-30T10:03:51Z</time>
      </trkpt>
      <trkpt lat="41.4070911" lon="2.0815984">
        <ele>327.26998901</ele>
        <time>2022-10-30T10:03:52Z</time>
      </trkpt>
      <trkpt lat="41.4070991" lon="2.0816374">
        <ele>327.51998901</ele>
        <time>2022-10-30T10:03:53Z</time>
      </trkpt>
      <trkpt lat="41.4071011" lon="2.0816753">
        <ele>327.72998047</ele>
        <time>2022-10-30T10:03:54Z</time>
      </trkpt>
      <trkpt lat="41.4071001" lon="2.0817272">
        <ele>327.85998535</ele>
        <time>2022-10-30T10:03:55Z</time>
      </trkpt>
      <trkpt lat="41.4070972" lon="2.0817612">
        <ele>328.00997925</ele>
        <time>2022-10-30T10:03:56Z</time>
      </trkpt>
      <trkpt lat="41.4070892" lon="2.0817941">
        <ele>328.16998291</ele>
        <time>2022-10-30T10:03:57Z</time>
      </trkpt>
      <trkpt lat="41.4070813" lon="2.0818181">
        <ele>328.32998657</ele>
        <time>2022-10-30T10:03:58Z</time>
      </trkpt>
      <trkpt lat="41.4070693" lon="2.0818531">
        <ele>328.53997803</ele>
        <time>2022-10-30T10:03:59Z</time>
      </trkpt>
      <trkpt lat="41.4070654" lon="2.081877">
        <ele>328.79998779</ele>
        <time>2022-10-30T10:04:00Z</time>
      </trkpt>
      <trkpt lat="41.4070615" lon="2.081904">
        <ele>329.00997925</ele>
        <time>2022-10-30T10:04:01Z</time>
      </trkpt>
      <trkpt lat="41.4070525" lon="2.0819339">
        <ele>329.2199707</ele>
        <time>2022-10-30T10:04:02Z</time>
      </trkpt>
      <trkpt lat="41.4070575" lon="2.0819799">
        <ele>329.41998291</ele>
        <time>2022-10-30T10:04:03Z</time>
      </trkpt>
      <trkpt lat="41.4070625" lon="2.0819999">
        <ele>329.57998657</ele>
        <time>2022-10-30T10:04:04Z</time>
      </trkpt>
      <trkpt lat="41.4070654" lon="2.0820238">
        <ele>329.73999023</ele>
        <time>2022-10-30T10:04:05Z</time>
      </trkpt>
      <trkpt lat="41.4070663" lon="2.0820547">
        <ele>329.8999939</ele>
        <time>2022-10-30T10:04:06Z</time>
      </trkpt>
      <trkpt lat="41.4070644" lon="2.0820867">
        <ele>330.01998901</ele>
        <time>2022-10-30T10:04:07Z</time>
      </trkpt>
      <trkpt lat="41.4070524" lon="2.0821237">
        <ele>330.1499939</ele>
        <time>2022-10-30T10:04:08Z</time>
      </trkpt>
      <trkpt lat="41.4070465" lon="2.0821446">
        <ele>330.32000732</ele>
        <time>2022-10-30T10:04:09Z</time>
      </trkpt>
      <trkpt lat="41.4070396" lon="2.0821736">
        <ele>330.3999939</ele>
        <time>2022-10-30T10:04:10Z</time>
      </trkpt>
      <trkpt lat="41.4070356" lon="2.0822015">
        <ele>330.48999023</ele>
        <time>2022-10-30T10:04:11Z</time>
      </trkpt>
      <trkpt lat="41.4070276" lon="2.0822384">
        <ele>330.53997803</ele>
        <time>2022-10-30T10:04:12Z</time>
      </trkpt>
      <trkpt lat="41.4070276" lon="2.0822774">
        <ele>330.55996704</ele>
        <time>2022-10-30T10:04:13Z</time>
      </trkpt>
      <trkpt lat="41.4070237" lon="2.0823014">
        <ele>330.65997314</ele>
        <time>2022-10-30T10:04:14Z</time>
      </trkpt>
      <trkpt lat="41.4070157" lon="2.0823263">
        <ele>330.7699585</ele>
        <time>2022-10-30T10:04:15Z</time>
      </trkpt>
      <trkpt lat="41.4070017" lon="2.0823482">
        <ele>330.87994385</ele>
        <time>2022-10-30T10:04:16Z</time>
      </trkpt>
      <trkpt lat="41.4069778" lon="2.0823621">
        <ele>330.95993042</ele>
        <time>2022-10-30T10:04:17Z</time>
      </trkpt>
      <trkpt lat="41.4069708" lon="2.0823741">
        <ele>331.02993774</ele>
        <time>2022-10-30T10:04:18Z</time>
      </trkpt>
      <trkpt lat="41.4069688" lon="2.08239">
        <ele>331.06994629</ele>
        <time>2022-10-30T10:04:19Z</time>
      </trkpt>
      <trkpt lat="41.4069659" lon="2.082418">
        <ele>331.0899353</ele>
        <time>2022-10-30T10:04:20Z</time>
      </trkpt>
      <trkpt lat="41.4069709" lon="2.0824459">
        <ele>331.0899353</ele>
        <time>2022-10-30T10:04:21Z</time>
      </trkpt>
      <trkpt lat="41.406971" lon="2.082459">
        <ele>332.52999878</ele>
        <time>2022-10-30T10:04:21Z</time>
      </trkpt>
      <trkpt lat="41.406985" lon="2.0825309">
        <ele>332.05999756</ele>
        <time>2022-10-30T10:04:31Z</time>
      </trkpt>
      <trkpt lat="41.4069999" lon="2.0825179">
        <ele>332.01998901</ele>
        <time>2022-10-30T10:04:32Z</time>
      </trkpt>
      <trkpt lat="41.4070129" lon="2.082506">
        <ele>332.01998901</ele>
        <time>2022-10-30T10:04:33Z</time>
      </trkpt>
      <trkpt lat="41.4070248" lon="2.082489">
        <ele>332.05999756</ele>
        <time>2022-10-30T10:04:34Z</time>
      </trkpt>
      <trkpt lat="41.4070318" lon="2.0824461">
        <ele>332.08999634</ele>
        <time>2022-10-30T10:04:35Z</time>
      </trkpt>
      <trkpt lat="41.4070199" lon="2.0824412">
        <ele>332.11999512</ele>
        <time>2022-10-30T10:04:36Z</time>
      </trkpt>
      <trkpt lat="41.4069879" lon="2.0824451">
        <ele>332.11999512</ele>
        <time>2022-10-30T10:04:37Z</time>
      </trkpt>
      <trkpt lat="41.406968" lon="2.0824381">
        <ele>332.11999512</ele>
        <time>2022-10-30T10:04:38Z</time>
      </trkpt>
      <trkpt lat="41.4069451" lon="2.0824272">
        <ele>332.20999146</ele>
        <time>2022-10-30T10:04:39Z</time>
      </trkpt>
      <trkpt lat="41.4069371" lon="2.0824253">
        <ele>332.48999023</ele>
        <time>2022-10-30T10:04:40Z</time>
      </trkpt>
      <trkpt lat="41.4069231" lon="2.0824103">
        <ele>332.86999512</ele>
        <time>2022-10-30T10:04:41Z</time>
      </trkpt>
      <trkpt lat="41.4069062" lon="2.0824014">
        <ele>333.42999268</ele>
        <time>2022-10-30T10:04:42Z</time>
      </trkpt>
      <trkpt lat="41.4068932" lon="2.0823884">
        <ele>334.00997925</ele>
        <time>2022-10-30T10:04:43Z</time>
      </trkpt>
      <trkpt lat="41.4068813" lon="2.0823665">
        <ele>334.48999023</ele>
        <time>2022-10-30T10:04:44Z</time>
      </trkpt>
      <trkpt lat="41.4068664" lon="2.0823345">
        <ele>335.02999878</ele>
        <time>2022-10-30T10:04:45Z</time>
      </trkpt>
      <trkpt lat="41.4068534" lon="2.0823115">
        <ele>335.42999268</ele>
        <time>2022-10-30T10:04:46Z</time>
      </trkpt>
      <trkpt lat="41.4068355" lon="2.0823016">
        <ele>335.79998779</ele>
        <time>2022-10-30T10:04:47Z</time>
      </trkpt>
      <trkpt lat="41.4068275" lon="2.0822637">
        <ele>336.16998291</ele>
        <time>2022-10-30T10:04:48Z</time>
      </trkpt>
      <trkpt lat="41.4068295" lon="2.0822017">
        <ele>336.43997192</ele>
        <time>2022-10-30T10:04:49Z</time>
      </trkpt>
      <trkpt lat="41.4068304" lon="2.0821638">
        <ele>336.77996826</ele>
        <time>2022-10-30T10:04:50Z</time>
      </trkpt>
      <trkpt lat="41.4068344" lon="2.0821329">
        <ele>337.08996582</ele>
        <time>2022-10-30T10:04:51Z</time>
      </trkpt>
      <trkpt lat="41.4068234" lon="2.0821059">
        <ele>337.43997192</ele>
        <time>2022-10-30T10:04:52Z</time>
      </trkpt>
      <trkpt lat="41.4068034" lon="2.082067">
        <ele>337.74996948</ele>
        <time>2022-10-30T10:04:53Z</time>
      </trkpt>
      <trkpt lat="41.4067995" lon="2.082033">
        <ele>338.06997681</ele>
        <time>2022-10-30T10:04:54Z</time>
      </trkpt>
      <trkpt lat="41.4068015" lon="2.0820061">
        <ele>338.38998413</ele>
        <time>2022-10-30T10:04:55Z</time>
      </trkpt>
      <trkpt lat="41.4068005" lon="2.0819851">
        <ele>338.69998169</ele>
        <time>2022-10-30T10:04:56Z</time>
      </trkpt>
      <trkpt lat="41.4067846" lon="2.0819612">
        <ele>339.09997559</ele>
        <time>2022-10-30T10:04:57Z</time>
      </trkpt>
      <trkpt lat="41.4067787" lon="2.0819572">
        <ele>339.4699707</ele>
        <time>2022-10-30T10:04:58Z</time>
      </trkpt>
      <trkpt lat="41.4067697" lon="2.0819562">
        <ele>339.79995728</ele>
        <time>2022-10-30T10:04:59Z</time>
      </trkpt>
      <trkpt lat="41.4067668" lon="2.0819662">
        <ele>340.04995728</ele>
        <time>2022-10-30T10:05:00Z</time>
      </trkpt>
      <trkpt lat="41.406767" lon="2.081913">
        <ele>340.44000244</ele>
        <time>2022-10-30T10:05:16Z</time>
      </trkpt>
      <trkpt lat="41.40676" lon="2.0818881">
        <ele>340.36001587</ele>
        <time>2022-10-30T10:05:17Z</time>
      </trkpt>
      <trkpt lat="41.406746" lon="2.0818611">
        <ele>340.26000977</ele>
        <time>2022-10-30T10:05:18Z</time>
      </trkpt>
      <trkpt lat="41.4067291" lon="2.0818251">
        <ele>340.08001709</ele>
        <time>2022-10-30T10:05:19Z</time>
      </trkpt>
      <trkpt lat="41.4067052" lon="2.0817632">
        <ele>339.81002808</ele>
        <time>2022-10-30T10:05:20Z</time>
      </trkpt>
      <trkpt lat="41.4066922" lon="2.0817172">
        <ele>339.44003296</ele>
        <time>2022-10-30T10:05:21Z</time>
      </trkpt>
      <trkpt lat="41.4066723" lon="2.0816713">
        <ele>339.07003784</ele>
        <time>2022-10-30T10:05:22Z</time>
      </trkpt>
      <trkpt lat="41.4066544" lon="2.0816203">
        <ele>338.65002441</ele>
        <time>2022-10-30T10:05:23Z</time>
      </trkpt>
      <trkpt lat="41.4066294" lon="2.0815743">
        <ele>338.19003296</ele>
        <time>2022-10-30T10:05:24Z</time>
      </trkpt>
      <trkpt lat="41.4065934" lon="2.0814924">
        <ele>337.80001831</ele>
        <time>2022-10-30T10:05:25Z</time>
      </trkpt>
      <trkpt lat="41.4065714" lon="2.0814395">
        <ele>337.46002197</ele>
        <time>2022-10-30T10:05:26Z</time>
      </trkpt>
      <trkpt lat="41.4065464" lon="2.0813975">
        <ele>337.22003174</ele>
        <time>2022-10-30T10:05:27Z</time>
      </trkpt>
      <trkpt lat="41.4065345" lon="2.0813516">
        <ele>337.0300293</ele>
        <time>2022-10-30T10:05:28Z</time>
      </trkpt>
      <trkpt lat="41.4065245" lon="2.0812896">
        <ele>336.82003784</ele>
        <time>2022-10-30T10:05:29Z</time>
      </trkpt>
      <trkpt lat="41.4065105" lon="2.0812487">
        <ele>336.41003418</ele>
        <time>2022-10-30T10:05:30Z</time>
      </trkpt>
      <trkpt lat="41.4064906" lon="2.0812037">
        <ele>335.93002319</ele>
        <time>2022-10-30T10:05:31Z</time>
      </trkpt>
      <trkpt lat="41.4064626" lon="2.0811478">
        <ele>335.15002441</ele>
        <time>2022-10-30T10:05:32Z</time>
      </trkpt>
      <trkpt lat="41.4064107" lon="2.0810728">
        <ele>334.21002197</ele>
        <time>2022-10-30T10:05:33Z</time>
      </trkpt>
      <trkpt lat="41.4063807" lon="2.0810369">
        <ele>333.2800293</ele>
        <time>2022-10-30T10:05:34Z</time>
      </trkpt>
      <trkpt lat="41.4063527" lon="2.0810039">
        <ele>332.50003052</ele>
        <time>2022-10-30T10:05:35Z</time>
      </trkpt>
      <trkpt lat="41.4063178" lon="2.0809749">
        <ele>331.56002808</ele>
        <time>2022-10-30T10:05:36Z</time>
      </trkpt>
      <trkpt lat="41.4062798" lon="2.0809459">
        <ele>330.6300354</ele>
        <time>2022-10-30T10:05:37Z</time>
      </trkpt>
      <trkpt lat="41.4062229" lon="2.080882">
        <ele>329.51004028</ele>
        <time>2022-10-30T10:05:38Z</time>
      </trkpt>
      <trkpt lat="41.4061819" lon="2.0808281">
        <ele>328.29003906</ele>
        <time>2022-10-30T10:05:39Z</time>
      </trkpt>
      <trkpt lat="41.406147" lon="2.0807751">
        <ele>327.3800354</ele>
        <time>2022-10-30T10:05:40Z</time>
      </trkpt>
      <trkpt lat="41.406111" lon="2.0807102">
        <ele>326.65002441</ele>
        <time>2022-10-30T10:05:41Z</time>
      </trkpt>
      <trkpt lat="41.4060711" lon="2.0806452">
        <ele>326.24002075</ele>
        <time>2022-10-30T10:05:42Z</time>
      </trkpt>
      <trkpt lat="41.4060321" lon="2.0805503">
        <ele>325.93002319</ele>
        <time>2022-10-30T10:05:43Z</time>
      </trkpt>
      <trkpt lat="41.4060211" lon="2.0804993">
        <ele>325.87002563</ele>
        <time>2022-10-30T10:05:44Z</time>
      </trkpt>
      <trkpt lat="41.4060172" lon="2.0804703">
        <ele>326.05001831</ele>
        <time>2022-10-30T10:05:45Z</time>
      </trkpt>
      <trkpt lat="41.4059952" lon="2.0804504">
        <ele>326.37002563</ele>
        <time>2022-10-30T10:05:46Z</time>
      </trkpt>
      <trkpt lat="41.4059473" lon="2.0804354">
        <ele>326.62002563</ele>
        <time>2022-10-30T10:05:47Z</time>
      </trkpt>
      <trkpt lat="41.4059033" lon="2.0804314">
        <ele>326.69003296</ele>
        <time>2022-10-30T10:05:48Z</time>
      </trkpt>
      <trkpt lat="41.4058514" lon="2.0804275">
        <ele>326.37002563</ele>
        <time>2022-10-30T10:05:49Z</time>
      </trkpt>
      <trkpt lat="41.4057975" lon="2.0804225">
        <ele>325.69003296</ele>
        <time>2022-10-30T10:05:50Z</time>
      </trkpt>
      <trkpt lat="41.4057035" lon="2.0804166">
        <ele>324.67004395</ele>
        <time>2022-10-30T10:05:51Z</time>
      </trkpt>
      <trkpt lat="41.4056356" lon="2.0804077">
        <ele>323.4800415</ele>
        <time>2022-10-30T10:05:52Z</time>
      </trkpt>
      <trkpt lat="41.4055647" lon="2.0804007">
        <ele>322.2300415</ele>
        <time>2022-10-30T10:05:53Z</time>
      </trkpt>
      <trkpt lat="41.4054947" lon="2.0803937">
        <ele>321.05004883</ele>
        <time>2022-10-30T10:05:54Z</time>
      </trkpt>
      <trkpt lat="41.4054178" lon="2.0803967">
        <ele>319.85003662</ele>
        <time>2022-10-30T10:05:55Z</time>
      </trkpt>
      <trkpt lat="41.4052988" lon="2.0804206">
        <ele>318.67004395</ele>
        <time>2022-10-30T10:05:56Z</time>
      </trkpt>
      <trkpt lat="41.4052339" lon="2.0804206">
        <ele>317.46005249</ele>
        <time>2022-10-30T10:05:57Z</time>
      </trkpt>
      <trkpt lat="41.40516" lon="2.0804087">
        <ele>316.32003784</ele>
        <time>2022-10-30T10:05:58Z</time>
      </trkpt>
      <trkpt lat="41.4051031" lon="2.0803898">
        <ele>315.46005249</ele>
        <time>2022-10-30T10:05:59Z</time>
      </trkpt>
      <trkpt lat="41.4050261" lon="2.0803558">
        <ele>314.99005127</ele>
        <time>2022-10-30T10:06:00Z</time>
      </trkpt>
      <trkpt lat="41.4049832" lon="2.0803309">
        <ele>314.89004517</ele>
        <time>2022-10-30T10:06:01Z</time>
      </trkpt>
      <trkpt lat="41.4049612" lon="2.080297">
        <ele>315.09005737</ele>
        <time>2022-10-30T10:06:02Z</time>
      </trkpt>
      <trkpt lat="41.4049423" lon="2.080274">
        <ele>315.47006226</ele>
        <time>2022-10-30T10:06:03Z</time>
      </trkpt>
      <trkpt lat="41.4049193" lon="2.0802571">
        <ele>315.88006592</ele>
        <time>2022-10-30T10:06:04Z</time>
      </trkpt>
      <trkpt lat="41.4049064" lon="2.0802192">
        <ele>316.29006958</ele>
        <time>2022-10-30T10:06:05Z</time>
      </trkpt>
      <trkpt lat="41.4048944" lon="2.0801752">
        <ele>316.58007812</ele>
        <time>2022-10-30T10:06:06Z</time>
      </trkpt>
      <trkpt lat="41.4048855" lon="2.0801213">
        <ele>316.85006714</ele>
        <time>2022-10-30T10:06:07Z</time>
      </trkpt>
      <trkpt lat="41.4048586" lon="2.0800784">
        <ele>317.22006226</ele>
        <time>2022-10-30T10:06:08Z</time>
      </trkpt>
      <trkpt lat="41.4048326" lon="2.0800415">
        <ele>317.54006958</ele>
        <time>2022-10-30T10:06:09Z</time>
      </trkpt>
      <trkpt lat="41.4048137" lon="2.0799805">
        <ele>318.00006104</ele>
        <time>2022-10-30T10:06:10Z</time>
      </trkpt>
      <trkpt lat="41.4048067" lon="2.0799236">
        <ele>318.58004761</ele>
        <time>2022-10-30T10:06:11Z</time>
      </trkpt>
      <trkpt lat="41.4048028" lon="2.0798806">
        <ele>319.11004639</ele>
        <time>2022-10-30T10:06:12Z</time>
      </trkpt>
      <trkpt lat="41.4047948" lon="2.0798337">
        <ele>319.74005127</ele>
        <time>2022-10-30T10:06:13Z</time>
      </trkpt>
      <trkpt lat="41.4047998" lon="2.0797588">
        <ele>320.27005005</ele>
        <time>2022-10-30T10:06:14Z</time>
      </trkpt>
      <trkpt lat="41.4048017" lon="2.0797179">
        <ele>320.78005981</ele>
        <time>2022-10-30T10:06:15Z</time>
      </trkpt>
      <trkpt lat="41.4048117" lon="2.0796689">
        <ele>321.30004883</ele>
        <time>2022-10-30T10:06:16Z</time>
      </trkpt>
      <trkpt lat="41.4047977" lon="2.0796329">
        <ele>321.90005493</ele>
        <time>2022-10-30T10:06:17Z</time>
      </trkpt>
      <trkpt lat="41.4048016" lon="2.07959">
        <ele>322.56005859</ele>
        <time>2022-10-30T10:06:18Z</time>
      </trkpt>
      <trkpt lat="41.4047947" lon="2.0795431">
        <ele>323.13006592</ele>
        <time>2022-10-30T10:06:19Z</time>
      </trkpt>
      <trkpt lat="41.4047967" lon="2.0795151">
        <ele>323.6600647</ele>
        <time>2022-10-30T10:06:20Z</time>
      </trkpt>
      <trkpt lat="41.4047617" lon="2.0795012">
        <ele>324.10006714</ele>
        <time>2022-10-30T10:06:21Z</time>
      </trkpt>
      <trkpt lat="41.4047068" lon="2.0795012">
        <ele>324.52008057</ele>
        <time>2022-10-30T10:06:22Z</time>
      </trkpt>
      <trkpt lat="41.4046589" lon="2.0794953">
        <ele>324.97009277</ele>
        <time>2022-10-30T10:06:23Z</time>
      </trkpt>
      <trkpt lat="41.4046449" lon="2.0795042">
        <ele>325.3901062</ele>
        <time>2022-10-30T10:06:24Z</time>
      </trkpt>
      <trkpt lat="41.4046089" lon="2.0795191">
        <ele>325.86010742</ele>
        <time>2022-10-30T10:06:25Z</time>
      </trkpt>
      <trkpt lat="41.4045699" lon="2.0795361">
        <ele>326.34011841</ele>
        <time>2022-10-30T10:06:26Z</time>
      </trkpt>
      <trkpt lat="41.4045399" lon="2.0795491">
        <ele>326.77011108</ele>
        <time>2022-10-30T10:06:27Z</time>
      </trkpt>
      <trkpt lat="41.404527" lon="2.0795561">
        <ele>327.19012451</ele>
        <time>2022-10-30T10:06:28Z</time>
      </trkpt>
      <trkpt lat="41.40452" lon="2.0795451">
        <ele>327.48013306</ele>
        <time>2022-10-30T10:06:29Z</time>
      </trkpt>
      <trkpt lat="41.4044891" lon="2.0795341">
        <ele>327.6701355</ele>
        <time>2022-10-30T10:06:30Z</time>
      </trkpt>
      <trkpt lat="41.4044561" lon="2.0795142">
        <ele>327.80014038</ele>
        <time>2022-10-30T10:06:31Z</time>
      </trkpt>
      <trkpt lat="41.4044172" lon="2.0794842">
        <ele>327.91012573</ele>
        <time>2022-10-30T10:06:32Z</time>
      </trkpt>
      <trkpt lat="41.4044092" lon="2.0794483">
        <ele>328.04013062</ele>
        <time>2022-10-30T10:06:33Z</time>
      </trkpt>
      <trkpt lat="41.4044151" lon="2.0793993">
        <ele>328.13012695</ele>
        <time>2022-10-30T10:06:34Z</time>
      </trkpt>
      <trkpt lat="41.4044142" lon="2.0793723">
        <ele>328.2401123</ele>
        <time>2022-10-30T10:06:35Z</time>
      </trkpt>
      <trkpt lat="41.4044102" lon="2.0793234">
        <ele>328.41012573</ele>
        <time>2022-10-30T10:06:36Z</time>
      </trkpt>
      <trkpt lat="41.4043942" lon="2.0792784">
        <ele>328.55014038</ele>
        <time>2022-10-30T10:06:37Z</time>
      </trkpt>
      <trkpt lat="41.4044062" lon="2.0792454">
        <ele>328.74014282</ele>
        <time>2022-10-30T10:06:38Z</time>
      </trkpt>
      <trkpt lat="41.4044121" lon="2.0792134">
        <ele>328.99014282</ele>
        <time>2022-10-30T10:06:39Z</time>
      </trkpt>
      <trkpt lat="41.4044062" lon="2.0791775">
        <ele>329.19015503</ele>
        <time>2022-10-30T10:06:40Z</time>
      </trkpt>
      <trkpt lat="41.4044282" lon="2.0791035">
        <ele>329.53015137</ele>
        <time>2022-10-30T10:06:41Z</time>
      </trkpt>
      <trkpt lat="41.4044391" lon="2.0790476">
        <ele>329.89013672</ele>
        <time>2022-10-30T10:06:42Z</time>
      </trkpt>
      <trkpt lat="41.4044531" lon="2.0789986">
        <ele>330.24014282</ele>
        <time>2022-10-30T10:06:43Z</time>
      </trkpt>
      <trkpt lat="41.40447" lon="2.0789447">
        <ele>330.62014771</ele>
        <time>2022-10-30T10:06:44Z</time>
      </trkpt>
      <trkpt lat="41.4044661" lon="2.0788928">
        <ele>331.00015259</ele>
        <time>2022-10-30T10:06:45Z</time>
      </trkpt>
      <trkpt lat="41.4044991" lon="2.0788848">
        <ele>331.41015625</ele>
        <time>2022-10-30T10:06:46Z</time>
      </trkpt>
      <trkpt lat="41.404525" lon="2.0788609">
        <ele>331.84014893</ele>
        <time>2022-10-30T10:06:47Z</time>
      </trkpt>
      <trkpt lat="41.4045429" lon="2.0788409">
        <ele>332.37014771</ele>
        <time>2022-10-30T10:06:48Z</time>
      </trkpt>
      <trkpt lat="41.4045569" lon="2.07882">
        <ele>332.84014893</ele>
        <time>2022-10-30T10:06:49Z</time>
      </trkpt>
      <trkpt lat="41.4045839" lon="2.078777">
        <ele>333.31015015</ele>
        <time>2022-10-30T10:06:50Z</time>
      </trkpt>
      <trkpt lat="41.4045859" lon="2.0787561">
        <ele>333.71014404</ele>
        <time>2022-10-30T10:06:51Z</time>
      </trkpt>
      <trkpt lat="41.4045809" lon="2.0787331">
        <ele>333.98013306</ele>
        <time>2022-10-30T10:06:52Z</time>
      </trkpt>
      <trkpt lat="41.4045769" lon="2.0787131">
        <ele>334.12014771</ele>
        <time>2022-10-30T10:06:53Z</time>
      </trkpt>
      <trkpt lat="41.404548" lon="2.0786762">
        <ele>334.18014526</ele>
        <time>2022-10-30T10:06:54Z</time>
      </trkpt>
      <trkpt lat="41.4045161" lon="2.0786573">
        <ele>334.24014282</ele>
        <time>2022-10-30T10:06:55Z</time>
      </trkpt>
      <trkpt lat="41.4044831" lon="2.0786294">
        <ele>334.26013184</ele>
        <time>2022-10-30T10:06:56Z</time>
      </trkpt>
      <trkpt lat="41.4044422" lon="2.0785964">
        <ele>334.32012939</ele>
        <time>2022-10-30T10:06:57Z</time>
      </trkpt>
      <trkpt lat="41.4044092" lon="2.0785695">
        <ele>334.36013794</ele>
        <time>2022-10-30T10:06:58Z</time>
      </trkpt>
      <trkpt lat="41.4043592" lon="2.0785405">
        <ele>334.47012329</ele>
        <time>2022-10-30T10:06:59Z</time>
      </trkpt>
      <trkpt lat="41.4043342" lon="2.0785175">
        <ele>334.63012695</ele>
        <time>2022-10-30T10:07:00Z</time>
      </trkpt>
      <trkpt lat="41.4043092" lon="2.0784945">
        <ele>334.84011841</ele>
        <time>2022-10-30T10:07:01Z</time>
      </trkpt>
      <trkpt lat="41.4042793" lon="2.0784745">
        <ele>335.11010742</ele>
        <time>2022-10-30T10:07:02Z</time>
      </trkpt>
      <trkpt lat="41.4042293" lon="2.0784446">
        <ele>335.37011719</ele>
        <time>2022-10-30T10:07:03Z</time>
      </trkpt>
      <trkpt lat="41.4042083" lon="2.0784357">
        <ele>335.59011841</ele>
        <time>2022-10-30T10:07:04Z</time>
      </trkpt>
      <trkpt lat="41.4041624" lon="2.0784386">
        <ele>335.76013184</ele>
        <time>2022-10-30T10:07:05Z</time>
      </trkpt>
      <trkpt lat="41.4041195" lon="2.0784465">
        <ele>335.84011841</ele>
        <time>2022-10-30T10:07:06Z</time>
      </trkpt>
      <trkpt lat="41.4040765" lon="2.0784625">
        <ele>335.90011597</ele>
        <time>2022-10-30T10:07:07Z</time>
      </trkpt>
      <trkpt lat="41.4040175" lon="2.0784705">
        <ele>335.90011597</ele>
        <time>2022-10-30T10:07:08Z</time>
      </trkpt>
      <trkpt lat="41.4039776" lon="2.0784714">
        <ele>335.90011597</ele>
        <time>2022-10-30T10:07:09Z</time>
      </trkpt>
      <trkpt lat="41.4039317" lon="2.0784724">
        <ele>335.93011475</ele>
        <time>2022-10-30T10:07:10Z</time>
      </trkpt>
      <trkpt lat="41.4038858" lon="2.0784624">
        <ele>335.88012695</ele>
        <time>2022-10-30T10:07:11Z</time>
      </trkpt>
      <trkpt lat="41.4038398" lon="2.0784355">
        <ele>335.85012817</ele>
        <time>2022-10-30T10:07:12Z</time>
      </trkpt>
      <trkpt lat="41.4038059" lon="2.0784145">
        <ele>335.84011841</ele>
        <time>2022-10-30T10:07:13Z</time>
      </trkpt>
      <trkpt lat="41.403768" lon="2.0784075">
        <ele>335.83010864</ele>
        <time>2022-10-30T10:07:14Z</time>
      </trkpt>
      <trkpt lat="41.403724" lon="2.0783966">
        <ele>335.87011719</ele>
        <time>2022-10-30T10:07:15Z</time>
      </trkpt>
      <trkpt lat="41.4036841" lon="2.0783687">
        <ele>335.91012573</ele>
        <time>2022-10-30T10:07:16Z</time>
      </trkpt>
      <trkpt lat="41.4036681" lon="2.0783357">
        <ele>335.95013428</ele>
        <time>2022-10-30T10:07:17Z</time>
      </trkpt>
      <trkpt lat="41.4036461" lon="2.0783287">
        <ele>335.97012329</ele>
        <time>2022-10-30T10:07:18Z</time>
      </trkpt>
      <trkpt lat="41.4036082" lon="2.0783238">
        <ele>335.9201355</ele>
        <time>2022-10-30T10:07:19Z</time>
      </trkpt>
      <trkpt lat="41.4035562" lon="2.0783347">
        <ele>335.89013672</ele>
        <time>2022-10-30T10:07:20Z</time>
      </trkpt>
      <trkpt lat="41.4034862" lon="2.0783377">
        <ele>335.84014893</ele>
        <time>2022-10-30T10:07:21Z</time>
      </trkpt>
      <trkpt lat="41.4034133" lon="2.0783247">
        <ele>335.76016235</ele>
        <time>2022-10-30T10:07:22Z</time>
      </trkpt>
      <trkpt lat="41.4033833" lon="2.0782947">
        <ele>335.72015381</ele>
        <time>2022-10-30T10:07:23Z</time>
      </trkpt>
      <trkpt lat="41.4033503" lon="2.0782648">
        <ele>335.65014648</ele>
        <time>2022-10-30T10:07:24Z</time>
      </trkpt>
      <trkpt lat="41.4033223" lon="2.0782348">
        <ele>335.57015991</ele>
        <time>2022-10-30T10:07:25Z</time>
      </trkpt>
      <trkpt lat="41.4032854" lon="2.0781828">
        <ele>335.52017212</ele>
        <time>2022-10-30T10:07:26Z</time>
      </trkpt>
      <trkpt lat="41.4032595" lon="2.0781449">
        <ele>335.46017456</ele>
        <time>2022-10-30T10:07:27Z</time>
      </trkpt>
      <trkpt lat="41.4032415" lon="2.0781159">
        <ele>335.36016846</ele>
        <time>2022-10-30T10:07:28Z</time>
      </trkpt>
      <trkpt lat="41.4032326" lon="2.078075">
        <ele>335.22015381</ele>
        <time>2022-10-30T10:07:29Z</time>
      </trkpt>
      <trkpt lat="41.4032306" lon="2.0780191">
        <ele>335.0201416</ele>
        <time>2022-10-30T10:07:30Z</time>
      </trkpt>
      <trkpt lat="41.4032386" lon="2.0779652">
        <ele>334.84014893</ele>
        <time>2022-10-30T10:07:31Z</time>
      </trkpt>
      <trkpt lat="41.4032496" lon="2.0779322">
        <ele>334.6701355</ele>
        <time>2022-10-30T10:07:32Z</time>
      </trkpt>
      <trkpt lat="41.4032427" lon="2.0778823">
        <ele>334.55014038</ele>
        <time>2022-10-30T10:07:33Z</time>
      </trkpt>
      <trkpt lat="41.4032537" lon="2.0778264">
        <ele>334.5201416</ele>
        <time>2022-10-30T10:07:34Z</time>
      </trkpt>
      <trkpt lat="41.4032846" lon="2.0777714">
        <ele>334.46014404</ele>
        <time>2022-10-30T10:07:35Z</time>
      </trkpt>
      <trkpt lat="41.4032855" lon="2.0777275">
        <ele>334.40014648</ele>
        <time>2022-10-30T10:07:36Z</time>
      </trkpt>
      <trkpt lat="41.4032846" lon="2.0776885">
        <ele>334.23013306</ele>
        <time>2022-10-30T10:07:37Z</time>
      </trkpt>
      <trkpt lat="41.4032776" lon="2.0776495">
        <ele>333.95013428</ele>
        <time>2022-10-30T10:07:38Z</time>
      </trkpt>
      <trkpt lat="41.4032796" lon="2.0775706">
        <ele>333.66012573</ele>
        <time>2022-10-30T10:07:39Z</time>
      </trkpt>
      <trkpt lat="41.4032656" lon="2.0775096">
        <ele>333.35012817</ele>
        <time>2022-10-30T10:07:40Z</time>
      </trkpt>
      <trkpt lat="41.4032627" lon="2.0774597">
        <ele>333.04013062</ele>
        <time>2022-10-30T10:07:41Z</time>
      </trkpt>
      <trkpt lat="41.4032716" lon="2.0774048">
        <ele>332.63012695</ele>
        <time>2022-10-30T10:07:42Z</time>
      </trkpt>
      <trkpt lat="41.4032835" lon="2.0773228">
        <ele>332.11013794</ele>
        <time>2022-10-30T10:07:43Z</time>
      </trkpt>
      <trkpt lat="41.4032776" lon="2.0772718">
        <ele>331.45013428</ele>
        <time>2022-10-30T10:07:44Z</time>
      </trkpt>
      <trkpt lat="41.4032805" lon="2.0772189">
        <ele>330.76013184</ele>
        <time>2022-10-30T10:07:45Z</time>
      </trkpt>
      <trkpt lat="41.4032746" lon="2.077166">
        <ele>330.25012207</ele>
        <time>2022-10-30T10:07:46Z</time>
      </trkpt>
      <trkpt lat="41.4032717" lon="2.07713">
        <ele>329.79013062</ele>
        <time>2022-10-30T10:07:47Z</time>
      </trkpt>
      <trkpt lat="41.4032697" lon="2.077081">
        <ele>329.39013672</ele>
        <time>2022-10-30T10:07:48Z</time>
      </trkpt>
      <trkpt lat="41.4032987" lon="2.0770171">
        <ele>328.95013428</ele>
        <time>2022-10-30T10:07:49Z</time>
      </trkpt>
      <trkpt lat="41.4033186" lon="2.0769621">
        <ele>328.54013062</ele>
        <time>2022-10-30T10:07:50Z</time>
      </trkpt>
      <trkpt lat="41.4033385" lon="2.0769001">
        <ele>327.96014404</ele>
        <time>2022-10-30T10:07:51Z</time>
      </trkpt>
      <trkpt lat="41.4033495" lon="2.0768402">
        <ele>327.46014404</ele>
        <time>2022-10-30T10:07:52Z</time>
      </trkpt>
      <trkpt lat="41.4033395" lon="2.0767403">
        <ele>326.95013428</ele>
        <time>2022-10-30T10:07:53Z</time>
      </trkpt>
      <trkpt lat="41.4033345" lon="2.0766733">
        <ele>326.34014893</ele>
        <time>2022-10-30T10:07:54Z</time>
      </trkpt>
      <trkpt lat="41.4033355" lon="2.0766153">
        <ele>325.94015503</ele>
        <time>2022-10-30T10:07:55Z</time>
      </trkpt>
      <trkpt lat="41.4033355" lon="2.0765573">
        <ele>325.46014404</ele>
        <time>2022-10-30T10:07:56Z</time>
      </trkpt>
      <trkpt lat="41.4033355" lon="2.0765074">
        <ele>325.11013794</ele>
        <time>2022-10-30T10:07:57Z</time>
      </trkpt>
      <trkpt lat="41.4033305" lon="2.0764575">
        <ele>324.82012939</ele>
        <time>2022-10-30T10:07:58Z</time>
      </trkpt>
      <trkpt lat="41.4033305" lon="2.0764065">
        <ele>324.55014038</ele>
        <time>2022-10-30T10:07:59Z</time>
      </trkpt>
      <trkpt lat="41.4033364" lon="2.0763675">
        <ele>324.4201355</ele>
        <time>2022-10-30T10:08:00Z</time>
      </trkpt>
      <trkpt lat="41.4033374" lon="2.0763336">
        <ele>324.32012939</ele>
        <time>2022-10-30T10:08:01Z</time>
      </trkpt>
      <trkpt lat="41.4033503" lon="2.0762916">
        <ele>324.21014404</ele>
        <time>2022-10-30T10:08:02Z</time>
      </trkpt>
      <trkpt lat="41.4033532" lon="2.0762596">
        <ele>324.01013184</ele>
        <time>2022-10-30T10:08:03Z</time>
      </trkpt>
      <trkpt lat="41.4033542" lon="2.0762197">
        <ele>323.80014038</ele>
        <time>2022-10-30T10:08:04Z</time>
      </trkpt>
      <trkpt lat="41.4033571" lon="2.0761837">
        <ele>323.56015015</ele>
        <time>2022-10-30T10:08:05Z</time>
      </trkpt>
      <trkpt lat="41.40336" lon="2.0761517">
        <ele>323.23016357</ele>
        <time>2022-10-30T10:08:06Z</time>
      </trkpt>
      <trkpt lat="41.4033639" lon="2.0761118">
        <ele>322.96017456</ele>
        <time>2022-10-30T10:08:07Z</time>
      </trkpt>
      <trkpt lat="41.4033639" lon="2.0760908">
        <ele>322.650177</ele>
        <time>2022-10-30T10:08:08Z</time>
      </trkpt>
      <trkpt lat="41.4033639" lon="2.0760719">
        <ele>322.41018677</ele>
        <time>2022-10-30T10:08:09Z</time>
      </trkpt>
      <trkpt lat="41.4033589" lon="2.076053">
        <ele>322.3302002</ele>
        <time>2022-10-30T10:08:10Z</time>
      </trkpt>
      <trkpt lat="41.40335" lon="2.0760391">
        <ele>322.34020996</ele>
        <time>2022-10-30T10:08:11Z</time>
      </trkpt>
      <trkpt lat="41.4033471" lon="2.0760321">
        <ele>322.42019653</ele>
        <time>2022-10-30T10:08:12Z</time>
      </trkpt>
      <trkpt lat="41.4033462" lon="2.0760191">
        <ele>322.53018188</ele>
        <time>2022-10-30T10:08:13Z</time>
      </trkpt>
      <trkpt lat="41.4033392" lon="2.0760042">
        <ele>322.650177</ele>
        <time>2022-10-30T10:08:14Z</time>
      </trkpt>
      <trkpt lat="41.4033243" lon="2.0760022">
        <ele>322.74017334</ele>
        <time>2022-10-30T10:08:15Z</time>
      </trkpt>
      <trkpt lat="41.4033094" lon="2.0759983">
        <ele>322.8001709</ele>
        <time>2022-10-30T10:08:16Z</time>
      </trkpt>
      <trkpt lat="41.4032964" lon="2.0759853">
        <ele>322.83016968</ele>
        <time>2022-10-30T10:08:17Z</time>
      </trkpt>
      <trkpt lat="41.4032964" lon="2.0759613">
        <ele>322.88015747</ele>
        <time>2022-10-30T10:08:18Z</time>
      </trkpt>
      <trkpt lat="41.4032894" lon="2.0759404">
        <ele>322.91015625</ele>
        <time>2022-10-30T10:08:19Z</time>
      </trkpt>
      <trkpt lat="41.4032754" lon="2.0759285">
        <ele>322.97015381</ele>
        <time>2022-10-30T10:08:20Z</time>
      </trkpt>
      <trkpt lat="41.4032685" lon="2.0759265">
        <ele>323.00015259</ele>
        <time>2022-10-30T10:08:21Z</time>
      </trkpt>
      <trkpt lat="41.403264" lon="2.075919">
        <ele>322.91000366</ele>
        <time>2022-10-30T10:08:21Z</time>
      </trkpt>
      <trkpt lat="41.4032521" lon="2.0757741">
        <ele>323.47000122</ele>
        <time>2022-10-30T10:08:32Z</time>
      </trkpt>
      <trkpt lat="41.4032432" lon="2.0757611">
        <ele>323.36001587</ele>
        <time>2022-10-30T10:08:33Z</time>
      </trkpt>
      <trkpt lat="41.4032461" lon="2.0757312">
        <ele>323.20001221</ele>
        <time>2022-10-30T10:08:34Z</time>
      </trkpt>
      <trkpt lat="41.4032441" lon="2.0757102">
        <ele>323.05999756</ele>
        <time>2022-10-30T10:08:35Z</time>
      </trkpt>
      <trkpt lat="41.4032441" lon="2.0756893">
        <ele>322.95001221</ele>
        <time>2022-10-30T10:08:36Z</time>
      </trkpt>
      <trkpt lat="41.4032432" lon="2.0756774">
        <ele>323.02001953</ele>
        <time>2022-10-30T10:08:37Z</time>
      </trkpt>
      <trkpt lat="41.4032412" lon="2.0756504">
        <ele>323.15002441</ele>
        <time>2022-10-30T10:08:38Z</time>
      </trkpt>
      <trkpt lat="41.4032402" lon="2.0756325">
        <ele>323.34002686</ele>
        <time>2022-10-30T10:08:39Z</time>
      </trkpt>
      <trkpt lat="41.4032343" lon="2.0756185">
        <ele>323.61001587</ele>
        <time>2022-10-30T10:08:40Z</time>
      </trkpt>
      <trkpt lat="41.4032304" lon="2.0756076">
        <ele>323.83001709</ele>
        <time>2022-10-30T10:08:41Z</time>
      </trkpt>
      <trkpt lat="41.4032295" lon="2.0756046">
        <ele>324.05001831</ele>
        <time>2022-10-30T10:08:42Z</time>
      </trkpt>
      <trkpt lat="41.4032394" lon="2.0756066">
        <ele>324.24002075</ele>
        <time>2022-10-30T10:08:43Z</time>
      </trkpt>
      <trkpt lat="41.403194" lon="2.075563">
        <ele>324.5</ele>
        <time>2022-10-30T10:09:05Z</time>
      </trkpt>
      <trkpt lat="41.403186" lon="2.0755581">
        <ele>324.45001221</ele>
        <time>2022-10-30T10:09:06Z</time>
      </trkpt>
      <trkpt lat="41.4031761" lon="2.0755691">
        <ele>324.33001709</ele>
        <time>2022-10-30T10:09:07Z</time>
      </trkpt>
      <trkpt lat="41.4031611" lon="2.075582">
        <ele>324.0300293</ele>
        <time>2022-10-30T10:09:08Z</time>
      </trkpt>
      <trkpt lat="41.4031422" lon="2.075588">
        <ele>323.57003784</ele>
        <time>2022-10-30T10:09:09Z</time>
      </trkpt>
      <trkpt lat="41.4031083" lon="2.075578">
        <ele>322.95004272</ele>
        <time>2022-10-30T10:09:10Z</time>
      </trkpt>
      <trkpt lat="41.4030823" lon="2.0755839">
        <ele>322.24005127</ele>
        <time>2022-10-30T10:09:11Z</time>
      </trkpt>
      <trkpt lat="41.4030524" lon="2.0755939">
        <ele>321.4100647</ele>
        <time>2022-10-30T10:09:12Z</time>
      </trkpt>
      <trkpt lat="41.4030215" lon="2.0756038">
        <ele>320.6100769</ele>
        <time>2022-10-30T10:09:13Z</time>
      </trkpt>
      <trkpt lat="41.4029765" lon="2.0756038">
        <ele>319.73007202</ele>
        <time>2022-10-30T10:09:14Z</time>
      </trkpt>
      <trkpt lat="41.4029485" lon="2.0755999">
        <ele>318.75006104</ele>
        <time>2022-10-30T10:09:15Z</time>
      </trkpt>
      <trkpt lat="41.4029235" lon="2.0756108">
        <ele>317.98007202</ele>
        <time>2022-10-30T10:09:16Z</time>
      </trkpt>
      <trkpt lat="41.4028976" lon="2.0756118">
        <ele>317.14007568</ele>
        <time>2022-10-30T10:09:17Z</time>
      </trkpt>
      <trkpt lat="41.4028736" lon="2.0756137">
        <ele>316.1600647</ele>
        <time>2022-10-30T10:09:18Z</time>
      </trkpt>
      <trkpt lat="41.4028376" lon="2.0756157">
        <ele>315.31005859</ele>
        <time>2022-10-30T10:09:19Z</time>
      </trkpt>
      <trkpt lat="41.4028236" lon="2.0756157">
        <ele>314.40005493</ele>
        <time>2022-10-30T10:09:20Z</time>
      </trkpt>
      <trkpt lat="41.4028096" lon="2.0756137">
        <ele>313.4800415</ele>
        <time>2022-10-30T10:09:21Z</time>
      </trkpt>
      <trkpt lat="41.4028016" lon="2.0756068">
        <ele>312.68005371</ele>
        <time>2022-10-30T10:09:22Z</time>
      </trkpt>
      <trkpt lat="41.4027997" lon="2.0755988">
        <ele>311.79003906</ele>
        <time>2022-10-30T10:09:23Z</time>
      </trkpt>
      <trkpt lat="41.402659" lon="2.07557">
        <ele>305.20999146</ele>
        <time>2022-10-30T10:09:40Z</time>
      </trkpt>
      <trkpt lat="41.402623" lon="2.075566">
        <ele>304.69000244</ele>
        <time>2022-10-30T10:09:41Z</time>
      </trkpt>
      <trkpt lat="41.402609" lon="2.0755541">
        <ele>304.08001709</ele>
        <time>2022-10-30T10:09:42Z</time>
      </trkpt>
      <trkpt lat="41.4025911" lon="2.0755422">
        <ele>303.49002075</ele>
        <time>2022-10-30T10:09:43Z</time>
      </trkpt>
      <trkpt lat="41.4025751" lon="2.0755393">
        <ele>302.90002441</ele>
        <time>2022-10-30T10:09:44Z</time>
      </trkpt>
      <trkpt lat="41.4025531" lon="2.0755572">
        <ele>302.47003174</ele>
        <time>2022-10-30T10:09:45Z</time>
      </trkpt>
      <trkpt lat="41.4025312" lon="2.0755712">
        <ele>302.0300293</ele>
        <time>2022-10-30T10:09:46Z</time>
      </trkpt>
      <trkpt lat="41.4025172" lon="2.0755861">
        <ele>301.54003906</ele>
        <time>2022-10-30T10:09:47Z</time>
      </trkpt>
      <trkpt lat="41.402309" lon="2.0758779">
        <ele>286.71002197</ele>
        <time>2022-10-30T10:11:11Z</time>
      </trkpt>
      <trkpt lat="41.402302" lon="2.0759039">
        <ele>286.25003052</ele>
        <time>2022-10-30T10:11:12Z</time>
      </trkpt>
      <trkpt lat="41.4022921" lon="2.0759329">
        <ele>285.47003174</ele>
        <time>2022-10-30T10:11:13Z</time>
      </trkpt>
      <trkpt lat="41.4022871" lon="2.0759589">
        <ele>284.61004639</ele>
        <time>2022-10-30T10:11:14Z</time>
      </trkpt>
      <trkpt lat="41.4022861" lon="2.0759918">
        <ele>283.55004883</ele>
        <time>2022-10-30T10:11:15Z</time>
      </trkpt>
      <trkpt lat="41.4022881" lon="2.0760568">
        <ele>282.35003662</ele>
        <time>2022-10-30T10:11:16Z</time>
      </trkpt>
      <trkpt lat="41.4022891" lon="2.0761057">
        <ele>281.31002808</ele>
        <time>2022-10-30T10:11:17Z</time>
      </trkpt>
      <trkpt lat="41.4022741" lon="2.0761437">
        <ele>280.15002441</ele>
        <time>2022-10-30T10:11:18Z</time>
      </trkpt>
      <trkpt lat="41.4022582" lon="2.0761766">
        <ele>279.27001953</ele>
        <time>2022-10-30T10:11:19Z</time>
      </trkpt>
      <trkpt lat="41.4022362" lon="2.0762186">
        <ele>278.67001343</ele>
        <time>2022-10-30T10:11:20Z</time>
      </trkpt>
      <trkpt lat="41.4022182" lon="2.0762555">
        <ele>277.99002075</ele>
        <time>2022-10-30T10:11:21Z</time>
      </trkpt>
      <trkpt lat="41.4021913" lon="2.0762804">
        <ele>277.45001221</ele>
        <time>2022-10-30T10:11:22Z</time>
      </trkpt>
      <trkpt lat="41.4021613" lon="2.0762974">
        <ele>276.68002319</ele>
        <time>2022-10-30T10:11:23Z</time>
      </trkpt>
      <trkpt lat="41.4021313" lon="2.0762993">
        <ele>275.73001099</ele>
        <time>2022-10-30T10:11:24Z</time>
      </trkpt>
      <trkpt lat="41.4021184" lon="2.0762993">
        <ele>274.87002563</ele>
        <time>2022-10-30T10:11:25Z</time>
      </trkpt>
      <trkpt lat="41.4020955" lon="2.0763073">
        <ele>273.80001831</ele>
        <time>2022-10-30T10:11:26Z</time>
      </trkpt>
      <trkpt lat="41.402071" lon="2.076344">
        <ele>270.6000061</ele>
        <time>2022-10-30T10:11:29Z</time>
      </trkpt>
      <trkpt lat="41.402058" lon="2.07636">
        <ele>269.77999878</ele>
        <time>2022-10-30T10:11:30Z</time>
      </trkpt>
      <trkpt lat="41.4020391" lon="2.0763869">
        <ele>269.22000122</ele>
        <time>2022-10-30T10:11:31Z</time>
      </trkpt>
      <trkpt lat="41.4020211" lon="2.0764048">
        <ele>268.70001221</ele>
        <time>2022-10-30T10:11:32Z</time>
      </trkpt>
      <trkpt lat="41.4020062" lon="2.0764248">
        <ele>268.30999756</ele>
        <time>2022-10-30T10:11:33Z</time>
      </trkpt>
      <trkpt lat="41.4019922" lon="2.0764448">
        <ele>267.98001099</ele>
        <time>2022-10-30T10:11:34Z</time>
      </trkpt>
      <trkpt lat="41.4019942" lon="2.0764537">
        <ele>267.76000977</ele>
        <time>2022-10-30T10:11:35Z</time>
      </trkpt>
      <trkpt lat="41.401975" lon="2.076471">
        <ele>267.32000732</ele>
        <time>2022-10-30T10:11:41Z</time>
      </trkpt>
      <trkpt lat="41.401968" lon="2.0764779">
        <ele>267.23001099</ele>
        <time>2022-10-30T10:11:42Z</time>
      </trkpt>
      <trkpt lat="41.4019581" lon="2.0764849">
        <ele>267.05999756</ele>
        <time>2022-10-30T10:11:43Z</time>
      </trkpt>
      <trkpt lat="41.4019522" lon="2.0764908">
        <ele>267.01998901</ele>
        <time>2022-10-30T10:11:44Z</time>
      </trkpt>
      <trkpt lat="41.4019463" lon="2.0764918">
        <ele>266.98999023</ele>
        <time>2022-10-30T10:11:45Z</time>
      </trkpt>
      <trkpt lat="41.4019353" lon="2.0764947">
        <ele>266.76998901</ele>
        <time>2022-10-30T10:11:46Z</time>
      </trkpt>
      <trkpt lat="41.4019033" lon="2.0764768">
        <ele>266.5</ele>
        <time>2022-10-30T10:11:47Z</time>
      </trkpt>
      <trkpt lat="41.4018724" lon="2.0764709">
        <ele>265.92999268</ele>
        <time>2022-10-30T10:11:48Z</time>
      </trkpt>
      <trkpt lat="41.4018415" lon="2.0764748">
        <ele>265.19000244</ele>
        <time>2022-10-30T10:11:49Z</time>
      </trkpt>
      <trkpt lat="41.4018156" lon="2.0764937">
        <ele>264.58999634</ele>
        <time>2022-10-30T10:11:50Z</time>
      </trkpt>
      <trkpt lat="41.4017936" lon="2.0765087">
        <ele>263.97000122</ele>
        <time>2022-10-30T10:11:51Z</time>
      </trkpt>
      <trkpt lat="41.4017567" lon="2.0765407">
        <ele>263.45001221</ele>
        <time>2022-10-30T10:11:52Z</time>
      </trkpt>
      <trkpt lat="41.4017287" lon="2.0765686">
        <ele>263.16000366</ele>
        <time>2022-10-30T10:11:53Z</time>
      </trkpt>
      <trkpt lat="41.4016978" lon="2.0766036">
        <ele>262.83001709</ele>
        <time>2022-10-30T10:11:54Z</time>
      </trkpt>
      <trkpt lat="41.4016719" lon="2.0766326">
        <ele>262.59002686</ele>
        <time>2022-10-30T10:11:55Z</time>
      </trkpt>
      <trkpt lat="41.401624" lon="2.0766585">
        <ele>262.30001831</ele>
        <time>2022-10-30T10:11:56Z</time>
      </trkpt>
      <trkpt lat="41.401596" lon="2.0766885">
        <ele>261.92001343</ele>
        <time>2022-10-30T10:11:57Z</time>
      </trkpt>
      <trkpt lat="41.401575" lon="2.0767145">
        <ele>261.40002441</ele>
        <time>2022-10-30T10:11:58Z</time>
      </trkpt>
      <trkpt lat="41.4015561" lon="2.0767424">
        <ele>260.74002075</ele>
        <time>2022-10-30T10:11:59Z</time>
      </trkpt>
      <trkpt lat="41.4015321" lon="2.0767744">
        <ele>260.06002808</ele>
        <time>2022-10-30T10:12:00Z</time>
      </trkpt>
      <trkpt lat="41.4015131" lon="2.0767974">
        <ele>259.37002563</ele>
        <time>2022-10-30T10:12:01Z</time>
      </trkpt>
      <trkpt lat="41.4014832" lon="2.0768273">
        <ele>258.72003174</ele>
        <time>2022-10-30T10:12:02Z</time>
      </trkpt>
      <trkpt lat="41.4014502" lon="2.0768603">
        <ele>257.8800354</ele>
        <time>2022-10-30T10:12:03Z</time>
      </trkpt>
      <trkpt lat="41.4014133" lon="2.0768803">
        <ele>257.01004028</ele>
        <time>2022-10-30T10:12:04Z</time>
      </trkpt>
      <trkpt lat="41.4013473" lon="2.0769312">
        <ele>255.96003723</ele>
        <time>2022-10-30T10:12:05Z</time>
      </trkpt>
      <trkpt lat="41.4012974" lon="2.0769632">
        <ele>254.72003174</ele>
        <time>2022-10-30T10:12:06Z</time>
      </trkpt>
      <trkpt lat="41.4012435" lon="2.0769772">
        <ele>253.71003723</ele>
        <time>2022-10-30T10:12:07Z</time>
      </trkpt>
      <trkpt lat="41.4011965" lon="2.0769912">
        <ele>252.62004089</ele>
        <time>2022-10-30T10:12:08Z</time>
      </trkpt>
      <trkpt lat="41.4011596" lon="2.0769912">
        <ele>251.67004395</ele>
        <time>2022-10-30T10:12:09Z</time>
      </trkpt>
      <trkpt lat="41.4011096" lon="2.0770121">
        <ele>250.93003845</ele>
        <time>2022-10-30T10:12:10Z</time>
      </trkpt>
      <trkpt lat="41.4010906" lon="2.0770261">
        <ele>250.15003967</ele>
        <time>2022-10-30T10:12:11Z</time>
      </trkpt>
      <trkpt lat="41.4010837" lon="2.077043">
        <ele>249.56004333</ele>
        <time>2022-10-30T10:12:12Z</time>
      </trkpt>
      <trkpt lat="41.4010797" lon="2.07706">
        <ele>249.10003662</ele>
        <time>2022-10-30T10:12:13Z</time>
      </trkpt>
      <trkpt lat="41.40106" lon="2.077066">
        <ele>248.25999451</ele>
        <time>2022-10-30T10:12:17Z</time>
      </trkpt>
      <trkpt lat="41.4010639" lon="2.077066">
        <ele>248.11000061</ele>
        <time>2022-10-30T10:12:18Z</time>
      </trkpt>
      <trkpt lat="41.401055" lon="2.077081">
        <ele>247.97000122</ele>
        <time>2022-10-30T10:12:19Z</time>
      </trkpt>
      <trkpt lat="41.4010451" lon="2.0770929">
        <ele>247.91000366</ele>
        <time>2022-10-30T10:12:20Z</time>
      </trkpt>
      <trkpt lat="41.400953" lon="2.0771579">
        <ele>247.8500061</ele>
        <time>2022-10-30T10:13:25Z</time>
      </trkpt>
      <trkpt lat="41.400938" lon="2.0771699">
        <ele>248.45001221</ele>
        <time>2022-10-30T10:13:26Z</time>
      </trkpt>
      <trkpt lat="41.4009271" lon="2.0771788">
        <ele>248.33001709</ele>
        <time>2022-10-30T10:13:27Z</time>
      </trkpt>
      <trkpt lat="41.400928" lon="2.0771858">
        <ele>248.27001953</ele>
        <time>2022-10-30T10:13:28Z</time>
      </trkpt>
      <trkpt lat="41.4009339" lon="2.0771917">
        <ele>248.20001221</ele>
        <time>2022-10-30T10:13:29Z</time>
      </trkpt>
      <trkpt lat="41.4009479" lon="2.0772026">
        <ele>248.21000671</ele>
        <time>2022-10-30T10:13:30Z</time>
      </trkpt>
      <trkpt lat="41.4009579" lon="2.0772126">
        <ele>248.31001282</ele>
        <time>2022-10-30T10:13:31Z</time>
      </trkpt>
      <trkpt lat="41.4009668" lon="2.0772296">
        <ele>248.33001709</ele>
        <time>2022-10-30T10:13:32Z</time>
      </trkpt>
      <trkpt lat="41.4009677" lon="2.0772565">
        <ele>248.22001648</ele>
        <time>2022-10-30T10:13:33Z</time>
      </trkpt>
      <trkpt lat="41.4009578" lon="2.0772865">
        <ele>247.92001343</ele>
        <time>2022-10-30T10:13:34Z</time>
      </trkpt>
      <trkpt lat="41.4009607" lon="2.0773475">
        <ele>247.52001953</ele>
        <time>2022-10-30T10:13:35Z</time>
      </trkpt>
      <trkpt lat="41.4009696" lon="2.0773994">
        <ele>247.07002258</ele>
        <time>2022-10-30T10:13:36Z</time>
      </trkpt>
      <trkpt lat="41.4009746" lon="2.0774604">
        <ele>246.42002869</ele>
        <time>2022-10-30T10:13:37Z</time>
      </trkpt>
      <trkpt lat="41.4009845" lon="2.0775214">
        <ele>245.74003601</ele>
        <time>2022-10-30T10:13:38Z</time>
      </trkpt>
      <trkpt lat="41.4010104" lon="2.0775854">
        <ele>244.97003174</ele>
        <time>2022-10-30T10:13:39Z</time>
      </trkpt>
      <trkpt lat="41.4010524" lon="2.0776874">
        <ele>244.23002625</ele>
        <time>2022-10-30T10:13:40Z</time>
      </trkpt>
      <trkpt lat="41.4010734" lon="2.0777563">
        <ele>243.64002991</ele>
        <time>2022-10-30T10:13:41Z</time>
      </trkpt>
      <trkpt lat="41.4010984" lon="2.0778303">
        <ele>243.02003479</ele>
        <time>2022-10-30T10:13:42Z</time>
      </trkpt>
      <trkpt lat="41.4011293" lon="2.0779032">
        <ele>242.3800354</ele>
        <time>2022-10-30T10:13:43Z</time>
      </trkpt>
      <trkpt lat="41.4011582" lon="2.0780131">
        <ele>241.81002808</ele>
        <time>2022-10-30T10:13:44Z</time>
      </trkpt>
      <trkpt lat="41.4011742" lon="2.0780831">
        <ele>241.22003174</ele>
        <time>2022-10-30T10:13:45Z</time>
      </trkpt>
      <trkpt lat="41.4011742" lon="2.0781541">
        <ele>240.80003357</ele>
        <time>2022-10-30T10:13:46Z</time>
      </trkpt>
      <trkpt lat="41.4011552" lon="2.078236">
        <ele>240.45002747</ele>
        <time>2022-10-30T10:13:47Z</time>
      </trkpt>
      <trkpt lat="41.4011433" lon="2.0783179">
        <ele>239.92002869</ele>
        <time>2022-10-30T10:13:48Z</time>
      </trkpt>
      <trkpt lat="41.4011173" lon="2.0784269">
        <ele>239.51002502</ele>
        <time>2022-10-30T10:13:49Z</time>
      </trkpt>
      <trkpt lat="41.4010834" lon="2.0784948">
        <ele>238.89002991</ele>
        <time>2022-10-30T10:13:50Z</time>
      </trkpt>
      <trkpt lat="41.4010445" lon="2.0785417">
        <ele>238.26002502</ele>
        <time>2022-10-30T10:13:51Z</time>
      </trkpt>
      <trkpt lat="41.4010045" lon="2.0786087">
        <ele>237.59002686</ele>
        <time>2022-10-30T10:13:52Z</time>
      </trkpt>
      <trkpt lat="41.4009546" lon="2.0786857">
        <ele>236.86003113</ele>
        <time>2022-10-30T10:13:53Z</time>
      </trkpt>
      <trkpt lat="41.4009226" lon="2.0787296">
        <ele>236.23002625</ele>
        <time>2022-10-30T10:13:54Z</time>
      </trkpt>
      <trkpt lat="41.4009097" lon="2.0787596">
        <ele>235.63002014</ele>
        <time>2022-10-30T10:13:55Z</time>
      </trkpt>
      <trkpt lat="41.4009077" lon="2.0787765">
        <ele>234.92001343</ele>
        <time>2022-10-30T10:13:56Z</time>
      </trkpt>
      <trkpt lat="41.4008848" lon="2.0787895">
        <ele>234.1900177</ele>
        <time>2022-10-30T10:13:57Z</time>
      </trkpt>
      <trkpt lat="41.4008708" lon="2.0787975">
        <ele>233.49002075</ele>
        <time>2022-10-30T10:13:58Z</time>
      </trkpt>
      <trkpt lat="41.4008558" lon="2.0788105">
        <ele>232.72001648</ele>
        <time>2022-10-30T10:13:59Z</time>
      </trkpt>
      <trkpt lat="41.4008349" lon="2.0788314">
        <ele>232.13002014</ele>
        <time>2022-10-30T10:14:00Z</time>
      </trkpt>
      <trkpt lat="41.4008189" lon="2.0788653">
        <ele>231.55001831</ele>
        <time>2022-10-30T10:14:01Z</time>
      </trkpt>
      <trkpt lat="41.400804" lon="2.0789083">
        <ele>230.89001465</ele>
        <time>2022-10-30T10:14:02Z</time>
      </trkpt>
      <trkpt lat="41.400783" lon="2.0789313">
        <ele>230.10002136</ele>
        <time>2022-10-30T10:14:03Z</time>
      </trkpt>
      <trkpt lat="41.4007591" lon="2.0789502">
        <ele>229.32002258</ele>
        <time>2022-10-30T10:14:04Z</time>
      </trkpt>
      <trkpt lat="41.4007371" lon="2.0789641">
        <ele>228.5300293</ele>
        <time>2022-10-30T10:14:05Z</time>
      </trkpt>
      <trkpt lat="41.4007172" lon="2.0789681">
        <ele>227.75003052</ele>
        <time>2022-10-30T10:14:06Z</time>
      </trkpt>
      <trkpt lat="41.4006963" lon="2.0789412">
        <ele>227.27003479</ele>
        <time>2022-10-30T10:14:07Z</time>
      </trkpt>
      <trkpt lat="41.4006783" lon="2.0789162">
        <ele>226.66003418</ele>
        <time>2022-10-30T10:14:08Z</time>
      </trkpt>
      <trkpt lat="41.4006604" lon="2.0788973">
        <ele>226.10003662</ele>
        <time>2022-10-30T10:14:09Z</time>
      </trkpt>
      <trkpt lat="41.4006405" lon="2.0788884">
        <ele>225.51004028</ele>
        <time>2022-10-30T10:14:10Z</time>
      </trkpt>
      <trkpt lat="41.4006075" lon="2.0788835">
        <ele>224.7300415</ele>
        <time>2022-10-30T10:14:11Z</time>
      </trkpt>
      <trkpt lat="41.4005885" lon="2.0788705">
        <ele>224.02003479</ele>
        <time>2022-10-30T10:14:12Z</time>
      </trkpt>
      <trkpt lat="41.4005725" lon="2.0788635">
        <ele>223.35003662</ele>
        <time>2022-10-30T10:14:13Z</time>
      </trkpt>
      <trkpt lat="41.4005536" lon="2.0788635">
        <ele>222.7300415</ele>
        <time>2022-10-30T10:14:14Z</time>
      </trkpt>
      <trkpt lat="41.4005367" lon="2.0788664">
        <ele>222.2300415</ele>
        <time>2022-10-30T10:14:15Z</time>
      </trkpt>
      <trkpt lat="41.4005267" lon="2.0788804">
        <ele>221.720047</ele>
        <time>2022-10-30T10:14:16Z</time>
      </trkpt>
      <trkpt lat="41.4005198" lon="2.0788923">
        <ele>220.970047</ele>
        <time>2022-10-30T10:14:17Z</time>
      </trkpt>
      <trkpt lat="41.4005188" lon="2.0789032">
        <ele>220.25004578</ele>
        <time>2022-10-30T10:14:18Z</time>
      </trkpt>
      <trkpt lat="41.4005089" lon="2.0789302">
        <ele>219.45004272</ele>
        <time>2022-10-30T10:14:19Z</time>
      </trkpt>
      <trkpt lat="41.4004929" lon="2.0789562">
        <ele>218.71003723</ele>
        <time>2022-10-30T10:14:20Z</time>
      </trkpt>
      <trkpt lat="41.400481" lon="2.0789692">
        <ele>218.14002991</ele>
        <time>2022-10-30T10:14:21Z</time>
      </trkpt>
      <trkpt lat="41.400466" lon="2.0789931">
        <ele>217.56002808</ele>
        <time>2022-10-30T10:14:22Z</time>
      </trkpt>
      <trkpt lat="41.400452" lon="2.079015">
        <ele>217.00003052</ele>
        <time>2022-10-30T10:14:23Z</time>
      </trkpt>
      <trkpt lat="41.4004271" lon="2.079044">
        <ele>216.17002869</ele>
        <time>2022-10-30T10:14:24Z</time>
      </trkpt>
      <trkpt lat="41.4004201" lon="2.0790629">
        <ele>215.33003235</ele>
        <time>2022-10-30T10:14:25Z</time>
      </trkpt>
      <trkpt lat="41.40032" lon="2.079324">
        <ele>211.47999573</ele>
        <time>2022-10-30T10:14:40Z</time>
      </trkpt>
      <trkpt lat="41.400295" lon="2.0793359">
        <ele>211.05000305</ele>
        <time>2022-10-30T10:14:41Z</time>
      </trkpt>
      <trkpt lat="41.4002691" lon="2.0793448">
        <ele>210.46000671</ele>
        <time>2022-10-30T10:14:42Z</time>
      </trkpt>
      <trkpt lat="41.4002352" lon="2.0793567">
        <ele>209.6000061</ele>
        <time>2022-10-30T10:14:43Z</time>
      </trkpt>
      <trkpt lat="41.4002142" lon="2.0793587">
        <ele>208.73001099</ele>
        <time>2022-10-30T10:14:44Z</time>
      </trkpt>
      <trkpt lat="41.4001973" lon="2.0793577">
        <ele>207.8400116</ele>
        <time>2022-10-30T10:14:45Z</time>
      </trkpt>
      <trkpt lat="41.400179" lon="2.079399">
        <ele>205.66000366</ele>
        <time>2022-10-30T10:14:49Z</time>
      </trkpt>
      <trkpt lat="41.4001819" lon="2.0794139">
        <ele>205.26000977</ele>
        <time>2022-10-30T10:14:50Z</time>
      </trkpt>
      <trkpt lat="41.4001869" lon="2.0794328">
        <ele>204.88000488</ele>
        <time>2022-10-30T10:14:51Z</time>
      </trkpt>
      <trkpt lat="41.400166" lon="2.079454">
        <ele>203.97000122</ele>
        <time>2022-10-30T10:14:54Z</time>
      </trkpt>
      <trkpt lat="41.400152" lon="2.0794579">
        <ele>203.72000122</ele>
        <time>2022-10-30T10:14:55Z</time>
      </trkpt>
      <trkpt lat="41.4001211" lon="2.0794679">
        <ele>203.38000488</ele>
        <time>2022-10-30T10:14:56Z</time>
      </trkpt>
      <trkpt lat="41.4001012" lon="2.0794759">
        <ele>202.91999817</ele>
        <time>2022-10-30T10:14:57Z</time>
      </trkpt>
      <trkpt lat="41.4000872" lon="2.07947">
        <ele>202.36999512</ele>
        <time>2022-10-30T10:14:58Z</time>
      </trkpt>
      <trkpt lat="41.4000703" lon="2.0794641">
        <ele>201.69000244</ele>
        <time>2022-10-30T10:14:59Z</time>
      </trkpt>
      <trkpt lat="41.4000593" lon="2.079469">
        <ele>201.04000854</ele>
        <time>2022-10-30T10:15:00Z</time>
      </trkpt>
      <trkpt lat="41.4000464" lon="2.0794769">
        <ele>200.41000366</ele>
        <time>2022-10-30T10:15:01Z</time>
      </trkpt>
      <trkpt lat="41.4000234" lon="2.0794809">
        <ele>199.80000305</ele>
        <time>2022-10-30T10:15:02Z</time>
      </trkpt>
      <trkpt lat="41.4000025" lon="2.0794989">
        <ele>199.33999634</ele>
        <time>2022-10-30T10:15:03Z</time>
      </trkpt>
      <trkpt lat="41.3999775" lon="2.0795228">
        <ele>198.91000366</ele>
        <time>2022-10-30T10:15:04Z</time>
      </trkpt>
      <trkpt lat="41.3999365" lon="2.0795738">
        <ele>198.41000366</ele>
        <time>2022-10-30T10:15:05Z</time>
      </trkpt>
      <trkpt lat="41.3999016" lon="2.0796177">
        <ele>197.80000305</ele>
        <time>2022-10-30T10:15:06Z</time>
      </trkpt>
      <trkpt lat="41.3998716" lon="2.0796356">
        <ele>196.94999695</ele>
        <time>2022-10-30T10:15:07Z</time>
      </trkpt>
      <trkpt lat="41.3998337" lon="2.0796606">
        <ele>195.91000366</ele>
        <time>2022-10-30T10:15:08Z</time>
      </trkpt>
      <trkpt lat="41.3997957" lon="2.0796985">
        <ele>195.02999878</ele>
        <time>2022-10-30T10:15:09Z</time>
      </trkpt>
      <trkpt lat="41.3997328" lon="2.0797544">
        <ele>194.36999512</ele>
        <time>2022-10-30T10:15:10Z</time>
      </trkpt>
      <trkpt lat="41.3997028" lon="2.0797603">
        <ele>193.86000061</ele>
        <time>2022-10-30T10:15:11Z</time>
      </trkpt>
      <trkpt lat="41.3996578" lon="2.0797632">
        <ele>193.38999939</ele>
        <time>2022-10-30T10:15:12Z</time>
      </trkpt>
      <trkpt lat="41.3996149" lon="2.0797603">
        <ele>192.80000305</ele>
        <time>2022-10-30T10:15:13Z</time>
      </trkpt>
      <trkpt lat="41.39956" lon="2.0797313">
        <ele>192.19000244</ele>
        <time>2022-10-30T10:15:14Z</time>
      </trkpt>
      <trkpt lat="41.39952" lon="2.0797353">
        <ele>191.63000488</ele>
        <time>2022-10-30T10:15:15Z</time>
      </trkpt>
      <trkpt lat="41.3994861" lon="2.0797343">
        <ele>191.20001221</ele>
        <time>2022-10-30T10:15:16Z</time>
      </trkpt>
      <trkpt lat="41.3994501" lon="2.0797343">
        <ele>190.72001648</ele>
        <time>2022-10-30T10:15:17Z</time>
      </trkpt>
      <trkpt lat="41.3994112" lon="2.0797372">
        <ele>190.14001465</ele>
        <time>2022-10-30T10:15:18Z</time>
      </trkpt>
      <trkpt lat="41.3993482" lon="2.0797263">
        <ele>189.53001404</ele>
        <time>2022-10-30T10:15:19Z</time>
      </trkpt>
      <trkpt lat="41.3993073" lon="2.0797253">
        <ele>188.82000732</ele>
        <time>2022-10-30T10:15:20Z</time>
      </trkpt>
      <trkpt lat="41.3992683" lon="2.0797144">
        <ele>188.1000061</ele>
        <time>2022-10-30T10:15:21Z</time>
      </trkpt>
      <trkpt lat="41.3992323" lon="2.0797084">
        <ele>187.5900116</ele>
        <time>2022-10-30T10:15:22Z</time>
      </trkpt>
      <trkpt lat="41.3991593" lon="2.0797144">
        <ele>187.17001343</ele>
        <time>2022-10-30T10:15:23Z</time>
      </trkpt>
      <trkpt lat="41.3991173" lon="2.0797134">
        <ele>186.75001526</ele>
        <time>2022-10-30T10:15:24Z</time>
      </trkpt>
      <trkpt lat="41.3990753" lon="2.0796974">
        <ele>186.4400177</ele>
        <time>2022-10-30T10:15:25Z</time>
      </trkpt>
      <trkpt lat="41.3990333" lon="2.0796855">
        <ele>186.68002319</ele>
        <time>2022-10-30T10:15:26Z</time>
      </trkpt>
      <trkpt lat="41.3989964" lon="2.0796884">
        <ele>186.08001709</ele>
        <time>2022-10-30T10:15:27Z</time>
      </trkpt>
      <trkpt lat="41.3989324" lon="2.0796834">
        <ele>185.49002075</ele>
        <time>2022-10-30T10:15:28Z</time>
      </trkpt>
      <trkpt lat="41.3988845" lon="2.0796863">
        <ele>184.84002686</ele>
        <time>2022-10-30T10:15:29Z</time>
      </trkpt>
      <trkpt lat="41.3988306" lon="2.0796943">
        <ele>183.98002625</ele>
        <time>2022-10-30T10:15:30Z</time>
      </trkpt>
      <trkpt lat="41.3987806" lon="2.0797032">
        <ele>183.0300293</ele>
        <time>2022-10-30T10:15:31Z</time>
      </trkpt>
      <trkpt lat="41.3987207" lon="2.0796832">
        <ele>182.0300293</ele>
        <time>2022-10-30T10:15:32Z</time>
      </trkpt>
      <trkpt lat="41.3986757" lon="2.0796793">
        <ele>181.02003479</ele>
        <time>2022-10-30T10:15:33Z</time>
      </trkpt>
      <trkpt lat="41.3986177" lon="2.0796783">
        <ele>180.17002869</ele>
        <time>2022-10-30T10:15:34Z</time>
      </trkpt>
      <trkpt lat="41.3985568" lon="2.0796793">
        <ele>179.40002441</ele>
        <time>2022-10-30T10:15:35Z</time>
      </trkpt>
      <trkpt lat="41.3984928" lon="2.0796693">
        <ele>178.45002747</ele>
        <time>2022-10-30T10:15:36Z</time>
      </trkpt>
      <trkpt lat="41.3984159" lon="2.0796403">
        <ele>177.59002686</ele>
        <time>2022-10-30T10:15:37Z</time>
      </trkpt>
      <trkpt lat="41.3983759" lon="2.0796353">
        <ele>176.85002136</ele>
        <time>2022-10-30T10:15:38Z</time>
      </trkpt>
      <trkpt lat="41.398342" lon="2.0796353">
        <ele>176.23002625</ele>
        <time>2022-10-30T10:15:39Z</time>
      </trkpt>
      <trkpt lat="41.398303" lon="2.0796413">
        <ele>175.92002869</ele>
        <time>2022-10-30T10:15:40Z</time>
      </trkpt>
      <trkpt lat="41.3982341" lon="2.0796413">
        <ele>175.5300293</ele>
        <time>2022-10-30T10:15:41Z</time>
      </trkpt>
      <trkpt lat="41.3981841" lon="2.0796203">
        <ele>175.05003357</ele>
        <time>2022-10-30T10:15:42Z</time>
      </trkpt>
      <trkpt lat="41.3981322" lon="2.0796014">
        <ele>174.54003906</ele>
        <time>2022-10-30T10:15:43Z</time>
      </trkpt>
      <trkpt lat="41.3980732" lon="2.0795965">
        <ele>174.09004211</ele>
        <time>2022-10-30T10:15:44Z</time>
      </trkpt>
      <trkpt lat="41.3980152" lon="2.0795925">
        <ele>173.49003601</ele>
        <time>2022-10-30T10:15:45Z</time>
      </trkpt>
      <trkpt lat="41.3979323" lon="2.0795915">
        <ele>172.60003662</ele>
        <time>2022-10-30T10:15:46Z</time>
      </trkpt>
      <trkpt lat="41.3978933" lon="2.0796175">
        <ele>171.7800293</ele>
        <time>2022-10-30T10:15:47Z</time>
      </trkpt>
      <trkpt lat="41.3978713" lon="2.0796614">
        <ele>170.94003296</ele>
        <time>2022-10-30T10:15:48Z</time>
      </trkpt>
      <trkpt lat="41.3978654" lon="2.0797064">
        <ele>170.26004028</ele>
        <time>2022-10-30T10:15:49Z</time>
      </trkpt>
      <trkpt lat="41.3978574" lon="2.0797633">
        <ele>169.83004761</ele>
        <time>2022-10-30T10:15:50Z</time>
      </trkpt>
      <trkpt lat="41.3978583" lon="2.0798083">
        <ele>169.46005249</ele>
        <time>2022-10-30T10:15:51Z</time>
      </trkpt>
      <trkpt lat="41.3978743" lon="2.0798633">
        <ele>169.12005615</ele>
        <time>2022-10-30T10:15:52Z</time>
      </trkpt>
      <trkpt lat="41.3978953" lon="2.0799252">
        <ele>168.8200531</ele>
        <time>2022-10-30T10:15:53Z</time>
      </trkpt>
      <trkpt lat="41.3979172" lon="2.0799911">
        <ele>168.53005981</ele>
        <time>2022-10-30T10:15:54Z</time>
      </trkpt>
      <trkpt lat="41.3979432" lon="2.0800951">
        <ele>168.19006348</ele>
        <time>2022-10-30T10:15:55Z</time>
      </trkpt>
      <trkpt lat="41.3979621" lon="2.080171">
        <ele>167.9100647</ele>
        <time>2022-10-30T10:15:56Z</time>
      </trkpt>
      <trkpt lat="41.3979761" lon="2.080235">
        <ele>167.75006104</ele>
        <time>2022-10-30T10:15:57Z</time>
      </trkpt>
      <trkpt lat="41.3979981" lon="2.0802959">
        <ele>167.46006775</ele>
        <time>2022-10-30T10:15:58Z</time>
      </trkpt>
      <trkpt lat="41.3980311" lon="2.0804019">
        <ele>167.19006348</ele>
        <time>2022-10-30T10:15:59Z</time>
      </trkpt>
      <trkpt lat="41.398055" lon="2.0804808">
        <ele>166.71006775</ele>
        <time>2022-10-30T10:16:00Z</time>
      </trkpt>
      <trkpt lat="41.398094" lon="2.0805508">
        <ele>166.34007263</ele>
        <time>2022-10-30T10:16:01Z</time>
      </trkpt>
      <trkpt lat="41.398135" lon="2.0806107">
        <ele>165.93006897</ele>
        <time>2022-10-30T10:16:02Z</time>
      </trkpt>
      <trkpt lat="41.398174" lon="2.0806657">
        <ele>165.33006287</ele>
        <time>2022-10-30T10:16:03Z</time>
      </trkpt>
      <trkpt lat="41.3982389" lon="2.0807487">
        <ele>164.97006226</ele>
        <time>2022-10-30T10:16:04Z</time>
      </trkpt>
      <trkpt lat="41.3982768" lon="2.0807866">
        <ele>164.37005615</ele>
        <time>2022-10-30T10:16:05Z</time>
      </trkpt>
      <trkpt lat="41.3983038" lon="2.0808225">
        <ele>163.94006348</ele>
        <time>2022-10-30T10:16:06Z</time>
      </trkpt>
      <trkpt lat="41.3983338" lon="2.0808425">
        <ele>163.79006958</ele>
        <time>2022-10-30T10:16:07Z</time>
      </trkpt>
      <trkpt lat="41.3983707" lon="2.0808525">
        <ele>163.57006836</ele>
        <time>2022-10-30T10:16:08Z</time>
      </trkpt>
      <trkpt lat="41.3983896" lon="2.0808635">
        <ele>163.48007202</ele>
        <time>2022-10-30T10:16:09Z</time>
      </trkpt>
      <trkpt lat="41.3984036" lon="2.0808764">
        <ele>163.4100647</ele>
        <time>2022-10-30T10:16:10Z</time>
      </trkpt>
      <trkpt lat="41.3984235" lon="2.0808954">
        <ele>163.32006836</ele>
        <time>2022-10-30T10:16:11Z</time>
      </trkpt>
      <trkpt lat="41.3984625" lon="2.0809343">
        <ele>163.1600647</ele>
        <time>2022-10-30T10:16:12Z</time>
      </trkpt>
      <trkpt lat="41.3984934" lon="2.0809663">
        <ele>162.93006897</ele>
        <time>2022-10-30T10:16:13Z</time>
      </trkpt>
      <trkpt lat="41.3985234" lon="2.0809923">
        <ele>162.78007507</ele>
        <time>2022-10-30T10:16:14Z</time>
      </trkpt>
      <trkpt lat="41.3985553" lon="2.0810192">
        <ele>162.54006958</ele>
        <time>2022-10-30T10:16:15Z</time>
      </trkpt>
      <trkpt lat="41.3985843" lon="2.0810482">
        <ele>162.47006226</ele>
        <time>2022-10-30T10:16:16Z</time>
      </trkpt>
      <trkpt lat="41.3986112" lon="2.0810912">
        <ele>162.44006348</ele>
        <time>2022-10-30T10:16:17Z</time>
      </trkpt>
      <trkpt lat="41.3986222" lon="2.0811321">
        <ele>162.48005676</ele>
        <time>2022-10-30T10:16:18Z</time>
      </trkpt>
      <trkpt lat="41.3986262" lon="2.0811741">
        <ele>162.5700531</ele>
        <time>2022-10-30T10:16:19Z</time>
      </trkpt>
      <trkpt lat="41.3986233" lon="2.081226">
        <ele>162.64006042</ele>
        <time>2022-10-30T10:16:20Z</time>
      </trkpt>
      <trkpt lat="41.3986103" lon="2.081258">
        <ele>162.75006104</ele>
        <time>2022-10-30T10:16:21Z</time>
      </trkpt>
      <trkpt lat="41.3986222" lon="2.081298">
        <ele>163.00006104</ele>
        <time>2022-10-30T10:16:22Z</time>
      </trkpt>
      <trkpt lat="41.3986193" lon="2.0813229">
        <ele>163.43005371</ele>
        <time>2022-10-30T10:16:23Z</time>
      </trkpt>
      <trkpt lat="41.3986124" lon="2.0813368">
        <ele>163.88005066</ele>
        <time>2022-10-30T10:16:24Z</time>
      </trkpt>
      <trkpt lat="41.3985934" lon="2.0813618">
        <ele>164.3200531</ele>
        <time>2022-10-30T10:16:25Z</time>
      </trkpt>
      <trkpt lat="41.3985574" lon="2.0813907">
        <ele>164.56005859</ele>
        <time>2022-10-30T10:16:26Z</time>
      </trkpt>
      <trkpt lat="41.3985244" lon="2.0814177">
        <ele>164.58006287</ele>
        <time>2022-10-30T10:16:27Z</time>
      </trkpt>
      <trkpt lat="41.3984845" lon="2.0814486">
        <ele>164.46006775</ele>
        <time>2022-10-30T10:16:28Z</time>
      </trkpt>
      <trkpt lat="41.3984356" lon="2.0814626">
        <ele>164.30006409</ele>
        <time>2022-10-30T10:16:29Z</time>
      </trkpt>
      <trkpt lat="41.3983957" lon="2.0814626">
        <ele>164.07006836</ele>
        <time>2022-10-30T10:16:30Z</time>
      </trkpt>
      <trkpt lat="41.3983447" lon="2.0814606">
        <ele>163.9100647</ele>
        <time>2022-10-30T10:16:31Z</time>
      </trkpt>
      <trkpt lat="41.3983068" lon="2.0814706">
        <ele>163.73007202</ele>
        <time>2022-10-30T10:16:32Z</time>
      </trkpt>
      <trkpt lat="41.3982618" lon="2.0814825">
        <ele>163.54006958</ele>
        <time>2022-10-30T10:16:33Z</time>
      </trkpt>
      <trkpt lat="41.3982238" lon="2.0814865">
        <ele>163.32006836</ele>
        <time>2022-10-30T10:16:34Z</time>
      </trkpt>
      <trkpt lat="41.3981619" lon="2.0815045">
        <ele>163.04006958</ele>
        <time>2022-10-30T10:16:35Z</time>
      </trkpt>
      <trkpt lat="41.398122" lon="2.0815324">
        <ele>162.82006836</ele>
        <time>2022-10-30T10:16:36Z</time>
      </trkpt>
      <trkpt lat="41.3980841" lon="2.0815573">
        <ele>162.54006958</ele>
        <time>2022-10-30T10:16:37Z</time>
      </trkpt>
      <trkpt lat="41.3980491" lon="2.0815643">
        <ele>162.4100647</ele>
        <time>2022-10-30T10:16:38Z</time>
      </trkpt>
      <trkpt lat="41.3980052" lon="2.0815732">
        <ele>162.09005737</ele>
        <time>2022-10-30T10:16:39Z</time>
      </trkpt>
      <trkpt lat="41.3979272" lon="2.0815911">
        <ele>161.45005798</ele>
        <time>2022-10-30T10:16:40Z</time>
      </trkpt>
      <trkpt lat="41.3978742" lon="2.081628">
        <ele>160.76005554</ele>
        <time>2022-10-30T10:16:41Z</time>
      </trkpt>
      <trkpt lat="41.3978332" lon="2.081683">
        <ele>159.87005615</ele>
        <time>2022-10-30T10:16:42Z</time>
      </trkpt>
      <trkpt lat="41.3978173" lon="2.081728">
        <ele>159.18005371</ele>
        <time>2022-10-30T10:16:43Z</time>
      </trkpt>
      <trkpt lat="41.3978084" lon="2.081777">
        <ele>158.8200531</ele>
        <time>2022-10-30T10:16:44Z</time>
      </trkpt>
      <trkpt lat="41.3977814" lon="2.0818029">
        <ele>158.5700531</ele>
        <time>2022-10-30T10:16:45Z</time>
      </trkpt>
      <trkpt lat="41.3977465" lon="2.0818279">
        <ele>158.4200592</ele>
        <time>2022-10-30T10:16:46Z</time>
      </trkpt>
      <trkpt lat="41.3977085" lon="2.0818478">
        <ele>158.23005676</ele>
        <time>2022-10-30T10:16:47Z</time>
      </trkpt>
      <trkpt lat="41.3976766" lon="2.0818708">
        <ele>158.12005615</ele>
        <time>2022-10-30T10:16:48Z</time>
      </trkpt>
      <trkpt lat="41.3976316" lon="2.0818908">
        <ele>157.79005432</ele>
        <time>2022-10-30T10:16:49Z</time>
      </trkpt>
      <trkpt lat="41.3975876" lon="2.0818977">
        <ele>157.34005737</ele>
        <time>2022-10-30T10:16:50Z</time>
      </trkpt>
      <trkpt lat="41.3975516" lon="2.0819197">
        <ele>156.77005005</ele>
        <time>2022-10-30T10:16:51Z</time>
      </trkpt>
      <trkpt lat="41.3975257" lon="2.0819606">
        <ele>156.03004456</ele>
        <time>2022-10-30T10:16:52Z</time>
      </trkpt>
      <trkpt lat="41.3974667" lon="2.0820306">
        <ele>155.470047</ele>
        <time>2022-10-30T10:16:53Z</time>
      </trkpt>
      <trkpt lat="41.3974258" lon="2.0820685">
        <ele>154.95004272</ele>
        <time>2022-10-30T10:16:54Z</time>
      </trkpt>
      <trkpt lat="41.3973858" lon="2.0821114">
        <ele>154.470047</ele>
        <time>2022-10-30T10:16:55Z</time>
      </trkpt>
      <trkpt lat="41.3973489" lon="2.0821464">
        <ele>153.68005371</ele>
        <time>2022-10-30T10:16:56Z</time>
      </trkpt>
      <trkpt lat="41.3973209" lon="2.0821794">
        <ele>153.00006104</ele>
        <time>2022-10-30T10:16:57Z</time>
      </trkpt>
      <trkpt lat="41.397297" lon="2.0822054">
        <ele>152.33006287</ele>
        <time>2022-10-30T10:16:58Z</time>
      </trkpt>
      <trkpt lat="41.397269" lon="2.0822183">
        <ele>151.69006348</ele>
        <time>2022-10-30T10:16:59Z</time>
      </trkpt>
      <trkpt lat="41.397247" lon="2.0822084">
        <ele>151.33006287</ele>
        <time>2022-10-30T10:17:00Z</time>
      </trkpt>
      <trkpt lat="41.397222" lon="2.0821954">
        <ele>150.80006409</ele>
        <time>2022-10-30T10:17:01Z</time>
      </trkpt>
      <trkpt lat="41.3971851" lon="2.0821624">
        <ele>150.36006165</ele>
        <time>2022-10-30T10:17:02Z</time>
      </trkpt>
      <trkpt lat="41.3971521" lon="2.0821475">
        <ele>149.86006165</ele>
        <time>2022-10-30T10:17:03Z</time>
      </trkpt>
      <trkpt lat="41.3971051" lon="2.0821435">
        <ele>149.34005737</ele>
        <time>2022-10-30T10:17:04Z</time>
      </trkpt>
      <trkpt lat="41.3970442" lon="2.0821554">
        <ele>148.76005554</ele>
        <time>2022-10-30T10:17:05Z</time>
      </trkpt>
      <trkpt lat="41.3969563" lon="2.0821794">
        <ele>147.89006042</ele>
        <time>2022-10-30T10:17:06Z</time>
      </trkpt>
      <trkpt lat="41.3969003" lon="2.0821954">
        <ele>146.79005432</ele>
        <time>2022-10-30T10:17:07Z</time>
      </trkpt>
      <trkpt lat="41.3968543" lon="2.0822093">
        <ele>145.61006165</ele>
        <time>2022-10-30T10:17:08Z</time>
      </trkpt>
      <trkpt lat="41.3968134" lon="2.0822263">
        <ele>144.4100647</ele>
        <time>2022-10-30T10:17:09Z</time>
      </trkpt>
      <trkpt lat="41.3967684" lon="2.0822403">
        <ele>143.34005737</ele>
        <time>2022-10-30T10:17:10Z</time>
      </trkpt>
      <trkpt lat="41.3967194" lon="2.0822452">
        <ele>142.44006348</ele>
        <time>2022-10-30T10:17:11Z</time>
      </trkpt>
      <trkpt lat="41.3966825" lon="2.0822452">
        <ele>141.79006958</ele>
        <time>2022-10-30T10:17:12Z</time>
      </trkpt>
      <trkpt lat="41.3966435" lon="2.0822303">
        <ele>141.27006531</ele>
        <time>2022-10-30T10:17:13Z</time>
      </trkpt>
      <trkpt lat="41.3966006" lon="2.0822274">
        <ele>140.6600647</ele>
        <time>2022-10-30T10:17:14Z</time>
      </trkpt>
      <trkpt lat="41.3965506" lon="2.0822254">
        <ele>140.04006958</ele>
        <time>2022-10-30T10:17:15Z</time>
      </trkpt>
      <trkpt lat="41.3964937" lon="2.0822065">
        <ele>139.2600708</ele>
        <time>2022-10-30T10:17:16Z</time>
      </trkpt>
      <trkpt lat="41.3964588" lon="2.0821896">
        <ele>138.32006836</ele>
        <time>2022-10-30T10:17:17Z</time>
      </trkpt>
      <trkpt lat="41.3964388" lon="2.0821925">
        <ele>137.37007141</ele>
        <time>2022-10-30T10:17:18Z</time>
      </trkpt>
      <trkpt lat="41.3964349" lon="2.0822104">
        <ele>136.45007324</ele>
        <time>2022-10-30T10:17:19Z</time>
      </trkpt>
      <trkpt lat="41.3964528" lon="2.0822443">
        <ele>135.71006775</ele>
        <time>2022-10-30T10:17:20Z</time>
      </trkpt>
      <trkpt lat="41.3964678" lon="2.0822793">
        <ele>135.03007507</ele>
        <time>2022-10-30T10:17:21Z</time>
      </trkpt>
      <trkpt lat="41.3964797" lon="2.0823253">
        <ele>134.55007935</ele>
        <time>2022-10-30T10:17:22Z</time>
      </trkpt>
      <trkpt lat="41.3964976" lon="2.0823582">
        <ele>134.24008179</ele>
        <time>2022-10-30T10:17:23Z</time>
      </trkpt>
      <trkpt lat="41.3965226" lon="2.0823832">
        <ele>133.88008118</ele>
        <time>2022-10-30T10:17:24Z</time>
      </trkpt>
      <trkpt lat="41.3965565" lon="2.0824321">
        <ele>133.58007812</ele>
        <time>2022-10-30T10:17:25Z</time>
      </trkpt>
      <trkpt lat="41.3965805" lon="2.082469">
        <ele>133.3500824</ele>
        <time>2022-10-30T10:17:26Z</time>
      </trkpt>
      <trkpt lat="41.3965974" lon="2.082503">
        <ele>133.13008118</ele>
        <time>2022-10-30T10:17:27Z</time>
      </trkpt>
      <trkpt lat="41.3966194" lon="2.0825399">
        <ele>132.91007996</ele>
        <time>2022-10-30T10:17:28Z</time>
      </trkpt>
      <trkpt lat="41.3966323" lon="2.0825979">
        <ele>132.57008362</ele>
        <time>2022-10-30T10:17:29Z</time>
      </trkpt>
      <trkpt lat="41.3966224" lon="2.0826248">
        <ele>132.25007629</ele>
        <time>2022-10-30T10:17:30Z</time>
      </trkpt>
      <trkpt lat="41.3966014" lon="2.0826288">
        <ele>132.0100708</ele>
        <time>2022-10-30T10:17:31Z</time>
      </trkpt>
      <trkpt lat="41.3965785" lon="2.0826209">
        <ele>131.87007141</ele>
        <time>2022-10-30T10:17:32Z</time>
      </trkpt>
      <trkpt lat="41.3965505" lon="2.0826049">
        <ele>131.9100647</ele>
        <time>2022-10-30T10:17:33Z</time>
      </trkpt>
      <trkpt lat="41.3965016" lon="2.0825819">
        <ele>131.88006592</ele>
        <time>2022-10-30T10:17:34Z</time>
      </trkpt>
      <trkpt lat="41.3964727" lon="2.0825709">
        <ele>131.74006653</ele>
        <time>2022-10-30T10:17:35Z</time>
      </trkpt>
      <trkpt lat="41.3964418" lon="2.082562">
        <ele>131.48007202</ele>
        <time>2022-10-30T10:17:36Z</time>
      </trkpt>
      <trkpt lat="41.3964068" lon="2.0825541">
        <ele>131.10006714</ele>
        <time>2022-10-30T10:17:37Z</time>
      </trkpt>
      <trkpt lat="41.3963519" lon="2.0825352">
        <ele>130.74006653</ele>
        <time>2022-10-30T10:17:38Z</time>
      </trkpt>
      <trkpt lat="41.3963119" lon="2.0825142">
        <ele>130.32006836</ele>
        <time>2022-10-30T10:17:39Z</time>
      </trkpt>
      <trkpt lat="41.396269" lon="2.0824943">
        <ele>129.83006287</ele>
        <time>2022-10-30T10:17:40Z</time>
      </trkpt>
      <trkpt lat="41.396224" lon="2.0824724">
        <ele>129.40007019</ele>
        <time>2022-10-30T10:17:41Z</time>
      </trkpt>
      <trkpt lat="41.3961761" lon="2.0824484">
        <ele>128.94006348</ele>
        <time>2022-10-30T10:17:42Z</time>
      </trkpt>
      <trkpt lat="41.3961031" lon="2.0824055">
        <ele>128.46006775</ele>
        <time>2022-10-30T10:17:43Z</time>
      </trkpt>
      <trkpt lat="41.3960501" lon="2.0823775">
        <ele>127.95006561</ele>
        <time>2022-10-30T10:17:44Z</time>
      </trkpt>
      <trkpt lat="41.3959941" lon="2.0823586">
        <ele>127.38006592</ele>
        <time>2022-10-30T10:17:45Z</time>
      </trkpt>
      <trkpt lat="41.3959372" lon="2.0823387">
        <ele>126.68006897</ele>
        <time>2022-10-30T10:17:46Z</time>
      </trkpt>
      <trkpt lat="41.3958413" lon="2.0823277">
        <ele>125.99006653</ele>
        <time>2022-10-30T10:17:47Z</time>
      </trkpt>
      <trkpt lat="41.3957784" lon="2.0823098">
        <ele>125.340065</ele>
        <time>2022-10-30T10:17:48Z</time>
      </trkpt>
      <trkpt lat="41.3957114" lon="2.0822858">
        <ele>124.72006226</ele>
        <time>2022-10-30T10:17:49Z</time>
      </trkpt>
      <trkpt lat="41.3956465" lon="2.0822599">
        <ele>124.23006439</ele>
        <time>2022-10-30T10:17:50Z</time>
      </trkpt>
      <trkpt lat="41.3955506" lon="2.0822119">
        <ele>123.77006531</ele>
        <time>2022-10-30T10:17:51Z</time>
      </trkpt>
      <trkpt lat="41.3954906" lon="2.0821829">
        <ele>123.40006256</ele>
        <time>2022-10-30T10:17:52Z</time>
      </trkpt>
      <trkpt lat="41.3954327" lon="2.0821479">
        <ele>123.03005981</ele>
        <time>2022-10-30T10:17:53Z</time>
      </trkpt>
      <trkpt lat="41.3953777" lon="2.082104">
        <ele>122.69006348</ele>
        <time>2022-10-30T10:17:54Z</time>
      </trkpt>
      <trkpt lat="41.3953258" lon="2.082057">
        <ele>122.49006653</ele>
        <time>2022-10-30T10:17:55Z</time>
      </trkpt>
      <trkpt lat="41.3952538" lon="2.0819831">
        <ele>122.1600647</ele>
        <time>2022-10-30T10:17:56Z</time>
      </trkpt>
      <trkpt lat="41.3952118" lon="2.0819642">
        <ele>121.76006317</ele>
        <time>2022-10-30T10:17:57Z</time>
      </trkpt>
      <trkpt lat="41.3951859" lon="2.0819553">
        <ele>121.32006073</ele>
        <time>2022-10-30T10:17:58Z</time>
      </trkpt>
      <trkpt lat="41.3951679" lon="2.0819672">
        <ele>120.79006195</ele>
        <time>2022-10-30T10:17:59Z</time>
      </trkpt>
      <trkpt lat="41.395167" lon="2.0820022">
        <ele>120.43006134</ele>
        <time>2022-10-30T10:18:00Z</time>
      </trkpt>
      <trkpt lat="41.3951699" lon="2.0820351">
        <ele>120.23006439</ele>
        <time>2022-10-30T10:18:01Z</time>
      </trkpt>
      <trkpt lat="41.3951728" lon="2.0820711">
        <ele>120.07006073</ele>
        <time>2022-10-30T10:18:02Z</time>
      </trkpt>
      <trkpt lat="41.3951778" lon="2.082112">
        <ele>119.94006348</ele>
        <time>2022-10-30T10:18:03Z</time>
      </trkpt>
      <trkpt lat="41.3951798" lon="2.082158">
        <ele>119.69006348</ele>
        <time>2022-10-30T10:18:04Z</time>
      </trkpt>
      <trkpt lat="41.3951848" lon="2.0822419">
        <ele>119.340065</ele>
        <time>2022-10-30T10:18:05Z</time>
      </trkpt>
      <trkpt lat="41.3951838" lon="2.0822969">
        <ele>119.00006866</ele>
        <time>2022-10-30T10:18:06Z</time>
      </trkpt>
      <trkpt lat="41.3951838" lon="2.0823458">
        <ele>118.72006989</ele>
        <time>2022-10-30T10:18:07Z</time>
      </trkpt>
      <trkpt lat="41.3951818" lon="2.0823918">
        <ele>118.65007019</ele>
        <time>2022-10-30T10:18:08Z</time>
      </trkpt>
      <trkpt lat="41.3951818" lon="2.0824577">
        <ele>118.7600708</ele>
        <time>2022-10-30T10:18:09Z</time>
      </trkpt>
      <trkpt lat="41.3951809" lon="2.0824997">
        <ele>118.97006989</ele>
        <time>2022-10-30T10:18:10Z</time>
      </trkpt>
      <trkpt lat="41.3951818" lon="2.0825347">
        <ele>119.19007111</ele>
        <time>2022-10-30T10:18:11Z</time>
      </trkpt>
      <trkpt lat="41.3951809" lon="2.0825626">
        <ele>119.41007233</ele>
        <time>2022-10-30T10:18:12Z</time>
      </trkpt>
      <trkpt lat="41.3951879" lon="2.0825956">
        <ele>119.69007111</ele>
        <time>2022-10-30T10:18:13Z</time>
      </trkpt>
      <trkpt lat="41.3952008" lon="2.0826365">
        <ele>120.00006866</ele>
        <time>2022-10-30T10:18:14Z</time>
      </trkpt>
      <trkpt lat="41.3952028" lon="2.0826704">
        <ele>120.32006836</ele>
        <time>2022-10-30T10:18:15Z</time>
      </trkpt>
      <trkpt lat="41.3952048" lon="2.0827004">
        <ele>120.590065</ele>
        <time>2022-10-30T10:18:16Z</time>
      </trkpt>
      <trkpt lat="41.3952137" lon="2.0827283">
        <ele>120.81006622</ele>
        <time>2022-10-30T10:18:17Z</time>
      </trkpt>
      <trkpt lat="41.3952206" lon="2.0827502">
        <ele>120.98006439</ele>
        <time>2022-10-30T10:18:18Z</time>
      </trkpt>
      <trkpt lat="41.3952375" lon="2.0827881">
        <ele>121.18006134</ele>
        <time>2022-10-30T10:18:19Z</time>
      </trkpt>
      <trkpt lat="41.3952455" lon="2.0828151">
        <ele>121.38005829</ele>
        <time>2022-10-30T10:18:20Z</time>
      </trkpt>
      <trkpt lat="41.3952514" lon="2.082849">
        <ele>121.60005951</ele>
        <time>2022-10-30T10:18:21Z</time>
      </trkpt>
      <trkpt lat="41.3952543" lon="2.082878">
        <ele>121.81005859</ele>
        <time>2022-10-30T10:18:22Z</time>
      </trkpt>
      <trkpt lat="41.3952603" lon="2.0829309">
        <ele>122.05005646</ele>
        <time>2022-10-30T10:18:23Z</time>
      </trkpt>
      <trkpt lat="41.3952612" lon="2.0829659">
        <ele>122.29005432</ele>
        <time>2022-10-30T10:18:24Z</time>
      </trkpt>
      <trkpt lat="41.3952651" lon="2.0829979">
        <ele>122.59005737</ele>
        <time>2022-10-30T10:18:25Z</time>
      </trkpt>
      <trkpt lat="41.3952691" lon="2.0830309">
        <ele>122.86005402</ele>
        <time>2022-10-30T10:18:26Z</time>
      </trkpt>
      <trkpt lat="41.3952691" lon="2.0830819">
        <ele>123.15005493</ele>
        <time>2022-10-30T10:18:27Z</time>
      </trkpt>
      <trkpt lat="41.3952681" lon="2.0831188">
        <ele>123.43005371</ele>
        <time>2022-10-30T10:18:28Z</time>
      </trkpt>
      <trkpt lat="41.3952662" lon="2.0831538">
        <ele>123.65005493</ele>
        <time>2022-10-30T10:18:29Z</time>
      </trkpt>
      <trkpt lat="41.3952633" lon="2.0831888">
        <ele>123.8900528</ele>
        <time>2022-10-30T10:18:30Z</time>
      </trkpt>
      <trkpt lat="41.3952583" lon="2.0832208">
        <ele>124.10005188</ele>
        <time>2022-10-30T10:18:31Z</time>
      </trkpt>
      <trkpt lat="41.3952554" lon="2.0832688">
        <ele>124.34004974</ele>
        <time>2022-10-30T10:18:32Z</time>
      </trkpt>
      <trkpt lat="41.3952554" lon="2.0832997">
        <ele>124.59004974</ele>
        <time>2022-10-30T10:18:33Z</time>
      </trkpt>
      <trkpt lat="41.3952544" lon="2.0833336">
        <ele>124.83004761</ele>
        <time>2022-10-30T10:18:34Z</time>
      </trkpt>
      <trkpt lat="41.3952535" lon="2.0833636">
        <ele>125.05004883</ele>
        <time>2022-10-30T10:18:35Z</time>
      </trkpt>
      <trkpt lat="41.3952526" lon="2.0833926">
        <ele>125.24005127</ele>
        <time>2022-10-30T10:18:36Z</time>
      </trkpt>
      <trkpt lat="41.3952467" lon="2.0834385">
        <ele>125.3900528</ele>
        <time>2022-10-30T10:18:37Z</time>
      </trkpt>
      <trkpt lat="41.3952526" lon="2.0834664">
        <ele>125.55005646</ele>
        <time>2022-10-30T10:18:38Z</time>
      </trkpt>
      <trkpt lat="41.3952565" lon="2.0834944">
        <ele>125.71006012</ele>
        <time>2022-10-30T10:18:39Z</time>
      </trkpt>
      <trkpt lat="41.3952624" lon="2.0835203">
        <ele>125.89006042</ele>
        <time>2022-10-30T10:18:40Z</time>
      </trkpt>
      <trkpt lat="41.3952804" lon="2.0835653">
        <ele>126.07006073</ele>
        <time>2022-10-30T10:18:41Z</time>
      </trkpt>
      <trkpt lat="41.3952804" lon="2.0835962">
        <ele>126.25006104</ele>
        <time>2022-10-30T10:18:42Z</time>
      </trkpt>
      <trkpt lat="41.3952863" lon="2.0836282">
        <ele>126.47006226</ele>
        <time>2022-10-30T10:18:43Z</time>
      </trkpt>
      <trkpt lat="41.3952962" lon="2.0836612">
        <ele>126.65006256</ele>
        <time>2022-10-30T10:18:44Z</time>
      </trkpt>
      <trkpt lat="41.3953172" lon="2.0837092">
        <ele>126.840065</ele>
        <time>2022-10-30T10:18:45Z</time>
      </trkpt>
      <trkpt lat="41.3953271" lon="2.0837382">
        <ele>127.05006409</ele>
        <time>2022-10-30T10:18:46Z</time>
      </trkpt>
      <trkpt lat="41.3953361" lon="2.0837721">
        <ele>127.26006317</ele>
        <time>2022-10-30T10:18:47Z</time>
      </trkpt>
      <trkpt lat="41.395341" lon="2.083806">
        <ele>127.52006531</ele>
        <time>2022-10-30T10:18:48Z</time>
      </trkpt>
      <trkpt lat="41.3953439" lon="2.0838439">
        <ele>127.87006378</ele>
        <time>2022-10-30T10:18:49Z</time>
      </trkpt>
      <trkpt lat="41.3953449" lon="2.0839109">
        <ele>128.24006653</ele>
        <time>2022-10-30T10:18:50Z</time>
      </trkpt>
      <trkpt lat="41.3953399" lon="2.0839488">
        <ele>128.59007263</ele>
        <time>2022-10-30T10:18:51Z</time>
      </trkpt>
      <trkpt lat="41.3953349" lon="2.0839858">
        <ele>128.94007874</ele>
        <time>2022-10-30T10:18:52Z</time>
      </trkpt>
      <trkpt lat="41.3953329" lon="2.0840257">
        <ele>129.28007507</ele>
        <time>2022-10-30T10:18:53Z</time>
      </trkpt>
      <trkpt lat="41.3953379" lon="2.0840777">
        <ele>129.62007141</ele>
        <time>2022-10-30T10:18:54Z</time>
      </trkpt>
      <trkpt lat="41.3953408" lon="2.0841086">
        <ele>130.00007629</ele>
        <time>2022-10-30T10:18:55Z</time>
      </trkpt>
      <trkpt lat="41.3953389" lon="2.0841355">
        <ele>130.38008118</ele>
        <time>2022-10-30T10:18:56Z</time>
      </trkpt>
      <trkpt lat="41.3953369" lon="2.0841675">
        <ele>130.69007874</ele>
        <time>2022-10-30T10:18:57Z</time>
      </trkpt>
      <trkpt lat="41.3953378" lon="2.0842015">
        <ele>130.97007751</ele>
        <time>2022-10-30T10:18:58Z</time>
      </trkpt>
      <trkpt lat="41.3953359" lon="2.0842465">
        <ele>131.13008118</ele>
        <time>2022-10-30T10:18:59Z</time>
      </trkpt>
      <trkpt lat="41.3953309" lon="2.0842774">
        <ele>131.25007629</ele>
        <time>2022-10-30T10:19:00Z</time>
      </trkpt>
      <trkpt lat="41.3953299" lon="2.0843094">
        <ele>131.3500824</ele>
        <time>2022-10-30T10:19:01Z</time>
      </trkpt>
      <trkpt lat="41.3953349" lon="2.0843403">
        <ele>131.39007568</ele>
        <time>2022-10-30T10:19:02Z</time>
      </trkpt>
      <trkpt lat="41.3953408" lon="2.0843693">
        <ele>131.46008301</ele>
        <time>2022-10-30T10:19:03Z</time>
      </trkpt>
      <trkpt lat="41.3953528" lon="2.0844152">
        <ele>131.56008911</ele>
        <time>2022-10-30T10:19:04Z</time>
      </trkpt>
      <trkpt lat="41.3953587" lon="2.0844472">
        <ele>131.65008545</ele>
        <time>2022-10-30T10:19:05Z</time>
      </trkpt>
      <trkpt lat="41.3953596" lon="2.0844792">
        <ele>131.78009033</ele>
        <time>2022-10-30T10:19:06Z</time>
      </trkpt>
      <trkpt lat="41.3953625" lon="2.0845112">
        <ele>131.98008728</ele>
        <time>2022-10-30T10:19:07Z</time>
      </trkpt>
      <trkpt lat="41.3953665" lon="2.0845592">
        <ele>132.16007996</ele>
        <time>2022-10-30T10:19:08Z</time>
      </trkpt>
      <trkpt lat="41.3953694" lon="2.0845942">
        <ele>132.33007812</ele>
        <time>2022-10-30T10:19:09Z</time>
      </trkpt>
      <trkpt lat="41.3953753" lon="2.0846292">
        <ele>132.52008057</ele>
        <time>2022-10-30T10:19:10Z</time>
      </trkpt>
      <trkpt lat="41.3953782" lon="2.0846671">
        <ele>132.69007874</ele>
        <time>2022-10-30T10:19:11Z</time>
      </trkpt>
      <trkpt lat="41.3953723" lon="2.0847161">
        <ele>132.84007263</ele>
        <time>2022-10-30T10:19:12Z</time>
      </trkpt>
      <trkpt lat="41.3953683" lon="2.084749">
        <ele>133.07006836</ele>
        <time>2022-10-30T10:19:13Z</time>
      </trkpt>
      <trkpt lat="41.3953614" lon="2.0847869">
        <ele>133.2600708</ele>
        <time>2022-10-30T10:19:14Z</time>
      </trkpt>
      <trkpt lat="41.3953574" lon="2.0848159">
        <ele>133.39007568</ele>
        <time>2022-10-30T10:19:15Z</time>
      </trkpt>
      <trkpt lat="41.3953574" lon="2.0848468">
        <ele>133.57006836</ele>
        <time>2022-10-30T10:19:16Z</time>
      </trkpt>
      <trkpt lat="41.3953505" lon="2.0848918">
        <ele>133.67007446</ele>
        <time>2022-10-30T10:19:17Z</time>
      </trkpt>
      <trkpt lat="41.3953446" lon="2.0849238">
        <ele>133.81007385</ele>
        <time>2022-10-30T10:19:18Z</time>
      </trkpt>
      <trkpt lat="41.3953446" lon="2.0849558">
        <ele>133.99006653</ele>
        <time>2022-10-30T10:19:19Z</time>
      </trkpt>
      <trkpt lat="41.3953406" lon="2.0849837">
        <ele>134.11006165</ele>
        <time>2022-10-30T10:19:20Z</time>
      </trkpt>
      <trkpt lat="41.3953247" lon="2.0850417">
        <ele>134.33006287</ele>
        <time>2022-10-30T10:19:21Z</time>
      </trkpt>
      <trkpt lat="41.3953137" lon="2.0850786">
        <ele>134.57006836</ele>
        <time>2022-10-30T10:19:22Z</time>
      </trkpt>
      <trkpt lat="41.3953087" lon="2.0851146">
        <ele>134.80006409</ele>
        <time>2022-10-30T10:19:23Z</time>
      </trkpt>
      <trkpt lat="41.3953067" lon="2.0851436">
        <ele>135.03005981</ele>
        <time>2022-10-30T10:19:24Z</time>
      </trkpt>
      <trkpt lat="41.3953017" lon="2.0851756">
        <ele>135.20005798</ele>
        <time>2022-10-30T10:19:25Z</time>
      </trkpt>
      <trkpt lat="41.3952938" lon="2.0852315">
        <ele>135.33006287</ele>
        <time>2022-10-30T10:19:26Z</time>
      </trkpt>
      <trkpt lat="41.3952918" lon="2.0852624">
        <ele>135.40007019</ele>
        <time>2022-10-30T10:19:27Z</time>
      </trkpt>
      <trkpt lat="41.3952947" lon="2.0852884">
        <ele>135.52006531</ele>
        <time>2022-10-30T10:19:28Z</time>
      </trkpt>
      <trkpt lat="41.3952947" lon="2.0853163">
        <ele>135.59007263</ele>
        <time>2022-10-30T10:19:29Z</time>
      </trkpt>
      <trkpt lat="41.3952938" lon="2.0853553">
        <ele>135.74006653</ele>
        <time>2022-10-30T10:19:30Z</time>
      </trkpt>
      <trkpt lat="41.3952878" lon="2.0854163">
        <ele>135.93006897</ele>
        <time>2022-10-30T10:19:31Z</time>
      </trkpt>
      <trkpt lat="41.3952809" lon="2.0854453">
        <ele>136.06007385</ele>
        <time>2022-10-30T10:19:32Z</time>
      </trkpt>
      <trkpt lat="41.395277" lon="2.0854922">
        <ele>136.24006653</ele>
        <time>2022-10-30T10:19:33Z</time>
      </trkpt>
      <trkpt lat="41.395276" lon="2.0855282">
        <ele>136.27006531</ele>
        <time>2022-10-30T10:19:34Z</time>
      </trkpt>
      <trkpt lat="41.3952731" lon="2.0855901">
        <ele>136.32006836</ele>
        <time>2022-10-30T10:19:35Z</time>
      </trkpt>
      <trkpt lat="41.3952612" lon="2.0856271">
        <ele>136.4100647</ele>
        <time>2022-10-30T10:19:36Z</time>
      </trkpt>
      <trkpt lat="41.3952542" lon="2.085664">
        <ele>136.47006226</ele>
        <time>2022-10-30T10:19:37Z</time>
      </trkpt>
      <trkpt lat="41.3952473" lon="2.085706">
        <ele>136.57006836</ele>
        <time>2022-10-30T10:19:38Z</time>
      </trkpt>
      <trkpt lat="41.3952464" lon="2.0857679">
        <ele>136.69006348</ele>
        <time>2022-10-30T10:19:39Z</time>
      </trkpt>
      <trkpt lat="41.3952503" lon="2.0858058">
        <ele>136.75006104</ele>
        <time>2022-10-30T10:19:40Z</time>
      </trkpt>
      <trkpt lat="41.3952583" lon="2.0858467">
        <ele>136.81005859</ele>
        <time>2022-10-30T10:19:41Z</time>
      </trkpt>
      <trkpt lat="41.3952663" lon="2.0858797">
        <ele>136.95005798</ele>
        <time>2022-10-30T10:19:42Z</time>
      </trkpt>
      <trkpt lat="41.3952672" lon="2.0859127">
        <ele>137.03005981</ele>
        <time>2022-10-30T10:19:43Z</time>
      </trkpt>
      <trkpt lat="41.3952731" lon="2.0859636">
        <ele>137.13006592</ele>
        <time>2022-10-30T10:19:44Z</time>
      </trkpt>
      <trkpt lat="41.3952731" lon="2.0860076">
        <ele>137.22006226</ele>
        <time>2022-10-30T10:19:45Z</time>
      </trkpt>
      <trkpt lat="41.395276" lon="2.0860535">
        <ele>137.29006958</ele>
        <time>2022-10-30T10:19:46Z</time>
      </trkpt>
      <trkpt lat="41.395278" lon="2.0860904">
        <ele>137.39007568</ele>
        <time>2022-10-30T10:19:47Z</time>
      </trkpt>
      <trkpt lat="41.3952809" lon="2.0861524">
        <ele>137.50007629</ele>
        <time>2022-10-30T10:19:48Z</time>
      </trkpt>
      <trkpt lat="41.3952838" lon="2.0862044">
        <ele>137.59007263</ele>
        <time>2022-10-30T10:19:49Z</time>
      </trkpt>
      <trkpt lat="41.3952867" lon="2.0862353">
        <ele>137.69007874</ele>
        <time>2022-10-30T10:19:50Z</time>
      </trkpt>
      <trkpt lat="41.3952847" lon="2.0862562">
        <ele>137.82008362</ele>
        <time>2022-10-30T10:19:51Z</time>
      </trkpt>
      <trkpt lat="41.3952857" lon="2.0862762">
        <ele>137.96008301</ele>
        <time>2022-10-30T10:19:52Z</time>
      </trkpt>
      <trkpt lat="41.3952946" lon="2.0863201">
        <ele>138.14007568</ele>
        <time>2022-10-30T10:19:53Z</time>
      </trkpt>
      <trkpt lat="41.3952955" lon="2.0863461">
        <ele>138.29006958</ele>
        <time>2022-10-30T10:19:54Z</time>
      </trkpt>
      <trkpt lat="41.3952946" lon="2.086373">
        <ele>138.49006653</ele>
        <time>2022-10-30T10:19:55Z</time>
      </trkpt>
      <trkpt lat="41.395291" lon="2.086381">
        <ele>138.13999939</ele>
        <time>2022-10-30T10:19:55Z</time>
      </trkpt>
      <trkpt lat="41.3952901" lon="2.086407">
        <ele>138.33999634</ele>
        <time>2022-10-30T10:19:56Z</time>
      </trkpt>
      <trkpt lat="41.3952881" lon="2.086444">
        <ele>138.51998901</ele>
        <time>2022-10-30T10:19:57Z</time>
      </trkpt>
      <trkpt lat="41.3952861" lon="2.0864939">
        <ele>138.68998718</ele>
        <time>2022-10-30T10:19:58Z</time>
      </trkpt>
      <trkpt lat="41.3952841" lon="2.0865278">
        <ele>138.78999329</ele>
        <time>2022-10-30T10:19:59Z</time>
      </trkpt>
      <trkpt lat="41.3952822" lon="2.0865598">
        <ele>138.91999817</ele>
        <time>2022-10-30T10:20:00Z</time>
      </trkpt>
      <trkpt lat="41.3952911" lon="2.0865907">
        <ele>139.08999634</ele>
        <time>2022-10-30T10:20:01Z</time>
      </trkpt>
      <trkpt lat="41.3953101" lon="2.0866316">
        <ele>139.30999756</ele>
        <time>2022-10-30T10:20:02Z</time>
      </trkpt>
      <trkpt lat="41.3953241" lon="2.0866636">
        <ele>139.53999329</ele>
        <time>2022-10-30T10:20:03Z</time>
      </trkpt>
      <trkpt lat="41.395328" lon="2.0867045">
        <ele>139.83999634</ele>
        <time>2022-10-30T10:20:04Z</time>
      </trkpt>
      <trkpt lat="41.395342" lon="2.0867335">
        <ele>140.19000244</ele>
        <time>2022-10-30T10:20:05Z</time>
      </trkpt>
      <trkpt lat="41.395352" lon="2.0867575">
        <ele>140.55999756</ele>
        <time>2022-10-30T10:20:06Z</time>
      </trkpt>
      <trkpt lat="41.3953639" lon="2.0867964">
        <ele>140.94000244</ele>
        <time>2022-10-30T10:20:07Z</time>
      </trkpt>
      <trkpt lat="41.3953668" lon="2.0868334">
        <ele>141.30999756</ele>
        <time>2022-10-30T10:20:08Z</time>
      </trkpt>
      <trkpt lat="41.3953677" lon="2.0868684">
        <ele>141.6499939</ele>
        <time>2022-10-30T10:20:09Z</time>
      </trkpt>
      <trkpt lat="41.3953736" lon="2.0869053">
        <ele>141.93998718</ele>
        <time>2022-10-30T10:20:10Z</time>
      </trkpt>
      <trkpt lat="41.3953886" lon="2.0869473">
        <ele>142.24998474</ele>
        <time>2022-10-30T10:20:11Z</time>
      </trkpt>
      <trkpt lat="41.3953925" lon="2.0869733">
        <ele>142.51998901</ele>
        <time>2022-10-30T10:20:12Z</time>
      </trkpt>
      <trkpt lat="41.3954014" lon="2.0870053">
        <ele>142.79998779</ele>
        <time>2022-10-30T10:20:13Z</time>
      </trkpt>
      <trkpt lat="41.3954084" lon="2.0870313">
        <ele>143.08998108</ele>
        <time>2022-10-30T10:20:14Z</time>
      </trkpt>
      <trkpt lat="41.3954134" lon="2.0870672">
        <ele>143.42997742</ele>
        <time>2022-10-30T10:20:15Z</time>
      </trkpt>
      <trkpt lat="41.3954153" lon="2.0870852">
        <ele>143.81997681</ele>
        <time>2022-10-30T10:20:16Z</time>
      </trkpt>
      <trkpt lat="41.3954213" lon="2.0871101">
        <ele>144.2099762</ele>
        <time>2022-10-30T10:20:17Z</time>
      </trkpt>
      <trkpt lat="41.3954392" lon="2.087122">
        <ele>144.63996887</ele>
        <time>2022-10-30T10:20:18Z</time>
      </trkpt>
      <trkpt lat="41.3954461" lon="2.087167">
        <ele>145.1199646</ele>
        <time>2022-10-30T10:20:19Z</time>
      </trkpt>
      <trkpt lat="41.3954571" lon="2.087215">
        <ele>145.58996582</ele>
        <time>2022-10-30T10:20:20Z</time>
      </trkpt>
      <trkpt lat="41.3954691" lon="2.08725">
        <ele>146.06996155</ele>
        <time>2022-10-30T10:20:21Z</time>
      </trkpt>
      <trkpt lat="41.395473" lon="2.0872879">
        <ele>146.53996277</ele>
        <time>2022-10-30T10:20:22Z</time>
      </trkpt>
      <trkpt lat="41.395487" lon="2.0873128">
        <ele>146.91996765</ele>
        <time>2022-10-30T10:20:23Z</time>
      </trkpt>
      <trkpt lat="41.3955049" lon="2.0873527">
        <ele>147.33996582</ele>
        <time>2022-10-30T10:20:24Z</time>
      </trkpt>
      <trkpt lat="41.3955189" lon="2.0873727">
        <ele>147.69996643</ele>
        <time>2022-10-30T10:20:25Z</time>
      </trkpt>
      <trkpt lat="41.3955329" lon="2.0873966">
        <ele>148.03996277</ele>
        <time>2022-10-30T10:20:26Z</time>
      </trkpt>
      <trkpt lat="41.3955439" lon="2.0874155">
        <ele>148.29995728</ele>
        <time>2022-10-30T10:20:27Z</time>
      </trkpt>
      <trkpt lat="41.3955579" lon="2.0874335">
        <ele>148.53996277</ele>
        <time>2022-10-30T10:20:28Z</time>
      </trkpt>
      <trkpt lat="41.3955739" lon="2.0874524">
        <ele>148.84996033</ele>
        <time>2022-10-30T10:20:29Z</time>
      </trkpt>
      <trkpt lat="41.3955808" lon="2.0874643">
        <ele>149.19996643</ele>
        <time>2022-10-30T10:20:30Z</time>
      </trkpt>
      <trkpt lat="41.3955848" lon="2.0874912">
        <ele>149.59996033</ele>
        <time>2022-10-30T10:20:31Z</time>
      </trkpt>
      <trkpt lat="41.3955857" lon="2.0875192">
        <ele>149.96995544</ele>
        <time>2022-10-30T10:20:32Z</time>
      </trkpt>
      <trkpt lat="41.3955886" lon="2.0875531">
        <ele>150.279953</ele>
        <time>2022-10-30T10:20:33Z</time>
      </trkpt>
      <trkpt lat="41.3955836" lon="2.087612">
        <ele>150.57995605</ele>
        <time>2022-10-30T10:20:34Z</time>
      </trkpt>
      <trkpt lat="41.3955846" lon="2.087643">
        <ele>150.85995483</ele>
        <time>2022-10-30T10:20:35Z</time>
      </trkpt>
      <trkpt lat="41.3955855" lon="2.0876799">
        <ele>151.05995178</ele>
        <time>2022-10-30T10:20:36Z</time>
      </trkpt>
      <trkpt lat="41.3955875" lon="2.0877228">
        <ele>151.2699585</ele>
        <time>2022-10-30T10:20:37Z</time>
      </trkpt>
      <trkpt lat="41.3955835" lon="2.0877658">
        <ele>151.39996338</ele>
        <time>2022-10-30T10:20:38Z</time>
      </trkpt>
      <trkpt lat="41.3955756" lon="2.0878008">
        <ele>151.52996826</ele>
        <time>2022-10-30T10:20:39Z</time>
      </trkpt>
      <trkpt lat="41.3955696" lon="2.0878367">
        <ele>151.69996643</ele>
        <time>2022-10-30T10:20:40Z</time>
      </trkpt>
      <trkpt lat="41.3955607" lon="2.0878717">
        <ele>151.8699646</ele>
        <time>2022-10-30T10:20:41Z</time>
      </trkpt>
      <trkpt lat="41.3955538" lon="2.0879057">
        <ele>152.04995728</ele>
        <time>2022-10-30T10:20:42Z</time>
      </trkpt>
      <trkpt lat="41.3955567" lon="2.0879567">
        <ele>152.2699585</ele>
        <time>2022-10-30T10:20:43Z</time>
      </trkpt>
      <trkpt lat="41.3955517" lon="2.0880026">
        <ele>152.45996094</ele>
        <time>2022-10-30T10:20:44Z</time>
      </trkpt>
      <trkpt lat="41.3955488" lon="2.0880376">
        <ele>152.63995361</ele>
        <time>2022-10-30T10:20:45Z</time>
      </trkpt>
      <trkpt lat="41.3955438" lon="2.0880726">
        <ele>152.87995911</ele>
        <time>2022-10-30T10:20:46Z</time>
      </trkpt>
      <trkpt lat="41.3955349" lon="2.0881126">
        <ele>153.17996216</ele>
        <time>2022-10-30T10:20:47Z</time>
      </trkpt>
      <trkpt lat="41.3955249" lon="2.0881375">
        <ele>153.56996155</ele>
        <time>2022-10-30T10:20:48Z</time>
      </trkpt>
      <trkpt lat="41.395522" lon="2.0881635">
        <ele>153.98995972</ele>
        <time>2022-10-30T10:20:49Z</time>
      </trkpt>
      <trkpt lat="41.3955181" lon="2.0881914">
        <ele>154.44996643</ele>
        <time>2022-10-30T10:20:50Z</time>
      </trkpt>
      <trkpt lat="41.3955111" lon="2.0882283">
        <ele>154.82997131</ele>
        <time>2022-10-30T10:20:51Z</time>
      </trkpt>
      <trkpt lat="41.3955092" lon="2.0882553">
        <ele>155.2199707</ele>
        <time>2022-10-30T10:20:52Z</time>
      </trkpt>
      <trkpt lat="41.3955111" lon="2.0882713">
        <ele>155.60997009</ele>
        <time>2022-10-30T10:20:53Z</time>
      </trkpt>
      <trkpt lat="41.3955171" lon="2.0882882">
        <ele>155.9599762</ele>
        <time>2022-10-30T10:20:54Z</time>
      </trkpt>
      <trkpt lat="41.395526" lon="2.0883131">
        <ele>156.28997803</ele>
        <time>2022-10-30T10:20:55Z</time>
      </trkpt>
      <trkpt lat="41.3955349" lon="2.0883471">
        <ele>156.57997131</ele>
        <time>2022-10-30T10:20:56Z</time>
      </trkpt>
      <trkpt lat="41.3955479" lon="2.088373">
        <ele>156.79997253</ele>
        <time>2022-10-30T10:20:57Z</time>
      </trkpt>
      <trkpt lat="41.3955558" lon="2.088405">
        <ele>157.00997925</ele>
        <time>2022-10-30T10:20:58Z</time>
      </trkpt>
      <trkpt lat="41.3955618" lon="2.088429">
        <ele>157.21998596</ele>
        <time>2022-10-30T10:20:59Z</time>
      </trkpt>
      <trkpt lat="41.3955667" lon="2.088477">
        <ele>157.4099884</ele>
        <time>2022-10-30T10:21:00Z</time>
      </trkpt>
      <trkpt lat="41.3955737" lon="2.0885169">
        <ele>157.58998108</ele>
        <time>2022-10-30T10:21:01Z</time>
      </trkpt>
      <trkpt lat="41.3955678" lon="2.0885569">
        <ele>157.72998047</ele>
        <time>2022-10-30T10:21:02Z</time>
      </trkpt>
      <trkpt lat="41.3955737" lon="2.0885958">
        <ele>157.85998535</ele>
        <time>2022-10-30T10:21:03Z</time>
      </trkpt>
      <trkpt lat="41.3955717" lon="2.0886218">
        <ele>157.93998718</ele>
        <time>2022-10-30T10:21:04Z</time>
      </trkpt>
      <trkpt lat="41.3955708" lon="2.0886687">
        <ele>158.04998779</ele>
        <time>2022-10-30T10:21:05Z</time>
      </trkpt>
      <trkpt lat="41.3955638" lon="2.0887017">
        <ele>158.17999268</ele>
        <time>2022-10-30T10:21:06Z</time>
      </trkpt>
      <trkpt lat="41.3955599" lon="2.0887337">
        <ele>158.32998657</ele>
        <time>2022-10-30T10:21:07Z</time>
      </trkpt>
      <trkpt lat="41.3955579" lon="2.0887636">
        <ele>158.53999329</ele>
        <time>2022-10-30T10:21:08Z</time>
      </trkpt>
      <trkpt lat="41.395551" lon="2.0888196">
        <ele>158.75999451</ele>
        <time>2022-10-30T10:21:09Z</time>
      </trkpt>
      <trkpt lat="41.3955421" lon="2.0888516">
        <ele>159.00999451</ele>
        <time>2022-10-30T10:21:10Z</time>
      </trkpt>
      <trkpt lat="41.3955321" lon="2.0888795">
        <ele>159.28999329</ele>
        <time>2022-10-30T10:21:11Z</time>
      </trkpt>
      <trkpt lat="41.3955211" lon="2.0889004">
        <ele>159.56999207</ele>
        <time>2022-10-30T10:21:12Z</time>
      </trkpt>
      <trkpt lat="41.3955122" lon="2.0889283">
        <ele>159.8999939</ele>
        <time>2022-10-30T10:21:13Z</time>
      </trkpt>
      <trkpt lat="41.3955131" lon="2.0889963">
        <ele>160.25999451</ele>
        <time>2022-10-30T10:21:14Z</time>
      </trkpt>
      <trkpt lat="41.3955122" lon="2.0890313">
        <ele>160.58000183</ele>
        <time>2022-10-30T10:21:15Z</time>
      </trkpt>
      <trkpt lat="41.3955082" lon="2.0890663">
        <ele>160.96000671</ele>
        <time>2022-10-30T10:21:16Z</time>
      </trkpt>
      <trkpt lat="41.3955013" lon="2.0890933">
        <ele>161.31001282</ele>
        <time>2022-10-30T10:21:17Z</time>
      </trkpt>
      <trkpt lat="41.3954894" lon="2.0891372">
        <ele>161.5900116</ele>
        <time>2022-10-30T10:21:18Z</time>
      </trkpt>
      <trkpt lat="41.3954824" lon="2.0891801">
        <ele>161.93000793</ele>
        <time>2022-10-30T10:21:19Z</time>
      </trkpt>
      <trkpt lat="41.3954795" lon="2.0892391">
        <ele>162.20001221</ele>
        <time>2022-10-30T10:21:20Z</time>
      </trkpt>
      <trkpt lat="41.3954715" lon="2.089276">
        <ele>162.4400177</ele>
        <time>2022-10-30T10:21:21Z</time>
      </trkpt>
      <trkpt lat="41.3954546" lon="2.0893159">
        <ele>162.73001099</ele>
        <time>2022-10-30T10:21:22Z</time>
      </trkpt>
      <trkpt lat="41.3954377" lon="2.0893689">
        <ele>163.02000427</ele>
        <time>2022-10-30T10:21:23Z</time>
      </trkpt>
      <trkpt lat="41.3954248" lon="2.0894058">
        <ele>163.30999756</ele>
        <time>2022-10-30T10:21:24Z</time>
      </trkpt>
      <trkpt lat="41.3954079" lon="2.0894418">
        <ele>163.55999756</ele>
        <time>2022-10-30T10:21:25Z</time>
      </trkpt>
      <trkpt lat="41.3953969" lon="2.0894827">
        <ele>165.61999512</ele>
        <time>2022-10-30T10:21:26Z</time>
      </trkpt>
      <trkpt lat="41.3953949" lon="2.0895316">
        <ele>165.80999756</ele>
        <time>2022-10-30T10:21:27Z</time>
      </trkpt>
      <trkpt lat="41.3953869" lon="2.0895866">
        <ele>166</ele>
        <time>2022-10-30T10:21:28Z</time>
      </trkpt>
      <trkpt lat="41.3953819" lon="2.0896226">
        <ele>166.27999878</ele>
        <time>2022-10-30T10:21:29Z</time>
      </trkpt>
      <trkpt lat="41.395381" lon="2.0896546">
        <ele>166.55000305</ele>
        <time>2022-10-30T10:21:30Z</time>
      </trkpt>
      <trkpt lat="41.395381" lon="2.0897325">
        <ele>166.80000305</ele>
        <time>2022-10-30T10:21:31Z</time>
      </trkpt>
      <trkpt lat="41.3953819" lon="2.0897764">
        <ele>167.1000061</ele>
        <time>2022-10-30T10:21:32Z</time>
      </trkpt>
      <trkpt lat="41.3953869" lon="2.0898114">
        <ele>167.36000061</ele>
        <time>2022-10-30T10:21:33Z</time>
      </trkpt>
      <trkpt lat="41.3953979" lon="2.0898504">
        <ele>167.61000061</ele>
        <time>2022-10-30T10:21:34Z</time>
      </trkpt>
      <trkpt lat="41.3954109" lon="2.0898924">
        <ele>167.86000061</ele>
        <time>2022-10-30T10:21:35Z</time>
      </trkpt>
      <trkpt lat="41.3954338" lon="2.0899483">
        <ele>168.11999512</ele>
        <time>2022-10-30T10:21:36Z</time>
      </trkpt>
      <trkpt lat="41.3954537" lon="2.0900233">
        <ele>168.38999939</ele>
        <time>2022-10-30T10:21:37Z</time>
      </trkpt>
      <trkpt lat="41.3954557" lon="2.0900672">
        <ele>168.69999695</ele>
        <time>2022-10-30T10:21:38Z</time>
      </trkpt>
      <trkpt lat="41.3954576" lon="2.0901031">
        <ele>168.97999573</ele>
        <time>2022-10-30T10:21:39Z</time>
      </trkpt>
      <trkpt lat="41.3954496" lon="2.0901431">
        <ele>169.22999573</ele>
        <time>2022-10-30T10:21:40Z</time>
      </trkpt>
      <trkpt lat="41.3954367" lon="2.0901941">
        <ele>169.53999329</ele>
        <time>2022-10-30T10:21:41Z</time>
      </trkpt>
      <trkpt lat="41.3954367" lon="2.090233">
        <ele>169.83999634</ele>
        <time>2022-10-30T10:21:42Z</time>
      </trkpt>
      <trkpt lat="41.3954347" lon="2.090273">
        <ele>170.1499939</ele>
        <time>2022-10-30T10:21:43Z</time>
      </trkpt>
      <trkpt lat="41.3954318" lon="2.0903109">
        <ele>170.45999146</ele>
        <time>2022-10-30T10:21:44Z</time>
      </trkpt>
      <trkpt lat="41.3954249" lon="2.0903358">
        <ele>170.74998474</ele>
        <time>2022-10-30T10:21:45Z</time>
      </trkpt>
      <trkpt lat="41.3954209" lon="2.0903757">
        <ele>171.07998657</ele>
        <time>2022-10-30T10:21:46Z</time>
      </trkpt>
      <trkpt lat="41.395409" lon="2.0903987">
        <ele>171.43998718</ele>
        <time>2022-10-30T10:21:47Z</time>
      </trkpt>
      <trkpt lat="41.395399" lon="2.0904206">
        <ele>171.87998962</ele>
        <time>2022-10-30T10:21:48Z</time>
      </trkpt>
      <trkpt lat="41.3953951" lon="2.0904336">
        <ele>172.33999634</ele>
        <time>2022-10-30T10:21:49Z</time>
      </trkpt>
      <trkpt lat="41.3953922" lon="2.0904675">
        <ele>172.83999634</ele>
        <time>2022-10-30T10:21:50Z</time>
      </trkpt>
      <trkpt lat="41.3953893" lon="2.0904895">
        <ele>173.33000183</ele>
        <time>2022-10-30T10:21:51Z</time>
      </trkpt>
      <trkpt lat="41.3953853" lon="2.0905044">
        <ele>173.75999451</ele>
        <time>2022-10-30T10:21:52Z</time>
      </trkpt>
      <trkpt lat="41.3953814" lon="2.0905233">
        <ele>174.13999939</ele>
        <time>2022-10-30T10:21:53Z</time>
      </trkpt>
      <trkpt lat="41.3953805" lon="2.0905583">
        <ele>174.50999451</ele>
        <time>2022-10-30T10:21:54Z</time>
      </trkpt>
      <trkpt lat="41.3953795" lon="2.0905743">
        <ele>174.91999817</ele>
        <time>2022-10-30T10:21:55Z</time>
      </trkpt>
      <trkpt lat="41.3953845" lon="2.0905973">
        <ele>175.33000183</ele>
        <time>2022-10-30T10:21:56Z</time>
      </trkpt>
      <trkpt lat="41.3953874" lon="2.0906232">
        <ele>175.75</ele>
        <time>2022-10-30T10:21:57Z</time>
      </trkpt>
      <trkpt lat="41.3953894" lon="2.0906502">
        <ele>176.1499939</ele>
        <time>2022-10-30T10:21:58Z</time>
      </trkpt>
      <trkpt lat="41.3953933" lon="2.0906952">
        <ele>176.47000122</ele>
        <time>2022-10-30T10:21:59Z</time>
      </trkpt>
      <trkpt lat="41.3953983" lon="2.0907281">
        <ele>176.77000427</ele>
        <time>2022-10-30T10:22:00Z</time>
      </trkpt>
      <trkpt lat="41.3954102" lon="2.0907571">
        <ele>177.05000305</ele>
        <time>2022-10-30T10:22:01Z</time>
      </trkpt>
      <trkpt lat="41.3954191" lon="2.0907831">
        <ele>177.38000488</ele>
        <time>2022-10-30T10:22:02Z</time>
      </trkpt>
      <trkpt lat="41.3954221" lon="2.0908061">
        <ele>177.73001099</ele>
        <time>2022-10-30T10:22:03Z</time>
      </trkpt>
      <trkpt lat="41.395433" lon="2.090855">
        <ele>178.0900116</ele>
        <time>2022-10-30T10:22:04Z</time>
      </trkpt>
      <trkpt lat="41.395439" lon="2.090879">
        <ele>178.48001099</ele>
        <time>2022-10-30T10:22:05Z</time>
      </trkpt>
      <trkpt lat="41.3954479" lon="2.090908">
        <ele>178.78001404</ele>
        <time>2022-10-30T10:22:06Z</time>
      </trkpt>
      <trkpt lat="41.3954608" lon="2.0909439">
        <ele>179.10002136</ele>
        <time>2022-10-30T10:22:07Z</time>
      </trkpt>
      <trkpt lat="41.3954878" lon="2.0909929">
        <ele>179.41001892</ele>
        <time>2022-10-30T10:22:08Z</time>
      </trkpt>
      <trkpt lat="41.3955038" lon="2.0910258">
        <ele>179.74002075</ele>
        <time>2022-10-30T10:22:09Z</time>
      </trkpt>
      <trkpt lat="41.3955227" lon="2.0910498">
        <ele>180.13002014</ele>
        <time>2022-10-30T10:22:10Z</time>
      </trkpt>
      <trkpt lat="41.3955396" lon="2.0910777">
        <ele>180.53001404</ele>
        <time>2022-10-30T10:22:11Z</time>
      </trkpt>
      <trkpt lat="41.3955586" lon="2.0910996">
        <ele>180.95001221</ele>
        <time>2022-10-30T10:22:12Z</time>
      </trkpt>
      <trkpt lat="41.3955955" lon="2.0911236">
        <ele>181.41001892</ele>
        <time>2022-10-30T10:22:13Z</time>
      </trkpt>
      <trkpt lat="41.3956105" lon="2.0911445">
        <ele>181.8400116</ele>
        <time>2022-10-30T10:22:14Z</time>
      </trkpt>
      <trkpt lat="41.3956274" lon="2.0911684">
        <ele>182.31001282</ele>
        <time>2022-10-30T10:22:15Z</time>
      </trkpt>
      <trkpt lat="41.3956463" lon="2.0911904">
        <ele>182.80001831</ele>
        <time>2022-10-30T10:22:16Z</time>
      </trkpt>
      <trkpt lat="41.3956743" lon="2.0912254">
        <ele>183.27001953</ele>
        <time>2022-10-30T10:22:17Z</time>
      </trkpt>
      <trkpt lat="41.3956903" lon="2.0912493">
        <ele>183.80001831</ele>
        <time>2022-10-30T10:22:18Z</time>
      </trkpt>
      <trkpt lat="41.3957072" lon="2.0912702">
        <ele>184.2900238</ele>
        <time>2022-10-30T10:22:19Z</time>
      </trkpt>
      <trkpt lat="41.3957252" lon="2.0912912">
        <ele>184.7900238</ele>
        <time>2022-10-30T10:22:20Z</time>
      </trkpt>
      <trkpt lat="41.3957471" lon="2.0913291">
        <ele>185.30001831</ele>
        <time>2022-10-30T10:22:21Z</time>
      </trkpt>
      <trkpt lat="41.3957601" lon="2.091356">
        <ele>185.8400116</ele>
        <time>2022-10-30T10:22:22Z</time>
      </trkpt>
      <trkpt lat="41.395775" lon="2.091387">
        <ele>186.48001099</ele>
        <time>2022-10-30T10:22:23Z</time>
      </trkpt>
      <trkpt lat="41.395788" lon="2.0914229">
        <ele>187.11001587</ele>
        <time>2022-10-30T10:22:24Z</time>
      </trkpt>
      <trkpt lat="41.3957939" lon="2.0914519">
        <ele>187.71002197</ele>
        <time>2022-10-30T10:22:25Z</time>
      </trkpt>
      <trkpt lat="41.3957989" lon="2.0915088">
        <ele>188.24002075</ele>
        <time>2022-10-30T10:22:26Z</time>
      </trkpt>
      <trkpt lat="41.395796" lon="2.0915388">
        <ele>188.61001587</ele>
        <time>2022-10-30T10:22:27Z</time>
      </trkpt>
      <trkpt lat="41.3957871" lon="2.0915657">
        <ele>189.0900116</ele>
        <time>2022-10-30T10:22:28Z</time>
      </trkpt>
      <trkpt lat="41.3957771" lon="2.0915927">
        <ele>189.61001587</ele>
        <time>2022-10-30T10:22:29Z</time>
      </trkpt>
      <trkpt lat="41.3957652" lon="2.0916096">
        <ele>190.17001343</ele>
        <time>2022-10-30T10:22:30Z</time>
      </trkpt>
      <trkpt lat="41.3957272" lon="2.0916116">
        <ele>190.80001831</ele>
        <time>2022-10-30T10:22:31Z</time>
      </trkpt>
      <trkpt lat="41.3956963" lon="2.0916076">
        <ele>191.3400116</ele>
        <time>2022-10-30T10:22:32Z</time>
      </trkpt>
      <trkpt lat="41.3956674" lon="2.0916125">
        <ele>191.81001282</ele>
        <time>2022-10-30T10:22:33Z</time>
      </trkpt>
      <trkpt lat="41.3956415" lon="2.0916154">
        <ele>192.26000977</ele>
        <time>2022-10-30T10:22:34Z</time>
      </trkpt>
      <trkpt lat="41.3956106" lon="2.0916224">
        <ele>192.72001648</ele>
        <time>2022-10-30T10:22:35Z</time>
      </trkpt>
      <trkpt lat="41.3955926" lon="2.0916253">
        <ele>193.05001831</ele>
        <time>2022-10-30T10:22:36Z</time>
      </trkpt>
      <trkpt lat="41.3955737" lon="2.0916312">
        <ele>193.49002075</ele>
        <time>2022-10-30T10:22:37Z</time>
      </trkpt>
      <trkpt lat="41.3955507" lon="2.0916462">
        <ele>193.97001648</ele>
        <time>2022-10-30T10:22:38Z</time>
      </trkpt>
      <trkpt lat="41.3955238" lon="2.0916921">
        <ele>194.41001892</ele>
        <time>2022-10-30T10:22:39Z</time>
      </trkpt>
      <trkpt lat="41.3955078" lon="2.0917091">
        <ele>194.93002319</ele>
        <time>2022-10-30T10:22:40Z</time>
      </trkpt>
      <trkpt lat="41.3954998" lon="2.091733">
        <ele>195.36001587</ele>
        <time>2022-10-30T10:22:41Z</time>
      </trkpt>
      <trkpt lat="41.3954929" lon="2.091756">
        <ele>195.66001892</ele>
        <time>2022-10-30T10:22:42Z</time>
      </trkpt>
      <trkpt lat="41.3954799" lon="2.09178">
        <ele>195.95001221</ele>
        <time>2022-10-30T10:22:43Z</time>
      </trkpt>
      <trkpt lat="41.3954609" lon="2.0918119">
        <ele>196.28001404</ele>
        <time>2022-10-30T10:22:44Z</time>
      </trkpt>
      <trkpt lat="41.395449" lon="2.0918359">
        <ele>196.60002136</ele>
        <time>2022-10-30T10:22:45Z</time>
      </trkpt>
      <trkpt lat="41.3954401" lon="2.0918608">
        <ele>197.02001953</ele>
        <time>2022-10-30T10:22:46Z</time>
      </trkpt>
      <trkpt lat="41.3954291" lon="2.0918838">
        <ele>197.48002625</ele>
        <time>2022-10-30T10:22:47Z</time>
      </trkpt>
      <trkpt lat="41.3954191" lon="2.0919297">
        <ele>197.89002991</ele>
        <time>2022-10-30T10:22:48Z</time>
      </trkpt>
      <trkpt lat="41.3954102" lon="2.0919617">
        <ele>198.2900238</ele>
        <time>2022-10-30T10:22:49Z</time>
      </trkpt>
      <trkpt lat="41.3954003" lon="2.0919977">
        <ele>198.6900177</ele>
        <time>2022-10-30T10:22:50Z</time>
      </trkpt>
      <trkpt lat="41.3953893" lon="2.0920346">
        <ele>199.03001404</ele>
        <time>2022-10-30T10:22:51Z</time>
      </trkpt>
      <trkpt lat="41.3953783" lon="2.0920676">
        <ele>199.4400177</ele>
        <time>2022-10-30T10:22:52Z</time>
      </trkpt>
      <trkpt lat="41.3953653" lon="2.0921165">
        <ele>199.90002441</ele>
        <time>2022-10-30T10:22:53Z</time>
      </trkpt>
      <trkpt lat="41.3953543" lon="2.0921395">
        <ele>200.32002258</ele>
        <time>2022-10-30T10:22:54Z</time>
      </trkpt>
      <trkpt lat="41.3953454" lon="2.0921745">
        <ele>200.7900238</ele>
        <time>2022-10-30T10:22:55Z</time>
      </trkpt>
      <trkpt lat="41.3953404" lon="2.0922115">
        <ele>201.24002075</ele>
        <time>2022-10-30T10:22:56Z</time>
      </trkpt>
      <trkpt lat="41.3953255" lon="2.0922594">
        <ele>201.63002014</ele>
        <time>2022-10-30T10:22:57Z</time>
      </trkpt>
      <trkpt lat="41.3953125" lon="2.0922884">
        <ele>202.03001404</ele>
        <time>2022-10-30T10:22:58Z</time>
      </trkpt>
      <trkpt lat="41.3952996" lon="2.0923314">
        <ele>202.39001465</ele>
        <time>2022-10-30T10:22:59Z</time>
      </trkpt>
      <trkpt lat="41.3952877" lon="2.0923664">
        <ele>202.72001648</ele>
        <time>2022-10-30T10:23:00Z</time>
      </trkpt>
      <trkpt lat="41.3952727" lon="2.0923894">
        <ele>203.07002258</ele>
        <time>2022-10-30T10:23:01Z</time>
      </trkpt>
      <trkpt lat="41.3952578" lon="2.0924323">
        <ele>203.36001587</ele>
        <time>2022-10-30T10:23:02Z</time>
      </trkpt>
      <trkpt lat="41.3952459" lon="2.0924713">
        <ele>203.66001892</ele>
        <time>2022-10-30T10:23:03Z</time>
      </trkpt>
      <trkpt lat="41.3952349" lon="2.0924992">
        <ele>203.95001221</ele>
        <time>2022-10-30T10:23:04Z</time>
      </trkpt>
      <trkpt lat="41.3952249" lon="2.0925241">
        <ele>204.25001526</ele>
        <time>2022-10-30T10:23:05Z</time>
      </trkpt>
      <trkpt lat="41.39521" lon="2.092561">
        <ele>204.58001709</ele>
        <time>2022-10-30T10:23:06Z</time>
      </trkpt>
      <trkpt lat="41.395199" lon="2.092573">
        <ele>204.88002014</ele>
        <time>2022-10-30T10:23:07Z</time>
      </trkpt>
      <trkpt lat="41.3951841" lon="2.0925799">
        <ele>205.09002686</ele>
        <time>2022-10-30T10:23:08Z</time>
      </trkpt>
      <trkpt lat="41.3951651" lon="2.0926039">
        <ele>205.2800293</ele>
        <time>2022-10-30T10:23:09Z</time>
      </trkpt>
      <trkpt lat="41.3951461" lon="2.0926269">
        <ele>205.46002197</ele>
        <time>2022-10-30T10:23:10Z</time>
      </trkpt>
      <trkpt lat="41.3951191" lon="2.0926728">
        <ele>205.63002014</ele>
        <time>2022-10-30T10:23:11Z</time>
      </trkpt>
      <trkpt lat="41.3951022" lon="2.0926988">
        <ele>205.89001465</ele>
        <time>2022-10-30T10:23:12Z</time>
      </trkpt>
      <trkpt lat="41.3950882" lon="2.0927288">
        <ele>206.15000916</ele>
        <time>2022-10-30T10:23:13Z</time>
      </trkpt>
      <trkpt lat="41.3950663" lon="2.0927607">
        <ele>206.45001221</ele>
        <time>2022-10-30T10:23:14Z</time>
      </trkpt>
      <trkpt lat="41.3950283" lon="2.0927837">
        <ele>206.77001953</ele>
        <time>2022-10-30T10:23:15Z</time>
      </trkpt>
      <trkpt lat="41.3949923" lon="2.0927808">
        <ele>207.06001282</ele>
        <time>2022-10-30T10:23:16Z</time>
      </trkpt>
      <trkpt lat="41.3949574" lon="2.0927848">
        <ele>207.33001709</ele>
        <time>2022-10-30T10:23:17Z</time>
      </trkpt>
      <trkpt lat="41.3949334" lon="2.0927907">
        <ele>207.52001953</ele>
        <time>2022-10-30T10:23:18Z</time>
      </trkpt>
      <trkpt lat="41.3949115" lon="2.0927828">
        <ele>207.74002075</ele>
        <time>2022-10-30T10:23:19Z</time>
      </trkpt>
      <trkpt lat="41.3948915" lon="2.0927488">
        <ele>207.93002319</ele>
        <time>2022-10-30T10:23:20Z</time>
      </trkpt>
      <trkpt lat="41.3948846" lon="2.0927258">
        <ele>208.0300293</ele>
        <time>2022-10-30T10:23:21Z</time>
      </trkpt>
      <trkpt lat="41.3948677" lon="2.0927318">
        <ele>208.07002258</ele>
        <time>2022-10-30T10:23:22Z</time>
      </trkpt>
      <trkpt lat="41.3948757" lon="2.0927058">
        <ele>207.99002075</ele>
        <time>2022-10-30T10:23:23Z</time>
      </trkpt>
      <trkpt lat="41.3948776" lon="2.0926918">
        <ele>207.78001404</ele>
        <time>2022-10-30T10:23:24Z</time>
      </trkpt>
      <trkpt lat="41.3948946" lon="2.0925599">
        <ele>207.23001099</ele>
        <time>2022-10-30T10:23:26Z</time>
      </trkpt>
      <trkpt lat="41.3949065" lon="2.0925049">
        <ele>206.93000793</ele>
        <time>2022-10-30T10:23:27Z</time>
      </trkpt>
      <trkpt lat="41.3949115" lon="2.0924559">
        <ele>206.78001404</ele>
        <time>2022-10-30T10:23:28Z</time>
      </trkpt>
      <trkpt lat="41.3948985" lon="2.092372">
        <ele>206.67001343</ele>
        <time>2022-10-30T10:23:29Z</time>
      </trkpt>
      <trkpt lat="41.3949085" lon="2.092301">
        <ele>206.64001465</ele>
        <time>2022-10-30T10:23:30Z</time>
      </trkpt>
      <trkpt lat="41.3949104" lon="2.0922291">
        <ele>206.68000793</ele>
        <time>2022-10-30T10:23:31Z</time>
      </trkpt>
      <trkpt lat="41.3949254" lon="2.0921891">
        <ele>206.73001099</ele>
        <time>2022-10-30T10:23:32Z</time>
      </trkpt>
      <trkpt lat="41.3949803" lon="2.0920832">
        <ele>206.8400116</ele>
        <time>2022-10-30T10:23:33Z</time>
      </trkpt>
      <trkpt lat="41.3949982" lon="2.0920592">
        <ele>206.9400177</ele>
        <time>2022-10-30T10:23:34Z</time>
      </trkpt>
      <trkpt lat="41.3949953" lon="2.0920263">
        <ele>207.03001404</ele>
        <time>2022-10-30T10:23:35Z</time>
      </trkpt>
      <trkpt lat="41.3950003" lon="2.0919854">
        <ele>207.11001587</ele>
        <time>2022-10-30T10:23:36Z</time>
      </trkpt>
      <trkpt lat="41.3950172" lon="2.0919774">
        <ele>207.22001648</ele>
        <time>2022-10-30T10:23:37Z</time>
      </trkpt>
      <trkpt lat="41.3950092" lon="2.0919384">
        <ele>207.37001038</ele>
        <time>2022-10-30T10:23:38Z</time>
      </trkpt>
      <trkpt lat="41.3950222" lon="2.0919185">
        <ele>207.56001282</ele>
        <time>2022-10-30T10:23:39Z</time>
      </trkpt>
      <trkpt lat="41.3950222" lon="2.0918955">
        <ele>207.74000549</ele>
        <time>2022-10-30T10:23:40Z</time>
      </trkpt>
      <trkpt lat="41.3950213" lon="2.0918676">
        <ele>207.91000366</ele>
        <time>2022-10-30T10:23:41Z</time>
      </trkpt>
      <trkpt lat="41.3949893" lon="2.0918276">
        <ele>208.07000732</ele>
        <time>2022-10-30T10:23:42Z</time>
      </trkpt>
      <trkpt lat="41.3949604" lon="2.0918137">
        <ele>208.17001343</ele>
        <time>2022-10-30T10:23:43Z</time>
      </trkpt>
      <trkpt lat="41.3949164" lon="2.0917907">
        <ele>208.20001221</ele>
        <time>2022-10-30T10:23:44Z</time>
      </trkpt>
      <trkpt lat="41.3948685" lon="2.0917638">
        <ele>208.18000793</ele>
        <time>2022-10-30T10:23:45Z</time>
      </trkpt>
      <trkpt lat="41.3948356" lon="2.0917218">
        <ele>208.04000854</ele>
        <time>2022-10-30T10:23:46Z</time>
      </trkpt>
      <trkpt lat="41.3947796" lon="2.0916638">
        <ele>207.83000183</ele>
        <time>2022-10-30T10:23:47Z</time>
      </trkpt>
      <trkpt lat="41.3947346" lon="2.0916199">
        <ele>207.52999878</ele>
        <time>2022-10-30T10:23:48Z</time>
      </trkpt>
      <trkpt lat="41.3946856" lon="2.0915899">
        <ele>207.19999695</ele>
        <time>2022-10-30T10:23:49Z</time>
      </trkpt>
      <trkpt lat="41.3946447" lon="2.091578">
        <ele>206.83000183</ele>
        <time>2022-10-30T10:23:50Z</time>
      </trkpt>
      <trkpt lat="41.3945777" lon="2.0915721">
        <ele>206.44999695</ele>
        <time>2022-10-30T10:23:51Z</time>
      </trkpt>
      <trkpt lat="41.3945397" lon="2.091575">
        <ele>205.97000122</ele>
        <time>2022-10-30T10:23:52Z</time>
      </trkpt>
      <trkpt lat="41.3944858" lon="2.0916059">
        <ele>205.54000854</ele>
        <time>2022-10-30T10:23:53Z</time>
      </trkpt>
      <trkpt lat="41.3944218" lon="2.0916338">
        <ele>205.16000366</ele>
        <time>2022-10-30T10:23:54Z</time>
      </trkpt>
      <trkpt lat="41.3943739" lon="2.0915899">
        <ele>204.73001099</ele>
        <time>2022-10-30T10:23:55Z</time>
      </trkpt>
      <trkpt lat="41.394359" lon="2.091553">
        <ele>204.58001709</ele>
        <time>2022-10-30T10:23:56Z</time>
      </trkpt>
      <trkpt lat="41.3943619" lon="2.091517">
        <ele>204.51000977</ele>
        <time>2022-10-30T10:23:57Z</time>
      </trkpt>
      <trkpt lat="41.3943829" lon="2.0914841">
        <ele>204.65000916</ele>
        <time>2022-10-30T10:23:58Z</time>
      </trkpt>
      <trkpt lat="41.3943928" lon="2.0914501">
        <ele>205.04000854</ele>
        <time>2022-10-30T10:23:59Z</time>
      </trkpt>
      <trkpt lat="41.3943987" lon="2.0914132">
        <ele>205.38000488</ele>
        <time>2022-10-30T10:24:00Z</time>
      </trkpt>
      <trkpt lat="41.3944027" lon="2.0913362">
        <ele>205.74000549</ele>
        <time>2022-10-30T10:24:01Z</time>
      </trkpt>
      <trkpt lat="41.3944096" lon="2.0912873">
        <ele>205.93000793</ele>
        <time>2022-10-30T10:24:02Z</time>
      </trkpt>
      <trkpt lat="41.3944185" lon="2.0912494">
        <ele>206.07000732</ele>
        <time>2022-10-30T10:24:03Z</time>
      </trkpt>
      <trkpt lat="41.3944305" lon="2.0912055">
        <ele>206.19000244</ele>
        <time>2022-10-30T10:24:04Z</time>
      </trkpt>
      <trkpt lat="41.3944454" lon="2.0911685">
        <ele>206.30000305</ele>
        <time>2022-10-30T10:24:05Z</time>
      </trkpt>
      <trkpt lat="41.3944445" lon="2.0911356">
        <ele>206.54000854</ele>
        <time>2022-10-30T10:24:06Z</time>
      </trkpt>
      <trkpt lat="41.3944494" lon="2.0910956">
        <ele>206.79000854</ele>
        <time>2022-10-30T10:24:07Z</time>
      </trkpt>
      <trkpt lat="41.3944574" lon="2.0910547">
        <ele>207.07000732</ele>
        <time>2022-10-30T10:24:08Z</time>
      </trkpt>
      <trkpt lat="41.3944594" lon="2.0910108">
        <ele>207.30000305</ele>
        <time>2022-10-30T10:24:09Z</time>
      </trkpt>
      <trkpt lat="41.3944734" lon="2.0909479">
        <ele>207.47000122</ele>
        <time>2022-10-30T10:24:10Z</time>
      </trkpt>
      <trkpt lat="41.3944743" lon="2.090901">
        <ele>207.6000061</ele>
        <time>2022-10-30T10:24:11Z</time>
      </trkpt>
      <trkpt lat="41.3944734" lon="2.090852">
        <ele>207.65000916</ele>
        <time>2022-10-30T10:24:12Z</time>
      </trkpt>
      <trkpt lat="41.3944763" lon="2.0908021">
        <ele>207.70001221</ele>
        <time>2022-10-30T10:24:13Z</time>
      </trkpt>
      <trkpt lat="41.3944903" lon="2.0907351">
        <ele>207.70001221</ele>
        <time>2022-10-30T10:24:14Z</time>
      </trkpt>
      <trkpt lat="41.3944844" lon="2.0906791">
        <ele>207.70001221</ele>
        <time>2022-10-30T10:24:15Z</time>
      </trkpt>
      <trkpt lat="41.3944714" lon="2.0906322">
        <ele>207.78001404</ele>
        <time>2022-10-30T10:24:16Z</time>
      </trkpt>
      <trkpt lat="41.3944545" lon="2.0905842">
        <ele>207.89001465</ele>
        <time>2022-10-30T10:24:17Z</time>
      </trkpt>
      <trkpt lat="41.3944376" lon="2.0905423">
        <ele>207.99002075</ele>
        <time>2022-10-30T10:24:18Z</time>
      </trkpt>
      <trkpt lat="41.3944096" lon="2.0904753">
        <ele>208.08001709</ele>
        <time>2022-10-30T10:24:19Z</time>
      </trkpt>
      <trkpt lat="41.3943897" lon="2.0904344">
        <ele>208.10002136</ele>
        <time>2022-10-30T10:24:20Z</time>
      </trkpt>
      <trkpt lat="41.3943638" lon="2.0903834">
        <ele>208.03001404</ele>
        <time>2022-10-30T10:24:21Z</time>
      </trkpt>
      <trkpt lat="41.3943358" lon="2.0903295">
        <ele>208.00001526</ele>
        <time>2022-10-30T10:24:22Z</time>
      </trkpt>
      <trkpt lat="41.3943008" lon="2.0902625">
        <ele>207.97001648</ele>
        <time>2022-10-30T10:24:23Z</time>
      </trkpt>
      <trkpt lat="41.3942649" lon="2.0902255">
        <ele>207.97001648</ele>
        <time>2022-10-30T10:24:24Z</time>
      </trkpt>
      <trkpt lat="41.3942199" lon="2.0901816">
        <ele>207.97001648</ele>
        <time>2022-10-30T10:24:25Z</time>
      </trkpt>
      <trkpt lat="41.3941789" lon="2.0901377">
        <ele>207.92001343</ele>
        <time>2022-10-30T10:24:26Z</time>
      </trkpt>
      <trkpt lat="41.394142" lon="2.0900987">
        <ele>207.83001709</ele>
        <time>2022-10-30T10:24:27Z</time>
      </trkpt>
      <trkpt lat="41.3940991" lon="2.0900317">
        <ele>207.75001526</ele>
        <time>2022-10-30T10:24:28Z</time>
      </trkpt>
      <trkpt lat="41.3940962" lon="2.0899708">
        <ele>207.6900177</ele>
        <time>2022-10-30T10:24:29Z</time>
      </trkpt>
      <trkpt lat="41.3940962" lon="2.0899208">
        <ele>207.66001892</ele>
        <time>2022-10-30T10:24:30Z</time>
      </trkpt>
      <trkpt lat="41.3940952" lon="2.0898649">
        <ele>207.63002014</ele>
        <time>2022-10-30T10:24:31Z</time>
      </trkpt>
      <trkpt lat="41.3941032" lon="2.0897999">
        <ele>207.62002563</ele>
        <time>2022-10-30T10:24:32Z</time>
      </trkpt>
      <trkpt lat="41.3941052" lon="2.089758">
        <ele>207.66001892</ele>
        <time>2022-10-30T10:24:33Z</time>
      </trkpt>
      <trkpt lat="41.3941102" lon="2.089714">
        <ele>207.66001892</ele>
        <time>2022-10-30T10:24:34Z</time>
      </trkpt>
      <trkpt lat="41.3941191" lon="2.0896661">
        <ele>207.66001892</ele>
        <time>2022-10-30T10:24:35Z</time>
      </trkpt>
      <trkpt lat="41.394132" lon="2.0896161">
        <ele>207.63002014</ele>
        <time>2022-10-30T10:24:36Z</time>
      </trkpt>
      <trkpt lat="41.394161" lon="2.0895402">
        <ele>207.62002563</ele>
        <time>2022-10-30T10:24:37Z</time>
      </trkpt>
      <trkpt lat="41.3941759" lon="2.0894883">
        <ele>207.66001892</ele>
        <time>2022-10-30T10:24:38Z</time>
      </trkpt>
      <trkpt lat="41.3941899" lon="2.0894273">
        <ele>207.74002075</ele>
        <time>2022-10-30T10:24:39Z</time>
      </trkpt>
      <trkpt lat="41.3941979" lon="2.0893674">
        <ele>207.76002502</ele>
        <time>2022-10-30T10:24:40Z</time>
      </trkpt>
      <trkpt lat="41.3942078" lon="2.0892764">
        <ele>207.71002197</ele>
        <time>2022-10-30T10:24:41Z</time>
      </trkpt>
      <trkpt lat="41.3941989" lon="2.0892175">
        <ele>207.60002136</ele>
        <time>2022-10-30T10:24:42Z</time>
      </trkpt>
      <trkpt lat="41.394184" lon="2.0891755">
        <ele>207.45002747</ele>
        <time>2022-10-30T10:24:43Z</time>
      </trkpt>
      <trkpt lat="41.3941641" lon="2.0891266">
        <ele>207.2900238</ele>
        <time>2022-10-30T10:24:44Z</time>
      </trkpt>
      <trkpt lat="41.3941261" lon="2.0890446">
        <ele>207.10002136</ele>
        <time>2022-10-30T10:24:45Z</time>
      </trkpt>
      <trkpt lat="41.3941011" lon="2.0889806">
        <ele>206.95002747</ele>
        <time>2022-10-30T10:24:46Z</time>
      </trkpt>
      <trkpt lat="41.3940682" lon="2.0889317">
        <ele>206.74002075</ele>
        <time>2022-10-30T10:24:47Z</time>
      </trkpt>
      <trkpt lat="41.3940352" lon="2.0888797">
        <ele>206.5400238</ele>
        <time>2022-10-30T10:24:48Z</time>
      </trkpt>
      <trkpt lat="41.3940173" lon="2.0888198">
        <ele>206.34002686</ele>
        <time>2022-10-30T10:24:49Z</time>
      </trkpt>
      <trkpt lat="41.3940182" lon="2.0887398">
        <ele>206.17002869</ele>
        <time>2022-10-30T10:24:50Z</time>
      </trkpt>
      <trkpt lat="41.3940322" lon="2.0886869">
        <ele>206.06002808</ele>
        <time>2022-10-30T10:24:51Z</time>
      </trkpt>
      <trkpt lat="41.3940462" lon="2.088646">
        <ele>206.00003052</ele>
        <time>2022-10-30T10:24:52Z</time>
      </trkpt>
      <trkpt lat="41.3940652" lon="2.0885991">
        <ele>205.98002625</ele>
        <time>2022-10-30T10:24:53Z</time>
      </trkpt>
      <trkpt lat="41.3940841" lon="2.0885311">
        <ele>205.93002319</ele>
        <time>2022-10-30T10:24:54Z</time>
      </trkpt>
      <trkpt lat="41.3940921" lon="2.0884822">
        <ele>205.92002869</ele>
        <time>2022-10-30T10:24:55Z</time>
      </trkpt>
      <trkpt lat="41.3941001" lon="2.0884422">
        <ele>205.92002869</ele>
        <time>2022-10-30T10:24:56Z</time>
      </trkpt>
      <trkpt lat="41.394101" lon="2.0883902">
        <ele>205.91003418</ele>
        <time>2022-10-30T10:24:57Z</time>
      </trkpt>
      <trkpt lat="41.3940901" lon="2.0883303">
        <ele>205.90003967</ele>
        <time>2022-10-30T10:24:58Z</time>
      </trkpt>
      <trkpt lat="41.3940711" lon="2.0882443">
        <ele>205.89004517</ele>
        <time>2022-10-30T10:24:59Z</time>
      </trkpt>
      <trkpt lat="41.3940591" lon="2.0881844">
        <ele>205.86004639</ele>
        <time>2022-10-30T10:25:00Z</time>
      </trkpt>
      <trkpt lat="41.3940502" lon="2.0881325">
        <ele>205.83004761</ele>
        <time>2022-10-30T10:25:01Z</time>
      </trkpt>
      <trkpt lat="41.3940453" lon="2.0880756">
        <ele>205.70004272</ele>
        <time>2022-10-30T10:25:02Z</time>
      </trkpt>
      <trkpt lat="41.3940353" lon="2.0880136">
        <ele>205.52005005</ele>
        <time>2022-10-30T10:25:03Z</time>
      </trkpt>
      <trkpt lat="41.3940034" lon="2.0879236">
        <ele>205.33004761</ele>
        <time>2022-10-30T10:25:04Z</time>
      </trkpt>
      <trkpt lat="41.3939774" lon="2.0878727">
        <ele>205.09004211</ele>
        <time>2022-10-30T10:25:05Z</time>
      </trkpt>
      <trkpt lat="41.3939475" lon="2.0878267">
        <ele>204.94004822</ele>
        <time>2022-10-30T10:25:06Z</time>
      </trkpt>
      <trkpt lat="41.3939155" lon="2.0878018">
        <ele>204.8200531</ele>
        <time>2022-10-30T10:25:07Z</time>
      </trkpt>
      <trkpt lat="41.3938576" lon="2.0878018">
        <ele>204.65005493</ele>
        <time>2022-10-30T10:25:08Z</time>
      </trkpt>
      <trkpt lat="41.3938156" lon="2.0878167">
        <ele>204.53005981</ele>
        <time>2022-10-30T10:25:09Z</time>
      </trkpt>
      <trkpt lat="41.3937757" lon="2.0878467">
        <ele>204.36006165</ele>
        <time>2022-10-30T10:25:10Z</time>
      </trkpt>
      <trkpt lat="41.3937337" lon="2.0878817">
        <ele>204.19006348</ele>
        <time>2022-10-30T10:25:11Z</time>
      </trkpt>
      <trkpt lat="41.3936917" lon="2.0879137">
        <ele>204.10006714</ele>
        <time>2022-10-30T10:25:12Z</time>
      </trkpt>
      <trkpt lat="41.3936367" lon="2.0879586">
        <ele>203.95007324</ele>
        <time>2022-10-30T10:25:13Z</time>
      </trkpt>
      <trkpt lat="41.3936018" lon="2.0879886">
        <ele>203.85006714</ele>
        <time>2022-10-30T10:25:14Z</time>
      </trkpt>
      <trkpt lat="41.3935679" lon="2.0880176">
        <ele>203.73007202</ele>
        <time>2022-10-30T10:25:15Z</time>
      </trkpt>
      <trkpt lat="41.393565" lon="2.088022">
        <ele>204.61000061</ele>
        <time>2022-10-30T10:25:15Z</time>
      </trkpt>
      <trkpt lat="41.39353" lon="2.088048">
        <ele>204.5</ele>
        <time>2022-10-30T10:25:16Z</time>
      </trkpt>
      <trkpt lat="41.3934991" lon="2.0880689">
        <ele>204.5</ele>
        <time>2022-10-30T10:25:17Z</time>
      </trkpt>
      <trkpt lat="41.3934442" lon="2.0880959">
        <ele>204.58999634</ele>
        <time>2022-10-30T10:25:18Z</time>
      </trkpt>
      <trkpt lat="41.3934082" lon="2.0881119">
        <ele>204.86999512</ele>
        <time>2022-10-30T10:25:19Z</time>
      </trkpt>
      <trkpt lat="41.3933653" lon="2.0881328">
        <ele>205.23999023</ele>
        <time>2022-10-30T10:25:20Z</time>
      </trkpt>
      <trkpt lat="41.3933133" lon="2.0881637">
        <ele>205.67999268</ele>
        <time>2022-10-30T10:25:21Z</time>
      </trkpt>
      <trkpt lat="41.3932814" lon="2.0881937">
        <ele>206.11999512</ele>
        <time>2022-10-30T10:25:22Z</time>
      </trkpt>
      <trkpt lat="41.3932544" lon="2.0882316">
        <ele>206.51998901</ele>
        <time>2022-10-30T10:25:23Z</time>
      </trkpt>
      <trkpt lat="41.3932285" lon="2.0882636">
        <ele>206.84999084</ele>
        <time>2022-10-30T10:25:24Z</time>
      </trkpt>
      <trkpt lat="41.3932116" lon="2.0883025">
        <ele>207.1599884</ele>
        <time>2022-10-30T10:25:25Z</time>
      </trkpt>
      <trkpt lat="41.3931887" lon="2.0883485">
        <ele>207.46998596</ele>
        <time>2022-10-30T10:25:26Z</time>
      </trkpt>
      <trkpt lat="41.3931587" lon="2.0883704">
        <ele>207.76998901</ele>
        <time>2022-10-30T10:25:27Z</time>
      </trkpt>
      <trkpt lat="41.3931337" lon="2.0883923">
        <ele>208.13998413</ele>
        <time>2022-10-30T10:25:28Z</time>
      </trkpt>
      <trkpt lat="41.3931048" lon="2.0884012">
        <ele>208.53997803</ele>
        <time>2022-10-30T10:25:29Z</time>
      </trkpt>
      <trkpt lat="41.3930778" lon="2.0884092">
        <ele>208.97998047</ele>
        <time>2022-10-30T10:25:30Z</time>
      </trkpt>
      <trkpt lat="41.3930489" lon="2.0884063">
        <ele>209.38998413</ele>
        <time>2022-10-30T10:25:31Z</time>
      </trkpt>
      <trkpt lat="41.393034" lon="2.0884082">
        <ele>209.75997925</ele>
        <time>2022-10-30T10:25:32Z</time>
      </trkpt>
      <trkpt lat="41.393023" lon="2.0884231">
        <ele>210.09997559</ele>
        <time>2022-10-30T10:25:33Z</time>
      </trkpt>
      <trkpt lat="41.3930001" lon="2.0884401">
        <ele>210.43997192</ele>
        <time>2022-10-30T10:25:34Z</time>
      </trkpt>
      <trkpt lat="41.3929891" lon="2.088458">
        <ele>210.84997559</ele>
        <time>2022-10-30T10:25:35Z</time>
      </trkpt>
      <trkpt lat="41.3929811" lon="2.0884829">
        <ele>211.28997803</ele>
        <time>2022-10-30T10:25:36Z</time>
      </trkpt>
      <trkpt lat="41.392985" lon="2.0885009">
        <ele>211.76997375</ele>
        <time>2022-10-30T10:25:37Z</time>
      </trkpt>
      <trkpt lat="41.392987" lon="2.0885239">
        <ele>212.33998108</ele>
        <time>2022-10-30T10:25:38Z</time>
      </trkpt>
      <trkpt lat="41.3929841" lon="2.0885488">
        <ele>212.91998291</ele>
        <time>2022-10-30T10:25:39Z</time>
      </trkpt>
      <trkpt lat="41.3929731" lon="2.0885697">
        <ele>213.49998474</ele>
        <time>2022-10-30T10:25:40Z</time>
      </trkpt>
      <trkpt lat="41.3929672" lon="2.0885976">
        <ele>214.03997803</ele>
        <time>2022-10-30T10:25:41Z</time>
      </trkpt>
      <trkpt lat="41.3929662" lon="2.0886415">
        <ele>214.52998352</ele>
        <time>2022-10-30T10:25:42Z</time>
      </trkpt>
      <trkpt lat="41.3929702" lon="2.0886935">
        <ele>214.96998596</ele>
        <time>2022-10-30T10:25:43Z</time>
      </trkpt>
      <trkpt lat="41.3929842" lon="2.0887605">
        <ele>215.43998718</ele>
        <time>2022-10-30T10:25:44Z</time>
      </trkpt>
      <trkpt lat="41.3929911" lon="2.0888044">
        <ele>215.85998535</ele>
        <time>2022-10-30T10:25:45Z</time>
      </trkpt>
      <trkpt lat="41.3929991" lon="2.0888534">
        <ele>216.29998779</ele>
        <time>2022-10-30T10:25:46Z</time>
      </trkpt>
      <trkpt lat="41.3929982" lon="2.0888963">
        <ele>216.73999023</ele>
        <time>2022-10-30T10:25:47Z</time>
      </trkpt>
      <trkpt lat="41.3930011" lon="2.0889372">
        <ele>217.11999512</ele>
        <time>2022-10-30T10:25:48Z</time>
      </trkpt>
      <trkpt lat="41.393002" lon="2.0889962">
        <ele>217.56999207</ele>
        <time>2022-10-30T10:25:49Z</time>
      </trkpt>
      <trkpt lat="41.393004" lon="2.0890451">
        <ele>217.99998474</ele>
        <time>2022-10-30T10:25:50Z</time>
      </trkpt>
      <trkpt lat="41.3930129" lon="2.0890951">
        <ele>218.44998169</ele>
        <time>2022-10-30T10:25:51Z</time>
      </trkpt>
      <trkpt lat="41.3930199" lon="2.089141">
        <ele>218.93998718</ele>
        <time>2022-10-30T10:25:52Z</time>
      </trkpt>
      <trkpt lat="41.3930348" lon="2.0892009">
        <ele>219.43998718</ele>
        <time>2022-10-30T10:25:53Z</time>
      </trkpt>
      <trkpt lat="41.3930417" lon="2.0892309">
        <ele>219.88998413</ele>
        <time>2022-10-30T10:25:54Z</time>
      </trkpt>
      <trkpt lat="41.3930557" lon="2.0892608">
        <ele>220.38998413</ele>
        <time>2022-10-30T10:25:55Z</time>
      </trkpt>
      <trkpt lat="41.3930677" lon="2.0893008">
        <ele>220.88998413</ele>
        <time>2022-10-30T10:25:56Z</time>
      </trkpt>
      <trkpt lat="41.3930746" lon="2.0893407">
        <ele>221.35998535</ele>
        <time>2022-10-30T10:25:57Z</time>
      </trkpt>
      <trkpt lat="41.3930856" lon="2.0894006">
        <ele>221.92999268</ele>
        <time>2022-10-30T10:25:58Z</time>
      </trkpt>
      <trkpt lat="41.3931005" lon="2.0894475">
        <ele>222.36999512</ele>
        <time>2022-10-30T10:25:59Z</time>
      </trkpt>
      <trkpt lat="41.3931155" lon="2.0894895">
        <ele>222.83000183</ele>
        <time>2022-10-30T10:26:00Z</time>
      </trkpt>
      <trkpt lat="41.3931274" lon="2.0895274">
        <ele>223.27000427</ele>
        <time>2022-10-30T10:26:01Z</time>
      </trkpt>
      <trkpt lat="41.3931464" lon="2.0895813">
        <ele>223.62001038</ele>
        <time>2022-10-30T10:26:02Z</time>
      </trkpt>
      <trkpt lat="41.3931604" lon="2.0896203">
        <ele>224.04000854</ele>
        <time>2022-10-30T10:26:03Z</time>
      </trkpt>
      <trkpt lat="41.3931763" lon="2.0896572">
        <ele>224.46000671</ele>
        <time>2022-10-30T10:26:04Z</time>
      </trkpt>
      <trkpt lat="41.3931863" lon="2.0896942">
        <ele>224.88999939</ele>
        <time>2022-10-30T10:26:05Z</time>
      </trkpt>
      <trkpt lat="41.3932042" lon="2.0897292">
        <ele>225.31999207</ele>
        <time>2022-10-30T10:26:06Z</time>
      </trkpt>
      <trkpt lat="41.3932232" lon="2.0897772">
        <ele>225.69999695</ele>
        <time>2022-10-30T10:26:07Z</time>
      </trkpt>
      <trkpt lat="41.3932392" lon="2.0898091">
        <ele>226.09999084</ele>
        <time>2022-10-30T10:26:08Z</time>
      </trkpt>
      <trkpt lat="41.3932561" lon="2.0898401">
        <ele>226.46998596</ele>
        <time>2022-10-30T10:26:09Z</time>
      </trkpt>
      <trkpt lat="41.3932701" lon="2.089867">
        <ele>226.9099884</ele>
        <time>2022-10-30T10:26:10Z</time>
      </trkpt>
      <trkpt lat="41.39329" lon="2.089909">
        <ele>227.32998657</ele>
        <time>2022-10-30T10:26:11Z</time>
      </trkpt>
      <trkpt lat="41.393303" lon="2.0899329">
        <ele>227.75997925</ele>
        <time>2022-10-30T10:26:12Z</time>
      </trkpt>
      <trkpt lat="41.3933159" lon="2.0899579">
        <ele>228.16998291</ele>
        <time>2022-10-30T10:26:13Z</time>
      </trkpt>
      <trkpt lat="41.3933278" lon="2.0899818">
        <ele>228.54998779</ele>
        <time>2022-10-30T10:26:14Z</time>
      </trkpt>
      <trkpt lat="41.3933408" lon="2.0900057">
        <ele>228.93998718</ele>
        <time>2022-10-30T10:26:15Z</time>
      </trkpt>
      <trkpt lat="41.3933688" lon="2.0900327">
        <ele>229.27998352</ele>
        <time>2022-10-30T10:26:16Z</time>
      </trkpt>
      <trkpt lat="41.3933887" lon="2.0900497">
        <ele>229.56997681</ele>
        <time>2022-10-30T10:26:17Z</time>
      </trkpt>
      <trkpt lat="41.3934127" lon="2.0900646">
        <ele>229.78997803</ele>
        <time>2022-10-30T10:26:18Z</time>
      </trkpt>
      <trkpt lat="41.3934346" lon="2.0900846">
        <ele>229.9699707</ele>
        <time>2022-10-30T10:26:19Z</time>
      </trkpt>
      <trkpt lat="41.3934655" lon="2.0901345">
        <ele>229.97996521</ele>
        <time>2022-10-30T10:26:20Z</time>
      </trkpt>
      <trkpt lat="41.3934875" lon="2.0901744">
        <ele>229.92996216</ele>
        <time>2022-10-30T10:26:21Z</time>
      </trkpt>
      <trkpt lat="41.3935115" lon="2.0902164">
        <ele>229.77996826</ele>
        <time>2022-10-30T10:26:22Z</time>
      </trkpt>
      <trkpt lat="41.3935305" lon="2.0902633">
        <ele>229.55996704</ele>
        <time>2022-10-30T10:26:23Z</time>
      </trkpt>
      <trkpt lat="41.3935574" lon="2.0903443">
        <ele>229.31996155</ele>
        <time>2022-10-30T10:26:24Z</time>
      </trkpt>
      <trkpt lat="41.3935743" lon="2.0903932">
        <ele>229.16996765</ele>
        <time>2022-10-30T10:26:25Z</time>
      </trkpt>
      <trkpt lat="41.3935903" lon="2.0904432">
        <ele>229.28996277</ele>
        <time>2022-10-30T10:26:26Z</time>
      </trkpt>
      <trkpt lat="41.3936072" lon="2.0904841">
        <ele>229.2699585</ele>
        <time>2022-10-30T10:26:27Z</time>
      </trkpt>
      <trkpt lat="41.3936171" lon="2.0905191">
        <ele>229.35995483</ele>
        <time>2022-10-30T10:26:28Z</time>
      </trkpt>
      <trkpt lat="41.3936341" lon="2.090572">
        <ele>229.49995422</ele>
        <time>2022-10-30T10:26:29Z</time>
      </trkpt>
      <trkpt lat="41.39364" lon="2.090607">
        <ele>229.7699585</ele>
        <time>2022-10-30T10:26:30Z</time>
      </trkpt>
      <trkpt lat="41.3936409" lon="2.090646">
        <ele>230.08996582</ele>
        <time>2022-10-30T10:26:31Z</time>
      </trkpt>
      <trkpt lat="41.3936429" lon="2.090688">
        <ele>230.37995911</ele>
        <time>2022-10-30T10:26:32Z</time>
      </trkpt>
      <trkpt lat="41.3936458" lon="2.0907209">
        <ele>230.67996216</ele>
        <time>2022-10-30T10:26:33Z</time>
      </trkpt>
      <trkpt lat="41.3936527" lon="2.0907808">
        <ele>230.91996765</ele>
        <time>2022-10-30T10:26:34Z</time>
      </trkpt>
      <trkpt lat="41.3936547" lon="2.0908178">
        <ele>231.07997131</ele>
        <time>2022-10-30T10:26:35Z</time>
      </trkpt>
      <trkpt lat="41.3936567" lon="2.0908557">
        <ele>231.26997375</ele>
        <time>2022-10-30T10:26:36Z</time>
      </trkpt>
      <trkpt lat="41.3936576" lon="2.0908936">
        <ele>231.39997864</ele>
        <time>2022-10-30T10:26:37Z</time>
      </trkpt>
      <trkpt lat="41.3936466" lon="2.0909515">
        <ele>231.42997742</ele>
        <time>2022-10-30T10:26:38Z</time>
      </trkpt>
      <trkpt lat="41.3936407" lon="2.0909955">
        <ele>231.42997742</ele>
        <time>2022-10-30T10:26:39Z</time>
      </trkpt>
      <trkpt lat="41.3936318" lon="2.0910384">
        <ele>231.34997559</ele>
        <time>2022-10-30T10:26:40Z</time>
      </trkpt>
      <trkpt lat="41.3936238" lon="2.0910853">
        <ele>231.14997864</ele>
        <time>2022-10-30T10:26:41Z</time>
      </trkpt>
      <trkpt lat="41.3936119" lon="2.0911543">
        <ele>231.06997681</ele>
        <time>2022-10-30T10:26:42Z</time>
      </trkpt>
      <trkpt lat="41.3936009" lon="2.0912032">
        <ele>230.90997314</ele>
        <time>2022-10-30T10:26:43Z</time>
      </trkpt>
      <trkpt lat="41.3935879" lon="2.0912571">
        <ele>230.75997925</ele>
        <time>2022-10-30T10:26:44Z</time>
      </trkpt>
      <trkpt lat="41.3935769" lon="2.0912971">
        <ele>230.7099762</ele>
        <time>2022-10-30T10:26:45Z</time>
      </trkpt>
      <trkpt lat="41.393561" lon="2.091335">
        <ele>230.58998108</ele>
        <time>2022-10-30T10:26:46Z</time>
      </trkpt>
      <trkpt lat="41.393549" lon="2.0914029">
        <ele>230.50997925</ele>
        <time>2022-10-30T10:26:47Z</time>
      </trkpt>
      <trkpt lat="41.3935441" lon="2.0914509">
        <ele>230.49998474</ele>
        <time>2022-10-30T10:26:48Z</time>
      </trkpt>
      <trkpt lat="41.3935401" lon="2.0914888">
        <ele>230.49998474</ele>
        <time>2022-10-30T10:26:49Z</time>
      </trkpt>
      <trkpt lat="41.3935342" lon="2.0915227">
        <ele>230.49998474</ele>
        <time>2022-10-30T10:26:50Z</time>
      </trkpt>
      <trkpt lat="41.3935253" lon="2.0915527">
        <ele>230.49998474</ele>
        <time>2022-10-30T10:26:51Z</time>
      </trkpt>
      <trkpt lat="41.3935063" lon="2.0915996">
        <ele>230.49998474</ele>
        <time>2022-10-30T10:26:52Z</time>
      </trkpt>
      <trkpt lat="41.3934974" lon="2.0916326">
        <ele>230.41998291</ele>
        <time>2022-10-30T10:26:53Z</time>
      </trkpt>
      <trkpt lat="41.3934814" lon="2.0916646">
        <ele>230.25997925</ele>
        <time>2022-10-30T10:26:54Z</time>
      </trkpt>
      <trkpt lat="41.3934715" lon="2.0917045">
        <ele>230.17997742</ele>
        <time>2022-10-30T10:26:55Z</time>
      </trkpt>
      <trkpt lat="41.3934635" lon="2.0917544">
        <ele>230.09997559</ele>
        <time>2022-10-30T10:26:56Z</time>
      </trkpt>
      <trkpt lat="41.3934565" lon="2.0917804">
        <ele>230.10997009</ele>
        <time>2022-10-30T10:26:57Z</time>
      </trkpt>
      <trkpt lat="41.3934526" lon="2.0918053">
        <ele>230.2099762</ele>
        <time>2022-10-30T10:26:58Z</time>
      </trkpt>
      <trkpt lat="41.3934565" lon="2.0918293">
        <ele>230.32997131</ele>
        <time>2022-10-30T10:26:59Z</time>
      </trkpt>
      <trkpt lat="41.3934585" lon="2.0918502">
        <ele>230.4599762</ele>
        <time>2022-10-30T10:27:00Z</time>
      </trkpt>
      <trkpt lat="41.3934556" lon="2.0918802">
        <ele>230.56997681</ele>
        <time>2022-10-30T10:27:01Z</time>
      </trkpt>
      <trkpt lat="41.3934585" lon="2.0919081">
        <ele>230.7099762</ele>
        <time>2022-10-30T10:27:02Z</time>
      </trkpt>
      <trkpt lat="41.3934535" lon="2.0919251">
        <ele>230.82997131</ele>
        <time>2022-10-30T10:27:03Z</time>
      </trkpt>
      <trkpt lat="41.3934466" lon="2.091934">
        <ele>230.92997742</ele>
        <time>2022-10-30T10:27:04Z</time>
      </trkpt>
      <trkpt lat="41.3934446" lon="2.0919509">
        <ele>231.02998352</ele>
        <time>2022-10-30T10:27:05Z</time>
      </trkpt>
      <trkpt lat="41.3934455" lon="2.0919619">
        <ele>231.12998962</ele>
        <time>2022-10-30T10:27:06Z</time>
      </trkpt>
      <trkpt lat="41.3934465" lon="2.0919719">
        <ele>231.25999451</ele>
        <time>2022-10-30T10:27:07Z</time>
      </trkpt>
      <trkpt lat="41.3934415" lon="2.0919879">
        <ele>231.33999634</ele>
        <time>2022-10-30T10:27:08Z</time>
      </trkpt>
      <trkpt lat="41.3934356" lon="2.0919998">
        <ele>231.44999695</ele>
        <time>2022-10-30T10:27:09Z</time>
      </trkpt>
      <trkpt lat="41.3934187" lon="2.0920017">
        <ele>231.55000305</ele>
        <time>2022-10-30T10:27:10Z</time>
      </trkpt>
      <trkpt lat="41.3934047" lon="2.0919948">
        <ele>231.55000305</ele>
        <time>2022-10-30T10:27:11Z</time>
      </trkpt>
      <trkpt lat="41.3933807" lon="2.0919838">
        <ele>231.55000305</ele>
        <time>2022-10-30T10:27:12Z</time>
      </trkpt>
      <trkpt lat="41.3933658" lon="2.0919659">
        <ele>231.47999573</ele>
        <time>2022-10-30T10:27:13Z</time>
      </trkpt>
      <trkpt lat="41.3933448" lon="2.0919569">
        <ele>231.36999512</ele>
        <time>2022-10-30T10:27:14Z</time>
      </trkpt>
      <trkpt lat="41.3933289" lon="2.0919629">
        <ele>231.27999878</ele>
        <time>2022-10-30T10:27:15Z</time>
      </trkpt>
      <trkpt lat="41.3933189" lon="2.0919728">
        <ele>231.20999146</ele>
        <time>2022-10-30T10:27:16Z</time>
      </trkpt>
      <trkpt lat="41.393316" lon="2.0919808">
        <ele>231.17999268</ele>
        <time>2022-10-30T10:27:17Z</time>
      </trkpt>
      <trkpt lat="41.3932981" lon="2.0919779">
        <ele>231.13999939</ele>
        <time>2022-10-30T10:27:18Z</time>
      </trkpt>
      <trkpt lat="41.3932821" lon="2.0919779">
        <ele>231.11999512</ele>
        <time>2022-10-30T10:27:19Z</time>
      </trkpt>
      <trkpt lat="41.3932681" lon="2.0919918">
        <ele>231.09999084</ele>
        <time>2022-10-30T10:27:20Z</time>
      </trkpt>
      <trkpt lat="41.3932582" lon="2.0919998">
        <ele>231.11999512</ele>
        <time>2022-10-30T10:27:21Z</time>
      </trkpt>
      <trkpt lat="41.3932562" lon="2.0920168">
        <ele>231.20999146</ele>
        <time>2022-10-30T10:27:22Z</time>
      </trkpt>
      <trkpt lat="41.3932562" lon="2.0920577">
        <ele>231.3999939</ele>
        <time>2022-10-30T10:27:23Z</time>
      </trkpt>
      <trkpt lat="41.3932661" lon="2.0920806">
        <ele>231.68998718</ele>
        <time>2022-10-30T10:27:24Z</time>
      </trkpt>
      <trkpt lat="41.3932821" lon="2.0920946">
        <ele>232.0599823</ele>
        <time>2022-10-30T10:27:25Z</time>
      </trkpt>
      <trkpt lat="41.3932931" lon="2.0921125">
        <ele>232.52998352</ele>
        <time>2022-10-30T10:27:26Z</time>
      </trkpt>
      <trkpt lat="41.3933061" lon="2.0921314">
        <ele>232.98999023</ele>
        <time>2022-10-30T10:27:27Z</time>
      </trkpt>
      <trkpt lat="41.393315" lon="2.0921704">
        <ele>233.41998291</ele>
        <time>2022-10-30T10:27:28Z</time>
      </trkpt>
      <trkpt lat="41.393317" lon="2.0921983">
        <ele>233.86997986</ele>
        <time>2022-10-30T10:27:29Z</time>
      </trkpt>
      <trkpt lat="41.393317" lon="2.0922262">
        <ele>234.27998352</ele>
        <time>2022-10-30T10:27:30Z</time>
      </trkpt>
      <trkpt lat="41.3933189" lon="2.0922532">
        <ele>234.75997925</ele>
        <time>2022-10-30T10:27:31Z</time>
      </trkpt>
      <trkpt lat="41.3933209" lon="2.0922971">
        <ele>235.24998474</ele>
        <time>2022-10-30T10:27:32Z</time>
      </trkpt>
      <trkpt lat="41.3933218" lon="2.0923231">
        <ele>235.73999023</ele>
        <time>2022-10-30T10:27:33Z</time>
      </trkpt>
      <trkpt lat="41.3933277" lon="2.0923461">
        <ele>236.21998596</ele>
        <time>2022-10-30T10:27:34Z</time>
      </trkpt>
      <trkpt lat="41.3933367" lon="2.092369">
        <ele>236.62998962</ele>
        <time>2022-10-30T10:27:35Z</time>
      </trkpt>
      <trkpt lat="41.3933466" lon="2.092384">
        <ele>237.04998779</ele>
        <time>2022-10-30T10:27:36Z</time>
      </trkpt>
      <trkpt lat="41.3933706" lon="2.092413">
        <ele>237.31999207</ele>
        <time>2022-10-30T10:27:37Z</time>
      </trkpt>
      <trkpt lat="41.3933915" lon="2.0924329">
        <ele>237.53999329</ele>
        <time>2022-10-30T10:27:38Z</time>
      </trkpt>
      <trkpt lat="41.3934155" lon="2.0924559">
        <ele>237.75999451</ele>
        <time>2022-10-30T10:27:39Z</time>
      </trkpt>
      <trkpt lat="41.3934354" lon="2.0924789">
        <ele>237.93998718</ele>
        <time>2022-10-30T10:27:40Z</time>
      </trkpt>
      <trkpt lat="41.3934604" lon="2.0925028">
        <ele>238.21998596</ele>
        <time>2022-10-30T10:27:41Z</time>
      </trkpt>
      <trkpt lat="41.3934813" lon="2.0925138">
        <ele>238.53999329</ele>
        <time>2022-10-30T10:27:42Z</time>
      </trkpt>
      <trkpt lat="41.3935023" lon="2.0925307">
        <ele>238.81999207</ele>
        <time>2022-10-30T10:27:43Z</time>
      </trkpt>
      <trkpt lat="41.3935232" lon="2.0925527">
        <ele>239.11999512</ele>
        <time>2022-10-30T10:27:44Z</time>
      </trkpt>
      <trkpt lat="41.3935562" lon="2.0925806">
        <ele>239.45999146</ele>
        <time>2022-10-30T10:27:45Z</time>
      </trkpt>
      <trkpt lat="41.3935741" lon="2.0925955">
        <ele>239.73999023</ele>
        <time>2022-10-30T10:27:46Z</time>
      </trkpt>
      <trkpt lat="41.3935961" lon="2.0926025">
        <ele>240.00999451</ele>
        <time>2022-10-30T10:27:47Z</time>
      </trkpt>
      <trkpt lat="41.3936181" lon="2.0926134">
        <ele>240.25999451</ele>
        <time>2022-10-30T10:27:48Z</time>
      </trkpt>
      <trkpt lat="41.393638" lon="2.0926323">
        <ele>240.47000122</ele>
        <time>2022-10-30T10:27:49Z</time>
      </trkpt>
      <trkpt lat="41.3936669" lon="2.0926593">
        <ele>240.75</ele>
        <time>2022-10-30T10:27:50Z</time>
      </trkpt>
      <trkpt lat="41.3936879" lon="2.0926702">
        <ele>241.05999756</ele>
        <time>2022-10-30T10:27:51Z</time>
      </trkpt>
      <trkpt lat="41.3936959" lon="2.0926862">
        <ele>241.41999817</ele>
        <time>2022-10-30T10:27:52Z</time>
      </trkpt>
      <trkpt lat="41.3937038" lon="2.0926982">
        <ele>241.80000305</ele>
        <time>2022-10-30T10:27:53Z</time>
      </trkpt>
      <trkpt lat="41.3937148" lon="2.0926991">
        <ele>242.13999939</ele>
        <time>2022-10-30T10:27:54Z</time>
      </trkpt>
      <trkpt lat="41.3937168" lon="2.0926882">
        <ele>242.53999329</ele>
        <time>2022-10-30T10:27:55Z</time>
      </trkpt>
      <trkpt lat="41.393725" lon="2.092645">
        <ele>243.61999512</ele>
        <time>2022-10-30T10:28:08Z</time>
      </trkpt>
      <trkpt lat="41.3937359" lon="2.092687">
        <ele>243.75</ele>
        <time>2022-10-30T10:28:09Z</time>
      </trkpt>
      <trkpt lat="41.3937419" lon="2.0927199">
        <ele>243.97000122</ele>
        <time>2022-10-30T10:28:10Z</time>
      </trkpt>
      <trkpt lat="41.3937438" lon="2.0927569">
        <ele>244.22000122</ele>
        <time>2022-10-30T10:28:11Z</time>
      </trkpt>
      <trkpt lat="41.3937429" lon="2.0927888">
        <ele>244.6499939</ele>
        <time>2022-10-30T10:28:12Z</time>
      </trkpt>
      <trkpt lat="41.3937429" lon="2.0928308">
        <ele>245.18998718</ele>
        <time>2022-10-30T10:28:13Z</time>
      </trkpt>
      <trkpt lat="41.3937438" lon="2.0928648">
        <ele>245.74998474</ele>
        <time>2022-10-30T10:28:14Z</time>
      </trkpt>
      <trkpt lat="41.3937448" lon="2.0928907">
        <ele>246.33998108</ele>
        <time>2022-10-30T10:28:15Z</time>
      </trkpt>
      <trkpt lat="41.3937467" lon="2.0929177">
        <ele>246.86997986</ele>
        <time>2022-10-30T10:28:16Z</time>
      </trkpt>
      <trkpt lat="41.3937567" lon="2.0929516">
        <ele>247.33998108</ele>
        <time>2022-10-30T10:28:17Z</time>
      </trkpt>
      <trkpt lat="41.3937587" lon="2.0929776">
        <ele>247.74998474</ele>
        <time>2022-10-30T10:28:18Z</time>
      </trkpt>
      <trkpt lat="41.3937587" lon="2.0930115">
        <ele>248.1599884</ele>
        <time>2022-10-30T10:28:19Z</time>
      </trkpt>
      <trkpt lat="41.3937596" lon="2.0930295">
        <ele>248.46998596</ele>
        <time>2022-10-30T10:28:20Z</time>
      </trkpt>
      <trkpt lat="41.3937625" lon="2.0930504">
        <ele>248.73999023</ele>
        <time>2022-10-30T10:28:21Z</time>
      </trkpt>
      <trkpt lat="41.3937675" lon="2.0930713">
        <ele>248.99998474</ele>
        <time>2022-10-30T10:28:22Z</time>
      </trkpt>
      <trkpt lat="41.3937774" lon="2.0930983">
        <ele>249.17997742</ele>
        <time>2022-10-30T10:28:23Z</time>
      </trkpt>
      <trkpt lat="41.3937833" lon="2.0931273">
        <ele>249.34997559</ele>
        <time>2022-10-30T10:28:24Z</time>
      </trkpt>
      <trkpt lat="41.3937863" lon="2.0931552">
        <ele>249.49996948</ele>
        <time>2022-10-30T10:28:25Z</time>
      </trkpt>
      <trkpt lat="41.3937942" lon="2.0931902">
        <ele>249.62997437</ele>
        <time>2022-10-30T10:28:26Z</time>
      </trkpt>
      <trkpt lat="41.3938002" lon="2.0932132">
        <ele>249.76997375</ele>
        <time>2022-10-30T10:28:27Z</time>
      </trkpt>
      <trkpt lat="41.3938101" lon="2.0932401">
        <ele>249.89997864</ele>
        <time>2022-10-30T10:28:28Z</time>
      </trkpt>
      <trkpt lat="41.393813" lon="2.0932691">
        <ele>250.02998352</ele>
        <time>2022-10-30T10:28:29Z</time>
      </trkpt>
      <trkpt lat="41.393813" lon="2.0932961">
        <ele>250.16998291</ele>
        <time>2022-10-30T10:28:30Z</time>
      </trkpt>
      <trkpt lat="41.3938101" lon="2.093342">
        <ele>250.3099823</ele>
        <time>2022-10-30T10:28:31Z</time>
      </trkpt>
      <trkpt lat="41.3938051" lon="2.093372">
        <ele>250.46998596</ele>
        <time>2022-10-30T10:28:32Z</time>
      </trkpt>
      <trkpt lat="41.3937992" lon="2.0933989">
        <ele>250.61997986</ele>
        <time>2022-10-30T10:28:33Z</time>
      </trkpt>
      <trkpt lat="41.3937923" lon="2.0934229">
        <ele>250.74998474</ele>
        <time>2022-10-30T10:28:34Z</time>
      </trkpt>
      <trkpt lat="41.3937643" lon="2.0934378">
        <ele>250.82998657</ele>
        <time>2022-10-30T10:28:35Z</time>
      </trkpt>
      <trkpt lat="41.3937474" lon="2.0934407">
        <ele>250.8999939</ele>
        <time>2022-10-30T10:28:36Z</time>
      </trkpt>
      <trkpt lat="41.3937264" lon="2.0934327">
        <ele>250.91999817</ele>
        <time>2022-10-30T10:28:37Z</time>
      </trkpt>
      <trkpt lat="41.3937005" lon="2.0934268">
        <ele>250.91999817</ele>
        <time>2022-10-30T10:28:38Z</time>
      </trkpt>
      <trkpt lat="41.3936675" lon="2.0934457">
        <ele>250.8999939</ele>
        <time>2022-10-30T10:28:39Z</time>
      </trkpt>
      <trkpt lat="41.3936506" lon="2.0934637">
        <ele>250.84999084</ele>
        <time>2022-10-30T10:28:40Z</time>
      </trkpt>
      <trkpt lat="41.3936417" lon="2.0934767">
        <ele>250.81999207</ele>
        <time>2022-10-30T10:28:41Z</time>
      </trkpt>
      <trkpt lat="41.3936358" lon="2.0934916">
        <ele>250.80999756</ele>
        <time>2022-10-30T10:28:42Z</time>
      </trkpt>
      <trkpt lat="41.3936308" lon="2.0934986">
        <ele>250.81999207</ele>
        <time>2022-10-30T10:28:43Z</time>
      </trkpt>
      <trkpt lat="41.3936239" lon="2.0935035">
        <ele>250.77999878</ele>
        <time>2022-10-30T10:28:44Z</time>
      </trkpt>
      <trkpt lat="41.3936139" lon="2.0935094">
        <ele>250.78999329</ele>
        <time>2022-10-30T10:28:45Z</time>
      </trkpt>
      <trkpt lat="41.393604" lon="2.0935104">
        <ele>250.78999329</ele>
        <time>2022-10-30T10:28:46Z</time>
      </trkpt>
      <trkpt lat="41.39359" lon="2.0935223">
        <ele>250.77999878</ele>
        <time>2022-10-30T10:28:47Z</time>
      </trkpt>
      <trkpt lat="41.393574" lon="2.0935412">
        <ele>250.83000183</ele>
        <time>2022-10-30T10:28:48Z</time>
      </trkpt>
      <trkpt lat="41.393556" lon="2.0935542">
        <ele>250.86000061</ele>
        <time>2022-10-30T10:28:49Z</time>
      </trkpt>
      <trkpt lat="41.3935361" lon="2.0935742">
        <ele>250.88999939</ele>
        <time>2022-10-30T10:28:50Z</time>
      </trkpt>
      <trkpt lat="41.3935162" lon="2.0935891">
        <ele>250.86000061</ele>
        <time>2022-10-30T10:28:51Z</time>
      </trkpt>
      <trkpt lat="41.3934963" lon="2.093604">
        <ele>250.83000183</ele>
        <time>2022-10-30T10:28:52Z</time>
      </trkpt>
      <trkpt lat="41.3934713" lon="2.0936129">
        <ele>250.77999878</ele>
        <time>2022-10-30T10:28:53Z</time>
      </trkpt>
      <trkpt lat="41.3934524" lon="2.0936159">
        <ele>250.66999817</ele>
        <time>2022-10-30T10:28:54Z</time>
      </trkpt>
      <trkpt lat="41.3934314" lon="2.0936198">
        <ele>250.59999084</ele>
        <time>2022-10-30T10:28:55Z</time>
      </trkpt>
      <trkpt lat="41.3934105" lon="2.0936257">
        <ele>250.48999023</ele>
        <time>2022-10-30T10:28:56Z</time>
      </trkpt>
      <trkpt lat="41.3933945" lon="2.0936257">
        <ele>250.37998962</ele>
        <time>2022-10-30T10:28:57Z</time>
      </trkpt>
      <trkpt lat="41.3933815" lon="2.0936238">
        <ele>250.36999512</ele>
        <time>2022-10-30T10:28:58Z</time>
      </trkpt>
      <trkpt lat="41.3933756" lon="2.0936278">
        <ele>250.45999146</ele>
        <time>2022-10-30T10:28:59Z</time>
      </trkpt>
      <trkpt lat="41.3933657" lon="2.0936367">
        <ele>250.55999756</ele>
        <time>2022-10-30T10:29:00Z</time>
      </trkpt>
      <trkpt lat="41.3933597" lon="2.0936456">
        <ele>250.63999939</ele>
        <time>2022-10-30T10:29:01Z</time>
      </trkpt>
      <trkpt lat="41.3933558" lon="2.0936446">
        <ele>250.69000244</ele>
        <time>2022-10-30T10:29:02Z</time>
      </trkpt>
      <trkpt lat="41.393355" lon="2.0936469">
        <ele>250.80000305</ele>
        <time>2022-10-30T10:29:02Z</time>
      </trkpt>
      <trkpt lat="41.3933279" lon="2.093638">
        <ele>259.64001465</ele>
        <time>2022-10-30T10:40:05Z</time>
      </trkpt>
      <trkpt lat="41.3933419" lon="2.093652">
        <ele>259.64001465</ele>
        <time>2022-10-30T10:40:06Z</time>
      </trkpt>
      <trkpt lat="41.3933549" lon="2.093668">
        <ele>259.64001465</ele>
        <time>2022-10-30T10:40:07Z</time>
      </trkpt>
      <trkpt lat="41.3933649" lon="2.0936889">
        <ele>259.67001343</ele>
        <time>2022-10-30T10:40:08Z</time>
      </trkpt>
      <trkpt lat="41.3933759" lon="2.0937059">
        <ele>259.70001221</ele>
        <time>2022-10-30T10:40:09Z</time>
      </trkpt>
      <trkpt lat="41.3933868" lon="2.0937219">
        <ele>259.77999878</ele>
        <time>2022-10-30T10:40:10Z</time>
      </trkpt>
      <trkpt lat="41.3933958" lon="2.0937419">
        <ele>259.86999512</ele>
        <time>2022-10-30T10:40:11Z</time>
      </trkpt>
      <trkpt lat="41.3934107" lon="2.0937678">
        <ele>260.01000977</ele>
        <time>2022-10-30T10:40:12Z</time>
      </trkpt>
      <trkpt lat="41.3934217" lon="2.0937808">
        <ele>260.22000122</ele>
        <time>2022-10-30T10:40:13Z</time>
      </trkpt>
      <trkpt lat="41.3934306" lon="2.0937948">
        <ele>260.36001587</ele>
        <time>2022-10-30T10:40:14Z</time>
      </trkpt>
      <trkpt lat="41.3934446" lon="2.0938057">
        <ele>260.50003052</ele>
        <time>2022-10-30T10:40:15Z</time>
      </trkpt>
      <trkpt lat="41.3934586" lon="2.0938217">
        <ele>260.6300354</ele>
        <time>2022-10-30T10:40:16Z</time>
      </trkpt>
      <trkpt lat="41.3934666" lon="2.0938507">
        <ele>260.79003906</ele>
        <time>2022-10-30T10:40:17Z</time>
      </trkpt>
      <trkpt lat="41.3934746" lon="2.0938717">
        <ele>260.9800415</ele>
        <time>2022-10-30T10:40:18Z</time>
      </trkpt>
      <trkpt lat="41.3934795" lon="2.0938886">
        <ele>261.17004395</ele>
        <time>2022-10-30T10:40:19Z</time>
      </trkpt>
      <trkpt lat="41.3934776" lon="2.0939046">
        <ele>261.36004639</ele>
        <time>2022-10-30T10:40:20Z</time>
      </trkpt>
      <trkpt lat="41.3934795" lon="2.0939316">
        <ele>261.49005127</ele>
        <time>2022-10-30T10:40:21Z</time>
      </trkpt>
      <trkpt lat="41.3934776" lon="2.0939485">
        <ele>261.60003662</ele>
        <time>2022-10-30T10:40:22Z</time>
      </trkpt>
      <trkpt lat="41.3934596" lon="2.0939805">
        <ele>261.72003174</ele>
        <time>2022-10-30T10:40:23Z</time>
      </trkpt>
      <trkpt lat="41.3934417" lon="2.0940005">
        <ele>261.74002075</ele>
        <time>2022-10-30T10:40:24Z</time>
      </trkpt>
      <trkpt lat="41.3934177" lon="2.0940205">
        <ele>261.74002075</ele>
        <time>2022-10-30T10:40:25Z</time>
      </trkpt>
      <trkpt lat="41.3933828" lon="2.0940555">
        <ele>261.76000977</ele>
        <time>2022-10-30T10:40:26Z</time>
      </trkpt>
      <trkpt lat="41.3933638" lon="2.0940614">
        <ele>262.01000977</ele>
        <time>2022-10-30T10:40:27Z</time>
      </trkpt>
      <trkpt lat="41.3933448" lon="2.0940693">
        <ele>262.51000977</ele>
        <time>2022-10-30T10:40:28Z</time>
      </trkpt>
      <trkpt lat="41.3933209" lon="2.0940863">
        <ele>263.16000366</ele>
        <time>2022-10-30T10:40:29Z</time>
      </trkpt>
      <trkpt lat="41.3932819" lon="2.0941042">
        <ele>263.82000732</ele>
        <time>2022-10-30T10:40:30Z</time>
      </trkpt>
      <trkpt lat="41.3932569" lon="2.0941042">
        <ele>264.30999756</ele>
        <time>2022-10-30T10:40:31Z</time>
      </trkpt>
      <trkpt lat="41.393231" lon="2.0941112">
        <ele>264.61999512</ele>
        <time>2022-10-30T10:40:32Z</time>
      </trkpt>
      <trkpt lat="41.393204" lon="2.0941212">
        <ele>264.79998779</ele>
        <time>2022-10-30T10:40:33Z</time>
      </trkpt>
      <trkpt lat="41.3931801" lon="2.0941412">
        <ele>264.94000244</ele>
        <time>2022-10-30T10:40:34Z</time>
      </trkpt>
      <trkpt lat="41.3931462" lon="2.0941641">
        <ele>264.98999023</ele>
        <time>2022-10-30T10:40:35Z</time>
      </trkpt>
      <trkpt lat="41.3931222" lon="2.0941771">
        <ele>265.07998657</ele>
        <time>2022-10-30T10:40:36Z</time>
      </trkpt>
      <trkpt lat="41.3930953" lon="2.094183">
        <ele>265.19998169</ele>
        <time>2022-10-30T10:40:37Z</time>
      </trkpt>
      <trkpt lat="41.3930683" lon="2.0941859">
        <ele>265.29998779</ele>
        <time>2022-10-30T10:40:38Z</time>
      </trkpt>
      <trkpt lat="41.3930293" lon="2.094185">
        <ele>265.41998291</ele>
        <time>2022-10-30T10:40:39Z</time>
      </trkpt>
      <trkpt lat="41.3930013" lon="2.0941869">
        <ele>265.50997925</ele>
        <time>2022-10-30T10:40:40Z</time>
      </trkpt>
      <trkpt lat="41.3929724" lon="2.094185">
        <ele>265.54998779</ele>
        <time>2022-10-30T10:40:41Z</time>
      </trkpt>
      <trkpt lat="41.3929534" lon="2.094169">
        <ele>265.59997559</ele>
        <time>2022-10-30T10:40:42Z</time>
      </trkpt>
      <trkpt lat="41.3929375" lon="2.094148">
        <ele>265.62997437</ele>
        <time>2022-10-30T10:40:43Z</time>
      </trkpt>
      <trkpt lat="41.3929235" lon="2.0941121">
        <ele>265.72998047</ele>
        <time>2022-10-30T10:40:44Z</time>
      </trkpt>
      <trkpt lat="41.3929115" lon="2.0940902">
        <ele>265.79998779</ele>
        <time>2022-10-30T10:40:45Z</time>
      </trkpt>
      <trkpt lat="41.3929016" lon="2.0940742">
        <ele>265.8999939</ele>
        <time>2022-10-30T10:40:46Z</time>
      </trkpt>
      <trkpt lat="41.3928896" lon="2.0940553">
        <ele>266.04998779</ele>
        <time>2022-10-30T10:40:47Z</time>
      </trkpt>
      <trkpt lat="41.3928787" lon="2.0940243">
        <ele>266.10998535</ele>
        <time>2022-10-30T10:40:48Z</time>
      </trkpt>
      <trkpt lat="41.3928707" lon="2.0939714">
        <ele>266.23999023</ele>
        <time>2022-10-30T10:40:49Z</time>
      </trkpt>
      <trkpt lat="41.3928587" lon="2.0939454">
        <ele>266.38000488</ele>
        <time>2022-10-30T10:40:50Z</time>
      </trkpt>
      <trkpt lat="41.3928398" lon="2.0939265">
        <ele>266.52999878</ele>
        <time>2022-10-30T10:40:51Z</time>
      </trkpt>
      <trkpt lat="41.3928199" lon="2.0939096">
        <ele>266.70001221</ele>
        <time>2022-10-30T10:40:52Z</time>
      </trkpt>
      <trkpt lat="41.3927989" lon="2.0938786">
        <ele>266.82000732</ele>
        <time>2022-10-30T10:40:53Z</time>
      </trkpt>
      <trkpt lat="41.3927829" lon="2.0938567">
        <ele>266.89001465</ele>
        <time>2022-10-30T10:40:54Z</time>
      </trkpt>
      <trkpt lat="41.392765" lon="2.0938338">
        <ele>266.92001343</ele>
        <time>2022-10-30T10:40:55Z</time>
      </trkpt>
      <trkpt lat="41.3927501" lon="2.0938138">
        <ele>266.96002197</ele>
        <time>2022-10-30T10:40:56Z</time>
      </trkpt>
      <trkpt lat="41.3927291" lon="2.0937968">
        <ele>267.07000732</ele>
        <time>2022-10-30T10:40:57Z</time>
      </trkpt>
      <trkpt lat="41.3926972" lon="2.0937759">
        <ele>267.20001221</ele>
        <time>2022-10-30T10:40:58Z</time>
      </trkpt>
      <trkpt lat="41.3926722" lon="2.093761">
        <ele>267.26000977</ele>
        <time>2022-10-30T10:40:59Z</time>
      </trkpt>
      <trkpt lat="41.3926442" lon="2.093743">
        <ele>267.27001953</ele>
        <time>2022-10-30T10:41:00Z</time>
      </trkpt>
      <trkpt lat="41.3926153" lon="2.0937311">
        <ele>267.20001221</ele>
        <time>2022-10-30T10:41:01Z</time>
      </trkpt>
      <trkpt lat="41.3925713" lon="2.0937171">
        <ele>267.17001343</ele>
        <time>2022-10-30T10:41:02Z</time>
      </trkpt>
      <trkpt lat="41.3925444" lon="2.0937102">
        <ele>267.20001221</ele>
        <time>2022-10-30T10:41:03Z</time>
      </trkpt>
      <trkpt lat="41.3925214" lon="2.0936942">
        <ele>267.23001099</ele>
        <time>2022-10-30T10:41:04Z</time>
      </trkpt>
      <trkpt lat="41.3924964" lon="2.0936782">
        <ele>267.32000732</ele>
        <time>2022-10-30T10:41:05Z</time>
      </trkpt>
      <trkpt lat="41.3924595" lon="2.0936552">
        <ele>267.46002197</ele>
        <time>2022-10-30T10:41:06Z</time>
      </trkpt>
      <trkpt lat="41.3924366" lon="2.0936363">
        <ele>267.59002686</ele>
        <time>2022-10-30T10:41:07Z</time>
      </trkpt>
      <trkpt lat="41.3924127" lon="2.0936153">
        <ele>267.74002075</ele>
        <time>2022-10-30T10:41:08Z</time>
      </trkpt>
      <trkpt lat="41.3923887" lon="2.0935934">
        <ele>267.84002686</ele>
        <time>2022-10-30T10:41:09Z</time>
      </trkpt>
      <trkpt lat="41.3923658" lon="2.0935685">
        <ele>267.9800415</ele>
        <time>2022-10-30T10:41:10Z</time>
      </trkpt>
      <trkpt lat="41.3923388" lon="2.0935416">
        <ele>268.14004517</ele>
        <time>2022-10-30T10:41:11Z</time>
      </trkpt>
      <trkpt lat="41.3923179" lon="2.0935286">
        <ele>268.31005859</ele>
        <time>2022-10-30T10:41:12Z</time>
      </trkpt>
      <trkpt lat="41.392295" lon="2.0935107">
        <ele>268.48007202</ele>
        <time>2022-10-30T10:41:13Z</time>
      </trkpt>
      <trkpt lat="41.392268" lon="2.0934967">
        <ele>268.56005859</ele>
        <time>2022-10-30T10:41:14Z</time>
      </trkpt>
      <trkpt lat="41.3922331" lon="2.0934688">
        <ele>268.60006714</ele>
        <time>2022-10-30T10:41:15Z</time>
      </trkpt>
      <trkpt lat="41.3922071" lon="2.0934588">
        <ele>268.65005493</ele>
        <time>2022-10-30T10:41:16Z</time>
      </trkpt>
      <trkpt lat="41.3921832" lon="2.0934499">
        <ele>268.71005249</ele>
        <time>2022-10-30T10:41:17Z</time>
      </trkpt>
      <trkpt lat="41.3921562" lon="2.093447">
        <ele>268.76004028</ele>
        <time>2022-10-30T10:41:18Z</time>
      </trkpt>
      <trkpt lat="41.3921293" lon="2.093442">
        <ele>268.76004028</ele>
        <time>2022-10-30T10:41:19Z</time>
      </trkpt>
      <trkpt lat="41.3920833" lon="2.0934411">
        <ele>268.80004883</ele>
        <time>2022-10-30T10:41:20Z</time>
      </trkpt>
      <trkpt lat="41.3920564" lon="2.0934401">
        <ele>268.86004639</ele>
        <time>2022-10-30T10:41:21Z</time>
      </trkpt>
      <trkpt lat="41.3920294" lon="2.0934411">
        <ele>268.93005371</ele>
        <time>2022-10-30T10:41:22Z</time>
      </trkpt>
      <trkpt lat="41.3920035" lon="2.0934361">
        <ele>269.05004883</ele>
        <time>2022-10-30T10:41:23Z</time>
      </trkpt>
      <trkpt lat="41.3919765" lon="2.0934302">
        <ele>269.17004395</ele>
        <time>2022-10-30T10:41:24Z</time>
      </trkpt>
      <trkpt lat="41.3919345" lon="2.0934273">
        <ele>269.29003906</ele>
        <time>2022-10-30T10:41:25Z</time>
      </trkpt>
      <trkpt lat="41.3919086" lon="2.0934214">
        <ele>269.3800354</ele>
        <time>2022-10-30T10:41:26Z</time>
      </trkpt>
      <trkpt lat="41.3918797" lon="2.0934204">
        <ele>269.43002319</ele>
        <time>2022-10-30T10:41:27Z</time>
      </trkpt>
      <trkpt lat="41.3918538" lon="2.0934155">
        <ele>269.48001099</ele>
        <time>2022-10-30T10:41:28Z</time>
      </trkpt>
      <trkpt lat="41.3918199" lon="2.0934045">
        <ele>269.51000977</ele>
        <time>2022-10-30T10:41:29Z</time>
      </trkpt>
      <trkpt lat="41.3917939" lon="2.0934065">
        <ele>269.58001709</ele>
        <time>2022-10-30T10:41:30Z</time>
      </trkpt>
      <trkpt lat="41.391765" lon="2.0934025">
        <ele>269.74002075</ele>
        <time>2022-10-30T10:41:31Z</time>
      </trkpt>
      <trkpt lat="41.391737" lon="2.0933975">
        <ele>269.8500061</ele>
        <time>2022-10-30T10:41:32Z</time>
      </trkpt>
      <trkpt lat="41.391712" lon="2.0933896">
        <ele>270.07000732</ele>
        <time>2022-10-30T10:41:33Z</time>
      </trkpt>
      <trkpt lat="41.3916681" lon="2.0933877">
        <ele>270.23001099</ele>
        <time>2022-10-30T10:41:34Z</time>
      </trkpt>
      <trkpt lat="41.3916381" lon="2.0933896">
        <ele>270.32000732</ele>
        <time>2022-10-30T10:41:35Z</time>
      </trkpt>
      <trkpt lat="41.3916131" lon="2.0933936">
        <ele>270.42001343</ele>
        <time>2022-10-30T10:41:36Z</time>
      </trkpt>
      <trkpt lat="41.3915902" lon="2.0933985">
        <ele>270.45001221</ele>
        <time>2022-10-30T10:41:37Z</time>
      </trkpt>
      <trkpt lat="41.3915492" lon="2.0934285">
        <ele>270.52001953</ele>
        <time>2022-10-30T10:41:38Z</time>
      </trkpt>
      <trkpt lat="41.3915283" lon="2.0934364">
        <ele>270.59002686</ele>
        <time>2022-10-30T10:41:39Z</time>
      </trkpt>
      <trkpt lat="41.3915054" lon="2.0934504">
        <ele>270.72003174</ele>
        <time>2022-10-30T10:41:40Z</time>
      </trkpt>
      <trkpt lat="41.3914814" lon="2.0934693">
        <ele>270.84002686</ele>
        <time>2022-10-30T10:41:41Z</time>
      </trkpt>
      <trkpt lat="41.3914545" lon="2.0934882">
        <ele>270.95001221</ele>
        <time>2022-10-30T10:41:42Z</time>
      </trkpt>
      <trkpt lat="41.3914385" lon="2.0935071">
        <ele>271.05999756</ele>
        <time>2022-10-30T10:41:43Z</time>
      </trkpt>
      <trkpt lat="41.3914245" lon="2.0935361">
        <ele>271.16998291</ele>
        <time>2022-10-30T10:41:44Z</time>
      </trkpt>
      <trkpt lat="41.3914085" lon="2.0935681">
        <ele>271.28997803</ele>
        <time>2022-10-30T10:41:45Z</time>
      </trkpt>
      <trkpt lat="41.3913956" lon="2.0936001">
        <ele>271.41998291</ele>
        <time>2022-10-30T10:41:46Z</time>
      </trkpt>
      <trkpt lat="41.3913846" lon="2.093648">
        <ele>271.56997681</ele>
        <time>2022-10-30T10:41:47Z</time>
      </trkpt>
      <trkpt lat="41.3913796" lon="2.09369">
        <ele>271.73999023</ele>
        <time>2022-10-30T10:41:48Z</time>
      </trkpt>
      <trkpt lat="41.3913835" lon="2.093726">
        <ele>271.88000488</ele>
        <time>2022-10-30T10:41:49Z</time>
      </trkpt>
      <trkpt lat="41.3913894" lon="2.0937639">
        <ele>272.02001953</ele>
        <time>2022-10-30T10:41:50Z</time>
      </trkpt>
      <trkpt lat="41.3913984" lon="2.0938208">
        <ele>272.21002197</ele>
        <time>2022-10-30T10:41:51Z</time>
      </trkpt>
      <trkpt lat="41.3914013" lon="2.0938517">
        <ele>272.32000732</ele>
        <time>2022-10-30T10:41:52Z</time>
      </trkpt>
      <trkpt lat="41.3914132" lon="2.0938837">
        <ele>272.48001099</ele>
        <time>2022-10-30T10:41:53Z</time>
      </trkpt>
      <trkpt lat="41.3914231" lon="2.0939157">
        <ele>272.66000366</ele>
        <time>2022-10-30T10:41:54Z</time>
      </trkpt>
      <trkpt lat="41.3914281" lon="2.0939517">
        <ele>272.75</ele>
        <time>2022-10-30T10:41:55Z</time>
      </trkpt>
      <trkpt lat="41.3914351" lon="2.0940166">
        <ele>272.86999512</ele>
        <time>2022-10-30T10:41:56Z</time>
      </trkpt>
      <trkpt lat="41.391439" lon="2.0940596">
        <ele>272.95999146</ele>
        <time>2022-10-30T10:41:57Z</time>
      </trkpt>
      <trkpt lat="41.391447" lon="2.0940975">
        <ele>273.03997803</ele>
        <time>2022-10-30T10:41:58Z</time>
      </trkpt>
      <trkpt lat="41.3914499" lon="2.0941344">
        <ele>273.1199646</ele>
        <time>2022-10-30T10:41:59Z</time>
      </trkpt>
      <trkpt lat="41.3914508" lon="2.0941694">
        <ele>273.20996094</ele>
        <time>2022-10-30T10:42:00Z</time>
      </trkpt>
      <trkpt lat="41.3914508" lon="2.0942223">
        <ele>273.29995728</ele>
        <time>2022-10-30T10:42:01Z</time>
      </trkpt>
      <trkpt lat="41.3914479" lon="2.0942602">
        <ele>273.3699646</ele>
        <time>2022-10-30T10:42:02Z</time>
      </trkpt>
      <trkpt lat="41.391446" lon="2.0942972">
        <ele>273.45996094</ele>
        <time>2022-10-30T10:42:03Z</time>
      </trkpt>
      <trkpt lat="41.391446" lon="2.0943322">
        <ele>273.53994751</ele>
        <time>2022-10-30T10:42:04Z</time>
      </trkpt>
      <trkpt lat="41.3914499" lon="2.0943941">
        <ele>273.59994507</ele>
        <time>2022-10-30T10:42:05Z</time>
      </trkpt>
      <trkpt lat="41.3914449" lon="2.0944371">
        <ele>273.63995361</ele>
        <time>2022-10-30T10:42:06Z</time>
      </trkpt>
      <trkpt lat="41.391442" lon="2.094474">
        <ele>273.69995117</ele>
        <time>2022-10-30T10:42:07Z</time>
      </trkpt>
      <trkpt lat="41.3914391" lon="2.0945109">
        <ele>273.78994751</ele>
        <time>2022-10-30T10:42:08Z</time>
      </trkpt>
      <trkpt lat="41.3914371" lon="2.0945489">
        <ele>273.93994141</ele>
        <time>2022-10-30T10:42:09Z</time>
      </trkpt>
      <trkpt lat="41.3914302" lon="2.0945968">
        <ele>274.10995483</ele>
        <time>2022-10-30T10:42:10Z</time>
      </trkpt>
      <trkpt lat="41.3914222" lon="2.0946308">
        <ele>274.28994751</ele>
        <time>2022-10-30T10:42:11Z</time>
      </trkpt>
      <trkpt lat="41.3914142" lon="2.0946658">
        <ele>274.44995117</ele>
        <time>2022-10-30T10:42:12Z</time>
      </trkpt>
      <trkpt lat="41.3914023" lon="2.0947008">
        <ele>274.54995728</ele>
        <time>2022-10-30T10:42:13Z</time>
      </trkpt>
      <trkpt lat="41.3913893" lon="2.0947567">
        <ele>274.68997192</ele>
        <time>2022-10-30T10:42:14Z</time>
      </trkpt>
      <trkpt lat="41.3913753" lon="2.0947946">
        <ele>274.81997681</ele>
        <time>2022-10-30T10:42:15Z</time>
      </trkpt>
      <trkpt lat="41.3913613" lon="2.0948366">
        <ele>274.97998047</ele>
        <time>2022-10-30T10:42:16Z</time>
      </trkpt>
      <trkpt lat="41.3913484" lon="2.0948745">
        <ele>275.12997437</ele>
        <time>2022-10-30T10:42:17Z</time>
      </trkpt>
      <trkpt lat="41.3913414" lon="2.0949114">
        <ele>275.26998901</ele>
        <time>2022-10-30T10:42:18Z</time>
      </trkpt>
      <trkpt lat="41.3913325" lon="2.0949583">
        <ele>275.42999268</ele>
        <time>2022-10-30T10:42:19Z</time>
      </trkpt>
      <trkpt lat="41.3913286" lon="2.0949973">
        <ele>275.58999634</ele>
        <time>2022-10-30T10:42:20Z</time>
      </trkpt>
      <trkpt lat="41.3913266" lon="2.0950343">
        <ele>275.77999878</ele>
        <time>2022-10-30T10:42:21Z</time>
      </trkpt>
      <trkpt lat="41.3913275" lon="2.0950732">
        <ele>275.95999146</ele>
        <time>2022-10-30T10:42:22Z</time>
      </trkpt>
      <trkpt lat="41.3913196" lon="2.0951262">
        <ele>276.1000061</ele>
        <time>2022-10-30T10:42:23Z</time>
      </trkpt>
      <trkpt lat="41.3913106" lon="2.0951601">
        <ele>276.20001221</ele>
        <time>2022-10-30T10:42:24Z</time>
      </trkpt>
      <trkpt lat="41.3913047" lon="2.0951961">
        <ele>276.30001831</ele>
        <time>2022-10-30T10:42:25Z</time>
      </trkpt>
      <trkpt lat="41.3912958" lon="2.095225">
        <ele>276.33001709</ele>
        <time>2022-10-30T10:42:26Z</time>
      </trkpt>
      <trkpt lat="41.3912809" lon="2.0952629">
        <ele>276.43002319</ele>
        <time>2022-10-30T10:42:27Z</time>
      </trkpt>
      <trkpt lat="41.3912689" lon="2.0952859">
        <ele>276.52001953</ele>
        <time>2022-10-30T10:42:28Z</time>
      </trkpt>
      <trkpt lat="41.391253" lon="2.0953149">
        <ele>276.58001709</ele>
        <time>2022-10-30T10:42:29Z</time>
      </trkpt>
      <trkpt lat="41.3912301" lon="2.0953409">
        <ele>276.68002319</ele>
        <time>2022-10-30T10:42:30Z</time>
      </trkpt>
      <trkpt lat="41.3912011" lon="2.0953588">
        <ele>276.71002197</ele>
        <time>2022-10-30T10:42:31Z</time>
      </trkpt>
      <trkpt lat="41.3911591" lon="2.0953858">
        <ele>276.79000854</ele>
        <time>2022-10-30T10:42:32Z</time>
      </trkpt>
      <trkpt lat="41.3911311" lon="2.0954157">
        <ele>276.88000488</ele>
        <time>2022-10-30T10:42:33Z</time>
      </trkpt>
      <trkpt lat="41.3911052" lon="2.0954387">
        <ele>276.98001099</ele>
        <time>2022-10-30T10:42:34Z</time>
      </trkpt>
      <trkpt lat="41.3910722" lon="2.0954647">
        <ele>277.02001953</ele>
        <time>2022-10-30T10:42:35Z</time>
      </trkpt>
      <trkpt lat="41.3910203" lon="2.0954997">
        <ele>277.04000854</ele>
        <time>2022-10-30T10:42:36Z</time>
      </trkpt>
      <trkpt lat="41.3909843" lon="2.0955246">
        <ele>276.98001099</ele>
        <time>2022-10-30T10:42:37Z</time>
      </trkpt>
      <trkpt lat="41.3909513" lon="2.0955316">
        <ele>276.97000122</ele>
        <time>2022-10-30T10:42:38Z</time>
      </trkpt>
      <trkpt lat="41.3909224" lon="2.0955435">
        <ele>277.04000854</ele>
        <time>2022-10-30T10:42:39Z</time>
      </trkpt>
      <trkpt lat="41.3908905" lon="2.0955635">
        <ele>277.16000366</ele>
        <time>2022-10-30T10:42:40Z</time>
      </trkpt>
      <trkpt lat="41.3908475" lon="2.0955884">
        <ele>277.30999756</ele>
        <time>2022-10-30T10:42:41Z</time>
      </trkpt>
      <trkpt lat="41.3908196" lon="2.0956003">
        <ele>277.3500061</ele>
        <time>2022-10-30T10:42:42Z</time>
      </trkpt>
      <trkpt lat="41.3907876" lon="2.0956113">
        <ele>277.3500061</ele>
        <time>2022-10-30T10:42:43Z</time>
      </trkpt>
      <trkpt lat="41.3907546" lon="2.0956252">
        <ele>277.30001831</ele>
        <time>2022-10-30T10:42:44Z</time>
      </trkpt>
      <trkpt lat="41.3907177" lon="2.0956302">
        <ele>277.33001709</ele>
        <time>2022-10-30T10:42:45Z</time>
      </trkpt>
      <trkpt lat="41.3906658" lon="2.0956292">
        <ele>277.37002563</ele>
        <time>2022-10-30T10:42:46Z</time>
      </trkpt>
      <trkpt lat="41.3906308" lon="2.0956282">
        <ele>277.42001343</ele>
        <time>2022-10-30T10:42:47Z</time>
      </trkpt>
      <trkpt lat="41.3906009" lon="2.0956273">
        <ele>277.39001465</ele>
        <time>2022-10-30T10:42:48Z</time>
      </trkpt>
      <trkpt lat="41.39057" lon="2.0956292">
        <ele>277.3500061</ele>
        <time>2022-10-30T10:42:49Z</time>
      </trkpt>
      <trkpt lat="41.390515" lon="2.0956252">
        <ele>277.20001221</ele>
        <time>2022-10-30T10:42:50Z</time>
      </trkpt>
      <trkpt lat="41.390479" lon="2.0956113">
        <ele>277.07000732</ele>
        <time>2022-10-30T10:42:51Z</time>
      </trkpt>
      <trkpt lat="41.3904431" lon="2.0956033">
        <ele>276.99002075</ele>
        <time>2022-10-30T10:42:52Z</time>
      </trkpt>
      <trkpt lat="41.3904071" lon="2.0955894">
        <ele>276.8800354</ele>
        <time>2022-10-30T10:42:53Z</time>
      </trkpt>
      <trkpt lat="41.3903732" lon="2.0955774">
        <ele>276.90002441</ele>
        <time>2022-10-30T10:42:54Z</time>
      </trkpt>
      <trkpt lat="41.3903202" lon="2.0955625">
        <ele>276.81002808</ele>
        <time>2022-10-30T10:42:55Z</time>
      </trkpt>
      <trkpt lat="41.3902893" lon="2.0955585">
        <ele>276.70004272</ele>
        <time>2022-10-30T10:42:56Z</time>
      </trkpt>
      <trkpt lat="41.3902683" lon="2.0955715">
        <ele>276.59005737</ele>
        <time>2022-10-30T10:42:57Z</time>
      </trkpt>
      <trkpt lat="41.3902573" lon="2.0955975">
        <ele>276.42004395</ele>
        <time>2022-10-30T10:42:58Z</time>
      </trkpt>
      <trkpt lat="41.3902544" lon="2.0956295">
        <ele>276.2800293</ele>
        <time>2022-10-30T10:42:59Z</time>
      </trkpt>
      <trkpt lat="41.3902584" lon="2.0956615">
        <ele>276.2300415</ele>
        <time>2022-10-30T10:43:00Z</time>
      </trkpt>
      <trkpt lat="41.3902753" lon="2.0956834">
        <ele>276.19003296</ele>
        <time>2022-10-30T10:43:01Z</time>
      </trkpt>
      <trkpt lat="41.3902932" lon="2.0956923">
        <ele>276.20004272</ele>
        <time>2022-10-30T10:43:02Z</time>
      </trkpt>
      <trkpt lat="41.3903101" lon="2.0956993">
        <ele>276.30004883</ele>
        <time>2022-10-30T10:43:03Z</time>
      </trkpt>
      <trkpt lat="41.39033" lon="2.0957163">
        <ele>276.45004272</ele>
        <time>2022-10-30T10:43:04Z</time>
      </trkpt>
      <trkpt lat="41.390338" lon="2.0957323">
        <ele>276.65005493</ele>
        <time>2022-10-30T10:43:05Z</time>
      </trkpt>
      <trkpt lat="41.390354" lon="2.0957452">
        <ele>276.94006348</ele>
        <time>2022-10-30T10:43:06Z</time>
      </trkpt>
      <trkpt lat="41.390373" lon="2.0957542">
        <ele>277.25006104</ele>
        <time>2022-10-30T10:43:07Z</time>
      </trkpt>
      <trkpt lat="41.3904039" lon="2.0957681">
        <ele>277.5100708</ele>
        <time>2022-10-30T10:43:08Z</time>
      </trkpt>
      <trkpt lat="41.3904208" lon="2.0957851">
        <ele>277.78005981</ele>
        <time>2022-10-30T10:43:09Z</time>
      </trkpt>
      <trkpt lat="41.3904377" lon="2.095799">
        <ele>278.04006958</ele>
        <time>2022-10-30T10:43:10Z</time>
      </trkpt>
      <trkpt lat="41.3904526" lon="2.095809">
        <ele>278.24008179</ele>
        <time>2022-10-30T10:43:11Z</time>
      </trkpt>
      <trkpt lat="41.3904716" lon="2.095821">
        <ele>278.5100708</ele>
        <time>2022-10-30T10:43:12Z</time>
      </trkpt>
      <trkpt lat="41.3905016" lon="2.0958329">
        <ele>278.74008179</ele>
        <time>2022-10-30T10:43:13Z</time>
      </trkpt>
      <trkpt lat="41.3905215" lon="2.0958399">
        <ele>278.97009277</ele>
        <time>2022-10-30T10:43:14Z</time>
      </trkpt>
      <trkpt lat="41.3905384" lon="2.0958498">
        <ele>279.23010254</ele>
        <time>2022-10-30T10:43:15Z</time>
      </trkpt>
      <trkpt lat="41.3905583" lon="2.0958648">
        <ele>279.45010376</ele>
        <time>2022-10-30T10:43:16Z</time>
      </trkpt>
      <trkpt lat="41.3905842" lon="2.0958907">
        <ele>279.71011353</ele>
        <time>2022-10-30T10:43:17Z</time>
      </trkpt>
      <trkpt lat="41.3905991" lon="2.0959067">
        <ele>279.93011475</ele>
        <time>2022-10-30T10:43:18Z</time>
      </trkpt>
      <trkpt lat="41.3906171" lon="2.0959247">
        <ele>280.17010498</ele>
        <time>2022-10-30T10:43:19Z</time>
      </trkpt>
      <trkpt lat="41.390627" lon="2.0959356">
        <ele>280.45010376</ele>
        <time>2022-10-30T10:43:20Z</time>
      </trkpt>
      <trkpt lat="41.390646" lon="2.0959545">
        <ele>280.7401123</ele>
        <time>2022-10-30T10:43:21Z</time>
      </trkpt>
      <trkpt lat="41.390665" lon="2.0959734">
        <ele>281.08010864</ele>
        <time>2022-10-30T10:43:22Z</time>
      </trkpt>
      <trkpt lat="41.3906849" lon="2.0959923">
        <ele>281.40011597</ele>
        <time>2022-10-30T10:43:23Z</time>
      </trkpt>
      <trkpt lat="41.3906979" lon="2.0960093">
        <ele>281.69012451</ele>
        <time>2022-10-30T10:43:24Z</time>
      </trkpt>
      <trkpt lat="41.3907128" lon="2.0960212">
        <ele>282.03012085</ele>
        <time>2022-10-30T10:43:25Z</time>
      </trkpt>
      <trkpt lat="41.3907297" lon="2.0960401">
        <ele>282.31011963</ele>
        <time>2022-10-30T10:43:26Z</time>
      </trkpt>
      <trkpt lat="41.3907476" lon="2.0960551">
        <ele>282.6401062</ele>
        <time>2022-10-30T10:43:27Z</time>
      </trkpt>
      <trkpt lat="41.3907645" lon="2.0960711">
        <ele>282.98010254</ele>
        <time>2022-10-30T10:43:28Z</time>
      </trkpt>
      <trkpt lat="41.3907795" lon="2.096088">
        <ele>283.2901001</ele>
        <time>2022-10-30T10:43:29Z</time>
      </trkpt>
      <trkpt lat="41.3907994" lon="2.0960999">
        <ele>283.57009888</ele>
        <time>2022-10-30T10:43:30Z</time>
      </trkpt>
      <trkpt lat="41.3908153" lon="2.0961249">
        <ele>283.87008667</ele>
        <time>2022-10-30T10:43:31Z</time>
      </trkpt>
      <trkpt lat="41.3908273" lon="2.0961438">
        <ele>284.14007568</ele>
        <time>2022-10-30T10:43:32Z</time>
      </trkpt>
      <trkpt lat="41.3908353" lon="2.0961587">
        <ele>284.37008667</ele>
        <time>2022-10-30T10:43:33Z</time>
      </trkpt>
      <trkpt lat="41.3908402" lon="2.0961776">
        <ele>284.60009766</ele>
        <time>2022-10-30T10:43:34Z</time>
      </trkpt>
      <trkpt lat="41.3908492" lon="2.0962015">
        <ele>284.85009766</ele>
        <time>2022-10-30T10:43:35Z</time>
      </trkpt>
      <trkpt lat="41.3908541" lon="2.0962165">
        <ele>285.09008789</ele>
        <time>2022-10-30T10:43:36Z</time>
      </trkpt>
      <trkpt lat="41.3908551" lon="2.0962354">
        <ele>285.32009888</ele>
        <time>2022-10-30T10:43:37Z</time>
      </trkpt>
      <trkpt lat="41.390859" lon="2.0962573">
        <ele>285.63009644</ele>
        <time>2022-10-30T10:43:38Z</time>
      </trkpt>
      <trkpt lat="41.390863" lon="2.0962762">
        <ele>285.91009521</ele>
        <time>2022-10-30T10:43:39Z</time>
      </trkpt>
      <trkpt lat="41.390862" lon="2.0962981">
        <ele>286.19009399</ele>
        <time>2022-10-30T10:43:40Z</time>
      </trkpt>
      <trkpt lat="41.390863" lon="2.096309">
        <ele>286.46008301</ele>
        <time>2022-10-30T10:43:41Z</time>
      </trkpt>
      <trkpt lat="41.3908669" lon="2.09632">
        <ele>286.67007446</ele>
        <time>2022-10-30T10:43:42Z</time>
      </trkpt>
      <trkpt lat="41.3908809" lon="2.0963279">
        <ele>286.85006714</ele>
        <time>2022-10-30T10:43:43Z</time>
      </trkpt>
      <trkpt lat="41.3908969" lon="2.0963389">
        <ele>287.04006958</ele>
        <time>2022-10-30T10:43:44Z</time>
      </trkpt>
      <trkpt lat="41.3909018" lon="2.0963538">
        <ele>287.20007324</ele>
        <time>2022-10-30T10:43:45Z</time>
      </trkpt>
      <trkpt lat="41.3909138" lon="2.0963727">
        <ele>287.37008667</ele>
        <time>2022-10-30T10:43:46Z</time>
      </trkpt>
      <trkpt lat="41.3909248" lon="2.0963976">
        <ele>287.5401001</ele>
        <time>2022-10-30T10:43:47Z</time>
      </trkpt>
      <trkpt lat="41.3909397" lon="2.0964355">
        <ele>287.75009155</ele>
        <time>2022-10-30T10:43:48Z</time>
      </trkpt>
      <trkpt lat="41.3909516" lon="2.0964675">
        <ele>287.99008179</ele>
        <time>2022-10-30T10:43:49Z</time>
      </trkpt>
      <trkpt lat="41.3909605" lon="2.0964885">
        <ele>288.23007202</ele>
        <time>2022-10-30T10:43:50Z</time>
      </trkpt>
      <trkpt lat="41.3909695" lon="2.0965015">
        <ele>288.47006226</ele>
        <time>2022-10-30T10:43:51Z</time>
      </trkpt>
      <trkpt lat="41.3909834" lon="2.0965094">
        <ele>288.68005371</ele>
        <time>2022-10-30T10:43:52Z</time>
      </trkpt>
      <trkpt lat="41.3910064" lon="2.0965333">
        <ele>288.90005493</ele>
        <time>2022-10-30T10:43:53Z</time>
      </trkpt>
      <trkpt lat="41.3910193" lon="2.0965483">
        <ele>289.09005737</ele>
        <time>2022-10-30T10:43:54Z</time>
      </trkpt>
      <trkpt lat="41.3910282" lon="2.0965692">
        <ele>289.31005859</ele>
        <time>2022-10-30T10:43:55Z</time>
      </trkpt>
      <trkpt lat="41.3910342" lon="2.0965892">
        <ele>289.52005005</ele>
        <time>2022-10-30T10:43:56Z</time>
      </trkpt>
      <trkpt lat="41.3910411" lon="2.0966081">
        <ele>289.7300415</ele>
        <time>2022-10-30T10:43:57Z</time>
      </trkpt>
      <trkpt lat="41.3910511" lon="2.0966341">
        <ele>290.02005005</ele>
        <time>2022-10-30T10:43:58Z</time>
      </trkpt>
      <trkpt lat="41.391056" lon="2.096643">
        <ele>290.27005005</ele>
        <time>2022-10-30T10:43:59Z</time>
      </trkpt>
      <trkpt lat="41.391067" lon="2.0966519">
        <ele>290.54003906</ele>
        <time>2022-10-30T10:44:00Z</time>
      </trkpt>
      <trkpt lat="41.3910699" lon="2.0966638">
        <ele>290.83004761</ele>
        <time>2022-10-30T10:44:01Z</time>
      </trkpt>
      <trkpt lat="41.3910739" lon="2.0966988">
        <ele>291.08004761</ele>
        <time>2022-10-30T10:44:02Z</time>
      </trkpt>
      <trkpt lat="41.3910759" lon="2.0967237">
        <ele>291.34005737</ele>
        <time>2022-10-30T10:44:03Z</time>
      </trkpt>
      <trkpt lat="41.3910689" lon="2.0967456">
        <ele>291.59005737</ele>
        <time>2022-10-30T10:44:04Z</time>
      </trkpt>
      <trkpt lat="41.3910698" lon="2.0967676">
        <ele>291.81005859</ele>
        <time>2022-10-30T10:44:05Z</time>
      </trkpt>
      <trkpt lat="41.3910718" lon="2.0968015">
        <ele>292.0100708</ele>
        <time>2022-10-30T10:44:06Z</time>
      </trkpt>
      <trkpt lat="41.3910788" lon="2.0968254">
        <ele>292.23007202</ele>
        <time>2022-10-30T10:44:07Z</time>
      </trkpt>
      <trkpt lat="41.3910837" lon="2.0968473">
        <ele>292.42007446</ele>
        <time>2022-10-30T10:44:08Z</time>
      </trkpt>
      <trkpt lat="41.3910828" lon="2.0968743">
        <ele>292.60006714</ele>
        <time>2022-10-30T10:44:09Z</time>
      </trkpt>
      <trkpt lat="41.3910958" lon="2.0969293">
        <ele>292.79006958</ele>
        <time>2022-10-30T10:44:10Z</time>
      </trkpt>
      <trkpt lat="41.3911107" lon="2.0969522">
        <ele>292.94006348</ele>
        <time>2022-10-30T10:44:11Z</time>
      </trkpt>
      <trkpt lat="41.3911207" lon="2.0969711">
        <ele>293.14007568</ele>
        <time>2022-10-30T10:44:12Z</time>
      </trkpt>
      <trkpt lat="41.391119" lon="2.096977">
        <ele>294.14001465</ele>
        <time>2022-10-30T10:44:12Z</time>
      </trkpt>
      <trkpt lat="41.3911199" lon="2.096994">
        <ele>294.30001831</ele>
        <time>2022-10-30T10:44:13Z</time>
      </trkpt>
      <trkpt lat="41.3911238" lon="2.097007">
        <ele>294.44003296</ele>
        <time>2022-10-30T10:44:14Z</time>
      </trkpt>
      <trkpt lat="41.3911368" lon="2.097043">
        <ele>294.59002686</ele>
        <time>2022-10-30T10:44:15Z</time>
      </trkpt>
      <trkpt lat="41.3911359" lon="2.0970699">
        <ele>294.71002197</ele>
        <time>2022-10-30T10:44:16Z</time>
      </trkpt>
      <trkpt lat="41.3911378" lon="2.0970869">
        <ele>294.87002563</ele>
        <time>2022-10-30T10:44:17Z</time>
      </trkpt>
      <trkpt lat="41.3911407" lon="2.0971118">
        <ele>295.0300293</ele>
        <time>2022-10-30T10:44:18Z</time>
      </trkpt>
      <trkpt lat="41.3911338" lon="2.0971487">
        <ele>295.15002441</ele>
        <time>2022-10-30T10:44:19Z</time>
      </trkpt>
      <trkpt lat="41.3911329" lon="2.0971837">
        <ele>295.25003052</ele>
        <time>2022-10-30T10:44:20Z</time>
      </trkpt>
      <trkpt lat="41.3911368" lon="2.0972127">
        <ele>295.37002563</ele>
        <time>2022-10-30T10:44:21Z</time>
      </trkpt>
      <trkpt lat="41.3911508" lon="2.0972227">
        <ele>295.50003052</ele>
        <time>2022-10-30T10:44:22Z</time>
      </trkpt>
      <trkpt lat="41.3911499" lon="2.0972436">
        <ele>295.61001587</ele>
        <time>2022-10-30T10:44:23Z</time>
      </trkpt>
      <trkpt lat="41.3911379" lon="2.0972685">
        <ele>295.72000122</ele>
        <time>2022-10-30T10:44:24Z</time>
      </trkpt>
      <trkpt lat="41.391131" lon="2.0973145">
        <ele>295.79000854</ele>
        <time>2022-10-30T10:44:25Z</time>
      </trkpt>
      <trkpt lat="41.3911379" lon="2.0973375">
        <ele>295.71002197</ele>
        <time>2022-10-30T10:44:26Z</time>
      </trkpt>
      <trkpt lat="41.3911379" lon="2.0973665">
        <ele>295.7800293</ele>
        <time>2022-10-30T10:44:27Z</time>
      </trkpt>
      <trkpt lat="41.3911509" lon="2.0973914">
        <ele>295.87002563</ele>
        <time>2022-10-30T10:44:28Z</time>
      </trkpt>
      <trkpt lat="41.3911538" lon="2.0974453">
        <ele>295.98001099</ele>
        <time>2022-10-30T10:44:29Z</time>
      </trkpt>
      <trkpt lat="41.3911657" lon="2.0974732">
        <ele>296.04000854</ele>
        <time>2022-10-30T10:44:30Z</time>
      </trkpt>
      <trkpt lat="41.3911686" lon="2.0975041">
        <ele>296.1499939</ele>
        <time>2022-10-30T10:44:31Z</time>
      </trkpt>
      <trkpt lat="41.3911756" lon="2.0975371">
        <ele>296.25</ele>
        <time>2022-10-30T10:44:32Z</time>
      </trkpt>
      <trkpt lat="41.3911706" lon="2.0975661">
        <ele>296.3500061</ele>
        <time>2022-10-30T10:44:33Z</time>
      </trkpt>
      <trkpt lat="41.3911726" lon="2.097581">
        <ele>296.5</ele>
        <time>2022-10-30T10:44:34Z</time>
      </trkpt>
      <trkpt lat="41.3911836" lon="2.0976149">
        <ele>296.6499939</ele>
        <time>2022-10-30T10:44:35Z</time>
      </trkpt>
      <trkpt lat="41.3911885" lon="2.0976539">
        <ele>296.73999023</ele>
        <time>2022-10-30T10:44:36Z</time>
      </trkpt>
      <trkpt lat="41.3911914" lon="2.0976859">
        <ele>296.81997681</ele>
        <time>2022-10-30T10:44:37Z</time>
      </trkpt>
      <trkpt lat="41.3912094" lon="2.0977369">
        <ele>296.89996338</ele>
        <time>2022-10-30T10:44:38Z</time>
      </trkpt>
      <trkpt lat="41.3912174" lon="2.0977638">
        <ele>296.98995972</ele>
        <time>2022-10-30T10:44:39Z</time>
      </trkpt>
      <trkpt lat="41.3912363" lon="2.0977938">
        <ele>297.16995239</ele>
        <time>2022-10-30T10:44:40Z</time>
      </trkpt>
      <trkpt lat="41.3912523" lon="2.0978237">
        <ele>297.29995728</ele>
        <time>2022-10-30T10:44:41Z</time>
      </trkpt>
      <trkpt lat="41.3912642" lon="2.0978587">
        <ele>297.33996582</ele>
        <time>2022-10-30T10:44:42Z</time>
      </trkpt>
      <trkpt lat="41.3912802" lon="2.0979126">
        <ele>297.33996582</ele>
        <time>2022-10-30T10:44:43Z</time>
      </trkpt>
      <trkpt lat="41.3912713" lon="2.0979535">
        <ele>297.27996826</ele>
        <time>2022-10-30T10:44:44Z</time>
      </trkpt>
      <trkpt lat="41.3912693" lon="2.0979915">
        <ele>297.25997925</ele>
        <time>2022-10-30T10:44:45Z</time>
      </trkpt>
      <trkpt lat="41.3912684" lon="2.0980244">
        <ele>297.2199707</ele>
        <time>2022-10-30T10:44:46Z</time>
      </trkpt>
      <trkpt lat="41.3912844" lon="2.0980764">
        <ele>297.15997314</ele>
        <time>2022-10-30T10:44:47Z</time>
      </trkpt>
      <trkpt lat="41.3912943" lon="2.0981103">
        <ele>297.12997437</ele>
        <time>2022-10-30T10:44:48Z</time>
      </trkpt>
      <trkpt lat="41.3912963" lon="2.0981453">
        <ele>297.03997803</ele>
        <time>2022-10-30T10:44:49Z</time>
      </trkpt>
      <trkpt lat="41.3913183" lon="2.0981832">
        <ele>297.02996826</ele>
        <time>2022-10-30T10:44:50Z</time>
      </trkpt>
      <trkpt lat="41.3913422" lon="2.0982262">
        <ele>297.00997925</ele>
        <time>2022-10-30T10:44:51Z</time>
      </trkpt>
      <trkpt lat="41.3913741" lon="2.0982891">
        <ele>297.00997925</ele>
        <time>2022-10-30T10:44:52Z</time>
      </trkpt>
      <trkpt lat="41.3913891" lon="2.098326">
        <ele>297.02996826</ele>
        <time>2022-10-30T10:44:53Z</time>
      </trkpt>
      <trkpt lat="41.3914081" lon="2.098362">
        <ele>297.10995483</ele>
        <time>2022-10-30T10:44:54Z</time>
      </trkpt>
      <trkpt lat="41.391421" lon="2.0983959">
        <ele>297.16995239</ele>
        <time>2022-10-30T10:44:55Z</time>
      </trkpt>
      <trkpt lat="41.391443" lon="2.0984498">
        <ele>297.19995117</ele>
        <time>2022-10-30T10:44:56Z</time>
      </trkpt>
      <trkpt lat="41.3914659" lon="2.0984848">
        <ele>297.24993896</ele>
        <time>2022-10-30T10:44:57Z</time>
      </trkpt>
      <trkpt lat="41.3914899" lon="2.0985187">
        <ele>297.30993652</ele>
        <time>2022-10-30T10:44:58Z</time>
      </trkpt>
      <trkpt lat="41.3915119" lon="2.0985517">
        <ele>297.37994385</ele>
        <time>2022-10-30T10:44:59Z</time>
      </trkpt>
      <trkpt lat="41.3915298" lon="2.0985886">
        <ele>297.41995239</ele>
        <time>2022-10-30T10:45:00Z</time>
      </trkpt>
      <trkpt lat="41.3915438" lon="2.0986466">
        <ele>297.33996582</ele>
        <time>2022-10-30T10:45:01Z</time>
      </trkpt>
      <trkpt lat="41.3915518" lon="2.0986865">
        <ele>297.16995239</ele>
        <time>2022-10-30T10:45:02Z</time>
      </trkpt>
      <trkpt lat="41.3915527" lon="2.0987244">
        <ele>297.06994629</ele>
        <time>2022-10-30T10:45:03Z</time>
      </trkpt>
      <trkpt lat="41.3915468" lon="2.0987654">
        <ele>296.99993896</ele>
        <time>2022-10-30T10:45:04Z</time>
      </trkpt>
      <trkpt lat="41.3915319" lon="2.0988223">
        <ele>297.03994751</ele>
        <time>2022-10-30T10:45:05Z</time>
      </trkpt>
      <trkpt lat="41.3915249" lon="2.0988642">
        <ele>297.10995483</ele>
        <time>2022-10-30T10:45:06Z</time>
      </trkpt>
      <trkpt lat="41.391516" lon="2.0988962">
        <ele>297.14996338</ele>
        <time>2022-10-30T10:45:07Z</time>
      </trkpt>
      <trkpt lat="41.3915041" lon="2.0989192">
        <ele>297.20996094</ele>
        <time>2022-10-30T10:45:08Z</time>
      </trkpt>
      <trkpt lat="41.3914941" lon="2.0989531">
        <ele>297.30996704</ele>
        <time>2022-10-30T10:45:09Z</time>
      </trkpt>
      <trkpt lat="41.3914852" lon="2.0989731">
        <ele>297.37997437</ele>
        <time>2022-10-30T10:45:10Z</time>
      </trkpt>
      <trkpt lat="41.3914752" lon="2.0989861">
        <ele>297.44998169</ele>
        <time>2022-10-30T10:45:11Z</time>
      </trkpt>
      <trkpt lat="41.3914593" lon="2.09901">
        <ele>297.47998047</ele>
        <time>2022-10-30T10:45:12Z</time>
      </trkpt>
      <trkpt lat="41.3914424" lon="2.099031">
        <ele>297.4699707</ele>
        <time>2022-10-30T10:45:13Z</time>
      </trkpt>
      <trkpt lat="41.3914154" lon="2.0990529">
        <ele>297.49996948</ele>
        <time>2022-10-30T10:45:14Z</time>
      </trkpt>
      <trkpt lat="41.3913904" lon="2.0990718">
        <ele>297.49996948</ele>
        <time>2022-10-30T10:45:15Z</time>
      </trkpt>
      <trkpt lat="41.3913624" lon="2.0990937">
        <ele>297.49996948</ele>
        <time>2022-10-30T10:45:16Z</time>
      </trkpt>
      <trkpt lat="41.3913315" lon="2.0991237">
        <ele>297.43997192</ele>
        <time>2022-10-30T10:45:17Z</time>
      </trkpt>
      <trkpt lat="41.3912996" lon="2.0991436">
        <ele>297.30996704</ele>
        <time>2022-10-30T10:45:18Z</time>
      </trkpt>
      <trkpt lat="41.3912517" lon="2.0991546">
        <ele>297.18997192</ele>
        <time>2022-10-30T10:45:19Z</time>
      </trkpt>
      <trkpt lat="41.3912167" lon="2.0991546">
        <ele>297.05996704</ele>
        <time>2022-10-30T10:45:20Z</time>
      </trkpt>
      <trkpt lat="41.3911818" lon="2.0991565">
        <ele>296.92996216</ele>
        <time>2022-10-30T10:45:21Z</time>
      </trkpt>
      <trkpt lat="41.3911488" lon="2.0991675">
        <ele>296.85995483</ele>
        <time>2022-10-30T10:45:22Z</time>
      </trkpt>
      <trkpt lat="41.3910939" lon="2.0991894">
        <ele>296.71994019</ele>
        <time>2022-10-30T10:45:23Z</time>
      </trkpt>
      <trkpt lat="41.3910579" lon="2.0991964">
        <ele>296.52993774</ele>
        <time>2022-10-30T10:45:24Z</time>
      </trkpt>
      <trkpt lat="41.391018" lon="2.0992124">
        <ele>296.3899231</ele>
        <time>2022-10-30T10:45:25Z</time>
      </trkpt>
      <trkpt lat="41.390979" lon="2.0992233">
        <ele>296.15991211</ele>
        <time>2022-10-30T10:45:26Z</time>
      </trkpt>
      <trkpt lat="41.390937" lon="2.0992283">
        <ele>295.9598999</ele>
        <time>2022-10-30T10:45:27Z</time>
      </trkpt>
      <trkpt lat="41.3908721" lon="2.0992432">
        <ele>295.78988647</ele>
        <time>2022-10-30T10:45:28Z</time>
      </trkpt>
      <trkpt lat="41.3908291" lon="2.0992592">
        <ele>295.56988525</ele>
        <time>2022-10-30T10:45:29Z</time>
      </trkpt>
      <trkpt lat="41.3907852" lon="2.0992771">
        <ele>295.33987427</ele>
        <time>2022-10-30T10:45:30Z</time>
      </trkpt>
      <trkpt lat="41.3907423" lon="2.0992871">
        <ele>295.13986206</ele>
        <time>2022-10-30T10:45:31Z</time>
      </trkpt>
      <trkpt lat="41.3906813" lon="2.0992911">
        <ele>294.9798584</ele>
        <time>2022-10-30T10:45:32Z</time>
      </trkpt>
      <trkpt lat="41.3906393" lon="2.099293">
        <ele>294.76986694</ele>
        <time>2022-10-30T10:45:33Z</time>
      </trkpt>
      <trkpt lat="41.3905964" lon="2.099297">
        <ele>294.58987427</ele>
        <time>2022-10-30T10:45:34Z</time>
      </trkpt>
      <trkpt lat="41.3905524" lon="2.0992979">
        <ele>294.40988159</ele>
        <time>2022-10-30T10:45:35Z</time>
      </trkpt>
      <trkpt lat="41.3905045" lon="2.0993089">
        <ele>294.20986938</ele>
        <time>2022-10-30T10:45:36Z</time>
      </trkpt>
      <trkpt lat="41.3904405" lon="2.0993189">
        <ele>294.03985596</ele>
        <time>2022-10-30T10:45:37Z</time>
      </trkpt>
      <trkpt lat="41.3904026" lon="2.0993218">
        <ele>293.86984253</ele>
        <time>2022-10-30T10:45:38Z</time>
      </trkpt>
      <trkpt lat="41.3903646" lon="2.0993327">
        <ele>293.74984741</ele>
        <time>2022-10-30T10:45:39Z</time>
      </trkpt>
      <trkpt lat="41.3903307" lon="2.0993527">
        <ele>293.55984497</ele>
        <time>2022-10-30T10:45:40Z</time>
      </trkpt>
      <trkpt lat="41.3902857" lon="2.0993877">
        <ele>293.35983276</ele>
        <time>2022-10-30T10:45:41Z</time>
      </trkpt>
      <trkpt lat="41.3902678" lon="2.0994087">
        <ele>293.15982056</ele>
        <time>2022-10-30T10:45:42Z</time>
      </trkpt>
      <trkpt lat="41.3902528" lon="2.0994306">
        <ele>292.93981934</ele>
        <time>2022-10-30T10:45:43Z</time>
      </trkpt>
      <trkpt lat="41.3902379" lon="2.0994545">
        <ele>292.81982422</ele>
        <time>2022-10-30T10:45:44Z</time>
      </trkpt>
      <trkpt lat="41.390223" lon="2.0995055">
        <ele>292.72982788</ele>
        <time>2022-10-30T10:45:45Z</time>
      </trkpt>
      <trkpt lat="41.390212" lon="2.0995375">
        <ele>292.58981323</ele>
        <time>2022-10-30T10:45:46Z</time>
      </trkpt>
      <trkpt lat="41.3901971" lon="2.0995765">
        <ele>292.42980957</ele>
        <time>2022-10-30T10:45:47Z</time>
      </trkpt>
      <trkpt lat="41.3901771" lon="2.0996115">
        <ele>292.22979736</ele>
        <time>2022-10-30T10:45:48Z</time>
      </trkpt>
      <trkpt lat="41.3901562" lon="2.0996454">
        <ele>292.00979614</ele>
        <time>2022-10-30T10:45:49Z</time>
      </trkpt>
      <trkpt lat="41.3901303" lon="2.0997023">
        <ele>291.8197937</ele>
        <time>2022-10-30T10:45:50Z</time>
      </trkpt>
      <trkpt lat="41.3901113" lon="2.0997483">
        <ele>291.5697937</ele>
        <time>2022-10-30T10:45:51Z</time>
      </trkpt>
      <trkpt lat="41.3900904" lon="2.0997952">
        <ele>291.29980469</ele>
        <time>2022-10-30T10:45:52Z</time>
      </trkpt>
      <trkpt lat="41.3900704" lon="2.0998402">
        <ele>291.08981323</ele>
        <time>2022-10-30T10:45:53Z</time>
      </trkpt>
      <trkpt lat="41.3900365" lon="2.0999102">
        <ele>290.83981323</ele>
        <time>2022-10-30T10:45:54Z</time>
      </trkpt>
      <trkpt lat="41.3900136" lon="2.0999531">
        <ele>290.69979858</ele>
        <time>2022-10-30T10:45:55Z</time>
      </trkpt>
      <trkpt lat="41.3899907" lon="2.1000011">
        <ele>290.5697937</ele>
        <time>2022-10-30T10:45:56Z</time>
      </trkpt>
      <trkpt lat="41.3899747" lon="2.1000491">
        <ele>290.4197998</ele>
        <time>2022-10-30T10:45:57Z</time>
      </trkpt>
      <trkpt lat="41.3899728" lon="2.1000911">
        <ele>290.28979492</ele>
        <time>2022-10-30T10:45:58Z</time>
      </trkpt>
      <trkpt lat="41.3899857" lon="2.100141">
        <ele>290.1697998</ele>
        <time>2022-10-30T10:45:59Z</time>
      </trkpt>
      <trkpt lat="41.3900067" lon="2.1001679">
        <ele>289.9697876</ele>
        <time>2022-10-30T10:46:00Z</time>
      </trkpt>
      <trkpt lat="41.3900347" lon="2.1001939">
        <ele>289.80978394</ele>
        <time>2022-10-30T10:46:01Z</time>
      </trkpt>
      <trkpt lat="41.3900726" lon="2.1002158">
        <ele>289.63977051</ele>
        <time>2022-10-30T10:46:02Z</time>
      </trkpt>
      <trkpt lat="41.3901116" lon="2.1002318">
        <ele>289.41976929</ele>
        <time>2022-10-30T10:46:03Z</time>
      </trkpt>
      <trkpt lat="41.3901696" lon="2.1002597">
        <ele>289.13977051</ele>
        <time>2022-10-30T10:46:04Z</time>
      </trkpt>
      <trkpt lat="41.3902105" lon="2.1002797">
        <ele>288.76977539</ele>
        <time>2022-10-30T10:46:05Z</time>
      </trkpt>
      <trkpt lat="41.3902545" lon="2.1002976">
        <ele>288.49978638</ele>
        <time>2022-10-30T10:46:06Z</time>
      </trkpt>
      <trkpt lat="41.3903015" lon="2.1003186">
        <ele>288.22979736</ele>
        <time>2022-10-30T10:46:07Z</time>
      </trkpt>
      <trkpt lat="41.3903484" lon="2.1003515">
        <ele>288.02978516</ele>
        <time>2022-10-30T10:46:08Z</time>
      </trkpt>
      <trkpt lat="41.3904154" lon="2.1003995">
        <ele>287.99978638</ele>
        <time>2022-10-30T10:46:09Z</time>
      </trkpt>
      <trkpt lat="41.3904663" lon="2.1004235">
        <ele>287.79977417</ele>
        <time>2022-10-30T10:46:10Z</time>
      </trkpt>
      <trkpt lat="41.3905142" lon="2.1004504">
        <ele>287.48977661</ele>
        <time>2022-10-30T10:46:11Z</time>
      </trkpt>
      <trkpt lat="41.3905621" lon="2.1004814">
        <ele>287.2897644</ele>
        <time>2022-10-30T10:46:12Z</time>
      </trkpt>
      <trkpt lat="41.3906341" lon="2.1005283">
        <ele>287.01977539</ele>
        <time>2022-10-30T10:46:13Z</time>
      </trkpt>
      <trkpt lat="41.390686" lon="2.1005472">
        <ele>286.85977173</ele>
        <time>2022-10-30T10:46:14Z</time>
      </trkpt>
      <trkpt lat="41.390738" lon="2.1005581">
        <ele>286.70977783</ele>
        <time>2022-10-30T10:46:15Z</time>
      </trkpt>
      <trkpt lat="41.3907919" lon="2.1005691">
        <ele>286.52978516</ele>
        <time>2022-10-30T10:46:16Z</time>
      </trkpt>
      <trkpt lat="41.3908748" lon="2.1005791">
        <ele>286.22979736</ele>
        <time>2022-10-30T10:46:17Z</time>
      </trkpt>
      <trkpt lat="41.3909328" lon="2.100582">
        <ele>285.90979004</ele>
        <time>2022-10-30T10:46:18Z</time>
      </trkpt>
      <trkpt lat="41.3909927" lon="2.100582">
        <ele>285.61978149</ele>
        <time>2022-10-30T10:46:19Z</time>
      </trkpt>
      <trkpt lat="41.3910517" lon="2.1005859">
        <ele>285.35977173</ele>
        <time>2022-10-30T10:46:20Z</time>
      </trkpt>
      <trkpt lat="41.3911136" lon="2.1005909">
        <ele>285.10977173</ele>
        <time>2022-10-30T10:46:21Z</time>
      </trkpt>
      <trkpt lat="41.3912026" lon="2.1006028">
        <ele>284.88977051</ele>
        <time>2022-10-30T10:46:22Z</time>
      </trkpt>
      <trkpt lat="41.3912636" lon="2.1006138">
        <ele>284.63977051</ele>
        <time>2022-10-30T10:46:23Z</time>
      </trkpt>
      <trkpt lat="41.3913255" lon="2.1006307">
        <ele>284.34976196</ele>
        <time>2022-10-30T10:46:24Z</time>
      </trkpt>
      <trkpt lat="41.3913834" lon="2.1006547">
        <ele>284.06976318</ele>
        <time>2022-10-30T10:46:25Z</time>
      </trkpt>
      <trkpt lat="41.3914604" lon="2.1007027">
        <ele>283.72976685</ele>
        <time>2022-10-30T10:46:26Z</time>
      </trkpt>
      <trkpt lat="41.3915083" lon="2.1007456">
        <ele>283.5397644</ele>
        <time>2022-10-30T10:46:27Z</time>
      </trkpt>
      <trkpt lat="41.3915542" lon="2.1007886">
        <ele>283.32977295</ele>
        <time>2022-10-30T10:46:28Z</time>
      </trkpt>
      <trkpt lat="41.3915982" lon="2.1008305">
        <ele>283.29977417</ele>
        <time>2022-10-30T10:46:29Z</time>
      </trkpt>
      <trkpt lat="41.3916402" lon="2.1008684">
        <ele>283.2197876</ele>
        <time>2022-10-30T10:46:30Z</time>
      </trkpt>
      <trkpt lat="41.3917051" lon="2.1009244">
        <ele>283.13980103</ele>
        <time>2022-10-30T10:46:31Z</time>
      </trkpt>
      <trkpt lat="41.391743" lon="2.1009603">
        <ele>283.1697998</ele>
        <time>2022-10-30T10:46:32Z</time>
      </trkpt>
      <trkpt lat="41.391779" lon="2.1009853">
        <ele>283.11981201</ele>
        <time>2022-10-30T10:46:33Z</time>
      </trkpt>
      <trkpt lat="41.391818" lon="2.1010022">
        <ele>283.22979736</ele>
        <time>2022-10-30T10:46:34Z</time>
      </trkpt>
      <trkpt lat="41.3918659" lon="2.1010412">
        <ele>283.29980469</ele>
        <time>2022-10-30T10:46:35Z</time>
      </trkpt>
      <trkpt lat="41.3919038" lon="2.1010591">
        <ele>283.30981445</ele>
        <time>2022-10-30T10:46:36Z</time>
      </trkpt>
      <trkpt lat="41.3919408" lon="2.101068">
        <ele>283.27981567</ele>
        <time>2022-10-30T10:46:37Z</time>
      </trkpt>
      <trkpt lat="41.3919757" lon="2.101076">
        <ele>283.23980713</ele>
        <time>2022-10-30T10:46:38Z</time>
      </trkpt>
      <trkpt lat="41.3920106" lon="2.1010849">
        <ele>283.21981812</ele>
        <time>2022-10-30T10:46:39Z</time>
      </trkpt>
      <trkpt lat="41.3920646" lon="2.1010809">
        <ele>283.15982056</ele>
        <time>2022-10-30T10:46:40Z</time>
      </trkpt>
      <trkpt lat="41.3920995" lon="2.1010649">
        <ele>283.15982056</ele>
        <time>2022-10-30T10:46:41Z</time>
      </trkpt>
      <trkpt lat="41.3921295" lon="2.101046">
        <ele>283.11981201</ele>
        <time>2022-10-30T10:46:42Z</time>
      </trkpt>
      <trkpt lat="41.3921584" lon="2.10103">
        <ele>283.05981445</ele>
        <time>2022-10-30T10:46:43Z</time>
      </trkpt>
      <trkpt lat="41.3922024" lon="2.1010071">
        <ele>283.03982544</ele>
        <time>2022-10-30T10:46:44Z</time>
      </trkpt>
      <trkpt lat="41.3922263" lon="2.1009931">
        <ele>282.96981812</ele>
        <time>2022-10-30T10:46:45Z</time>
      </trkpt>
      <trkpt lat="41.3922432" lon="2.1009861">
        <ele>282.90982056</ele>
        <time>2022-10-30T10:46:46Z</time>
      </trkpt>
      <trkpt lat="41.3922661" lon="2.1009692">
        <ele>282.849823</ele>
        <time>2022-10-30T10:46:47Z</time>
      </trkpt>
      <trkpt lat="41.3922901" lon="2.1009503">
        <ele>282.849823</ele>
        <time>2022-10-30T10:46:48Z</time>
      </trkpt>
      <trkpt lat="41.3923231" lon="2.1009303">
        <ele>282.86981201</ele>
        <time>2022-10-30T10:46:49Z</time>
      </trkpt>
      <trkpt lat="41.3923451" lon="2.1009154">
        <ele>282.87982178</ele>
        <time>2022-10-30T10:46:50Z</time>
      </trkpt>
      <trkpt lat="41.392367" lon="2.1009014">
        <ele>282.89981079</ele>
        <time>2022-10-30T10:46:51Z</time>
      </trkpt>
      <trkpt lat="41.392388" lon="2.1008835">
        <ele>282.85980225</ele>
        <time>2022-10-30T10:46:52Z</time>
      </trkpt>
      <trkpt lat="41.3924259" lon="2.1008575">
        <ele>282.83981323</ele>
        <time>2022-10-30T10:46:53Z</time>
      </trkpt>
      <trkpt lat="41.3924529" lon="2.1008315">
        <ele>282.83981323</ele>
        <time>2022-10-30T10:46:54Z</time>
      </trkpt>
      <trkpt lat="41.3924848" lon="2.1008066">
        <ele>282.80981445</ele>
        <time>2022-10-30T10:46:55Z</time>
      </trkpt>
      <trkpt lat="41.3925228" lon="2.1007836">
        <ele>282.82980347</ele>
        <time>2022-10-30T10:46:56Z</time>
      </trkpt>
      <trkpt lat="41.3925597" lon="2.1007617">
        <ele>282.8197937</ele>
        <time>2022-10-30T10:46:57Z</time>
      </trkpt>
      <trkpt lat="41.3926146" lon="2.1007398">
        <ele>282.8197937</ele>
        <time>2022-10-30T10:46:58Z</time>
      </trkpt>
      <trkpt lat="41.3926446" lon="2.1007298">
        <ele>282.86978149</ele>
        <time>2022-10-30T10:46:59Z</time>
      </trkpt>
      <trkpt lat="41.3926755" lon="2.1007239">
        <ele>282.87979126</ele>
        <time>2022-10-30T10:47:00Z</time>
      </trkpt>
      <trkpt lat="41.3927075" lon="2.100719">
        <ele>282.87979126</ele>
        <time>2022-10-30T10:47:01Z</time>
      </trkpt>
      <trkpt lat="41.3927594" lon="2.1007001">
        <ele>282.85980225</ele>
        <time>2022-10-30T10:47:02Z</time>
      </trkpt>
      <trkpt lat="41.3927943" lon="2.1006941">
        <ele>282.79980469</ele>
        <time>2022-10-30T10:47:03Z</time>
      </trkpt>
      <trkpt lat="41.3928273" lon="2.1006941">
        <ele>282.75979614</ele>
        <time>2022-10-30T10:47:04Z</time>
      </trkpt>
      <trkpt lat="41.3928612" lon="2.1006922">
        <ele>282.75979614</ele>
        <time>2022-10-30T10:47:05Z</time>
      </trkpt>
      <trkpt lat="41.3929042" lon="2.1006962">
        <ele>282.77978516</ele>
        <time>2022-10-30T10:47:06Z</time>
      </trkpt>
      <trkpt lat="41.3929321" lon="2.1007032">
        <ele>282.77978516</ele>
        <time>2022-10-30T10:47:07Z</time>
      </trkpt>
      <trkpt lat="41.3929571" lon="2.1006982">
        <ele>282.77978516</ele>
        <time>2022-10-30T10:47:08Z</time>
      </trkpt>
      <trkpt lat="41.3929811" lon="2.1006942">
        <ele>282.77978516</ele>
        <time>2022-10-30T10:47:09Z</time>
      </trkpt>
      <trkpt lat="41.393012" lon="2.1006923">
        <ele>282.75979614</ele>
        <time>2022-10-30T10:47:10Z</time>
      </trkpt>
      <trkpt lat="41.393059" lon="2.1006853">
        <ele>282.74978638</ele>
        <time>2022-10-30T10:47:11Z</time>
      </trkpt>
      <trkpt lat="41.3930909" lon="2.1006734">
        <ele>282.74978638</ele>
        <time>2022-10-30T10:47:12Z</time>
      </trkpt>
      <trkpt lat="41.3931288" lon="2.1006525">
        <ele>282.72979736</ele>
        <time>2022-10-30T10:47:13Z</time>
      </trkpt>
      <trkpt lat="41.3931638" lon="2.1006405">
        <ele>282.67980957</ele>
        <time>2022-10-30T10:47:14Z</time>
      </trkpt>
      <trkpt lat="41.3932007" lon="2.1006256">
        <ele>282.6697998</ele>
        <time>2022-10-30T10:47:15Z</time>
      </trkpt>
      <trkpt lat="41.3932537" lon="2.1006096">
        <ele>282.64981079</ele>
        <time>2022-10-30T10:47:16Z</time>
      </trkpt>
      <trkpt lat="41.3932916" lon="2.1005927">
        <ele>282.63980103</ele>
        <time>2022-10-30T10:47:17Z</time>
      </trkpt>
      <trkpt lat="41.3933296" lon="2.1005687">
        <ele>282.63980103</ele>
        <time>2022-10-30T10:47:18Z</time>
      </trkpt>
      <trkpt lat="41.3933705" lon="2.1005358">
        <ele>282.55981445</ele>
        <time>2022-10-30T10:47:19Z</time>
      </trkpt>
      <trkpt lat="41.3934335" lon="2.1004898">
        <ele>282.51980591</ele>
        <time>2022-10-30T10:47:20Z</time>
      </trkpt>
      <trkpt lat="41.3934725" lon="2.1004749">
        <ele>282.42980957</ele>
        <time>2022-10-30T10:47:21Z</time>
      </trkpt>
      <trkpt lat="41.3935064" lon="2.1004619">
        <ele>282.38980103</ele>
        <time>2022-10-30T10:47:22Z</time>
      </trkpt>
      <trkpt lat="41.3935443" lon="2.1004379">
        <ele>282.38980103</ele>
        <time>2022-10-30T10:47:23Z</time>
      </trkpt>
      <trkpt lat="41.3935863" lon="2.1004059">
        <ele>282.4197998</ele>
        <time>2022-10-30T10:47:24Z</time>
      </trkpt>
      <trkpt lat="41.3936353" lon="2.100381">
        <ele>282.51980591</ele>
        <time>2022-10-30T10:47:25Z</time>
      </trkpt>
      <trkpt lat="41.3936652" lon="2.1003641">
        <ele>282.52981567</ele>
        <time>2022-10-30T10:47:26Z</time>
      </trkpt>
      <trkpt lat="41.3936922" lon="2.1003521">
        <ele>282.53982544</ele>
        <time>2022-10-30T10:47:27Z</time>
      </trkpt>
      <trkpt lat="41.3937151" lon="2.1003502">
        <ele>282.49981689</ele>
        <time>2022-10-30T10:47:28Z</time>
      </trkpt>
      <trkpt lat="41.3937451" lon="2.1003453">
        <ele>282.45980835</ele>
        <time>2022-10-30T10:47:29Z</time>
      </trkpt>
      <trkpt lat="41.3937671" lon="2.1003433">
        <ele>282.46981812</ele>
        <time>2022-10-30T10:47:30Z</time>
      </trkpt>
      <trkpt lat="41.393785" lon="2.1003314">
        <ele>282.50982666</ele>
        <time>2022-10-30T10:47:31Z</time>
      </trkpt>
      <trkpt lat="41.3938049" lon="2.1003154">
        <ele>282.45983887</ele>
        <time>2022-10-30T10:47:32Z</time>
      </trkpt>
      <trkpt lat="41.3938239" lon="2.1003045">
        <ele>282.42984009</ele>
        <time>2022-10-30T10:47:33Z</time>
      </trkpt>
      <trkpt lat="41.3938578" lon="2.1002845">
        <ele>282.37985229</ele>
        <time>2022-10-30T10:47:34Z</time>
      </trkpt>
      <trkpt lat="41.3938738" lon="2.1002855">
        <ele>282.28985596</ele>
        <time>2022-10-30T10:47:35Z</time>
      </trkpt>
      <trkpt lat="41.3938887" lon="2.1002994">
        <ele>282.30984497</ele>
        <time>2022-10-30T10:47:36Z</time>
      </trkpt>
      <trkpt lat="41.3938967" lon="2.1003113">
        <ele>282.31985474</ele>
        <time>2022-10-30T10:47:37Z</time>
      </trkpt>
      <trkpt lat="41.3939196" lon="2.1003113">
        <ele>282.34985352</ele>
        <time>2022-10-30T10:47:38Z</time>
      </trkpt>
      <trkpt lat="41.3939575" lon="2.1002944">
        <ele>282.35986328</ele>
        <time>2022-10-30T10:47:39Z</time>
      </trkpt>
      <trkpt lat="41.3939945" lon="2.1002874">
        <ele>282.34985352</ele>
        <time>2022-10-30T10:47:40Z</time>
      </trkpt>
      <trkpt lat="41.3940354" lon="2.1002824">
        <ele>282.34985352</ele>
        <time>2022-10-30T10:47:41Z</time>
      </trkpt>
      <trkpt lat="41.3940973" lon="2.1002874">
        <ele>282.33984375</ele>
        <time>2022-10-30T10:47:42Z</time>
      </trkpt>
      <trkpt lat="41.3941213" lon="2.1003053">
        <ele>282.37985229</ele>
        <time>2022-10-30T10:47:43Z</time>
      </trkpt>
      <trkpt lat="41.3941582" lon="2.1003112">
        <ele>282.42984009</ele>
        <time>2022-10-30T10:47:44Z</time>
      </trkpt>
      <trkpt lat="41.3941901" lon="2.1003232">
        <ele>282.45983887</ele>
        <time>2022-10-30T10:47:45Z</time>
      </trkpt>
      <trkpt lat="41.3942221" lon="2.1003301">
        <ele>282.49984741</ele>
        <time>2022-10-30T10:47:46Z</time>
      </trkpt>
      <trkpt lat="41.394269" lon="2.1003351">
        <ele>282.49984741</ele>
        <time>2022-10-30T10:47:47Z</time>
      </trkpt>
      <trkpt lat="41.394308" lon="2.100337">
        <ele>282.49984741</ele>
        <time>2022-10-30T10:47:48Z</time>
      </trkpt>
      <trkpt lat="41.394346" lon="2.1003429">
        <ele>282.45983887</ele>
        <time>2022-10-30T10:47:49Z</time>
      </trkpt>
      <trkpt lat="41.3943799" lon="2.1003548">
        <ele>282.4498291</ele>
        <time>2022-10-30T10:47:50Z</time>
      </trkpt>
      <trkpt lat="41.3944348" lon="2.1003738">
        <ele>282.47982788</ele>
        <time>2022-10-30T10:47:51Z</time>
      </trkpt>
      <trkpt lat="41.3944698" lon="2.1003887">
        <ele>282.51983643</ele>
        <time>2022-10-30T10:47:52Z</time>
      </trkpt>
      <trkpt lat="41.3945107" lon="2.1003946">
        <ele>282.599823</ele>
        <time>2022-10-30T10:47:53Z</time>
      </trkpt>
      <trkpt lat="41.3945437" lon="2.1004135">
        <ele>282.65982056</ele>
        <time>2022-10-30T10:47:54Z</time>
      </trkpt>
      <trkpt lat="41.3945776" lon="2.1004344">
        <ele>282.67980957</ele>
        <time>2022-10-30T10:47:55Z</time>
      </trkpt>
      <trkpt lat="41.3946276" lon="2.1004674">
        <ele>282.67980957</ele>
        <time>2022-10-30T10:47:56Z</time>
      </trkpt>
      <trkpt lat="41.3946585" lon="2.1004904">
        <ele>282.65982056</ele>
        <time>2022-10-30T10:47:57Z</time>
      </trkpt>
      <trkpt lat="41.3946805" lon="2.1005333">
        <ele>282.66983032</ele>
        <time>2022-10-30T10:47:58Z</time>
      </trkpt>
      <trkpt lat="41.3947074" lon="2.1005742">
        <ele>282.63983154</ele>
        <time>2022-10-30T10:47:59Z</time>
      </trkpt>
      <trkpt lat="41.3947464" lon="2.1005922">
        <ele>282.51983643</ele>
        <time>2022-10-30T10:48:00Z</time>
      </trkpt>
      <trkpt lat="41.3948033" lon="2.1006201">
        <ele>282.55984497</ele>
        <time>2022-10-30T10:48:01Z</time>
      </trkpt>
      <trkpt lat="41.3948342" lon="2.10066">
        <ele>282.4798584</ele>
        <time>2022-10-30T10:48:02Z</time>
      </trkpt>
      <trkpt lat="41.3948592" lon="2.1007039">
        <ele>282.45986938</ele>
        <time>2022-10-30T10:48:03Z</time>
      </trkpt>
      <trkpt lat="41.3948842" lon="2.1007478">
        <ele>282.55987549</ele>
        <time>2022-10-30T10:48:04Z</time>
      </trkpt>
      <trkpt lat="41.3949282" lon="2.1008008">
        <ele>282.49987793</ele>
        <time>2022-10-30T10:48:05Z</time>
      </trkpt>
      <trkpt lat="41.3949581" lon="2.1008358">
        <ele>282.51986694</ele>
        <time>2022-10-30T10:48:06Z</time>
      </trkpt>
      <trkpt lat="41.3949901" lon="2.1008618">
        <ele>282.55987549</ele>
        <time>2022-10-30T10:48:07Z</time>
      </trkpt>
      <trkpt lat="41.395024" lon="2.1008778">
        <ele>282.51986694</ele>
        <time>2022-10-30T10:48:08Z</time>
      </trkpt>
      <trkpt lat="41.3950839" lon="2.1008817">
        <ele>282.48986816</ele>
        <time>2022-10-30T10:48:09Z</time>
      </trkpt>
      <trkpt lat="41.3951249" lon="2.1008846">
        <ele>282.40988159</ele>
        <time>2022-10-30T10:48:10Z</time>
      </trkpt>
      <trkpt lat="41.3951639" lon="2.1008747">
        <ele>282.34988403</ele>
        <time>2022-10-30T10:48:11Z</time>
      </trkpt>
      <trkpt lat="41.3951988" lon="2.1008647">
        <ele>282.29989624</ele>
        <time>2022-10-30T10:48:12Z</time>
      </trkpt>
      <trkpt lat="41.3952368" lon="2.1008458">
        <ele>282.27990723</ele>
        <time>2022-10-30T10:48:13Z</time>
      </trkpt>
      <trkpt lat="41.3952997" lon="2.1008198">
        <ele>282.34991455</ele>
        <time>2022-10-30T10:48:14Z</time>
      </trkpt>
      <trkpt lat="41.3953566" lon="2.1007789">
        <ele>282.30990601</ele>
        <time>2022-10-30T10:48:15Z</time>
      </trkpt>
      <trkpt lat="41.3954075" lon="2.1007399">
        <ele>282.27990723</ele>
        <time>2022-10-30T10:48:16Z</time>
      </trkpt>
      <trkpt lat="41.3954444" lon="2.100719">
        <ele>282.28991699</ele>
        <time>2022-10-30T10:48:17Z</time>
      </trkpt>
      <trkpt lat="41.3954814" lon="2.100692">
        <ele>282.18991089</ele>
        <time>2022-10-30T10:48:18Z</time>
      </trkpt>
      <trkpt lat="41.3955463" lon="2.1006581">
        <ele>282.09991455</ele>
        <time>2022-10-30T10:48:19Z</time>
      </trkpt>
      <trkpt lat="41.3955962" lon="2.1006302">
        <ele>282.08990479</ele>
        <time>2022-10-30T10:48:20Z</time>
      </trkpt>
      <trkpt lat="41.3956402" lon="2.1006062">
        <ele>282.02990723</ele>
        <time>2022-10-30T10:48:21Z</time>
      </trkpt>
      <trkpt lat="41.3956752" lon="2.1005793">
        <ele>282.09991455</ele>
        <time>2022-10-30T10:48:22Z</time>
      </trkpt>
      <trkpt lat="41.3957231" lon="2.1005443">
        <ele>282.21990967</ele>
        <time>2022-10-30T10:48:23Z</time>
      </trkpt>
      <trkpt lat="41.395758" lon="2.1005254">
        <ele>282.27990723</ele>
        <time>2022-10-30T10:48:24Z</time>
      </trkpt>
      <trkpt lat="41.395797" lon="2.1005184">
        <ele>282.34991455</ele>
        <time>2022-10-30T10:48:25Z</time>
      </trkpt>
      <trkpt lat="41.3958339" lon="2.1005194">
        <ele>282.34991455</ele>
        <time>2022-10-30T10:48:26Z</time>
      </trkpt>
      <trkpt lat="41.3958678" lon="2.1005343">
        <ele>282.34991455</ele>
        <time>2022-10-30T10:48:27Z</time>
      </trkpt>
      <trkpt lat="41.3959077" lon="2.1005573">
        <ele>282.3899231</ele>
        <time>2022-10-30T10:48:28Z</time>
      </trkpt>
      <trkpt lat="41.3959297" lon="2.1005802">
        <ele>282.40991211</ele>
        <time>2022-10-30T10:48:29Z</time>
      </trkpt>
      <trkpt lat="41.3959507" lon="2.1006162">
        <ele>282.49990845</ele>
        <time>2022-10-30T10:48:30Z</time>
      </trkpt>
      <trkpt lat="41.3959647" lon="2.1006462">
        <ele>282.58990479</ele>
        <time>2022-10-30T10:48:31Z</time>
      </trkpt>
      <trkpt lat="41.3959886" lon="2.1006741">
        <ele>282.63989258</ele>
        <time>2022-10-30T10:48:32Z</time>
      </trkpt>
      <trkpt lat="41.3960126" lon="2.100685">
        <ele>282.68988037</ele>
        <time>2022-10-30T10:48:33Z</time>
      </trkpt>
      <trkpt lat="41.3960376" lon="2.100709">
        <ele>282.66989136</ele>
        <time>2022-10-30T10:48:34Z</time>
      </trkpt>
      <trkpt lat="41.3960635" lon="2.1007399">
        <ele>282.64990234</ele>
        <time>2022-10-30T10:48:35Z</time>
      </trkpt>
      <trkpt lat="41.3960954" lon="2.1007689">
        <ele>282.61990356</ele>
        <time>2022-10-30T10:48:36Z</time>
      </trkpt>
      <trkpt lat="41.3961553" lon="2.1007928">
        <ele>282.61990356</ele>
        <time>2022-10-30T10:48:37Z</time>
      </trkpt>
      <trkpt lat="41.3962023" lon="2.1008117">
        <ele>282.61990356</ele>
        <time>2022-10-30T10:48:38Z</time>
      </trkpt>
      <trkpt lat="41.3962343" lon="2.1008437">
        <ele>282.61990356</ele>
        <time>2022-10-30T10:48:39Z</time>
      </trkpt>
      <trkpt lat="41.3962672" lon="2.1008707">
        <ele>282.63989258</ele>
        <time>2022-10-30T10:48:40Z</time>
      </trkpt>
      <trkpt lat="41.3963302" lon="2.1008956">
        <ele>282.59988403</ele>
        <time>2022-10-30T10:48:41Z</time>
      </trkpt>
      <trkpt lat="41.3963752" lon="2.1009056">
        <ele>282.59988403</ele>
        <time>2022-10-30T10:48:42Z</time>
      </trkpt>
      <trkpt lat="41.3964071" lon="2.1009295">
        <ele>282.58987427</ele>
        <time>2022-10-30T10:48:43Z</time>
      </trkpt>
      <trkpt lat="41.3964341" lon="2.1009544">
        <ele>282.49987793</ele>
        <time>2022-10-30T10:48:44Z</time>
      </trkpt>
      <trkpt lat="41.39646" lon="2.1009744">
        <ele>282.47988892</ele>
        <time>2022-10-30T10:48:45Z</time>
      </trkpt>
      <trkpt lat="41.3965009" lon="2.1009983">
        <ele>282.43988037</ele>
        <time>2022-10-30T10:48:46Z</time>
      </trkpt>
      <trkpt lat="41.3965279" lon="2.1010163">
        <ele>282.42987061</ele>
        <time>2022-10-30T10:48:47Z</time>
      </trkpt>
      <trkpt lat="41.3965588" lon="2.1010363">
        <ele>282.51986694</ele>
        <time>2022-10-30T10:48:48Z</time>
      </trkpt>
      <trkpt lat="41.3965927" lon="2.1010582">
        <ele>282.52987671</ele>
        <time>2022-10-30T10:48:49Z</time>
      </trkpt>
      <trkpt lat="41.3966457" lon="2.1010721">
        <ele>282.54986572</ele>
        <time>2022-10-30T10:48:50Z</time>
      </trkpt>
      <trkpt lat="41.3966856" lon="2.101081">
        <ele>282.59985352</ele>
        <time>2022-10-30T10:48:51Z</time>
      </trkpt>
      <trkpt lat="41.3967266" lon="2.1010801">
        <ele>282.59985352</ele>
        <time>2022-10-30T10:48:52Z</time>
      </trkpt>
      <trkpt lat="41.3967695" lon="2.1010781">
        <ele>282.56985474</ele>
        <time>2022-10-30T10:48:53Z</time>
      </trkpt>
      <trkpt lat="41.3968314" lon="2.1010722">
        <ele>282.51986694</ele>
        <time>2022-10-30T10:48:54Z</time>
      </trkpt>
      <trkpt lat="41.3968724" lon="2.1010751">
        <ele>282.42987061</ele>
        <time>2022-10-30T10:48:55Z</time>
      </trkpt>
      <trkpt lat="41.3969153" lon="2.1010821">
        <ele>282.34988403</ele>
        <time>2022-10-30T10:48:56Z</time>
      </trkpt>
      <trkpt lat="41.3969562" lon="2.101087">
        <ele>282.30987549</ele>
        <time>2022-10-30T10:48:57Z</time>
      </trkpt>
      <trkpt lat="41.3969962" lon="2.101091">
        <ele>282.24987793</ele>
        <time>2022-10-30T10:48:58Z</time>
      </trkpt>
      <trkpt lat="41.3970421" lon="2.101098">
        <ele>282.21987915</ele>
        <time>2022-10-30T10:48:59Z</time>
      </trkpt>
      <trkpt lat="41.397074" lon="2.1011009">
        <ele>282.19989014</ele>
        <time>2022-10-30T10:49:00Z</time>
      </trkpt>
      <trkpt lat="41.397104" lon="2.1011158">
        <ele>282.19989014</ele>
        <time>2022-10-30T10:49:01Z</time>
      </trkpt>
      <trkpt lat="41.397137" lon="2.1011338">
        <ele>282.21987915</ele>
        <time>2022-10-30T10:49:02Z</time>
      </trkpt>
      <trkpt lat="41.3971809" lon="2.1011617">
        <ele>282.2598877</ele>
        <time>2022-10-30T10:49:03Z</time>
      </trkpt>
      <trkpt lat="41.3972118" lon="2.1011847">
        <ele>282.38989258</ele>
        <time>2022-10-30T10:49:04Z</time>
      </trkpt>
      <trkpt lat="41.3972388" lon="2.1012106">
        <ele>282.48989868</ele>
        <time>2022-10-30T10:49:05Z</time>
      </trkpt>
      <trkpt lat="41.3972628" lon="2.1012416">
        <ele>282.64990234</ele>
        <time>2022-10-30T10:49:06Z</time>
      </trkpt>
      <trkpt lat="41.3972967" lon="2.1012755">
        <ele>282.80990601</ele>
        <time>2022-10-30T10:49:07Z</time>
      </trkpt>
      <trkpt lat="41.3973196" lon="2.1012994">
        <ele>282.96990967</ele>
        <time>2022-10-30T10:49:08Z</time>
      </trkpt>
      <trkpt lat="41.3973455" lon="2.1013174">
        <ele>283.17990112</ele>
        <time>2022-10-30T10:49:09Z</time>
      </trkpt>
      <trkpt lat="41.3973714" lon="2.1013434">
        <ele>283.42990112</ele>
        <time>2022-10-30T10:49:10Z</time>
      </trkpt>
      <trkpt lat="41.3973954" lon="2.1013703">
        <ele>283.67990112</ele>
        <time>2022-10-30T10:49:11Z</time>
      </trkpt>
      <trkpt lat="41.3974243" lon="2.1013822">
        <ele>283.86990356</ele>
        <time>2022-10-30T10:49:12Z</time>
      </trkpt>
      <trkpt lat="41.3974743" lon="2.1014361">
        <ele>284.07989502</ele>
        <time>2022-10-30T10:49:13Z</time>
      </trkpt>
      <trkpt lat="41.3975032" lon="2.1014711">
        <ele>284.2598877</ele>
        <time>2022-10-30T10:49:14Z</time>
      </trkpt>
      <trkpt lat="41.3975362" lon="2.1014891">
        <ele>284.41989136</ele>
        <time>2022-10-30T10:49:15Z</time>
      </trkpt>
      <trkpt lat="41.3975711" lon="2.101501">
        <ele>284.63989258</ele>
        <time>2022-10-30T10:49:16Z</time>
      </trkpt>
      <trkpt lat="41.397622" lon="2.1015059">
        <ele>284.79989624</ele>
        <time>2022-10-30T10:49:17Z</time>
      </trkpt>
      <trkpt lat="41.397663" lon="2.1015129">
        <ele>284.90988159</ele>
        <time>2022-10-30T10:49:18Z</time>
      </trkpt>
      <trkpt lat="41.39769" lon="2.1015508">
        <ele>284.96987915</ele>
        <time>2022-10-30T10:49:19Z</time>
      </trkpt>
      <trkpt lat="41.3977309" lon="2.1015527">
        <ele>284.94989014</ele>
        <time>2022-10-30T10:49:20Z</time>
      </trkpt>
      <trkpt lat="41.3977699" lon="2.1015657">
        <ele>284.83990479</ele>
        <time>2022-10-30T10:49:21Z</time>
      </trkpt>
      <trkpt lat="41.3978268" lon="2.1015967">
        <ele>284.64990234</ele>
        <time>2022-10-30T10:49:22Z</time>
      </trkpt>
      <trkpt lat="41.3978698" lon="2.1016156">
        <ele>284.27990723</ele>
        <time>2022-10-30T10:49:23Z</time>
      </trkpt>
      <trkpt lat="41.3979077" lon="2.1016405">
        <ele>283.78991699</ele>
        <time>2022-10-30T10:49:24Z</time>
      </trkpt>
      <trkpt lat="41.3979627" lon="2.1016584">
        <ele>283.26992798</ele>
        <time>2022-10-30T10:49:25Z</time>
      </trkpt>
      <trkpt lat="41.3980316" lon="2.1017094">
        <ele>282.81991577</ele>
        <time>2022-10-30T10:49:26Z</time>
      </trkpt>
      <trkpt lat="41.3980666" lon="2.1017473">
        <ele>282.54992676</ele>
        <time>2022-10-30T10:49:27Z</time>
      </trkpt>
      <trkpt lat="41.3980855" lon="2.1017963">
        <ele>282.41992188</ele>
        <time>2022-10-30T10:49:28Z</time>
      </trkpt>
      <trkpt lat="41.3980935" lon="2.1018402">
        <ele>282.36993408</ele>
        <time>2022-10-30T10:49:29Z</time>
      </trkpt>
      <trkpt lat="41.3981024" lon="2.1018771">
        <ele>282.29992676</ele>
        <time>2022-10-30T10:49:30Z</time>
      </trkpt>
      <trkpt lat="41.3980955" lon="2.1019681">
        <ele>282.20993042</ele>
        <time>2022-10-30T10:49:31Z</time>
      </trkpt>
      <trkpt lat="41.3980905" lon="2.102028">
        <ele>282.11993408</ele>
        <time>2022-10-30T10:49:32Z</time>
      </trkpt>
      <trkpt lat="41.3980885" lon="2.1020959">
        <ele>282.06994629</ele>
        <time>2022-10-30T10:49:33Z</time>
      </trkpt>
      <trkpt lat="41.3980836" lon="2.1021649">
        <ele>282.09994507</ele>
        <time>2022-10-30T10:49:34Z</time>
      </trkpt>
      <trkpt lat="41.3980756" lon="2.1022588">
        <ele>282.10995483</ele>
        <time>2022-10-30T10:49:35Z</time>
      </trkpt>
      <trkpt lat="41.3980756" lon="2.1023207">
        <ele>282.14996338</ele>
        <time>2022-10-30T10:49:36Z</time>
      </trkpt>
      <trkpt lat="41.3980765" lon="2.1023767">
        <ele>282.22994995</ele>
        <time>2022-10-30T10:49:37Z</time>
      </trkpt>
      <trkpt lat="41.3980765" lon="2.1024286">
        <ele>282.19995117</ele>
        <time>2022-10-30T10:49:38Z</time>
      </trkpt>
      <trkpt lat="41.3980884" lon="2.1024825">
        <ele>282.17996216</ele>
        <time>2022-10-30T10:49:39Z</time>
      </trkpt>
      <trkpt lat="41.398098" lon="2.1024919">
        <ele>281.8999939</ele>
        <time>2022-10-30T10:49:39Z</time>
      </trkpt>
      <trkpt lat="41.398117" lon="2.1025419">
        <ele>281.88000488</ele>
        <time>2022-10-30T10:49:40Z</time>
      </trkpt>
      <trkpt lat="41.398145" lon="2.1026119">
        <ele>281.77001953</ele>
        <time>2022-10-30T10:49:41Z</time>
      </trkpt>
      <trkpt lat="41.3981629" lon="2.1026629">
        <ele>281.71002197</ele>
        <time>2022-10-30T10:49:42Z</time>
      </trkpt>
      <trkpt lat="41.3981839" lon="2.1027128">
        <ele>281.68002319</ele>
        <time>2022-10-30T10:49:43Z</time>
      </trkpt>
      <trkpt lat="41.3982199" lon="2.1027667">
        <ele>281.61001587</ele>
        <time>2022-10-30T10:49:44Z</time>
      </trkpt>
      <trkpt lat="41.3982498" lon="2.1028006">
        <ele>281.61001587</ele>
        <time>2022-10-30T10:49:45Z</time>
      </trkpt>
      <trkpt lat="41.3982758" lon="2.1028296">
        <ele>281.57000732</ele>
        <time>2022-10-30T10:49:46Z</time>
      </trkpt>
      <trkpt lat="41.3983017" lon="2.1028575">
        <ele>281.52001953</ele>
        <time>2022-10-30T10:49:47Z</time>
      </trkpt>
      <trkpt lat="41.3983267" lon="2.1028875">
        <ele>281.49002075</ele>
        <time>2022-10-30T10:49:48Z</time>
      </trkpt>
      <trkpt lat="41.3983676" lon="2.1029314">
        <ele>281.42001343</ele>
        <time>2022-10-30T10:49:49Z</time>
      </trkpt>
      <trkpt lat="41.3983886" lon="2.1029683">
        <ele>281.38000488</ele>
        <time>2022-10-30T10:49:50Z</time>
      </trkpt>
      <trkpt lat="41.3984166" lon="2.1030083">
        <ele>281.38000488</ele>
        <time>2022-10-30T10:49:51Z</time>
      </trkpt>
      <trkpt lat="41.3984435" lon="2.1030433">
        <ele>281.33001709</ele>
        <time>2022-10-30T10:49:52Z</time>
      </trkpt>
      <trkpt lat="41.3984695" lon="2.1031082">
        <ele>281.36001587</ele>
        <time>2022-10-30T10:49:53Z</time>
      </trkpt>
      <trkpt lat="41.3984854" lon="2.1031572">
        <ele>281.41000366</ele>
        <time>2022-10-30T10:49:54Z</time>
      </trkpt>
      <trkpt lat="41.3984973" lon="2.1032091">
        <ele>281.3500061</ele>
        <time>2022-10-30T10:49:55Z</time>
      </trkpt>
      <trkpt lat="41.3985193" lon="2.1032541">
        <ele>281.33999634</ele>
        <time>2022-10-30T10:49:56Z</time>
      </trkpt>
      <trkpt lat="41.3985433" lon="2.1033001">
        <ele>281.26000977</ele>
        <time>2022-10-30T10:49:57Z</time>
      </trkpt>
      <trkpt lat="41.3985802" lon="2.1033611">
        <ele>281.14001465</ele>
        <time>2022-10-30T10:49:58Z</time>
      </trkpt>
      <trkpt lat="41.3986061" lon="2.1034">
        <ele>281.12002563</ele>
        <time>2022-10-30T10:49:59Z</time>
      </trkpt>
      <trkpt lat="41.3986351" lon="2.103436">
        <ele>281.09002686</ele>
        <time>2022-10-30T10:50:00Z</time>
      </trkpt>
      <trkpt lat="41.39866" lon="2.1034789">
        <ele>281.05001831</ele>
        <time>2022-10-30T10:50:01Z</time>
      </trkpt>
      <trkpt lat="41.3987" lon="2.1035349">
        <ele>281.08001709</ele>
        <time>2022-10-30T10:50:02Z</time>
      </trkpt>
      <trkpt lat="41.3987369" lon="2.1035688">
        <ele>281.09002686</ele>
        <time>2022-10-30T10:50:03Z</time>
      </trkpt>
      <trkpt lat="41.3987759" lon="2.1036048">
        <ele>281.15002441</ele>
        <time>2022-10-30T10:50:04Z</time>
      </trkpt>
      <trkpt lat="41.3988158" lon="2.1036338">
        <ele>281.32003784</ele>
        <time>2022-10-30T10:50:05Z</time>
      </trkpt>
      <trkpt lat="41.3988477" lon="2.1036688">
        <ele>281.45004272</ele>
        <time>2022-10-30T10:50:06Z</time>
      </trkpt>
      <trkpt lat="41.3988977" lon="2.1037168">
        <ele>281.56002808</ele>
        <time>2022-10-30T10:50:07Z</time>
      </trkpt>
      <trkpt lat="41.3989346" lon="2.1037457">
        <ele>281.66003418</ele>
        <time>2022-10-30T10:50:08Z</time>
      </trkpt>
      <trkpt lat="41.3989646" lon="2.1037787">
        <ele>281.72003174</ele>
        <time>2022-10-30T10:50:09Z</time>
      </trkpt>
      <trkpt lat="41.3989985" lon="2.1038017">
        <ele>281.77001953</ele>
        <time>2022-10-30T10:50:10Z</time>
      </trkpt>
      <trkpt lat="41.3990524" lon="2.1038166">
        <ele>281.80001831</ele>
        <time>2022-10-30T10:50:11Z</time>
      </trkpt>
      <trkpt lat="41.3990914" lon="2.1038117">
        <ele>281.88000488</ele>
        <time>2022-10-30T10:50:12Z</time>
      </trkpt>
      <trkpt lat="41.3991304" lon="2.1037997">
        <ele>281.83001709</ele>
        <time>2022-10-30T10:50:13Z</time>
      </trkpt>
      <trkpt lat="41.3991683" lon="2.1037928">
        <ele>281.74002075</ele>
        <time>2022-10-30T10:50:14Z</time>
      </trkpt>
      <trkpt lat="41.3992222" lon="2.1038088">
        <ele>281.69003296</ele>
        <time>2022-10-30T10:50:15Z</time>
      </trkpt>
      <trkpt lat="41.3992422" lon="2.1038527">
        <ele>281.52001953</ele>
        <time>2022-10-30T10:50:16Z</time>
      </trkpt>
      <trkpt lat="41.3992741" lon="2.1038847">
        <ele>281.44003296</ele>
        <time>2022-10-30T10:50:17Z</time>
      </trkpt>
      <trkpt lat="41.3992931" lon="2.1039346">
        <ele>281.39004517</ele>
        <time>2022-10-30T10:50:18Z</time>
      </trkpt>
      <trkpt lat="41.3993071" lon="2.1039885">
        <ele>281.34005737</ele>
        <time>2022-10-30T10:50:19Z</time>
      </trkpt>
      <trkpt lat="41.399319" lon="2.1040655">
        <ele>281.33004761</ele>
        <time>2022-10-30T10:50:20Z</time>
      </trkpt>
      <trkpt lat="41.3993249" lon="2.1041194">
        <ele>281.33004761</ele>
        <time>2022-10-30T10:50:21Z</time>
      </trkpt>
      <trkpt lat="41.3993379" lon="2.1041723">
        <ele>281.33004761</ele>
        <time>2022-10-30T10:50:22Z</time>
      </trkpt>
      <trkpt lat="41.3993528" lon="2.1042213">
        <ele>281.39004517</ele>
        <time>2022-10-30T10:50:23Z</time>
      </trkpt>
      <trkpt lat="41.3993787" lon="2.1043122">
        <ele>281.45004272</ele>
        <time>2022-10-30T10:50:24Z</time>
      </trkpt>
      <trkpt lat="41.3993986" lon="2.1043672">
        <ele>281.42004395</ele>
        <time>2022-10-30T10:50:25Z</time>
      </trkpt>
      <trkpt lat="41.3994166" lon="2.1044201">
        <ele>281.39004517</ele>
        <time>2022-10-30T10:50:26Z</time>
      </trkpt>
      <trkpt lat="41.3994365" lon="2.1044621">
        <ele>281.30004883</ele>
        <time>2022-10-30T10:50:27Z</time>
      </trkpt>
      <trkpt lat="41.3994615" lon="2.10449">
        <ele>281.26004028</ele>
        <time>2022-10-30T10:50:28Z</time>
      </trkpt>
      <trkpt lat="41.3995094" lon="2.104519">
        <ele>281.26004028</ele>
        <time>2022-10-30T10:50:29Z</time>
      </trkpt>
      <trkpt lat="41.3995403" lon="2.104535">
        <ele>281.29003906</ele>
        <time>2022-10-30T10:50:30Z</time>
      </trkpt>
      <trkpt lat="41.3995752" lon="2.1045559">
        <ele>281.32003784</ele>
        <time>2022-10-30T10:50:31Z</time>
      </trkpt>
      <trkpt lat="41.3996132" lon="2.1045769">
        <ele>281.31002808</ele>
        <time>2022-10-30T10:50:32Z</time>
      </trkpt>
      <trkpt lat="41.3996741" lon="2.1045908">
        <ele>281.34002686</ele>
        <time>2022-10-30T10:50:33Z</time>
      </trkpt>
      <trkpt lat="41.3997201" lon="2.1045928">
        <ele>281.37002563</ele>
        <time>2022-10-30T10:50:34Z</time>
      </trkpt>
      <trkpt lat="41.399766" lon="2.1045977">
        <ele>281.31002808</ele>
        <time>2022-10-30T10:50:35Z</time>
      </trkpt>
      <trkpt lat="41.3998139" lon="2.1045977">
        <ele>281.2800293</ele>
        <time>2022-10-30T10:50:36Z</time>
      </trkpt>
      <trkpt lat="41.3998659" lon="2.1045928">
        <ele>281.26004028</ele>
        <time>2022-10-30T10:50:37Z</time>
      </trkpt>
      <trkpt lat="41.3999389" lon="2.1045738">
        <ele>281.2300415</ele>
        <time>2022-10-30T10:50:38Z</time>
      </trkpt>
      <trkpt lat="41.3999828" lon="2.1045669">
        <ele>281.26004028</ele>
        <time>2022-10-30T10:50:39Z</time>
      </trkpt>
      <trkpt lat="41.4000248" lon="2.1045629">
        <ele>281.31002808</ele>
        <time>2022-10-30T10:50:40Z</time>
      </trkpt>
      <trkpt lat="41.4000668" lon="2.1045619">
        <ele>281.31002808</ele>
        <time>2022-10-30T10:50:41Z</time>
      </trkpt>
      <trkpt lat="41.4001058" lon="2.1045629">
        <ele>281.31002808</ele>
        <time>2022-10-30T10:50:42Z</time>
      </trkpt>
      <trkpt lat="41.4001668" lon="2.1045589">
        <ele>281.27001953</ele>
        <time>2022-10-30T10:50:43Z</time>
      </trkpt>
      <trkpt lat="41.4002067" lon="2.104558">
        <ele>281.24002075</ele>
        <time>2022-10-30T10:50:44Z</time>
      </trkpt>
      <trkpt lat="41.4002537" lon="2.104554">
        <ele>281.24002075</ele>
        <time>2022-10-30T10:50:45Z</time>
      </trkpt>
      <trkpt lat="41.4002966" lon="2.1045481">
        <ele>281.23001099</ele>
        <time>2022-10-30T10:50:46Z</time>
      </trkpt>
      <trkpt lat="41.4003606" lon="2.1045431">
        <ele>281.27001953</ele>
        <time>2022-10-30T10:50:47Z</time>
      </trkpt>
      <trkpt lat="41.4003995" lon="2.1045352">
        <ele>281.27001953</ele>
        <time>2022-10-30T10:50:48Z</time>
      </trkpt>
      <trkpt lat="41.4004385" lon="2.1045252">
        <ele>281.33001709</ele>
        <time>2022-10-30T10:50:49Z</time>
      </trkpt>
      <trkpt lat="41.4004845" lon="2.1045172">
        <ele>281.48001099</ele>
        <time>2022-10-30T10:50:50Z</time>
      </trkpt>
      <trkpt lat="41.4005484" lon="2.1044953">
        <ele>281.63000488</ele>
        <time>2022-10-30T10:50:51Z</time>
      </trkpt>
      <trkpt lat="41.4005904" lon="2.1044784">
        <ele>281.72000122</ele>
        <time>2022-10-30T10:50:52Z</time>
      </trkpt>
      <trkpt lat="41.4006324" lon="2.1044624">
        <ele>281.73001099</ele>
        <time>2022-10-30T10:50:53Z</time>
      </trkpt>
      <trkpt lat="41.4006734" lon="2.1044505">
        <ele>281.71002197</ele>
        <time>2022-10-30T10:50:54Z</time>
      </trkpt>
      <trkpt lat="41.4007103" lon="2.1044325">
        <ele>281.75003052</ele>
        <time>2022-10-30T10:50:55Z</time>
      </trkpt>
      <trkpt lat="41.4007442" lon="2.1044076">
        <ele>281.85003662</ele>
        <time>2022-10-30T10:50:56Z</time>
      </trkpt>
      <trkpt lat="41.4008082" lon="2.1043737">
        <ele>281.93002319</ele>
        <time>2022-10-30T10:50:57Z</time>
      </trkpt>
      <trkpt lat="41.4008551" lon="2.1043807">
        <ele>281.93002319</ele>
        <time>2022-10-30T10:50:58Z</time>
      </trkpt>
      <trkpt lat="41.4009021" lon="2.1044046">
        <ele>281.85003662</ele>
        <time>2022-10-30T10:50:59Z</time>
      </trkpt>
      <trkpt lat="41.400936" lon="2.1044455">
        <ele>281.83004761</ele>
        <time>2022-10-30T10:51:00Z</time>
      </trkpt>
      <trkpt lat="41.40095" lon="2.1045334">
        <ele>281.81005859</ele>
        <time>2022-10-30T10:51:01Z</time>
      </trkpt>
      <trkpt lat="41.400966" lon="2.1045824">
        <ele>281.83004761</ele>
        <time>2022-10-30T10:51:02Z</time>
      </trkpt>
      <trkpt lat="41.4009919" lon="2.1046193">
        <ele>281.84005737</ele>
        <time>2022-10-30T10:51:03Z</time>
      </trkpt>
      <trkpt lat="41.4010148" lon="2.1046563">
        <ele>281.81005859</ele>
        <time>2022-10-30T10:51:04Z</time>
      </trkpt>
      <trkpt lat="41.4010558" lon="2.1046972">
        <ele>281.81005859</ele>
        <time>2022-10-30T10:51:05Z</time>
      </trkpt>
      <trkpt lat="41.4010888" lon="2.1047181">
        <ele>281.85006714</ele>
        <time>2022-10-30T10:51:06Z</time>
      </trkpt>
      <trkpt lat="41.4011237" lon="2.1047411">
        <ele>281.89007568</ele>
        <time>2022-10-30T10:51:07Z</time>
      </trkpt>
      <trkpt lat="41.4011517" lon="2.104759">
        <ele>281.98007202</ele>
        <time>2022-10-30T10:51:08Z</time>
      </trkpt>
      <trkpt lat="41.4012067" lon="2.10478">
        <ele>282.02008057</ele>
        <time>2022-10-30T10:51:09Z</time>
      </trkpt>
      <trkpt lat="41.4012406" lon="2.1048059">
        <ele>282.04006958</ele>
        <time>2022-10-30T10:51:10Z</time>
      </trkpt>
      <trkpt lat="41.4012735" lon="2.1048289">
        <ele>282.09005737</ele>
        <time>2022-10-30T10:51:11Z</time>
      </trkpt>
      <trkpt lat="41.4013065" lon="2.1048549">
        <ele>282.13006592</ele>
        <time>2022-10-30T10:51:12Z</time>
      </trkpt>
      <trkpt lat="41.4013455" lon="2.1048758">
        <ele>282.1600647</ele>
        <time>2022-10-30T10:51:13Z</time>
      </trkpt>
      <trkpt lat="41.4014074" lon="2.1049018">
        <ele>282.1600647</ele>
        <time>2022-10-30T10:51:14Z</time>
      </trkpt>
      <trkpt lat="41.4014483" lon="2.1049248">
        <ele>282.13006592</ele>
        <time>2022-10-30T10:51:15Z</time>
      </trkpt>
      <trkpt lat="41.4014873" lon="2.1049467">
        <ele>282.06005859</ele>
        <time>2022-10-30T10:51:16Z</time>
      </trkpt>
      <trkpt lat="41.4015313" lon="2.1049607">
        <ele>282.03005981</ele>
        <time>2022-10-30T10:51:17Z</time>
      </trkpt>
      <trkpt lat="41.4015832" lon="2.1049966">
        <ele>282.03005981</ele>
        <time>2022-10-30T10:51:18Z</time>
      </trkpt>
      <trkpt lat="41.4016182" lon="2.1050185">
        <ele>282.09005737</ele>
        <time>2022-10-30T10:51:19Z</time>
      </trkpt>
      <trkpt lat="41.4016521" lon="2.1050445">
        <ele>282.17004395</ele>
        <time>2022-10-30T10:51:20Z</time>
      </trkpt>
      <trkpt lat="41.4016821" lon="2.1050675">
        <ele>282.17004395</ele>
        <time>2022-10-30T10:51:21Z</time>
      </trkpt>
      <trkpt lat="41.4017101" lon="2.1050894">
        <ele>282.16003418</ele>
        <time>2022-10-30T10:51:22Z</time>
      </trkpt>
      <trkpt lat="41.401749" lon="2.1051184">
        <ele>282.07003784</ele>
        <time>2022-10-30T10:51:23Z</time>
      </trkpt>
      <trkpt lat="41.401783" lon="2.1051373">
        <ele>281.9800415</ele>
        <time>2022-10-30T10:51:24Z</time>
      </trkpt>
      <trkpt lat="41.4018169" lon="2.1051483">
        <ele>281.99005127</ele>
        <time>2022-10-30T10:51:25Z</time>
      </trkpt>
      <trkpt lat="41.4018488" lon="2.1051423">
        <ele>282.02005005</ele>
        <time>2022-10-30T10:51:26Z</time>
      </trkpt>
      <trkpt lat="41.4018887" lon="2.1051254">
        <ele>282.06005859</ele>
        <time>2022-10-30T10:51:27Z</time>
      </trkpt>
      <trkpt lat="41.4019187" lon="2.1050975">
        <ele>282.07006836</ele>
        <time>2022-10-30T10:51:28Z</time>
      </trkpt>
      <trkpt lat="41.4019526" lon="2.1050615">
        <ele>282.0100708</ele>
        <time>2022-10-30T10:51:29Z</time>
      </trkpt>
      <trkpt lat="41.4019955" lon="2.1050265">
        <ele>281.90008545</ele>
        <time>2022-10-30T10:51:30Z</time>
      </trkpt>
      <trkpt lat="41.4020354" lon="2.1049975">
        <ele>281.7600708</ele>
        <time>2022-10-30T10:51:31Z</time>
      </trkpt>
      <trkpt lat="41.4020864" lon="2.1050064">
        <ele>281.64007568</ele>
        <time>2022-10-30T10:51:32Z</time>
      </trkpt>
      <trkpt lat="41.4021203" lon="2.1050204">
        <ele>281.52008057</ele>
        <time>2022-10-30T10:51:33Z</time>
      </trkpt>
      <trkpt lat="41.4021512" lon="2.1050543">
        <ele>281.35006714</ele>
        <time>2022-10-30T10:51:34Z</time>
      </trkpt>
      <trkpt lat="41.4021821" lon="2.1050952">
        <ele>281.21005249</ele>
        <time>2022-10-30T10:51:35Z</time>
      </trkpt>
      <trkpt lat="41.402209" lon="2.1051762">
        <ele>281.02005005</ele>
        <time>2022-10-30T10:51:36Z</time>
      </trkpt>
      <trkpt lat="41.402231" lon="2.1052432">
        <ele>280.94006348</ele>
        <time>2022-10-30T10:51:37Z</time>
      </trkpt>
      <trkpt lat="41.402258" lon="2.1052891">
        <ele>281.03005981</ele>
        <time>2022-10-30T10:51:38Z</time>
      </trkpt>
      <trkpt lat="41.4022889" lon="2.105336">
        <ele>281.1600647</ele>
        <time>2022-10-30T10:51:39Z</time>
      </trkpt>
      <trkpt lat="41.4023188" lon="2.1053899">
        <ele>281.38006592</ele>
        <time>2022-10-30T10:51:40Z</time>
      </trkpt>
      <trkpt lat="41.4023697" lon="2.1054649">
        <ele>281.58007812</ele>
        <time>2022-10-30T10:51:41Z</time>
      </trkpt>
      <trkpt lat="41.4024006" lon="2.1055069">
        <ele>281.65008545</ele>
        <time>2022-10-30T10:51:42Z</time>
      </trkpt>
      <trkpt lat="41.4024226" lon="2.1055368">
        <ele>281.68008423</ele>
        <time>2022-10-30T10:51:43Z</time>
      </trkpt>
      <trkpt lat="41.4024486" lon="2.1055668">
        <ele>281.68008423</ele>
        <time>2022-10-30T10:51:44Z</time>
      </trkpt>
      <trkpt lat="41.4024685" lon="2.1056097">
        <ele>281.62008667</ele>
        <time>2022-10-30T10:51:45Z</time>
      </trkpt>
      <trkpt lat="41.4025105" lon="2.1056636">
        <ele>281.62008667</ele>
        <time>2022-10-30T10:51:46Z</time>
      </trkpt>
      <trkpt lat="41.4025434" lon="2.1056915">
        <ele>281.65008545</ele>
        <time>2022-10-30T10:51:47Z</time>
      </trkpt>
      <trkpt lat="41.4025773" lon="2.1057125">
        <ele>281.69009399</ele>
        <time>2022-10-30T10:51:48Z</time>
      </trkpt>
      <trkpt lat="41.4026093" lon="2.1057314">
        <ele>281.74008179</ele>
        <time>2022-10-30T10:51:49Z</time>
      </trkpt>
      <trkpt lat="41.4026712" lon="2.1057463">
        <ele>281.73007202</ele>
        <time>2022-10-30T10:51:50Z</time>
      </trkpt>
      <trkpt lat="41.4027212" lon="2.1057492">
        <ele>281.65008545</ele>
        <time>2022-10-30T10:51:51Z</time>
      </trkpt>
      <trkpt lat="41.4027641" lon="2.1057632">
        <ele>281.64007568</ele>
        <time>2022-10-30T10:51:52Z</time>
      </trkpt>
      <trkpt lat="41.402798" lon="2.1057781">
        <ele>281.63006592</ele>
        <time>2022-10-30T10:51:53Z</time>
      </trkpt>
      <trkpt lat="41.402837" lon="2.105796">
        <ele>281.64007568</ele>
        <time>2022-10-30T10:51:54Z</time>
      </trkpt>
      <trkpt lat="41.4029029" lon="2.105819">
        <ele>281.70007324</ele>
        <time>2022-10-30T10:51:55Z</time>
      </trkpt>
      <trkpt lat="41.4029449" lon="2.10583">
        <ele>281.65008545</ele>
        <time>2022-10-30T10:51:56Z</time>
      </trkpt>
      <trkpt lat="41.4029829" lon="2.1058379">
        <ele>281.66009521</ele>
        <time>2022-10-30T10:51:57Z</time>
      </trkpt>
      <trkpt lat="41.4030138" lon="2.1058479">
        <ele>281.70010376</ele>
        <time>2022-10-30T10:51:58Z</time>
      </trkpt>
      <trkpt lat="41.4030657" lon="2.1058688">
        <ele>281.7401123</ele>
        <time>2022-10-30T10:51:59Z</time>
      </trkpt>
      <trkpt lat="41.4031147" lon="2.1058747">
        <ele>281.72012329</ele>
        <time>2022-10-30T10:52:00Z</time>
      </trkpt>
      <trkpt lat="41.4031666" lon="2.1058917">
        <ele>281.70013428</ele>
        <time>2022-10-30T10:52:01Z</time>
      </trkpt>
      <trkpt lat="41.4032046" lon="2.1059277">
        <ele>281.60012817</ele>
        <time>2022-10-30T10:52:02Z</time>
      </trkpt>
      <trkpt lat="41.4032345" lon="2.1059706">
        <ele>281.41012573</ele>
        <time>2022-10-30T10:52:03Z</time>
      </trkpt>
      <trkpt lat="41.4032365" lon="2.1060646">
        <ele>281.51013184</ele>
        <time>2022-10-30T10:52:04Z</time>
      </trkpt>
      <trkpt lat="41.4032374" lon="2.1061225">
        <ele>281.49014282</ele>
        <time>2022-10-30T10:52:05Z</time>
      </trkpt>
      <trkpt lat="41.4032324" lon="2.1061705">
        <ele>281.54013062</ele>
        <time>2022-10-30T10:52:06Z</time>
      </trkpt>
      <trkpt lat="41.4032315" lon="2.1062274">
        <ele>281.62011719</ele>
        <time>2022-10-30T10:52:07Z</time>
      </trkpt>
      <trkpt lat="41.4032276" lon="2.1063214">
        <ele>281.52011108</ele>
        <time>2022-10-30T10:52:08Z</time>
      </trkpt>
      <trkpt lat="41.4032056" lon="2.1063813">
        <ele>281.5401001</ele>
        <time>2022-10-30T10:52:09Z</time>
      </trkpt>
      <trkpt lat="41.4031857" lon="2.1064302">
        <ele>281.4901123</ele>
        <time>2022-10-30T10:52:10Z</time>
      </trkpt>
      <trkpt lat="41.4031777" lon="2.1064892">
        <ele>281.52011108</ele>
        <time>2022-10-30T10:52:11Z</time>
      </trkpt>
      <trkpt lat="41.4031677" lon="2.1065621">
        <ele>281.62011719</ele>
        <time>2022-10-30T10:52:12Z</time>
      </trkpt>
      <trkpt lat="41.4031588" lon="2.1066">
        <ele>281.68011475</ele>
        <time>2022-10-30T10:52:13Z</time>
      </trkpt>
      <trkpt lat="41.4031439" lon="2.1066599">
        <ele>281.72012329</ele>
        <time>2022-10-30T10:52:14Z</time>
      </trkpt>
      <trkpt lat="41.4031279" lon="2.1067328">
        <ele>281.83010864</ele>
        <time>2022-10-30T10:52:15Z</time>
      </trkpt>
      <trkpt lat="41.4031259" lon="2.1068028">
        <ele>281.86010742</ele>
        <time>2022-10-30T10:52:16Z</time>
      </trkpt>
      <trkpt lat="41.4031428" lon="2.1068817">
        <ele>281.86010742</ele>
        <time>2022-10-30T10:52:17Z</time>
      </trkpt>
      <trkpt lat="41.4031628" lon="2.1069307">
        <ele>281.87011719</ele>
        <time>2022-10-30T10:52:18Z</time>
      </trkpt>
      <trkpt lat="41.4031847" lon="2.1069716">
        <ele>281.81011963</ele>
        <time>2022-10-30T10:52:19Z</time>
      </trkpt>
      <trkpt lat="41.4032027" lon="2.1070095">
        <ele>281.72012329</ele>
        <time>2022-10-30T10:52:20Z</time>
      </trkpt>
      <trkpt lat="41.4032277" lon="2.1070545">
        <ele>281.68011475</ele>
        <time>2022-10-30T10:52:21Z</time>
      </trkpt>
      <trkpt lat="41.4032686" lon="2.1071194">
        <ele>281.62011719</ele>
        <time>2022-10-30T10:52:22Z</time>
      </trkpt>
      <trkpt lat="41.4033036" lon="2.1071603">
        <ele>281.54013062</ele>
        <time>2022-10-30T10:52:23Z</time>
      </trkpt>
      <trkpt lat="41.4033365" lon="2.1071982">
        <ele>281.48013306</ele>
        <time>2022-10-30T10:52:24Z</time>
      </trkpt>
      <trkpt lat="41.4033725" lon="2.1072322">
        <ele>281.48013306</ele>
        <time>2022-10-30T10:52:25Z</time>
      </trkpt>
      <trkpt lat="41.4034135" lon="2.1072841">
        <ele>281.5201416</ele>
        <time>2022-10-30T10:52:26Z</time>
      </trkpt>
      <trkpt lat="41.4034484" lon="2.1073071">
        <ele>281.5201416</ele>
        <time>2022-10-30T10:52:27Z</time>
      </trkpt>
      <trkpt lat="41.4034844" lon="2.107325">
        <ele>281.51013184</ele>
        <time>2022-10-30T10:52:28Z</time>
      </trkpt>
      <trkpt lat="41.4035204" lon="2.107345">
        <ele>281.44012451</ele>
        <time>2022-10-30T10:52:29Z</time>
      </trkpt>
      <trkpt lat="41.4035603" lon="2.1073599">
        <ele>281.41012573</ele>
        <time>2022-10-30T10:52:30Z</time>
      </trkpt>
      <trkpt lat="41.4036103" lon="2.1073679">
        <ele>281.44012451</ele>
        <time>2022-10-30T10:52:31Z</time>
      </trkpt>
      <trkpt lat="41.4036472" lon="2.1073738">
        <ele>281.44012451</ele>
        <time>2022-10-30T10:52:32Z</time>
      </trkpt>
      <trkpt lat="41.4036821" lon="2.1073808">
        <ele>281.40011597</ele>
        <time>2022-10-30T10:52:33Z</time>
      </trkpt>
      <trkpt lat="41.4037201" lon="2.1073837">
        <ele>281.3901062</ele>
        <time>2022-10-30T10:52:34Z</time>
      </trkpt>
      <trkpt lat="41.403778" lon="2.1073767">
        <ele>281.38009644</ele>
        <time>2022-10-30T10:52:35Z</time>
      </trkpt>
      <trkpt lat="41.4038089" lon="2.1073748">
        <ele>281.41009521</ele>
        <time>2022-10-30T10:52:36Z</time>
      </trkpt>
      <trkpt lat="41.4038429" lon="2.1073807">
        <ele>281.48010254</ele>
        <time>2022-10-30T10:52:37Z</time>
      </trkpt>
      <trkpt lat="41.4038798" lon="2.1073877">
        <ele>281.53009033</ele>
        <time>2022-10-30T10:52:38Z</time>
      </trkpt>
      <trkpt lat="41.4039397" lon="2.1073896">
        <ele>281.57009888</ele>
        <time>2022-10-30T10:52:39Z</time>
      </trkpt>
      <trkpt lat="41.4039766" lon="2.1073886">
        <ele>281.59008789</ele>
        <time>2022-10-30T10:52:40Z</time>
      </trkpt>
      <trkpt lat="41.4040176" lon="2.1073756">
        <ele>281.64007568</ele>
        <time>2022-10-30T10:52:41Z</time>
      </trkpt>
      <trkpt lat="41.4040545" lon="2.1073697">
        <ele>281.62008667</ele>
        <time>2022-10-30T10:52:42Z</time>
      </trkpt>
      <trkpt lat="41.4040914" lon="2.1073657">
        <ele>281.58007812</ele>
        <time>2022-10-30T10:52:43Z</time>
      </trkpt>
      <trkpt lat="41.4041483" lon="2.1073538">
        <ele>281.57006836</ele>
        <time>2022-10-30T10:52:44Z</time>
      </trkpt>
      <trkpt lat="41.4041863" lon="2.1073408">
        <ele>281.46008301</ele>
        <time>2022-10-30T10:52:45Z</time>
      </trkpt>
      <trkpt lat="41.4042242" lon="2.1073259">
        <ele>281.39007568</ele>
        <time>2022-10-30T10:52:46Z</time>
      </trkpt>
      <trkpt lat="41.4042592" lon="2.107321">
        <ele>281.29006958</ele>
        <time>2022-10-30T10:52:47Z</time>
      </trkpt>
      <trkpt lat="41.4042982" lon="2.107306">
        <ele>281.22006226</ele>
        <time>2022-10-30T10:52:48Z</time>
      </trkpt>
      <trkpt lat="41.4043591" lon="2.1072841">
        <ele>281.2600708</ele>
        <time>2022-10-30T10:52:49Z</time>
      </trkpt>
      <trkpt lat="41.4044021" lon="2.1072732">
        <ele>281.24008179</ele>
        <time>2022-10-30T10:52:50Z</time>
      </trkpt>
      <trkpt lat="41.404442" lon="2.1072643">
        <ele>281.20007324</ele>
        <time>2022-10-30T10:52:51Z</time>
      </trkpt>
      <trkpt lat="41.404487" lon="2.1072563">
        <ele>281.10006714</ele>
        <time>2022-10-30T10:52:52Z</time>
      </trkpt>
      <trkpt lat="41.404546" lon="2.1072703">
        <ele>280.99008179</ele>
        <time>2022-10-30T10:52:53Z</time>
      </trkpt>
      <trkpt lat="41.4045789" lon="2.1073042">
        <ele>281.0100708</ele>
        <time>2022-10-30T10:52:54Z</time>
      </trkpt>
      <trkpt lat="41.4046049" lon="2.1073381">
        <ele>281.12005615</ele>
        <time>2022-10-30T10:52:55Z</time>
      </trkpt>
      <trkpt lat="41.4046278" lon="2.1073721">
        <ele>281.22006226</ele>
        <time>2022-10-30T10:52:56Z</time>
      </trkpt>
      <trkpt lat="41.4046558" lon="2.107399">
        <ele>281.29006958</ele>
        <time>2022-10-30T10:52:57Z</time>
      </trkpt>
      <trkpt lat="41.4046937" lon="2.1074459">
        <ele>281.32006836</ele>
        <time>2022-10-30T10:52:58Z</time>
      </trkpt>
      <trkpt lat="41.4047166" lon="2.1074809">
        <ele>281.3600769</ele>
        <time>2022-10-30T10:52:59Z</time>
      </trkpt>
      <trkpt lat="41.4047426" lon="2.1075079">
        <ele>281.35006714</ele>
        <time>2022-10-30T10:53:00Z</time>
      </trkpt>
      <trkpt lat="41.4047715" lon="2.1075309">
        <ele>281.3600769</ele>
        <time>2022-10-30T10:53:01Z</time>
      </trkpt>
      <trkpt lat="41.4048174" lon="2.1075628">
        <ele>281.34008789</ele>
        <time>2022-10-30T10:53:02Z</time>
      </trkpt>
      <trkpt lat="41.4048534" lon="2.1075838">
        <ele>281.30007935</ele>
        <time>2022-10-30T10:53:03Z</time>
      </trkpt>
      <trkpt lat="41.4048903" lon="2.1076007">
        <ele>281.21008301</ele>
        <time>2022-10-30T10:53:04Z</time>
      </trkpt>
      <trkpt lat="41.4049272" lon="2.1076157">
        <ele>281.21008301</ele>
        <time>2022-10-30T10:53:05Z</time>
      </trkpt>
      <trkpt lat="41.4049842" lon="2.1076486">
        <ele>281.22009277</ele>
        <time>2022-10-30T10:53:06Z</time>
      </trkpt>
      <trkpt lat="41.4050191" lon="2.1076786">
        <ele>281.16009521</ele>
        <time>2022-10-30T10:53:07Z</time>
      </trkpt>
      <trkpt lat="41.4050551" lon="2.1077076">
        <ele>281.17010498</ele>
        <time>2022-10-30T10:53:08Z</time>
      </trkpt>
      <trkpt lat="41.405093" lon="2.1077255">
        <ele>281.10009766</ele>
        <time>2022-10-30T10:53:09Z</time>
      </trkpt>
      <trkpt lat="41.405149" lon="2.1077474">
        <ele>281.05010986</ele>
        <time>2022-10-30T10:53:10Z</time>
      </trkpt>
      <trkpt lat="41.4051829" lon="2.1077663">
        <ele>281.05010986</ele>
        <time>2022-10-30T10:53:11Z</time>
      </trkpt>
      <trkpt lat="41.4052129" lon="2.1077923">
        <ele>281.05010986</ele>
        <time>2022-10-30T10:53:12Z</time>
      </trkpt>
      <trkpt lat="41.4052379" lon="2.1078213">
        <ele>281.02011108</ele>
        <time>2022-10-30T10:53:13Z</time>
      </trkpt>
      <trkpt lat="41.4052638" lon="2.1078533">
        <ele>280.98010254</ele>
        <time>2022-10-30T10:53:14Z</time>
      </trkpt>
      <trkpt lat="41.4052928" lon="2.1078812">
        <ele>280.92010498</ele>
        <time>2022-10-30T10:53:15Z</time>
      </trkpt>
      <trkpt lat="41.4053377" lon="2.1079281">
        <ele>280.8901062</ele>
        <time>2022-10-30T10:53:16Z</time>
      </trkpt>
      <trkpt lat="41.4053667" lon="2.1079611">
        <ele>280.87011719</ele>
        <time>2022-10-30T10:53:17Z</time>
      </trkpt>
      <trkpt lat="41.4053966" lon="2.107992">
        <ele>280.84011841</ele>
        <time>2022-10-30T10:53:18Z</time>
      </trkpt>
      <trkpt lat="41.4054266" lon="2.108022">
        <ele>280.82012939</ele>
        <time>2022-10-30T10:53:19Z</time>
      </trkpt>
      <trkpt lat="41.4054646" lon="2.108073">
        <ele>280.88012695</ele>
        <time>2022-10-30T10:53:20Z</time>
      </trkpt>
      <trkpt lat="41.4054885" lon="2.1081209">
        <ele>280.89013672</ele>
        <time>2022-10-30T10:53:21Z</time>
      </trkpt>
      <trkpt lat="41.4055135" lon="2.1081659">
        <ele>280.89013672</ele>
        <time>2022-10-30T10:53:22Z</time>
      </trkpt>
      <trkpt lat="41.4055405" lon="2.1082098">
        <ele>280.94012451</ele>
        <time>2022-10-30T10:53:23Z</time>
      </trkpt>
      <trkpt lat="41.4055724" lon="2.1082778">
        <ele>280.86013794</ele>
        <time>2022-10-30T10:53:24Z</time>
      </trkpt>
      <trkpt lat="41.4055873" lon="2.1083288">
        <ele>280.79013062</ele>
        <time>2022-10-30T10:53:25Z</time>
      </trkpt>
      <trkpt lat="41.4056063" lon="2.1083757">
        <ele>280.80014038</ele>
        <time>2022-10-30T10:53:26Z</time>
      </trkpt>
      <trkpt lat="41.4056283" lon="2.1084196">
        <ele>280.78015137</ele>
        <time>2022-10-30T10:53:27Z</time>
      </trkpt>
      <trkpt lat="41.4056512" lon="2.1084636">
        <ele>280.85015869</ele>
        <time>2022-10-30T10:53:28Z</time>
      </trkpt>
      <trkpt lat="41.4056842" lon="2.1085275">
        <ele>280.98016357</ele>
        <time>2022-10-30T10:53:29Z</time>
      </trkpt>
      <trkpt lat="41.4057062" lon="2.1085705">
        <ele>281.09014893</ele>
        <time>2022-10-30T10:53:30Z</time>
      </trkpt>
      <trkpt lat="41.4057321" lon="2.1086114">
        <ele>281.19015503</ele>
        <time>2022-10-30T10:53:31Z</time>
      </trkpt>
      <trkpt lat="41.405756" lon="2.1086523">
        <ele>281.19015503</ele>
        <time>2022-10-30T10:53:32Z</time>
      </trkpt>
      <trkpt lat="41.405796" lon="2.1087082">
        <ele>281.24014282</ele>
        <time>2022-10-30T10:53:33Z</time>
      </trkpt>
      <trkpt lat="41.4058269" lon="2.1087382">
        <ele>281.26013184</ele>
        <time>2022-10-30T10:53:34Z</time>
      </trkpt>
      <trkpt lat="41.4058568" lon="2.1087642">
        <ele>281.29013062</ele>
        <time>2022-10-30T10:53:35Z</time>
      </trkpt>
      <trkpt lat="41.4058877" lon="2.1087891">
        <ele>281.32012939</ele>
        <time>2022-10-30T10:53:36Z</time>
      </trkpt>
      <trkpt lat="41.4059386" lon="2.10883">
        <ele>281.28012085</ele>
        <time>2022-10-30T10:53:37Z</time>
      </trkpt>
      <trkpt lat="41.4059776" lon="2.1088479">
        <ele>281.22012329</ele>
        <time>2022-10-30T10:53:38Z</time>
      </trkpt>
      <trkpt lat="41.4060166" lon="2.1088629">
        <ele>281.15011597</ele>
        <time>2022-10-30T10:53:39Z</time>
      </trkpt>
      <trkpt lat="41.4060586" lon="2.1088778">
        <ele>281.15011597</ele>
        <time>2022-10-30T10:53:40Z</time>
      </trkpt>
      <trkpt lat="41.4060966" lon="2.1088938">
        <ele>281.11010742</ele>
        <time>2022-10-30T10:53:41Z</time>
      </trkpt>
      <trkpt lat="41.4061365" lon="2.1089087">
        <ele>281.07009888</ele>
        <time>2022-10-30T10:53:42Z</time>
      </trkpt>
      <trkpt lat="41.4061964" lon="2.1089317">
        <ele>281.0401001</ele>
        <time>2022-10-30T10:53:43Z</time>
      </trkpt>
      <trkpt lat="41.4062354" lon="2.1089447">
        <ele>281.02011108</ele>
        <time>2022-10-30T10:53:44Z</time>
      </trkpt>
      <trkpt lat="41.4062753" lon="2.1089636">
        <ele>281.08010864</ele>
        <time>2022-10-30T10:53:45Z</time>
      </trkpt>
      <trkpt lat="41.4063182" lon="2.1089775">
        <ele>281.08010864</ele>
        <time>2022-10-30T10:53:46Z</time>
      </trkpt>
      <trkpt lat="41.4063832" lon="2.1089975">
        <ele>281.05010986</ele>
        <time>2022-10-30T10:53:47Z</time>
      </trkpt>
      <trkpt lat="41.4064251" lon="2.1090105">
        <ele>281.05010986</ele>
        <time>2022-10-30T10:53:48Z</time>
      </trkpt>
      <trkpt lat="41.4064621" lon="2.1090305">
        <ele>281.0401001</ele>
        <time>2022-10-30T10:53:49Z</time>
      </trkpt>
      <trkpt lat="41.406499" lon="2.1090465">
        <ele>281.0401001</ele>
        <time>2022-10-30T10:53:50Z</time>
      </trkpt>
      <trkpt lat="41.4065559" lon="2.1090714">
        <ele>281.05010986</ele>
        <time>2022-10-30T10:53:51Z</time>
      </trkpt>
      <trkpt lat="41.4065889" lon="2.1090874">
        <ele>281.07009888</ele>
        <time>2022-10-30T10:53:52Z</time>
      </trkpt>
      <trkpt lat="41.4066228" lon="2.1091004">
        <ele>281.06008911</ele>
        <time>2022-10-30T10:53:53Z</time>
      </trkpt>
      <trkpt lat="41.4066627" lon="2.1090984">
        <ele>281.02008057</ele>
        <time>2022-10-30T10:53:54Z</time>
      </trkpt>
      <trkpt lat="41.4067037" lon="2.1090945">
        <ele>281.03009033</ele>
        <time>2022-10-30T10:53:55Z</time>
      </trkpt>
      <trkpt lat="41.4067627" lon="2.1090835">
        <ele>281.02008057</ele>
        <time>2022-10-30T10:53:56Z</time>
      </trkpt>
      <trkpt lat="41.4068026" lon="2.1090716">
        <ele>281.02008057</ele>
        <time>2022-10-30T10:53:57Z</time>
      </trkpt>
      <trkpt lat="41.4068395" lon="2.1090586">
        <ele>281.03009033</ele>
        <time>2022-10-30T10:53:58Z</time>
      </trkpt>
      <trkpt lat="41.4068744" lon="2.1090356">
        <ele>281.0401001</ele>
        <time>2022-10-30T10:53:59Z</time>
      </trkpt>
      <trkpt lat="41.4069274" lon="2.1089857">
        <ele>281.03009033</ele>
        <time>2022-10-30T10:54:00Z</time>
      </trkpt>
      <trkpt lat="41.4069583" lon="2.1089488">
        <ele>281.02008057</ele>
        <time>2022-10-30T10:54:01Z</time>
      </trkpt>
      <trkpt lat="41.4069853" lon="2.1089088">
        <ele>281.06008911</ele>
        <time>2022-10-30T10:54:02Z</time>
      </trkpt>
      <trkpt lat="41.4070043" lon="2.1088608">
        <ele>281.0401001</ele>
        <time>2022-10-30T10:54:03Z</time>
      </trkpt>
      <trkpt lat="41.4070183" lon="2.1088089">
        <ele>281.0401001</ele>
        <time>2022-10-30T10:54:04Z</time>
      </trkpt>
      <trkpt lat="41.4070352" lon="2.1087449">
        <ele>281.0401001</ele>
        <time>2022-10-30T10:54:05Z</time>
      </trkpt>
      <trkpt lat="41.4070411" lon="2.1086999">
        <ele>281.00009155</ele>
        <time>2022-10-30T10:54:06Z</time>
      </trkpt>
      <trkpt lat="41.4070411" lon="2.1086579">
        <ele>281.0401001</ele>
        <time>2022-10-30T10:54:07Z</time>
      </trkpt>
      <trkpt lat="41.4070331" lon="2.1086069">
        <ele>281.0401001</ele>
        <time>2022-10-30T10:54:08Z</time>
      </trkpt>
      <trkpt lat="41.4070272" lon="2.1085679">
        <ele>281.08010864</ele>
        <time>2022-10-30T10:54:09Z</time>
      </trkpt>
      <trkpt lat="41.4070032" lon="2.108511">
        <ele>281.1401062</ele>
        <time>2022-10-30T10:54:10Z</time>
      </trkpt>
      <trkpt lat="41.4069863" lon="2.1084781">
        <ele>281.1401062</ele>
        <time>2022-10-30T10:54:11Z</time>
      </trkpt>
      <trkpt lat="41.4069544" lon="2.1084381">
        <ele>281.22009277</ele>
        <time>2022-10-30T10:54:12Z</time>
      </trkpt>
      <trkpt lat="41.4069205" lon="2.1083871">
        <ele>281.22009277</ele>
        <time>2022-10-30T10:54:13Z</time>
      </trkpt>
      <trkpt lat="41.4068696" lon="2.1083182">
        <ele>281.27008057</ele>
        <time>2022-10-30T10:54:14Z</time>
      </trkpt>
      <trkpt lat="41.4068326" lon="2.1082732">
        <ele>281.33007812</ele>
        <time>2022-10-30T10:54:15Z</time>
      </trkpt>
      <trkpt lat="41.4068007" lon="2.1082313">
        <ele>281.45007324</ele>
        <time>2022-10-30T10:54:16Z</time>
      </trkpt>
      <trkpt lat="41.4067688" lon="2.1081934">
        <ele>281.53005981</ele>
        <time>2022-10-30T10:54:17Z</time>
      </trkpt>
      <trkpt lat="41.4067368" lon="2.1081544">
        <ele>281.52005005</ele>
        <time>2022-10-30T10:54:18Z</time>
      </trkpt>
      <trkpt lat="41.4066969" lon="2.1080844">
        <ele>281.50006104</ele>
        <time>2022-10-30T10:54:19Z</time>
      </trkpt>
      <trkpt lat="41.406687" lon="2.1080264">
        <ele>281.42007446</ele>
        <time>2022-10-30T10:54:20Z</time>
      </trkpt>
      <trkpt lat="41.406669" lon="2.1079835">
        <ele>281.44006348</ele>
        <time>2022-10-30T10:54:21Z</time>
      </trkpt>
      <trkpt lat="41.40665" lon="2.1079355">
        <ele>281.49005127</ele>
        <time>2022-10-30T10:54:22Z</time>
      </trkpt>
      <trkpt lat="41.406622" lon="2.1078726">
        <ele>281.49005127</ele>
        <time>2022-10-30T10:54:23Z</time>
      </trkpt>
      <trkpt lat="41.4066101" lon="2.1078226">
        <ele>281.51004028</ele>
        <time>2022-10-30T10:54:24Z</time>
      </trkpt>
      <trkpt lat="41.4065872" lon="2.1077616">
        <ele>281.47003174</ele>
        <time>2022-10-30T10:54:25Z</time>
      </trkpt>
      <trkpt lat="41.4065703" lon="2.1077017">
        <ele>281.47003174</ele>
        <time>2022-10-30T10:54:26Z</time>
      </trkpt>
      <trkpt lat="41.4065623" lon="2.1076428">
        <ele>281.55001831</ele>
        <time>2022-10-30T10:54:27Z</time>
      </trkpt>
      <trkpt lat="41.4065663" lon="2.1075558">
        <ele>281.55001831</ele>
        <time>2022-10-30T10:54:28Z</time>
      </trkpt>
      <trkpt lat="41.4065852" lon="2.1075099">
        <ele>281.57000732</ele>
        <time>2022-10-30T10:54:29Z</time>
      </trkpt>
      <trkpt lat="41.4066092" lon="2.1074669">
        <ele>281.54000854</ele>
        <time>2022-10-30T10:54:30Z</time>
      </trkpt>
      <trkpt lat="41.4066331" lon="2.107414">
        <ele>281.5</ele>
        <time>2022-10-30T10:54:31Z</time>
      </trkpt>
      <trkpt lat="41.4066801" lon="2.107349">
        <ele>281.51000977</ele>
        <time>2022-10-30T10:54:32Z</time>
      </trkpt>
      <trkpt lat="41.4067131" lon="2.1073061">
        <ele>281.5</ele>
        <time>2022-10-30T10:54:33Z</time>
      </trkpt>
      <trkpt lat="41.406737" lon="2.1072592">
        <ele>281.52999878</ele>
        <time>2022-10-30T10:54:34Z</time>
      </trkpt>
      <trkpt lat="41.406764" lon="2.1072162">
        <ele>281.48999023</ele>
        <time>2022-10-30T10:54:35Z</time>
      </trkpt>
      <trkpt lat="41.4068099" lon="2.1071513">
        <ele>281.38998413</ele>
        <time>2022-10-30T10:54:36Z</time>
      </trkpt>
      <trkpt lat="41.4068408" lon="2.1071153">
        <ele>281.35998535</ele>
        <time>2022-10-30T10:54:37Z</time>
      </trkpt>
      <trkpt lat="41.4068678" lon="2.1070703">
        <ele>281.34997559</ele>
        <time>2022-10-30T10:54:38Z</time>
      </trkpt>
      <trkpt lat="41.4068947" lon="2.1070223">
        <ele>281.3699646</ele>
        <time>2022-10-30T10:54:39Z</time>
      </trkpt>
      <trkpt lat="41.4069147" lon="2.1069724">
        <ele>281.41995239</ele>
        <time>2022-10-30T10:54:40Z</time>
      </trkpt>
      <trkpt lat="41.4069356" lon="2.1068905">
        <ele>281.41995239</ele>
        <time>2022-10-30T10:54:41Z</time>
      </trkpt>
      <trkpt lat="41.4069376" lon="2.1068385">
        <ele>281.40994263</ele>
        <time>2022-10-30T10:54:42Z</time>
      </trkpt>
      <trkpt lat="41.4069266" lon="2.1067826">
        <ele>281.40994263</ele>
        <time>2022-10-30T10:54:43Z</time>
      </trkpt>
      <trkpt lat="41.4069086" lon="2.1067267">
        <ele>281.37994385</ele>
        <time>2022-10-30T10:54:44Z</time>
      </trkpt>
      <trkpt lat="41.4068857" lon="2.1066888">
        <ele>281.24993896</ele>
        <time>2022-10-30T10:54:45Z</time>
      </trkpt>
      <trkpt lat="41.4068458" lon="2.1066548">
        <ele>281.15994263</ele>
        <time>2022-10-30T10:54:46Z</time>
      </trkpt>
      <trkpt lat="41.4068219" lon="2.1066349">
        <ele>281.12994385</ele>
        <time>2022-10-30T10:54:47Z</time>
      </trkpt>
      <trkpt lat="41.4067949" lon="2.1066129">
        <ele>281.16995239</ele>
        <time>2022-10-30T10:54:48Z</time>
      </trkpt>
      <trkpt lat="41.4067589" lon="2.106585">
        <ele>281.39996338</ele>
        <time>2022-10-30T10:54:49Z</time>
      </trkpt>
      <trkpt lat="41.4067139" lon="2.1065521">
        <ele>281.58996582</ele>
        <time>2022-10-30T10:54:50Z</time>
      </trkpt>
      <trkpt lat="41.4066809" lon="2.1065371">
        <ele>281.77996826</ele>
        <time>2022-10-30T10:54:51Z</time>
      </trkpt>
      <trkpt lat="41.406658" lon="2.1065122">
        <ele>281.94998169</ele>
        <time>2022-10-30T10:54:52Z</time>
      </trkpt>
      <trkpt lat="41.406639" lon="2.1064772">
        <ele>282.05996704</ele>
        <time>2022-10-30T10:54:53Z</time>
      </trkpt>
      <trkpt lat="41.4066071" lon="2.1064322">
        <ele>282.22998047</ele>
        <time>2022-10-30T10:54:54Z</time>
      </trkpt>
      <trkpt lat="41.4065892" lon="2.1064073">
        <ele>282.3999939</ele>
        <time>2022-10-30T10:54:55Z</time>
      </trkpt>
      <trkpt lat="41.4065693" lon="2.1063804">
        <ele>282.6000061</ele>
        <time>2022-10-30T10:54:56Z</time>
      </trkpt>
      <trkpt lat="41.4065494" lon="2.1063464">
        <ele>282.77001953</ele>
        <time>2022-10-30T10:54:57Z</time>
      </trkpt>
      <trkpt lat="41.4065234" lon="2.1062985">
        <ele>282.93002319</ele>
        <time>2022-10-30T10:54:58Z</time>
      </trkpt>
      <trkpt lat="41.4065075" lon="2.1062645">
        <ele>283.05001831</ele>
        <time>2022-10-30T10:54:59Z</time>
      </trkpt>
      <trkpt lat="41.4064915" lon="2.1062316">
        <ele>283.13000488</ele>
        <time>2022-10-30T10:55:00Z</time>
      </trkpt>
      <trkpt lat="41.4064826" lon="2.1062006">
        <ele>283.23001099</ele>
        <time>2022-10-30T10:55:01Z</time>
      </trkpt>
      <trkpt lat="41.406494" lon="2.1062059">
        <ele>283.20999146</ele>
        <time>2022-10-30T10:55:01Z</time>
      </trkpt>
      <trkpt lat="41.406489" lon="2.1061709">
        <ele>283.22998047</ele>
        <time>2022-10-30T10:55:02Z</time>
      </trkpt>
      <trkpt lat="41.406491" lon="2.106134">
        <ele>283.20999146</ele>
        <time>2022-10-30T10:55:03Z</time>
      </trkpt>
      <trkpt lat="41.4064939" lon="2.1060681">
        <ele>283.1499939</ele>
        <time>2022-10-30T10:55:04Z</time>
      </trkpt>
      <trkpt lat="41.4064948" lon="2.1060221">
        <ele>283.1000061</ele>
        <time>2022-10-30T10:55:05Z</time>
      </trkpt>
      <trkpt lat="41.4064977" lon="2.1059711">
        <ele>283.08001709</ele>
        <time>2022-10-30T10:55:06Z</time>
      </trkpt>
      <trkpt lat="41.4065006" lon="2.1059182">
        <ele>283.11001587</ele>
        <time>2022-10-30T10:55:07Z</time>
      </trkpt>
      <trkpt lat="41.4065095" lon="2.1058423">
        <ele>283.16000366</ele>
        <time>2022-10-30T10:55:08Z</time>
      </trkpt>
      <trkpt lat="41.4065135" lon="2.1057864">
        <ele>283.23001099</ele>
        <time>2022-10-30T10:55:09Z</time>
      </trkpt>
      <trkpt lat="41.4065155" lon="2.1057325">
        <ele>283.30999756</ele>
        <time>2022-10-30T10:55:10Z</time>
      </trkpt>
      <trkpt lat="41.4065174" lon="2.1056695">
        <ele>283.35998535</ele>
        <time>2022-10-30T10:55:11Z</time>
      </trkpt>
      <trkpt lat="41.4065184" lon="2.1055856">
        <ele>283.37997437</ele>
        <time>2022-10-30T10:55:12Z</time>
      </trkpt>
      <trkpt lat="41.4065193" lon="2.1055457">
        <ele>283.38998413</ele>
        <time>2022-10-30T10:55:13Z</time>
      </trkpt>
      <trkpt lat="41.4065193" lon="2.1055147">
        <ele>283.35998535</ele>
        <time>2022-10-30T10:55:14Z</time>
      </trkpt>
      <trkpt lat="41.4065083" lon="2.1054718">
        <ele>283.29998779</ele>
        <time>2022-10-30T10:55:15Z</time>
      </trkpt>
      <trkpt lat="41.4064964" lon="2.1054279">
        <ele>283.25997925</ele>
        <time>2022-10-30T10:55:16Z</time>
      </trkpt>
      <trkpt lat="41.4064784" lon="2.1053649">
        <ele>283.2199707</ele>
        <time>2022-10-30T10:55:17Z</time>
      </trkpt>
      <trkpt lat="41.4064595" lon="2.105328">
        <ele>283.2199707</ele>
        <time>2022-10-30T10:55:18Z</time>
      </trkpt>
      <trkpt lat="41.4064315" lon="2.1052901">
        <ele>283.2199707</ele>
        <time>2022-10-30T10:55:19Z</time>
      </trkpt>
      <trkpt lat="41.4064055" lon="2.1052562">
        <ele>283.2199707</ele>
        <time>2022-10-30T10:55:20Z</time>
      </trkpt>
      <trkpt lat="41.4063616" lon="2.1051963">
        <ele>283.19998169</ele>
        <time>2022-10-30T10:55:21Z</time>
      </trkpt>
      <trkpt lat="41.4063396" lon="2.1051613">
        <ele>283.16998291</ele>
        <time>2022-10-30T10:55:22Z</time>
      </trkpt>
      <trkpt lat="41.4063277" lon="2.1051373">
        <ele>283.16998291</ele>
        <time>2022-10-30T10:55:23Z</time>
      </trkpt>
      <trkpt lat="41.4063037" lon="2.1051134">
        <ele>283.17999268</ele>
        <time>2022-10-30T10:55:24Z</time>
      </trkpt>
      <trkpt lat="41.4062798" lon="2.1050874">
        <ele>283.19998169</ele>
        <time>2022-10-30T10:55:25Z</time>
      </trkpt>
      <trkpt lat="41.4062429" lon="2.1050625">
        <ele>283.24996948</ele>
        <time>2022-10-30T10:55:26Z</time>
      </trkpt>
      <trkpt lat="41.4062189" lon="2.1050385">
        <ele>283.27996826</ele>
        <time>2022-10-30T10:55:27Z</time>
      </trkpt>
      <trkpt lat="41.4061949" lon="2.1050146">
        <ele>283.33996582</ele>
        <time>2022-10-30T10:55:28Z</time>
      </trkpt>
      <trkpt lat="41.406174" lon="2.1049826">
        <ele>283.34997559</ele>
        <time>2022-10-30T10:55:29Z</time>
      </trkpt>
      <trkpt lat="41.406164" lon="2.1049557">
        <ele>283.3699646</ele>
        <time>2022-10-30T10:55:30Z</time>
      </trkpt>
      <trkpt lat="41.4061491" lon="2.1048977">
        <ele>283.31997681</ele>
        <time>2022-10-30T10:55:31Z</time>
      </trkpt>
      <trkpt lat="41.4061452" lon="2.1048647">
        <ele>283.26998901</ele>
        <time>2022-10-30T10:55:32Z</time>
      </trkpt>
      <trkpt lat="41.4061481" lon="2.1048297">
        <ele>283.25997925</ele>
        <time>2022-10-30T10:55:33Z</time>
      </trkpt>
      <trkpt lat="41.406149" lon="2.1047828">
        <ele>283.22998047</ele>
        <time>2022-10-30T10:55:34Z</time>
      </trkpt>
      <trkpt lat="41.406149" lon="2.1047248">
        <ele>283.24996948</ele>
        <time>2022-10-30T10:55:35Z</time>
      </trkpt>
      <trkpt lat="41.406153" lon="2.1046958">
        <ele>283.24996948</ele>
        <time>2022-10-30T10:55:36Z</time>
      </trkpt>
      <trkpt lat="41.4061629" lon="2.1046608">
        <ele>283.04995728</ele>
        <time>2022-10-30T10:55:37Z</time>
      </trkpt>
      <trkpt lat="41.4061798" lon="2.1046229">
        <ele>282.69995117</ele>
        <time>2022-10-30T10:55:38Z</time>
      </trkpt>
      <trkpt lat="41.4062158" lon="2.10455">
        <ele>282.29995728</ele>
        <time>2022-10-30T10:55:39Z</time>
      </trkpt>
      <trkpt lat="41.4062608" lon="2.1044961">
        <ele>281.67996216</ele>
        <time>2022-10-30T10:55:40Z</time>
      </trkpt>
      <trkpt lat="41.4063127" lon="2.1044662">
        <ele>281.23995972</ele>
        <time>2022-10-30T10:55:41Z</time>
      </trkpt>
      <trkpt lat="41.4063587" lon="2.1044691">
        <ele>280.94995117</ele>
        <time>2022-10-30T10:55:42Z</time>
      </trkpt>
      <trkpt lat="41.4064037" lon="2.1044791">
        <ele>280.74993896</ele>
        <time>2022-10-30T10:55:43Z</time>
      </trkpt>
      <trkpt lat="41.4064716" lon="2.104501">
        <ele>280.80993652</ele>
        <time>2022-10-30T10:55:44Z</time>
      </trkpt>
      <trkpt lat="41.4065166" lon="2.104514">
        <ele>280.90994263</ele>
        <time>2022-10-30T10:55:45Z</time>
      </trkpt>
      <trkpt lat="41.4065645" lon="2.1045249">
        <ele>280.92993164</ele>
        <time>2022-10-30T10:55:46Z</time>
      </trkpt>
      <trkpt lat="41.4066074" lon="2.1045368">
        <ele>280.94992065</ele>
        <time>2022-10-30T10:55:47Z</time>
      </trkpt>
      <trkpt lat="41.4066484" lon="2.1045478">
        <ele>280.94992065</ele>
        <time>2022-10-30T10:55:48Z</time>
      </trkpt>
      <trkpt lat="41.4067143" lon="2.1045567">
        <ele>280.92993164</ele>
        <time>2022-10-30T10:55:49Z</time>
      </trkpt>
      <trkpt lat="41.4067613" lon="2.1045647">
        <ele>281.01992798</ele>
        <time>2022-10-30T10:55:50Z</time>
      </trkpt>
      <trkpt lat="41.4068083" lon="2.1045776">
        <ele>281.02993774</ele>
        <time>2022-10-30T10:55:51Z</time>
      </trkpt>
      <trkpt lat="41.4068503" lon="2.1045876">
        <ele>281.07992554</ele>
        <time>2022-10-30T10:55:52Z</time>
      </trkpt>
      <trkpt lat="41.4069093" lon="2.1046186">
        <ele>281.14993286</ele>
        <time>2022-10-30T10:55:53Z</time>
      </trkpt>
      <trkpt lat="41.4069462" lon="2.1046395">
        <ele>281.19992065</ele>
        <time>2022-10-30T10:55:54Z</time>
      </trkpt>
      <trkpt lat="41.4069781" lon="2.1046695">
        <ele>281.25991821</ele>
        <time>2022-10-30T10:55:55Z</time>
      </trkpt>
      <trkpt lat="41.407012" lon="2.1046984">
        <ele>281.27990723</ele>
        <time>2022-10-30T10:55:56Z</time>
      </trkpt>
      <trkpt lat="41.407048" lon="2.1047284">
        <ele>281.29989624</ele>
        <time>2022-10-30T10:55:57Z</time>
      </trkpt>
      <trkpt lat="41.407109" lon="2.1047533">
        <ele>281.28988647</ele>
        <time>2022-10-30T10:55:58Z</time>
      </trkpt>
      <trkpt lat="41.4071439" lon="2.1047703">
        <ele>281.28988647</ele>
        <time>2022-10-30T10:55:59Z</time>
      </trkpt>
      <trkpt lat="41.4071758" lon="2.1047872">
        <ele>281.28988647</ele>
        <time>2022-10-30T10:56:00Z</time>
      </trkpt>
      <trkpt lat="41.4072097" lon="2.1047833">
        <ele>281.2598877</ele>
        <time>2022-10-30T10:56:01Z</time>
      </trkpt>
      <trkpt lat="41.4072447" lon="2.1047872">
        <ele>281.18988037</ele>
        <time>2022-10-30T10:56:02Z</time>
      </trkpt>
      <trkpt lat="41.4072756" lon="2.1047763">
        <ele>281.18988037</ele>
        <time>2022-10-30T10:56:03Z</time>
      </trkpt>
      <trkpt lat="41.4072995" lon="2.1047443">
        <ele>281.18988037</ele>
        <time>2022-10-30T10:56:04Z</time>
      </trkpt>
      <trkpt lat="41.4073225" lon="2.1047093">
        <ele>281.19989014</ele>
        <time>2022-10-30T10:56:05Z</time>
      </trkpt>
      <trkpt lat="41.4073454" lon="2.1046743">
        <ele>281.24987793</ele>
        <time>2022-10-30T10:56:06Z</time>
      </trkpt>
      <trkpt lat="41.4073784" lon="2.1046174">
        <ele>281.27987671</ele>
        <time>2022-10-30T10:56:07Z</time>
      </trkpt>
      <trkpt lat="41.4074053" lon="2.1045744">
        <ele>281.27987671</ele>
        <time>2022-10-30T10:56:08Z</time>
      </trkpt>
      <trkpt lat="41.4074282" lon="2.1045345">
        <ele>281.28988647</ele>
        <time>2022-10-30T10:56:09Z</time>
      </trkpt>
      <trkpt lat="41.4074492" lon="2.1044846">
        <ele>281.28988647</ele>
        <time>2022-10-30T10:56:10Z</time>
      </trkpt>
      <trkpt lat="41.4074761" lon="2.1044027">
        <ele>281.28988647</ele>
        <time>2022-10-30T10:56:11Z</time>
      </trkpt>
      <trkpt lat="41.4074901" lon="2.1043447">
        <ele>281.33987427</ele>
        <time>2022-10-30T10:56:12Z</time>
      </trkpt>
      <trkpt lat="41.4075011" lon="2.1042927">
        <ele>281.39987183</ele>
        <time>2022-10-30T10:56:13Z</time>
      </trkpt>
      <trkpt lat="41.407513" lon="2.1042368">
        <ele>281.42987061</ele>
        <time>2022-10-30T10:56:14Z</time>
      </trkpt>
      <trkpt lat="41.407538" lon="2.1041808">
        <ele>281.50985718</ele>
        <time>2022-10-30T10:56:15Z</time>
      </trkpt>
      <trkpt lat="41.4075719" lon="2.1041039">
        <ele>281.50985718</ele>
        <time>2022-10-30T10:56:16Z</time>
      </trkpt>
      <trkpt lat="41.4075829" lon="2.1040529">
        <ele>281.4798584</ele>
        <time>2022-10-30T10:56:17Z</time>
      </trkpt>
      <trkpt lat="41.4075969" lon="2.103996">
        <ele>281.48986816</ele>
        <time>2022-10-30T10:56:18Z</time>
      </trkpt>
      <trkpt lat="41.4076138" lon="2.103934">
        <ele>281.40988159</ele>
        <time>2022-10-30T10:56:19Z</time>
      </trkpt>
      <trkpt lat="41.4076498" lon="2.10386">
        <ele>281.36987305</ele>
        <time>2022-10-30T10:56:20Z</time>
      </trkpt>
      <trkpt lat="41.4076768" lon="2.1038321">
        <ele>281.29986572</ele>
        <time>2022-10-30T10:56:21Z</time>
      </trkpt>
      <trkpt lat="41.4077077" lon="2.1038082">
        <ele>281.27987671</ele>
        <time>2022-10-30T10:56:22Z</time>
      </trkpt>
      <trkpt lat="41.4077467" lon="2.1037893">
        <ele>281.29986572</ele>
        <time>2022-10-30T10:56:23Z</time>
      </trkpt>
      <trkpt lat="41.4077996" lon="2.1037614">
        <ele>281.29986572</ele>
        <time>2022-10-30T10:56:24Z</time>
      </trkpt>
      <trkpt lat="41.4078336" lon="2.1037594">
        <ele>281.28985596</ele>
        <time>2022-10-30T10:56:25Z</time>
      </trkpt>
      <trkpt lat="41.4078655" lon="2.1037664">
        <ele>281.25985718</ele>
        <time>2022-10-30T10:56:26Z</time>
      </trkpt>
      <trkpt lat="41.4079004" lon="2.1037924">
        <ele>281.20986938</ele>
        <time>2022-10-30T10:56:27Z</time>
      </trkpt>
      <trkpt lat="41.4079394" lon="2.1038233">
        <ele>281.18988037</ele>
        <time>2022-10-30T10:56:28Z</time>
      </trkpt>
      <trkpt lat="41.4079894" lon="2.1038693">
        <ele>281.18988037</ele>
        <time>2022-10-30T10:56:29Z</time>
      </trkpt>
      <trkpt lat="41.4080213" lon="2.1039022">
        <ele>281.22988892</ele>
        <time>2022-10-30T10:56:30Z</time>
      </trkpt>
      <trkpt lat="41.4080503" lon="2.1039352">
        <ele>281.24987793</ele>
        <time>2022-10-30T10:56:31Z</time>
      </trkpt>
      <trkpt lat="41.4080812" lon="2.1039772">
        <ele>281.27987671</ele>
        <time>2022-10-30T10:56:32Z</time>
      </trkpt>
      <trkpt lat="41.4081131" lon="2.1040241">
        <ele>281.33987427</ele>
        <time>2022-10-30T10:56:33Z</time>
      </trkpt>
      <trkpt lat="41.4081691" lon="2.104084">
        <ele>281.3298645</ele>
        <time>2022-10-30T10:56:34Z</time>
      </trkpt>
      <trkpt lat="41.408206" lon="2.104114">
        <ele>281.3298645</ele>
        <time>2022-10-30T10:56:35Z</time>
      </trkpt>
      <trkpt lat="41.4082459" lon="2.1041419">
        <ele>281.28985596</ele>
        <time>2022-10-30T10:56:36Z</time>
      </trkpt>
      <trkpt lat="41.4082899" lon="2.1041679">
        <ele>281.24984741</ele>
        <time>2022-10-30T10:56:37Z</time>
      </trkpt>
      <trkpt lat="41.4083629" lon="2.1041738">
        <ele>281.19985962</ele>
        <time>2022-10-30T10:56:38Z</time>
      </trkpt>
      <trkpt lat="41.4084069" lon="2.1041718">
        <ele>281.0798645</ele>
        <time>2022-10-30T10:56:39Z</time>
      </trkpt>
      <trkpt lat="41.4084488" lon="2.1041659">
        <ele>281.03985596</ele>
        <time>2022-10-30T10:56:40Z</time>
      </trkpt>
      <trkpt lat="41.4084878" lon="2.1041529">
        <ele>280.93984985</ele>
        <time>2022-10-30T10:56:41Z</time>
      </trkpt>
      <trkpt lat="41.4085548" lon="2.1041399">
        <ele>280.85986328</ele>
        <time>2022-10-30T10:56:42Z</time>
      </trkpt>
      <trkpt lat="41.4085938" lon="2.104125">
        <ele>280.81985474</ele>
        <time>2022-10-30T10:56:43Z</time>
      </trkpt>
      <trkpt lat="41.4086298" lon="2.104112">
        <ele>280.64984131</ele>
        <time>2022-10-30T10:56:44Z</time>
      </trkpt>
      <trkpt lat="41.4086737" lon="2.104096">
        <ele>280.51983643</ele>
        <time>2022-10-30T10:56:45Z</time>
      </trkpt>
      <trkpt lat="41.4087177" lon="2.104107">
        <ele>280.35983276</ele>
        <time>2022-10-30T10:56:46Z</time>
      </trkpt>
      <trkpt lat="41.4087856" lon="2.1041259">
        <ele>280.22982788</ele>
        <time>2022-10-30T10:56:47Z</time>
      </trkpt>
      <trkpt lat="41.4088246" lon="2.1041508">
        <ele>280.16983032</ele>
        <time>2022-10-30T10:56:48Z</time>
      </trkpt>
      <trkpt lat="41.4088565" lon="2.1041898">
        <ele>280.13983154</ele>
        <time>2022-10-30T10:56:49Z</time>
      </trkpt>
      <trkpt lat="41.4088805" lon="2.1042397">
        <ele>280.13983154</ele>
        <time>2022-10-30T10:56:50Z</time>
      </trkpt>
      <trkpt lat="41.4088924" lon="2.1042926">
        <ele>280.27984619</ele>
        <time>2022-10-30T10:56:51Z</time>
      </trkpt>
      <trkpt lat="41.4089043" lon="2.1043566">
        <ele>280.33984375</ele>
        <time>2022-10-30T10:56:52Z</time>
      </trkpt>
      <trkpt lat="41.4089113" lon="2.1044176">
        <ele>280.35983276</ele>
        <time>2022-10-30T10:56:53Z</time>
      </trkpt>
      <trkpt lat="41.4089202" lon="2.1044816">
        <ele>280.42984009</ele>
        <time>2022-10-30T10:56:54Z</time>
      </trkpt>
      <trkpt lat="41.4089351" lon="2.1045245">
        <ele>280.39984131</ele>
        <time>2022-10-30T10:56:55Z</time>
      </trkpt>
      <trkpt lat="41.4089651" lon="2.1045904">
        <ele>280.40985107</ele>
        <time>2022-10-30T10:56:56Z</time>
      </trkpt>
      <trkpt lat="41.4089731" lon="2.1046374">
        <ele>280.42984009</ele>
        <time>2022-10-30T10:56:57Z</time>
      </trkpt>
      <trkpt lat="41.4089711" lon="2.1046884">
        <ele>280.4498291</ele>
        <time>2022-10-30T10:56:58Z</time>
      </trkpt>
      <trkpt lat="41.4089721" lon="2.1047383">
        <ele>280.41983032</ele>
        <time>2022-10-30T10:56:59Z</time>
      </trkpt>
      <trkpt lat="41.4089451" lon="2.1047982">
        <ele>280.39984131</ele>
        <time>2022-10-30T10:57:00Z</time>
      </trkpt>
      <trkpt lat="41.4089181" lon="2.1048242">
        <ele>280.37985229</ele>
        <time>2022-10-30T10:57:01Z</time>
      </trkpt>
      <trkpt lat="41.4088872" lon="2.1048581">
        <ele>280.34985352</ele>
        <time>2022-10-30T10:57:02Z</time>
      </trkpt>
      <trkpt lat="41.4088563" lon="2.1048941">
        <ele>280.41986084</ele>
        <time>2022-10-30T10:57:03Z</time>
      </trkpt>
      <trkpt lat="41.4088274" lon="2.1049291">
        <ele>280.52984619</ele>
        <time>2022-10-30T10:57:04Z</time>
      </trkpt>
      <trkpt lat="41.4087914" lon="2.1049961">
        <ele>280.62985229</ele>
        <time>2022-10-30T10:57:05Z</time>
      </trkpt>
      <trkpt lat="41.4087694" lon="2.105042">
        <ele>280.73983765</ele>
        <time>2022-10-30T10:57:06Z</time>
      </trkpt>
      <trkpt lat="41.4087525" lon="2.105093">
        <ele>280.73983765</ele>
        <time>2022-10-30T10:57:07Z</time>
      </trkpt>
      <trkpt lat="41.4087385" lon="2.1051489">
        <ele>280.73983765</ele>
        <time>2022-10-30T10:57:08Z</time>
      </trkpt>
      <trkpt lat="41.4087196" lon="2.1052289">
        <ele>280.76983643</ele>
        <time>2022-10-30T10:57:09Z</time>
      </trkpt>
      <trkpt lat="41.4087096" lon="2.1052849">
        <ele>280.73983765</ele>
        <time>2022-10-30T10:57:10Z</time>
      </trkpt>
      <trkpt lat="41.4087037" lon="2.1053428">
        <ele>280.75982666</ele>
        <time>2022-10-30T10:57:11Z</time>
      </trkpt>
      <trkpt lat="41.4086987" lon="2.1053988">
        <ele>280.75982666</ele>
        <time>2022-10-30T10:57:12Z</time>
      </trkpt>
      <trkpt lat="41.4086937" lon="2.1054477">
        <ele>280.77981567</ele>
        <time>2022-10-30T10:57:13Z</time>
      </trkpt>
      <trkpt lat="41.4086977" lon="2.1055257">
        <ele>280.81982422</ele>
        <time>2022-10-30T10:57:14Z</time>
      </trkpt>
      <trkpt lat="41.4087076" lon="2.1055796">
        <ele>280.90982056</ele>
        <time>2022-10-30T10:57:15Z</time>
      </trkpt>
      <trkpt lat="41.4087246" lon="2.1056295">
        <ele>281.03982544</ele>
        <time>2022-10-30T10:57:16Z</time>
      </trkpt>
      <trkpt lat="41.4087435" lon="2.1056785">
        <ele>281.099823</ele>
        <time>2022-10-30T10:57:17Z</time>
      </trkpt>
      <trkpt lat="41.4087765" lon="2.1057544">
        <ele>281.14981079</ele>
        <time>2022-10-30T10:57:18Z</time>
      </trkpt>
      <trkpt lat="41.4087974" lon="2.1058043">
        <ele>281.17980957</ele>
        <time>2022-10-30T10:57:19Z</time>
      </trkpt>
      <trkpt lat="41.4088154" lon="2.1058553">
        <ele>281.14981079</ele>
        <time>2022-10-30T10:57:20Z</time>
      </trkpt>
      <trkpt lat="41.4088353" lon="2.1059063">
        <ele>281.13980103</ele>
        <time>2022-10-30T10:57:21Z</time>
      </trkpt>
      <trkpt lat="41.4088582" lon="2.1059583">
        <ele>281.17980957</ele>
        <time>2022-10-30T10:57:22Z</time>
      </trkpt>
      <trkpt lat="41.4088862" lon="2.1060412">
        <ele>281.1697998</ele>
        <time>2022-10-30T10:57:23Z</time>
      </trkpt>
      <trkpt lat="41.4089002" lon="2.1060922">
        <ele>281.14981079</ele>
        <time>2022-10-30T10:57:24Z</time>
      </trkpt>
      <trkpt lat="41.4089181" lon="2.1061422">
        <ele>281.14981079</ele>
        <time>2022-10-30T10:57:25Z</time>
      </trkpt>
      <trkpt lat="41.4089381" lon="2.1061971">
        <ele>281.12982178</ele>
        <time>2022-10-30T10:57:26Z</time>
      </trkpt>
      <trkpt lat="41.408976" lon="2.106276">
        <ele>281.13983154</ele>
        <time>2022-10-30T10:57:27Z</time>
      </trkpt>
      <trkpt lat="41.4089989" lon="2.106328">
        <ele>281.12982178</ele>
        <time>2022-10-30T10:57:28Z</time>
      </trkpt>
      <trkpt lat="41.4090248" lon="2.10638">
        <ele>281.11981201</ele>
        <time>2022-10-30T10:57:29Z</time>
      </trkpt>
      <trkpt lat="41.4090478" lon="2.1064319">
        <ele>281.05981445</ele>
        <time>2022-10-30T10:57:30Z</time>
      </trkpt>
      <trkpt lat="41.4090687" lon="2.1064869">
        <ele>280.98980713</ele>
        <time>2022-10-30T10:57:31Z</time>
      </trkpt>
      <trkpt lat="41.4091077" lon="2.1065558">
        <ele>280.93981934</ele>
        <time>2022-10-30T10:57:32Z</time>
      </trkpt>
      <trkpt lat="41.4091377" lon="2.1065928">
        <ele>280.849823</ele>
        <time>2022-10-30T10:57:33Z</time>
      </trkpt>
      <trkpt lat="41.4091816" lon="2.1066197">
        <ele>280.74981689</ele>
        <time>2022-10-30T10:57:34Z</time>
      </trkpt>
      <trkpt lat="41.4092295" lon="2.1066357">
        <ele>280.63983154</ele>
        <time>2022-10-30T10:57:35Z</time>
      </trkpt>
      <trkpt lat="41.4092995" lon="2.1066367">
        <ele>280.56982422</ele>
        <time>2022-10-30T10:57:36Z</time>
      </trkpt>
      <trkpt lat="41.4093455" lon="2.1066338">
        <ele>280.55981445</ele>
        <time>2022-10-30T10:57:37Z</time>
      </trkpt>
      <trkpt lat="41.4093854" lon="2.1066347">
        <ele>280.50982666</ele>
        <time>2022-10-30T10:57:38Z</time>
      </trkpt>
      <trkpt lat="41.4094293" lon="2.1066238">
        <ele>280.48983765</ele>
        <time>2022-10-30T10:57:39Z</time>
      </trkpt>
      <trkpt lat="41.4094753" lon="2.1066158">
        <ele>280.42984009</ele>
        <time>2022-10-30T10:57:40Z</time>
      </trkpt>
      <trkpt lat="41.4095502" lon="2.1065969">
        <ele>280.34985352</ele>
        <time>2022-10-30T10:57:41Z</time>
      </trkpt>
      <trkpt lat="41.4096011" lon="2.106587">
        <ele>280.29986572</ele>
        <time>2022-10-30T10:57:42Z</time>
      </trkpt>
      <trkpt lat="41.4096411" lon="2.1066009">
        <ele>280.28985596</ele>
        <time>2022-10-30T10:57:43Z</time>
      </trkpt>
      <trkpt lat="41.4096801" lon="2.1066169">
        <ele>280.26986694</ele>
        <time>2022-10-30T10:57:44Z</time>
      </trkpt>
      <trkpt lat="41.409735" lon="2.1066489">
        <ele>280.24987793</ele>
        <time>2022-10-30T10:57:45Z</time>
      </trkpt>
      <trkpt lat="41.4097719" lon="2.1066728">
        <ele>280.26986694</ele>
        <time>2022-10-30T10:57:46Z</time>
      </trkpt>
      <trkpt lat="41.4097999" lon="2.1067038">
        <ele>280.29986572</ele>
        <time>2022-10-30T10:57:47Z</time>
      </trkpt>
      <trkpt lat="41.4098368" lon="2.1067367">
        <ele>280.40985107</ele>
        <time>2022-10-30T10:57:48Z</time>
      </trkpt>
      <trkpt lat="41.4098748" lon="2.1067707">
        <ele>280.54986572</ele>
        <time>2022-10-30T10:57:49Z</time>
      </trkpt>
      <trkpt lat="41.4099207" lon="2.1068236">
        <ele>280.63986206</ele>
        <time>2022-10-30T10:57:50Z</time>
      </trkpt>
      <trkpt lat="41.4099557" lon="2.1068526">
        <ele>280.68984985</ele>
        <time>2022-10-30T10:57:51Z</time>
      </trkpt>
      <trkpt lat="41.4099946" lon="2.1068805">
        <ele>280.69985962</ele>
        <time>2022-10-30T10:57:52Z</time>
      </trkpt>
      <trkpt lat="41.4100166" lon="2.1069204">
        <ele>280.64987183</ele>
        <time>2022-10-30T10:57:53Z</time>
      </trkpt>
      <trkpt lat="41.4100475" lon="2.1069743">
        <ele>280.59988403</ele>
        <time>2022-10-30T10:57:54Z</time>
      </trkpt>
      <trkpt lat="41.4100825" lon="2.1069793">
        <ele>280.51989746</ele>
        <time>2022-10-30T10:57:55Z</time>
      </trkpt>
      <trkpt lat="41.4101094" lon="2.1069674">
        <ele>280.42990112</ele>
        <time>2022-10-30T10:57:56Z</time>
      </trkpt>
      <trkpt lat="41.4101394" lon="2.1069494">
        <ele>280.3598938</ele>
        <time>2022-10-30T10:57:57Z</time>
      </trkpt>
      <trkpt lat="41.4101713" lon="2.1069204">
        <ele>280.32989502</ele>
        <time>2022-10-30T10:57:58Z</time>
      </trkpt>
      <trkpt lat="41.4102192" lon="2.1068785">
        <ele>280.32989502</ele>
        <time>2022-10-30T10:57:59Z</time>
      </trkpt>
      <trkpt lat="41.4102522" lon="2.1068465">
        <ele>280.3598938</ele>
        <time>2022-10-30T10:58:00Z</time>
      </trkpt>
      <trkpt lat="41.4102811" lon="2.1068165">
        <ele>280.41989136</ele>
        <time>2022-10-30T10:58:01Z</time>
      </trkpt>
      <trkpt lat="41.410312" lon="2.1067866">
        <ele>280.48989868</ele>
        <time>2022-10-30T10:58:02Z</time>
      </trkpt>
      <trkpt lat="41.410342" lon="2.1067516">
        <ele>280.53988647</ele>
        <time>2022-10-30T10:58:03Z</time>
      </trkpt>
      <trkpt lat="41.410389" lon="2.1067006">
        <ele>280.54989624</ele>
        <time>2022-10-30T10:58:04Z</time>
      </trkpt>
      <trkpt lat="41.4104149" lon="2.1066666">
        <ele>280.54989624</ele>
        <time>2022-10-30T10:58:05Z</time>
      </trkpt>
      <trkpt lat="41.4104359" lon="2.1066337">
        <ele>280.5098877</ele>
        <time>2022-10-30T10:58:06Z</time>
      </trkpt>
      <trkpt lat="41.4104448" lon="2.1065997">
        <ele>280.5098877</ele>
        <time>2022-10-30T10:58:07Z</time>
      </trkpt>
      <trkpt lat="41.4104797" lon="2.1065418">
        <ele>280.5098877</ele>
        <time>2022-10-30T10:58:08Z</time>
      </trkpt>
      <trkpt lat="41.4105037" lon="2.1065039">
        <ele>280.46987915</ele>
        <time>2022-10-30T10:58:09Z</time>
      </trkpt>
      <trkpt lat="41.4105287" lon="2.1064679">
        <ele>280.48986816</ele>
        <time>2022-10-30T10:58:10Z</time>
      </trkpt>
      <trkpt lat="41.4105676" lon="2.106428">
        <ele>280.48986816</ele>
        <time>2022-10-30T10:58:11Z</time>
      </trkpt>
      <trkpt lat="41.4105996" lon="2.1063901">
        <ele>280.50985718</ele>
        <time>2022-10-30T10:58:12Z</time>
      </trkpt>
      <trkpt lat="41.4106356" lon="2.1063362">
        <ele>280.54986572</ele>
        <time>2022-10-30T10:58:13Z</time>
      </trkpt>
      <trkpt lat="41.4106605" lon="2.1062922">
        <ele>280.5798645</ele>
        <time>2022-10-30T10:58:14Z</time>
      </trkpt>
      <trkpt lat="41.4106745" lon="2.1062433">
        <ele>280.5798645</ele>
        <time>2022-10-30T10:58:15Z</time>
      </trkpt>
      <trkpt lat="41.4106935" lon="2.1062124">
        <ele>280.55987549</ele>
        <time>2022-10-30T10:58:16Z</time>
      </trkpt>
      <trkpt lat="41.4107385" lon="2.1061474">
        <ele>280.5798645</ele>
        <time>2022-10-30T10:58:17Z</time>
      </trkpt>
      <trkpt lat="41.4107685" lon="2.1060964">
        <ele>280.5798645</ele>
        <time>2022-10-30T10:58:18Z</time>
      </trkpt>
      <trkpt lat="41.4108004" lon="2.1060395">
        <ele>280.59985352</ele>
        <time>2022-10-30T10:58:19Z</time>
      </trkpt>
      <trkpt lat="41.4108384" lon="2.1059996">
        <ele>280.62985229</ele>
        <time>2022-10-30T10:58:20Z</time>
      </trkpt>
      <trkpt lat="41.4108933" lon="2.1059416">
        <ele>280.60986328</ele>
        <time>2022-10-30T10:58:21Z</time>
      </trkpt>
      <trkpt lat="41.4109353" lon="2.1059116">
        <ele>280.50985718</ele>
        <time>2022-10-30T10:58:22Z</time>
      </trkpt>
      <trkpt lat="41.4109773" lon="2.1058867">
        <ele>280.43984985</ele>
        <time>2022-10-30T10:58:23Z</time>
      </trkpt>
      <trkpt lat="41.4110163" lon="2.1058517">
        <ele>280.35986328</ele>
        <time>2022-10-30T10:58:24Z</time>
      </trkpt>
      <trkpt lat="41.4110562" lon="2.1058218">
        <ele>280.24987793</ele>
        <time>2022-10-30T10:58:25Z</time>
      </trkpt>
      <trkpt lat="41.4111292" lon="2.1058247">
        <ele>280.20986938</ele>
        <time>2022-10-30T10:58:26Z</time>
      </trkpt>
      <trkpt lat="41.4111721" lon="2.1058416">
        <ele>280.11987305</ele>
        <time>2022-10-30T10:58:27Z</time>
      </trkpt>
      <trkpt lat="41.4112041" lon="2.1058886">
        <ele>280.04986572</ele>
        <time>2022-10-30T10:58:28Z</time>
      </trkpt>
      <trkpt lat="41.4112321" lon="2.1059375">
        <ele>279.9798584</ele>
        <time>2022-10-30T10:58:29Z</time>
      </trkpt>
      <trkpt lat="41.411253" lon="2.1059904">
        <ele>279.89987183</ele>
        <time>2022-10-30T10:58:30Z</time>
      </trkpt>
      <trkpt lat="41.4112839" lon="2.1060744">
        <ele>279.92987061</ele>
        <time>2022-10-30T10:58:31Z</time>
      </trkpt>
      <trkpt lat="41.4113068" lon="2.1061324">
        <ele>279.99987793</ele>
        <time>2022-10-30T10:58:32Z</time>
      </trkpt>
      <trkpt lat="41.4113338" lon="2.1061843">
        <ele>280.10986328</ele>
        <time>2022-10-30T10:58:33Z</time>
      </trkpt>
      <trkpt lat="41.4113698" lon="2.1062273">
        <ele>280.28985596</ele>
        <time>2022-10-30T10:58:34Z</time>
      </trkpt>
      <trkpt lat="41.4114437" lon="2.1062612">
        <ele>280.30984497</ele>
        <time>2022-10-30T10:58:35Z</time>
      </trkpt>
      <trkpt lat="41.4114916" lon="2.1062712">
        <ele>280.27984619</ele>
        <time>2022-10-30T10:58:36Z</time>
      </trkpt>
      <trkpt lat="41.4115366" lon="2.1062791">
        <ele>280.23983765</ele>
        <time>2022-10-30T10:58:37Z</time>
      </trkpt>
      <trkpt lat="41.4115795" lon="2.1062911">
        <ele>280.15985107</ele>
        <time>2022-10-30T10:58:38Z</time>
      </trkpt>
      <trkpt lat="41.4116355" lon="2.106337">
        <ele>280.03985596</ele>
        <time>2022-10-30T10:58:39Z</time>
      </trkpt>
      <trkpt lat="41.4116815" lon="2.10637">
        <ele>279.89984131</ele>
        <time>2022-10-30T10:58:40Z</time>
      </trkpt>
      <trkpt lat="41.4117124" lon="2.106421">
        <ele>279.76983643</ele>
        <time>2022-10-30T10:58:41Z</time>
      </trkpt>
      <trkpt lat="41.4117383" lon="2.106482">
        <ele>279.65985107</ele>
        <time>2022-10-30T10:58:42Z</time>
      </trkpt>
      <trkpt lat="41.4117562" lon="2.1065389">
        <ele>279.59985352</ele>
        <time>2022-10-30T10:58:43Z</time>
      </trkpt>
      <trkpt lat="41.4117692" lon="2.1066118">
        <ele>279.65985107</ele>
        <time>2022-10-30T10:58:44Z</time>
      </trkpt>
      <trkpt lat="41.4117552" lon="2.1066438">
        <ele>279.68984985</ele>
        <time>2022-10-30T10:58:45Z</time>
      </trkpt>
      <trkpt lat="41.4117342" lon="2.1066847">
        <ele>279.76983643</ele>
        <time>2022-10-30T10:58:46Z</time>
      </trkpt>
      <trkpt lat="41.4117023" lon="2.1067297">
        <ele>279.88983154</ele>
        <time>2022-10-30T10:58:47Z</time>
      </trkpt>
      <trkpt lat="41.4116624" lon="2.1067876">
        <ele>279.97982788</ele>
        <time>2022-10-30T10:58:48Z</time>
      </trkpt>
      <trkpt lat="41.4116374" lon="2.1068345">
        <ele>280.05981445</ele>
        <time>2022-10-30T10:58:49Z</time>
      </trkpt>
      <trkpt lat="41.4116115" lon="2.1068785">
        <ele>280.06982422</ele>
        <time>2022-10-30T10:58:50Z</time>
      </trkpt>
      <trkpt lat="41.4115815" lon="2.1069184">
        <ele>280.06982422</ele>
        <time>2022-10-30T10:58:51Z</time>
      </trkpt>
      <trkpt lat="41.4115526" lon="2.1069484">
        <ele>280.02981567</ele>
        <time>2022-10-30T10:58:52Z</time>
      </trkpt>
      <trkpt lat="41.4115217" lon="2.1069973">
        <ele>280.099823</ele>
        <time>2022-10-30T10:58:53Z</time>
      </trkpt>
      <trkpt lat="41.4115027" lon="2.1070382">
        <ele>280.13983154</ele>
        <time>2022-10-30T10:58:54Z</time>
      </trkpt>
      <trkpt lat="41.4114867" lon="2.1070802">
        <ele>280.17984009</ele>
        <time>2022-10-30T10:58:55Z</time>
      </trkpt>
      <trkpt lat="41.4114787" lon="2.1071401">
        <ele>280.15985107</ele>
        <time>2022-10-30T10:58:56Z</time>
      </trkpt>
      <trkpt lat="41.4114628" lon="2.107216">
        <ele>279.99984741</ele>
        <time>2022-10-30T10:58:57Z</time>
      </trkpt>
      <trkpt lat="41.4114528" lon="2.1072599">
        <ele>279.92984009</ele>
        <time>2022-10-30T10:58:58Z</time>
      </trkpt>
      <trkpt lat="41.4114399" lon="2.1073168">
        <ele>279.85983276</ele>
        <time>2022-10-30T10:58:59Z</time>
      </trkpt>
      <trkpt lat="41.4114249" lon="2.1073518">
        <ele>279.81982422</ele>
        <time>2022-10-30T10:59:00Z</time>
      </trkpt>
      <trkpt lat="41.411412" lon="2.1074148">
        <ele>279.82983398</ele>
        <time>2022-10-30T10:59:01Z</time>
      </trkpt>
      <trkpt lat="41.411408" lon="2.1074917">
        <ele>279.82983398</ele>
        <time>2022-10-30T10:59:02Z</time>
      </trkpt>
      <trkpt lat="41.4114021" lon="2.1075377">
        <ele>279.83984375</ele>
        <time>2022-10-30T10:59:03Z</time>
      </trkpt>
      <trkpt lat="41.4113982" lon="2.1076017">
        <ele>279.79983521</ele>
        <time>2022-10-30T10:59:04Z</time>
      </trkpt>
      <trkpt lat="41.4114011" lon="2.1076717">
        <ele>279.88983154</ele>
        <time>2022-10-30T10:59:05Z</time>
      </trkpt>
      <trkpt lat="41.411407" lon="2.1077686">
        <ele>279.88983154</ele>
        <time>2022-10-30T10:59:06Z</time>
      </trkpt>
      <trkpt lat="41.4114159" lon="2.1078306">
        <ele>279.88983154</ele>
        <time>2022-10-30T10:59:07Z</time>
      </trkpt>
      <trkpt lat="41.4114339" lon="2.1078825">
        <ele>279.99981689</ele>
        <time>2022-10-30T10:59:08Z</time>
      </trkpt>
      <trkpt lat="41.4114448" lon="2.1079435">
        <ele>280.03982544</ele>
        <time>2022-10-30T10:59:09Z</time>
      </trkpt>
      <trkpt lat="41.4114508" lon="2.1080025">
        <ele>280.03982544</ele>
        <time>2022-10-30T10:59:10Z</time>
      </trkpt>
      <trkpt lat="41.4114727" lon="2.1080834">
        <ele>279.96981812</ele>
        <time>2022-10-30T10:59:11Z</time>
      </trkpt>
      <trkpt lat="41.4114847" lon="2.1081384">
        <ele>279.91983032</ele>
        <time>2022-10-30T10:59:12Z</time>
      </trkpt>
      <trkpt lat="41.4115066" lon="2.1081853">
        <ele>279.86984253</ele>
        <time>2022-10-30T10:59:13Z</time>
      </trkpt>
      <trkpt lat="41.4115396" lon="2.1082282">
        <ele>279.92984009</ele>
        <time>2022-10-30T10:59:14Z</time>
      </trkpt>
      <trkpt lat="41.4115765" lon="2.1082592">
        <ele>280.00982666</ele>
        <time>2022-10-30T10:59:15Z</time>
      </trkpt>
      <trkpt lat="41.4116365" lon="2.1082891">
        <ele>280.00982666</ele>
        <time>2022-10-30T10:59:16Z</time>
      </trkpt>
      <trkpt lat="41.4116824" lon="2.1082931">
        <ele>279.98983765</ele>
        <time>2022-10-30T10:59:17Z</time>
      </trkpt>
      <trkpt lat="41.4117173" lon="2.108298">
        <ele>279.90985107</ele>
        <time>2022-10-30T10:59:18Z</time>
      </trkpt>
      <trkpt lat="41.4117433" lon="2.108307">
        <ele>279.88986206</ele>
        <time>2022-10-30T10:59:19Z</time>
      </trkpt>
      <trkpt lat="41.4117962" lon="2.108305">
        <ele>279.88986206</ele>
        <time>2022-10-30T10:59:20Z</time>
      </trkpt>
      <trkpt lat="41.4118382" lon="2.108295">
        <ele>279.90985107</ele>
        <time>2022-10-30T10:59:21Z</time>
      </trkpt>
      <trkpt lat="41.4118812" lon="2.108279">
        <ele>279.95983887</ele>
        <time>2022-10-30T10:59:22Z</time>
      </trkpt>
      <trkpt lat="41.4119271" lon="2.1082651">
        <ele>279.97982788</ele>
        <time>2022-10-30T10:59:23Z</time>
      </trkpt>
      <trkpt lat="41.411992" lon="2.1082511">
        <ele>280.01983643</ele>
        <time>2022-10-30T10:59:24Z</time>
      </trkpt>
      <trkpt lat="41.412041" lon="2.1082432">
        <ele>280.00982666</ele>
        <time>2022-10-30T10:59:25Z</time>
      </trkpt>
      <trkpt lat="41.4120889" lon="2.1082392">
        <ele>279.9498291</ele>
        <time>2022-10-30T10:59:26Z</time>
      </trkpt>
      <trkpt lat="41.4121309" lon="2.1082432">
        <ele>279.85983276</ele>
        <time>2022-10-30T10:59:27Z</time>
      </trkpt>
      <trkpt lat="41.4121668" lon="2.1082451">
        <ele>279.71981812</ele>
        <time>2022-10-30T10:59:28Z</time>
      </trkpt>
      <trkpt lat="41.4122298" lon="2.108248">
        <ele>279.56982422</ele>
        <time>2022-10-30T10:59:29Z</time>
      </trkpt>
      <trkpt lat="41.4122718" lon="2.1082391">
        <ele>279.43981934</ele>
        <time>2022-10-30T10:59:30Z</time>
      </trkpt>
      <trkpt lat="41.4122907" lon="2.1082342">
        <ele>279.39981079</ele>
        <time>2022-10-30T10:59:31Z</time>
      </trkpt>
      <trkpt lat="41.4123257" lon="2.1082361">
        <ele>279.33981323</ele>
        <time>2022-10-30T10:59:32Z</time>
      </trkpt>
      <trkpt lat="41.4123686" lon="2.1082242">
        <ele>279.27981567</ele>
        <time>2022-10-30T10:59:33Z</time>
      </trkpt>
      <trkpt lat="41.4124356" lon="2.1082082">
        <ele>279.17980957</ele>
        <time>2022-10-30T10:59:34Z</time>
      </trkpt>
      <trkpt lat="41.4124746" lon="2.1082141">
        <ele>279.07980347</ele>
        <time>2022-10-30T10:59:35Z</time>
      </trkpt>
      <trkpt lat="41.4125136" lon="2.108233">
        <ele>278.98980713</ele>
        <time>2022-10-30T10:59:36Z</time>
      </trkpt>
      <trkpt lat="41.4125556" lon="2.108256">
        <ele>278.93981934</ele>
        <time>2022-10-30T10:59:37Z</time>
      </trkpt>
      <trkpt lat="41.4126085" lon="2.1082969">
        <ele>278.98980713</ele>
        <time>2022-10-30T10:59:38Z</time>
      </trkpt>
      <trkpt lat="41.4126435" lon="2.1083378">
        <ele>278.97979736</ele>
        <time>2022-10-30T10:59:39Z</time>
      </trkpt>
      <trkpt lat="41.4126685" lon="2.1083807">
        <ele>278.97979736</ele>
        <time>2022-10-30T10:59:40Z</time>
      </trkpt>
      <trkpt lat="41.4126834" lon="2.1084257">
        <ele>279.05978394</ele>
        <time>2022-10-30T10:59:41Z</time>
      </trkpt>
      <trkpt lat="41.4127003" lon="2.1084976">
        <ele>279.0697937</ele>
        <time>2022-10-30T10:59:42Z</time>
      </trkpt>
      <trkpt lat="41.4127143" lon="2.1085466">
        <ele>279.09979248</ele>
        <time>2022-10-30T10:59:43Z</time>
      </trkpt>
      <trkpt lat="41.4127303" lon="2.1085965">
        <ele>279.19979858</ele>
        <time>2022-10-30T10:59:44Z</time>
      </trkpt>
      <trkpt lat="41.4127432" lon="2.1086434">
        <ele>279.19979858</ele>
        <time>2022-10-30T10:59:45Z</time>
      </trkpt>
      <trkpt lat="41.4127622" lon="2.1086944">
        <ele>279.20980835</ele>
        <time>2022-10-30T10:59:46Z</time>
      </trkpt>
      <trkpt lat="41.4127862" lon="2.1087594">
        <ele>279.28979492</ele>
        <time>2022-10-30T10:59:47Z</time>
      </trkpt>
      <trkpt lat="41.4128041" lon="2.1088093">
        <ele>279.28979492</ele>
        <time>2022-10-30T10:59:48Z</time>
      </trkpt>
      <trkpt lat="41.4128181" lon="2.1088632">
        <ele>279.3197937</ele>
        <time>2022-10-30T10:59:49Z</time>
      </trkpt>
      <trkpt lat="41.4128281" lon="2.1089122">
        <ele>279.25979614</ele>
        <time>2022-10-30T10:59:50Z</time>
      </trkpt>
      <trkpt lat="41.412831" lon="2.1090012">
        <ele>279.14981079</ele>
        <time>2022-10-30T10:59:51Z</time>
      </trkpt>
      <trkpt lat="41.412816" lon="2.1090581">
        <ele>279.099823</ele>
        <time>2022-10-30T10:59:52Z</time>
      </trkpt>
      <trkpt lat="41.4127991" lon="2.109099">
        <ele>279.03982544</ele>
        <time>2022-10-30T10:59:53Z</time>
      </trkpt>
      <trkpt lat="41.4127752" lon="2.109128">
        <ele>279.05981445</ele>
        <time>2022-10-30T10:59:54Z</time>
      </trkpt>
      <trkpt lat="41.4127413" lon="2.1091519">
        <ele>279.06982422</ele>
        <time>2022-10-30T10:59:55Z</time>
      </trkpt>
      <trkpt lat="41.4126843" lon="2.1091768">
        <ele>279.11981201</ele>
        <time>2022-10-30T10:59:56Z</time>
      </trkpt>
      <trkpt lat="41.4126474" lon="2.1091968">
        <ele>279.1697998</ele>
        <time>2022-10-30T10:59:57Z</time>
      </trkpt>
      <trkpt lat="41.4126114" lon="2.1092198">
        <ele>279.26980591</ele>
        <time>2022-10-30T10:59:58Z</time>
      </trkpt>
      <trkpt lat="41.4125765" lon="2.1092428">
        <ele>279.37979126</ele>
        <time>2022-10-30T10:59:59Z</time>
      </trkpt>
      <trkpt lat="41.4125196" lon="2.1092778">
        <ele>279.40979004</ele>
        <time>2022-10-30T11:00:00Z</time>
      </trkpt>
      <trkpt lat="41.4124906" lon="2.1092897">
        <ele>279.40979004</ele>
        <time>2022-10-30T11:00:01Z</time>
      </trkpt>
      <trkpt lat="41.4124607" lon="2.1093127">
        <ele>279.38980103</ele>
        <time>2022-10-30T11:00:02Z</time>
      </trkpt>
      <trkpt lat="41.4124327" lon="2.1093366">
        <ele>279.3197937</ele>
        <time>2022-10-30T11:00:03Z</time>
      </trkpt>
      <trkpt lat="41.4124038" lon="2.1093686">
        <ele>279.27978516</ele>
        <time>2022-10-30T11:00:04Z</time>
      </trkpt>
      <trkpt lat="41.4123558" lon="2.1094076">
        <ele>279.2197876</ele>
        <time>2022-10-30T11:00:05Z</time>
      </trkpt>
      <trkpt lat="41.4123269" lon="2.1094535">
        <ele>279.12979126</ele>
        <time>2022-10-30T11:00:06Z</time>
      </trkpt>
      <trkpt lat="41.412295" lon="2.1094974">
        <ele>279.0697937</ele>
        <time>2022-10-30T11:00:07Z</time>
      </trkpt>
      <trkpt lat="41.41226" lon="2.1095464">
        <ele>279.02978516</ele>
        <time>2022-10-30T11:00:08Z</time>
      </trkpt>
      <trkpt lat="41.4122131" lon="2.1096354">
        <ele>279.03979492</ele>
        <time>2022-10-30T11:00:09Z</time>
      </trkpt>
      <trkpt lat="41.4121951" lon="2.1096913">
        <ele>279.07980347</ele>
        <time>2022-10-30T11:00:10Z</time>
      </trkpt>
      <trkpt lat="41.4121782" lon="2.1097373">
        <ele>279.07980347</ele>
        <time>2022-10-30T11:00:11Z</time>
      </trkpt>
      <trkpt lat="41.4121642" lon="2.1097832">
        <ele>279.11981201</ele>
        <time>2022-10-30T11:00:12Z</time>
      </trkpt>
      <trkpt lat="41.4121523" lon="2.1098262">
        <ele>279.11981201</ele>
        <time>2022-10-30T11:00:13Z</time>
      </trkpt>
      <trkpt lat="41.4121393" lon="2.1098962">
        <ele>279.12982178</ele>
        <time>2022-10-30T11:00:14Z</time>
      </trkpt>
      <trkpt lat="41.4121354" lon="2.1099371">
        <ele>279.21981812</ele>
        <time>2022-10-30T11:00:15Z</time>
      </trkpt>
      <trkpt lat="41.4121434" lon="2.109981">
        <ele>279.31982422</ele>
        <time>2022-10-30T11:00:16Z</time>
      </trkpt>
      <trkpt lat="41.4121624" lon="2.1100239">
        <ele>279.4498291</ele>
        <time>2022-10-30T11:00:17Z</time>
      </trkpt>
      <trkpt lat="41.4121883" lon="2.1100749">
        <ele>279.58984375</ele>
        <time>2022-10-30T11:00:18Z</time>
      </trkpt>
      <trkpt lat="41.4122292" lon="2.1101339">
        <ele>279.68984985</ele>
        <time>2022-10-30T11:00:19Z</time>
      </trkpt>
      <trkpt lat="41.4122642" lon="2.1101638">
        <ele>279.70983887</ele>
        <time>2022-10-30T11:00:20Z</time>
      </trkpt>
      <trkpt lat="41.4123111" lon="2.1101738">
        <ele>279.60983276</ele>
        <time>2022-10-30T11:00:21Z</time>
      </trkpt>
      <trkpt lat="41.4123471" lon="2.1101927">
        <ele>279.42984009</ele>
        <time>2022-10-30T11:00:22Z</time>
      </trkpt>
      <trkpt lat="41.412355" lon="2.110197">
        <ele>279.3500061</ele>
        <time>2022-10-30T11:00:22Z</time>
      </trkpt>
      <trkpt lat="41.412405" lon="2.110227">
        <ele>279.20999146</ele>
        <time>2022-10-30T11:00:23Z</time>
      </trkpt>
      <trkpt lat="41.4124479" lon="2.110228">
        <ele>279.08999634</ele>
        <time>2022-10-30T11:00:24Z</time>
      </trkpt>
      <trkpt lat="41.4124869" lon="2.1102439">
        <ele>279.04000854</ele>
        <time>2022-10-30T11:00:25Z</time>
      </trkpt>
      <trkpt lat="41.4125238" lon="2.1102709">
        <ele>279.02999878</ele>
        <time>2022-10-30T11:00:26Z</time>
      </trkpt>
      <trkpt lat="41.4125618" lon="2.1102839">
        <ele>278.98999023</ele>
        <time>2022-10-30T11:00:27Z</time>
      </trkpt>
      <trkpt lat="41.4126197" lon="2.1102969">
        <ele>278.92999268</ele>
        <time>2022-10-30T11:00:28Z</time>
      </trkpt>
      <trkpt lat="41.4126577" lon="2.1102929">
        <ele>278.91000366</ele>
        <time>2022-10-30T11:00:29Z</time>
      </trkpt>
      <trkpt lat="41.4127006" lon="2.1102859">
        <ele>278.92999268</ele>
        <time>2022-10-30T11:00:30Z</time>
      </trkpt>
      <trkpt lat="41.4127386" lon="2.1102959">
        <ele>278.95999146</ele>
        <time>2022-10-30T11:00:31Z</time>
      </trkpt>
      <trkpt lat="41.4128015" lon="2.1103059">
        <ele>278.97000122</ele>
        <time>2022-10-30T11:00:32Z</time>
      </trkpt>
      <trkpt lat="41.4128474" lon="2.1103138">
        <ele>278.97000122</ele>
        <time>2022-10-30T11:00:33Z</time>
      </trkpt>
      <trkpt lat="41.4128994" lon="2.1103198">
        <ele>278.97000122</ele>
        <time>2022-10-30T11:00:34Z</time>
      </trkpt>
      <trkpt lat="41.4129423" lon="2.1103467">
        <ele>278.97000122</ele>
        <time>2022-10-30T11:00:35Z</time>
      </trkpt>
      <trkpt lat="41.4129923" lon="2.1103627">
        <ele>278.98001099</ele>
        <time>2022-10-30T11:00:36Z</time>
      </trkpt>
      <trkpt lat="41.4130593" lon="2.1104107">
        <ele>278.99002075</ele>
        <time>2022-10-30T11:00:37Z</time>
      </trkpt>
      <trkpt lat="41.4130992" lon="2.1104376">
        <ele>278.96002197</ele>
        <time>2022-10-30T11:00:38Z</time>
      </trkpt>
      <trkpt lat="41.4131421" lon="2.1104516">
        <ele>278.94003296</ele>
        <time>2022-10-30T11:00:39Z</time>
      </trkpt>
      <trkpt lat="41.4132011" lon="2.1104876">
        <ele>278.94003296</ele>
        <time>2022-10-30T11:00:40Z</time>
      </trkpt>
      <trkpt lat="41.4132311" lon="2.1105215">
        <ele>278.95004272</ele>
        <time>2022-10-30T11:00:41Z</time>
      </trkpt>
      <trkpt lat="41.413258" lon="2.1105635">
        <ele>278.9800415</ele>
        <time>2022-10-30T11:00:42Z</time>
      </trkpt>
      <trkpt lat="41.413289" lon="2.1105944">
        <ele>279.02005005</ele>
        <time>2022-10-30T11:00:43Z</time>
      </trkpt>
      <trkpt lat="41.4133189" lon="2.1106313">
        <ele>279.10003662</ele>
        <time>2022-10-30T11:00:44Z</time>
      </trkpt>
      <trkpt lat="41.4133439" lon="2.1106613">
        <ele>279.19003296</ele>
        <time>2022-10-30T11:00:45Z</time>
      </trkpt>
      <trkpt lat="41.4133939" lon="2.1106973">
        <ele>279.30001831</ele>
        <time>2022-10-30T11:00:46Z</time>
      </trkpt>
      <trkpt lat="41.4134269" lon="2.1107212">
        <ele>279.41000366</ele>
        <time>2022-10-30T11:00:47Z</time>
      </trkpt>
      <trkpt lat="41.4134538" lon="2.1107512">
        <ele>279.51998901</ele>
        <time>2022-10-30T11:00:48Z</time>
      </trkpt>
      <trkpt lat="41.4134778" lon="2.1107821">
        <ele>279.69000244</ele>
        <time>2022-10-30T11:00:49Z</time>
      </trkpt>
      <trkpt lat="41.4135107" lon="2.1108211">
        <ele>279.86999512</ele>
        <time>2022-10-30T11:00:50Z</time>
      </trkpt>
      <trkpt lat="41.4135317" lon="2.110846">
        <ele>280.13998413</ele>
        <time>2022-10-30T11:00:51Z</time>
      </trkpt>
      <trkpt lat="41.4135397" lon="2.1108659">
        <ele>280.43997192</ele>
        <time>2022-10-30T11:00:52Z</time>
      </trkpt>
      <trkpt lat="41.4135456" lon="2.1108859">
        <ele>280.75997925</ele>
        <time>2022-10-30T11:00:53Z</time>
      </trkpt>
      <trkpt lat="41.4135397" lon="2.1109539">
        <ele>281.09997559</ele>
        <time>2022-10-30T11:00:54Z</time>
      </trkpt>
      <trkpt lat="41.4135297" lon="2.1109838">
        <ele>281.31997681</ele>
        <time>2022-10-30T11:00:55Z</time>
      </trkpt>
      <trkpt lat="41.4135228" lon="2.1110138">
        <ele>281.47998047</ele>
        <time>2022-10-30T11:00:56Z</time>
      </trkpt>
      <trkpt lat="41.4135098" lon="2.1110307">
        <ele>281.48999023</ele>
        <time>2022-10-30T11:00:57Z</time>
      </trkpt>
      <trkpt lat="41.4134859" lon="2.1110397">
        <ele>281.41000366</ele>
        <time>2022-10-30T11:00:58Z</time>
      </trkpt>
      <trkpt lat="41.4134339" lon="2.1110456">
        <ele>281.26000977</ele>
        <time>2022-10-30T11:00:59Z</time>
      </trkpt>
      <trkpt lat="41.413403" lon="2.1110586">
        <ele>281.04000854</ele>
        <time>2022-10-30T11:01:00Z</time>
      </trkpt>
      <trkpt lat="41.4133541" lon="2.1110906">
        <ele>280.86999512</ele>
        <time>2022-10-30T11:01:01Z</time>
      </trkpt>
      <trkpt lat="41.4133121" lon="2.1111115">
        <ele>280.61999512</ele>
        <time>2022-10-30T11:01:02Z</time>
      </trkpt>
      <trkpt lat="41.4132472" lon="2.1111445">
        <ele>280.38998413</ele>
        <time>2022-10-30T11:01:03Z</time>
      </trkpt>
      <trkpt lat="41.4132052" lon="2.1111624">
        <ele>280.18997192</ele>
        <time>2022-10-30T11:01:04Z</time>
      </trkpt>
      <trkpt lat="41.4131672" lon="2.1111784">
        <ele>279.87997437</ele>
        <time>2022-10-30T11:01:05Z</time>
      </trkpt>
      <trkpt lat="41.4131312" lon="2.1111954">
        <ele>279.62997437</ele>
        <time>2022-10-30T11:01:06Z</time>
      </trkpt>
      <trkpt lat="41.4130943" lon="2.1112203">
        <ele>279.40997314</ele>
        <time>2022-10-30T11:01:07Z</time>
      </trkpt>
      <trkpt lat="41.4130164" lon="2.1112642">
        <ele>279.20996094</ele>
        <time>2022-10-30T11:01:08Z</time>
      </trkpt>
      <trkpt lat="41.4129784" lon="2.1112911">
        <ele>279.07995605</ele>
        <time>2022-10-30T11:01:09Z</time>
      </trkpt>
      <trkpt lat="41.4129385" lon="2.1113241">
        <ele>278.95996094</ele>
        <time>2022-10-30T11:01:10Z</time>
      </trkpt>
      <trkpt lat="41.4129005" lon="2.1113571">
        <ele>278.88995361</ele>
        <time>2022-10-30T11:01:11Z</time>
      </trkpt>
      <trkpt lat="41.4128436" lon="2.111408">
        <ele>278.88995361</ele>
        <time>2022-10-30T11:01:12Z</time>
      </trkpt>
      <trkpt lat="41.4128067" lon="2.111447">
        <ele>278.88995361</ele>
        <time>2022-10-30T11:01:13Z</time>
      </trkpt>
      <trkpt lat="41.4127787" lon="2.111492">
        <ele>278.90994263</ele>
        <time>2022-10-30T11:01:14Z</time>
      </trkpt>
      <trkpt lat="41.4127588" lon="2.111538">
        <ele>278.94995117</ele>
        <time>2022-10-30T11:01:15Z</time>
      </trkpt>
      <trkpt lat="41.4127368" lon="2.1115899">
        <ele>278.94995117</ele>
        <time>2022-10-30T11:01:16Z</time>
      </trkpt>
      <trkpt lat="41.4126868" lon="2.1116489">
        <ele>279.00994873</ele>
        <time>2022-10-30T11:01:17Z</time>
      </trkpt>
      <trkpt lat="41.4126559" lon="2.1116848">
        <ele>279.03994751</ele>
        <time>2022-10-30T11:01:18Z</time>
      </trkpt>
      <trkpt lat="41.412623" lon="2.1117348">
        <ele>279.02993774</ele>
        <time>2022-10-30T11:01:19Z</time>
      </trkpt>
      <trkpt lat="41.41259" lon="2.1117727">
        <ele>278.9899292</ele>
        <time>2022-10-30T11:01:20Z</time>
      </trkpt>
      <trkpt lat="41.4125561" lon="2.1118086">
        <ele>278.89993286</ele>
        <time>2022-10-30T11:01:21Z</time>
      </trkpt>
      <trkpt lat="41.4125131" lon="2.1118836">
        <ele>278.80993652</ele>
        <time>2022-10-30T11:01:22Z</time>
      </trkpt>
      <trkpt lat="41.4124822" lon="2.1119195">
        <ele>278.66992188</ele>
        <time>2022-10-30T11:01:23Z</time>
      </trkpt>
      <trkpt lat="41.4124542" lon="2.1119495">
        <ele>278.59991455</ele>
        <time>2022-10-30T11:01:24Z</time>
      </trkpt>
      <trkpt lat="41.4124323" lon="2.1119885">
        <ele>278.54992676</ele>
        <time>2022-10-30T11:01:25Z</time>
      </trkpt>
      <trkpt lat="41.4124053" lon="2.1120775">
        <ele>278.56991577</ele>
        <time>2022-10-30T11:01:26Z</time>
      </trkpt>
      <trkpt lat="41.4123884" lon="2.1121314">
        <ele>278.62991333</ele>
        <time>2022-10-30T11:01:27Z</time>
      </trkpt>
      <trkpt lat="41.4123644" lon="2.1121833">
        <ele>278.65991211</ele>
        <time>2022-10-30T11:01:28Z</time>
      </trkpt>
      <trkpt lat="41.4123495" lon="2.1122432">
        <ele>278.64990234</ele>
        <time>2022-10-30T11:01:29Z</time>
      </trkpt>
      <trkpt lat="41.4123346" lon="2.1123292">
        <ele>278.64990234</ele>
        <time>2022-10-30T11:01:30Z</time>
      </trkpt>
      <trkpt lat="41.4123375" lon="2.1123701">
        <ele>278.65991211</ele>
        <time>2022-10-30T11:01:31Z</time>
      </trkpt>
      <trkpt lat="41.4123366" lon="2.1124151">
        <ele>278.65991211</ele>
        <time>2022-10-30T11:01:32Z</time>
      </trkpt>
      <trkpt lat="41.4123366" lon="2.1124541">
        <ele>278.7098999</ele>
        <time>2022-10-30T11:01:33Z</time>
      </trkpt>
      <trkpt lat="41.4123375" lon="2.1124861">
        <ele>278.7098999</ele>
        <time>2022-10-30T11:01:34Z</time>
      </trkpt>
      <trkpt lat="41.4123395" lon="2.11251">
        <ele>278.69989014</ele>
        <time>2022-10-30T11:01:35Z</time>
      </trkpt>
      <trkpt lat="41.4123554" lon="2.112523">
        <ele>278.69989014</ele>
        <time>2022-10-30T11:01:36Z</time>
      </trkpt>
      <trkpt lat="41.4123624" lon="2.112543">
        <ele>278.64990234</ele>
        <time>2022-10-30T11:01:37Z</time>
      </trkpt>
      <trkpt lat="41.4123704" lon="2.112578">
        <ele>278.64990234</ele>
        <time>2022-10-30T11:01:38Z</time>
      </trkpt>
      <trkpt lat="41.4123773" lon="2.11262">
        <ele>278.63989258</ele>
        <time>2022-10-30T11:01:39Z</time>
      </trkpt>
      <trkpt lat="41.4123913" lon="2.1126739">
        <ele>278.54989624</ele>
        <time>2022-10-30T11:01:40Z</time>
      </trkpt>
      <trkpt lat="41.4124032" lon="2.1127018">
        <ele>278.5098877</ele>
        <time>2022-10-30T11:01:41Z</time>
      </trkpt>
      <trkpt lat="41.4124252" lon="2.1127197">
        <ele>278.44989014</ele>
        <time>2022-10-30T11:01:42Z</time>
      </trkpt>
      <trkpt lat="41.4124522" lon="2.1127367">
        <ele>278.40988159</ele>
        <time>2022-10-30T11:01:43Z</time>
      </trkpt>
      <trkpt lat="41.4124931" lon="2.1127606">
        <ele>278.45986938</ele>
        <time>2022-10-30T11:01:44Z</time>
      </trkpt>
      <trkpt lat="41.4125221" lon="2.1127885">
        <ele>278.46987915</ele>
        <time>2022-10-30T11:01:45Z</time>
      </trkpt>
      <trkpt lat="41.4125471" lon="2.1128075">
        <ele>278.49987793</ele>
        <time>2022-10-30T11:01:46Z</time>
      </trkpt>
      <trkpt lat="41.412566" lon="2.1128234">
        <ele>278.51986694</ele>
        <time>2022-10-30T11:01:47Z</time>
      </trkpt>
      <trkpt lat="41.412585" lon="2.1128514">
        <ele>278.49987793</ele>
        <time>2022-10-30T11:01:48Z</time>
      </trkpt>
      <trkpt lat="41.4126139" lon="2.1129073">
        <ele>278.52987671</ele>
        <time>2022-10-30T11:01:49Z</time>
      </trkpt>
      <trkpt lat="41.4126319" lon="2.1129433">
        <ele>278.47988892</ele>
        <time>2022-10-30T11:01:50Z</time>
      </trkpt>
      <trkpt lat="41.4126518" lon="2.1129742">
        <ele>278.51989746</ele>
        <time>2022-10-30T11:01:51Z</time>
      </trkpt>
      <trkpt lat="41.4126667" lon="2.1130222">
        <ele>278.46990967</ele>
        <time>2022-10-30T11:01:52Z</time>
      </trkpt>
      <trkpt lat="41.4126568" lon="2.1130951">
        <ele>278.35992432</ele>
        <time>2022-10-30T11:01:53Z</time>
      </trkpt>
      <trkpt lat="41.4126388" lon="2.1131311">
        <ele>278.39993286</ele>
        <time>2022-10-30T11:01:54Z</time>
      </trkpt>
      <trkpt lat="41.4126058" lon="2.113164">
        <ele>278.3399353</ele>
        <time>2022-10-30T11:01:55Z</time>
      </trkpt>
      <trkpt lat="41.4125709" lon="2.1131979">
        <ele>278.3399353</ele>
        <time>2022-10-30T11:01:56Z</time>
      </trkpt>
      <trkpt lat="41.412525" lon="2.1132399">
        <ele>278.39993286</ele>
        <time>2022-10-30T11:01:57Z</time>
      </trkpt>
      <trkpt lat="41.412509" lon="2.1132599">
        <ele>278.37994385</ele>
        <time>2022-10-30T11:01:58Z</time>
      </trkpt>
      <trkpt lat="41.4124801" lon="2.1132818">
        <ele>278.40994263</ele>
        <time>2022-10-30T11:01:59Z</time>
      </trkpt>
      <trkpt lat="41.4124451" lon="2.1133187">
        <ele>278.40994263</ele>
        <time>2022-10-30T11:02:00Z</time>
      </trkpt>
      <trkpt lat="41.4124132" lon="2.1133527">
        <ele>278.41995239</ele>
        <time>2022-10-30T11:02:01Z</time>
      </trkpt>
      <trkpt lat="41.4123662" lon="2.1134197">
        <ele>278.33996582</ele>
        <time>2022-10-30T11:02:02Z</time>
      </trkpt>
      <trkpt lat="41.4123363" lon="2.1134676">
        <ele>278.28997803</ele>
        <time>2022-10-30T11:02:03Z</time>
      </trkpt>
      <trkpt lat="41.4123113" lon="2.1135196">
        <ele>278.24996948</ele>
        <time>2022-10-30T11:02:04Z</time>
      </trkpt>
      <trkpt lat="41.4122763" lon="2.1135836">
        <ele>278.16998291</ele>
        <time>2022-10-30T11:02:05Z</time>
      </trkpt>
      <trkpt lat="41.4122454" lon="2.1136356">
        <ele>278.18997192</ele>
        <time>2022-10-30T11:02:06Z</time>
      </trkpt>
      <trkpt lat="41.4122045" lon="2.1137285">
        <ele>278.18997192</ele>
        <time>2022-10-30T11:02:07Z</time>
      </trkpt>
      <trkpt lat="41.4121725" lon="2.1137985">
        <ele>278.2699585</ele>
        <time>2022-10-30T11:02:08Z</time>
      </trkpt>
      <trkpt lat="41.4121546" lon="2.1138524">
        <ele>278.37994385</ele>
        <time>2022-10-30T11:02:09Z</time>
      </trkpt>
      <trkpt lat="41.4121386" lon="2.1139304">
        <ele>278.44995117</ele>
        <time>2022-10-30T11:02:10Z</time>
      </trkpt>
      <trkpt lat="41.4121287" lon="2.1140203">
        <ele>278.49993896</ele>
        <time>2022-10-30T11:02:11Z</time>
      </trkpt>
      <trkpt lat="41.4121336" lon="2.1140753">
        <ele>278.49993896</ele>
        <time>2022-10-30T11:02:12Z</time>
      </trkpt>
      <trkpt lat="41.4121446" lon="2.1141162">
        <ele>278.49993896</ele>
        <time>2022-10-30T11:02:13Z</time>
      </trkpt>
      <trkpt lat="41.4121446" lon="2.1141672">
        <ele>278.61993408</ele>
        <time>2022-10-30T11:02:14Z</time>
      </trkpt>
      <trkpt lat="41.4121606" lon="2.1141992">
        <ele>278.72991943</ele>
        <time>2022-10-30T11:02:15Z</time>
      </trkpt>
      <trkpt lat="41.4121846" lon="2.1142702">
        <ele>278.83990479</ele>
        <time>2022-10-30T11:02:16Z</time>
      </trkpt>
      <trkpt lat="41.4122005" lon="2.1143201">
        <ele>278.9598999</ele>
        <time>2022-10-30T11:02:17Z</time>
      </trkpt>
      <trkpt lat="41.4122225" lon="2.114373">
        <ele>278.94989014</ele>
        <time>2022-10-30T11:02:18Z</time>
      </trkpt>
      <trkpt lat="41.4122505" lon="2.114413">
        <ele>278.90988159</ele>
        <time>2022-10-30T11:02:19Z</time>
      </trkpt>
      <trkpt lat="41.4123014" lon="2.114445">
        <ele>278.84988403</ele>
        <time>2022-10-30T11:02:20Z</time>
      </trkpt>
      <trkpt lat="41.4123374" lon="2.1144559">
        <ele>278.78988647</ele>
        <time>2022-10-30T11:02:21Z</time>
      </trkpt>
      <trkpt lat="41.4123743" lon="2.1144618">
        <ele>278.79989624</ele>
        <time>2022-10-30T11:02:22Z</time>
      </trkpt>
      <trkpt lat="41.4124202" lon="2.1144609">
        <ele>278.84988403</ele>
        <time>2022-10-30T11:02:23Z</time>
      </trkpt>
      <trkpt lat="41.4124842" lon="2.1144708">
        <ele>278.91989136</ele>
        <time>2022-10-30T11:02:24Z</time>
      </trkpt>
      <trkpt lat="41.4125161" lon="2.1144828">
        <ele>278.89990234</ele>
        <time>2022-10-30T11:02:25Z</time>
      </trkpt>
      <trkpt lat="41.4125521" lon="2.1144928">
        <ele>278.84991455</ele>
        <time>2022-10-30T11:02:26Z</time>
      </trkpt>
      <trkpt lat="41.4125931" lon="2.1144997">
        <ele>278.75991821</ele>
        <time>2022-10-30T11:02:27Z</time>
      </trkpt>
      <trkpt lat="41.412634" lon="2.1145127">
        <ele>278.71990967</ele>
        <time>2022-10-30T11:02:28Z</time>
      </trkpt>
      <trkpt lat="41.412691" lon="2.1145406">
        <ele>278.71990967</ele>
        <time>2022-10-30T11:02:29Z</time>
      </trkpt>
      <trkpt lat="41.4127369" lon="2.1145496">
        <ele>278.71990967</ele>
        <time>2022-10-30T11:02:30Z</time>
      </trkpt>
      <trkpt lat="41.4127749" lon="2.1145656">
        <ele>278.78991699</ele>
        <time>2022-10-30T11:02:31Z</time>
      </trkpt>
      <trkpt lat="41.4128098" lon="2.1145895">
        <ele>278.85992432</ele>
        <time>2022-10-30T11:02:32Z</time>
      </trkpt>
      <trkpt lat="41.4128437" lon="2.1146155">
        <ele>278.92993164</ele>
        <time>2022-10-30T11:02:33Z</time>
      </trkpt>
      <trkpt lat="41.4128946" lon="2.1146575">
        <ele>278.95993042</ele>
        <time>2022-10-30T11:02:34Z</time>
      </trkpt>
      <trkpt lat="41.4129255" lon="2.1146904">
        <ele>278.97991943</ele>
        <time>2022-10-30T11:02:35Z</time>
      </trkpt>
      <trkpt lat="41.4129564" lon="2.1147183">
        <ele>278.96990967</ele>
        <time>2022-10-30T11:02:36Z</time>
      </trkpt>
      <trkpt lat="41.4129784" lon="2.1147583">
        <ele>278.94992065</ele>
        <time>2022-10-30T11:02:37Z</time>
      </trkpt>
      <trkpt lat="41.4129953" lon="2.1148283">
        <ele>278.97991943</ele>
        <time>2022-10-30T11:02:38Z</time>
      </trkpt>
      <trkpt lat="41.4130033" lon="2.1148793">
        <ele>278.90991211</ele>
        <time>2022-10-30T11:02:39Z</time>
      </trkpt>
      <trkpt lat="41.4129993" lon="2.1149403">
        <ele>278.86990356</ele>
        <time>2022-10-30T11:02:40Z</time>
      </trkpt>
      <trkpt lat="41.4130023" lon="2.1150042">
        <ele>278.87991333</ele>
        <time>2022-10-30T11:02:41Z</time>
      </trkpt>
      <trkpt lat="41.4130102" lon="2.1150592">
        <ele>278.82992554</ele>
        <time>2022-10-30T11:02:42Z</time>
      </trkpt>
      <trkpt lat="41.4130222" lon="2.1151402">
        <ele>278.77993774</ele>
        <time>2022-10-30T11:02:43Z</time>
      </trkpt>
      <trkpt lat="41.4130341" lon="2.1151951">
        <ele>278.68994141</ele>
        <time>2022-10-30T11:02:44Z</time>
      </trkpt>
      <trkpt lat="41.413058" lon="2.115252">
        <ele>278.5899353</ele>
        <time>2022-10-30T11:02:45Z</time>
      </trkpt>
      <trkpt lat="41.413083" lon="2.115298">
        <ele>278.4899292</ele>
        <time>2022-10-30T11:02:46Z</time>
      </trkpt>
      <trkpt lat="41.413132" lon="2.1153629">
        <ele>278.42993164</ele>
        <time>2022-10-30T11:02:47Z</time>
      </trkpt>
      <trkpt lat="41.4131719" lon="2.1153939">
        <ele>278.43994141</ele>
        <time>2022-10-30T11:02:48Z</time>
      </trkpt>
      <trkpt lat="41.4132109" lon="2.1154148">
        <ele>278.44995117</ele>
        <time>2022-10-30T11:02:49Z</time>
      </trkpt>
      <trkpt lat="41.4132538" lon="2.1154367">
        <ele>278.48995972</ele>
        <time>2022-10-30T11:02:50Z</time>
      </trkpt>
      <trkpt lat="41.4133137" lon="2.1154757">
        <ele>278.6199646</ele>
        <time>2022-10-30T11:02:51Z</time>
      </trkpt>
      <trkpt lat="41.4133557" lon="2.1155017">
        <ele>278.74996948</ele>
        <time>2022-10-30T11:02:52Z</time>
      </trkpt>
      <trkpt lat="41.4133987" lon="2.1155246">
        <ele>278.74996948</ele>
        <time>2022-10-30T11:02:53Z</time>
      </trkpt>
      <trkpt lat="41.4134356" lon="2.1155566">
        <ele>278.81997681</ele>
        <time>2022-10-30T11:02:54Z</time>
      </trkpt>
      <trkpt lat="41.4134806" lon="2.1155785">
        <ele>278.81997681</ele>
        <time>2022-10-30T11:02:55Z</time>
      </trkpt>
      <trkpt lat="41.4135515" lon="2.1156155">
        <ele>278.81997681</ele>
        <time>2022-10-30T11:02:56Z</time>
      </trkpt>
      <trkpt lat="41.4135935" lon="2.1156415">
        <ele>278.69998169</ele>
        <time>2022-10-30T11:02:57Z</time>
      </trkpt>
      <trkpt lat="41.4136284" lon="2.1156784">
        <ele>278.66998291</ele>
        <time>2022-10-30T11:02:58Z</time>
      </trkpt>
      <trkpt lat="41.4136674" lon="2.1157053">
        <ele>278.62997437</ele>
        <time>2022-10-30T11:02:59Z</time>
      </trkpt>
      <trkpt lat="41.4137073" lon="2.1157223">
        <ele>278.54998779</ele>
        <time>2022-10-30T11:03:00Z</time>
      </trkpt>
      <trkpt lat="41.4137613" lon="2.1157692">
        <ele>278.72998047</ele>
        <time>2022-10-30T11:03:01Z</time>
      </trkpt>
      <trkpt lat="41.4137893" lon="2.1158032">
        <ele>278.76998901</ele>
        <time>2022-10-30T11:03:02Z</time>
      </trkpt>
      <trkpt lat="41.4138182" lon="2.1158321">
        <ele>278.79998779</ele>
        <time>2022-10-30T11:03:03Z</time>
      </trkpt>
      <trkpt lat="41.4138561" lon="2.115851">
        <ele>278.81997681</ele>
        <time>2022-10-30T11:03:04Z</time>
      </trkpt>
      <trkpt lat="41.4139141" lon="2.115877">
        <ele>278.78997803</ele>
        <time>2022-10-30T11:03:05Z</time>
      </trkpt>
      <trkpt lat="41.413957" lon="2.115904">
        <ele>278.74996948</ele>
        <time>2022-10-30T11:03:06Z</time>
      </trkpt>
      <trkpt lat="41.413992" lon="2.1159439">
        <ele>278.65997314</ele>
        <time>2022-10-30T11:03:07Z</time>
      </trkpt>
      <trkpt lat="41.41402" lon="2.1159969">
        <ele>278.55996704</ele>
        <time>2022-10-30T11:03:08Z</time>
      </trkpt>
      <trkpt lat="41.4140429" lon="2.1160868">
        <ele>278.43997192</ele>
        <time>2022-10-30T11:03:09Z</time>
      </trkpt>
      <trkpt lat="41.4140458" lon="2.1161568">
        <ele>278.35998535</ele>
        <time>2022-10-30T11:03:10Z</time>
      </trkpt>
      <trkpt lat="41.4140388" lon="2.1162067">
        <ele>278.29998779</ele>
        <time>2022-10-30T11:03:11Z</time>
      </trkpt>
      <trkpt lat="41.4140229" lon="2.1162437">
        <ele>278.28997803</ele>
        <time>2022-10-30T11:03:12Z</time>
      </trkpt>
      <trkpt lat="41.4139969" lon="2.1162876">
        <ele>278.28997803</ele>
        <time>2022-10-30T11:03:13Z</time>
      </trkpt>
      <trkpt lat="41.41396" lon="2.1163405">
        <ele>278.30996704</ele>
        <time>2022-10-30T11:03:14Z</time>
      </trkpt>
      <trkpt lat="41.4139281" lon="2.1163555">
        <ele>278.3699646</ele>
        <time>2022-10-30T11:03:15Z</time>
      </trkpt>
      <trkpt lat="41.4138882" lon="2.1163794">
        <ele>278.38995361</ele>
        <time>2022-10-30T11:03:16Z</time>
      </trkpt>
      <trkpt lat="41.4138482" lon="2.1164114">
        <ele>278.38995361</ele>
        <time>2022-10-30T11:03:17Z</time>
      </trkpt>
      <trkpt lat="41.4138043" lon="2.1164444">
        <ele>278.44995117</ele>
        <time>2022-10-30T11:03:18Z</time>
      </trkpt>
      <trkpt lat="41.4137394" lon="2.1165073">
        <ele>278.47994995</ele>
        <time>2022-10-30T11:03:19Z</time>
      </trkpt>
      <trkpt lat="41.4137034" lon="2.1165583">
        <ele>278.49993896</ele>
        <time>2022-10-30T11:03:20Z</time>
      </trkpt>
      <trkpt lat="41.4136745" lon="2.1166042">
        <ele>278.46994019</ele>
        <time>2022-10-30T11:03:21Z</time>
      </trkpt>
      <trkpt lat="41.4136355" lon="2.1166442">
        <ele>278.27993774</ele>
        <time>2022-10-30T11:03:22Z</time>
      </trkpt>
      <trkpt lat="41.4135945" lon="2.1167051">
        <ele>278.24993896</ele>
        <time>2022-10-30T11:03:23Z</time>
      </trkpt>
      <trkpt lat="41.4135695" lon="2.1167511">
        <ele>278.20993042</ele>
        <time>2022-10-30T11:03:24Z</time>
      </trkpt>
      <trkpt lat="41.4135456" lon="2.1168031">
        <ele>278.28991699</ele>
        <time>2022-10-30T11:03:25Z</time>
      </trkpt>
      <trkpt lat="41.4135266" lon="2.116855">
        <ele>278.44992065</ele>
        <time>2022-10-30T11:03:26Z</time>
      </trkpt>
      <trkpt lat="41.4135067" lon="2.116944">
        <ele>278.42993164</ele>
        <time>2022-10-30T11:03:27Z</time>
      </trkpt>
      <trkpt lat="41.4134937" lon="2.1170039">
        <ele>278.36993408</ele>
        <time>2022-10-30T11:03:28Z</time>
      </trkpt>
      <trkpt lat="41.4134838" lon="2.1170638">
        <ele>278.25994873</ele>
        <time>2022-10-30T11:03:29Z</time>
      </trkpt>
      <trkpt lat="41.4134738" lon="2.1171367">
        <ele>278.16995239</ele>
        <time>2022-10-30T11:03:30Z</time>
      </trkpt>
      <trkpt lat="41.4134719" lon="2.1172007">
        <ele>278.1199646</ele>
        <time>2022-10-30T11:03:31Z</time>
      </trkpt>
      <trkpt lat="41.4134728" lon="2.1172897">
        <ele>278.23995972</ele>
        <time>2022-10-30T11:03:32Z</time>
      </trkpt>
      <trkpt lat="41.4134757" lon="2.1173477">
        <ele>278.37997437</ele>
        <time>2022-10-30T11:03:33Z</time>
      </trkpt>
      <trkpt lat="41.4134796" lon="2.1174087">
        <ele>278.43997192</ele>
        <time>2022-10-30T11:03:34Z</time>
      </trkpt>
      <trkpt lat="41.4134995" lon="2.1174716">
        <ele>278.50997925</ele>
        <time>2022-10-30T11:03:35Z</time>
      </trkpt>
      <trkpt lat="41.4135235" lon="2.1175516">
        <ele>278.40997314</ele>
        <time>2022-10-30T11:03:36Z</time>
      </trkpt>
      <trkpt lat="41.4135365" lon="2.1176005">
        <ele>278.24996948</ele>
        <time>2022-10-30T11:03:37Z</time>
      </trkpt>
      <trkpt lat="41.4135505" lon="2.1176555">
        <ele>278.14996338</ele>
        <time>2022-10-30T11:03:38Z</time>
      </trkpt>
      <trkpt lat="41.4135594" lon="2.1177165">
        <ele>278.08996582</ele>
        <time>2022-10-30T11:03:39Z</time>
      </trkpt>
      <trkpt lat="41.4135683" lon="2.1177794">
        <ele>278.1199646</ele>
        <time>2022-10-30T11:03:40Z</time>
      </trkpt>
      <trkpt lat="41.4135802" lon="2.1178763">
        <ele>278.1199646</ele>
        <time>2022-10-30T11:03:41Z</time>
      </trkpt>
      <trkpt lat="41.4135861" lon="2.1179393">
        <ele>278.1199646</ele>
        <time>2022-10-30T11:03:42Z</time>
      </trkpt>
      <trkpt lat="41.4135931" lon="2.1180032">
        <ele>278.14996338</ele>
        <time>2022-10-30T11:03:43Z</time>
      </trkpt>
      <trkpt lat="41.413597" lon="2.1180662">
        <ele>278.1199646</ele>
        <time>2022-10-30T11:03:44Z</time>
      </trkpt>
      <trkpt lat="41.413598" lon="2.1181571">
        <ele>278.17996216</ele>
        <time>2022-10-30T11:03:45Z</time>
      </trkpt>
      <trkpt lat="41.4135921" lon="2.118216">
        <ele>278.18997192</ele>
        <time>2022-10-30T11:03:46Z</time>
      </trkpt>
      <trkpt lat="41.4135891" lon="2.118273">
        <ele>278.17996216</ele>
        <time>2022-10-30T11:03:47Z</time>
      </trkpt>
      <trkpt lat="41.4135751" lon="2.1183299">
        <ele>278.2199707</ele>
        <time>2022-10-30T11:03:48Z</time>
      </trkpt>
      <trkpt lat="41.4135472" lon="2.1184178">
        <ele>278.18997192</ele>
        <time>2022-10-30T11:03:49Z</time>
      </trkpt>
      <trkpt lat="41.4135262" lon="2.1184818">
        <ele>278.19998169</ele>
        <time>2022-10-30T11:03:50Z</time>
      </trkpt>
      <trkpt lat="41.4135102" lon="2.1185447">
        <ele>278.18997192</ele>
        <time>2022-10-30T11:03:51Z</time>
      </trkpt>
      <trkpt lat="41.4134893" lon="2.1185957">
        <ele>278.17996216</ele>
        <time>2022-10-30T11:03:52Z</time>
      </trkpt>
      <trkpt lat="41.4134733" lon="2.1186377">
        <ele>278.2199707</ele>
        <time>2022-10-30T11:03:53Z</time>
      </trkpt>
      <trkpt lat="41.4134604" lon="2.1186776">
        <ele>278.22998047</ele>
        <time>2022-10-30T11:03:54Z</time>
      </trkpt>
      <trkpt lat="41.4134144" lon="2.1187396">
        <ele>278.2199707</ele>
        <time>2022-10-30T11:03:55Z</time>
      </trkpt>
      <trkpt lat="41.4133795" lon="2.1187655">
        <ele>278.23995972</ele>
        <time>2022-10-30T11:03:56Z</time>
      </trkpt>
      <trkpt lat="41.4133375" lon="2.1187844">
        <ele>278.24996948</ele>
        <time>2022-10-30T11:03:57Z</time>
      </trkpt>
      <trkpt lat="41.4132886" lon="2.1187964">
        <ele>278.10995483</ele>
        <time>2022-10-30T11:03:58Z</time>
      </trkpt>
      <trkpt lat="41.4132216" lon="2.1187973">
        <ele>277.97994995</ele>
        <time>2022-10-30T11:03:59Z</time>
      </trkpt>
      <trkpt lat="41.4131806" lon="2.1187954">
        <ele>277.8699646</ele>
        <time>2022-10-30T11:04:00Z</time>
      </trkpt>
      <trkpt lat="41.4131347" lon="2.1187904">
        <ele>277.7699585</ele>
        <time>2022-10-30T11:04:01Z</time>
      </trkpt>
      <trkpt lat="41.4130827" lon="2.1187895">
        <ele>277.79995728</ele>
        <time>2022-10-30T11:04:02Z</time>
      </trkpt>
      <trkpt lat="41.4130118" lon="2.1187785">
        <ele>277.87994385</ele>
        <time>2022-10-30T11:04:03Z</time>
      </trkpt>
      <trkpt lat="41.4129668" lon="2.1187685">
        <ele>277.89993286</ele>
        <time>2022-10-30T11:04:04Z</time>
      </trkpt>
      <trkpt lat="41.4129218" lon="2.1187555">
        <ele>277.95993042</ele>
        <time>2022-10-30T11:04:05Z</time>
      </trkpt>
      <trkpt lat="41.4128739" lon="2.1187565">
        <ele>277.8899231</ele>
        <time>2022-10-30T11:04:06Z</time>
      </trkpt>
      <trkpt lat="41.4128329" lon="2.1187546">
        <ele>277.84991455</ele>
        <time>2022-10-30T11:04:07Z</time>
      </trkpt>
      <trkpt lat="41.412766" lon="2.1187635">
        <ele>277.77990723</ele>
        <time>2022-10-30T11:04:08Z</time>
      </trkpt>
      <trkpt lat="41.412716" lon="2.1187854">
        <ele>277.6098938</ele>
        <time>2022-10-30T11:04:09Z</time>
      </trkpt>
      <trkpt lat="41.4126701" lon="2.1188093">
        <ele>277.64990234</ele>
        <time>2022-10-30T11:04:10Z</time>
      </trkpt>
      <trkpt lat="41.4126331" lon="2.1188483">
        <ele>277.59991455</ele>
        <time>2022-10-30T11:04:11Z</time>
      </trkpt>
      <trkpt lat="41.4125942" lon="2.1189052">
        <ele>277.60992432</ele>
        <time>2022-10-30T11:04:12Z</time>
      </trkpt>
      <trkpt lat="41.4125702" lon="2.1189542">
        <ele>277.70993042</ele>
        <time>2022-10-30T11:04:13Z</time>
      </trkpt>
      <trkpt lat="41.4125443" lon="2.1189992">
        <ele>277.70993042</ele>
        <time>2022-10-30T11:04:14Z</time>
      </trkpt>
      <trkpt lat="41.4125173" lon="2.1190481">
        <ele>277.78991699</ele>
        <time>2022-10-30T11:04:15Z</time>
      </trkpt>
      <trkpt lat="41.4124994" lon="2.1191011">
        <ele>277.69992065</ele>
        <time>2022-10-30T11:04:16Z</time>
      </trkpt>
      <trkpt lat="41.4124844" lon="2.119174">
        <ele>277.53991699</ele>
        <time>2022-10-30T11:04:17Z</time>
      </trkpt>
      <trkpt lat="41.4124645" lon="2.1192329">
        <ele>277.47991943</ele>
        <time>2022-10-30T11:04:18Z</time>
      </trkpt>
      <trkpt lat="41.4124516" lon="2.1192858">
        <ele>277.47991943</ele>
        <time>2022-10-30T11:04:19Z</time>
      </trkpt>
      <trkpt lat="41.4124516" lon="2.1193378">
        <ele>277.60992432</ele>
        <time>2022-10-30T11:04:20Z</time>
      </trkpt>
      <trkpt lat="41.4124525" lon="2.1194078">
        <ele>277.67993164</ele>
        <time>2022-10-30T11:04:21Z</time>
      </trkpt>
      <trkpt lat="41.4124754" lon="2.1194908">
        <ele>277.75991821</ele>
        <time>2022-10-30T11:04:22Z</time>
      </trkpt>
      <trkpt lat="41.4124944" lon="2.1195518">
        <ele>277.64993286</ele>
        <time>2022-10-30T11:04:23Z</time>
      </trkpt>
      <trkpt lat="41.4125244" lon="2.1195887">
        <ele>277.47991943</ele>
        <time>2022-10-30T11:04:24Z</time>
      </trkpt>
      <trkpt lat="41.4125634" lon="2.1196106">
        <ele>277.45993042</ele>
        <time>2022-10-30T11:04:25Z</time>
      </trkpt>
      <trkpt lat="41.4126273" lon="2.1196366">
        <ele>277.3399353</ele>
        <time>2022-10-30T11:04:26Z</time>
      </trkpt>
      <trkpt lat="41.4126773" lon="2.1196436">
        <ele>277.27993774</ele>
        <time>2022-10-30T11:04:27Z</time>
      </trkpt>
      <trkpt lat="41.4127312" lon="2.1196465">
        <ele>277.28994751</ele>
        <time>2022-10-30T11:04:28Z</time>
      </trkpt>
      <trkpt lat="41.4127732" lon="2.1196584">
        <ele>277.20996094</ele>
        <time>2022-10-30T11:04:29Z</time>
      </trkpt>
      <trkpt lat="41.4128381" lon="2.1196693">
        <ele>277.20996094</ele>
        <time>2022-10-30T11:04:30Z</time>
      </trkpt>
      <trkpt lat="41.4128761" lon="2.1196823">
        <ele>277.23995972</ele>
        <time>2022-10-30T11:04:31Z</time>
      </trkpt>
      <trkpt lat="41.412923" lon="2.1196804">
        <ele>277.20996094</ele>
        <time>2022-10-30T11:04:32Z</time>
      </trkpt>
      <trkpt lat="41.41297" lon="2.1196785">
        <ele>277.23995972</ele>
        <time>2022-10-30T11:04:33Z</time>
      </trkpt>
      <trkpt lat="41.41302" lon="2.1196655">
        <ele>277.27996826</ele>
        <time>2022-10-30T11:04:34Z</time>
      </trkpt>
      <trkpt lat="41.4130879" lon="2.1196415">
        <ele>277.28997803</ele>
        <time>2022-10-30T11:04:35Z</time>
      </trkpt>
      <trkpt lat="41.4131299" lon="2.1196216">
        <ele>277.35998535</ele>
        <time>2022-10-30T11:04:36Z</time>
      </trkpt>
      <trkpt lat="41.4131758" lon="2.1195866">
        <ele>277.45999146</ele>
        <time>2022-10-30T11:04:37Z</time>
      </trkpt>
      <trkpt lat="41.4132188" lon="2.1195496">
        <ele>277.44000244</ele>
        <time>2022-10-30T11:04:38Z</time>
      </trkpt>
      <trkpt lat="41.4132677" lon="2.1194947">
        <ele>277.48001099</ele>
        <time>2022-10-30T11:04:39Z</time>
      </trkpt>
      <trkpt lat="41.4133007" lon="2.1194617">
        <ele>277.49002075</ele>
        <time>2022-10-30T11:04:40Z</time>
      </trkpt>
      <trkpt lat="41.4133356" lon="2.1194257">
        <ele>277.43002319</ele>
        <time>2022-10-30T11:04:41Z</time>
      </trkpt>
      <trkpt lat="41.4133686" lon="2.1194058">
        <ele>277.47003174</ele>
        <time>2022-10-30T11:04:42Z</time>
      </trkpt>
      <trkpt lat="41.4133936" lon="2.1193848">
        <ele>277.51004028</ele>
        <time>2022-10-30T11:04:43Z</time>
      </trkpt>
      <trkpt lat="41.4134296" lon="2.1193498">
        <ele>277.59002686</ele>
        <time>2022-10-30T11:04:44Z</time>
      </trkpt>
      <trkpt lat="41.4134565" lon="2.1193279">
        <ele>277.62002563</ele>
        <time>2022-10-30T11:04:45Z</time>
      </trkpt>
      <trkpt lat="41.4134865" lon="2.119307">
        <ele>277.67001343</ele>
        <time>2022-10-30T11:04:46Z</time>
      </trkpt>
      <trkpt lat="41.4135165" lon="2.11929">
        <ele>277.67001343</ele>
        <time>2022-10-30T11:04:47Z</time>
      </trkpt>
      <trkpt lat="41.4135484" lon="2.119274">
        <ele>277.67001343</ele>
        <time>2022-10-30T11:04:48Z</time>
      </trkpt>
      <trkpt lat="41.4136094" lon="2.1192591">
        <ele>277.70001221</ele>
        <time>2022-10-30T11:04:49Z</time>
      </trkpt>
      <trkpt lat="41.4136423" lon="2.1192562">
        <ele>277.71002197</ele>
        <time>2022-10-30T11:04:50Z</time>
      </trkpt>
      <trkpt lat="41.4136743" lon="2.1192482">
        <ele>277.73001099</ele>
        <time>2022-10-30T11:04:51Z</time>
      </trkpt>
      <trkpt lat="41.4137122" lon="2.1192322">
        <ele>277.69000244</ele>
        <time>2022-10-30T11:04:52Z</time>
      </trkpt>
      <trkpt lat="41.4137622" lon="2.1192183">
        <ele>277.63000488</ele>
        <time>2022-10-30T11:04:53Z</time>
      </trkpt>
      <trkpt lat="41.4137922" lon="2.1192103">
        <ele>277.54000854</ele>
        <time>2022-10-30T11:04:54Z</time>
      </trkpt>
      <trkpt lat="41.4138342" lon="2.1191864">
        <ele>277.45001221</ele>
        <time>2022-10-30T11:04:55Z</time>
      </trkpt>
      <trkpt lat="41.4138741" lon="2.1191684">
        <ele>277.45001221</ele>
        <time>2022-10-30T11:04:56Z</time>
      </trkpt>
      <trkpt lat="41.41394" lon="2.1191355">
        <ele>277.48001099</ele>
        <time>2022-10-30T11:04:57Z</time>
      </trkpt>
      <trkpt lat="41.4139829" lon="2.1191166">
        <ele>277.55999756</ele>
        <time>2022-10-30T11:04:58Z</time>
      </trkpt>
      <trkpt lat="41.4140239" lon="2.1190987">
        <ele>277.54000854</ele>
        <time>2022-10-30T11:04:59Z</time>
      </trkpt>
      <trkpt lat="41.4140608" lon="2.1190657">
        <ele>277.57000732</ele>
        <time>2022-10-30T11:05:00Z</time>
      </trkpt>
      <trkpt lat="41.4141007" lon="2.1190348">
        <ele>277.58999634</ele>
        <time>2022-10-30T11:05:01Z</time>
      </trkpt>
      <trkpt lat="41.4141527" lon="2.1189888">
        <ele>277.57000732</ele>
        <time>2022-10-30T11:05:02Z</time>
      </trkpt>
      <trkpt lat="41.4141967" lon="2.1189538">
        <ele>277.66000366</ele>
        <time>2022-10-30T11:05:03Z</time>
      </trkpt>
      <trkpt lat="41.4142246" lon="2.1189229">
        <ele>277.63000488</ele>
        <time>2022-10-30T11:05:04Z</time>
      </trkpt>
      <trkpt lat="41.4142596" lon="2.118892">
        <ele>277.6000061</ele>
        <time>2022-10-30T11:05:05Z</time>
      </trkpt>
      <trkpt lat="41.4143036" lon="2.118864">
        <ele>277.58999634</ele>
        <time>2022-10-30T11:05:06Z</time>
      </trkpt>
      <trkpt lat="41.4143555" lon="2.1188461">
        <ele>277.52999878</ele>
        <time>2022-10-30T11:05:07Z</time>
      </trkpt>
      <trkpt lat="41.4143864" lon="2.1188391">
        <ele>277.55999756</ele>
        <time>2022-10-30T11:05:08Z</time>
      </trkpt>
      <trkpt lat="41.4144314" lon="2.1188342">
        <ele>277.57000732</ele>
        <time>2022-10-30T11:05:09Z</time>
      </trkpt>
      <trkpt lat="41.4144764" lon="2.1188283">
        <ele>277.54000854</ele>
        <time>2022-10-30T11:05:10Z</time>
      </trkpt>
      <trkpt lat="41.4145494" lon="2.1188134">
        <ele>277.54000854</ele>
        <time>2022-10-30T11:05:11Z</time>
      </trkpt>
      <trkpt lat="41.4145953" lon="2.1188143">
        <ele>277.47000122</ele>
        <time>2022-10-30T11:05:12Z</time>
      </trkpt>
      <trkpt lat="41.4146303" lon="2.1188232">
        <ele>277.47000122</ele>
        <time>2022-10-30T11:05:13Z</time>
      </trkpt>
      <trkpt lat="41.4146612" lon="2.1188382">
        <ele>277.48999023</ele>
        <time>2022-10-30T11:05:14Z</time>
      </trkpt>
      <trkpt lat="41.4147331" lon="2.1188542">
        <ele>277.48999023</ele>
        <time>2022-10-30T11:05:15Z</time>
      </trkpt>
      <trkpt lat="41.4147761" lon="2.1188851">
        <ele>277.59997559</ele>
        <time>2022-10-30T11:05:16Z</time>
      </trkpt>
      <trkpt lat="41.414812" lon="2.118935">
        <ele>277.59997559</ele>
        <time>2022-10-30T11:05:17Z</time>
      </trkpt>
      <trkpt lat="41.414823" lon="2.118994">
        <ele>277.58996582</ele>
        <time>2022-10-30T11:05:18Z</time>
      </trkpt>
      <trkpt lat="41.414835" lon="2.1190519">
        <ele>277.63995361</ele>
        <time>2022-10-30T11:05:19Z</time>
      </trkpt>
      <trkpt lat="41.4148499" lon="2.1191229">
        <ele>277.55996704</ele>
        <time>2022-10-30T11:05:20Z</time>
      </trkpt>
      <trkpt lat="41.4148579" lon="2.1191758">
        <ele>277.47998047</ele>
        <time>2022-10-30T11:05:21Z</time>
      </trkpt>
      <trkpt lat="41.4148768" lon="2.1192428">
        <ele>277.49996948</ele>
        <time>2022-10-30T11:05:22Z</time>
      </trkpt>
      <trkpt lat="41.4148778" lon="2.1193057">
        <ele>277.3699646</ele>
        <time>2022-10-30T11:05:23Z</time>
      </trkpt>
      <trkpt lat="41.4148787" lon="2.1193656">
        <ele>277.19995117</ele>
        <time>2022-10-30T11:05:24Z</time>
      </trkpt>
      <trkpt lat="41.4148846" lon="2.1194406">
        <ele>277.10995483</ele>
        <time>2022-10-30T11:05:25Z</time>
      </trkpt>
      <trkpt lat="41.4148905" lon="2.1194965">
        <ele>276.96994019</ele>
        <time>2022-10-30T11:05:26Z</time>
      </trkpt>
      <trkpt lat="41.4148945" lon="2.1195504">
        <ele>276.87994385</ele>
        <time>2022-10-30T11:05:27Z</time>
      </trkpt>
      <trkpt lat="41.4149004" lon="2.1196154">
        <ele>276.8399353</ele>
        <time>2022-10-30T11:05:28Z</time>
      </trkpt>
      <trkpt lat="41.4148885" lon="2.1197033">
        <ele>276.7399292</ele>
        <time>2022-10-30T11:05:29Z</time>
      </trkpt>
      <trkpt lat="41.4148954" lon="2.1197592">
        <ele>276.72991943</ele>
        <time>2022-10-30T11:05:30Z</time>
      </trkpt>
      <trkpt lat="41.4148825" lon="2.1198202">
        <ele>276.78991699</ele>
        <time>2022-10-30T11:05:31Z</time>
      </trkpt>
      <trkpt lat="41.4148715" lon="2.1198692">
        <ele>276.8899231</ele>
        <time>2022-10-30T11:05:32Z</time>
      </trkpt>
      <trkpt lat="41.4148774" lon="2.1199251">
        <ele>277.05993652</ele>
        <time>2022-10-30T11:05:33Z</time>
      </trkpt>
      <trkpt lat="41.4148764" lon="2.1200081">
        <ele>277.10992432</ele>
        <time>2022-10-30T11:05:34Z</time>
      </trkpt>
      <trkpt lat="41.4148894" lon="2.1200561">
        <ele>277.04992676</ele>
        <time>2022-10-30T11:05:35Z</time>
      </trkpt>
      <trkpt lat="41.4149013" lon="2.1201041">
        <ele>277.12991333</ele>
        <time>2022-10-30T11:05:36Z</time>
      </trkpt>
      <trkpt lat="41.4149243" lon="2.120144">
        <ele>277.08990479</ele>
        <time>2022-10-30T11:05:37Z</time>
      </trkpt>
      <trkpt lat="41.4149852" lon="2.120187">
        <ele>277.1098938</ele>
        <time>2022-10-30T11:05:38Z</time>
      </trkpt>
      <trkpt lat="41.4150342" lon="2.1202">
        <ele>277.15988159</ele>
        <time>2022-10-30T11:05:39Z</time>
      </trkpt>
      <trkpt lat="41.4150792" lon="2.1202089">
        <ele>277.08987427</ele>
        <time>2022-10-30T11:05:40Z</time>
      </trkpt>
      <trkpt lat="41.4151141" lon="2.1201979">
        <ele>277.16986084</ele>
        <time>2022-10-30T11:05:41Z</time>
      </trkpt>
      <trkpt lat="41.415118" lon="2.120208">
        <ele>277.22000122</ele>
        <time>2022-10-30T11:05:41Z</time>
      </trkpt>
      <trkpt lat="41.4151469" lon="2.1201911">
        <ele>277.23001099</ele>
        <time>2022-10-30T11:05:42Z</time>
      </trkpt>
      <trkpt lat="41.4151889" lon="2.1201532">
        <ele>277.30999756</ele>
        <time>2022-10-30T11:05:43Z</time>
      </trkpt>
      <trkpt lat="41.4152219" lon="2.1201192">
        <ele>277.3999939</ele>
        <time>2022-10-30T11:05:44Z</time>
      </trkpt>
      <trkpt lat="41.4152588" lon="2.1200953">
        <ele>277.35998535</ele>
        <time>2022-10-30T11:05:45Z</time>
      </trkpt>
      <trkpt lat="41.4152938" lon="2.1200734">
        <ele>277.33999634</ele>
        <time>2022-10-30T11:05:46Z</time>
      </trkpt>
      <trkpt lat="41.4153497" lon="2.1200494">
        <ele>277.32998657</ele>
        <time>2022-10-30T11:05:47Z</time>
      </trkpt>
      <trkpt lat="41.4153867" lon="2.1200315">
        <ele>277.19998169</ele>
        <time>2022-10-30T11:05:48Z</time>
      </trkpt>
      <trkpt lat="41.4154296" lon="2.1200085">
        <ele>277.18997192</ele>
        <time>2022-10-30T11:05:49Z</time>
      </trkpt>
      <trkpt lat="41.4154746" lon="2.1199886">
        <ele>277.16998291</ele>
        <time>2022-10-30T11:05:50Z</time>
      </trkpt>
      <trkpt lat="41.4155246" lon="2.1199636">
        <ele>277.15997314</ele>
        <time>2022-10-30T11:05:51Z</time>
      </trkpt>
      <trkpt lat="41.4155605" lon="2.1199467">
        <ele>277.15997314</ele>
        <time>2022-10-30T11:05:52Z</time>
      </trkpt>
      <trkpt lat="41.4155945" lon="2.1199348">
        <ele>277.13998413</ele>
        <time>2022-10-30T11:05:53Z</time>
      </trkpt>
      <trkpt lat="41.4156304" lon="2.1199188">
        <ele>277.01998901</ele>
        <time>2022-10-30T11:05:54Z</time>
      </trkpt>
      <trkpt lat="41.4157004" lon="2.1198958">
        <ele>276.94998169</ele>
        <time>2022-10-30T11:05:55Z</time>
      </trkpt>
      <trkpt lat="41.4157334" lon="2.1198929">
        <ele>276.94998169</ele>
        <time>2022-10-30T11:05:56Z</time>
      </trkpt>
      <trkpt lat="41.4157573" lon="2.1198779">
        <ele>276.81997681</ele>
        <time>2022-10-30T11:05:57Z</time>
      </trkpt>
      <trkpt lat="41.4157853" lon="2.119863">
        <ele>276.85998535</ele>
        <time>2022-10-30T11:05:58Z</time>
      </trkpt>
      <trkpt lat="41.4158253" lon="2.1198581">
        <ele>276.82998657</ele>
        <time>2022-10-30T11:05:59Z</time>
      </trkpt>
      <trkpt lat="41.4158952" lon="2.1198431">
        <ele>276.79998779</ele>
        <time>2022-10-30T11:06:00Z</time>
      </trkpt>
      <trkpt lat="41.4159482" lon="2.1198402">
        <ele>276.86999512</ele>
        <time>2022-10-30T11:06:01Z</time>
      </trkpt>
      <trkpt lat="41.4159842" lon="2.1198552">
        <ele>276.88000488</ele>
        <time>2022-10-30T11:06:02Z</time>
      </trkpt>
      <trkpt lat="41.4160062" lon="2.1198751">
        <ele>276.88000488</ele>
        <time>2022-10-30T11:06:03Z</time>
      </trkpt>
      <trkpt lat="41.4160261" lon="2.1198871">
        <ele>276.94000244</ele>
        <time>2022-10-30T11:06:04Z</time>
      </trkpt>
      <trkpt lat="41.4160192" lon="2.11998">
        <ele>276.98999023</ele>
        <time>2022-10-30T11:06:05Z</time>
      </trkpt>
      <trkpt lat="41.4160681" lon="2.120066">
        <ele>276.95999146</ele>
        <time>2022-10-30T11:06:06Z</time>
      </trkpt>
      <trkpt lat="41.416074" lon="2.1201229">
        <ele>276.94000244</ele>
        <time>2022-10-30T11:06:07Z</time>
      </trkpt>
      <trkpt lat="41.4160769" lon="2.1201719">
        <ele>276.86001587</ele>
        <time>2022-10-30T11:06:08Z</time>
      </trkpt>
      <trkpt lat="41.4160839" lon="2.1202278">
        <ele>276.84002686</ele>
        <time>2022-10-30T11:06:09Z</time>
      </trkpt>
      <trkpt lat="41.4160689" lon="2.1202568">
        <ele>276.93002319</ele>
        <time>2022-10-30T11:06:10Z</time>
      </trkpt>
      <trkpt lat="41.41606" lon="2.1202698">
        <ele>277.06002808</ele>
        <time>2022-10-30T11:06:11Z</time>
      </trkpt>
      <trkpt lat="41.416041" lon="2.1203018">
        <ele>277.17001343</ele>
        <time>2022-10-30T11:06:12Z</time>
      </trkpt>
      <trkpt lat="41.4160221" lon="2.1203457">
        <ele>277.17001343</ele>
        <time>2022-10-30T11:06:13Z</time>
      </trkpt>
      <trkpt lat="41.4160111" lon="2.1203807">
        <ele>277.13000488</ele>
        <time>2022-10-30T11:06:14Z</time>
      </trkpt>
      <trkpt lat="41.4160031" lon="2.1204297">
        <ele>277.11999512</ele>
        <time>2022-10-30T11:06:15Z</time>
      </trkpt>
      <trkpt lat="41.4159961" lon="2.1204956">
        <ele>277.16998291</ele>
        <time>2022-10-30T11:06:16Z</time>
      </trkpt>
      <trkpt lat="41.4159922" lon="2.1205656">
        <ele>277.28997803</ele>
        <time>2022-10-30T11:06:17Z</time>
      </trkpt>
      <trkpt lat="41.4159782" lon="2.1206806">
        <ele>277.40997314</ele>
        <time>2022-10-30T11:06:18Z</time>
      </trkpt>
      <trkpt lat="41.4159862" lon="2.1207395">
        <ele>277.42996216</ele>
        <time>2022-10-30T11:06:19Z</time>
      </trkpt>
      <trkpt lat="41.4160061" lon="2.1207734">
        <ele>277.43997192</ele>
        <time>2022-10-30T11:06:20Z</time>
      </trkpt>
      <trkpt lat="41.4160002" lon="2.1208273">
        <ele>277.41998291</ele>
        <time>2022-10-30T11:06:21Z</time>
      </trkpt>
      <trkpt lat="41.4159892" lon="2.1208783">
        <ele>277.42999268</ele>
        <time>2022-10-30T11:06:22Z</time>
      </trkpt>
      <trkpt lat="41.4159773" lon="2.1209373">
        <ele>277.42999268</ele>
        <time>2022-10-30T11:06:23Z</time>
      </trkpt>
      <trkpt lat="41.4160042" lon="2.1209672">
        <ele>277.38000488</ele>
        <time>2022-10-30T11:06:24Z</time>
      </trkpt>
      <trkpt lat="41.4160432" lon="2.1209802">
        <ele>277.3500061</ele>
        <time>2022-10-30T11:06:25Z</time>
      </trkpt>
      <trkpt lat="41.4160842" lon="2.1209942">
        <ele>277.29000854</ele>
        <time>2022-10-30T11:06:26Z</time>
      </trkpt>
      <trkpt lat="41.4161351" lon="2.1210042">
        <ele>277.30999756</ele>
        <time>2022-10-30T11:06:27Z</time>
      </trkpt>
      <trkpt lat="41.4161631" lon="2.1210172">
        <ele>277.29000854</ele>
        <time>2022-10-30T11:06:28Z</time>
      </trkpt>
      <trkpt lat="41.416201" lon="2.1210132">
        <ele>277.24002075</ele>
        <time>2022-10-30T11:06:29Z</time>
      </trkpt>
      <trkpt lat="41.416244" lon="2.1210151">
        <ele>277.15002441</ele>
        <time>2022-10-30T11:06:30Z</time>
      </trkpt>
      <trkpt lat="41.4163039" lon="2.121018">
        <ele>277.11001587</ele>
        <time>2022-10-30T11:06:31Z</time>
      </trkpt>
      <trkpt lat="41.4163879" lon="2.12105">
        <ele>277.14001465</ele>
        <time>2022-10-30T11:06:32Z</time>
      </trkpt>
      <trkpt lat="41.4164409" lon="2.1210779">
        <ele>277.20001221</ele>
        <time>2022-10-30T11:06:33Z</time>
      </trkpt>
      <trkpt lat="41.4164948" lon="2.1211059">
        <ele>277.32000732</ele>
        <time>2022-10-30T11:06:34Z</time>
      </trkpt>
      <trkpt lat="41.4165447" lon="2.1211558">
        <ele>277.33999634</ele>
        <time>2022-10-30T11:06:35Z</time>
      </trkpt>
      <trkpt lat="41.4165957" lon="2.1212068">
        <ele>277.3500061</ele>
        <time>2022-10-30T11:06:36Z</time>
      </trkpt>
      <trkpt lat="41.4166656" lon="2.1212768">
        <ele>277.45999146</ele>
        <time>2022-10-30T11:06:37Z</time>
      </trkpt>
      <trkpt lat="41.4167106" lon="2.1213127">
        <ele>277.44998169</ele>
        <time>2022-10-30T11:06:38Z</time>
      </trkpt>
      <trkpt lat="41.4167386" lon="2.1213687">
        <ele>277.44998169</ele>
        <time>2022-10-30T11:06:39Z</time>
      </trkpt>
      <trkpt lat="41.4167656" lon="2.1214327">
        <ele>277.44998169</ele>
        <time>2022-10-30T11:06:40Z</time>
      </trkpt>
      <trkpt lat="41.4167936" lon="2.1215096">
        <ele>277.37997437</ele>
        <time>2022-10-30T11:06:41Z</time>
      </trkpt>
      <trkpt lat="41.4168076" lon="2.1215286">
        <ele>277.33996582</ele>
        <time>2022-10-30T11:06:42Z</time>
      </trkpt>
      <trkpt lat="41.4167806" lon="2.1215635">
        <ele>277.27996826</ele>
        <time>2022-10-30T11:06:43Z</time>
      </trkpt>
      <trkpt lat="41.4167416" lon="2.1215925">
        <ele>277.27996826</ele>
        <time>2022-10-30T11:06:44Z</time>
      </trkpt>
      <trkpt lat="41.4166847" lon="2.1216355">
        <ele>277.2199707</ele>
        <time>2022-10-30T11:06:45Z</time>
      </trkpt>
      <trkpt lat="41.4166528" lon="2.1216504">
        <ele>277.2699585</ele>
        <time>2022-10-30T11:06:46Z</time>
      </trkpt>
      <trkpt lat="41.4166208" lon="2.1216894">
        <ele>277.33996582</ele>
        <time>2022-10-30T11:06:47Z</time>
      </trkpt>
      <trkpt lat="41.4166019" lon="2.1217244">
        <ele>277.3699646</ele>
        <time>2022-10-30T11:06:48Z</time>
      </trkpt>
      <trkpt lat="41.4165589" lon="2.1217234">
        <ele>277.48995972</ele>
        <time>2022-10-30T11:06:49Z</time>
      </trkpt>
      <trkpt lat="41.416495" lon="2.1217293">
        <ele>277.53994751</ele>
        <time>2022-10-30T11:06:50Z</time>
      </trkpt>
      <trkpt lat="41.416451" lon="2.1217412">
        <ele>277.62994385</ele>
        <time>2022-10-30T11:06:51Z</time>
      </trkpt>
      <trkpt lat="41.416415" lon="2.1217432">
        <ele>277.63995361</ele>
        <time>2022-10-30T11:06:52Z</time>
      </trkpt>
      <trkpt lat="41.4163771" lon="2.1217502">
        <ele>277.6199646</ele>
        <time>2022-10-30T11:06:53Z</time>
      </trkpt>
      <trkpt lat="41.4163191" lon="2.1217852">
        <ele>277.54995728</ele>
        <time>2022-10-30T11:06:54Z</time>
      </trkpt>
      <trkpt lat="41.4162792" lon="2.1218151">
        <ele>277.40994263</ele>
        <time>2022-10-30T11:06:55Z</time>
      </trkpt>
      <trkpt lat="41.4162363" lon="2.121846">
        <ele>277.30993652</ele>
        <time>2022-10-30T11:06:56Z</time>
      </trkpt>
      <trkpt lat="41.4162033" lon="2.121873">
        <ele>277.19995117</ele>
        <time>2022-10-30T11:06:57Z</time>
      </trkpt>
      <trkpt lat="41.4161574" lon="2.121915">
        <ele>277.22994995</ele>
        <time>2022-10-30T11:06:58Z</time>
      </trkpt>
      <trkpt lat="41.4161174" lon="2.1219719">
        <ele>277.30993652</ele>
        <time>2022-10-30T11:06:59Z</time>
      </trkpt>
      <trkpt lat="41.4161115" lon="2.1220128">
        <ele>277.36993408</ele>
        <time>2022-10-30T11:07:00Z</time>
      </trkpt>
      <trkpt lat="41.4160975" lon="2.1220578">
        <ele>277.39993286</ele>
        <time>2022-10-30T11:07:01Z</time>
      </trkpt>
      <trkpt lat="41.4160786" lon="2.1220997">
        <ele>277.27993774</ele>
        <time>2022-10-30T11:07:02Z</time>
      </trkpt>
      <trkpt lat="41.4160366" lon="2.1221597">
        <ele>277.10992432</ele>
        <time>2022-10-30T11:07:03Z</time>
      </trkpt>
      <trkpt lat="41.4160057" lon="2.1222126">
        <ele>276.93991089</ele>
        <time>2022-10-30T11:07:04Z</time>
      </trkpt>
      <trkpt lat="41.4159677" lon="2.1222345">
        <ele>276.73989868</ele>
        <time>2022-10-30T11:07:05Z</time>
      </trkpt>
      <trkpt lat="41.4159298" lon="2.1222404">
        <ele>276.64990234</ele>
        <time>2022-10-30T11:07:06Z</time>
      </trkpt>
      <trkpt lat="41.4158758" lon="2.1222414">
        <ele>276.61990356</ele>
        <time>2022-10-30T11:07:07Z</time>
      </trkpt>
      <trkpt lat="41.4158319" lon="2.1222443">
        <ele>276.64990234</ele>
        <time>2022-10-30T11:07:08Z</time>
      </trkpt>
      <trkpt lat="41.4157889" lon="2.1222373">
        <ele>276.7598877</ele>
        <time>2022-10-30T11:07:09Z</time>
      </trkpt>
      <trkpt lat="41.415759" lon="2.1222243">
        <ele>276.83987427</ele>
        <time>2022-10-30T11:07:10Z</time>
      </trkpt>
      <trkpt lat="41.415727" lon="2.1222124">
        <ele>276.86987305</ele>
        <time>2022-10-30T11:07:11Z</time>
      </trkpt>
      <trkpt lat="41.4156771" lon="2.1222273">
        <ele>276.87988281</ele>
        <time>2022-10-30T11:07:12Z</time>
      </trkpt>
      <trkpt lat="41.4156491" lon="2.1222462">
        <ele>276.90988159</ele>
        <time>2022-10-30T11:07:13Z</time>
      </trkpt>
      <trkpt lat="41.4156152" lon="2.1222762">
        <ele>276.90988159</ele>
        <time>2022-10-30T11:07:14Z</time>
      </trkpt>
      <trkpt lat="41.4155892" lon="2.1222862">
        <ele>276.89987183</ele>
        <time>2022-10-30T11:07:15Z</time>
      </trkpt>
      <trkpt lat="41.4155543" lon="2.1223001">
        <ele>276.91986084</ele>
        <time>2022-10-30T11:07:16Z</time>
      </trkpt>
      <trkpt lat="41.4154914" lon="2.1223241">
        <ele>276.93984985</ele>
        <time>2022-10-30T11:07:17Z</time>
      </trkpt>
      <trkpt lat="41.4154544" lon="2.122325">
        <ele>276.91986084</ele>
        <time>2022-10-30T11:07:18Z</time>
      </trkpt>
      <trkpt lat="41.4154075" lon="2.1223211">
        <ele>276.9798584</ele>
        <time>2022-10-30T11:07:19Z</time>
      </trkpt>
      <trkpt lat="41.4153605" lon="2.1223111">
        <ele>276.9798584</ele>
        <time>2022-10-30T11:07:20Z</time>
      </trkpt>
      <trkpt lat="41.4152995" lon="2.1223082">
        <ele>276.93984985</ele>
        <time>2022-10-30T11:07:21Z</time>
      </trkpt>
      <trkpt lat="41.4152526" lon="2.1223082">
        <ele>276.95983887</ele>
        <time>2022-10-30T11:07:22Z</time>
      </trkpt>
      <trkpt lat="41.4152017" lon="2.1223111">
        <ele>276.93984985</ele>
        <time>2022-10-30T11:07:23Z</time>
      </trkpt>
      <trkpt lat="41.4151627" lon="2.1222981">
        <ele>276.95983887</ele>
        <time>2022-10-30T11:07:24Z</time>
      </trkpt>
      <trkpt lat="41.4151237" lon="2.1223021">
        <ele>276.93984985</ele>
        <time>2022-10-30T11:07:25Z</time>
      </trkpt>
      <trkpt lat="41.4150868" lon="2.122327">
        <ele>276.93984985</ele>
        <time>2022-10-30T11:07:26Z</time>
      </trkpt>
      <trkpt lat="41.4150768" lon="2.122362">
        <ele>276.95983887</ele>
        <time>2022-10-30T11:07:27Z</time>
      </trkpt>
      <trkpt lat="41.4150718" lon="2.1224179">
        <ele>276.89984131</ele>
        <time>2022-10-30T11:07:28Z</time>
      </trkpt>
      <trkpt lat="41.4150848" lon="2.1224708">
        <ele>276.84985352</ele>
        <time>2022-10-30T11:07:29Z</time>
      </trkpt>
      <trkpt lat="41.4151277" lon="2.1225388">
        <ele>276.80984497</ele>
        <time>2022-10-30T11:07:30Z</time>
      </trkpt>
      <trkpt lat="41.4151597" lon="2.1225718">
        <ele>276.74984741</ele>
        <time>2022-10-30T11:07:31Z</time>
      </trkpt>
      <trkpt lat="41.4151896" lon="2.1226187">
        <ele>276.74984741</ele>
        <time>2022-10-30T11:07:32Z</time>
      </trkpt>
      <trkpt lat="41.4152136" lon="2.1226697">
        <ele>276.74984741</ele>
        <time>2022-10-30T11:07:33Z</time>
      </trkpt>
      <trkpt lat="41.4152365" lon="2.1227096">
        <ele>276.76983643</ele>
        <time>2022-10-30T11:07:34Z</time>
      </trkpt>
      <trkpt lat="41.4152704" lon="2.1227846">
        <ele>276.75982666</ele>
        <time>2022-10-30T11:07:35Z</time>
      </trkpt>
      <trkpt lat="41.4152883" lon="2.1228335">
        <ele>276.68981934</ele>
        <time>2022-10-30T11:07:36Z</time>
      </trkpt>
      <trkpt lat="41.4152983" lon="2.1228815">
        <ele>276.70980835</ele>
        <time>2022-10-30T11:07:37Z</time>
      </trkpt>
      <trkpt lat="41.4153012" lon="2.1229474">
        <ele>276.69979858</ele>
        <time>2022-10-30T11:07:38Z</time>
      </trkpt>
      <trkpt lat="41.4153012" lon="2.1230043">
        <ele>276.74978638</ele>
        <time>2022-10-30T11:07:39Z</time>
      </trkpt>
      <trkpt lat="41.4152992" lon="2.1230623">
        <ele>276.84979248</ele>
        <time>2022-10-30T11:07:40Z</time>
      </trkpt>
      <trkpt lat="41.4152893" lon="2.1230983">
        <ele>276.84979248</ele>
        <time>2022-10-30T11:07:41Z</time>
      </trkpt>
      <trkpt lat="41.4152733" lon="2.1231212">
        <ele>276.84979248</ele>
        <time>2022-10-30T11:07:42Z</time>
      </trkpt>
      <trkpt lat="41.4152474" lon="2.1231432">
        <ele>276.82980347</ele>
        <time>2022-10-30T11:07:43Z</time>
      </trkpt>
      <trkpt lat="41.4151984" lon="2.1231771">
        <ele>276.8197937</ele>
        <time>2022-10-30T11:07:44Z</time>
      </trkpt>
      <trkpt lat="41.4151635" lon="2.123202">
        <ele>276.80978394</ele>
        <time>2022-10-30T11:07:45Z</time>
      </trkpt>
      <trkpt lat="41.4151286" lon="2.1232169">
        <ele>276.79977417</ele>
        <time>2022-10-30T11:07:46Z</time>
      </trkpt>
      <trkpt lat="41.4151026" lon="2.1232379">
        <ele>276.85977173</ele>
        <time>2022-10-30T11:07:47Z</time>
      </trkpt>
      <trkpt lat="41.4150787" lon="2.1232518">
        <ele>276.91976929</ele>
        <time>2022-10-30T11:07:48Z</time>
      </trkpt>
      <trkpt lat="41.4150407" lon="2.1232827">
        <ele>276.99975586</ele>
        <time>2022-10-30T11:07:49Z</time>
      </trkpt>
      <trkpt lat="41.4150058" lon="2.1233097">
        <ele>277.05975342</ele>
        <time>2022-10-30T11:07:50Z</time>
      </trkpt>
      <trkpt lat="41.4149678" lon="2.1233297">
        <ele>277.04974365</ele>
        <time>2022-10-30T11:07:51Z</time>
      </trkpt>
      <trkpt lat="41.4149289" lon="2.1233297">
        <ele>277.03973389</ele>
        <time>2022-10-30T11:07:52Z</time>
      </trkpt>
      <trkpt lat="41.4148689" lon="2.1233306">
        <ele>277.03973389</ele>
        <time>2022-10-30T11:07:53Z</time>
      </trkpt>
      <trkpt lat="41.414828" lon="2.1233316">
        <ele>277.0597229</ele>
        <time>2022-10-30T11:07:54Z</time>
      </trkpt>
      <trkpt lat="41.414787" lon="2.1233306">
        <ele>276.97973633</ele>
        <time>2022-10-30T11:07:55Z</time>
      </trkpt>
      <trkpt lat="41.41474" lon="2.1233335">
        <ele>277.01974487</ele>
        <time>2022-10-30T11:07:56Z</time>
      </trkpt>
      <trkpt lat="41.4146961" lon="2.1233425">
        <ele>277.01974487</ele>
        <time>2022-10-30T11:07:57Z</time>
      </trkpt>
      <trkpt lat="41.4146452" lon="2.1233464">
        <ele>276.99975586</ele>
        <time>2022-10-30T11:07:58Z</time>
      </trkpt>
      <trkpt lat="41.4146192" lon="2.1233425">
        <ele>277.09976196</ele>
        <time>2022-10-30T11:07:59Z</time>
      </trkpt>
      <trkpt lat="41.4145963" lon="2.1233444">
        <ele>277.10977173</ele>
        <time>2022-10-30T11:08:00Z</time>
      </trkpt>
      <trkpt lat="41.4145683" lon="2.1233493">
        <ele>277.14978027</ele>
        <time>2022-10-30T11:08:01Z</time>
      </trkpt>
      <trkpt lat="41.4145194" lon="2.1233324">
        <ele>277.05978394</ele>
        <time>2022-10-30T11:08:02Z</time>
      </trkpt>
      <trkpt lat="41.4144944" lon="2.1233094">
        <ele>276.99978638</ele>
        <time>2022-10-30T11:08:03Z</time>
      </trkpt>
      <trkpt lat="41.4144685" lon="2.1232905">
        <ele>276.98977661</ele>
        <time>2022-10-30T11:08:04Z</time>
      </trkpt>
      <trkpt lat="41.4144346" lon="2.1232726">
        <ele>276.9697876</ele>
        <time>2022-10-30T11:08:05Z</time>
      </trkpt>
      <trkpt lat="41.4143686" lon="2.1232596">
        <ele>277.11978149</ele>
        <time>2022-10-30T11:08:06Z</time>
      </trkpt>
      <trkpt lat="41.4143326" lon="2.1232516">
        <ele>277.15979004</ele>
        <time>2022-10-30T11:08:07Z</time>
      </trkpt>
      <trkpt lat="41.4142927" lon="2.1232416">
        <ele>277.11978149</ele>
        <time>2022-10-30T11:08:08Z</time>
      </trkpt>
      <trkpt lat="41.4142528" lon="2.1232337">
        <ele>277.08978271</ele>
        <time>2022-10-30T11:08:09Z</time>
      </trkpt>
      <trkpt lat="41.4142189" lon="2.1232257">
        <ele>277.04977417</ele>
        <time>2022-10-30T11:08:10Z</time>
      </trkpt>
      <trkpt lat="41.414162" lon="2.1232068">
        <ele>277.08978271</ele>
        <time>2022-10-30T11:08:11Z</time>
      </trkpt>
      <trkpt lat="41.4141281" lon="2.1231979">
        <ele>277.13977051</ele>
        <time>2022-10-30T11:08:12Z</time>
      </trkpt>
      <trkpt lat="41.4140941" lon="2.1231999">
        <ele>277.15975952</ele>
        <time>2022-10-30T11:08:13Z</time>
      </trkpt>
      <trkpt lat="41.4140612" lon="2.1232148">
        <ele>277.16976929</ele>
        <time>2022-10-30T11:08:14Z</time>
      </trkpt>
      <trkpt lat="41.4140073" lon="2.1232387">
        <ele>277.06976318</ele>
        <time>2022-10-30T11:08:15Z</time>
      </trkpt>
      <trkpt lat="41.4139673" lon="2.1232576">
        <ele>277.02975464</ele>
        <time>2022-10-30T11:08:16Z</time>
      </trkpt>
      <trkpt lat="41.4139304" lon="2.1232866">
        <ele>276.96975708</ele>
        <time>2022-10-30T11:08:17Z</time>
      </trkpt>
      <trkpt lat="41.4138974" lon="2.1233136">
        <ele>276.89974976</ele>
        <time>2022-10-30T11:08:18Z</time>
      </trkpt>
      <trkpt lat="41.4138725" lon="2.1233375">
        <ele>276.88973999</ele>
        <time>2022-10-30T11:08:19Z</time>
      </trkpt>
      <trkpt lat="41.4138285" lon="2.1233895">
        <ele>276.8397522</ele>
        <time>2022-10-30T11:08:20Z</time>
      </trkpt>
      <trkpt lat="41.4138045" lon="2.1234215">
        <ele>276.82974243</ele>
        <time>2022-10-30T11:08:21Z</time>
      </trkpt>
      <trkpt lat="41.4137736" lon="2.1234624">
        <ele>276.79974365</ele>
        <time>2022-10-30T11:08:22Z</time>
      </trkpt>
      <trkpt lat="41.4137497" lon="2.1235014">
        <ele>276.79974365</ele>
        <time>2022-10-30T11:08:23Z</time>
      </trkpt>
      <trkpt lat="41.4137178" lon="2.1235683">
        <ele>276.76974487</ele>
        <time>2022-10-30T11:08:24Z</time>
      </trkpt>
      <trkpt lat="41.4137028" lon="2.1236163">
        <ele>276.77975464</ele>
        <time>2022-10-30T11:08:25Z</time>
      </trkpt>
      <trkpt lat="41.4136869" lon="2.1236633">
        <ele>276.77975464</ele>
        <time>2022-10-30T11:08:26Z</time>
      </trkpt>
      <trkpt lat="41.4136759" lon="2.1237072">
        <ele>276.80975342</ele>
        <time>2022-10-30T11:08:27Z</time>
      </trkpt>
      <trkpt lat="41.4136709" lon="2.1237392">
        <ele>276.8397522</ele>
        <time>2022-10-30T11:08:28Z</time>
      </trkpt>
      <trkpt lat="41.4136659" lon="2.1238011">
        <ele>276.80975342</ele>
        <time>2022-10-30T11:08:29Z</time>
      </trkpt>
      <trkpt lat="41.4136639" lon="2.1238441">
        <ele>276.84976196</ele>
        <time>2022-10-30T11:08:30Z</time>
      </trkpt>
      <trkpt lat="41.4136698" lon="2.123885">
        <ele>276.84976196</ele>
        <time>2022-10-30T11:08:31Z</time>
      </trkpt>
      <trkpt lat="41.4136649" lon="2.1239339">
        <ele>276.84976196</ele>
        <time>2022-10-30T11:08:32Z</time>
      </trkpt>
      <trkpt lat="41.413659" lon="2.1239949">
        <ele>276.84976196</ele>
        <time>2022-10-30T11:08:33Z</time>
      </trkpt>
      <trkpt lat="41.41365" lon="2.1240209">
        <ele>276.79977417</ele>
        <time>2022-10-30T11:08:34Z</time>
      </trkpt>
      <trkpt lat="41.4136461" lon="2.1240499">
        <ele>276.72976685</ele>
        <time>2022-10-30T11:08:35Z</time>
      </trkpt>
      <trkpt lat="41.413647" lon="2.1240798">
        <ele>276.70977783</ele>
        <time>2022-10-30T11:08:36Z</time>
      </trkpt>
      <trkpt lat="41.4136529" lon="2.1241128">
        <ele>276.70977783</ele>
        <time>2022-10-30T11:08:37Z</time>
      </trkpt>
      <trkpt lat="41.4136669" lon="2.1241708">
        <ele>276.74978638</ele>
        <time>2022-10-30T11:08:38Z</time>
      </trkpt>
      <trkpt lat="41.4136749" lon="2.1242087">
        <ele>276.78979492</ele>
        <time>2022-10-30T11:08:39Z</time>
      </trkpt>
      <trkpt lat="41.4136939" lon="2.1242446">
        <ele>276.82980347</ele>
        <time>2022-10-30T11:08:40Z</time>
      </trkpt>
      <trkpt lat="41.4137118" lon="2.1242806">
        <ele>276.82980347</ele>
        <time>2022-10-30T11:08:41Z</time>
      </trkpt>
      <trkpt lat="41.4137368" lon="2.1243405">
        <ele>276.8197937</ele>
        <time>2022-10-30T11:08:42Z</time>
      </trkpt>
      <trkpt lat="41.4137558" lon="2.1243755">
        <ele>276.83978271</ele>
        <time>2022-10-30T11:08:43Z</time>
      </trkpt>
      <trkpt lat="41.4137757" lon="2.1244134">
        <ele>276.84979248</ele>
        <time>2022-10-30T11:08:44Z</time>
      </trkpt>
      <trkpt lat="41.4137986" lon="2.1244504">
        <ele>276.84979248</ele>
        <time>2022-10-30T11:08:45Z</time>
      </trkpt>
      <trkpt lat="41.4138215" lon="2.1244913">
        <ele>276.90979004</ele>
        <time>2022-10-30T11:08:46Z</time>
      </trkpt>
      <trkpt lat="41.4138455" lon="2.1245482">
        <ele>276.95977783</ele>
        <time>2022-10-30T11:08:47Z</time>
      </trkpt>
      <trkpt lat="41.4138624" lon="2.1245891">
        <ele>276.98977661</ele>
        <time>2022-10-30T11:08:48Z</time>
      </trkpt>
      <trkpt lat="41.4138754" lon="2.1246371">
        <ele>277.01977539</ele>
        <time>2022-10-30T11:08:49Z</time>
      </trkpt>
      <trkpt lat="41.4138943" lon="2.124678">
        <ele>277.04977417</ele>
        <time>2022-10-30T11:08:50Z</time>
      </trkpt>
      <trkpt lat="41.4139112" lon="2.1247209">
        <ele>277.0397644</ele>
        <time>2022-10-30T11:08:51Z</time>
      </trkpt>
      <trkpt lat="41.4139302" lon="2.1247859">
        <ele>276.99975586</ele>
        <time>2022-10-30T11:08:52Z</time>
      </trkpt>
      <trkpt lat="41.4139331" lon="2.1248249">
        <ele>277.02975464</ele>
        <time>2022-10-30T11:08:53Z</time>
      </trkpt>
      <trkpt lat="41.4139351" lon="2.1248698">
        <ele>277.02975464</ele>
        <time>2022-10-30T11:08:54Z</time>
      </trkpt>
      <trkpt lat="41.4139431" lon="2.1249107">
        <ele>277.04974365</ele>
        <time>2022-10-30T11:08:55Z</time>
      </trkpt>
      <trkpt lat="41.413949" lon="2.1249807">
        <ele>277.12973022</ele>
        <time>2022-10-30T11:08:56Z</time>
      </trkpt>
      <trkpt lat="41.413954" lon="2.1250297">
        <ele>277.14971924</ele>
        <time>2022-10-30T11:08:57Z</time>
      </trkpt>
      <trkpt lat="41.413953" lon="2.1250747">
        <ele>277.11972046</ele>
        <time>2022-10-30T11:08:58Z</time>
      </trkpt>
      <trkpt lat="41.413954" lon="2.1251156">
        <ele>277.12973022</ele>
        <time>2022-10-30T11:08:59Z</time>
      </trkpt>
      <trkpt lat="41.413944" lon="2.1251836">
        <ele>277.18972778</ele>
        <time>2022-10-30T11:09:00Z</time>
      </trkpt>
      <trkpt lat="41.4139431" lon="2.1252255">
        <ele>277.22973633</ele>
        <time>2022-10-30T11:09:01Z</time>
      </trkpt>
      <trkpt lat="41.4139511" lon="2.1252615">
        <ele>277.27972412</ele>
        <time>2022-10-30T11:09:02Z</time>
      </trkpt>
      <trkpt lat="41.413956" lon="2.1252905">
        <ele>277.28973389</ele>
        <time>2022-10-30T11:09:03Z</time>
      </trkpt>
      <trkpt lat="41.41397" lon="2.1253204">
        <ele>277.28973389</ele>
        <time>2022-10-30T11:09:04Z</time>
      </trkpt>
      <trkpt lat="41.413978" lon="2.1253624">
        <ele>277.34973145</ele>
        <time>2022-10-30T11:09:05Z</time>
      </trkpt>
      <trkpt lat="41.413983" lon="2.1253873">
        <ele>277.409729</ele>
        <time>2022-10-30T11:09:06Z</time>
      </trkpt>
      <trkpt lat="41.4139859" lon="2.1254092">
        <ele>277.50973511</ele>
        <time>2022-10-30T11:09:07Z</time>
      </trkpt>
      <trkpt lat="41.4139909" lon="2.1254352">
        <ele>277.54974365</ele>
        <time>2022-10-30T11:09:08Z</time>
      </trkpt>
      <trkpt lat="41.413988" lon="2.1254691">
        <ele>277.54974365</ele>
        <time>2022-10-30T11:09:09Z</time>
      </trkpt>
      <trkpt lat="41.4139821" lon="2.1255161">
        <ele>277.56973267</ele>
        <time>2022-10-30T11:09:10Z</time>
      </trkpt>
      <trkpt lat="41.413985" lon="2.12554">
        <ele>277.50973511</ele>
        <time>2022-10-30T11:09:11Z</time>
      </trkpt>
      <trkpt lat="41.413983" lon="2.125551">
        <ele>277.409729</ele>
        <time>2022-10-30T11:09:12Z</time>
      </trkpt>
      <trkpt lat="41.4139791" lon="2.1255481">
        <ele>277.26971436</ele>
        <time>2022-10-30T11:09:13Z</time>
      </trkpt>
      <trkpt lat="41.413977" lon="2.125554">
        <ele>277.23999023</ele>
        <time>2022-10-30T11:09:13Z</time>
      </trkpt>
      <trkpt lat="41.4139859" lon="2.1255709">
        <ele>276.98999023</ele>
        <time>2022-10-30T11:10:02Z</time>
      </trkpt>
      <trkpt lat="41.4140019" lon="2.12557">
        <ele>277.08999634</ele>
        <time>2022-10-30T11:10:03Z</time>
      </trkpt>
      <trkpt lat="41.4140238" lon="2.125563">
        <ele>277.1000061</ele>
        <time>2022-10-30T11:10:04Z</time>
      </trkpt>
      <trkpt lat="41.4140437" lon="2.125556">
        <ele>277.08999634</ele>
        <time>2022-10-30T11:10:05Z</time>
      </trkpt>
      <trkpt lat="41.4140657" lon="2.125545">
        <ele>277.1000061</ele>
        <time>2022-10-30T11:10:06Z</time>
      </trkpt>
      <trkpt lat="41.4140907" lon="2.125529">
        <ele>276.99002075</ele>
        <time>2022-10-30T11:10:07Z</time>
      </trkpt>
      <trkpt lat="41.4141407" lon="2.1255101">
        <ele>276.92001343</ele>
        <time>2022-10-30T11:10:08Z</time>
      </trkpt>
      <trkpt lat="41.4141666" lon="2.1255072">
        <ele>276.80001831</ele>
        <time>2022-10-30T11:10:09Z</time>
      </trkpt>
      <trkpt lat="41.4141895" lon="2.1254973">
        <ele>276.74002075</ele>
        <time>2022-10-30T11:10:10Z</time>
      </trkpt>
      <trkpt lat="41.4142155" lon="2.1254683">
        <ele>276.79000854</ele>
        <time>2022-10-30T11:10:11Z</time>
      </trkpt>
      <trkpt lat="41.4142464" lon="2.1254353">
        <ele>276.79000854</ele>
        <time>2022-10-30T11:10:12Z</time>
      </trkpt>
      <trkpt lat="41.4142963" lon="2.1254014">
        <ele>276.80999756</ele>
        <time>2022-10-30T11:10:13Z</time>
      </trkpt>
      <trkpt lat="41.4143272" lon="2.1253904">
        <ele>276.8500061</ele>
        <time>2022-10-30T11:10:14Z</time>
      </trkpt>
      <trkpt lat="41.4143622" lon="2.1253715">
        <ele>276.8500061</ele>
        <time>2022-10-30T11:10:15Z</time>
      </trkpt>
      <trkpt lat="41.4143961" lon="2.1253536">
        <ele>276.86001587</ele>
        <time>2022-10-30T11:10:16Z</time>
      </trkpt>
      <trkpt lat="41.4144491" lon="2.1253387">
        <ele>276.89001465</ele>
        <time>2022-10-30T11:10:17Z</time>
      </trkpt>
      <trkpt lat="41.414485" lon="2.1253317">
        <ele>276.89001465</ele>
        <time>2022-10-30T11:10:18Z</time>
      </trkpt>
      <trkpt lat="41.414526" lon="2.1253117">
        <ele>276.91000366</ele>
        <time>2022-10-30T11:10:19Z</time>
      </trkpt>
      <trkpt lat="41.414567" lon="2.1252868">
        <ele>276.98999023</ele>
        <time>2022-10-30T11:10:20Z</time>
      </trkpt>
      <trkpt lat="41.4146239" lon="2.1252478">
        <ele>277.02999878</ele>
        <time>2022-10-30T11:10:21Z</time>
      </trkpt>
      <trkpt lat="41.4146698" lon="2.1252259">
        <ele>277.04000854</ele>
        <time>2022-10-30T11:10:22Z</time>
      </trkpt>
      <trkpt lat="41.4147138" lon="2.125208">
        <ele>277.02001953</ele>
        <time>2022-10-30T11:10:23Z</time>
      </trkpt>
      <trkpt lat="41.4147528" lon="2.125192">
        <ele>276.95001221</ele>
        <time>2022-10-30T11:10:24Z</time>
      </trkpt>
      <trkpt lat="41.4147918" lon="2.1251801">
        <ele>276.94000244</ele>
        <time>2022-10-30T11:10:25Z</time>
      </trkpt>
      <trkpt lat="41.4148387" lon="2.1251691">
        <ele>277</ele>
        <time>2022-10-30T11:10:26Z</time>
      </trkpt>
      <trkpt lat="41.4148786" lon="2.1251542">
        <ele>277.04000854</ele>
        <time>2022-10-30T11:10:27Z</time>
      </trkpt>
      <trkpt lat="41.4149166" lon="2.1251423">
        <ele>277.07000732</ele>
        <time>2022-10-30T11:10:28Z</time>
      </trkpt>
      <trkpt lat="41.4149705" lon="2.1251234">
        <ele>277.02999878</ele>
        <time>2022-10-30T11:10:29Z</time>
      </trkpt>
      <trkpt lat="41.4150044" lon="2.1251584">
        <ele>277.04000854</ele>
        <time>2022-10-30T11:10:30Z</time>
      </trkpt>
      <trkpt lat="41.4150303" lon="2.1251904">
        <ele>277.1000061</ele>
        <time>2022-10-30T11:10:31Z</time>
      </trkpt>
      <trkpt lat="41.4150623" lon="2.1252183">
        <ele>277.1000061</ele>
        <time>2022-10-30T11:10:32Z</time>
      </trkpt>
      <trkpt lat="41.4151073" lon="2.1252432">
        <ele>277.14001465</ele>
        <time>2022-10-30T11:10:33Z</time>
      </trkpt>
      <trkpt lat="41.4151422" lon="2.1252662">
        <ele>277.12002563</ele>
        <time>2022-10-30T11:10:34Z</time>
      </trkpt>
      <trkpt lat="41.4152092" lon="2.1252841">
        <ele>277.01004028</ele>
        <time>2022-10-30T11:10:35Z</time>
      </trkpt>
      <trkpt lat="41.4152431" lon="2.1252981">
        <ele>277.05004883</ele>
        <time>2022-10-30T11:10:36Z</time>
      </trkpt>
      <trkpt lat="41.415272" lon="2.125317">
        <ele>276.90005493</ele>
        <time>2022-10-30T11:10:37Z</time>
      </trkpt>
      <trkpt lat="41.415308" lon="2.125333">
        <ele>276.84005737</ele>
        <time>2022-10-30T11:10:38Z</time>
      </trkpt>
      <trkpt lat="41.4153729" lon="2.1253489">
        <ele>276.74005127</ele>
        <time>2022-10-30T11:10:39Z</time>
      </trkpt>
      <trkpt lat="41.4154139" lon="2.1253719">
        <ele>276.52005005</ele>
        <time>2022-10-30T11:10:40Z</time>
      </trkpt>
      <trkpt lat="41.4154409" lon="2.1254039">
        <ele>276.58004761</ele>
        <time>2022-10-30T11:10:41Z</time>
      </trkpt>
      <trkpt lat="41.4154768" lon="2.1254199">
        <ele>276.57003784</ele>
        <time>2022-10-30T11:10:42Z</time>
      </trkpt>
      <trkpt lat="41.4155038" lon="2.1254418">
        <ele>276.67004395</ele>
        <time>2022-10-30T11:10:43Z</time>
      </trkpt>
      <trkpt lat="41.4155467" lon="2.1254978">
        <ele>276.90005493</ele>
        <time>2022-10-30T11:10:44Z</time>
      </trkpt>
      <trkpt lat="41.4155607" lon="2.1255497">
        <ele>276.9800415</ele>
        <time>2022-10-30T11:10:45Z</time>
      </trkpt>
      <trkpt lat="41.4155797" lon="2.1255947">
        <ele>277.10003662</ele>
        <time>2022-10-30T11:10:46Z</time>
      </trkpt>
      <trkpt lat="41.4155946" lon="2.1256437">
        <ele>277.1300354</ele>
        <time>2022-10-30T11:10:47Z</time>
      </trkpt>
      <trkpt lat="41.4156156" lon="2.1256976">
        <ele>277.0300293</ele>
        <time>2022-10-30T11:10:48Z</time>
      </trkpt>
      <trkpt lat="41.4156606" lon="2.1257765">
        <ele>277.02001953</ele>
        <time>2022-10-30T11:10:49Z</time>
      </trkpt>
      <trkpt lat="41.4156935" lon="2.1258304">
        <ele>276.92001343</ele>
        <time>2022-10-30T11:10:50Z</time>
      </trkpt>
      <trkpt lat="41.4157225" lon="2.1258923">
        <ele>276.92001343</ele>
        <time>2022-10-30T11:10:51Z</time>
      </trkpt>
      <trkpt lat="41.4157434" lon="2.1259582">
        <ele>277.04000854</ele>
        <time>2022-10-30T11:10:52Z</time>
      </trkpt>
      <trkpt lat="41.4157644" lon="2.1260612">
        <ele>277.04000854</ele>
        <time>2022-10-30T11:10:53Z</time>
      </trkpt>
      <trkpt lat="41.4157833" lon="2.1261241">
        <ele>277.04000854</ele>
        <time>2022-10-30T11:10:54Z</time>
      </trkpt>
      <trkpt lat="41.4158043" lon="2.126181">
        <ele>277.04000854</ele>
        <time>2022-10-30T11:10:55Z</time>
      </trkpt>
      <trkpt lat="41.4158323" lon="2.12623">
        <ele>276.86999512</ele>
        <time>2022-10-30T11:10:56Z</time>
      </trkpt>
      <trkpt lat="41.4158883" lon="2.1263089">
        <ele>276.76000977</ele>
        <time>2022-10-30T11:10:57Z</time>
      </trkpt>
      <trkpt lat="41.4159232" lon="2.1263468">
        <ele>276.68002319</ele>
        <time>2022-10-30T11:10:58Z</time>
      </trkpt>
      <trkpt lat="41.4159722" lon="2.1263728">
        <ele>276.5300293</ele>
        <time>2022-10-30T11:10:59Z</time>
      </trkpt>
      <trkpt lat="41.4160241" lon="2.1263967">
        <ele>276.56002808</ele>
        <time>2022-10-30T11:11:00Z</time>
      </trkpt>
      <trkpt lat="41.4160651" lon="2.1264317">
        <ele>276.59002686</ele>
        <time>2022-10-30T11:11:01Z</time>
      </trkpt>
      <trkpt lat="41.41613" lon="2.1264707">
        <ele>276.57003784</ele>
        <time>2022-10-30T11:11:02Z</time>
      </trkpt>
      <trkpt lat="41.416175" lon="2.1264916">
        <ele>276.61004639</ele>
        <time>2022-10-30T11:11:03Z</time>
      </trkpt>
      <trkpt lat="41.416217" lon="2.1265105">
        <ele>276.65005493</ele>
        <time>2022-10-30T11:11:04Z</time>
      </trkpt>
      <trkpt lat="41.4162639" lon="2.1265215">
        <ele>276.67004395</ele>
        <time>2022-10-30T11:11:05Z</time>
      </trkpt>
      <trkpt lat="41.4163359" lon="2.1265434">
        <ele>276.65005493</ele>
        <time>2022-10-30T11:11:06Z</time>
      </trkpt>
      <trkpt lat="41.4163719" lon="2.1265754">
        <ele>276.61004639</ele>
        <time>2022-10-30T11:11:07Z</time>
      </trkpt>
      <trkpt lat="41.4163999" lon="2.1266114">
        <ele>276.54003906</ele>
        <time>2022-10-30T11:11:08Z</time>
      </trkpt>
      <trkpt lat="41.4164389" lon="2.1266434">
        <ele>276.58004761</ele>
        <time>2022-10-30T11:11:09Z</time>
      </trkpt>
      <trkpt lat="41.4164718" lon="2.1266823">
        <ele>276.66003418</ele>
        <time>2022-10-30T11:11:10Z</time>
      </trkpt>
      <trkpt lat="41.4165328" lon="2.1267213">
        <ele>276.7300415</ele>
        <time>2022-10-30T11:11:11Z</time>
      </trkpt>
      <trkpt lat="41.4165548" lon="2.1267682">
        <ele>276.7800293</ele>
        <time>2022-10-30T11:11:12Z</time>
      </trkpt>
      <trkpt lat="41.4165677" lon="2.1268232">
        <ele>276.66003418</ele>
        <time>2022-10-30T11:11:13Z</time>
      </trkpt>
      <trkpt lat="41.4166016" lon="2.1268791">
        <ele>276.56002808</ele>
        <time>2022-10-30T11:11:14Z</time>
      </trkpt>
      <trkpt lat="41.4166325" lon="2.1269681">
        <ele>276.52001953</ele>
        <time>2022-10-30T11:11:15Z</time>
      </trkpt>
      <trkpt lat="41.4166545" lon="2.1270201">
        <ele>276.47003174</ele>
        <time>2022-10-30T11:11:16Z</time>
      </trkpt>
      <trkpt lat="41.4166665" lon="2.1270561">
        <ele>276.50003052</ele>
        <time>2022-10-30T11:11:17Z</time>
      </trkpt>
      <trkpt lat="41.4166764" lon="2.127098">
        <ele>276.50003052</ele>
        <time>2022-10-30T11:11:18Z</time>
      </trkpt>
      <trkpt lat="41.4166874" lon="2.127141">
        <ele>276.46002197</ele>
        <time>2022-10-30T11:11:19Z</time>
      </trkpt>
      <trkpt lat="41.4166764" lon="2.12723">
        <ele>276.44003296</ele>
        <time>2022-10-30T11:11:20Z</time>
      </trkpt>
      <trkpt lat="41.4166634" lon="2.1272829">
        <ele>276.39004517</ele>
        <time>2022-10-30T11:11:21Z</time>
      </trkpt>
      <trkpt lat="41.4166545" lon="2.1273328">
        <ele>276.3800354</ele>
        <time>2022-10-30T11:11:22Z</time>
      </trkpt>
      <trkpt lat="41.4166396" lon="2.1273938">
        <ele>276.44003296</ele>
        <time>2022-10-30T11:11:23Z</time>
      </trkpt>
      <trkpt lat="41.4166197" lon="2.1274697">
        <ele>276.45004272</ele>
        <time>2022-10-30T11:11:24Z</time>
      </trkpt>
      <trkpt lat="41.4166047" lon="2.1275277">
        <ele>276.57003784</ele>
        <time>2022-10-30T11:11:25Z</time>
      </trkpt>
      <trkpt lat="41.4165918" lon="2.1275846">
        <ele>276.69003296</ele>
        <time>2022-10-30T11:11:26Z</time>
      </trkpt>
      <trkpt lat="41.4165788" lon="2.1276486">
        <ele>276.69003296</ele>
        <time>2022-10-30T11:11:27Z</time>
      </trkpt>
      <trkpt lat="41.4165648" lon="2.1277286">
        <ele>276.83004761</ele>
        <time>2022-10-30T11:11:28Z</time>
      </trkpt>
      <trkpt lat="41.4165629" lon="2.1277855">
        <ele>276.90005493</ele>
        <time>2022-10-30T11:11:29Z</time>
      </trkpt>
      <trkpt lat="41.4165629" lon="2.1278555">
        <ele>276.89004517</ele>
        <time>2022-10-30T11:11:30Z</time>
      </trkpt>
      <trkpt lat="41.4165688" lon="2.1279154">
        <ele>276.95004272</ele>
        <time>2022-10-30T11:11:31Z</time>
      </trkpt>
      <trkpt lat="41.4165798" lon="2.1279843">
        <ele>276.93005371</ele>
        <time>2022-10-30T11:11:32Z</time>
      </trkpt>
      <trkpt lat="41.4165798" lon="2.1280753">
        <ele>276.93005371</ele>
        <time>2022-10-30T11:11:33Z</time>
      </trkpt>
      <trkpt lat="41.4165769" lon="2.1281242">
        <ele>276.93005371</ele>
        <time>2022-10-30T11:11:34Z</time>
      </trkpt>
      <trkpt lat="41.4165759" lon="2.1281832">
        <ele>276.85006714</ele>
        <time>2022-10-30T11:11:35Z</time>
      </trkpt>
      <trkpt lat="41.416572" lon="2.1282491">
        <ele>276.80007935</ele>
        <time>2022-10-30T11:11:36Z</time>
      </trkpt>
      <trkpt lat="41.416577" lon="2.128318">
        <ele>276.70007324</ele>
        <time>2022-10-30T11:11:37Z</time>
      </trkpt>
      <trkpt lat="41.4165869" lon="2.128427">
        <ele>276.74008179</ele>
        <time>2022-10-30T11:11:38Z</time>
      </trkpt>
      <trkpt lat="41.4165958" lon="2.1284889">
        <ele>276.80007935</ele>
        <time>2022-10-30T11:11:39Z</time>
      </trkpt>
      <trkpt lat="41.4166138" lon="2.1285499">
        <ele>276.80007935</ele>
        <time>2022-10-30T11:11:40Z</time>
      </trkpt>
      <trkpt lat="41.4166377" lon="2.1286079">
        <ele>276.84008789</ele>
        <time>2022-10-30T11:11:41Z</time>
      </trkpt>
      <trkpt lat="41.4166617" lon="2.1286698">
        <ele>276.84008789</ele>
        <time>2022-10-30T11:11:42Z</time>
      </trkpt>
      <trkpt lat="41.4167136" lon="2.1287338">
        <ele>276.85009766</ele>
        <time>2022-10-30T11:11:43Z</time>
      </trkpt>
      <trkpt lat="41.4167486" lon="2.1287487">
        <ele>276.8901062</ele>
        <time>2022-10-30T11:11:44Z</time>
      </trkpt>
      <trkpt lat="41.4167795" lon="2.1287767">
        <ele>276.88009644</ele>
        <time>2022-10-30T11:11:45Z</time>
      </trkpt>
      <trkpt lat="41.4168174" lon="2.1288016">
        <ele>276.80010986</ele>
        <time>2022-10-30T11:11:46Z</time>
      </trkpt>
      <trkpt lat="41.4168674" lon="2.1288515">
        <ele>276.80010986</ele>
        <time>2022-10-30T11:11:47Z</time>
      </trkpt>
      <trkpt lat="41.4168954" lon="2.1288724">
        <ele>276.77011108</ele>
        <time>2022-10-30T11:11:48Z</time>
      </trkpt>
      <trkpt lat="41.4169263" lon="2.1289044">
        <ele>276.87011719</ele>
        <time>2022-10-30T11:11:49Z</time>
      </trkpt>
      <trkpt lat="41.4169513" lon="2.1289314">
        <ele>276.93011475</ele>
        <time>2022-10-30T11:11:50Z</time>
      </trkpt>
      <trkpt lat="41.4169752" lon="2.1289444">
        <ele>276.93011475</ele>
        <time>2022-10-30T11:11:51Z</time>
      </trkpt>
      <trkpt lat="41.4170012" lon="2.1289404">
        <ele>276.97012329</ele>
        <time>2022-10-30T11:11:52Z</time>
      </trkpt>
      <trkpt lat="41.4170071" lon="2.1289234">
        <ele>276.95013428</ele>
        <time>2022-10-30T11:11:53Z</time>
      </trkpt>
      <trkpt lat="41.417011" lon="2.1289035">
        <ele>276.98013306</ele>
        <time>2022-10-30T11:11:54Z</time>
      </trkpt>
      <trkpt lat="41.4170021" lon="2.1288755">
        <ele>277.05014038</ele>
        <time>2022-10-30T11:11:55Z</time>
      </trkpt>
      <trkpt lat="41.4169831" lon="2.1288336">
        <ele>277.20013428</ele>
        <time>2022-10-30T11:11:56Z</time>
      </trkpt>
      <trkpt lat="41.4169662" lon="2.1288006">
        <ele>277.4201355</ele>
        <time>2022-10-30T11:11:57Z</time>
      </trkpt>
      <trkpt lat="41.4169442" lon="2.1287686">
        <ele>277.76013184</ele>
        <time>2022-10-30T11:11:58Z</time>
      </trkpt>
      <trkpt lat="41.4169183" lon="2.1287417">
        <ele>278.13012695</ele>
        <time>2022-10-30T11:11:59Z</time>
      </trkpt>
      <trkpt lat="41.4168883" lon="2.1286897">
        <ele>278.48013306</ele>
        <time>2022-10-30T11:12:00Z</time>
      </trkpt>
      <trkpt lat="41.4168664" lon="2.1286528">
        <ele>278.84011841</ele>
        <time>2022-10-30T11:12:01Z</time>
      </trkpt>
      <trkpt lat="41.4168434" lon="2.1286228">
        <ele>279.16012573</ele>
        <time>2022-10-30T11:12:02Z</time>
      </trkpt>
      <trkpt lat="41.4168235" lon="2.1285919">
        <ele>279.45013428</ele>
        <time>2022-10-30T11:12:03Z</time>
      </trkpt>
      <trkpt lat="41.4168015" lon="2.1285549">
        <ele>279.7701416</ele>
        <time>2022-10-30T11:12:04Z</time>
      </trkpt>
      <trkpt lat="41.4167686" lon="2.128498">
        <ele>280.12014771</ele>
        <time>2022-10-30T11:12:05Z</time>
      </trkpt>
      <trkpt lat="41.4167466" lon="2.1284621">
        <ele>280.44015503</ele>
        <time>2022-10-30T11:12:06Z</time>
      </trkpt>
      <trkpt lat="41.4167216" lon="2.1284331">
        <ele>280.86016846</ele>
        <time>2022-10-30T11:12:07Z</time>
      </trkpt>
      <trkpt lat="41.4167007" lon="2.1284071">
        <ele>281.22015381</ele>
        <time>2022-10-30T11:12:08Z</time>
      </trkpt>
      <trkpt lat="41.4166867" lon="2.1283681">
        <ele>281.55014038</ele>
        <time>2022-10-30T11:12:09Z</time>
      </trkpt>
      <trkpt lat="41.4166727" lon="2.1283032">
        <ele>281.88012695</ele>
        <time>2022-10-30T11:12:10Z</time>
      </trkpt>
      <trkpt lat="41.4166746" lon="2.1282572">
        <ele>282.13012695</ele>
        <time>2022-10-30T11:12:11Z</time>
      </trkpt>
      <trkpt lat="41.4166756" lon="2.1282213">
        <ele>282.47012329</ele>
        <time>2022-10-30T11:12:12Z</time>
      </trkpt>
      <trkpt lat="41.4166785" lon="2.1281793">
        <ele>282.77011108</ele>
        <time>2022-10-30T11:12:13Z</time>
      </trkpt>
      <trkpt lat="41.4166835" lon="2.1281113">
        <ele>283.0401001</ele>
        <time>2022-10-30T11:12:14Z</time>
      </trkpt>
      <trkpt lat="41.4166934" lon="2.1280654">
        <ele>283.41009521</ele>
        <time>2022-10-30T11:12:15Z</time>
      </trkpt>
      <trkpt lat="41.4167023" lon="2.1280264">
        <ele>283.69009399</ele>
        <time>2022-10-30T11:12:16Z</time>
      </trkpt>
      <trkpt lat="41.4167113" lon="2.1279874">
        <ele>284.02008057</ele>
        <time>2022-10-30T11:12:17Z</time>
      </trkpt>
      <trkpt lat="41.4167212" lon="2.1279215">
        <ele>284.50009155</ele>
        <time>2022-10-30T11:12:18Z</time>
      </trkpt>
      <trkpt lat="41.4167301" lon="2.1278836">
        <ele>284.88009644</ele>
        <time>2022-10-30T11:12:19Z</time>
      </trkpt>
      <trkpt lat="41.4167431" lon="2.1278437">
        <ele>285.27011108</ele>
        <time>2022-10-30T11:12:20Z</time>
      </trkpt>
      <trkpt lat="41.416747" lon="2.1278087">
        <ele>285.73010254</ele>
        <time>2022-10-30T11:12:21Z</time>
      </trkpt>
      <trkpt lat="41.416759" lon="2.1277857">
        <ele>286.10009766</ele>
        <time>2022-10-30T11:12:22Z</time>
      </trkpt>
      <trkpt lat="41.4167839" lon="2.1277548">
        <ele>286.46008301</ele>
        <time>2022-10-30T11:12:23Z</time>
      </trkpt>
      <trkpt lat="41.4168029" lon="2.1277388">
        <ele>286.89007568</ele>
        <time>2022-10-30T11:12:24Z</time>
      </trkpt>
      <trkpt lat="41.4168288" lon="2.1277348">
        <ele>287.17007446</ele>
        <time>2022-10-30T11:12:25Z</time>
      </trkpt>
      <trkpt lat="41.4168568" lon="2.1277048">
        <ele>287.49008179</ele>
        <time>2022-10-30T11:12:26Z</time>
      </trkpt>
      <trkpt lat="41.4168898" lon="2.1276639">
        <ele>287.81008911</ele>
        <time>2022-10-30T11:12:27Z</time>
      </trkpt>
      <trkpt lat="41.4169088" lon="2.127642">
        <ele>288.12008667</ele>
        <time>2022-10-30T11:12:28Z</time>
      </trkpt>
      <trkpt lat="41.4169248" lon="2.127616">
        <ele>288.50009155</ele>
        <time>2022-10-30T11:12:29Z</time>
      </trkpt>
      <trkpt lat="41.4169437" lon="2.1275861">
        <ele>288.78009033</ele>
        <time>2022-10-30T11:12:30Z</time>
      </trkpt>
      <trkpt lat="41.4169567" lon="2.1275642">
        <ele>289.05007935</ele>
        <time>2022-10-30T11:12:31Z</time>
      </trkpt>
      <trkpt lat="41.4169776" lon="2.1275233">
        <ele>289.40008545</ele>
        <time>2022-10-30T11:12:32Z</time>
      </trkpt>
      <trkpt lat="41.4169896" lon="2.1274953">
        <ele>289.82009888</ele>
        <time>2022-10-30T11:12:33Z</time>
      </trkpt>
      <trkpt lat="41.4170006" lon="2.1274464">
        <ele>290.2901001</ele>
        <time>2022-10-30T11:12:34Z</time>
      </trkpt>
      <trkpt lat="41.4170095" lon="2.1273954">
        <ele>290.77011108</ele>
        <time>2022-10-30T11:12:35Z</time>
      </trkpt>
      <trkpt lat="41.4170214" lon="2.1273394">
        <ele>291.20010376</ele>
        <time>2022-10-30T11:12:36Z</time>
      </trkpt>
      <trkpt lat="41.4170264" lon="2.1272915">
        <ele>291.62011719</ele>
        <time>2022-10-30T11:12:37Z</time>
      </trkpt>
      <trkpt lat="41.4170353" lon="2.1272605">
        <ele>292.07012939</ele>
        <time>2022-10-30T11:12:38Z</time>
      </trkpt>
      <trkpt lat="41.4170472" lon="2.1272436">
        <ele>292.48013306</ele>
        <time>2022-10-30T11:12:39Z</time>
      </trkpt>
      <trkpt lat="41.4170612" lon="2.1272217">
        <ele>292.97012329</ele>
        <time>2022-10-30T11:12:40Z</time>
      </trkpt>
      <trkpt lat="41.4170792" lon="2.1271767">
        <ele>293.33010864</ele>
        <time>2022-10-30T11:12:41Z</time>
      </trkpt>
      <trkpt lat="41.4170902" lon="2.1271347">
        <ele>293.66009521</ele>
        <time>2022-10-30T11:12:42Z</time>
      </trkpt>
      <trkpt lat="41.4170911" lon="2.1270918">
        <ele>294.10009766</ele>
        <time>2022-10-30T11:12:43Z</time>
      </trkpt>
      <trkpt lat="41.4170911" lon="2.1270658">
        <ele>294.44009399</ele>
        <time>2022-10-30T11:12:44Z</time>
      </trkpt>
      <trkpt lat="41.4170891" lon="2.1269978">
        <ele>294.84008789</ele>
        <time>2022-10-30T11:12:45Z</time>
      </trkpt>
      <trkpt lat="41.4170862" lon="2.1269519">
        <ele>295.25009155</ele>
        <time>2022-10-30T11:12:46Z</time>
      </trkpt>
      <trkpt lat="41.4170833" lon="2.1269089">
        <ele>295.6401062</ele>
        <time>2022-10-30T11:12:47Z</time>
      </trkpt>
      <trkpt lat="41.4170673" lon="2.126879">
        <ele>295.98010254</ele>
        <time>2022-10-30T11:12:48Z</time>
      </trkpt>
      <trkpt lat="41.4170464" lon="2.126824">
        <ele>296.35009766</ele>
        <time>2022-10-30T11:12:49Z</time>
      </trkpt>
      <trkpt lat="41.4170334" lon="2.1267681">
        <ele>296.66009521</ele>
        <time>2022-10-30T11:12:50Z</time>
      </trkpt>
      <trkpt lat="41.4170275" lon="2.1267171">
        <ele>296.94009399</ele>
        <time>2022-10-30T11:12:51Z</time>
      </trkpt>
      <trkpt lat="41.4170186" lon="2.1266611">
        <ele>297.2901001</ele>
        <time>2022-10-30T11:12:52Z</time>
      </trkpt>
      <trkpt lat="41.4170106" lon="2.1266062">
        <ele>297.6401062</ele>
        <time>2022-10-30T11:12:53Z</time>
      </trkpt>
      <trkpt lat="41.4169826" lon="2.1265402">
        <ele>298.10009766</ele>
        <time>2022-10-30T11:12:54Z</time>
      </trkpt>
      <trkpt lat="41.4169677" lon="2.1265103">
        <ele>298.55010986</ele>
        <time>2022-10-30T11:12:55Z</time>
      </trkpt>
      <trkpt lat="41.4169537" lon="2.1264854">
        <ele>298.97012329</ele>
        <time>2022-10-30T11:12:56Z</time>
      </trkpt>
      <trkpt lat="41.4169357" lon="2.1264624">
        <ele>299.32012939</ele>
        <time>2022-10-30T11:12:57Z</time>
      </trkpt>
      <trkpt lat="41.4169158" lon="2.1264475">
        <ele>299.64013672</ele>
        <time>2022-10-30T11:12:58Z</time>
      </trkpt>
      <trkpt lat="41.4168699" lon="2.1264035">
        <ele>300.06015015</ele>
        <time>2022-10-30T11:12:59Z</time>
      </trkpt>
      <trkpt lat="41.4168459" lon="2.1263736">
        <ele>300.40014648</ele>
        <time>2022-10-30T11:13:00Z</time>
      </trkpt>
      <trkpt lat="41.416822" lon="2.1263466">
        <ele>300.81015015</ele>
        <time>2022-10-30T11:13:01Z</time>
      </trkpt>
      <trkpt lat="41.416797" lon="2.1263107">
        <ele>301.20016479</ele>
        <time>2022-10-30T11:13:02Z</time>
      </trkpt>
      <trkpt lat="41.4167681" lon="2.1262568">
        <ele>301.48016357</ele>
        <time>2022-10-30T11:13:03Z</time>
      </trkpt>
      <trkpt lat="41.4167172" lon="2.1262068">
        <ele>301.93017578</ele>
        <time>2022-10-30T11:13:04Z</time>
      </trkpt>
      <trkpt lat="41.4166842" lon="2.1261869">
        <ele>302.39016724</ele>
        <time>2022-10-30T11:13:05Z</time>
      </trkpt>
      <trkpt lat="41.4166503" lon="2.1261499">
        <ele>302.85015869</ele>
        <time>2022-10-30T11:13:06Z</time>
      </trkpt>
      <trkpt lat="41.4166194" lon="2.126111">
        <ele>303.3001709</ele>
        <time>2022-10-30T11:13:07Z</time>
      </trkpt>
      <trkpt lat="41.4165874" lon="2.12603">
        <ele>303.75018311</ele>
        <time>2022-10-30T11:13:08Z</time>
      </trkpt>
      <trkpt lat="41.4165645" lon="2.125982">
        <ele>304.12017822</ele>
        <time>2022-10-30T11:13:09Z</time>
      </trkpt>
      <trkpt lat="41.4165456" lon="2.1259261">
        <ele>304.60018921</ele>
        <time>2022-10-30T11:13:10Z</time>
      </trkpt>
      <trkpt lat="41.4165206" lon="2.1258751">
        <ele>305.13018799</ele>
        <time>2022-10-30T11:13:11Z</time>
      </trkpt>
      <trkpt lat="41.4164966" lon="2.1258122">
        <ele>305.59017944</ele>
        <time>2022-10-30T11:13:12Z</time>
      </trkpt>
      <trkpt lat="41.4164787" lon="2.1257672">
        <ele>306.17016602</ele>
        <time>2022-10-30T11:13:13Z</time>
      </trkpt>
      <trkpt lat="41.4164717" lon="2.1257203">
        <ele>306.66015625</ele>
        <time>2022-10-30T11:13:14Z</time>
      </trkpt>
      <trkpt lat="41.4164658" lon="2.1256664">
        <ele>307.15014648</ele>
        <time>2022-10-30T11:13:15Z</time>
      </trkpt>
      <trkpt lat="41.4164419" lon="2.1256214">
        <ele>307.64013672</ele>
        <time>2022-10-30T11:13:16Z</time>
      </trkpt>
      <trkpt lat="41.4164239" lon="2.1255594">
        <ele>307.96014404</ele>
        <time>2022-10-30T11:13:17Z</time>
      </trkpt>
      <trkpt lat="41.416394" lon="2.1255235">
        <ele>308.41015625</ele>
        <time>2022-10-30T11:13:18Z</time>
      </trkpt>
      <trkpt lat="41.416365" lon="2.1254856">
        <ele>308.8001709</ele>
        <time>2022-10-30T11:13:19Z</time>
      </trkpt>
      <trkpt lat="41.4163441" lon="2.1254436">
        <ele>309.31018066</ele>
        <time>2022-10-30T11:13:20Z</time>
      </trkpt>
      <trkpt lat="41.4163161" lon="2.1253907">
        <ele>309.88018799</ele>
        <time>2022-10-30T11:13:21Z</time>
      </trkpt>
      <trkpt lat="41.4162962" lon="2.1253247">
        <ele>310.35018921</ele>
        <time>2022-10-30T11:13:22Z</time>
      </trkpt>
      <trkpt lat="41.4162763" lon="2.1253008">
        <ele>310.78018188</ele>
        <time>2022-10-30T11:13:23Z</time>
      </trkpt>
      <trkpt lat="41.4162433" lon="2.1252699">
        <ele>311.12017822</ele>
        <time>2022-10-30T11:13:24Z</time>
      </trkpt>
      <trkpt lat="41.4162113" lon="2.1252279">
        <ele>311.52017212</ele>
        <time>2022-10-30T11:13:25Z</time>
      </trkpt>
      <trkpt lat="41.4161514" lon="2.1251469">
        <ele>311.95016479</ele>
        <time>2022-10-30T11:13:26Z</time>
      </trkpt>
      <trkpt lat="41.4161245" lon="2.1251119">
        <ele>312.48016357</ele>
        <time>2022-10-30T11:13:27Z</time>
      </trkpt>
      <trkpt lat="41.4161085" lon="2.125066">
        <ele>312.92016602</ele>
        <time>2022-10-30T11:13:28Z</time>
      </trkpt>
      <trkpt lat="41.4160856" lon="2.1250161">
        <ele>313.36016846</ele>
        <time>2022-10-30T11:13:29Z</time>
      </trkpt>
      <trkpt lat="41.4160536" lon="2.1249631">
        <ele>313.85015869</ele>
        <time>2022-10-30T11:13:30Z</time>
      </trkpt>
      <trkpt lat="41.4160247" lon="2.1249292">
        <ele>314.22015381</ele>
        <time>2022-10-30T11:13:31Z</time>
      </trkpt>
      <trkpt lat="41.4160128" lon="2.1248883">
        <ele>314.65014648</ele>
        <time>2022-10-30T11:13:32Z</time>
      </trkpt>
      <trkpt lat="41.4160108" lon="2.1248514">
        <ele>315.10015869</ele>
        <time>2022-10-30T11:13:33Z</time>
      </trkpt>
      <trkpt lat="41.4160178" lon="2.1248114">
        <ele>315.49017334</ele>
        <time>2022-10-30T11:13:34Z</time>
      </trkpt>
      <trkpt lat="41.4160237" lon="2.1247745">
        <ele>315.98016357</ele>
        <time>2022-10-30T11:13:35Z</time>
      </trkpt>
      <trkpt lat="41.4160536" lon="2.1247375">
        <ele>316.45016479</ele>
        <time>2022-10-30T11:13:36Z</time>
      </trkpt>
      <trkpt lat="41.4160866" lon="2.1247106">
        <ele>316.900177</ele>
        <time>2022-10-30T11:13:37Z</time>
      </trkpt>
      <trkpt lat="41.4161035" lon="2.1246906">
        <ele>317.26016235</ele>
        <time>2022-10-30T11:13:38Z</time>
      </trkpt>
      <trkpt lat="41.4161275" lon="2.1246787">
        <ele>317.61016846</ele>
        <time>2022-10-30T11:13:39Z</time>
      </trkpt>
      <trkpt lat="41.4161725" lon="2.1246747">
        <ele>317.95016479</ele>
        <time>2022-10-30T11:13:40Z</time>
      </trkpt>
      <trkpt lat="41.4162024" lon="2.1246897">
        <ele>318.3001709</ele>
        <time>2022-10-30T11:13:41Z</time>
      </trkpt>
      <trkpt lat="41.4162274" lon="2.1247186">
        <ele>318.66015625</ele>
        <time>2022-10-30T11:13:42Z</time>
      </trkpt>
      <trkpt lat="41.4162464" lon="2.1247496">
        <ele>319.10015869</ele>
        <time>2022-10-30T11:13:43Z</time>
      </trkpt>
      <trkpt lat="41.4162723" lon="2.1247945">
        <ele>319.52017212</ele>
        <time>2022-10-30T11:13:44Z</time>
      </trkpt>
      <trkpt lat="41.4162782" lon="2.1248385">
        <ele>319.85015869</ele>
        <time>2022-10-30T11:13:45Z</time>
      </trkpt>
      <trkpt lat="41.4162763" lon="2.1248784">
        <ele>320.27017212</ele>
        <time>2022-10-30T11:13:46Z</time>
      </trkpt>
      <trkpt lat="41.4162693" lon="2.1249183">
        <ele>320.63015747</ele>
        <time>2022-10-30T11:13:47Z</time>
      </trkpt>
      <trkpt lat="41.4162743" lon="2.1249933">
        <ele>321.09014893</ele>
        <time>2022-10-30T11:13:48Z</time>
      </trkpt>
      <trkpt lat="41.4162673" lon="2.1250342">
        <ele>321.62014771</ele>
        <time>2022-10-30T11:13:49Z</time>
      </trkpt>
      <trkpt lat="41.4162683" lon="2.1250681">
        <ele>322.12014771</ele>
        <time>2022-10-30T11:13:50Z</time>
      </trkpt>
      <trkpt lat="41.4162752" lon="2.1251021">
        <ele>322.53015137</ele>
        <time>2022-10-30T11:13:51Z</time>
      </trkpt>
      <trkpt lat="41.4162871" lon="2.125141">
        <ele>322.88015747</ele>
        <time>2022-10-30T11:13:52Z</time>
      </trkpt>
      <trkpt lat="41.4163131" lon="2.125191">
        <ele>323.15014648</ele>
        <time>2022-10-30T11:13:53Z</time>
      </trkpt>
      <trkpt lat="41.416322" lon="2.1251979">
        <ele>323.37014771</ele>
        <time>2022-10-30T11:13:54Z</time>
      </trkpt>
      <trkpt lat="41.416336" lon="2.1252339">
        <ele>323.64013672</ele>
        <time>2022-10-30T11:13:55Z</time>
      </trkpt>
      <trkpt lat="41.416355" lon="2.1252639">
        <ele>324.0201416</ele>
        <time>2022-10-30T11:13:56Z</time>
      </trkpt>
      <trkpt lat="41.4163879" lon="2.1253058">
        <ele>324.39013672</ele>
        <time>2022-10-30T11:13:57Z</time>
      </trkpt>
      <trkpt lat="41.4164048" lon="2.1253448">
        <ele>324.76013184</ele>
        <time>2022-10-30T11:13:58Z</time>
      </trkpt>
      <trkpt lat="41.4164198" lon="2.1253798">
        <ele>325.16012573</ele>
        <time>2022-10-30T11:13:59Z</time>
      </trkpt>
      <trkpt lat="41.4164347" lon="2.1254207">
        <ele>325.39013672</ele>
        <time>2022-10-30T11:14:00Z</time>
      </trkpt>
      <trkpt lat="41.4164496" lon="2.1254546">
        <ele>325.69012451</ele>
        <time>2022-10-30T11:14:01Z</time>
      </trkpt>
      <trkpt lat="41.4164736" lon="2.1254896">
        <ele>325.94012451</ele>
        <time>2022-10-30T11:14:02Z</time>
      </trkpt>
      <trkpt lat="41.4165055" lon="2.1255066">
        <ele>326.13012695</ele>
        <time>2022-10-30T11:14:03Z</time>
      </trkpt>
      <trkpt lat="41.4165495" lon="2.1255007">
        <ele>326.4201355</ele>
        <time>2022-10-30T11:14:04Z</time>
      </trkpt>
      <trkpt lat="41.4165874" lon="2.1255056">
        <ele>326.70013428</ele>
        <time>2022-10-30T11:14:05Z</time>
      </trkpt>
      <trkpt lat="41.4166474" lon="2.1254937">
        <ele>327.08013916</ele>
        <time>2022-10-30T11:14:06Z</time>
      </trkpt>
      <trkpt lat="41.4166763" lon="2.1254966">
        <ele>327.5201416</ele>
        <time>2022-10-30T11:14:07Z</time>
      </trkpt>
      <trkpt lat="41.4167082" lon="2.1254947">
        <ele>327.91015625</ele>
        <time>2022-10-30T11:14:08Z</time>
      </trkpt>
      <trkpt lat="41.4167492" lon="2.1254957">
        <ele>328.2701416</ele>
        <time>2022-10-30T11:14:09Z</time>
      </trkpt>
      <trkpt lat="41.4167872" lon="2.1255056">
        <ele>328.60012817</ele>
        <time>2022-10-30T11:14:10Z</time>
      </trkpt>
      <trkpt lat="41.4168381" lon="2.1255275">
        <ele>328.99014282</ele>
        <time>2022-10-30T11:14:11Z</time>
      </trkpt>
      <trkpt lat="41.416862" lon="2.1255425">
        <ele>329.28015137</ele>
        <time>2022-10-30T11:14:12Z</time>
      </trkpt>
      <trkpt lat="41.416886" lon="2.1255614">
        <ele>329.61013794</ele>
        <time>2022-10-30T11:14:13Z</time>
      </trkpt>
      <trkpt lat="41.4168989" lon="2.1255934">
        <ele>329.94012451</ele>
        <time>2022-10-30T11:14:14Z</time>
      </trkpt>
      <trkpt lat="41.4169139" lon="2.1256173">
        <ele>330.13012695</ele>
        <time>2022-10-30T11:14:15Z</time>
      </trkpt>
      <trkpt lat="41.4169338" lon="2.1256702">
        <ele>330.48013306</ele>
        <time>2022-10-30T11:14:16Z</time>
      </trkpt>
      <trkpt lat="41.4169418" lon="2.1257022">
        <ele>330.80014038</ele>
        <time>2022-10-30T11:14:17Z</time>
      </trkpt>
      <trkpt lat="41.4169637" lon="2.1257172">
        <ele>331.14013672</ele>
        <time>2022-10-30T11:14:18Z</time>
      </trkpt>
      <trkpt lat="41.4169907" lon="2.1257191">
        <ele>331.49014282</ele>
        <time>2022-10-30T11:14:19Z</time>
      </trkpt>
      <trkpt lat="41.4170457" lon="2.125724">
        <ele>331.84014893</ele>
        <time>2022-10-30T11:14:20Z</time>
      </trkpt>
      <trkpt lat="41.4170766" lon="2.125738">
        <ele>332.22015381</ele>
        <time>2022-10-30T11:14:21Z</time>
      </trkpt>
      <trkpt lat="41.4170875" lon="2.1257659">
        <ele>332.59014893</ele>
        <time>2022-10-30T11:14:22Z</time>
      </trkpt>
      <trkpt lat="41.4171055" lon="2.1257919">
        <ele>333.03015137</ele>
        <time>2022-10-30T11:14:23Z</time>
      </trkpt>
      <trkpt lat="41.4171394" lon="2.1258309">
        <ele>333.39013672</ele>
        <time>2022-10-30T11:14:24Z</time>
      </trkpt>
      <trkpt lat="41.4171653" lon="2.1258578">
        <ele>333.79013062</ele>
        <time>2022-10-30T11:14:25Z</time>
      </trkpt>
      <trkpt lat="41.4172073" lon="2.1258618">
        <ele>334.1701355</ele>
        <time>2022-10-30T11:14:26Z</time>
      </trkpt>
      <trkpt lat="41.4172173" lon="2.1258878">
        <ele>334.54013062</ele>
        <time>2022-10-30T11:14:27Z</time>
      </trkpt>
      <trkpt lat="41.4172342" lon="2.1259097">
        <ele>334.90011597</ele>
        <time>2022-10-30T11:14:28Z</time>
      </trkpt>
      <trkpt lat="41.417239" lon="2.125909">
        <ele>335.72000122</ele>
        <time>2022-10-30T11:14:28Z</time>
      </trkpt>
      <trkpt lat="41.4172659" lon="2.1259239">
        <ele>336.1000061</ele>
        <time>2022-10-30T11:14:29Z</time>
      </trkpt>
      <trkpt lat="41.4173168" lon="2.1259469">
        <ele>336.42999268</ele>
        <time>2022-10-30T11:14:30Z</time>
      </trkpt>
      <trkpt lat="41.4173538" lon="2.1259658">
        <ele>336.72998047</ele>
        <time>2022-10-30T11:14:31Z</time>
      </trkpt>
      <trkpt lat="41.4173807" lon="2.1259888">
        <ele>337.06997681</ele>
        <time>2022-10-30T11:14:32Z</time>
      </trkpt>
      <trkpt lat="41.4174036" lon="2.1260007">
        <ele>337.40997314</ele>
        <time>2022-10-30T11:14:33Z</time>
      </trkpt>
      <trkpt lat="41.4174186" lon="2.1260367">
        <ele>337.70996094</ele>
        <time>2022-10-30T11:14:34Z</time>
      </trkpt>
      <trkpt lat="41.4174296" lon="2.1260696">
        <ele>338.05996704</ele>
        <time>2022-10-30T11:14:35Z</time>
      </trkpt>
      <trkpt lat="41.4174455" lon="2.1261036">
        <ele>338.38995361</ele>
        <time>2022-10-30T11:14:36Z</time>
      </trkpt>
      <trkpt lat="41.4174635" lon="2.1261285">
        <ele>338.62994385</ele>
        <time>2022-10-30T11:14:37Z</time>
      </trkpt>
      <trkpt lat="41.4174864" lon="2.1262044">
        <ele>338.92993164</ele>
        <time>2022-10-30T11:14:38Z</time>
      </trkpt>
      <trkpt lat="41.4175043" lon="2.1262273">
        <ele>339.18994141</ele>
        <time>2022-10-30T11:14:39Z</time>
      </trkpt>
      <trkpt lat="41.4175123" lon="2.1262593">
        <ele>339.45993042</ele>
        <time>2022-10-30T11:14:40Z</time>
      </trkpt>
      <trkpt lat="41.4175313" lon="2.1262622">
        <ele>339.78991699</ele>
        <time>2022-10-30T11:14:41Z</time>
      </trkpt>
      <trkpt lat="41.4175492" lon="2.1262652">
        <ele>340.15991211</ele>
        <time>2022-10-30T11:14:42Z</time>
      </trkpt>
      <trkpt lat="41.4175712" lon="2.1262801">
        <ele>340.53991699</ele>
        <time>2022-10-30T11:14:43Z</time>
      </trkpt>
      <trkpt lat="41.4175921" lon="2.126307">
        <ele>340.8899231</ele>
        <time>2022-10-30T11:14:44Z</time>
      </trkpt>
      <trkpt lat="41.4176191" lon="2.126333">
        <ele>341.21990967</ele>
        <time>2022-10-30T11:14:45Z</time>
      </trkpt>
      <trkpt lat="41.4176461" lon="2.126353">
        <ele>341.51989746</ele>
        <time>2022-10-30T11:14:46Z</time>
      </trkpt>
      <trkpt lat="41.41771" lon="2.1263381">
        <ele>341.84988403</ele>
        <time>2022-10-30T11:14:47Z</time>
      </trkpt>
      <trkpt lat="41.417762" lon="2.1263251">
        <ele>342.27987671</ele>
        <time>2022-10-30T11:14:48Z</time>
      </trkpt>
      <trkpt lat="41.417809" lon="2.1263101">
        <ele>342.69989014</ele>
        <time>2022-10-30T11:14:49Z</time>
      </trkpt>
      <trkpt lat="41.4178579" lon="2.1262822">
        <ele>343.19989014</ele>
        <time>2022-10-30T11:14:50Z</time>
      </trkpt>
      <trkpt lat="41.4179288" lon="2.1262173">
        <ele>343.63989258</ele>
        <time>2022-10-30T11:14:51Z</time>
      </trkpt>
      <trkpt lat="41.4179468" lon="2.1262003">
        <ele>344.01989746</ele>
        <time>2022-10-30T11:14:52Z</time>
      </trkpt>
      <trkpt lat="41.4179627" lon="2.1261914">
        <ele>344.27990723</ele>
        <time>2022-10-30T11:14:53Z</time>
      </trkpt>
      <trkpt lat="41.4179817" lon="2.1261774">
        <ele>344.44992065</ele>
        <time>2022-10-30T11:14:54Z</time>
      </trkpt>
      <trkpt lat="41.4179957" lon="2.1261734">
        <ele>344.59991455</ele>
        <time>2022-10-30T11:14:55Z</time>
      </trkpt>
      <trkpt lat="41.4180287" lon="2.1261384">
        <ele>344.75991821</ele>
        <time>2022-10-30T11:14:56Z</time>
      </trkpt>
      <trkpt lat="41.4180436" lon="2.1261275">
        <ele>344.94992065</ele>
        <time>2022-10-30T11:14:57Z</time>
      </trkpt>
      <trkpt lat="41.4180546" lon="2.1261275">
        <ele>345.19992065</ele>
        <time>2022-10-30T11:14:58Z</time>
      </trkpt>
      <trkpt lat="41.4180686" lon="2.1261226">
        <ele>345.45993042</ele>
        <time>2022-10-30T11:14:59Z</time>
      </trkpt>
      <trkpt lat="41.4180915" lon="2.1261096">
        <ele>345.7399292</ele>
        <time>2022-10-30T11:15:00Z</time>
      </trkpt>
      <trkpt lat="41.4181295" lon="2.1260866">
        <ele>346.12994385</ele>
        <time>2022-10-30T11:15:01Z</time>
      </trkpt>
      <trkpt lat="41.4181464" lon="2.1260687">
        <ele>346.49993896</ele>
        <time>2022-10-30T11:15:02Z</time>
      </trkpt>
      <trkpt lat="41.4181623" lon="2.1260527">
        <ele>346.95993042</ele>
        <time>2022-10-30T11:15:03Z</time>
      </trkpt>
      <trkpt lat="41.4181792" lon="2.1260387">
        <ele>347.32992554</ele>
        <time>2022-10-30T11:15:04Z</time>
      </trkpt>
      <trkpt lat="41.4182072" lon="2.1260117">
        <ele>347.71994019</ele>
        <time>2022-10-30T11:15:05Z</time>
      </trkpt>
      <trkpt lat="41.4182252" lon="2.1259908">
        <ele>348.12994385</ele>
        <time>2022-10-30T11:15:06Z</time>
      </trkpt>
      <trkpt lat="41.4182411" lon="2.1259699">
        <ele>348.46994019</ele>
        <time>2022-10-30T11:15:07Z</time>
      </trkpt>
      <trkpt lat="41.4182571" lon="2.1259569">
        <ele>348.86993408</ele>
        <time>2022-10-30T11:15:08Z</time>
      </trkpt>
      <trkpt lat="41.418277" lon="2.125945">
        <ele>349.16992188</ele>
        <time>2022-10-30T11:15:09Z</time>
      </trkpt>
      <trkpt lat="41.418291" lon="2.125927">
        <ele>349.42993164</ele>
        <time>2022-10-30T11:15:10Z</time>
      </trkpt>
      <trkpt lat="41.4182999" lon="2.1259121">
        <ele>349.68994141</ele>
        <time>2022-10-30T11:15:11Z</time>
      </trkpt>
      <trkpt lat="41.4183069" lon="2.1258961">
        <ele>349.93994141</ele>
        <time>2022-10-30T11:15:12Z</time>
      </trkpt>
      <trkpt lat="41.4183209" lon="2.1258761">
        <ele>350.19995117</ele>
        <time>2022-10-30T11:15:13Z</time>
      </trkpt>
      <trkpt lat="41.4183388" lon="2.1258522">
        <ele>350.46994019</ele>
        <time>2022-10-30T11:15:14Z</time>
      </trkpt>
      <trkpt lat="41.4183398" lon="2.1258273">
        <ele>350.72994995</ele>
        <time>2022-10-30T11:15:15Z</time>
      </trkpt>
      <trkpt lat="41.4183487" lon="2.1257953">
        <ele>350.99993896</ele>
        <time>2022-10-30T11:15:16Z</time>
      </trkpt>
      <trkpt lat="41.4183716" lon="2.1257514">
        <ele>351.27993774</ele>
        <time>2022-10-30T11:15:17Z</time>
      </trkpt>
      <trkpt lat="41.4184076" lon="2.1256915">
        <ele>351.70993042</ele>
        <time>2022-10-30T11:15:18Z</time>
      </trkpt>
      <trkpt lat="41.4184165" lon="2.1256525">
        <ele>352.10992432</ele>
        <time>2022-10-30T11:15:19Z</time>
      </trkpt>
      <trkpt lat="41.4184245" lon="2.1256155">
        <ele>352.46990967</ele>
        <time>2022-10-30T11:15:20Z</time>
      </trkpt>
      <trkpt lat="41.4184325" lon="2.1255756">
        <ele>352.90991211</ele>
        <time>2022-10-30T11:15:21Z</time>
      </trkpt>
      <trkpt lat="41.4184444" lon="2.1255396">
        <ele>353.28991699</ele>
        <time>2022-10-30T11:15:22Z</time>
      </trkpt>
      <trkpt lat="41.4184574" lon="2.1254807">
        <ele>353.72991943</ele>
        <time>2022-10-30T11:15:23Z</time>
      </trkpt>
      <trkpt lat="41.4184673" lon="2.1254507">
        <ele>354.2399292</ele>
        <time>2022-10-30T11:15:24Z</time>
      </trkpt>
      <trkpt lat="41.4184902" lon="2.1254268">
        <ele>354.67993164</ele>
        <time>2022-10-30T11:15:25Z</time>
      </trkpt>
      <trkpt lat="41.4185222" lon="2.1254149">
        <ele>355.01992798</ele>
        <time>2022-10-30T11:15:26Z</time>
      </trkpt>
      <trkpt lat="41.4185651" lon="2.125406">
        <ele>355.34991455</ele>
        <time>2022-10-30T11:15:27Z</time>
      </trkpt>
      <trkpt lat="41.418599" lon="2.125393">
        <ele>355.58990479</ele>
        <time>2022-10-30T11:15:28Z</time>
      </trkpt>
      <trkpt lat="41.4186189" lon="2.125391">
        <ele>355.82989502</ele>
        <time>2022-10-30T11:15:29Z</time>
      </trkpt>
      <trkpt lat="41.4186379" lon="2.1253901">
        <ele>355.99990845</ele>
        <time>2022-10-30T11:15:30Z</time>
      </trkpt>
      <trkpt lat="41.4186648" lon="2.1253861">
        <ele>356.1098938</ele>
        <time>2022-10-30T11:15:31Z</time>
      </trkpt>
      <trkpt lat="41.4186957" lon="2.1253931">
        <ele>356.22988892</ele>
        <time>2022-10-30T11:15:32Z</time>
      </trkpt>
      <trkpt lat="41.4187307" lon="2.1253921">
        <ele>356.26989746</ele>
        <time>2022-10-30T11:15:33Z</time>
      </trkpt>
      <trkpt lat="41.4187646" lon="2.1253892">
        <ele>356.38989258</ele>
        <time>2022-10-30T11:15:34Z</time>
      </trkpt>
      <trkpt lat="41.4188006" lon="2.1253863">
        <ele>356.5098877</ele>
        <time>2022-10-30T11:15:35Z</time>
      </trkpt>
      <trkpt lat="41.4188475" lon="2.1253912">
        <ele>356.55987549</ele>
        <time>2022-10-30T11:15:36Z</time>
      </trkpt>
      <trkpt lat="41.4188825" lon="2.1253883">
        <ele>356.64987183</ele>
        <time>2022-10-30T11:15:37Z</time>
      </trkpt>
      <trkpt lat="41.4189185" lon="2.1253604">
        <ele>356.64987183</ele>
        <time>2022-10-30T11:15:38Z</time>
      </trkpt>
      <trkpt lat="41.4189405" lon="2.1253265">
        <ele>356.54986572</ele>
        <time>2022-10-30T11:15:39Z</time>
      </trkpt>
      <trkpt lat="41.4189554" lon="2.1252965">
        <ele>356.4798584</ele>
        <time>2022-10-30T11:15:40Z</time>
      </trkpt>
      <trkpt lat="41.4189843" lon="2.1252566">
        <ele>356.39987183</ele>
        <time>2022-10-30T11:15:41Z</time>
      </trkpt>
      <trkpt lat="41.4190023" lon="2.1252187">
        <ele>356.31988525</ele>
        <time>2022-10-30T11:15:42Z</time>
      </trkpt>
      <trkpt lat="41.4190232" lon="2.1251717">
        <ele>356.37988281</ele>
        <time>2022-10-30T11:15:43Z</time>
      </trkpt>
      <trkpt lat="41.4190502" lon="2.1251228">
        <ele>356.41989136</ele>
        <time>2022-10-30T11:15:44Z</time>
      </trkpt>
      <trkpt lat="41.4190752" lon="2.1250518">
        <ele>356.43988037</ele>
        <time>2022-10-30T11:15:45Z</time>
      </trkpt>
      <trkpt lat="41.4190931" lon="2.1249919">
        <ele>356.68988037</ele>
        <time>2022-10-30T11:15:46Z</time>
      </trkpt>
      <trkpt lat="41.419108" lon="2.1249469">
        <ele>356.81988525</ele>
        <time>2022-10-30T11:15:47Z</time>
      </trkpt>
      <trkpt lat="41.419118" lon="2.124904">
        <ele>356.99987793</ele>
        <time>2022-10-30T11:15:48Z</time>
      </trkpt>
      <trkpt lat="41.4191269" lon="2.124864">
        <ele>357.21987915</ele>
        <time>2022-10-30T11:15:49Z</time>
      </trkpt>
      <trkpt lat="41.4191539" lon="2.1248031">
        <ele>357.34988403</ele>
        <time>2022-10-30T11:15:50Z</time>
      </trkpt>
      <trkpt lat="41.4191788" lon="2.1247622">
        <ele>357.55987549</ele>
        <time>2022-10-30T11:15:51Z</time>
      </trkpt>
      <trkpt lat="41.4192068" lon="2.1247243">
        <ele>357.71987915</ele>
        <time>2022-10-30T11:15:52Z</time>
      </trkpt>
      <trkpt lat="41.4192338" lon="2.1246893">
        <ele>357.93988037</ele>
        <time>2022-10-30T11:15:53Z</time>
      </trkpt>
      <trkpt lat="41.4192427" lon="2.1246603">
        <ele>358.08987427</ele>
        <time>2022-10-30T11:15:54Z</time>
      </trkpt>
      <trkpt lat="41.4192607" lon="2.1246103">
        <ele>358.23986816</ele>
        <time>2022-10-30T11:15:55Z</time>
      </trkpt>
      <trkpt lat="41.4192806" lon="2.1245774">
        <ele>358.53985596</ele>
        <time>2022-10-30T11:15:56Z</time>
      </trkpt>
      <trkpt lat="41.4193086" lon="2.1245335">
        <ele>358.77984619</ele>
        <time>2022-10-30T11:15:57Z</time>
      </trkpt>
      <trkpt lat="41.4193435" lon="2.1245035">
        <ele>359.04983521</ele>
        <time>2022-10-30T11:15:58Z</time>
      </trkpt>
      <trkpt lat="41.4193985" lon="2.1244645">
        <ele>359.37982178</ele>
        <time>2022-10-30T11:15:59Z</time>
      </trkpt>
      <trkpt lat="41.4194435" lon="2.1244355">
        <ele>359.63983154</ele>
        <time>2022-10-30T11:16:00Z</time>
      </trkpt>
      <trkpt lat="41.4194904" lon="2.1244106">
        <ele>359.91983032</ele>
        <time>2022-10-30T11:16:01Z</time>
      </trkpt>
      <trkpt lat="41.4195304" lon="2.1244006">
        <ele>360.24981689</ele>
        <time>2022-10-30T11:16:02Z</time>
      </trkpt>
      <trkpt lat="41.4195713" lon="2.1243897">
        <ele>360.53982544</ele>
        <time>2022-10-30T11:16:03Z</time>
      </trkpt>
      <trkpt lat="41.4196052" lon="2.1244037">
        <ele>360.80981445</ele>
        <time>2022-10-30T11:16:04Z</time>
      </trkpt>
      <trkpt lat="41.4196232" lon="2.1244206">
        <ele>361.04980469</ele>
        <time>2022-10-30T11:16:05Z</time>
      </trkpt>
      <trkpt lat="41.4196431" lon="2.1244286">
        <ele>361.22979736</ele>
        <time>2022-10-30T11:16:06Z</time>
      </trkpt>
      <trkpt lat="41.4197" lon="2.1244375">
        <ele>361.38980103</ele>
        <time>2022-10-30T11:16:07Z</time>
      </trkpt>
      <trkpt lat="41.4197479" lon="2.1244494">
        <ele>361.53979492</ele>
        <time>2022-10-30T11:16:08Z</time>
      </trkpt>
      <trkpt lat="41.4197968" lon="2.1244504">
        <ele>361.6697998</ele>
        <time>2022-10-30T11:16:09Z</time>
      </trkpt>
      <trkpt lat="41.4198428" lon="2.1244543">
        <ele>361.85980225</ele>
        <time>2022-10-30T11:16:10Z</time>
      </trkpt>
      <trkpt lat="41.4198788" lon="2.1244464">
        <ele>361.93978882</ele>
        <time>2022-10-30T11:16:11Z</time>
      </trkpt>
      <trkpt lat="41.4199177" lon="2.1244394">
        <ele>361.92977905</ele>
        <time>2022-10-30T11:16:12Z</time>
      </trkpt>
      <trkpt lat="41.4199327" lon="2.1244453">
        <ele>361.90979004</ele>
        <time>2022-10-30T11:16:13Z</time>
      </trkpt>
      <trkpt lat="41.4199586" lon="2.1244553">
        <ele>361.6697998</ele>
        <time>2022-10-30T11:16:14Z</time>
      </trkpt>
      <trkpt lat="41.4199955" lon="2.1244494">
        <ele>361.57980347</ele>
        <time>2022-10-30T11:16:15Z</time>
      </trkpt>
      <trkpt lat="41.4200244" lon="2.1244504">
        <ele>361.59979248</ele>
        <time>2022-10-30T11:16:16Z</time>
      </trkpt>
      <trkpt lat="41.4200454" lon="2.1244504">
        <ele>361.64978027</ele>
        <time>2022-10-30T11:16:17Z</time>
      </trkpt>
      <trkpt lat="41.4200584" lon="2.1244664">
        <ele>361.72976685</ele>
        <time>2022-10-30T11:16:18Z</time>
      </trkpt>
      <trkpt lat="41.4200873" lon="2.1244594">
        <ele>361.79977417</ele>
        <time>2022-10-30T11:16:19Z</time>
      </trkpt>
      <trkpt lat="41.4201233" lon="2.1244575">
        <ele>361.76977539</ele>
        <time>2022-10-30T11:16:20Z</time>
      </trkpt>
      <trkpt lat="41.4201542" lon="2.1244594">
        <ele>361.72976685</ele>
        <time>2022-10-30T11:16:21Z</time>
      </trkpt>
      <trkpt lat="41.4201971" lon="2.1244843">
        <ele>361.66976929</ele>
        <time>2022-10-30T11:16:22Z</time>
      </trkpt>
      <trkpt lat="41.4202301" lon="2.1244892">
        <ele>361.50976562</ele>
        <time>2022-10-30T11:16:23Z</time>
      </trkpt>
      <trkpt lat="41.420269" lon="2.1245102">
        <ele>361.38977051</ele>
        <time>2022-10-30T11:16:24Z</time>
      </trkpt>
      <trkpt lat="41.420301" lon="2.1245492">
        <ele>361.19976807</ele>
        <time>2022-10-30T11:16:25Z</time>
      </trkpt>
      <trkpt lat="41.4203379" lon="2.1246141">
        <ele>361.13977051</ele>
        <time>2022-10-30T11:16:26Z</time>
      </trkpt>
      <trkpt lat="41.4203528" lon="2.124683">
        <ele>361.22976685</ele>
        <time>2022-10-30T11:16:27Z</time>
      </trkpt>
      <trkpt lat="41.4203578" lon="2.124751">
        <ele>361.20977783</ele>
        <time>2022-10-30T11:16:28Z</time>
      </trkpt>
      <trkpt lat="41.4203667" lon="2.1248109">
        <ele>361.24978638</ele>
        <time>2022-10-30T11:16:29Z</time>
      </trkpt>
      <trkpt lat="41.4203896" lon="2.1248958">
        <ele>361.24978638</ele>
        <time>2022-10-30T11:16:30Z</time>
      </trkpt>
      <trkpt lat="41.4204026" lon="2.1249518">
        <ele>361.19979858</ele>
        <time>2022-10-30T11:16:31Z</time>
      </trkpt>
      <trkpt lat="41.4204255" lon="2.1249897">
        <ele>361.2197876</ele>
        <time>2022-10-30T11:16:32Z</time>
      </trkpt>
      <trkpt lat="41.4204515" lon="2.1250336">
        <ele>361.22979736</ele>
        <time>2022-10-30T11:16:33Z</time>
      </trkpt>
      <trkpt lat="41.4204954" lon="2.1250696">
        <ele>361.23980713</ele>
        <time>2022-10-30T11:16:34Z</time>
      </trkpt>
      <trkpt lat="41.4205614" lon="2.1251225">
        <ele>361.19979858</ele>
        <time>2022-10-30T11:16:35Z</time>
      </trkpt>
      <trkpt lat="41.4206023" lon="2.1251645">
        <ele>361.12979126</ele>
        <time>2022-10-30T11:16:36Z</time>
      </trkpt>
      <trkpt lat="41.4206383" lon="2.1252024">
        <ele>360.90979004</ele>
        <time>2022-10-30T11:16:37Z</time>
      </trkpt>
      <trkpt lat="41.4206532" lon="2.1252553">
        <ele>360.76977539</ele>
        <time>2022-10-30T11:16:38Z</time>
      </trkpt>
      <trkpt lat="41.4206772" lon="2.1253122">
        <ele>360.66976929</ele>
        <time>2022-10-30T11:16:39Z</time>
      </trkpt>
      <trkpt lat="41.4206861" lon="2.1253512">
        <ele>360.59976196</ele>
        <time>2022-10-30T11:16:40Z</time>
      </trkpt>
      <trkpt lat="41.420698" lon="2.1253951">
        <ele>360.82977295</ele>
        <time>2022-10-30T11:16:41Z</time>
      </trkpt>
      <trkpt lat="41.420711" lon="2.1254371">
        <ele>361.01977539</ele>
        <time>2022-10-30T11:16:42Z</time>
      </trkpt>
      <trkpt lat="41.4207209" lon="2.12547">
        <ele>361.11978149</ele>
        <time>2022-10-30T11:16:43Z</time>
      </trkpt>
      <trkpt lat="41.4207499" lon="2.125523">
        <ele>361.30978394</ele>
        <time>2022-10-30T11:16:44Z</time>
      </trkpt>
      <trkpt lat="41.4207688" lon="2.1255569">
        <ele>361.43978882</ele>
        <time>2022-10-30T11:16:45Z</time>
      </trkpt>
      <trkpt lat="41.4207808" lon="2.1255919">
        <ele>361.58978271</ele>
        <time>2022-10-30T11:16:46Z</time>
      </trkpt>
      <trkpt lat="41.4207967" lon="2.1256328">
        <ele>361.85977173</ele>
        <time>2022-10-30T11:16:47Z</time>
      </trkpt>
      <trkpt lat="41.4208097" lon="2.1256667">
        <ele>362.09976196</ele>
        <time>2022-10-30T11:16:48Z</time>
      </trkpt>
      <trkpt lat="41.4208317" lon="2.1257057">
        <ele>362.37976074</ele>
        <time>2022-10-30T11:16:49Z</time>
      </trkpt>
      <trkpt lat="41.4208436" lon="2.1257297">
        <ele>362.60977173</ele>
        <time>2022-10-30T11:16:50Z</time>
      </trkpt>
      <trkpt lat="41.4208525" lon="2.1257486">
        <ele>362.82977295</ele>
        <time>2022-10-30T11:16:51Z</time>
      </trkpt>
      <trkpt lat="41.4208584" lon="2.1257457">
        <ele>363.02978516</ele>
        <time>2022-10-30T11:16:52Z</time>
      </trkpt>
      <trkpt lat="41.4208864" lon="2.1257906">
        <ele>363.10977173</ele>
        <time>2022-10-30T11:16:53Z</time>
      </trkpt>
      <trkpt lat="41.4208874" lon="2.1258146">
        <ele>363.2897644</ele>
        <time>2022-10-30T11:16:54Z</time>
      </trkpt>
      <trkpt lat="41.4208903" lon="2.1258306">
        <ele>363.54977417</ele>
        <time>2022-10-30T11:16:55Z</time>
      </trkpt>
      <trkpt lat="41.4208823" lon="2.1258406">
        <ele>363.82977295</ele>
        <time>2022-10-30T11:16:56Z</time>
      </trkpt>
      <trkpt lat="41.4208843" lon="2.1258905">
        <ele>364.14978027</ele>
        <time>2022-10-30T11:16:57Z</time>
      </trkpt>
      <trkpt lat="41.4208733" lon="2.1259234">
        <ele>364.4697876</ele>
        <time>2022-10-30T11:16:58Z</time>
      </trkpt>
      <trkpt lat="41.4208792" lon="2.1259684">
        <ele>364.69979858</ele>
        <time>2022-10-30T11:16:59Z</time>
      </trkpt>
      <trkpt lat="41.4208772" lon="2.1260104">
        <ele>364.89981079</ele>
        <time>2022-10-30T11:17:00Z</time>
      </trkpt>
      <trkpt lat="41.4208831" lon="2.1260524">
        <ele>365.14981079</ele>
        <time>2022-10-30T11:17:01Z</time>
      </trkpt>
      <trkpt lat="41.4208981" lon="2.1261134">
        <ele>365.35980225</ele>
        <time>2022-10-30T11:17:02Z</time>
      </trkpt>
      <trkpt lat="41.4209091" lon="2.1261313">
        <ele>365.62979126</ele>
        <time>2022-10-30T11:17:03Z</time>
      </trkpt>
      <trkpt lat="41.420922" lon="2.1261823">
        <ele>365.93978882</ele>
        <time>2022-10-30T11:17:04Z</time>
      </trkpt>
      <trkpt lat="41.420932" lon="2.1262273">
        <ele>366.1697998</ele>
        <time>2022-10-30T11:17:05Z</time>
      </trkpt>
      <trkpt lat="41.420951" lon="2.1262723">
        <ele>366.4197998</ele>
        <time>2022-10-30T11:17:06Z</time>
      </trkpt>
      <trkpt lat="41.4209649" lon="2.1263102">
        <ele>366.58981323</ele>
        <time>2022-10-30T11:17:07Z</time>
      </trkpt>
      <trkpt lat="41.4209839" lon="2.1263481">
        <ele>366.849823</ele>
        <time>2022-10-30T11:17:08Z</time>
      </trkpt>
      <trkpt lat="41.4210119" lon="2.126372">
        <ele>367.12982178</ele>
        <time>2022-10-30T11:17:09Z</time>
      </trkpt>
      <trkpt lat="41.4210439" lon="2.126396">
        <ele>367.349823</ele>
        <time>2022-10-30T11:17:10Z</time>
      </trkpt>
      <trkpt lat="41.4210818" lon="2.126431">
        <ele>367.60983276</ele>
        <time>2022-10-30T11:17:11Z</time>
      </trkpt>
      <trkpt lat="41.4210888" lon="2.1264799">
        <ele>367.81982422</ele>
        <time>2022-10-30T11:17:12Z</time>
      </trkpt>
      <trkpt lat="41.4211097" lon="2.1264948">
        <ele>367.95983887</ele>
        <time>2022-10-30T11:17:13Z</time>
      </trkpt>
      <trkpt lat="41.4211227" lon="2.1265128">
        <ele>368.15985107</ele>
        <time>2022-10-30T11:17:14Z</time>
      </trkpt>
      <trkpt lat="41.4211477" lon="2.1265367">
        <ele>368.41986084</ele>
        <time>2022-10-30T11:17:15Z</time>
      </trkpt>
      <trkpt lat="41.4211477" lon="2.1265727">
        <ele>368.62985229</ele>
        <time>2022-10-30T11:17:16Z</time>
      </trkpt>
      <trkpt lat="41.4211427" lon="2.1266256">
        <ele>368.94985962</ele>
        <time>2022-10-30T11:17:17Z</time>
      </trkpt>
      <trkpt lat="41.4211477" lon="2.1266535">
        <ele>369.23986816</ele>
        <time>2022-10-30T11:17:18Z</time>
      </trkpt>
      <trkpt lat="41.4211506" lon="2.1266555">
        <ele>369.50985718</ele>
        <time>2022-10-30T11:17:19Z</time>
      </trkpt>
      <trkpt lat="41.4211695" lon="2.1266664">
        <ele>369.76986694</ele>
        <time>2022-10-30T11:17:20Z</time>
      </trkpt>
      <trkpt lat="41.4211894" lon="2.1266774">
        <ele>369.99987793</ele>
        <time>2022-10-30T11:17:21Z</time>
      </trkpt>
      <trkpt lat="41.4212134" lon="2.1266724">
        <ele>370.22988892</ele>
        <time>2022-10-30T11:17:22Z</time>
      </trkpt>
      <trkpt lat="41.4212404" lon="2.1266485">
        <ele>370.37988281</ele>
        <time>2022-10-30T11:17:23Z</time>
      </trkpt>
      <trkpt lat="41.4212563" lon="2.1266135">
        <ele>370.49987793</ele>
        <time>2022-10-30T11:17:24Z</time>
      </trkpt>
      <trkpt lat="41.4212813" lon="2.1265525">
        <ele>370.5798645</ele>
        <time>2022-10-30T11:17:25Z</time>
      </trkpt>
      <trkpt lat="41.4212993" lon="2.1265026">
        <ele>370.5798645</ele>
        <time>2022-10-30T11:17:26Z</time>
      </trkpt>
      <trkpt lat="41.4213172" lon="2.1264527">
        <ele>370.54986572</ele>
        <time>2022-10-30T11:17:27Z</time>
      </trkpt>
      <trkpt lat="41.4213371" lon="2.1264148">
        <ele>370.54986572</ele>
        <time>2022-10-30T11:17:28Z</time>
      </trkpt>
      <trkpt lat="41.4213471" lon="2.1263549">
        <ele>370.54986572</ele>
        <time>2022-10-30T11:17:29Z</time>
      </trkpt>
      <trkpt lat="41.4213461" lon="2.1263109">
        <ele>370.59985352</ele>
        <time>2022-10-30T11:17:30Z</time>
      </trkpt>
      <trkpt lat="41.4213571" lon="2.1262599">
        <ele>370.71984863</ele>
        <time>2022-10-30T11:17:31Z</time>
      </trkpt>
      <trkpt lat="41.4213751" lon="2.126196">
        <ele>370.82983398</ele>
        <time>2022-10-30T11:17:32Z</time>
      </trkpt>
      <trkpt lat="41.421383" lon="2.1261">
        <ele>370.92984009</ele>
        <time>2022-10-30T11:17:33Z</time>
      </trkpt>
      <trkpt lat="41.421388" lon="2.126048">
        <ele>371.02984619</ele>
        <time>2022-10-30T11:17:34Z</time>
      </trkpt>
      <trkpt lat="41.4213841" lon="2.1259981">
        <ele>371.03985596</ele>
        <time>2022-10-30T11:17:35Z</time>
      </trkpt>
      <trkpt lat="41.4213821" lon="2.1259631">
        <ele>371.04986572</ele>
        <time>2022-10-30T11:17:36Z</time>
      </trkpt>
      <trkpt lat="41.4213642" lon="2.1259062">
        <ele>371.04986572</ele>
        <time>2022-10-30T11:17:37Z</time>
      </trkpt>
      <trkpt lat="41.4213282" lon="2.1258452">
        <ele>371.03985596</ele>
        <time>2022-10-30T11:17:38Z</time>
      </trkpt>
      <trkpt lat="41.4213002" lon="2.1258043">
        <ele>371.03985596</ele>
        <time>2022-10-30T11:17:39Z</time>
      </trkpt>
      <trkpt lat="41.4212743" lon="2.1257693">
        <ele>371.01986694</ele>
        <time>2022-10-30T11:17:40Z</time>
      </trkpt>
      <trkpt lat="41.4212553" lon="2.1257154">
        <ele>370.9798584</ele>
        <time>2022-10-30T11:17:41Z</time>
      </trkpt>
      <trkpt lat="41.4212333" lon="2.1256474">
        <ele>370.93984985</ele>
        <time>2022-10-30T11:17:42Z</time>
      </trkpt>
      <trkpt lat="41.4212094" lon="2.1255964">
        <ele>370.93984985</ele>
        <time>2022-10-30T11:17:43Z</time>
      </trkpt>
      <trkpt lat="41.4212034" lon="2.1255415">
        <ele>370.91986084</ele>
        <time>2022-10-30T11:17:44Z</time>
      </trkpt>
      <trkpt lat="41.4212084" lon="2.1254715">
        <ele>370.90985107</ele>
        <time>2022-10-30T11:17:45Z</time>
      </trkpt>
      <trkpt lat="41.4212184" lon="2.1254075">
        <ele>370.8298645</ele>
        <time>2022-10-30T11:17:46Z</time>
      </trkpt>
      <trkpt lat="41.4212544" lon="2.1253135">
        <ele>370.66986084</ele>
        <time>2022-10-30T11:17:47Z</time>
      </trkpt>
      <trkpt lat="41.4212833" lon="2.1252536">
        <ele>370.58987427</ele>
        <time>2022-10-30T11:17:48Z</time>
      </trkpt>
      <trkpt lat="41.4213172" lon="2.1251866">
        <ele>370.52987671</ele>
        <time>2022-10-30T11:17:49Z</time>
      </trkpt>
      <trkpt lat="41.4213481" lon="2.1251377">
        <ele>370.56988525</ele>
        <time>2022-10-30T11:17:50Z</time>
      </trkpt>
      <trkpt lat="41.421388" lon="2.1251077">
        <ele>370.69989014</ele>
        <time>2022-10-30T11:17:51Z</time>
      </trkpt>
      <trkpt lat="41.4214499" lon="2.1250498">
        <ele>370.81988525</ele>
        <time>2022-10-30T11:17:52Z</time>
      </trkpt>
      <trkpt lat="41.4214819" lon="2.1250058">
        <ele>370.9598999</ele>
        <time>2022-10-30T11:17:53Z</time>
      </trkpt>
      <trkpt lat="41.4215088" lon="2.1249679">
        <ele>371.0098877</ele>
        <time>2022-10-30T11:17:54Z</time>
      </trkpt>
      <trkpt lat="41.4215478" lon="2.124923">
        <ele>371.08987427</ele>
        <time>2022-10-30T11:17:55Z</time>
      </trkpt>
      <trkpt lat="41.4215978" lon="2.1248691">
        <ele>371.18988037</ele>
        <time>2022-10-30T11:17:56Z</time>
      </trkpt>
      <trkpt lat="41.4216338" lon="2.1248371">
        <ele>371.32989502</ele>
        <time>2022-10-30T11:17:57Z</time>
      </trkpt>
      <trkpt lat="41.4216618" lon="2.1248041">
        <ele>371.54989624</ele>
        <time>2022-10-30T11:17:58Z</time>
      </trkpt>
      <trkpt lat="41.4216967" lon="2.1247572">
        <ele>371.7098999</ele>
        <time>2022-10-30T11:17:59Z</time>
      </trkpt>
      <trkpt lat="41.4217417" lon="2.1246843">
        <ele>371.87991333</ele>
        <time>2022-10-30T11:18:00Z</time>
      </trkpt>
      <trkpt lat="41.4217637" lon="2.1246374">
        <ele>371.98989868</ele>
        <time>2022-10-30T11:18:01Z</time>
      </trkpt>
      <trkpt lat="41.4217696" lon="2.1245974">
        <ele>372.09988403</ele>
        <time>2022-10-30T11:18:02Z</time>
      </trkpt>
      <trkpt lat="41.4217735" lon="2.1245675">
        <ele>372.28988647</ele>
        <time>2022-10-30T11:18:03Z</time>
      </trkpt>
      <trkpt lat="41.4217735" lon="2.1245165">
        <ele>372.47988892</ele>
        <time>2022-10-30T11:18:04Z</time>
      </trkpt>
      <trkpt lat="41.4217666" lon="2.1244585">
        <ele>372.68988037</ele>
        <time>2022-10-30T11:18:05Z</time>
      </trkpt>
      <trkpt lat="41.4217656" lon="2.1244235">
        <ele>372.89987183</ele>
        <time>2022-10-30T11:18:06Z</time>
      </trkpt>
      <trkpt lat="41.4217696" lon="2.1243905">
        <ele>373.02987671</ele>
        <time>2022-10-30T11:18:07Z</time>
      </trkpt>
      <trkpt lat="41.4217696" lon="2.1243326">
        <ele>373.16989136</ele>
        <time>2022-10-30T11:18:08Z</time>
      </trkpt>
      <trkpt lat="41.4217286" lon="2.1242966">
        <ele>373.31988525</ele>
        <time>2022-10-30T11:18:09Z</time>
      </trkpt>
      <trkpt lat="41.4217087" lon="2.1242657">
        <ele>373.47988892</ele>
        <time>2022-10-30T11:18:10Z</time>
      </trkpt>
      <trkpt lat="41.4217078" lon="2.1242167">
        <ele>373.67990112</ele>
        <time>2022-10-30T11:18:11Z</time>
      </trkpt>
      <trkpt lat="41.4216968" lon="2.1241768">
        <ele>373.82989502</ele>
        <time>2022-10-30T11:18:12Z</time>
      </trkpt>
      <trkpt lat="41.4216948" lon="2.1241268">
        <ele>373.9598999</ele>
        <time>2022-10-30T11:18:13Z</time>
      </trkpt>
      <trkpt lat="41.4216779" lon="2.1240568">
        <ele>374.05990601</ele>
        <time>2022-10-30T11:18:14Z</time>
      </trkpt>
      <trkpt lat="41.4216639" lon="2.1240049">
        <ele>374.14990234</ele>
        <time>2022-10-30T11:18:15Z</time>
      </trkpt>
      <trkpt lat="41.421662" lon="2.1239599">
        <ele>374.29989624</ele>
        <time>2022-10-30T11:18:16Z</time>
      </trkpt>
      <trkpt lat="41.4216729" lon="2.123923">
        <ele>374.49990845</ele>
        <time>2022-10-30T11:18:17Z</time>
      </trkpt>
      <trkpt lat="41.4217319" lon="2.123884">
        <ele>374.77990723</ele>
        <time>2022-10-30T11:18:18Z</time>
      </trkpt>
      <trkpt lat="41.4217779" lon="2.123877">
        <ele>375.09991455</ele>
        <time>2022-10-30T11:18:19Z</time>
      </trkpt>
      <trkpt lat="41.4218169" lon="2.1238711">
        <ele>375.4598999</ele>
        <time>2022-10-30T11:18:20Z</time>
      </trkpt>
      <trkpt lat="41.4218528" lon="2.1238562">
        <ele>375.83990479</ele>
        <time>2022-10-30T11:18:21Z</time>
      </trkpt>
      <trkpt lat="41.4218858" lon="2.1238362">
        <ele>376.22991943</ele>
        <time>2022-10-30T11:18:22Z</time>
      </trkpt>
      <trkpt lat="41.4219278" lon="2.1238292">
        <ele>376.58990479</ele>
        <time>2022-10-30T11:18:23Z</time>
      </trkpt>
      <trkpt lat="41.4219677" lon="2.1238092">
        <ele>376.98989868</ele>
        <time>2022-10-30T11:18:24Z</time>
      </trkpt>
      <trkpt lat="41.4219967" lon="2.1237923">
        <ele>377.39990234</ele>
        <time>2022-10-30T11:18:25Z</time>
      </trkpt>
      <trkpt lat="41.4220246" lon="2.1237633">
        <ele>377.79989624</ele>
        <time>2022-10-30T11:18:26Z</time>
      </trkpt>
      <trkpt lat="41.4220566" lon="2.1237384">
        <ele>378.23989868</ele>
        <time>2022-10-30T11:18:27Z</time>
      </trkpt>
      <trkpt lat="41.4220775" lon="2.1237154">
        <ele>378.64990234</ele>
        <time>2022-10-30T11:18:28Z</time>
      </trkpt>
      <trkpt lat="41.4221025" lon="2.1236954">
        <ele>379.06991577</ele>
        <time>2022-10-30T11:18:29Z</time>
      </trkpt>
      <trkpt lat="41.4221275" lon="2.1236625">
        <ele>379.43991089</ele>
        <time>2022-10-30T11:18:30Z</time>
      </trkpt>
      <trkpt lat="41.4221495" lon="2.1236325">
        <ele>379.81991577</ele>
        <time>2022-10-30T11:18:31Z</time>
      </trkpt>
      <trkpt lat="41.4221834" lon="2.1235845">
        <ele>380.18991089</ele>
        <time>2022-10-30T11:18:32Z</time>
      </trkpt>
      <trkpt lat="41.4222024" lon="2.1235555">
        <ele>380.53991699</ele>
        <time>2022-10-30T11:18:33Z</time>
      </trkpt>
      <trkpt lat="41.4222193" lon="2.1235316">
        <ele>380.86990356</ele>
        <time>2022-10-30T11:18:34Z</time>
      </trkpt>
      <trkpt lat="41.4222383" lon="2.1235007">
        <ele>381.22988892</ele>
        <time>2022-10-30T11:18:35Z</time>
      </trkpt>
      <trkpt lat="41.4222642" lon="2.1234527">
        <ele>381.52987671</ele>
        <time>2022-10-30T11:18:36Z</time>
      </trkpt>
      <trkpt lat="41.4222801" lon="2.1234367">
        <ele>381.86987305</ele>
        <time>2022-10-30T11:18:37Z</time>
      </trkpt>
      <trkpt lat="41.4222931" lon="2.1234178">
        <ele>382.18988037</ele>
        <time>2022-10-30T11:18:38Z</time>
      </trkpt>
      <trkpt lat="41.422316" lon="2.1233978">
        <ele>382.49987793</ele>
        <time>2022-10-30T11:18:39Z</time>
      </trkpt>
      <trkpt lat="41.4223469" lon="2.1233609">
        <ele>382.8298645</ele>
        <time>2022-10-30T11:18:40Z</time>
      </trkpt>
      <trkpt lat="41.4223719" lon="2.1233249">
        <ele>383.09985352</ele>
        <time>2022-10-30T11:18:41Z</time>
      </trkpt>
      <trkpt lat="41.4224019" lon="2.1233049">
        <ele>383.40985107</ele>
        <time>2022-10-30T11:18:42Z</time>
      </trkpt>
      <trkpt lat="41.4224239" lon="2.123284">
        <ele>383.71984863</ele>
        <time>2022-10-30T11:18:43Z</time>
      </trkpt>
      <trkpt lat="41.4224448" lon="2.1232461">
        <ele>384.04983521</ele>
        <time>2022-10-30T11:18:44Z</time>
      </trkpt>
      <trkpt lat="41.4224767" lon="2.1231802">
        <ele>384.39984131</ele>
        <time>2022-10-30T11:18:45Z</time>
      </trkpt>
      <trkpt lat="41.4224767" lon="2.1231452">
        <ele>384.76983643</ele>
        <time>2022-10-30T11:18:46Z</time>
      </trkpt>
      <trkpt lat="41.4224817" lon="2.1231022">
        <ele>385.03982544</ele>
        <time>2022-10-30T11:18:47Z</time>
      </trkpt>
      <trkpt lat="41.4224917" lon="2.1230723">
        <ele>385.30981445</ele>
        <time>2022-10-30T11:18:48Z</time>
      </trkpt>
      <trkpt lat="41.4225016" lon="2.1230403">
        <ele>385.64981079</ele>
        <time>2022-10-30T11:18:49Z</time>
      </trkpt>
      <trkpt lat="41.4225286" lon="2.1229964">
        <ele>385.90982056</ele>
        <time>2022-10-30T11:18:50Z</time>
      </trkpt>
      <trkpt lat="41.4225355" lon="2.1229724">
        <ele>386.29983521</ele>
        <time>2022-10-30T11:18:51Z</time>
      </trkpt>
      <trkpt lat="41.4225375" lon="2.1229335">
        <ele>386.61984253</ele>
        <time>2022-10-30T11:18:52Z</time>
      </trkpt>
      <trkpt lat="41.4225445" lon="2.1229045">
        <ele>386.88983154</ele>
        <time>2022-10-30T11:18:53Z</time>
      </trkpt>
      <trkpt lat="41.4225814" lon="2.1228365">
        <ele>387.20983887</ele>
        <time>2022-10-30T11:18:54Z</time>
      </trkpt>
      <trkpt lat="41.4226013" lon="2.1228056">
        <ele>387.45983887</ele>
        <time>2022-10-30T11:18:55Z</time>
      </trkpt>
      <trkpt lat="41.4226203" lon="2.1227726">
        <ele>387.73983765</ele>
        <time>2022-10-30T11:18:56Z</time>
      </trkpt>
      <trkpt lat="41.4226372" lon="2.1227317">
        <ele>388.03982544</ele>
        <time>2022-10-30T11:18:57Z</time>
      </trkpt>
      <trkpt lat="41.4226521" lon="2.1226938">
        <ele>388.349823</ele>
        <time>2022-10-30T11:18:58Z</time>
      </trkpt>
      <trkpt lat="41.422704" lon="2.1226439">
        <ele>388.60983276</ele>
        <time>2022-10-30T11:18:59Z</time>
      </trkpt>
      <trkpt lat="41.422748" lon="2.1226139">
        <ele>388.87982178</ele>
        <time>2022-10-30T11:19:00Z</time>
      </trkpt>
      <trkpt lat="41.422778" lon="2.12261">
        <ele>389.16983032</ele>
        <time>2022-10-30T11:19:01Z</time>
      </trkpt>
      <trkpt lat="41.4227799" lon="2.122588">
        <ele>389.45983887</ele>
        <time>2022-10-30T11:19:02Z</time>
      </trkpt>
      <trkpt lat="41.4228229" lon="2.122589">
        <ele>389.81982422</ele>
        <time>2022-10-30T11:19:03Z</time>
      </trkpt>
      <trkpt lat="41.4228458" lon="2.1225871">
        <ele>390.16983032</ele>
        <time>2022-10-30T11:19:04Z</time>
      </trkpt>
      <trkpt lat="41.4228637" lon="2.1225842">
        <ele>390.48983765</ele>
        <time>2022-10-30T11:19:05Z</time>
      </trkpt>
      <trkpt lat="41.4229067" lon="2.1225672">
        <ele>390.80984497</ele>
        <time>2022-10-30T11:19:06Z</time>
      </trkpt>
      <trkpt lat="41.4229496" lon="2.1225632">
        <ele>391.08984375</ele>
        <time>2022-10-30T11:19:07Z</time>
      </trkpt>
      <trkpt lat="41.4230265" lon="2.1225353">
        <ele>391.46984863</ele>
        <time>2022-10-30T11:19:08Z</time>
      </trkpt>
      <trkpt lat="41.4230595" lon="2.1225214">
        <ele>391.83984375</ele>
        <time>2022-10-30T11:19:09Z</time>
      </trkpt>
      <trkpt lat="41.4230895" lon="2.1225154">
        <ele>392.2298584</ele>
        <time>2022-10-30T11:19:10Z</time>
      </trkpt>
      <trkpt lat="41.4231224" lon="2.1225065">
        <ele>392.65985107</ele>
        <time>2022-10-30T11:19:11Z</time>
      </trkpt>
      <trkpt lat="41.4231484" lon="2.1225165">
        <ele>393.04986572</ele>
        <time>2022-10-30T11:19:12Z</time>
      </trkpt>
      <trkpt lat="41.4232113" lon="2.1225136">
        <ele>393.42987061</ele>
        <time>2022-10-30T11:19:13Z</time>
      </trkpt>
      <trkpt lat="41.4232622" lon="2.1225136">
        <ele>393.77987671</ele>
        <time>2022-10-30T11:19:14Z</time>
      </trkpt>
      <trkpt lat="41.4232752" lon="2.1225635">
        <ele>394.15988159</ele>
        <time>2022-10-30T11:19:15Z</time>
      </trkpt>
      <trkpt lat="41.4233041" lon="2.1225895">
        <ele>394.53988647</ele>
        <time>2022-10-30T11:19:16Z</time>
      </trkpt>
      <trkpt lat="41.42331" lon="2.1226595">
        <ele>394.89987183</ele>
        <time>2022-10-30T11:19:17Z</time>
      </trkpt>
      <trkpt lat="41.423328" lon="2.1226964">
        <ele>395.21987915</ele>
        <time>2022-10-30T11:19:18Z</time>
      </trkpt>
      <trkpt lat="41.4233439" lon="2.1227374">
        <ele>395.40988159</ele>
        <time>2022-10-30T11:19:19Z</time>
      </trkpt>
      <trkpt lat="41.4233769" lon="2.1227534">
        <ele>395.58987427</ele>
        <time>2022-10-30T11:19:20Z</time>
      </trkpt>
      <trkpt lat="41.4234118" lon="2.1227953">
        <ele>395.67987061</ele>
        <time>2022-10-30T11:19:21Z</time>
      </trkpt>
      <trkpt lat="41.4234338" lon="2.1228273">
        <ele>395.78985596</ele>
        <time>2022-10-30T11:19:22Z</time>
      </trkpt>
      <trkpt lat="41.4234507" lon="2.1228513">
        <ele>395.9798584</ele>
        <time>2022-10-30T11:19:23Z</time>
      </trkpt>
      <trkpt lat="41.4234507" lon="2.1228652">
        <ele>396.11987305</ele>
        <time>2022-10-30T11:19:24Z</time>
      </trkpt>
      <trkpt lat="41.4234697" lon="2.1228582">
        <ele>396.39987183</ele>
        <time>2022-10-30T11:19:25Z</time>
      </trkpt>
      <trkpt lat="41.4235096" lon="2.1228602">
        <ele>396.68988037</ele>
        <time>2022-10-30T11:19:26Z</time>
      </trkpt>
      <trkpt lat="41.4235516" lon="2.1228691">
        <ele>396.95986938</ele>
        <time>2022-10-30T11:19:27Z</time>
      </trkpt>
      <trkpt lat="41.4235796" lon="2.1228821">
        <ele>397.28985596</ele>
        <time>2022-10-30T11:19:28Z</time>
      </trkpt>
      <trkpt lat="41.4235846" lon="2.122897">
        <ele>397.54986572</ele>
        <time>2022-10-30T11:19:29Z</time>
      </trkpt>
      <trkpt lat="41.4236096" lon="2.122939">
        <ele>397.86987305</ele>
        <time>2022-10-30T11:19:30Z</time>
      </trkpt>
      <trkpt lat="41.4236385" lon="2.1229729">
        <ele>398.24987793</ele>
        <time>2022-10-30T11:19:31Z</time>
      </trkpt>
      <trkpt lat="41.4236564" lon="2.1230119">
        <ele>398.5798645</ele>
        <time>2022-10-30T11:19:32Z</time>
      </trkpt>
      <trkpt lat="41.4236644" lon="2.1230588">
        <ele>398.93984985</ele>
        <time>2022-10-30T11:19:33Z</time>
      </trkpt>
      <trkpt lat="41.4236764" lon="2.1230988">
        <ele>399.24984741</ele>
        <time>2022-10-30T11:19:34Z</time>
      </trkpt>
      <trkpt lat="41.4236963" lon="2.1231487">
        <ele>399.4798584</ele>
        <time>2022-10-30T11:19:35Z</time>
      </trkpt>
      <trkpt lat="41.4237142" lon="2.1231807">
        <ele>399.68984985</ele>
        <time>2022-10-30T11:19:36Z</time>
      </trkpt>
      <trkpt lat="41.4237302" lon="2.1232176">
        <ele>399.8298645</ele>
        <time>2022-10-30T11:19:37Z</time>
      </trkpt>
      <trkpt lat="41.4237501" lon="2.1232546">
        <ele>399.94985962</ele>
        <time>2022-10-30T11:19:38Z</time>
      </trkpt>
      <trkpt lat="41.4237721" lon="2.1232925">
        <ele>400.0798645</ele>
        <time>2022-10-30T11:19:39Z</time>
      </trkpt>
      <trkpt lat="41.423816" lon="2.1233584">
        <ele>400.2298584</ele>
        <time>2022-10-30T11:19:40Z</time>
      </trkpt>
      <trkpt lat="41.423842" lon="2.1233953">
        <ele>400.37985229</ele>
        <time>2022-10-30T11:19:41Z</time>
      </trkpt>
      <trkpt lat="41.4238729" lon="2.1234232">
        <ele>400.59985352</ele>
        <time>2022-10-30T11:19:42Z</time>
      </trkpt>
      <trkpt lat="41.4239018" lon="2.1234522">
        <ele>400.83984375</ele>
        <time>2022-10-30T11:19:43Z</time>
      </trkpt>
      <trkpt lat="41.4239408" lon="2.1234892">
        <ele>401.12985229</ele>
        <time>2022-10-30T11:19:44Z</time>
      </trkpt>
      <trkpt lat="41.4239688" lon="2.1234961">
        <ele>401.43984985</ele>
        <time>2022-10-30T11:19:45Z</time>
      </trkpt>
      <trkpt lat="41.4239867" lon="2.1235171">
        <ele>401.70983887</ele>
        <time>2022-10-30T11:19:46Z</time>
      </trkpt>
      <trkpt lat="41.4240186" lon="2.123522">
        <ele>401.9498291</ele>
        <time>2022-10-30T11:19:47Z</time>
      </trkpt>
      <trkpt lat="41.4240576" lon="2.1235171">
        <ele>402.1998291</ele>
        <time>2022-10-30T11:19:48Z</time>
      </trkpt>
      <trkpt lat="41.4241146" lon="2.1235082">
        <ele>402.43981934</ele>
        <time>2022-10-30T11:19:49Z</time>
      </trkpt>
      <trkpt lat="41.4241455" lon="2.1235062">
        <ele>402.63983154</ele>
        <time>2022-10-30T11:19:50Z</time>
      </trkpt>
      <trkpt lat="41.4241735" lon="2.1235102">
        <ele>402.92984009</ele>
        <time>2022-10-30T11:19:51Z</time>
      </trkpt>
      <trkpt lat="41.4241974" lon="2.1235092">
        <ele>403.22982788</ele>
        <time>2022-10-30T11:19:52Z</time>
      </trkpt>
      <trkpt lat="41.4242414" lon="2.1234932">
        <ele>403.60983276</ele>
        <time>2022-10-30T11:19:53Z</time>
      </trkpt>
      <trkpt lat="41.4242733" lon="2.1234853">
        <ele>404.04983521</ele>
        <time>2022-10-30T11:19:54Z</time>
      </trkpt>
      <trkpt lat="41.4243072" lon="2.1234693">
        <ele>404.50982666</ele>
        <time>2022-10-30T11:19:55Z</time>
      </trkpt>
      <trkpt lat="41.4243441" lon="2.1234363">
        <ele>404.92984009</ele>
        <time>2022-10-30T11:19:56Z</time>
      </trkpt>
      <trkpt lat="41.424398" lon="2.1233853">
        <ele>405.38983154</ele>
        <time>2022-10-30T11:19:57Z</time>
      </trkpt>
      <trkpt lat="41.424433" lon="2.1233644">
        <ele>405.82983398</ele>
        <time>2022-10-30T11:19:58Z</time>
      </trkpt>
      <trkpt lat="41.4244709" lon="2.1233344">
        <ele>406.22982788</ele>
        <time>2022-10-30T11:19:59Z</time>
      </trkpt>
      <trkpt lat="41.4245089" lon="2.1233155">
        <ele>406.72982788</ele>
        <time>2022-10-30T11:20:00Z</time>
      </trkpt>
      <trkpt lat="41.4245479" lon="2.1233155">
        <ele>407.1998291</ele>
        <time>2022-10-30T11:20:01Z</time>
      </trkpt>
      <trkpt lat="41.424562" lon="2.123312">
        <ele>408.58999634</ele>
        <time>2022-10-30T11:20:01Z</time>
      </trkpt>
      <trkpt lat="41.4245909" lon="2.123314">
        <ele>409.10998535</ele>
        <time>2022-10-30T11:20:02Z</time>
      </trkpt>
      <trkpt lat="41.4246159" lon="2.1233169">
        <ele>409.10998535</ele>
        <time>2022-10-30T11:20:03Z</time>
      </trkpt>
      <trkpt lat="41.4246728" lon="2.1233308">
        <ele>410.20999146</ele>
        <time>2022-10-30T11:20:04Z</time>
      </trkpt>
      <trkpt lat="41.4247108" lon="2.1233337">
        <ele>410.72998047</ele>
        <time>2022-10-30T11:20:05Z</time>
      </trkpt>
      <trkpt lat="41.4247507" lon="2.1233248">
        <ele>411.29998779</ele>
        <time>2022-10-30T11:20:06Z</time>
      </trkpt>
      <trkpt lat="41.4248156" lon="2.1233139">
        <ele>411.78997803</ele>
        <time>2022-10-30T11:20:07Z</time>
      </trkpt>
      <trkpt lat="41.4248626" lon="2.1233089">
        <ele>412.31997681</ele>
        <time>2022-10-30T11:20:08Z</time>
      </trkpt>
      <trkpt lat="41.4249016" lon="2.123301">
        <ele>412.85998535</ele>
        <time>2022-10-30T11:20:09Z</time>
      </trkpt>
      <trkpt lat="41.4249585" lon="2.1232791">
        <ele>413.31997681</ele>
        <time>2022-10-30T11:20:10Z</time>
      </trkpt>
      <trkpt lat="41.4249924" lon="2.1232691">
        <ele>413.75997925</ele>
        <time>2022-10-30T11:20:11Z</time>
      </trkpt>
      <trkpt lat="41.4250303" lon="2.1232521">
        <ele>414.16998291</ele>
        <time>2022-10-30T11:20:12Z</time>
      </trkpt>
      <trkpt lat="41.4250663" lon="2.1232372">
        <ele>414.49996948</ele>
        <time>2022-10-30T11:20:13Z</time>
      </trkpt>
      <trkpt lat="41.4250933" lon="2.1232202">
        <ele>414.7699585</ele>
        <time>2022-10-30T11:20:14Z</time>
      </trkpt>
      <trkpt lat="41.4251433" lon="2.1232173">
        <ele>415.08996582</ele>
        <time>2022-10-30T11:20:15Z</time>
      </trkpt>
      <trkpt lat="41.4251792" lon="2.1232202">
        <ele>415.38995361</ele>
        <time>2022-10-30T11:20:16Z</time>
      </trkpt>
      <trkpt lat="41.4252182" lon="2.1232412">
        <ele>415.75994873</ele>
        <time>2022-10-30T11:20:17Z</time>
      </trkpt>
      <trkpt lat="41.4252512" lon="2.1232501">
        <ele>416.25994873</ele>
        <time>2022-10-30T11:20:18Z</time>
      </trkpt>
      <trkpt lat="41.4252801" lon="2.123258">
        <ele>416.72994995</ele>
        <time>2022-10-30T11:20:19Z</time>
      </trkpt>
      <trkpt lat="41.425328" lon="2.123266">
        <ele>417.23995972</ele>
        <time>2022-10-30T11:20:20Z</time>
      </trkpt>
      <trkpt lat="41.4253589" lon="2.123273">
        <ele>417.69995117</ele>
        <time>2022-10-30T11:20:21Z</time>
      </trkpt>
      <trkpt lat="41.4253849" lon="2.1232949">
        <ele>418.16995239</ele>
        <time>2022-10-30T11:20:22Z</time>
      </trkpt>
      <trkpt lat="41.4254108" lon="2.1233188">
        <ele>418.66995239</ele>
        <time>2022-10-30T11:20:23Z</time>
      </trkpt>
      <trkpt lat="41.4254558" lon="2.1233467">
        <ele>419.20996094</ele>
        <time>2022-10-30T11:20:24Z</time>
      </trkpt>
      <trkpt lat="41.4254827" lon="2.1233637">
        <ele>419.74996948</ele>
        <time>2022-10-30T11:20:25Z</time>
      </trkpt>
      <trkpt lat="41.4255087" lon="2.1233876">
        <ele>420.22998047</ele>
        <time>2022-10-30T11:20:26Z</time>
      </trkpt>
      <trkpt lat="41.4255496" lon="2.1233986">
        <ele>420.65997314</ele>
        <time>2022-10-30T11:20:27Z</time>
      </trkpt>
      <trkpt lat="41.4255916" lon="2.1234116">
        <ele>421.04998779</ele>
        <time>2022-10-30T11:20:28Z</time>
      </trkpt>
      <trkpt lat="41.4256255" lon="2.1234165">
        <ele>421.44000244</ele>
        <time>2022-10-30T11:20:29Z</time>
      </trkpt>
      <trkpt lat="41.4256734" lon="2.1234086">
        <ele>421.79000854</ele>
        <time>2022-10-30T11:20:30Z</time>
      </trkpt>
      <trkpt lat="41.4257213" lon="2.1234006">
        <ele>422.18002319</ele>
        <time>2022-10-30T11:20:31Z</time>
      </trkpt>
      <trkpt lat="41.4257593" lon="2.1233987">
        <ele>422.79000854</ele>
        <time>2022-10-30T11:20:32Z</time>
      </trkpt>
      <trkpt lat="41.4258162" lon="2.1233907">
        <ele>423.27001953</ele>
        <time>2022-10-30T11:20:33Z</time>
      </trkpt>
      <trkpt lat="41.4258501" lon="2.1233808">
        <ele>423.72003174</ele>
        <time>2022-10-30T11:20:34Z</time>
      </trkpt>
      <trkpt lat="41.4258781" lon="2.1233768">
        <ele>424.10003662</ele>
        <time>2022-10-30T11:20:35Z</time>
      </trkpt>
      <trkpt lat="41.425915" lon="2.1233787">
        <ele>424.30004883</ele>
        <time>2022-10-30T11:20:36Z</time>
      </trkpt>
      <trkpt lat="41.4259859" lon="2.1234117">
        <ele>424.68005371</ele>
        <time>2022-10-30T11:20:37Z</time>
      </trkpt>
      <trkpt lat="41.4260168" lon="2.1234256">
        <ele>425.11004639</ele>
        <time>2022-10-30T11:20:38Z</time>
      </trkpt>
      <trkpt lat="41.4260477" lon="2.1234445">
        <ele>425.59005737</ele>
        <time>2022-10-30T11:20:39Z</time>
      </trkpt>
      <trkpt lat="41.4260847" lon="2.1234495">
        <ele>426.0100708</ele>
        <time>2022-10-30T11:20:40Z</time>
      </trkpt>
      <trkpt lat="41.4261196" lon="2.1234565">
        <ele>426.42007446</ele>
        <time>2022-10-30T11:20:41Z</time>
      </trkpt>
      <trkpt lat="41.4261455" lon="2.1234855">
        <ele>426.80007935</ele>
        <time>2022-10-30T11:20:42Z</time>
      </trkpt>
      <trkpt lat="41.4261695" lon="2.1235234">
        <ele>427.20007324</ele>
        <time>2022-10-30T11:20:43Z</time>
      </trkpt>
      <trkpt lat="41.4262115" lon="2.1235573">
        <ele>427.70007324</ele>
        <time>2022-10-30T11:20:44Z</time>
      </trkpt>
      <trkpt lat="41.4262284" lon="2.1235963">
        <ele>428.12008667</ele>
        <time>2022-10-30T11:20:45Z</time>
      </trkpt>
      <trkpt lat="41.4262523" lon="2.1236452">
        <ele>428.6100769</ele>
        <time>2022-10-30T11:20:46Z</time>
      </trkpt>
      <trkpt lat="41.4262813" lon="2.1237111">
        <ele>429.09008789</ele>
        <time>2022-10-30T11:20:47Z</time>
      </trkpt>
      <trkpt lat="41.4263063" lon="2.1237561">
        <ele>429.56008911</ele>
        <time>2022-10-30T11:20:48Z</time>
      </trkpt>
      <trkpt lat="41.4263312" lon="2.1237961">
        <ele>430.07009888</ele>
        <time>2022-10-30T11:20:49Z</time>
      </trkpt>
      <trkpt lat="41.4263642" lon="2.123832">
        <ele>430.48010254</ele>
        <time>2022-10-30T11:20:50Z</time>
      </trkpt>
      <trkpt lat="41.4264142" lon="2.123868">
        <ele>430.92010498</ele>
        <time>2022-10-30T11:20:51Z</time>
      </trkpt>
      <trkpt lat="41.4264491" lon="2.1238899">
        <ele>431.20010376</ele>
        <time>2022-10-30T11:20:52Z</time>
      </trkpt>
      <trkpt lat="41.4264851" lon="2.1239108">
        <ele>431.46011353</ele>
        <time>2022-10-30T11:20:53Z</time>
      </trkpt>
      <trkpt lat="41.4265061" lon="2.1239328">
        <ele>431.7401123</ele>
        <time>2022-10-30T11:20:54Z</time>
      </trkpt>
      <trkpt lat="41.426531" lon="2.1239487">
        <ele>431.91012573</ele>
        <time>2022-10-30T11:20:55Z</time>
      </trkpt>
      <trkpt lat="41.426587" lon="2.1239837">
        <ele>432.03012085</ele>
        <time>2022-10-30T11:20:56Z</time>
      </trkpt>
      <trkpt lat="41.426623" lon="2.1239917">
        <ele>432.05010986</ele>
        <time>2022-10-30T11:20:57Z</time>
      </trkpt>
      <trkpt lat="41.426656" lon="2.1240017">
        <ele>431.98010254</ele>
        <time>2022-10-30T11:20:58Z</time>
      </trkpt>
      <trkpt lat="41.4266799" lon="2.1239967">
        <ele>431.85009766</ele>
        <time>2022-10-30T11:20:59Z</time>
      </trkpt>
      <trkpt lat="41.4267099" lon="2.1239718">
        <ele>431.72009277</ele>
        <time>2022-10-30T11:21:00Z</time>
      </trkpt>
      <trkpt lat="41.4267778" lon="2.1239259">
        <ele>431.56008911</ele>
        <time>2022-10-30T11:21:01Z</time>
      </trkpt>
      <trkpt lat="41.4268147" lon="2.123888">
        <ele>431.45010376</ele>
        <time>2022-10-30T11:21:02Z</time>
      </trkpt>
      <trkpt lat="41.4268397" lon="2.1238501">
        <ele>431.2901001</ele>
        <time>2022-10-30T11:21:03Z</time>
      </trkpt>
      <trkpt lat="41.4268577" lon="2.1237911">
        <ele>431.15008545</ele>
        <time>2022-10-30T11:21:04Z</time>
      </trkpt>
      <trkpt lat="41.4268766" lon="2.1236962">
        <ele>431.08007812</ele>
        <time>2022-10-30T11:21:05Z</time>
      </trkpt>
      <trkpt lat="41.4268916" lon="2.1236533">
        <ele>430.94006348</ele>
        <time>2022-10-30T11:21:06Z</time>
      </trkpt>
      <trkpt lat="41.4269125" lon="2.1236013">
        <ele>430.80004883</ele>
        <time>2022-10-30T11:21:07Z</time>
      </trkpt>
      <trkpt lat="41.4269335" lon="2.1235713">
        <ele>430.70004272</ele>
        <time>2022-10-30T11:21:08Z</time>
      </trkpt>
      <trkpt lat="41.4269734" lon="2.1235284">
        <ele>430.50003052</ele>
        <time>2022-10-30T11:21:09Z</time>
      </trkpt>
      <trkpt lat="41.4269984" lon="2.1234905">
        <ele>430.33001709</ele>
        <time>2022-10-30T11:21:10Z</time>
      </trkpt>
      <trkpt lat="41.4270223" lon="2.1234696">
        <ele>430.15002441</ele>
        <time>2022-10-30T11:21:11Z</time>
      </trkpt>
      <trkpt lat="41.4270452" lon="2.1234346">
        <ele>429.93002319</ele>
        <time>2022-10-30T11:21:12Z</time>
      </trkpt>
      <trkpt lat="41.4270732" lon="2.1233856">
        <ele>429.72003174</ele>
        <time>2022-10-30T11:21:13Z</time>
      </trkpt>
      <trkpt lat="41.4270912" lon="2.1233556">
        <ele>429.59002686</ele>
        <time>2022-10-30T11:21:14Z</time>
      </trkpt>
      <trkpt lat="41.4270992" lon="2.1233396">
        <ele>429.56002808</ele>
        <time>2022-10-30T11:21:15Z</time>
      </trkpt>
      <trkpt lat="41.4270992" lon="2.1233377">
        <ele>429.54003906</ele>
        <time>2022-10-30T11:21:16Z</time>
      </trkpt>
      <trkpt lat="41.427103" lon="2.123338">
        <ele>429.73999023</ele>
        <time>2022-10-30T11:21:16Z</time>
      </trkpt>
      <trkpt lat="41.4271129" lon="2.123339">
        <ele>429.83999634</ele>
        <time>2022-10-30T11:21:18Z</time>
      </trkpt>
      <trkpt lat="41.4271479" lon="2.123337">
        <ele>429.79000854</ele>
        <time>2022-10-30T11:21:19Z</time>
      </trkpt>
      <trkpt lat="41.4271788" lon="2.1233331">
        <ele>429.66000366</ele>
        <time>2022-10-30T11:21:20Z</time>
      </trkpt>
      <trkpt lat="41.4272208" lon="2.123336">
        <ele>429.45001221</ele>
        <time>2022-10-30T11:21:21Z</time>
      </trkpt>
      <trkpt lat="41.4272628" lon="2.1233419">
        <ele>429.24002075</ele>
        <time>2022-10-30T11:21:22Z</time>
      </trkpt>
      <trkpt lat="41.4273277" lon="2.1233519">
        <ele>428.98001099</ele>
        <time>2022-10-30T11:21:23Z</time>
      </trkpt>
      <trkpt lat="41.4273826" lon="2.1233509">
        <ele>428.69000244</ele>
        <time>2022-10-30T11:21:24Z</time>
      </trkpt>
      <trkpt lat="41.4274466" lon="2.1233439">
        <ele>428.39001465</ele>
        <time>2022-10-30T11:21:25Z</time>
      </trkpt>
      <trkpt lat="41.4275035" lon="2.1233528">
        <ele>427.99002075</ele>
        <time>2022-10-30T11:21:26Z</time>
      </trkpt>
      <trkpt lat="41.4275914" lon="2.1233698">
        <ele>427.55001831</ele>
        <time>2022-10-30T11:21:27Z</time>
      </trkpt>
      <trkpt lat="41.4276584" lon="2.1233717">
        <ele>427.16000366</ele>
        <time>2022-10-30T11:21:28Z</time>
      </trkpt>
      <trkpt lat="41.4277324" lon="2.1233727">
        <ele>426.70999146</ele>
        <time>2022-10-30T11:21:29Z</time>
      </trkpt>
      <trkpt lat="41.4278083" lon="2.1233737">
        <ele>426.27999878</ele>
        <time>2022-10-30T11:21:30Z</time>
      </trkpt>
      <trkpt lat="41.4278902" lon="2.1233766">
        <ele>425.80999756</ele>
        <time>2022-10-30T11:21:31Z</time>
      </trkpt>
      <trkpt lat="41.4280121" lon="2.1233756">
        <ele>425.23001099</ele>
        <time>2022-10-30T11:21:32Z</time>
      </trkpt>
      <trkpt lat="41.4280961" lon="2.1233766">
        <ele>424.58001709</ele>
        <time>2022-10-30T11:21:33Z</time>
      </trkpt>
      <trkpt lat="41.428181" lon="2.1233716">
        <ele>423.88000488</ele>
        <time>2022-10-30T11:21:34Z</time>
      </trkpt>
      <trkpt lat="41.4282609" lon="2.1233766">
        <ele>423.20001221</ele>
        <time>2022-10-30T11:21:35Z</time>
      </trkpt>
      <trkpt lat="41.4283869" lon="2.1233756">
        <ele>422.55999756</ele>
        <time>2022-10-30T11:21:36Z</time>
      </trkpt>
      <trkpt lat="41.4284699" lon="2.1233785">
        <ele>421.91998291</ele>
        <time>2022-10-30T11:21:37Z</time>
      </trkpt>
      <trkpt lat="41.4285488" lon="2.1233904">
        <ele>421.32998657</ele>
        <time>2022-10-30T11:21:38Z</time>
      </trkpt>
      <trkpt lat="41.4286268" lon="2.1233974">
        <ele>420.68997192</ele>
        <time>2022-10-30T11:21:39Z</time>
      </trkpt>
      <trkpt lat="41.4287067" lon="2.1234033">
        <ele>420.08996582</ele>
        <time>2022-10-30T11:21:40Z</time>
      </trkpt>
      <trkpt lat="41.4288097" lon="2.1234062">
        <ele>419.53997803</ele>
        <time>2022-10-30T11:21:41Z</time>
      </trkpt>
      <trkpt lat="41.4288726" lon="2.1233823">
        <ele>419.01998901</ele>
        <time>2022-10-30T11:21:42Z</time>
      </trkpt>
      <trkpt lat="41.4289215" lon="2.1233254">
        <ele>418.54998779</ele>
        <time>2022-10-30T11:21:43Z</time>
      </trkpt>
      <trkpt lat="41.4289515" lon="2.1232655">
        <ele>418.07998657</ele>
        <time>2022-10-30T11:21:44Z</time>
      </trkpt>
      <trkpt lat="41.4289735" lon="2.1231625">
        <ele>417.66998291</ele>
        <time>2022-10-30T11:21:45Z</time>
      </trkpt>
      <trkpt lat="41.4289864" lon="2.1230846">
        <ele>417.29998779</ele>
        <time>2022-10-30T11:21:46Z</time>
      </trkpt>
      <trkpt lat="41.4289835" lon="2.1230226">
        <ele>417.07998657</ele>
        <time>2022-10-30T11:21:47Z</time>
      </trkpt>
      <trkpt lat="41.4289725" lon="2.1229687">
        <ele>416.97000122</ele>
        <time>2022-10-30T11:21:48Z</time>
      </trkpt>
      <trkpt lat="41.4289275" lon="2.1228818">
        <ele>417.02999878</ele>
        <time>2022-10-30T11:21:49Z</time>
      </trkpt>
      <trkpt lat="41.4288906" lon="2.1228298">
        <ele>417.17001343</ele>
        <time>2022-10-30T11:21:50Z</time>
      </trkpt>
      <trkpt lat="41.4288567" lon="2.1227778">
        <ele>417.30001831</ele>
        <time>2022-10-30T11:21:51Z</time>
      </trkpt>
      <trkpt lat="41.4288287" lon="2.1227169">
        <ele>417.44003296</ele>
        <time>2022-10-30T11:21:52Z</time>
      </trkpt>
      <trkpt lat="41.4287958" lon="2.122663">
        <ele>417.50003052</ele>
        <time>2022-10-30T11:21:53Z</time>
      </trkpt>
      <trkpt lat="41.4287608" lon="2.122566">
        <ele>417.61001587</ele>
        <time>2022-10-30T11:21:54Z</time>
      </trkpt>
      <trkpt lat="41.4287328" lon="2.1225091">
        <ele>417.74002075</ele>
        <time>2022-10-30T11:21:55Z</time>
      </trkpt>
      <trkpt lat="41.4286959" lon="2.1224581">
        <ele>417.87002563</ele>
        <time>2022-10-30T11:21:56Z</time>
      </trkpt>
      <trkpt lat="41.4286599" lon="2.1223982">
        <ele>418.01004028</ele>
        <time>2022-10-30T11:21:57Z</time>
      </trkpt>
      <trkpt lat="41.4286319" lon="2.1223532">
        <ele>418.10003662</ele>
        <time>2022-10-30T11:21:58Z</time>
      </trkpt>
      <trkpt lat="41.428577" lon="2.1222713">
        <ele>418.16003418</ele>
        <time>2022-10-30T11:21:59Z</time>
      </trkpt>
      <trkpt lat="41.428541" lon="2.1222283">
        <ele>418.24002075</ele>
        <time>2022-10-30T11:22:00Z</time>
      </trkpt>
      <trkpt lat="41.428508" lon="2.1221714">
        <ele>418.26000977</ele>
        <time>2022-10-30T11:22:01Z</time>
      </trkpt>
      <trkpt lat="41.42848" lon="2.1221135">
        <ele>418.24002075</ele>
        <time>2022-10-30T11:22:02Z</time>
      </trkpt>
      <trkpt lat="41.4284311" lon="2.1220255">
        <ele>418.26000977</ele>
        <time>2022-10-30T11:22:03Z</time>
      </trkpt>
      <trkpt lat="41.4283942" lon="2.1219706">
        <ele>418.30001831</ele>
        <time>2022-10-30T11:22:04Z</time>
      </trkpt>
      <trkpt lat="41.4283543" lon="2.1219137">
        <ele>418.2800293</ele>
        <time>2022-10-30T11:22:05Z</time>
      </trkpt>
      <trkpt lat="41.4283153" lon="2.1218598">
        <ele>418.32003784</ele>
        <time>2022-10-30T11:22:06Z</time>
      </trkpt>
      <trkpt lat="41.4282803" lon="2.1218098">
        <ele>418.30004883</ele>
        <time>2022-10-30T11:22:07Z</time>
      </trkpt>
      <trkpt lat="41.4282424" lon="2.1217309">
        <ele>418.27005005</ele>
        <time>2022-10-30T11:22:08Z</time>
      </trkpt>
      <trkpt lat="41.4282055" lon="2.121678">
        <ele>418.35003662</ele>
        <time>2022-10-30T11:22:09Z</time>
      </trkpt>
      <trkpt lat="41.4281645" lon="2.1216221">
        <ele>418.39004517</ele>
        <time>2022-10-30T11:22:10Z</time>
      </trkpt>
      <trkpt lat="41.4281225" lon="2.1215611">
        <ele>418.41003418</ele>
        <time>2022-10-30T11:22:11Z</time>
      </trkpt>
      <trkpt lat="41.4280576" lon="2.1214801">
        <ele>418.37002563</ele>
        <time>2022-10-30T11:22:12Z</time>
      </trkpt>
      <trkpt lat="41.4280126" lon="2.1214321">
        <ele>418.35003662</ele>
        <time>2022-10-30T11:22:13Z</time>
      </trkpt>
      <trkpt lat="41.4279697" lon="2.1213852">
        <ele>418.32003784</ele>
        <time>2022-10-30T11:22:14Z</time>
      </trkpt>
      <trkpt lat="41.4279237" lon="2.1213353">
        <ele>418.27005005</ele>
        <time>2022-10-30T11:22:15Z</time>
      </trkpt>
      <trkpt lat="41.4278798" lon="2.1212803">
        <ele>418.2300415</ele>
        <time>2022-10-30T11:22:16Z</time>
      </trkpt>
      <trkpt lat="41.4278068" lon="2.1212014">
        <ele>418.0300293</ele>
        <time>2022-10-30T11:22:17Z</time>
      </trkpt>
      <trkpt lat="41.4277518" lon="2.1211575">
        <ele>417.81002808</ele>
        <time>2022-10-30T11:22:18Z</time>
      </trkpt>
      <trkpt lat="41.4277009" lon="2.1211136">
        <ele>417.58001709</ele>
        <time>2022-10-30T11:22:19Z</time>
      </trkpt>
      <trkpt lat="41.4276479" lon="2.1210697">
        <ele>417.25003052</ele>
        <time>2022-10-30T11:22:20Z</time>
      </trkpt>
      <trkpt lat="41.427569" lon="2.1209927">
        <ele>417.00003052</ele>
        <time>2022-10-30T11:22:21Z</time>
      </trkpt>
      <trkpt lat="41.4275181" lon="2.1209437">
        <ele>416.91003418</ele>
        <time>2022-10-30T11:22:22Z</time>
      </trkpt>
      <trkpt lat="41.4274731" lon="2.1208868">
        <ele>416.91003418</ele>
        <time>2022-10-30T11:22:23Z</time>
      </trkpt>
      <trkpt lat="41.4274352" lon="2.1208209">
        <ele>416.96002197</ele>
        <time>2022-10-30T11:22:24Z</time>
      </trkpt>
      <trkpt lat="41.4274022" lon="2.120745">
        <ele>417.00003052</ele>
        <time>2022-10-30T11:22:25Z</time>
      </trkpt>
      <trkpt lat="41.4273632" lon="2.1206281">
        <ele>416.95004272</ele>
        <time>2022-10-30T11:22:26Z</time>
      </trkpt>
      <trkpt lat="41.4273283" lon="2.1205701">
        <ele>416.91003418</ele>
        <time>2022-10-30T11:22:27Z</time>
      </trkpt>
      <trkpt lat="41.4272944" lon="2.1205172">
        <ele>416.77001953</ele>
        <time>2022-10-30T11:22:28Z</time>
      </trkpt>
      <trkpt lat="41.4272714" lon="2.1204443">
        <ele>416.67001343</ele>
        <time>2022-10-30T11:22:29Z</time>
      </trkpt>
      <trkpt lat="41.4272595" lon="2.1203273">
        <ele>416.58001709</ele>
        <time>2022-10-30T11:22:30Z</time>
      </trkpt>
      <trkpt lat="41.4272506" lon="2.1202454">
        <ele>416.37002563</ele>
        <time>2022-10-30T11:22:31Z</time>
      </trkpt>
      <trkpt lat="41.4272466" lon="2.1201654">
        <ele>416.33001709</ele>
        <time>2022-10-30T11:22:32Z</time>
      </trkpt>
      <trkpt lat="41.4272417" lon="2.1200745">
        <ele>416.26000977</ele>
        <time>2022-10-30T11:22:33Z</time>
      </trkpt>
      <trkpt lat="41.4272417" lon="2.1199866">
        <ele>416.07000732</ele>
        <time>2022-10-30T11:22:34Z</time>
      </trkpt>
      <trkpt lat="41.4272506" lon="2.1198656">
        <ele>415.96002197</ele>
        <time>2022-10-30T11:22:35Z</time>
      </trkpt>
      <trkpt lat="41.4272616" lon="2.1197816">
        <ele>415.87002563</ele>
        <time>2022-10-30T11:22:36Z</time>
      </trkpt>
      <trkpt lat="41.4272666" lon="2.1196887">
        <ele>415.81002808</ele>
        <time>2022-10-30T11:22:37Z</time>
      </trkpt>
      <trkpt lat="41.4272865" lon="2.1196097">
        <ele>415.82003784</ele>
        <time>2022-10-30T11:22:38Z</time>
      </trkpt>
      <trkpt lat="41.4273014" lon="2.1195338">
        <ele>415.7800293</ele>
        <time>2022-10-30T11:22:39Z</time>
      </trkpt>
      <trkpt lat="41.4273284" lon="2.1194098">
        <ele>415.7300415</ele>
        <time>2022-10-30T11:22:40Z</time>
      </trkpt>
      <trkpt lat="41.4273493" lon="2.1193299">
        <ele>415.61004639</ele>
        <time>2022-10-30T11:22:41Z</time>
      </trkpt>
      <trkpt lat="41.4273713" lon="2.1192489">
        <ele>415.44003296</ele>
        <time>2022-10-30T11:22:42Z</time>
      </trkpt>
      <trkpt lat="41.4274002" lon="2.119174">
        <ele>415.30001831</ele>
        <time>2022-10-30T11:22:43Z</time>
      </trkpt>
      <trkpt lat="41.4274332" lon="2.119071">
        <ele>415.22003174</ele>
        <time>2022-10-30T11:22:44Z</time>
      </trkpt>
      <trkpt lat="41.4274501" lon="2.119">
        <ele>415.16003418</ele>
        <time>2022-10-30T11:22:45Z</time>
      </trkpt>
      <trkpt lat="41.4274691" lon="2.1189231">
        <ele>415.17004395</ele>
        <time>2022-10-30T11:22:46Z</time>
      </trkpt>
      <trkpt lat="41.427479" lon="2.1188391">
        <ele>415.22003174</ele>
        <time>2022-10-30T11:22:47Z</time>
      </trkpt>
      <trkpt lat="41.427491" lon="2.1187602">
        <ele>415.20004272</ele>
        <time>2022-10-30T11:22:48Z</time>
      </trkpt>
      <trkpt lat="41.4275119" lon="2.1186403">
        <ele>415.25003052</ele>
        <time>2022-10-30T11:22:49Z</time>
      </trkpt>
      <trkpt lat="41.4275229" lon="2.1185703">
        <ele>415.33001709</ele>
        <time>2022-10-30T11:22:50Z</time>
      </trkpt>
      <trkpt lat="41.4275449" lon="2.1184974">
        <ele>415.38000488</ele>
        <time>2022-10-30T11:22:51Z</time>
      </trkpt>
      <trkpt lat="41.4275598" lon="2.1184284">
        <ele>415.45001221</ele>
        <time>2022-10-30T11:22:52Z</time>
      </trkpt>
      <trkpt lat="41.4275767" lon="2.1183255">
        <ele>415.47000122</ele>
        <time>2022-10-30T11:22:53Z</time>
      </trkpt>
      <trkpt lat="41.4275877" lon="2.1182555">
        <ele>415.42999268</ele>
        <time>2022-10-30T11:22:54Z</time>
      </trkpt>
      <trkpt lat="41.4276056" lon="2.1181975">
        <ele>415.3999939</ele>
        <time>2022-10-30T11:22:55Z</time>
      </trkpt>
      <trkpt lat="41.4276225" lon="2.1181296">
        <ele>415.35998535</ele>
        <time>2022-10-30T11:22:56Z</time>
      </trkpt>
      <trkpt lat="41.4276435" lon="2.1180626">
        <ele>415.33999634</ele>
        <time>2022-10-30T11:22:57Z</time>
      </trkpt>
      <trkpt lat="41.4276655" lon="2.1179566">
        <ele>415.33999634</ele>
        <time>2022-10-30T11:22:58Z</time>
      </trkpt>
      <trkpt lat="41.4276744" lon="2.1178856">
        <ele>415.33999634</ele>
        <time>2022-10-30T11:22:59Z</time>
      </trkpt>
      <trkpt lat="41.4276874" lon="2.1178156">
        <ele>415.33999634</ele>
        <time>2022-10-30T11:23:00Z</time>
      </trkpt>
      <trkpt lat="41.4276973" lon="2.1177427">
        <ele>415.35998535</ele>
        <time>2022-10-30T11:23:01Z</time>
      </trkpt>
      <trkpt lat="41.4277133" lon="2.1176428">
        <ele>415.31997681</ele>
        <time>2022-10-30T11:23:02Z</time>
      </trkpt>
      <trkpt lat="41.4277273" lon="2.1175799">
        <ele>415.33996582</ele>
        <time>2022-10-30T11:23:03Z</time>
      </trkpt>
      <trkpt lat="41.4277442" lon="2.1175129">
        <ele>415.39996338</ele>
        <time>2022-10-30T11:23:04Z</time>
      </trkpt>
      <trkpt lat="41.4277621" lon="2.117453">
        <ele>415.42996216</ele>
        <time>2022-10-30T11:23:05Z</time>
      </trkpt>
      <trkpt lat="41.4277901" lon="2.1173581">
        <ele>415.5199585</ele>
        <time>2022-10-30T11:23:06Z</time>
      </trkpt>
      <trkpt lat="41.427813" lon="2.1173031">
        <ele>415.53994751</ele>
        <time>2022-10-30T11:23:07Z</time>
      </trkpt>
      <trkpt lat="41.427834" lon="2.1172472">
        <ele>415.54995728</ele>
        <time>2022-10-30T11:23:08Z</time>
      </trkpt>
      <trkpt lat="41.4278659" lon="2.1171952">
        <ele>415.58996582</ele>
        <time>2022-10-30T11:23:09Z</time>
      </trkpt>
      <trkpt lat="41.4278978" lon="2.1171622">
        <ele>415.62997437</ele>
        <time>2022-10-30T11:23:10Z</time>
      </trkpt>
      <trkpt lat="41.4279508" lon="2.1171243">
        <ele>415.70996094</ele>
        <time>2022-10-30T11:23:11Z</time>
      </trkpt>
      <trkpt lat="41.4279817" lon="2.1171064">
        <ele>415.75994873</ele>
        <time>2022-10-30T11:23:12Z</time>
      </trkpt>
      <trkpt lat="41.4280227" lon="2.1170794">
        <ele>415.79995728</ele>
        <time>2022-10-30T11:23:13Z</time>
      </trkpt>
      <trkpt lat="41.4280606" lon="2.1170495">
        <ele>415.83996582</ele>
        <time>2022-10-30T11:23:14Z</time>
      </trkpt>
      <trkpt lat="41.4281006" lon="2.1170216">
        <ele>415.90997314</ele>
        <time>2022-10-30T11:23:15Z</time>
      </trkpt>
      <trkpt lat="41.4281665" lon="2.1169636">
        <ele>416.03997803</ele>
        <time>2022-10-30T11:23:16Z</time>
      </trkpt>
      <trkpt lat="41.4282135" lon="2.1169297">
        <ele>416.10998535</ele>
        <time>2022-10-30T11:23:17Z</time>
      </trkpt>
      <trkpt lat="41.4282635" lon="2.1168957">
        <ele>416.16998291</ele>
        <time>2022-10-30T11:23:18Z</time>
      </trkpt>
      <trkpt lat="41.4283104" lon="2.1168678">
        <ele>416.1499939</ele>
        <time>2022-10-30T11:23:19Z</time>
      </trkpt>
      <trkpt lat="41.4283774" lon="2.1168269">
        <ele>416.11999512</ele>
        <time>2022-10-30T11:23:20Z</time>
      </trkpt>
      <trkpt lat="41.4284203" lon="2.116803">
        <ele>416.11999512</ele>
        <time>2022-10-30T11:23:21Z</time>
      </trkpt>
      <trkpt lat="41.4284673" lon="2.1167811">
        <ele>416.13000488</ele>
        <time>2022-10-30T11:23:22Z</time>
      </trkpt>
      <trkpt lat="41.4285093" lon="2.1167741">
        <ele>416.1499939</ele>
        <time>2022-10-30T11:23:23Z</time>
      </trkpt>
      <trkpt lat="41.4285742" lon="2.1167541">
        <ele>416.13000488</ele>
        <time>2022-10-30T11:23:24Z</time>
      </trkpt>
      <trkpt lat="41.4286201" lon="2.1167371">
        <ele>416.16000366</ele>
        <time>2022-10-30T11:23:25Z</time>
      </trkpt>
      <trkpt lat="41.4286651" lon="2.1167172">
        <ele>416.22000122</ele>
        <time>2022-10-30T11:23:26Z</time>
      </trkpt>
      <trkpt lat="41.4287041" lon="2.1167032">
        <ele>416.26998901</ele>
        <time>2022-10-30T11:23:27Z</time>
      </trkpt>
      <trkpt lat="41.4287471" lon="2.1166883">
        <ele>416.34997559</ele>
        <time>2022-10-30T11:23:28Z</time>
      </trkpt>
      <trkpt lat="41.42881" lon="2.1166623">
        <ele>416.43997192</ele>
        <time>2022-10-30T11:23:29Z</time>
      </trkpt>
      <trkpt lat="41.4288529" lon="2.1166363">
        <ele>416.53997803</ele>
        <time>2022-10-30T11:23:30Z</time>
      </trkpt>
      <trkpt lat="41.4288958" lon="2.1166064">
        <ele>416.64996338</ele>
        <time>2022-10-30T11:23:31Z</time>
      </trkpt>
      <trkpt lat="41.4289348" lon="2.1165714">
        <ele>416.75994873</ele>
        <time>2022-10-30T11:23:32Z</time>
      </trkpt>
      <trkpt lat="41.4289738" lon="2.1165384">
        <ele>416.71994019</ele>
        <time>2022-10-30T11:23:33Z</time>
      </trkpt>
      <trkpt lat="41.4290268" lon="2.1164975">
        <ele>416.57992554</ele>
        <time>2022-10-30T11:23:34Z</time>
      </trkpt>
      <trkpt lat="41.4290568" lon="2.1164495">
        <ele>416.50991821</ele>
        <time>2022-10-30T11:23:35Z</time>
      </trkpt>
      <trkpt lat="41.4290907" lon="2.1163996">
        <ele>416.37991333</ele>
        <time>2022-10-30T11:23:36Z</time>
      </trkpt>
      <trkpt lat="41.4291157" lon="2.1163416">
        <ele>416.30990601</ele>
        <time>2022-10-30T11:23:37Z</time>
      </trkpt>
      <trkpt lat="41.4291476" lon="2.1162356">
        <ele>416.26989746</ele>
        <time>2022-10-30T11:23:38Z</time>
      </trkpt>
      <trkpt lat="41.4291675" lon="2.1161617">
        <ele>416.16989136</ele>
        <time>2022-10-30T11:23:39Z</time>
      </trkpt>
      <trkpt lat="41.4291775" lon="2.1160737">
        <ele>416.07989502</ele>
        <time>2022-10-30T11:23:40Z</time>
      </trkpt>
      <trkpt lat="41.4291915" lon="2.1159958">
        <ele>415.94989014</ele>
        <time>2022-10-30T11:23:41Z</time>
      </trkpt>
      <trkpt lat="41.4292044" lon="2.1158509">
        <ele>415.81988525</ele>
        <time>2022-10-30T11:23:42Z</time>
      </trkpt>
      <trkpt lat="41.4292144" lon="2.1157739">
        <ele>415.58987427</ele>
        <time>2022-10-30T11:23:43Z</time>
      </trkpt>
      <trkpt lat="41.4292243" lon="2.1156829">
        <ele>415.35986328</ele>
        <time>2022-10-30T11:23:44Z</time>
      </trkpt>
      <trkpt lat="41.4292433" lon="2.1156">
        <ele>415.17987061</ele>
        <time>2022-10-30T11:23:45Z</time>
      </trkpt>
      <trkpt lat="41.4292513" lon="2.11552">
        <ele>414.94985962</ele>
        <time>2022-10-30T11:23:46Z</time>
      </trkpt>
      <trkpt lat="41.4292673" lon="2.115391">
        <ele>414.73986816</ele>
        <time>2022-10-30T11:23:47Z</time>
      </trkpt>
      <trkpt lat="41.4292832" lon="2.1152941">
        <ele>414.49987793</ele>
        <time>2022-10-30T11:23:48Z</time>
      </trkpt>
      <trkpt lat="41.4292932" lon="2.1151992">
        <ele>414.18988037</ele>
        <time>2022-10-30T11:23:49Z</time>
      </trkpt>
      <trkpt lat="41.4292982" lon="2.1151112">
        <ele>413.87988281</ele>
        <time>2022-10-30T11:23:50Z</time>
      </trkpt>
      <trkpt lat="41.4293051" lon="2.1150203">
        <ele>413.6098938</ele>
        <time>2022-10-30T11:23:51Z</time>
      </trkpt>
      <trkpt lat="41.429314" lon="2.1148684">
        <ele>413.3598938</ele>
        <time>2022-10-30T11:23:52Z</time>
      </trkpt>
      <trkpt lat="41.4293199" lon="2.1147745">
        <ele>413.14990234</ele>
        <time>2022-10-30T11:23:53Z</time>
      </trkpt>
      <trkpt lat="41.4293329" lon="2.1146825">
        <ele>412.96990967</ele>
        <time>2022-10-30T11:23:54Z</time>
      </trkpt>
      <trkpt lat="41.4293489" lon="2.1145956">
        <ele>412.80990601</ele>
        <time>2022-10-30T11:23:55Z</time>
      </trkpt>
      <trkpt lat="41.4294019" lon="2.1144866">
        <ele>412.6098938</ele>
        <time>2022-10-30T11:23:56Z</time>
      </trkpt>
      <trkpt lat="41.4294428" lon="2.1144237">
        <ele>412.39990234</ele>
        <time>2022-10-30T11:23:57Z</time>
      </trkpt>
      <trkpt lat="41.4294907" lon="2.1143668">
        <ele>412.09991455</ele>
        <time>2022-10-30T11:23:58Z</time>
      </trkpt>
      <trkpt lat="41.4295457" lon="2.1143208">
        <ele>411.74990845</ele>
        <time>2022-10-30T11:23:59Z</time>
      </trkpt>
      <trkpt lat="41.4296056" lon="2.1142779">
        <ele>411.50991821</ele>
        <time>2022-10-30T11:24:00Z</time>
      </trkpt>
      <trkpt lat="41.4297006" lon="2.1142139">
        <ele>411.33990479</ele>
        <time>2022-10-30T11:24:01Z</time>
      </trkpt>
      <trkpt lat="41.4297646" lon="2.1141849">
        <ele>411.26989746</ele>
        <time>2022-10-30T11:24:02Z</time>
      </trkpt>
      <trkpt lat="41.4298265" lon="2.11417">
        <ele>411.18991089</ele>
        <time>2022-10-30T11:24:03Z</time>
      </trkpt>
      <trkpt lat="41.4298884" lon="2.11416">
        <ele>411.11990356</ele>
        <time>2022-10-30T11:24:04Z</time>
      </trkpt>
      <trkpt lat="41.4299784" lon="2.1141491">
        <ele>410.97988892</ele>
        <time>2022-10-30T11:24:05Z</time>
      </trkpt>
      <trkpt lat="41.4300403" lon="2.1141431">
        <ele>410.87988281</ele>
        <time>2022-10-30T11:24:06Z</time>
      </trkpt>
      <trkpt lat="41.4300892" lon="2.1141501">
        <ele>410.87988281</ele>
        <time>2022-10-30T11:24:07Z</time>
      </trkpt>
      <trkpt lat="41.4301282" lon="2.114156">
        <ele>410.81988525</ele>
        <time>2022-10-30T11:24:08Z</time>
      </trkpt>
      <trkpt lat="41.4301711" lon="2.114157">
        <ele>410.80987549</ele>
        <time>2022-10-30T11:24:09Z</time>
      </trkpt>
      <trkpt lat="41.4302431" lon="2.114164">
        <ele>410.77987671</ele>
        <time>2022-10-30T11:24:10Z</time>
      </trkpt>
      <trkpt lat="41.4302961" lon="2.114153">
        <ele>410.71987915</ele>
        <time>2022-10-30T11:24:11Z</time>
      </trkpt>
      <trkpt lat="41.430347" lon="2.114121">
        <ele>410.68988037</ele>
        <time>2022-10-30T11:24:12Z</time>
      </trkpt>
      <trkpt lat="41.4303959" lon="2.1140761">
        <ele>410.6098938</ele>
        <time>2022-10-30T11:24:13Z</time>
      </trkpt>
      <trkpt lat="41.4304629" lon="2.1140311">
        <ele>410.56988525</ele>
        <time>2022-10-30T11:24:14Z</time>
      </trkpt>
      <trkpt lat="41.4305058" lon="2.1140062">
        <ele>410.52987671</ele>
        <time>2022-10-30T11:24:15Z</time>
      </trkpt>
      <trkpt lat="41.4305448" lon="2.1139832">
        <ele>410.52987671</ele>
        <time>2022-10-30T11:24:16Z</time>
      </trkpt>
      <trkpt lat="41.4305877" lon="2.1139532">
        <ele>410.56988525</ele>
        <time>2022-10-30T11:24:17Z</time>
      </trkpt>
      <trkpt lat="41.4306167" lon="2.1139143">
        <ele>410.62988281</ele>
        <time>2022-10-30T11:24:18Z</time>
      </trkpt>
      <trkpt lat="41.4306526" lon="2.1138523">
        <ele>410.61987305</ele>
        <time>2022-10-30T11:24:19Z</time>
      </trkpt>
      <trkpt lat="41.4306756" lon="2.1138214">
        <ele>410.51986694</ele>
        <time>2022-10-30T11:24:20Z</time>
      </trkpt>
      <trkpt lat="41.4307095" lon="2.1138014">
        <ele>410.40988159</ele>
        <time>2022-10-30T11:24:21Z</time>
      </trkpt>
      <trkpt lat="41.4307455" lon="2.1137844">
        <ele>410.28988647</ele>
        <time>2022-10-30T11:24:22Z</time>
      </trkpt>
      <trkpt lat="41.4307974" lon="2.1137525">
        <ele>410.23989868</ele>
        <time>2022-10-30T11:24:23Z</time>
      </trkpt>
      <trkpt lat="41.4308384" lon="2.1137305">
        <ele>410.13989258</ele>
        <time>2022-10-30T11:24:24Z</time>
      </trkpt>
      <trkpt lat="41.4308873" lon="2.1137116">
        <ele>410.06988525</ele>
        <time>2022-10-30T11:24:25Z</time>
      </trkpt>
      <trkpt lat="41.4309382" lon="2.1137156">
        <ele>409.89987183</ele>
        <time>2022-10-30T11:24:26Z</time>
      </trkpt>
      <trkpt lat="41.4310052" lon="2.1137526">
        <ele>409.78988647</ele>
        <time>2022-10-30T11:24:27Z</time>
      </trkpt>
      <trkpt lat="41.4310502" lon="2.1137795">
        <ele>409.78988647</ele>
        <time>2022-10-30T11:24:28Z</time>
      </trkpt>
      <trkpt lat="41.4310881" lon="2.1138104">
        <ele>409.67990112</ele>
        <time>2022-10-30T11:24:29Z</time>
      </trkpt>
      <trkpt lat="41.4311201" lon="2.1138444">
        <ele>409.58990479</ele>
        <time>2022-10-30T11:24:30Z</time>
      </trkpt>
      <trkpt lat="41.431152" lon="2.1138563">
        <ele>409.49990845</ele>
        <time>2022-10-30T11:24:31Z</time>
      </trkpt>
      <trkpt lat="41.4312089" lon="2.1138972">
        <ele>409.22991943</ele>
        <time>2022-10-30T11:24:32Z</time>
      </trkpt>
      <trkpt lat="41.4312449" lon="2.1139362">
        <ele>408.96990967</ele>
        <time>2022-10-30T11:24:33Z</time>
      </trkpt>
      <trkpt lat="41.4312869" lon="2.1139641">
        <ele>408.75991821</ele>
        <time>2022-10-30T11:24:34Z</time>
      </trkpt>
      <trkpt lat="41.4313328" lon="2.113966">
        <ele>408.51992798</ele>
        <time>2022-10-30T11:24:35Z</time>
      </trkpt>
      <trkpt lat="41.4313748" lon="2.113982">
        <ele>408.32992554</ele>
        <time>2022-10-30T11:24:36Z</time>
      </trkpt>
      <trkpt lat="41.4313958" lon="2.113999">
        <ele>408.22991943</ele>
        <time>2022-10-30T11:24:37Z</time>
      </trkpt>
      <trkpt lat="41.4314157" lon="2.1140069">
        <ele>408.02990723</ele>
        <time>2022-10-30T11:24:38Z</time>
      </trkpt>
      <trkpt lat="41.4314336" lon="2.114004">
        <ele>407.74990845</ele>
        <time>2022-10-30T11:24:39Z</time>
      </trkpt>
      <trkpt lat="41.4314526" lon="2.113997">
        <ele>407.50991821</ele>
        <time>2022-10-30T11:24:40Z</time>
      </trkpt>
      <trkpt lat="41.4314766" lon="2.114006">
        <ele>407.21990967</ele>
        <time>2022-10-30T11:24:41Z</time>
      </trkpt>
      <trkpt lat="41.4314955" lon="2.114004">
        <ele>407.00991821</ele>
        <time>2022-10-30T11:24:42Z</time>
      </trkpt>
      <trkpt lat="41.4315215" lon="2.1139991">
        <ele>406.78991699</ele>
        <time>2022-10-30T11:24:43Z</time>
      </trkpt>
      <trkpt lat="41.4315584" lon="2.1139971">
        <ele>406.54992676</ele>
        <time>2022-10-30T11:24:44Z</time>
      </trkpt>
      <trkpt lat="41.4316053" lon="2.1139942">
        <ele>406.32992554</ele>
        <time>2022-10-30T11:24:45Z</time>
      </trkpt>
      <trkpt lat="41.4316273" lon="2.1140022">
        <ele>405.9899292</ele>
        <time>2022-10-30T11:24:46Z</time>
      </trkpt>
      <trkpt lat="41.4316543" lon="2.1140002">
        <ele>405.71994019</ele>
        <time>2022-10-30T11:24:47Z</time>
      </trkpt>
      <trkpt lat="41.4316983" lon="2.1139973">
        <ele>405.36993408</ele>
        <time>2022-10-30T11:24:48Z</time>
      </trkpt>
      <trkpt lat="41.4317492" lon="2.1140023">
        <ele>404.99993896</ele>
        <time>2022-10-30T11:24:49Z</time>
      </trkpt>
      <trkpt lat="41.4318301" lon="2.1140023">
        <ele>404.64993286</ele>
        <time>2022-10-30T11:24:50Z</time>
      </trkpt>
      <trkpt lat="41.4318891" lon="2.1139923">
        <ele>404.2399292</ele>
        <time>2022-10-30T11:24:51Z</time>
      </trkpt>
      <trkpt lat="41.4319481" lon="2.1139883">
        <ele>403.92993164</ele>
        <time>2022-10-30T11:24:52Z</time>
      </trkpt>
      <trkpt lat="41.4320161" lon="2.1139864">
        <ele>403.44992065</ele>
        <time>2022-10-30T11:24:53Z</time>
      </trkpt>
      <trkpt lat="41.432127" lon="2.1139893">
        <ele>403.05990601</ele>
        <time>2022-10-30T11:24:54Z</time>
      </trkpt>
      <trkpt lat="41.4321959" lon="2.1139963">
        <ele>402.75991821</ele>
        <time>2022-10-30T11:24:55Z</time>
      </trkpt>
      <trkpt lat="41.4322549" lon="2.1140042">
        <ele>402.61990356</ele>
        <time>2022-10-30T11:24:56Z</time>
      </trkpt>
      <trkpt lat="41.4323219" lon="2.1140042">
        <ele>402.65991211</ele>
        <time>2022-10-30T11:24:57Z</time>
      </trkpt>
      <trkpt lat="41.4323788" lon="2.1140082">
        <ele>402.7098999</ele>
        <time>2022-10-30T11:24:58Z</time>
      </trkpt>
      <trkpt lat="41.4324718" lon="2.1140252">
        <ele>402.38989258</ele>
        <time>2022-10-30T11:24:59Z</time>
      </trkpt>
      <trkpt lat="41.4325337" lon="2.1140341">
        <ele>401.73989868</ele>
        <time>2022-10-30T11:25:00Z</time>
      </trkpt>
      <trkpt lat="41.4325916" lon="2.1140441">
        <ele>401.05990601</ele>
        <time>2022-10-30T11:25:01Z</time>
      </trkpt>
      <trkpt lat="41.4326466" lon="2.114054">
        <ele>400.21990967</ele>
        <time>2022-10-30T11:25:02Z</time>
      </trkpt>
      <trkpt lat="41.4327085" lon="2.114057">
        <ele>399.81991577</ele>
        <time>2022-10-30T11:25:03Z</time>
      </trkpt>
      <trkpt lat="41.4327854" lon="2.114056">
        <ele>399.65991211</ele>
        <time>2022-10-30T11:25:04Z</time>
      </trkpt>
      <trkpt lat="41.4328333" lon="2.1140589">
        <ele>399.56991577</ele>
        <time>2022-10-30T11:25:05Z</time>
      </trkpt>
      <trkpt lat="41.4328753" lon="2.1140698">
        <ele>399.60992432</ele>
        <time>2022-10-30T11:25:06Z</time>
      </trkpt>
      <trkpt lat="41.4329413" lon="2.1140798">
        <ele>399.64993286</ele>
        <time>2022-10-30T11:25:07Z</time>
      </trkpt>
      <trkpt lat="41.4329872" lon="2.1140878">
        <ele>399.74993896</ele>
        <time>2022-10-30T11:25:08Z</time>
      </trkpt>
      <trkpt lat="41.4330391" lon="2.1140887">
        <ele>399.82992554</ele>
        <time>2022-10-30T11:25:09Z</time>
      </trkpt>
      <trkpt lat="41.4330931" lon="2.1140957">
        <ele>399.86993408</ele>
        <time>2022-10-30T11:25:10Z</time>
      </trkpt>
      <trkpt lat="41.433141" lon="2.1141016">
        <ele>399.86993408</ele>
        <time>2022-10-30T11:25:11Z</time>
      </trkpt>
      <trkpt lat="41.4331879" lon="2.1141126">
        <ele>399.81994629</ele>
        <time>2022-10-30T11:25:12Z</time>
      </trkpt>
      <trkpt lat="41.4332799" lon="2.1141185">
        <ele>399.64993286</ele>
        <time>2022-10-30T11:25:13Z</time>
      </trkpt>
      <trkpt lat="41.4333288" lon="2.1141265">
        <ele>399.54992676</ele>
        <time>2022-10-30T11:25:14Z</time>
      </trkpt>
      <trkpt lat="41.4333718" lon="2.1141384">
        <ele>399.40991211</ele>
        <time>2022-10-30T11:25:15Z</time>
      </trkpt>
      <trkpt lat="41.4334138" lon="2.1141523">
        <ele>399.3899231</ele>
        <time>2022-10-30T11:25:16Z</time>
      </trkpt>
      <trkpt lat="41.4334728" lon="2.1141603">
        <ele>399.47991943</ele>
        <time>2022-10-30T11:25:17Z</time>
      </trkpt>
      <trkpt lat="41.4335117" lon="2.1141652">
        <ele>399.53991699</ele>
        <time>2022-10-30T11:25:18Z</time>
      </trkpt>
      <trkpt lat="41.4335537" lon="2.1141681">
        <ele>399.68991089</ele>
        <time>2022-10-30T11:25:19Z</time>
      </trkpt>
      <trkpt lat="41.4335887" lon="2.1141691">
        <ele>399.84991455</ele>
        <time>2022-10-30T11:25:20Z</time>
      </trkpt>
      <trkpt lat="41.4336277" lon="2.114171">
        <ele>400.04992676</ele>
        <time>2022-10-30T11:25:21Z</time>
      </trkpt>
      <trkpt lat="41.4336996" lon="2.1141691">
        <ele>400.31991577</ele>
        <time>2022-10-30T11:25:22Z</time>
      </trkpt>
      <trkpt lat="41.4337305" lon="2.1141791">
        <ele>400.52990723</ele>
        <time>2022-10-30T11:25:23Z</time>
      </trkpt>
      <trkpt lat="41.4337644" lon="2.114185">
        <ele>400.67990112</ele>
        <time>2022-10-30T11:25:24Z</time>
      </trkpt>
      <trkpt lat="41.4337994" lon="2.1142059">
        <ele>400.82989502</ele>
        <time>2022-10-30T11:25:25Z</time>
      </trkpt>
      <trkpt lat="41.4338433" lon="2.1142349">
        <ele>401.01989746</ele>
        <time>2022-10-30T11:25:26Z</time>
      </trkpt>
      <trkpt lat="41.4338912" lon="2.1142519">
        <ele>401.2098999</ele>
        <time>2022-10-30T11:25:27Z</time>
      </trkpt>
      <trkpt lat="41.4339242" lon="2.1142749">
        <ele>401.39990234</ele>
        <time>2022-10-30T11:25:28Z</time>
      </trkpt>
      <trkpt lat="41.4339501" lon="2.1143028">
        <ele>401.61990356</ele>
        <time>2022-10-30T11:25:29Z</time>
      </trkpt>
      <trkpt lat="41.4340041" lon="2.1143467">
        <ele>401.73989868</ele>
        <time>2022-10-30T11:25:30Z</time>
      </trkpt>
      <trkpt lat="41.434048" lon="2.1143727">
        <ele>401.80990601</ele>
        <time>2022-10-30T11:25:31Z</time>
      </trkpt>
      <trkpt lat="41.434075" lon="2.1143926">
        <ele>401.93991089</ele>
        <time>2022-10-30T11:25:32Z</time>
      </trkpt>
      <trkpt lat="41.434103" lon="2.1144066">
        <ele>401.96990967</ele>
        <time>2022-10-30T11:25:33Z</time>
      </trkpt>
      <trkpt lat="41.4341349" lon="2.1144155">
        <ele>402.03991699</ele>
        <time>2022-10-30T11:25:34Z</time>
      </trkpt>
      <trkpt lat="41.4341789" lon="2.1144404">
        <ele>402.1399231</ele>
        <time>2022-10-30T11:25:35Z</time>
      </trkpt>
      <trkpt lat="41.4342239" lon="2.1144623">
        <ele>402.18991089</ele>
        <time>2022-10-30T11:25:36Z</time>
      </trkpt>
      <trkpt lat="41.4342538" lon="2.1144843">
        <ele>402.32992554</ele>
        <time>2022-10-30T11:25:37Z</time>
      </trkpt>
      <trkpt lat="41.4342768" lon="2.1144942">
        <ele>402.43991089</ele>
        <time>2022-10-30T11:25:38Z</time>
      </trkpt>
      <trkpt lat="41.4343227" lon="2.1145191">
        <ele>402.65991211</ele>
        <time>2022-10-30T11:25:39Z</time>
      </trkpt>
      <trkpt lat="41.4343447" lon="2.1145401">
        <ele>402.80990601</ele>
        <time>2022-10-30T11:25:40Z</time>
      </trkpt>
      <trkpt lat="41.4343486" lon="2.11458">
        <ele>402.91989136</ele>
        <time>2022-10-30T11:25:41Z</time>
      </trkpt>
      <trkpt lat="41.4343666" lon="2.114594">
        <ele>403.14990234</ele>
        <time>2022-10-30T11:25:42Z</time>
      </trkpt>
      <trkpt lat="41.4343835" lon="2.1145969">
        <ele>403.22988892</ele>
        <time>2022-10-30T11:25:43Z</time>
      </trkpt>
      <trkpt lat="41.4344224" lon="2.114585">
        <ele>403.32989502</ele>
        <time>2022-10-30T11:25:44Z</time>
      </trkpt>
      <trkpt lat="41.4344434" lon="2.1145859">
        <ele>403.40988159</ele>
        <time>2022-10-30T11:25:45Z</time>
      </trkpt>
      <trkpt lat="41.4344764" lon="2.114584">
        <ele>403.43988037</ele>
        <time>2022-10-30T11:25:46Z</time>
      </trkpt>
      <trkpt lat="41.4345143" lon="2.114585">
        <ele>403.52987671</ele>
        <time>2022-10-30T11:25:47Z</time>
      </trkpt>
      <trkpt lat="41.4345542" lon="2.114578">
        <ele>403.64987183</ele>
        <time>2022-10-30T11:25:48Z</time>
      </trkpt>
      <trkpt lat="41.4345952" lon="2.114573">
        <ele>403.80987549</ele>
        <time>2022-10-30T11:25:49Z</time>
      </trkpt>
      <trkpt lat="41.4346441" lon="2.1145631">
        <ele>403.97988892</ele>
        <time>2022-10-30T11:25:50Z</time>
      </trkpt>
      <trkpt lat="41.434678" lon="2.1145501">
        <ele>404.06988525</ele>
        <time>2022-10-30T11:25:51Z</time>
      </trkpt>
      <trkpt lat="41.434711" lon="2.1145461">
        <ele>404.15988159</ele>
        <time>2022-10-30T11:25:52Z</time>
      </trkpt>
      <trkpt lat="41.434772" lon="2.1145291">
        <ele>404.36987305</ele>
        <time>2022-10-30T11:25:53Z</time>
      </trkpt>
      <trkpt lat="41.4348259" lon="2.1145102">
        <ele>404.5798645</ele>
        <time>2022-10-30T11:25:54Z</time>
      </trkpt>
      <trkpt lat="41.4348709" lon="2.1144812">
        <ele>404.85986328</ele>
        <time>2022-10-30T11:25:55Z</time>
      </trkpt>
      <trkpt lat="41.4349078" lon="2.1144553">
        <ele>405.13986206</ele>
        <time>2022-10-30T11:25:56Z</time>
      </trkpt>
      <trkpt lat="41.4349507" lon="2.1144304">
        <ele>405.27987671</ele>
        <time>2022-10-30T11:25:57Z</time>
      </trkpt>
      <trkpt lat="41.4349847" lon="2.1144104">
        <ele>405.43988037</ele>
        <time>2022-10-30T11:25:58Z</time>
      </trkpt>
      <trkpt lat="41.4350056" lon="2.1143795">
        <ele>405.72988892</ele>
        <time>2022-10-30T11:25:59Z</time>
      </trkpt>
      <trkpt lat="41.4350196" lon="2.1143595">
        <ele>405.94989014</ele>
        <time>2022-10-30T11:26:00Z</time>
      </trkpt>
      <trkpt lat="41.4350446" lon="2.1143325">
        <ele>406.18988037</ele>
        <time>2022-10-30T11:26:01Z</time>
      </trkpt>
      <trkpt lat="41.4350705" lon="2.1143016">
        <ele>406.40988159</ele>
        <time>2022-10-30T11:26:02Z</time>
      </trkpt>
      <trkpt lat="41.4350824" lon="2.1142767">
        <ele>406.48986816</ele>
        <time>2022-10-30T11:26:03Z</time>
      </trkpt>
      <trkpt lat="41.4350775" lon="2.1142627">
        <ele>406.61987305</ele>
        <time>2022-10-30T11:26:04Z</time>
      </trkpt>
      <trkpt lat="41.4350794" lon="2.1142797">
        <ele>406.7298584</ele>
        <time>2022-10-30T11:26:05Z</time>
      </trkpt>
      <trkpt lat="41.4350755" lon="2.1142826">
        <ele>406.78985596</ele>
        <time>2022-10-30T11:26:06Z</time>
      </trkpt>
      <trkpt lat="41.4350715" lon="2.1142747">
        <ele>406.86984253</ele>
        <time>2022-10-30T11:26:07Z</time>
      </trkpt>
      <trkpt lat="41.4350809" lon="2.114269">
        <ele>406.61999512</ele>
        <time>2022-10-30T11:26:07Z</time>
      </trkpt>
      <trkpt lat="41.4352019" lon="2.114241">
        <ele>405.36999512</ele>
        <time>2022-10-30T11:30:59Z</time>
      </trkpt>
      <trkpt lat="41.4352209" lon="2.1142439">
        <ele>405.26998901</ele>
        <time>2022-10-30T11:31:00Z</time>
      </trkpt>
      <trkpt lat="41.4352419" lon="2.1142449">
        <ele>405.05999756</ele>
        <time>2022-10-30T11:31:01Z</time>
      </trkpt>
      <trkpt lat="41.4352688" lon="2.1142489">
        <ele>404.76000977</ele>
        <time>2022-10-30T11:31:02Z</time>
      </trkpt>
      <trkpt lat="41.4352938" lon="2.1142608">
        <ele>404.21002197</ele>
        <time>2022-10-30T11:31:03Z</time>
      </trkpt>
      <trkpt lat="41.4353397" lon="2.1142878">
        <ele>403.42001343</ele>
        <time>2022-10-30T11:31:04Z</time>
      </trkpt>
      <trkpt lat="41.4353897" lon="2.1143057">
        <ele>402.69000244</ele>
        <time>2022-10-30T11:31:05Z</time>
      </trkpt>
      <trkpt lat="41.4354457" lon="2.1143257">
        <ele>401.55999756</ele>
        <time>2022-10-30T11:31:06Z</time>
      </trkpt>
      <trkpt lat="41.4354966" lon="2.1143607">
        <ele>400.51000977</ele>
        <time>2022-10-30T11:31:07Z</time>
      </trkpt>
      <trkpt lat="41.4355696" lon="2.1143986">
        <ele>399.5</ele>
        <time>2022-10-30T11:31:08Z</time>
      </trkpt>
      <trkpt lat="41.4356175" lon="2.1144235">
        <ele>398.29998779</ele>
        <time>2022-10-30T11:31:09Z</time>
      </trkpt>
      <trkpt lat="41.4356475" lon="2.1144734">
        <ele>397.26998901</ele>
        <time>2022-10-30T11:31:10Z</time>
      </trkpt>
      <trkpt lat="41.4356684" lon="2.1145173">
        <ele>396.47998047</ele>
        <time>2022-10-30T11:31:11Z</time>
      </trkpt>
      <trkpt lat="41.4357023" lon="2.1145653">
        <ele>395.84997559</ele>
        <time>2022-10-30T11:31:12Z</time>
      </trkpt>
      <trkpt lat="41.4357283" lon="2.1145883">
        <ele>395.3699646</ele>
        <time>2022-10-30T11:31:13Z</time>
      </trkpt>
      <trkpt lat="41.4357552" lon="2.1146013">
        <ele>395.25997925</ele>
        <time>2022-10-30T11:31:14Z</time>
      </trkpt>
      <trkpt lat="41.4357742" lon="2.1146102">
        <ele>394.90997314</ele>
        <time>2022-10-30T11:31:15Z</time>
      </trkpt>
      <trkpt lat="41.4357992" lon="2.1146172">
        <ele>394.45996094</ele>
        <time>2022-10-30T11:31:16Z</time>
      </trkpt>
      <trkpt lat="41.4358572" lon="2.1146102">
        <ele>393.65997314</ele>
        <time>2022-10-30T11:31:17Z</time>
      </trkpt>
      <trkpt lat="41.4358951" lon="2.1146181">
        <ele>392.7699585</ele>
        <time>2022-10-30T11:31:18Z</time>
      </trkpt>
      <trkpt lat="41.4359221" lon="2.1146321">
        <ele>391.77996826</ele>
        <time>2022-10-30T11:31:19Z</time>
      </trkpt>
      <trkpt lat="41.435944" lon="2.1146461">
        <ele>390.87997437</ele>
        <time>2022-10-30T11:31:20Z</time>
      </trkpt>
      <trkpt lat="41.435971" lon="2.114654">
        <ele>390.33996582</ele>
        <time>2022-10-30T11:31:21Z</time>
      </trkpt>
      <trkpt lat="41.4360029" lon="2.1147079">
        <ele>389.72998047</ele>
        <time>2022-10-30T11:31:22Z</time>
      </trkpt>
      <trkpt lat="41.4360109" lon="2.1147509">
        <ele>389.35998535</ele>
        <time>2022-10-30T11:31:23Z</time>
      </trkpt>
      <trkpt lat="41.4360209" lon="2.1147878">
        <ele>388.88998413</ele>
        <time>2022-10-30T11:31:24Z</time>
      </trkpt>
      <trkpt lat="41.436022" lon="2.114789">
        <ele>388.73999023</ele>
        <time>2022-10-30T11:31:24Z</time>
      </trkpt>
      <trkpt lat="41.4360389" lon="2.114815">
        <ele>388.25</ele>
        <time>2022-10-30T11:31:25Z</time>
      </trkpt>
      <trkpt lat="41.4360628" lon="2.1148329">
        <ele>387.17999268</ele>
        <time>2022-10-30T11:31:26Z</time>
      </trkpt>
      <trkpt lat="41.4361008" lon="2.1148559">
        <ele>386.33999634</ele>
        <time>2022-10-30T11:31:27Z</time>
      </trkpt>
      <trkpt lat="41.4361217" lon="2.1148738">
        <ele>385.47000122</ele>
        <time>2022-10-30T11:31:28Z</time>
      </trkpt>
      <trkpt lat="41.4361447" lon="2.1148619">
        <ele>384.48999023</ele>
        <time>2022-10-30T11:31:29Z</time>
      </trkpt>
      <trkpt lat="41.4361516" lon="2.1148808">
        <ele>383.38998413</ele>
        <time>2022-10-30T11:31:30Z</time>
      </trkpt>
      <trkpt lat="41.4361575" lon="2.1149117">
        <ele>382.6499939</ele>
        <time>2022-10-30T11:31:31Z</time>
      </trkpt>
      <trkpt lat="41.4361715" lon="2.1149457">
        <ele>382.00997925</ele>
        <time>2022-10-30T11:31:32Z</time>
      </trkpt>
      <trkpt lat="41.4361864" lon="2.1149896">
        <ele>381.28997803</ele>
        <time>2022-10-30T11:31:33Z</time>
      </trkpt>
      <trkpt lat="41.4361984" lon="2.1150346">
        <ele>380.83996582</ele>
        <time>2022-10-30T11:31:34Z</time>
      </trkpt>
      <trkpt lat="41.4362113" lon="2.1150705">
        <ele>380.29995728</ele>
        <time>2022-10-30T11:31:35Z</time>
      </trkpt>
      <trkpt lat="41.4362233" lon="2.1151014">
        <ele>379.6199646</ele>
        <time>2022-10-30T11:31:36Z</time>
      </trkpt>
      <trkpt lat="41.4362422" lon="2.1151194">
        <ele>379.14996338</ele>
        <time>2022-10-30T11:31:37Z</time>
      </trkpt>
      <trkpt lat="41.4362662" lon="2.1151333">
        <ele>378.70996094</ele>
        <time>2022-10-30T11:31:38Z</time>
      </trkpt>
      <trkpt lat="41.4362951" lon="2.1151623">
        <ele>378.24996948</ele>
        <time>2022-10-30T11:31:39Z</time>
      </trkpt>
      <trkpt lat="41.436324" lon="2.1151842">
        <ele>377.72998047</ele>
        <time>2022-10-30T11:31:40Z</time>
      </trkpt>
      <trkpt lat="41.436343" lon="2.1151931">
        <ele>377.12997437</ele>
        <time>2022-10-30T11:31:41Z</time>
      </trkpt>
      <trkpt lat="41.436372" lon="2.1152071">
        <ele>376.3699646</ele>
        <time>2022-10-30T11:31:42Z</time>
      </trkpt>
      <trkpt lat="41.436417" lon="2.1152301">
        <ele>375.73995972</ele>
        <time>2022-10-30T11:31:43Z</time>
      </trkpt>
      <trkpt lat="41.4364909" lon="2.1152651">
        <ele>375.00994873</ele>
        <time>2022-10-30T11:31:44Z</time>
      </trkpt>
      <trkpt lat="41.4365528" lon="2.11528">
        <ele>374.17996216</ele>
        <time>2022-10-30T11:31:45Z</time>
      </trkpt>
      <trkpt lat="41.4366187" lon="2.115297">
        <ele>373.3699646</ele>
        <time>2022-10-30T11:31:46Z</time>
      </trkpt>
      <trkpt lat="41.4366777" lon="2.1153089">
        <ele>372.24996948</ele>
        <time>2022-10-30T11:31:47Z</time>
      </trkpt>
      <trkpt lat="41.4367377" lon="2.1153219">
        <ele>371.57995605</ele>
        <time>2022-10-30T11:31:48Z</time>
      </trkpt>
      <trkpt lat="41.4368156" lon="2.1153498">
        <ele>371.07995605</ele>
        <time>2022-10-30T11:31:49Z</time>
      </trkpt>
      <trkpt lat="41.4368516" lon="2.1153747">
        <ele>370.73995972</ele>
        <time>2022-10-30T11:31:50Z</time>
      </trkpt>
      <trkpt lat="41.4368986" lon="2.1153977">
        <ele>370.60995483</ele>
        <time>2022-10-30T11:31:51Z</time>
      </trkpt>
      <trkpt lat="41.4369516" lon="2.1154196">
        <ele>370.41995239</ele>
        <time>2022-10-30T11:31:52Z</time>
      </trkpt>
      <trkpt lat="41.4370195" lon="2.1154746">
        <ele>370.27993774</ele>
        <time>2022-10-30T11:31:53Z</time>
      </trkpt>
      <trkpt lat="41.4370714" lon="2.1155045">
        <ele>370.12994385</ele>
        <time>2022-10-30T11:31:54Z</time>
      </trkpt>
      <trkpt lat="41.4371134" lon="2.1155375">
        <ele>370.04995728</ele>
        <time>2022-10-30T11:31:55Z</time>
      </trkpt>
      <trkpt lat="41.4371624" lon="2.1155594">
        <ele>369.94995117</ele>
        <time>2022-10-30T11:31:56Z</time>
      </trkpt>
      <trkpt lat="41.4372483" lon="2.1155894">
        <ele>369.88995361</ele>
        <time>2022-10-30T11:31:57Z</time>
      </trkpt>
      <trkpt lat="41.4373033" lon="2.1156083">
        <ele>369.67996216</ele>
        <time>2022-10-30T11:31:58Z</time>
      </trkpt>
      <trkpt lat="41.4373652" lon="2.1156372">
        <ele>369.27996826</ele>
        <time>2022-10-30T11:31:59Z</time>
      </trkpt>
      <trkpt lat="41.4374271" lon="2.1156552">
        <ele>368.8699646</ele>
        <time>2022-10-30T11:32:00Z</time>
      </trkpt>
      <trkpt lat="41.4374801" lon="2.1156791">
        <ele>368.32995605</ele>
        <time>2022-10-30T11:32:01Z</time>
      </trkpt>
      <trkpt lat="41.4375531" lon="2.1157091">
        <ele>367.94995117</ele>
        <time>2022-10-30T11:32:02Z</time>
      </trkpt>
      <trkpt lat="41.4376" lon="2.1157071">
        <ele>367.73995972</ele>
        <time>2022-10-30T11:32:03Z</time>
      </trkpt>
      <trkpt lat="41.437641" lon="2.1156892">
        <ele>367.41995239</ele>
        <time>2022-10-30T11:32:04Z</time>
      </trkpt>
      <trkpt lat="41.43768" lon="2.1156583">
        <ele>367.07995605</ele>
        <time>2022-10-30T11:32:05Z</time>
      </trkpt>
      <trkpt lat="41.4377459" lon="2.1156313">
        <ele>366.64996338</ele>
        <time>2022-10-30T11:32:06Z</time>
      </trkpt>
      <trkpt lat="41.4377989" lon="2.1156194">
        <ele>366.1199646</ele>
        <time>2022-10-30T11:32:07Z</time>
      </trkpt>
      <trkpt lat="41.4378638" lon="2.1156005">
        <ele>365.57995605</ele>
        <time>2022-10-30T11:32:08Z</time>
      </trkpt>
      <trkpt lat="41.4379257" lon="2.1155775">
        <ele>365.13995361</ele>
        <time>2022-10-30T11:32:09Z</time>
      </trkpt>
      <trkpt lat="41.4379856" lon="2.1155496">
        <ele>364.57995605</ele>
        <time>2022-10-30T11:32:10Z</time>
      </trkpt>
      <trkpt lat="41.4380796" lon="2.1155347">
        <ele>363.91995239</ele>
        <time>2022-10-30T11:32:11Z</time>
      </trkpt>
      <trkpt lat="41.4381305" lon="2.1155038">
        <ele>363.10995483</ele>
        <time>2022-10-30T11:32:12Z</time>
      </trkpt>
      <trkpt lat="41.4381745" lon="2.1154528">
        <ele>362.04995728</ele>
        <time>2022-10-30T11:32:13Z</time>
      </trkpt>
      <trkpt lat="41.4382364" lon="2.1154128">
        <ele>360.66995239</ele>
        <time>2022-10-30T11:32:14Z</time>
      </trkpt>
      <trkpt lat="41.4382963" lon="2.1154398">
        <ele>359.27993774</ele>
        <time>2022-10-30T11:32:15Z</time>
      </trkpt>
      <trkpt lat="41.4383502" lon="2.1154667">
        <ele>358.14993286</ele>
        <time>2022-10-30T11:32:16Z</time>
      </trkpt>
      <trkpt lat="41.4384151" lon="2.1154927">
        <ele>356.93994141</ele>
        <time>2022-10-30T11:32:17Z</time>
      </trkpt>
      <trkpt lat="41.4384611" lon="2.1155356">
        <ele>355.97994995</ele>
        <time>2022-10-30T11:32:18Z</time>
      </trkpt>
      <trkpt lat="41.438529" lon="2.1155526">
        <ele>355.00994873</ele>
        <time>2022-10-30T11:32:19Z</time>
      </trkpt>
      <trkpt lat="41.43865" lon="2.1156185">
        <ele>353.81994629</ele>
        <time>2022-10-30T11:32:20Z</time>
      </trkpt>
      <trkpt lat="41.4387159" lon="2.1156695">
        <ele>353.11993408</ele>
        <time>2022-10-30T11:32:21Z</time>
      </trkpt>
      <trkpt lat="41.4387698" lon="2.1157015">
        <ele>352.28994751</ele>
        <time>2022-10-30T11:32:22Z</time>
      </trkpt>
      <trkpt lat="41.4388398" lon="2.1157495">
        <ele>351.30993652</ele>
        <time>2022-10-30T11:32:23Z</time>
      </trkpt>
      <trkpt lat="41.4389178" lon="2.1158015">
        <ele>350.50994873</ele>
        <time>2022-10-30T11:32:24Z</time>
      </trkpt>
      <trkpt lat="41.4390277" lon="2.1158164">
        <ele>348.87994385</ele>
        <time>2022-10-30T11:32:25Z</time>
      </trkpt>
      <trkpt lat="41.4391057" lon="2.1158563">
        <ele>347.46994019</ele>
        <time>2022-10-30T11:32:26Z</time>
      </trkpt>
      <trkpt lat="41.4391686" lon="2.1158973">
        <ele>346.15994263</ele>
        <time>2022-10-30T11:32:27Z</time>
      </trkpt>
      <trkpt lat="41.4392115" lon="2.1159522">
        <ele>344.45993042</ele>
        <time>2022-10-30T11:32:28Z</time>
      </trkpt>
      <trkpt lat="41.4392805" lon="2.1160181">
        <ele>342.9899292</ele>
        <time>2022-10-30T11:32:29Z</time>
      </trkpt>
      <trkpt lat="41.4393105" lon="2.1160851">
        <ele>341.49993896</ele>
        <time>2022-10-30T11:32:30Z</time>
      </trkpt>
      <trkpt lat="41.4393404" lon="2.1161701">
        <ele>340.16995239</ele>
        <time>2022-10-30T11:32:31Z</time>
      </trkpt>
      <trkpt lat="41.4393504" lon="2.116242">
        <ele>339.28994751</ele>
        <time>2022-10-30T11:32:32Z</time>
      </trkpt>
      <trkpt lat="41.4393614" lon="2.116325">
        <ele>338.72994995</ele>
        <time>2022-10-30T11:32:33Z</time>
      </trkpt>
      <trkpt lat="41.4393653" lon="2.1163899">
        <ele>338.24993896</ele>
        <time>2022-10-30T11:32:34Z</time>
      </trkpt>
      <trkpt lat="41.4393763" lon="2.1164489">
        <ele>337.96994019</ele>
        <time>2022-10-30T11:32:35Z</time>
      </trkpt>
      <trkpt lat="41.4394013" lon="2.1165039">
        <ele>337.54992676</ele>
        <time>2022-10-30T11:32:36Z</time>
      </trkpt>
      <trkpt lat="41.4394362" lon="2.1165658">
        <ele>337.1399231</ele>
        <time>2022-10-30T11:32:37Z</time>
      </trkpt>
      <trkpt lat="41.4395112" lon="2.1166168">
        <ele>336.80993652</ele>
        <time>2022-10-30T11:32:38Z</time>
      </trkpt>
      <trkpt lat="41.4395631" lon="2.1166238">
        <ele>336.05993652</ele>
        <time>2022-10-30T11:32:39Z</time>
      </trkpt>
      <trkpt lat="41.4396301" lon="2.1166247">
        <ele>335.66992188</ele>
        <time>2022-10-30T11:32:40Z</time>
      </trkpt>
      <trkpt lat="41.4397031" lon="2.1166297">
        <ele>335.0899353</ele>
        <time>2022-10-30T11:32:41Z</time>
      </trkpt>
      <trkpt lat="41.4397531" lon="2.1166436">
        <ele>334.54992676</ele>
        <time>2022-10-30T11:32:42Z</time>
      </trkpt>
      <trkpt lat="41.43981" lon="2.1166446">
        <ele>334.25991821</ele>
        <time>2022-10-30T11:32:43Z</time>
      </trkpt>
      <trkpt lat="41.43986" lon="2.1166456">
        <ele>333.58990479</ele>
        <time>2022-10-30T11:32:44Z</time>
      </trkpt>
      <trkpt lat="41.439913" lon="2.1166276">
        <ele>333.14990234</ele>
        <time>2022-10-30T11:32:45Z</time>
      </trkpt>
      <trkpt lat="41.4399539" lon="2.1166286">
        <ele>332.6098938</ele>
        <time>2022-10-30T11:32:46Z</time>
      </trkpt>
      <trkpt lat="41.4400319" lon="2.1166595">
        <ele>332.19989014</ele>
        <time>2022-10-30T11:32:47Z</time>
      </trkpt>
      <trkpt lat="41.4400599" lon="2.1166814">
        <ele>331.90988159</ele>
        <time>2022-10-30T11:32:48Z</time>
      </trkpt>
      <trkpt lat="41.4400968" lon="2.1166974">
        <ele>331.51986694</ele>
        <time>2022-10-30T11:32:49Z</time>
      </trkpt>
      <trkpt lat="41.4401208" lon="2.1167134">
        <ele>331.28985596</ele>
        <time>2022-10-30T11:32:50Z</time>
      </trkpt>
      <trkpt lat="41.4401497" lon="2.1167414">
        <ele>330.52984619</ele>
        <time>2022-10-30T11:32:51Z</time>
      </trkpt>
      <trkpt lat="41.4402126" lon="2.1167533">
        <ele>329.59985352</ele>
        <time>2022-10-30T11:32:52Z</time>
      </trkpt>
      <trkpt lat="41.4402626" lon="2.1167493">
        <ele>328.81985474</ele>
        <time>2022-10-30T11:32:53Z</time>
      </trkpt>
      <trkpt lat="41.4403096" lon="2.1167512">
        <ele>327.83984375</ele>
        <time>2022-10-30T11:32:54Z</time>
      </trkpt>
      <trkpt lat="41.4403665" lon="2.1167612">
        <ele>327.38983154</ele>
        <time>2022-10-30T11:32:55Z</time>
      </trkpt>
      <trkpt lat="41.4404475" lon="2.1167533">
        <ele>327.05984497</ele>
        <time>2022-10-30T11:32:56Z</time>
      </trkpt>
      <trkpt lat="41.4405085" lon="2.1167483">
        <ele>326.60983276</ele>
        <time>2022-10-30T11:32:57Z</time>
      </trkpt>
      <trkpt lat="41.4405444" lon="2.1167214">
        <ele>326.24984741</ele>
        <time>2022-10-30T11:32:58Z</time>
      </trkpt>
      <trkpt lat="41.4405814" lon="2.1166784">
        <ele>325.7298584</ele>
        <time>2022-10-30T11:32:59Z</time>
      </trkpt>
      <trkpt lat="41.4406203" lon="2.1165995">
        <ele>325.04986572</ele>
        <time>2022-10-30T11:33:00Z</time>
      </trkpt>
      <trkpt lat="41.4406423" lon="2.1165705">
        <ele>324.30987549</ele>
        <time>2022-10-30T11:33:01Z</time>
      </trkpt>
      <trkpt lat="41.4406463" lon="2.1165355">
        <ele>323.45986938</ele>
        <time>2022-10-30T11:33:02Z</time>
      </trkpt>
      <trkpt lat="41.4406373" lon="2.1164806">
        <ele>322.58987427</ele>
        <time>2022-10-30T11:33:03Z</time>
      </trkpt>
      <trkpt lat="41.4406254" lon="2.1164207">
        <ele>322.03988647</ele>
        <time>2022-10-30T11:33:04Z</time>
      </trkpt>
      <trkpt lat="41.4406015" lon="2.1163487">
        <ele>321.52987671</ele>
        <time>2022-10-30T11:33:05Z</time>
      </trkpt>
      <trkpt lat="41.4406074" lon="2.1162948">
        <ele>321.09988403</ele>
        <time>2022-10-30T11:33:06Z</time>
      </trkpt>
      <trkpt lat="41.4406074" lon="2.1162278">
        <ele>320.59988403</ele>
        <time>2022-10-30T11:33:07Z</time>
      </trkpt>
      <trkpt lat="41.4406093" lon="2.1161719">
        <ele>320.01989746</ele>
        <time>2022-10-30T11:33:08Z</time>
      </trkpt>
      <trkpt lat="41.4405884" lon="2.1160879">
        <ele>319.28988647</ele>
        <time>2022-10-30T11:33:09Z</time>
      </trkpt>
      <trkpt lat="41.4405715" lon="2.11602">
        <ele>318.57989502</ele>
        <time>2022-10-30T11:33:10Z</time>
      </trkpt>
      <trkpt lat="41.4405585" lon="2.115961">
        <ele>317.9598999</ele>
        <time>2022-10-30T11:33:11Z</time>
      </trkpt>
      <trkpt lat="41.4405416" lon="2.1159121">
        <ele>317.38989258</ele>
        <time>2022-10-30T11:33:12Z</time>
      </trkpt>
      <trkpt lat="41.4405227" lon="2.1158801">
        <ele>317.12988281</ele>
        <time>2022-10-30T11:33:13Z</time>
      </trkpt>
      <trkpt lat="41.4405356" lon="2.1158411">
        <ele>316.87988281</ele>
        <time>2022-10-30T11:33:14Z</time>
      </trkpt>
      <trkpt lat="41.4405436" lon="2.1158262">
        <ele>316.73986816</ele>
        <time>2022-10-30T11:33:15Z</time>
      </trkpt>
      <trkpt lat="41.4405676" lon="2.1158203">
        <ele>316.52987671</ele>
        <time>2022-10-30T11:33:16Z</time>
      </trkpt>
      <trkpt lat="41.4405975" lon="2.1158133">
        <ele>316.17987061</ele>
        <time>2022-10-30T11:33:17Z</time>
      </trkpt>
      <trkpt lat="41.4406555" lon="2.1158003">
        <ele>315.63986206</ele>
        <time>2022-10-30T11:33:18Z</time>
      </trkpt>
      <trkpt lat="41.4406775" lon="2.1157933">
        <ele>314.95986938</ele>
        <time>2022-10-30T11:33:19Z</time>
      </trkpt>
      <trkpt lat="41.4407484" lon="2.1157534">
        <ele>313.41986084</ele>
        <time>2022-10-30T11:33:21Z</time>
      </trkpt>
      <trkpt lat="41.4407723" lon="2.1157214">
        <ele>312.98986816</ele>
        <time>2022-10-30T11:33:22Z</time>
      </trkpt>
      <trkpt lat="41.4408533" lon="2.1156265">
        <ele>312.55987549</ele>
        <time>2022-10-30T11:33:23Z</time>
      </trkpt>
      <trkpt lat="41.4409053" lon="2.1155835">
        <ele>312.18988037</ele>
        <time>2022-10-30T11:33:24Z</time>
      </trkpt>
      <trkpt lat="41.4409522" lon="2.1155476">
        <ele>311.68988037</ele>
        <time>2022-10-30T11:33:25Z</time>
      </trkpt>
      <trkpt lat="41.4409831" lon="2.1155227">
        <ele>310.90988159</ele>
        <time>2022-10-30T11:33:26Z</time>
      </trkpt>
      <trkpt lat="41.441031" lon="2.1154997">
        <ele>310.06988525</ele>
        <time>2022-10-30T11:33:27Z</time>
      </trkpt>
      <trkpt lat="41.441073" lon="2.1154778">
        <ele>309.23989868</ele>
        <time>2022-10-30T11:33:28Z</time>
      </trkpt>
      <trkpt lat="41.441113" lon="2.1154538">
        <ele>308.44989014</ele>
        <time>2022-10-30T11:33:29Z</time>
      </trkpt>
      <trkpt lat="41.4411489" lon="2.1154329">
        <ele>307.76989746</ele>
        <time>2022-10-30T11:33:30Z</time>
      </trkpt>
      <trkpt lat="41.4411859" lon="2.1154089">
        <ele>307.06988525</ele>
        <time>2022-10-30T11:33:31Z</time>
      </trkpt>
      <trkpt lat="41.4412468" lon="2.115367">
        <ele>306.18988037</ele>
        <time>2022-10-30T11:33:32Z</time>
      </trkpt>
      <trkpt lat="41.4412968" lon="2.115355">
        <ele>305.15988159</ele>
        <time>2022-10-30T11:33:33Z</time>
      </trkpt>
      <trkpt lat="41.4413378" lon="2.1153441">
        <ele>303.88989258</ele>
        <time>2022-10-30T11:33:34Z</time>
      </trkpt>
      <trkpt lat="41.4413567" lon="2.1153281">
        <ele>302.81988525</ele>
        <time>2022-10-30T11:33:35Z</time>
      </trkpt>
      <trkpt lat="41.4413747" lon="2.1152951">
        <ele>301.80987549</ele>
        <time>2022-10-30T11:33:36Z</time>
      </trkpt>
      <trkpt lat="41.4414176" lon="2.1152961">
        <ele>301.0798645</ele>
        <time>2022-10-30T11:33:37Z</time>
      </trkpt>
      <trkpt lat="41.4414485" lon="2.1152891">
        <ele>300.55987549</ele>
        <time>2022-10-30T11:33:38Z</time>
      </trkpt>
      <trkpt lat="41.4414845" lon="2.1152761">
        <ele>300.17987061</ele>
        <time>2022-10-30T11:33:39Z</time>
      </trkpt>
      <trkpt lat="41.4415235" lon="2.1152532">
        <ele>299.68988037</ele>
        <time>2022-10-30T11:33:40Z</time>
      </trkpt>
      <trkpt lat="41.4415844" lon="2.1152282">
        <ele>299.33987427</ele>
        <time>2022-10-30T11:33:41Z</time>
      </trkpt>
      <trkpt lat="41.4416254" lon="2.1152103">
        <ele>298.73986816</ele>
        <time>2022-10-30T11:33:42Z</time>
      </trkpt>
      <trkpt lat="41.4416724" lon="2.1151813">
        <ele>297.93988037</ele>
        <time>2022-10-30T11:33:43Z</time>
      </trkpt>
      <trkpt lat="41.4417213" lon="2.1151604">
        <ele>297.41989136</ele>
        <time>2022-10-30T11:33:44Z</time>
      </trkpt>
      <trkpt lat="41.4417743" lon="2.1151214">
        <ele>296.73989868</ele>
        <time>2022-10-30T11:33:45Z</time>
      </trkpt>
      <trkpt lat="41.4418172" lon="2.1151025">
        <ele>296.37991333</ele>
        <time>2022-10-30T11:33:46Z</time>
      </trkpt>
      <trkpt lat="41.4418941" lon="2.1150855">
        <ele>295.90991211</ele>
        <time>2022-10-30T11:33:47Z</time>
      </trkpt>
      <trkpt lat="41.4419501" lon="2.1150646">
        <ele>295.19992065</ele>
        <time>2022-10-30T11:33:48Z</time>
      </trkpt>
      <trkpt lat="41.4420191" lon="2.1150356">
        <ele>294.36993408</ele>
        <time>2022-10-30T11:33:49Z</time>
      </trkpt>
      <trkpt lat="41.44211" lon="2.1150177">
        <ele>293.39993286</ele>
        <time>2022-10-30T11:33:50Z</time>
      </trkpt>
      <trkpt lat="41.442163" lon="2.1150148">
        <ele>292.65994263</ele>
        <time>2022-10-30T11:33:51Z</time>
      </trkpt>
      <trkpt lat="41.442205" lon="2.1150177">
        <ele>292.0899353</ele>
        <time>2022-10-30T11:33:52Z</time>
      </trkpt>
      <trkpt lat="41.442255" lon="2.1150137">
        <ele>291.66992188</ele>
        <time>2022-10-30T11:33:53Z</time>
      </trkpt>
      <trkpt lat="41.4423399" lon="2.1150316">
        <ele>291.37991333</ele>
        <time>2022-10-30T11:33:54Z</time>
      </trkpt>
      <trkpt lat="41.4423908" lon="2.1150366">
        <ele>291.04992676</ele>
        <time>2022-10-30T11:33:55Z</time>
      </trkpt>
      <trkpt lat="41.4424337" lon="2.1150395">
        <ele>290.70993042</ele>
        <time>2022-10-30T11:33:56Z</time>
      </trkpt>
      <trkpt lat="41.4424807" lon="2.1150444">
        <ele>290.3899231</ele>
        <time>2022-10-30T11:33:57Z</time>
      </trkpt>
      <trkpt lat="41.4425036" lon="2.1150503">
        <ele>290.2399292</ele>
        <time>2022-10-30T11:33:58Z</time>
      </trkpt>
      <trkpt lat="41.4425375" lon="2.1150673">
        <ele>290.11993408</ele>
        <time>2022-10-30T11:33:59Z</time>
      </trkpt>
      <trkpt lat="41.4425655" lon="2.1150624">
        <ele>289.90994263</ele>
        <time>2022-10-30T11:34:00Z</time>
      </trkpt>
      <trkpt lat="41.4425925" lon="2.1150884">
        <ele>289.5899353</ele>
        <time>2022-10-30T11:34:01Z</time>
      </trkpt>
      <trkpt lat="41.4426345" lon="2.1151243">
        <ele>289.11993408</ele>
        <time>2022-10-30T11:34:02Z</time>
      </trkpt>
      <trkpt lat="41.4426744" lon="2.1151473">
        <ele>288.71994019</ele>
        <time>2022-10-30T11:34:03Z</time>
      </trkpt>
      <trkpt lat="41.4427014" lon="2.1151652">
        <ele>288.31994629</ele>
        <time>2022-10-30T11:34:04Z</time>
      </trkpt>
      <trkpt lat="41.4427313" lon="2.1151672">
        <ele>288.16995239</ele>
        <time>2022-10-30T11:34:05Z</time>
      </trkpt>
      <trkpt lat="41.4427693" lon="2.1151542">
        <ele>287.97994995</ele>
        <time>2022-10-30T11:34:06Z</time>
      </trkpt>
      <trkpt lat="41.4428002" lon="2.1151172">
        <ele>287.66995239</ele>
        <time>2022-10-30T11:34:07Z</time>
      </trkpt>
      <trkpt lat="41.4428362" lon="2.1150523">
        <ele>287.54995728</ele>
        <time>2022-10-30T11:34:08Z</time>
      </trkpt>
      <trkpt lat="41.4428741" lon="2.1150293">
        <ele>287.23995972</ele>
        <time>2022-10-30T11:34:09Z</time>
      </trkpt>
      <trkpt lat="41.4429191" lon="2.1150144">
        <ele>287.08996582</ele>
        <time>2022-10-30T11:34:10Z</time>
      </trkpt>
      <trkpt lat="41.442967" lon="2.1150085">
        <ele>286.9699707</ele>
        <time>2022-10-30T11:34:11Z</time>
      </trkpt>
      <trkpt lat="41.443053" lon="2.1150045">
        <ele>286.95996094</ele>
        <time>2022-10-30T11:34:12Z</time>
      </trkpt>
      <trkpt lat="41.4431039" lon="2.1149905">
        <ele>286.79995728</ele>
        <time>2022-10-30T11:34:13Z</time>
      </trkpt>
      <trkpt lat="41.4431478" lon="2.1149696">
        <ele>286.60995483</ele>
        <time>2022-10-30T11:34:14Z</time>
      </trkpt>
      <trkpt lat="41.4431868" lon="2.1149447">
        <ele>286.38995361</ele>
        <time>2022-10-30T11:34:15Z</time>
      </trkpt>
      <trkpt lat="41.4432188" lon="2.1149138">
        <ele>285.66995239</ele>
        <time>2022-10-30T11:34:16Z</time>
      </trkpt>
      <trkpt lat="41.4432867" lon="2.1148599">
        <ele>285.00994873</ele>
        <time>2022-10-30T11:34:17Z</time>
      </trkpt>
      <trkpt lat="41.4433406" lon="2.1148309">
        <ele>284.30993652</ele>
        <time>2022-10-30T11:34:18Z</time>
      </trkpt>
      <trkpt lat="41.4433925" lon="2.1147999">
        <ele>283.55993652</ele>
        <time>2022-10-30T11:34:19Z</time>
      </trkpt>
      <trkpt lat="41.4434365" lon="2.114757">
        <ele>283.04992676</ele>
        <time>2022-10-30T11:34:20Z</time>
      </trkpt>
      <trkpt lat="41.4434704" lon="2.114706">
        <ele>282.45993042</ele>
        <time>2022-10-30T11:34:21Z</time>
      </trkpt>
      <trkpt lat="41.4435254" lon="2.114604">
        <ele>281.68994141</ele>
        <time>2022-10-30T11:34:22Z</time>
      </trkpt>
      <trkpt lat="41.4435463" lon="2.1145381">
        <ele>280.94995117</ele>
        <time>2022-10-30T11:34:23Z</time>
      </trkpt>
      <trkpt lat="41.4435593" lon="2.1144812">
        <ele>280.00994873</ele>
        <time>2022-10-30T11:34:24Z</time>
      </trkpt>
      <trkpt lat="41.4435703" lon="2.1144302">
        <ele>279.09994507</ele>
        <time>2022-10-30T11:34:25Z</time>
      </trkpt>
      <trkpt lat="41.4436153" lon="2.1143532">
        <ele>278.23995972</ele>
        <time>2022-10-30T11:34:26Z</time>
      </trkpt>
      <trkpt lat="41.4436532" lon="2.1143093">
        <ele>277.2199707</ele>
        <time>2022-10-30T11:34:27Z</time>
      </trkpt>
      <trkpt lat="41.4436922" lon="2.1142724">
        <ele>276.35998535</ele>
        <time>2022-10-30T11:34:28Z</time>
      </trkpt>
      <trkpt lat="41.4437282" lon="2.1142104">
        <ele>275.44998169</ele>
        <time>2022-10-30T11:34:29Z</time>
      </trkpt>
      <trkpt lat="41.4437631" lon="2.1141065">
        <ele>274.58999634</ele>
        <time>2022-10-30T11:34:30Z</time>
      </trkpt>
      <trkpt lat="41.443797" lon="2.1140506">
        <ele>273.72000122</ele>
        <time>2022-10-30T11:34:31Z</time>
      </trkpt>
      <trkpt lat="41.443832" lon="2.1140106">
        <ele>272.70999146</ele>
        <time>2022-10-30T11:34:32Z</time>
      </trkpt>
      <trkpt lat="41.4438619" lon="2.1139777">
        <ele>271.92999268</ele>
        <time>2022-10-30T11:34:33Z</time>
      </trkpt>
      <trkpt lat="41.4439089" lon="2.1139637">
        <ele>271.17999268</ele>
        <time>2022-10-30T11:34:34Z</time>
      </trkpt>
      <trkpt lat="41.4439598" lon="2.1139537">
        <ele>270.63000488</ele>
        <time>2022-10-30T11:34:35Z</time>
      </trkpt>
      <trkpt lat="41.4440298" lon="2.1139168">
        <ele>270.20999146</ele>
        <time>2022-10-30T11:34:36Z</time>
      </trkpt>
      <trkpt lat="41.4440688" lon="2.1138789">
        <ele>269.61999512</ele>
        <time>2022-10-30T11:34:37Z</time>
      </trkpt>
      <trkpt lat="41.4441057" lon="2.1138389">
        <ele>268.76000977</ele>
        <time>2022-10-30T11:34:38Z</time>
      </trkpt>
      <trkpt lat="41.4441596" lon="2.11377">
        <ele>268.1000061</ele>
        <time>2022-10-30T11:34:39Z</time>
      </trkpt>
      <trkpt lat="41.4441825" lon="2.113744">
        <ele>267.63000488</ele>
        <time>2022-10-30T11:34:40Z</time>
      </trkpt>
      <trkpt lat="41.4442075" lon="2.1137171">
        <ele>267.52999878</ele>
        <time>2022-10-30T11:34:41Z</time>
      </trkpt>
      <trkpt lat="41.4442395" lon="2.1136911">
        <ele>267.80999756</ele>
        <time>2022-10-30T11:34:42Z</time>
      </trkpt>
      <trkpt lat="41.4442724" lon="2.1136401">
        <ele>267.97000122</ele>
        <time>2022-10-30T11:34:43Z</time>
      </trkpt>
      <trkpt lat="41.4442894" lon="2.1136231">
        <ele>268.3500061</ele>
        <time>2022-10-30T11:34:44Z</time>
      </trkpt>
      <trkpt lat="41.4443003" lon="2.1136042">
        <ele>268.70999146</ele>
        <time>2022-10-30T11:34:45Z</time>
      </trkpt>
      <trkpt lat="41.4443063" lon="2.1135912">
        <ele>269.13998413</ele>
        <time>2022-10-30T11:34:46Z</time>
      </trkpt>
      <trkpt lat="41.4443132" lon="2.1135653">
        <ele>269.58999634</ele>
        <time>2022-10-30T11:34:47Z</time>
      </trkpt>
      <trkpt lat="41.4443202" lon="2.1135353">
        <ele>270</ele>
        <time>2022-10-30T11:34:48Z</time>
      </trkpt>
      <trkpt lat="41.4443481" lon="2.1134944">
        <ele>270.32998657</ele>
        <time>2022-10-30T11:34:49Z</time>
      </trkpt>
      <trkpt lat="41.4443681" lon="2.1134755">
        <ele>270.55999756</ele>
        <time>2022-10-30T11:34:50Z</time>
      </trkpt>
      <trkpt lat="41.444391" lon="2.1134485">
        <ele>270.82000732</ele>
        <time>2022-10-30T11:34:51Z</time>
      </trkpt>
      <trkpt lat="41.4444069" lon="2.1134066">
        <ele>271.02001953</ele>
        <time>2022-10-30T11:34:52Z</time>
      </trkpt>
      <trkpt lat="41.4444339" lon="2.1133216">
        <ele>271.16003418</ele>
        <time>2022-10-30T11:34:53Z</time>
      </trkpt>
      <trkpt lat="41.4444529" lon="2.1132896">
        <ele>271.33004761</ele>
        <time>2022-10-30T11:34:54Z</time>
      </trkpt>
      <trkpt lat="41.4444719" lon="2.1132497">
        <ele>271.49005127</ele>
        <time>2022-10-30T11:34:55Z</time>
      </trkpt>
      <trkpt lat="41.4444928" lon="2.1132037">
        <ele>271.59005737</ele>
        <time>2022-10-30T11:34:56Z</time>
      </trkpt>
      <trkpt lat="41.4445228" lon="2.1131458">
        <ele>271.73007202</ele>
        <time>2022-10-30T11:34:57Z</time>
      </trkpt>
      <trkpt lat="41.4445407" lon="2.1131239">
        <ele>271.93008423</ele>
        <time>2022-10-30T11:34:58Z</time>
      </trkpt>
      <trkpt lat="41.4445517" lon="2.1130899">
        <ele>272.12008667</ele>
        <time>2022-10-30T11:34:59Z</time>
      </trkpt>
      <trkpt lat="41.4445756" lon="2.113065">
        <ele>272.38009644</ele>
        <time>2022-10-30T11:35:00Z</time>
      </trkpt>
      <trkpt lat="41.4445866" lon="2.1130401">
        <ele>272.72009277</ele>
        <time>2022-10-30T11:35:01Z</time>
      </trkpt>
      <trkpt lat="41.4446116" lon="2.1129812">
        <ele>272.99008179</ele>
        <time>2022-10-30T11:35:02Z</time>
      </trkpt>
      <trkpt lat="41.4446276" lon="2.1129433">
        <ele>273.30007935</ele>
        <time>2022-10-30T11:35:03Z</time>
      </trkpt>
      <trkpt lat="41.4446315" lon="2.1129193">
        <ele>273.57006836</ele>
        <time>2022-10-30T11:35:04Z</time>
      </trkpt>
      <trkpt lat="41.4446046" lon="2.1129093">
        <ele>273.8600769</ele>
        <time>2022-10-30T11:35:05Z</time>
      </trkpt>
      <trkpt lat="41.4445877" lon="2.1128794">
        <ele>274.1100769</ele>
        <time>2022-10-30T11:35:06Z</time>
      </trkpt>
      <trkpt lat="41.4445906" lon="2.1128364">
        <ele>274.40008545</ele>
        <time>2022-10-30T11:35:07Z</time>
      </trkpt>
      <trkpt lat="41.4446075" lon="2.1128085">
        <ele>274.69009399</ele>
        <time>2022-10-30T11:35:08Z</time>
      </trkpt>
      <trkpt lat="41.4446605" lon="2.1127776">
        <ele>274.98010254</ele>
        <time>2022-10-30T11:35:09Z</time>
      </trkpt>
      <trkpt lat="41.4447354" lon="2.1127506">
        <ele>275.27011108</ele>
        <time>2022-10-30T11:35:10Z</time>
      </trkpt>
      <trkpt lat="41.4447964" lon="2.1127317">
        <ele>275.51010132</ele>
        <time>2022-10-30T11:35:11Z</time>
      </trkpt>
      <trkpt lat="41.4448294" lon="2.1127118">
        <ele>275.73010254</ele>
        <time>2022-10-30T11:35:12Z</time>
      </trkpt>
      <trkpt lat="41.4448623" lon="2.1127008">
        <ele>275.90011597</ele>
        <time>2022-10-30T11:35:13Z</time>
      </trkpt>
      <trkpt lat="41.4449003" lon="2.1127118">
        <ele>276.07012939</ele>
        <time>2022-10-30T11:35:14Z</time>
      </trkpt>
      <trkpt lat="41.4449522" lon="2.1127028">
        <ele>276.31011963</ele>
        <time>2022-10-30T11:35:15Z</time>
      </trkpt>
      <trkpt lat="41.4449932" lon="2.1126899">
        <ele>276.55010986</ele>
        <time>2022-10-30T11:35:16Z</time>
      </trkpt>
      <trkpt lat="41.4450251" lon="2.1126958">
        <ele>276.93011475</ele>
        <time>2022-10-30T11:35:17Z</time>
      </trkpt>
      <trkpt lat="41.4450551" lon="2.1126948">
        <ele>277.31011963</ele>
        <time>2022-10-30T11:35:18Z</time>
      </trkpt>
      <trkpt lat="41.4450851" lon="2.1126889">
        <ele>277.77011108</ele>
        <time>2022-10-30T11:35:19Z</time>
      </trkpt>
      <trkpt lat="41.445145" lon="2.1126779">
        <ele>278.31011963</ele>
        <time>2022-10-30T11:35:20Z</time>
      </trkpt>
      <trkpt lat="41.445186" lon="2.112673">
        <ele>278.75012207</ele>
        <time>2022-10-30T11:35:21Z</time>
      </trkpt>
      <trkpt lat="41.4452189" lon="2.112673">
        <ele>279.19012451</ele>
        <time>2022-10-30T11:35:22Z</time>
      </trkpt>
      <trkpt lat="41.4452549" lon="2.1126759">
        <ele>279.53012085</ele>
        <time>2022-10-30T11:35:23Z</time>
      </trkpt>
      <trkpt lat="41.4453099" lon="2.1126599">
        <ele>279.76013184</ele>
        <time>2022-10-30T11:35:24Z</time>
      </trkpt>
      <trkpt lat="41.4453438" lon="2.1126599">
        <ele>279.93014526</ele>
        <time>2022-10-30T11:35:25Z</time>
      </trkpt>
      <trkpt lat="41.4453677" lon="2.1126589">
        <ele>280.01013184</ele>
        <time>2022-10-30T11:35:26Z</time>
      </trkpt>
      <trkpt lat="41.4453897" lon="2.1126618">
        <ele>279.97012329</ele>
        <time>2022-10-30T11:35:27Z</time>
      </trkpt>
      <trkpt lat="41.4454216" lon="2.1126539">
        <ele>279.87011719</ele>
        <time>2022-10-30T11:35:28Z</time>
      </trkpt>
      <trkpt lat="41.4454586" lon="2.1126678">
        <ele>279.68011475</ele>
        <time>2022-10-30T11:35:29Z</time>
      </trkpt>
      <trkpt lat="41.4454866" lon="2.1126758">
        <ele>279.58010864</ele>
        <time>2022-10-30T11:35:30Z</time>
      </trkpt>
      <trkpt lat="41.4455085" lon="2.1126898">
        <ele>279.51010132</ele>
        <time>2022-10-30T11:35:31Z</time>
      </trkpt>
      <trkpt lat="41.4455424" lon="2.1127097">
        <ele>279.46011353</ele>
        <time>2022-10-30T11:35:32Z</time>
      </trkpt>
      <trkpt lat="41.4455984" lon="2.1127257">
        <ele>279.44012451</ele>
        <time>2022-10-30T11:35:33Z</time>
      </trkpt>
      <trkpt lat="41.4456394" lon="2.1127277">
        <ele>279.38012695</ele>
        <time>2022-10-30T11:35:34Z</time>
      </trkpt>
      <trkpt lat="41.4456894" lon="2.1127346">
        <ele>279.30014038</ele>
        <time>2022-10-30T11:35:35Z</time>
      </trkpt>
      <trkpt lat="41.4457393" lon="2.1127366">
        <ele>279.24014282</ele>
        <time>2022-10-30T11:35:36Z</time>
      </trkpt>
      <trkpt lat="41.4457723" lon="2.1127466">
        <ele>279.24014282</ele>
        <time>2022-10-30T11:35:37Z</time>
      </trkpt>
      <trkpt lat="41.4458202" lon="2.1127555">
        <ele>279.30014038</ele>
        <time>2022-10-30T11:35:38Z</time>
      </trkpt>
      <trkpt lat="41.4458492" lon="2.1127595">
        <ele>279.34014893</ele>
        <time>2022-10-30T11:35:39Z</time>
      </trkpt>
      <trkpt lat="41.4458721" lon="2.1127595">
        <ele>279.41015625</ele>
        <time>2022-10-30T11:35:40Z</time>
      </trkpt>
      <trkpt lat="41.445888" lon="2.1127794">
        <ele>279.41015625</ele>
        <time>2022-10-30T11:35:41Z</time>
      </trkpt>
      <trkpt lat="41.445895" lon="2.1128013">
        <ele>279.35015869</ele>
        <time>2022-10-30T11:35:42Z</time>
      </trkpt>
      <trkpt lat="41.445923" lon="2.1128163">
        <ele>279.29016113</ele>
        <time>2022-10-30T11:35:43Z</time>
      </trkpt>
      <trkpt lat="41.4459569" lon="2.1128432">
        <ele>279.08016968</ele>
        <time>2022-10-30T11:35:44Z</time>
      </trkpt>
      <trkpt lat="41.4459968" lon="2.1128752">
        <ele>278.86016846</ele>
        <time>2022-10-30T11:35:45Z</time>
      </trkpt>
      <trkpt lat="41.4460288" lon="2.1129242">
        <ele>278.59017944</ele>
        <time>2022-10-30T11:35:46Z</time>
      </trkpt>
      <trkpt lat="41.4460907" lon="2.1129861">
        <ele>278.3001709</ele>
        <time>2022-10-30T11:35:47Z</time>
      </trkpt>
      <trkpt lat="41.4461236" lon="2.1130161">
        <ele>278.16015625</ele>
        <time>2022-10-30T11:35:48Z</time>
      </trkpt>
      <trkpt lat="41.4461616" lon="2.113045">
        <ele>277.97015381</ele>
        <time>2022-10-30T11:35:49Z</time>
      </trkpt>
      <trkpt lat="41.4461905" lon="2.113076">
        <ele>277.73016357</ele>
        <time>2022-10-30T11:35:50Z</time>
      </trkpt>
      <trkpt lat="41.4462345" lon="2.1131279">
        <ele>277.50015259</ele>
        <time>2022-10-30T11:35:51Z</time>
      </trkpt>
      <trkpt lat="41.4463004" lon="2.1131549">
        <ele>277.23016357</ele>
        <time>2022-10-30T11:35:52Z</time>
      </trkpt>
      <trkpt lat="41.4463834" lon="2.1131589">
        <ele>277.08016968</ele>
        <time>2022-10-30T11:35:53Z</time>
      </trkpt>
      <trkpt lat="41.4464433" lon="2.1131698">
        <ele>277.04016113</ele>
        <time>2022-10-30T11:35:54Z</time>
      </trkpt>
      <trkpt lat="41.4465052" lon="2.1131598">
        <ele>276.99017334</ele>
        <time>2022-10-30T11:35:55Z</time>
      </trkpt>
      <trkpt lat="41.4465841" lon="2.1131817">
        <ele>276.93017578</ele>
        <time>2022-10-30T11:35:56Z</time>
      </trkpt>
      <trkpt lat="41.44661" lon="2.1132047">
        <ele>276.95016479</ele>
        <time>2022-10-30T11:35:57Z</time>
      </trkpt>
      <trkpt lat="41.44664" lon="2.1132196">
        <ele>276.97015381</ele>
        <time>2022-10-30T11:35:58Z</time>
      </trkpt>
      <trkpt lat="41.446685" lon="2.1132476">
        <ele>277.06015015</ele>
        <time>2022-10-30T11:35:59Z</time>
      </trkpt>
      <trkpt lat="41.4467499" lon="2.1132655">
        <ele>277.29016113</ele>
        <time>2022-10-30T11:36:00Z</time>
      </trkpt>
      <trkpt lat="41.4468479" lon="2.1132804">
        <ele>277.38015747</ele>
        <time>2022-10-30T11:36:01Z</time>
      </trkpt>
      <trkpt lat="41.4469149" lon="2.1132804">
        <ele>277.51016235</ele>
        <time>2022-10-30T11:36:02Z</time>
      </trkpt>
      <trkpt lat="41.4470138" lon="2.1132674">
        <ele>277.49017334</ele>
        <time>2022-10-30T11:36:03Z</time>
      </trkpt>
      <trkpt lat="41.4471067" lon="2.1132655">
        <ele>277.12017822</ele>
        <time>2022-10-30T11:36:04Z</time>
      </trkpt>
      <trkpt lat="41.4472056" lon="2.1132615">
        <ele>276.35018921</ele>
        <time>2022-10-30T11:36:05Z</time>
      </trkpt>
      <trkpt lat="41.4472905" lon="2.1132566">
        <ele>275.35018921</ele>
        <time>2022-10-30T11:36:06Z</time>
      </trkpt>
      <trkpt lat="41.4473565" lon="2.1132625">
        <ele>274.34017944</ele>
        <time>2022-10-30T11:36:07Z</time>
      </trkpt>
      <trkpt lat="41.4474254" lon="2.1132625">
        <ele>273.58016968</ele>
        <time>2022-10-30T11:36:08Z</time>
      </trkpt>
      <trkpt lat="41.4474873" lon="2.1132465">
        <ele>273.36016846</ele>
        <time>2022-10-30T11:36:09Z</time>
      </trkpt>
      <trkpt lat="41.4476043" lon="2.1132625">
        <ele>272.97015381</ele>
        <time>2022-10-30T11:36:10Z</time>
      </trkpt>
      <trkpt lat="41.4476743" lon="2.1132566">
        <ele>272.51016235</ele>
        <time>2022-10-30T11:36:11Z</time>
      </trkpt>
      <trkpt lat="41.4477273" lon="2.1132636">
        <ele>272.00015259</ele>
        <time>2022-10-30T11:36:12Z</time>
      </trkpt>
      <trkpt lat="41.4477952" lon="2.1132296">
        <ele>271.37014771</ele>
        <time>2022-10-30T11:36:13Z</time>
      </trkpt>
      <trkpt lat="41.4478881" lon="2.1131717">
        <ele>271.04016113</ele>
        <time>2022-10-30T11:36:14Z</time>
      </trkpt>
      <trkpt lat="41.447951" lon="2.1131347">
        <ele>270.96017456</ele>
        <time>2022-10-30T11:36:15Z</time>
      </trkpt>
      <trkpt lat="41.448001" lon="2.1131057">
        <ele>270.92016602</ele>
        <time>2022-10-30T11:36:16Z</time>
      </trkpt>
      <trkpt lat="41.4480499" lon="2.1130828">
        <ele>270.94015503</ele>
        <time>2022-10-30T11:36:17Z</time>
      </trkpt>
      <trkpt lat="41.4480989" lon="2.1130728">
        <ele>270.96014404</ele>
        <time>2022-10-30T11:36:18Z</time>
      </trkpt>
      <trkpt lat="41.4481719" lon="2.1130498">
        <ele>270.98013306</ele>
        <time>2022-10-30T11:36:19Z</time>
      </trkpt>
      <trkpt lat="41.4482118" lon="2.1130607">
        <ele>271.0201416</ele>
        <time>2022-10-30T11:36:20Z</time>
      </trkpt>
      <trkpt lat="41.4482437" lon="2.1130757">
        <ele>271.13012695</ele>
        <time>2022-10-30T11:36:21Z</time>
      </trkpt>
      <trkpt lat="41.4482817" lon="2.1130887">
        <ele>271.26013184</ele>
        <time>2022-10-30T11:36:22Z</time>
      </trkpt>
      <trkpt lat="41.4483526" lon="2.1130858">
        <ele>271.29013062</ele>
        <time>2022-10-30T11:36:23Z</time>
      </trkpt>
      <trkpt lat="41.4483916" lon="2.1130838">
        <ele>271.32012939</ele>
        <time>2022-10-30T11:36:24Z</time>
      </trkpt>
      <trkpt lat="41.4484285" lon="2.1130719">
        <ele>271.32012939</ele>
        <time>2022-10-30T11:36:25Z</time>
      </trkpt>
      <trkpt lat="41.4484695" lon="2.113066">
        <ele>271.43011475</ele>
        <time>2022-10-30T11:36:26Z</time>
      </trkpt>
      <trkpt lat="41.4485184" lon="2.113042">
        <ele>271.5401001</ele>
        <time>2022-10-30T11:36:27Z</time>
      </trkpt>
      <trkpt lat="41.4485914" lon="2.1130151">
        <ele>271.65008545</ele>
        <time>2022-10-30T11:36:28Z</time>
      </trkpt>
      <trkpt lat="41.4486323" lon="2.1130071">
        <ele>271.88009644</ele>
        <time>2022-10-30T11:36:29Z</time>
      </trkpt>
      <trkpt lat="41.4486683" lon="2.1130171">
        <ele>272.05010986</ele>
        <time>2022-10-30T11:36:30Z</time>
      </trkpt>
      <trkpt lat="41.4487103" lon="2.1130102">
        <ele>271.7901001</ele>
        <time>2022-10-30T11:36:31Z</time>
      </trkpt>
      <trkpt lat="41.4487523" lon="2.1130211">
        <ele>271.30010986</ele>
        <time>2022-10-30T11:36:32Z</time>
      </trkpt>
      <trkpt lat="41.4487663" lon="2.1130411">
        <ele>270.42010498</ele>
        <time>2022-10-30T11:36:33Z</time>
      </trkpt>
      <trkpt lat="41.4487782" lon="2.113058">
        <ele>269.31011963</ele>
        <time>2022-10-30T11:36:34Z</time>
      </trkpt>
      <trkpt lat="41.4487782" lon="2.113083">
        <ele>268.48013306</ele>
        <time>2022-10-30T11:36:35Z</time>
      </trkpt>
      <trkpt lat="41.448792" lon="2.113081">
        <ele>267.6000061</ele>
        <time>2022-10-30T11:36:35Z</time>
      </trkpt>
      <trkpt lat="41.4488089" lon="2.1131079">
        <ele>266.89001465</ele>
        <time>2022-10-30T11:36:36Z</time>
      </trkpt>
      <trkpt lat="41.4488339" lon="2.1131548">
        <ele>265.96002197</ele>
        <time>2022-10-30T11:36:37Z</time>
      </trkpt>
      <trkpt lat="41.4488809" lon="2.1132188">
        <ele>264.90002441</ele>
        <time>2022-10-30T11:36:38Z</time>
      </trkpt>
      <trkpt lat="41.4489169" lon="2.1132787">
        <ele>263.93002319</ele>
        <time>2022-10-30T11:36:39Z</time>
      </trkpt>
      <trkpt lat="41.4489508" lon="2.1133337">
        <ele>262.90002441</ele>
        <time>2022-10-30T11:36:40Z</time>
      </trkpt>
      <trkpt lat="41.4489917" lon="2.1134026">
        <ele>262.2800293</ele>
        <time>2022-10-30T11:36:41Z</time>
      </trkpt>
      <trkpt lat="41.4490037" lon="2.1134286">
        <ele>261.55001831</ele>
        <time>2022-10-30T11:36:42Z</time>
      </trkpt>
      <trkpt lat="41.4490317" lon="2.1134535">
        <ele>260.89001465</ele>
        <time>2022-10-30T11:36:43Z</time>
      </trkpt>
      <trkpt lat="41.4490636" lon="2.1134855">
        <ele>260.01000977</ele>
        <time>2022-10-30T11:36:44Z</time>
      </trkpt>
      <trkpt lat="41.4490916" lon="2.1135264">
        <ele>258.97000122</ele>
        <time>2022-10-30T11:36:45Z</time>
      </trkpt>
      <trkpt lat="41.4491076" lon="2.1135614">
        <ele>258.36999512</ele>
        <time>2022-10-30T11:36:46Z</time>
      </trkpt>
      <trkpt lat="41.4491155" lon="2.1135863">
        <ele>257.75</ele>
        <time>2022-10-30T11:36:47Z</time>
      </trkpt>
      <trkpt lat="41.4491235" lon="2.1136052">
        <ele>257.29998779</ele>
        <time>2022-10-30T11:36:48Z</time>
      </trkpt>
      <trkpt lat="41.4491365" lon="2.1136252">
        <ele>256.79998779</ele>
        <time>2022-10-30T11:36:49Z</time>
      </trkpt>
      <trkpt lat="41.4491564" lon="2.1136392">
        <ele>256.25997925</ele>
        <time>2022-10-30T11:36:50Z</time>
      </trkpt>
      <trkpt lat="41.4491653" lon="2.1136471">
        <ele>255.25997925</ele>
        <time>2022-10-30T11:36:51Z</time>
      </trkpt>
      <trkpt lat="41.4491843" lon="2.1136581">
        <ele>254.39997864</ele>
        <time>2022-10-30T11:36:52Z</time>
      </trkpt>
      <trkpt lat="41.4492102" lon="2.113668">
        <ele>253.5599823</ele>
        <time>2022-10-30T11:36:53Z</time>
      </trkpt>
      <trkpt lat="41.4492462" lon="2.113681">
        <ele>252.57998657</ele>
        <time>2022-10-30T11:36:54Z</time>
      </trkpt>
      <trkpt lat="41.4493251" lon="2.1136801">
        <ele>251.84999084</ele>
        <time>2022-10-30T11:36:55Z</time>
      </trkpt>
      <trkpt lat="41.449376" lon="2.1136701">
        <ele>251.01998901</ele>
        <time>2022-10-30T11:36:56Z</time>
      </trkpt>
      <trkpt lat="41.44942" lon="2.1136552">
        <ele>250.03999329</ele>
        <time>2022-10-30T11:36:57Z</time>
      </trkpt>
      <trkpt lat="41.449456" lon="2.1136502">
        <ele>249.43998718</ele>
        <time>2022-10-30T11:36:58Z</time>
      </trkpt>
      <trkpt lat="41.4495179" lon="2.1136302">
        <ele>248.98999023</ele>
        <time>2022-10-30T11:36:59Z</time>
      </trkpt>
      <trkpt lat="41.4495599" lon="2.1136283">
        <ele>248.42999268</ele>
        <time>2022-10-30T11:37:00Z</time>
      </trkpt>
      <trkpt lat="41.4496058" lon="2.1136123">
        <ele>247.84999084</ele>
        <time>2022-10-30T11:37:01Z</time>
      </trkpt>
      <trkpt lat="41.4496317" lon="2.1136203">
        <ele>246.95999146</ele>
        <time>2022-10-30T11:37:02Z</time>
      </trkpt>
      <trkpt lat="41.4496546" lon="2.1136302">
        <ele>245.95999146</ele>
        <time>2022-10-30T11:37:03Z</time>
      </trkpt>
      <trkpt lat="41.4496806" lon="2.1136732">
        <ele>245.1599884</ele>
        <time>2022-10-30T11:37:04Z</time>
      </trkpt>
      <trkpt lat="41.4496946" lon="2.1137171">
        <ele>244.60998535</ele>
        <time>2022-10-30T11:37:05Z</time>
      </trkpt>
      <trkpt lat="41.4497125" lon="2.1137341">
        <ele>243.91998291</ele>
        <time>2022-10-30T11:37:06Z</time>
      </trkpt>
      <trkpt lat="41.4497134" lon="2.1137231">
        <ele>243.51998901</ele>
        <time>2022-10-30T11:37:07Z</time>
      </trkpt>
      <trkpt lat="41.4497464" lon="2.1137001">
        <ele>242.97999573</ele>
        <time>2022-10-30T11:37:08Z</time>
      </trkpt>
      <trkpt lat="41.4497803" lon="2.1137081">
        <ele>242.3999939</ele>
        <time>2022-10-30T11:37:09Z</time>
      </trkpt>
      <trkpt lat="41.4498262" lon="2.1137241">
        <ele>241.57998657</ele>
        <time>2022-10-30T11:37:10Z</time>
      </trkpt>
      <trkpt lat="41.4498562" lon="2.113742">
        <ele>240.53999329</ele>
        <time>2022-10-30T11:37:11Z</time>
      </trkpt>
      <trkpt lat="41.4499271" lon="2.1137609">
        <ele>239.54998779</ele>
        <time>2022-10-30T11:37:12Z</time>
      </trkpt>
      <trkpt lat="41.4499601" lon="2.1137689">
        <ele>238.36999512</ele>
        <time>2022-10-30T11:37:13Z</time>
      </trkpt>
      <trkpt lat="41.4499961" lon="2.1137679">
        <ele>237.54998779</ele>
        <time>2022-10-30T11:37:14Z</time>
      </trkpt>
      <trkpt lat="41.45005" lon="2.1137639">
        <ele>236.93998718</ele>
        <time>2022-10-30T11:37:15Z</time>
      </trkpt>
      <trkpt lat="41.450116" lon="2.1137668">
        <ele>235.72998047</ele>
        <time>2022-10-30T11:37:16Z</time>
      </trkpt>
      <trkpt lat="41.4501949" lon="2.1137619">
        <ele>234.76997375</ele>
        <time>2022-10-30T11:37:17Z</time>
      </trkpt>
      <trkpt lat="41.4502458" lon="2.1137648">
        <ele>233.94996643</ele>
        <time>2022-10-30T11:37:18Z</time>
      </trkpt>
      <trkpt lat="41.4503147" lon="2.1137218">
        <ele>232.76997375</ele>
        <time>2022-10-30T11:37:19Z</time>
      </trkpt>
      <trkpt lat="41.4503766" lon="2.1136929">
        <ele>232.24996948</ele>
        <time>2022-10-30T11:37:20Z</time>
      </trkpt>
      <trkpt lat="41.4504826" lon="2.1136329">
        <ele>231.62997437</ele>
        <time>2022-10-30T11:37:21Z</time>
      </trkpt>
      <trkpt lat="41.4505466" lon="2.113593">
        <ele>231.00997925</ele>
        <time>2022-10-30T11:37:22Z</time>
      </trkpt>
      <trkpt lat="41.4506026" lon="2.1135561">
        <ele>230.59997559</ele>
        <time>2022-10-30T11:37:23Z</time>
      </trkpt>
      <trkpt lat="41.4506525" lon="2.1135152">
        <ele>230.22998047</ele>
        <time>2022-10-30T11:37:24Z</time>
      </trkpt>
      <trkpt lat="41.4506855" lon="2.1134862">
        <ele>229.8099823</ele>
        <time>2022-10-30T11:37:25Z</time>
      </trkpt>
      <trkpt lat="41.4507495" lon="2.1134613">
        <ele>229.47998047</ele>
        <time>2022-10-30T11:37:26Z</time>
      </trkpt>
      <trkpt lat="41.4507855" lon="2.1134493">
        <ele>228.91998291</ele>
        <time>2022-10-30T11:37:27Z</time>
      </trkpt>
      <trkpt lat="41.4508254" lon="2.1134474">
        <ele>228.3099823</ele>
        <time>2022-10-30T11:37:28Z</time>
      </trkpt>
      <trkpt lat="41.4508693" lon="2.1134493">
        <ele>227.41998291</ele>
        <time>2022-10-30T11:37:29Z</time>
      </trkpt>
      <trkpt lat="41.4509373" lon="2.1134264">
        <ele>225.9599762</ele>
        <time>2022-10-30T11:37:30Z</time>
      </trkpt>
      <trkpt lat="41.4509892" lon="2.1133954">
        <ele>224.58998108</ele>
        <time>2022-10-30T11:37:31Z</time>
      </trkpt>
      <trkpt lat="41.4510332" lon="2.1133715">
        <ele>222.85998535</ele>
        <time>2022-10-30T11:37:32Z</time>
      </trkpt>
      <trkpt lat="41.4510681" lon="2.1133635">
        <ele>221.71998596</ele>
        <time>2022-10-30T11:37:33Z</time>
      </trkpt>
      <trkpt lat="41.4511011" lon="2.1133496">
        <ele>220.70999146</ele>
        <time>2022-10-30T11:37:34Z</time>
      </trkpt>
      <trkpt lat="41.4511681" lon="2.1133347">
        <ele>219.77999878</ele>
        <time>2022-10-30T11:37:35Z</time>
      </trkpt>
      <trkpt lat="41.451206" lon="2.1133327">
        <ele>219.19999695</ele>
        <time>2022-10-30T11:37:36Z</time>
      </trkpt>
      <trkpt lat="41.451242" lon="2.1133327">
        <ele>218.25</ele>
        <time>2022-10-30T11:37:37Z</time>
      </trkpt>
      <trkpt lat="41.4512709" lon="2.1133257">
        <ele>217.41000366</ele>
        <time>2022-10-30T11:37:38Z</time>
      </trkpt>
      <trkpt lat="41.4513239" lon="2.1133118">
        <ele>216.44999695</ele>
        <time>2022-10-30T11:37:39Z</time>
      </trkpt>
      <trkpt lat="41.4513659" lon="2.1132908">
        <ele>215.25999451</ele>
        <time>2022-10-30T11:37:40Z</time>
      </trkpt>
      <trkpt lat="41.4514058" lon="2.1132649">
        <ele>214.18998718</ele>
        <time>2022-10-30T11:37:41Z</time>
      </trkpt>
      <trkpt lat="41.4514427" lon="2.1132329">
        <ele>213.24998474</ele>
        <time>2022-10-30T11:37:42Z</time>
      </trkpt>
      <trkpt lat="41.4514847" lon="2.113208">
        <ele>212.19998169</ele>
        <time>2022-10-30T11:37:43Z</time>
      </trkpt>
      <trkpt lat="41.4515557" lon="2.113197">
        <ele>211.24998474</ele>
        <time>2022-10-30T11:37:44Z</time>
      </trkpt>
      <trkpt lat="41.4516007" lon="2.1131951">
        <ele>210.47998047</ele>
        <time>2022-10-30T11:37:45Z</time>
      </trkpt>
      <trkpt lat="41.4516246" lon="2.113206">
        <ele>209.35998535</ele>
        <time>2022-10-30T11:37:46Z</time>
      </trkpt>
      <trkpt lat="41.4516576" lon="2.113213">
        <ele>208.60998535</ele>
        <time>2022-10-30T11:37:47Z</time>
      </trkpt>
      <trkpt lat="41.4517125" lon="2.113209">
        <ele>208.07998657</ele>
        <time>2022-10-30T11:37:48Z</time>
      </trkpt>
      <trkpt lat="41.4517615" lon="2.1131971">
        <ele>207.3999939</ele>
        <time>2022-10-30T11:37:49Z</time>
      </trkpt>
      <trkpt lat="41.4518074" lon="2.1131922">
        <ele>207.20999146</ele>
        <time>2022-10-30T11:37:50Z</time>
      </trkpt>
      <trkpt lat="41.4518553" lon="2.1131752">
        <ele>207.02999878</ele>
        <time>2022-10-30T11:37:51Z</time>
      </trkpt>
      <trkpt lat="41.4519003" lon="2.1131522">
        <ele>206.81999207</ele>
        <time>2022-10-30T11:37:52Z</time>
      </trkpt>
      <trkpt lat="41.4519622" lon="2.1131202">
        <ele>206.77999878</ele>
        <time>2022-10-30T11:37:53Z</time>
      </trkpt>
      <trkpt lat="41.4519942" lon="2.1130893">
        <ele>206.75</ele>
        <time>2022-10-30T11:37:54Z</time>
      </trkpt>
      <trkpt lat="41.4520211" lon="2.1130494">
        <ele>206.74000549</ele>
        <time>2022-10-30T11:37:55Z</time>
      </trkpt>
      <trkpt lat="41.452055" lon="2.1130294">
        <ele>206.87001038</ele>
        <time>2022-10-30T11:37:56Z</time>
      </trkpt>
      <trkpt lat="41.452105" lon="2.1130265">
        <ele>206.99000549</ele>
        <time>2022-10-30T11:37:57Z</time>
      </trkpt>
      <trkpt lat="41.452147" lon="2.1130215">
        <ele>207.16000366</ele>
        <time>2022-10-30T11:37:58Z</time>
      </trkpt>
      <trkpt lat="41.4521839" lon="2.1130016">
        <ele>207.3500061</ele>
        <time>2022-10-30T11:37:59Z</time>
      </trkpt>
      <trkpt lat="41.4522268" lon="2.1129836">
        <ele>207.29000854</ele>
        <time>2022-10-30T11:38:00Z</time>
      </trkpt>
      <trkpt lat="41.4522708" lon="2.1129697">
        <ele>207.16000366</ele>
        <time>2022-10-30T11:38:01Z</time>
      </trkpt>
      <trkpt lat="41.4523367" lon="2.1129608">
        <ele>206.87001038</ele>
        <time>2022-10-30T11:38:02Z</time>
      </trkpt>
      <trkpt lat="41.4523846" lon="2.1129498">
        <ele>206.43000793</ele>
        <time>2022-10-30T11:38:03Z</time>
      </trkpt>
      <trkpt lat="41.4524336" lon="2.1129517">
        <ele>205.89001465</ele>
        <time>2022-10-30T11:38:04Z</time>
      </trkpt>
      <trkpt lat="41.4524815" lon="2.1129667">
        <ele>205.38002014</ele>
        <time>2022-10-30T11:38:05Z</time>
      </trkpt>
      <trkpt lat="41.4525515" lon="2.1129797">
        <ele>204.81001282</ele>
        <time>2022-10-30T11:38:06Z</time>
      </trkpt>
      <trkpt lat="41.4525854" lon="2.1130026">
        <ele>204.26000977</ele>
        <time>2022-10-30T11:38:07Z</time>
      </trkpt>
      <trkpt lat="41.4526154" lon="2.1130146">
        <ele>203.88000488</ele>
        <time>2022-10-30T11:38:08Z</time>
      </trkpt>
      <trkpt lat="41.4526463" lon="2.1130155">
        <ele>203.38000488</ele>
        <time>2022-10-30T11:38:09Z</time>
      </trkpt>
      <trkpt lat="41.4526822" lon="2.1130265">
        <ele>202.8400116</ele>
        <time>2022-10-30T11:38:10Z</time>
      </trkpt>
      <trkpt lat="41.4527331" lon="2.1130414">
        <ele>202.36001587</ele>
        <time>2022-10-30T11:38:11Z</time>
      </trkpt>
      <trkpt lat="41.4527751" lon="2.1130414">
        <ele>201.9400177</ele>
        <time>2022-10-30T11:38:12Z</time>
      </trkpt>
      <trkpt lat="41.4528251" lon="2.1130335">
        <ele>201.52001953</ele>
        <time>2022-10-30T11:38:13Z</time>
      </trkpt>
      <trkpt lat="41.452882" lon="2.1130295">
        <ele>201.32002258</ele>
        <time>2022-10-30T11:38:14Z</time>
      </trkpt>
      <trkpt lat="41.452927" lon="2.1130314">
        <ele>200.97001648</ele>
        <time>2022-10-30T11:38:15Z</time>
      </trkpt>
      <trkpt lat="41.452956" lon="2.1130584">
        <ele>200.67001343</ele>
        <time>2022-10-30T11:38:16Z</time>
      </trkpt>
      <trkpt lat="41.4529859" lon="2.1130763">
        <ele>200.51000977</ele>
        <time>2022-10-30T11:38:17Z</time>
      </trkpt>
      <trkpt lat="41.4530139" lon="2.1131123">
        <ele>200.19000244</ele>
        <time>2022-10-30T11:38:18Z</time>
      </trkpt>
      <trkpt lat="41.4530478" lon="2.1131392">
        <ele>200.02999878</ele>
        <time>2022-10-30T11:38:19Z</time>
      </trkpt>
      <trkpt lat="41.4531198" lon="2.1131432">
        <ele>199.83999634</ele>
        <time>2022-10-30T11:38:20Z</time>
      </trkpt>
      <trkpt lat="41.4531817" lon="2.1131491">
        <ele>199.62998962</ele>
        <time>2022-10-30T11:38:21Z</time>
      </trkpt>
      <trkpt lat="41.4532547" lon="2.1131302">
        <ele>199.51998901</ele>
        <time>2022-10-30T11:38:22Z</time>
      </trkpt>
      <trkpt lat="41.4533047" lon="2.1131193">
        <ele>199.27998352</ele>
        <time>2022-10-30T11:38:23Z</time>
      </trkpt>
      <trkpt lat="41.4533846" lon="2.1131133">
        <ele>199.10998535</ele>
        <time>2022-10-30T11:38:24Z</time>
      </trkpt>
      <trkpt lat="41.4534585" lon="2.1130824">
        <ele>198.62998962</ele>
        <time>2022-10-30T11:38:25Z</time>
      </trkpt>
      <trkpt lat="41.4535015" lon="2.1130745">
        <ele>197.8999939</ele>
        <time>2022-10-30T11:38:26Z</time>
      </trkpt>
      <trkpt lat="41.4535414" lon="2.1130804">
        <ele>197.4099884</ele>
        <time>2022-10-30T11:38:27Z</time>
      </trkpt>
      <trkpt lat="41.4535893" lon="2.1130754">
        <ele>196.44998169</ele>
        <time>2022-10-30T11:38:28Z</time>
      </trkpt>
      <trkpt lat="41.4536662" lon="2.1131024">
        <ele>195.76998901</ele>
        <time>2022-10-30T11:38:29Z</time>
      </trkpt>
      <trkpt lat="41.4537042" lon="2.1131124">
        <ele>195.3099823</ele>
        <time>2022-10-30T11:38:30Z</time>
      </trkpt>
      <trkpt lat="41.4537361" lon="2.1131273">
        <ele>194.52998352</ele>
        <time>2022-10-30T11:38:31Z</time>
      </trkpt>
      <trkpt lat="41.4537851" lon="2.1131173">
        <ele>194.13998413</ele>
        <time>2022-10-30T11:38:32Z</time>
      </trkpt>
      <trkpt lat="41.453851" lon="2.1130964">
        <ele>193.69998169</ele>
        <time>2022-10-30T11:38:33Z</time>
      </trkpt>
      <trkpt lat="41.4538969" lon="2.1130884">
        <ele>193.11997986</ele>
        <time>2022-10-30T11:38:34Z</time>
      </trkpt>
      <trkpt lat="41.4539259" lon="2.1130913">
        <ele>192.8099823</ele>
        <time>2022-10-30T11:38:35Z</time>
      </trkpt>
      <trkpt lat="41.4539638" lon="2.1130972">
        <ele>192.33998108</ele>
        <time>2022-10-30T11:38:36Z</time>
      </trkpt>
      <trkpt lat="41.4539837" lon="2.1131102">
        <ele>191.88998413</ele>
        <time>2022-10-30T11:38:37Z</time>
      </trkpt>
      <trkpt lat="41.4540247" lon="2.1131182">
        <ele>191.64997864</ele>
        <time>2022-10-30T11:38:38Z</time>
      </trkpt>
      <trkpt lat="41.4540566" lon="2.1131201">
        <ele>191.35998535</ele>
        <time>2022-10-30T11:38:39Z</time>
      </trkpt>
      <trkpt lat="41.4540916" lon="2.1131211">
        <ele>191.23999023</ele>
        <time>2022-10-30T11:38:40Z</time>
      </trkpt>
      <trkpt lat="41.4541185" lon="2.1131182">
        <ele>191.22999573</ele>
        <time>2022-10-30T11:38:41Z</time>
      </trkpt>
      <trkpt lat="41.4541455" lon="2.1131072">
        <ele>191.13999939</ele>
        <time>2022-10-30T11:38:42Z</time>
      </trkpt>
      <trkpt lat="41.4541824" lon="2.1131013">
        <ele>191.00999451</ele>
        <time>2022-10-30T11:38:43Z</time>
      </trkpt>
      <trkpt lat="41.4542083" lon="2.1131113">
        <ele>190.72000122</ele>
        <time>2022-10-30T11:38:44Z</time>
      </trkpt>
      <trkpt lat="41.4542363" lon="2.1131273">
        <ele>190.33000183</ele>
        <time>2022-10-30T11:38:45Z</time>
      </trkpt>
      <trkpt lat="41.4542643" lon="2.1131383">
        <ele>190.07000732</ele>
        <time>2022-10-30T11:38:46Z</time>
      </trkpt>
      <trkpt lat="41.4543253" lon="2.1131343">
        <ele>189.69000244</ele>
        <time>2022-10-30T11:38:47Z</time>
      </trkpt>
      <trkpt lat="41.4543572" lon="2.1131383">
        <ele>189.47999573</ele>
        <time>2022-10-30T11:38:48Z</time>
      </trkpt>
      <trkpt lat="41.4543831" lon="2.1131383">
        <ele>189.26998901</ele>
        <time>2022-10-30T11:38:49Z</time>
      </trkpt>
      <trkpt lat="41.4544081" lon="2.1131343">
        <ele>188.98999023</ele>
        <time>2022-10-30T11:38:50Z</time>
      </trkpt>
      <trkpt lat="41.454442" lon="2.1131293">
        <ele>188.27998352</ele>
        <time>2022-10-30T11:38:51Z</time>
      </trkpt>
      <trkpt lat="41.454492" lon="2.1131254">
        <ele>187.46998596</ele>
        <time>2022-10-30T11:38:52Z</time>
      </trkpt>
      <trkpt lat="41.454531" lon="2.1131114">
        <ele>186.64997864</ele>
        <time>2022-10-30T11:38:53Z</time>
      </trkpt>
      <trkpt lat="41.4545769" lon="2.1130865">
        <ele>185.68997192</ele>
        <time>2022-10-30T11:38:54Z</time>
      </trkpt>
      <trkpt lat="41.4546259" lon="2.1130746">
        <ele>185.2199707</ele>
        <time>2022-10-30T11:38:55Z</time>
      </trkpt>
      <trkpt lat="41.4547018" lon="2.1130765">
        <ele>184.55996704</ele>
        <time>2022-10-30T11:38:56Z</time>
      </trkpt>
      <trkpt lat="41.4547507" lon="2.1130845">
        <ele>183.92996216</ele>
        <time>2022-10-30T11:38:57Z</time>
      </trkpt>
      <trkpt lat="41.4548037" lon="2.1130755">
        <ele>183.3699646</ele>
        <time>2022-10-30T11:38:58Z</time>
      </trkpt>
      <trkpt lat="41.4548406" lon="2.1130726">
        <ele>182.83996582</ele>
        <time>2022-10-30T11:38:59Z</time>
      </trkpt>
      <trkpt lat="41.4548846" lon="2.1130617">
        <ele>182.57997131</ele>
        <time>2022-10-30T11:39:00Z</time>
      </trkpt>
      <trkpt lat="41.4549516" lon="2.1130398">
        <ele>182.35997009</ele>
        <time>2022-10-30T11:39:01Z</time>
      </trkpt>
      <trkpt lat="41.4550065" lon="2.1130398">
        <ele>182.12997437</ele>
        <time>2022-10-30T11:39:02Z</time>
      </trkpt>
      <trkpt lat="41.4550585" lon="2.1130487">
        <ele>181.97998047</ele>
        <time>2022-10-30T11:39:03Z</time>
      </trkpt>
      <trkpt lat="41.4551024" lon="2.1130717">
        <ele>181.81997681</ele>
        <time>2022-10-30T11:39:04Z</time>
      </trkpt>
      <trkpt lat="41.4552104" lon="2.1130667">
        <ele>181.61997986</ele>
        <time>2022-10-30T11:39:05Z</time>
      </trkpt>
      <trkpt lat="41.4552873" lon="2.1130687">
        <ele>181.46998596</ele>
        <time>2022-10-30T11:39:06Z</time>
      </trkpt>
      <trkpt lat="41.4553492" lon="2.1130796">
        <ele>181.53999329</ele>
        <time>2022-10-30T11:39:07Z</time>
      </trkpt>
      <trkpt lat="41.4553951" lon="2.1130617">
        <ele>181.3999939</ele>
        <time>2022-10-30T11:39:08Z</time>
      </trkpt>
      <trkpt lat="41.4554201" lon="2.1130317">
        <ele>181.22000122</ele>
        <time>2022-10-30T11:39:09Z</time>
      </trkpt>
      <trkpt lat="41.4554531" lon="2.1129867">
        <ele>181.05999756</ele>
        <time>2022-10-30T11:39:10Z</time>
      </trkpt>
      <trkpt lat="41.4554671" lon="2.1129588">
        <ele>180.58999634</ele>
        <time>2022-10-30T11:39:11Z</time>
      </trkpt>
      <trkpt lat="41.455487" lon="2.1129328">
        <ele>180.30000305</ele>
        <time>2022-10-30T11:39:12Z</time>
      </trkpt>
      <trkpt lat="41.455509" lon="2.1128889">
        <ele>179.69999695</ele>
        <time>2022-10-30T11:39:13Z</time>
      </trkpt>
      <trkpt lat="41.455567" lon="2.112871">
        <ele>178.86999512</ele>
        <time>2022-10-30T11:39:14Z</time>
      </trkpt>
      <trkpt lat="41.4555869" lon="2.112864">
        <ele>178.28999329</ele>
        <time>2022-10-30T11:39:15Z</time>
      </trkpt>
      <trkpt lat="41.4556158" lon="2.1128551">
        <ele>177.46998596</ele>
        <time>2022-10-30T11:39:16Z</time>
      </trkpt>
      <trkpt lat="41.4556408" lon="2.1128532">
        <ele>176.94998169</ele>
        <time>2022-10-30T11:39:17Z</time>
      </trkpt>
      <trkpt lat="41.4556658" lon="2.1128551">
        <ele>176.49998474</ele>
        <time>2022-10-30T11:39:18Z</time>
      </trkpt>
      <trkpt lat="41.4557167" lon="2.1128881">
        <ele>175.58998108</ele>
        <time>2022-10-30T11:39:19Z</time>
      </trkpt>
      <trkpt lat="41.4557516" lon="2.112915">
        <ele>174.93998718</ele>
        <time>2022-10-30T11:39:20Z</time>
      </trkpt>
      <trkpt lat="41.4557816" lon="2.1129559">
        <ele>174.36997986</ele>
        <time>2022-10-30T11:39:21Z</time>
      </trkpt>
      <trkpt lat="41.4557875" lon="2.1129789">
        <ele>173.86997986</ele>
        <time>2022-10-30T11:39:22Z</time>
      </trkpt>
      <trkpt lat="41.4557735" lon="2.1130128">
        <ele>173.66998291</ele>
        <time>2022-10-30T11:39:23Z</time>
      </trkpt>
      <trkpt lat="41.4557764" lon="2.1130528">
        <ele>173.4099884</ele>
        <time>2022-10-30T11:39:24Z</time>
      </trkpt>
      <trkpt lat="41.4557883" lon="2.1130848">
        <ele>173.21998596</ele>
        <time>2022-10-30T11:39:25Z</time>
      </trkpt>
      <trkpt lat="41.4558113" lon="2.1131187">
        <ele>172.9099884</ele>
        <time>2022-10-30T11:39:26Z</time>
      </trkpt>
      <trkpt lat="41.4558482" lon="2.1131556">
        <ele>172.56999207</ele>
        <time>2022-10-30T11:39:27Z</time>
      </trkpt>
      <trkpt lat="41.4558721" lon="2.1131675">
        <ele>172.1599884</ele>
        <time>2022-10-30T11:39:28Z</time>
      </trkpt>
      <trkpt lat="41.455889" lon="2.1131715">
        <ele>171.58998108</ele>
        <time>2022-10-30T11:39:29Z</time>
      </trkpt>
      <trkpt lat="41.4559119" lon="2.1131735">
        <ele>171.23997498</ele>
        <time>2022-10-30T11:39:30Z</time>
      </trkpt>
      <trkpt lat="41.4559369" lon="2.1131675">
        <ele>170.72998047</ele>
        <time>2022-10-30T11:39:31Z</time>
      </trkpt>
      <trkpt lat="41.4559459" lon="2.1131626">
        <ele>170.19998169</ele>
        <time>2022-10-30T11:39:32Z</time>
      </trkpt>
      <trkpt lat="41.4559778" lon="2.1131547">
        <ele>169.63998413</ele>
        <time>2022-10-30T11:39:33Z</time>
      </trkpt>
      <trkpt lat="41.4559987" lon="2.1131666">
        <ele>168.97998047</ele>
        <time>2022-10-30T11:39:34Z</time>
      </trkpt>
      <trkpt lat="41.4560077" lon="2.1131796">
        <ele>168.42997742</ele>
        <time>2022-10-30T11:39:35Z</time>
      </trkpt>
      <trkpt lat="41.4560077" lon="2.1132246">
        <ele>168.04997253</ele>
        <time>2022-10-30T11:39:36Z</time>
      </trkpt>
      <trkpt lat="41.4560196" lon="2.1132715">
        <ele>167.74996948</ele>
        <time>2022-10-30T11:39:37Z</time>
      </trkpt>
      <trkpt lat="41.4560365" lon="2.1132875">
        <ele>167.35997009</ele>
        <time>2022-10-30T11:39:38Z</time>
      </trkpt>
      <trkpt lat="41.4560555" lon="2.1132884">
        <ele>166.99996948</ele>
        <time>2022-10-30T11:39:39Z</time>
      </trkpt>
      <trkpt lat="41.4560744" lon="2.1132815">
        <ele>166.58996582</ele>
        <time>2022-10-30T11:39:40Z</time>
      </trkpt>
      <trkpt lat="41.4561083" lon="2.1132635">
        <ele>166.27996826</ele>
        <time>2022-10-30T11:39:41Z</time>
      </trkpt>
      <trkpt lat="41.4561383" lon="2.1132436">
        <ele>165.85997009</ele>
        <time>2022-10-30T11:39:42Z</time>
      </trkpt>
      <trkpt lat="41.4561743" lon="2.1132346">
        <ele>165.44996643</ele>
        <time>2022-10-30T11:39:43Z</time>
      </trkpt>
      <trkpt lat="41.4562153" lon="2.1132056">
        <ele>164.69996643</ele>
        <time>2022-10-30T11:39:44Z</time>
      </trkpt>
      <trkpt lat="41.4562712" lon="2.1131857">
        <ele>163.77996826</ele>
        <time>2022-10-30T11:39:45Z</time>
      </trkpt>
      <trkpt lat="41.4562982" lon="2.1131946">
        <ele>162.94996643</ele>
        <time>2022-10-30T11:39:46Z</time>
      </trkpt>
      <trkpt lat="41.4563131" lon="2.1132315">
        <ele>161.98995972</ele>
        <time>2022-10-30T11:39:47Z</time>
      </trkpt>
      <trkpt lat="41.45633" lon="2.1132735">
        <ele>161.41995239</ele>
        <time>2022-10-30T11:39:48Z</time>
      </trkpt>
      <trkpt lat="41.456341" lon="2.1133155">
        <ele>160.95994568</ele>
        <time>2022-10-30T11:39:49Z</time>
      </trkpt>
      <trkpt lat="41.456351" lon="2.1133534">
        <ele>160.64994812</ele>
        <time>2022-10-30T11:39:50Z</time>
      </trkpt>
      <trkpt lat="41.4563539" lon="2.1133674">
        <ele>160.49995422</ele>
        <time>2022-10-30T11:39:51Z</time>
      </trkpt>
      <trkpt lat="41.4563619" lon="2.1133703">
        <ele>160.34996033</ele>
        <time>2022-10-30T11:39:52Z</time>
      </trkpt>
      <trkpt lat="41.456372" lon="2.11337">
        <ele>159.42999268</ele>
        <time>2022-10-30T11:39:52Z</time>
      </trkpt>
      <trkpt lat="41.4564259" lon="2.1133989">
        <ele>158.79998779</ele>
        <time>2022-10-30T11:39:58Z</time>
      </trkpt>
      <trkpt lat="41.4564298" lon="2.1134379">
        <ele>158.69998169</ele>
        <time>2022-10-30T11:39:59Z</time>
      </trkpt>
      <trkpt lat="41.4564318" lon="2.1134619">
        <ele>158.54998779</ele>
        <time>2022-10-30T11:40:00Z</time>
      </trkpt>
      <trkpt lat="41.4564407" lon="2.1134758">
        <ele>158.33998108</ele>
        <time>2022-10-30T11:40:01Z</time>
      </trkpt>
      <trkpt lat="41.4564537" lon="2.1134838">
        <ele>158.14997864</ele>
        <time>2022-10-30T11:40:02Z</time>
      </trkpt>
      <trkpt lat="41.4564636" lon="2.1134897">
        <ele>157.90997314</ele>
        <time>2022-10-30T11:40:03Z</time>
      </trkpt>
      <trkpt lat="41.4564706" lon="2.1135016">
        <ele>157.7199707</ele>
        <time>2022-10-30T11:40:04Z</time>
      </trkpt>
      <trkpt lat="41.4564855" lon="2.1135126">
        <ele>157.60997009</ele>
        <time>2022-10-30T11:40:05Z</time>
      </trkpt>
      <trkpt lat="41.4565084" lon="2.1135185">
        <ele>157.49996948</ele>
        <time>2022-10-30T11:40:06Z</time>
      </trkpt>
      <trkpt lat="41.4565194" lon="2.1135364">
        <ele>157.43997192</ele>
        <time>2022-10-30T11:40:07Z</time>
      </trkpt>
      <trkpt lat="41.4565084" lon="2.1135393">
        <ele>157.37997437</ele>
        <time>2022-10-30T11:40:08Z</time>
      </trkpt>
      <trkpt lat="41.4565025" lon="2.1135403">
        <ele>157.29997253</ele>
        <time>2022-10-30T11:40:09Z</time>
      </trkpt>
      <trkpt lat="41.4565205" lon="2.1135883">
        <ele>156.36997986</ele>
        <time>2022-10-30T11:40:14Z</time>
      </trkpt>
      <trkpt lat="41.4565205" lon="2.1136152">
        <ele>156.21998596</ele>
        <time>2022-10-30T11:40:15Z</time>
      </trkpt>
      <trkpt lat="41.4565294" lon="2.1136292">
        <ele>156.01998901</ele>
        <time>2022-10-30T11:40:16Z</time>
      </trkpt>
      <trkpt lat="41.4565314" lon="2.1136742">
        <ele>155.77998352</ele>
        <time>2022-10-30T11:40:17Z</time>
      </trkpt>
      <trkpt lat="41.4565413" lon="2.1137011">
        <ele>155.63998413</ele>
        <time>2022-10-30T11:40:18Z</time>
      </trkpt>
      <trkpt lat="41.4565453" lon="2.113722">
        <ele>155.51998901</ele>
        <time>2022-10-30T11:40:19Z</time>
      </trkpt>
      <trkpt lat="41.4565652" lon="2.113728">
        <ele>155.41998291</ele>
        <time>2022-10-30T11:40:20Z</time>
      </trkpt>
      <trkpt lat="41.4565872" lon="2.113718">
        <ele>155.18998718</ele>
        <time>2022-10-30T11:40:21Z</time>
      </trkpt>
      <trkpt lat="41.4566161" lon="2.1136801">
        <ele>154.9099884</ele>
        <time>2022-10-30T11:40:22Z</time>
      </trkpt>
      <trkpt lat="41.456647" lon="2.1136561">
        <ele>154.58998108</ele>
        <time>2022-10-30T11:40:23Z</time>
      </trkpt>
      <trkpt lat="41.4566839" lon="2.1136252">
        <ele>154.12997437</ele>
        <time>2022-10-30T11:40:24Z</time>
      </trkpt>
      <trkpt lat="41.4567178" lon="2.1136092">
        <ele>153.75997925</ele>
        <time>2022-10-30T11:40:25Z</time>
      </trkpt>
      <trkpt lat="41.4567797" lon="2.1135612">
        <ele>153.40997314</ele>
        <time>2022-10-30T11:40:26Z</time>
      </trkpt>
      <trkpt lat="41.4568196" lon="2.1135512">
        <ele>152.9699707</ele>
        <time>2022-10-30T11:40:27Z</time>
      </trkpt>
      <trkpt lat="41.4568516" lon="2.1135143">
        <ele>152.64996338</ele>
        <time>2022-10-30T11:40:28Z</time>
      </trkpt>
      <trkpt lat="41.4568845" lon="2.1134734">
        <ele>152.29995728</ele>
        <time>2022-10-30T11:40:29Z</time>
      </trkpt>
      <trkpt lat="41.4569125" lon="2.1134284">
        <ele>151.91995239</ele>
        <time>2022-10-30T11:40:30Z</time>
      </trkpt>
      <trkpt lat="41.4569195" lon="2.1133614">
        <ele>151.74995422</ele>
        <time>2022-10-30T11:40:31Z</time>
      </trkpt>
      <trkpt lat="41.4569284" lon="2.1133194">
        <ele>151.7699585</ele>
        <time>2022-10-30T11:40:32Z</time>
      </trkpt>
      <trkpt lat="41.4569414" lon="2.1132925">
        <ele>151.95996094</ele>
        <time>2022-10-30T11:40:33Z</time>
      </trkpt>
      <trkpt lat="41.4569503" lon="2.1132685">
        <ele>152.29995728</ele>
        <time>2022-10-30T11:40:34Z</time>
      </trkpt>
      <trkpt lat="41.4569753" lon="2.1132456">
        <ele>152.74995422</ele>
        <time>2022-10-30T11:40:35Z</time>
      </trkpt>
      <trkpt lat="41.4570012" lon="2.1132146">
        <ele>153.18995667</ele>
        <time>2022-10-30T11:40:36Z</time>
      </trkpt>
      <trkpt lat="41.4570181" lon="2.1131817">
        <ele>153.70996094</ele>
        <time>2022-10-30T11:40:37Z</time>
      </trkpt>
      <trkpt lat="41.457041" lon="2.1131707">
        <ele>154.33996582</ele>
        <time>2022-10-30T11:40:38Z</time>
      </trkpt>
      <trkpt lat="41.4570919" lon="2.1131238">
        <ele>154.95996094</ele>
        <time>2022-10-30T11:40:39Z</time>
      </trkpt>
      <trkpt lat="41.4571189" lon="2.1130999">
        <ele>155.52996826</ele>
        <time>2022-10-30T11:40:40Z</time>
      </trkpt>
      <trkpt lat="41.4571448" lon="2.1130749">
        <ele>155.99996948</ele>
        <time>2022-10-30T11:40:41Z</time>
      </trkpt>
      <trkpt lat="41.4571798" lon="2.113056">
        <ele>156.41996765</ele>
        <time>2022-10-30T11:40:42Z</time>
      </trkpt>
      <trkpt lat="41.4572187" lon="2.1130391">
        <ele>156.83996582</ele>
        <time>2022-10-30T11:40:43Z</time>
      </trkpt>
      <trkpt lat="41.4572707" lon="2.1129991">
        <ele>157.2699585</ele>
        <time>2022-10-30T11:40:44Z</time>
      </trkpt>
      <trkpt lat="41.4572916" lon="2.1129671">
        <ele>157.80995178</ele>
        <time>2022-10-30T11:40:45Z</time>
      </trkpt>
      <trkpt lat="41.4573136" lon="2.1129282">
        <ele>158.30995178</ele>
        <time>2022-10-30T11:40:46Z</time>
      </trkpt>
      <trkpt lat="41.4573365" lon="2.1128922">
        <ele>158.81994629</ele>
        <time>2022-10-30T11:40:47Z</time>
      </trkpt>
      <trkpt lat="41.4573615" lon="2.1128602">
        <ele>159.3299408</ele>
        <time>2022-10-30T11:40:48Z</time>
      </trkpt>
      <trkpt lat="41.4573915" lon="2.1128252">
        <ele>159.77993774</ele>
        <time>2022-10-30T11:40:49Z</time>
      </trkpt>
      <trkpt lat="41.4574215" lon="2.1127932">
        <ele>160.24993896</ele>
        <time>2022-10-30T11:40:50Z</time>
      </trkpt>
      <trkpt lat="41.4574404" lon="2.1127663">
        <ele>160.69993591</ele>
        <time>2022-10-30T11:40:51Z</time>
      </trkpt>
      <trkpt lat="41.4574644" lon="2.1127474">
        <ele>161.11993408</ele>
        <time>2022-10-30T11:40:52Z</time>
      </trkpt>
      <trkpt lat="41.4575073" lon="2.1127164">
        <ele>161.50993347</ele>
        <time>2022-10-30T11:40:53Z</time>
      </trkpt>
      <trkpt lat="41.4575332" lon="2.1126965">
        <ele>161.85993958</ele>
        <time>2022-10-30T11:40:54Z</time>
      </trkpt>
      <trkpt lat="41.4575582" lon="2.1126845">
        <ele>162.0799408</ele>
        <time>2022-10-30T11:40:55Z</time>
      </trkpt>
      <trkpt lat="41.4575822" lon="2.1126756">
        <ele>162.05993652</ele>
        <time>2022-10-30T11:40:56Z</time>
      </trkpt>
      <trkpt lat="41.4576291" lon="2.1126547">
        <ele>161.89993286</ele>
        <time>2022-10-30T11:40:57Z</time>
      </trkpt>
      <trkpt lat="41.4576591" lon="2.1126518">
        <ele>161.67993164</ele>
        <time>2022-10-30T11:40:58Z</time>
      </trkpt>
      <trkpt lat="41.4576861" lon="2.1126607">
        <ele>161.38993835</ele>
        <time>2022-10-30T11:40:59Z</time>
      </trkpt>
      <trkpt lat="41.457712" lon="2.1126617">
        <ele>161.21994019</ele>
        <time>2022-10-30T11:41:00Z</time>
      </trkpt>
      <trkpt lat="41.4577439" lon="2.1126528">
        <ele>161.04994202</ele>
        <time>2022-10-30T11:41:01Z</time>
      </trkpt>
      <trkpt lat="41.4577979" lon="2.1126388">
        <ele>160.81994629</ele>
        <time>2022-10-30T11:41:02Z</time>
      </trkpt>
      <trkpt lat="41.4578268" lon="2.1126498">
        <ele>160.64994812</ele>
        <time>2022-10-30T11:41:03Z</time>
      </trkpt>
      <trkpt lat="41.4578518" lon="2.1126567">
        <ele>160.56994629</ele>
        <time>2022-10-30T11:41:04Z</time>
      </trkpt>
      <trkpt lat="41.4578927" lon="2.1126577">
        <ele>160.58995056</ele>
        <time>2022-10-30T11:41:05Z</time>
      </trkpt>
      <trkpt lat="41.4579287" lon="2.1126656">
        <ele>160.73994446</ele>
        <time>2022-10-30T11:41:06Z</time>
      </trkpt>
      <trkpt lat="41.4579516" lon="2.1126766">
        <ele>160.88993835</ele>
        <time>2022-10-30T11:41:07Z</time>
      </trkpt>
      <trkpt lat="41.4579736" lon="2.1126737">
        <ele>161.01994324</ele>
        <time>2022-10-30T11:41:08Z</time>
      </trkpt>
      <trkpt lat="41.4579935" lon="2.1126597">
        <ele>161.05993652</ele>
        <time>2022-10-30T11:41:09Z</time>
      </trkpt>
      <trkpt lat="41.4580185" lon="2.1126448">
        <ele>161.05993652</ele>
        <time>2022-10-30T11:41:10Z</time>
      </trkpt>
      <trkpt lat="41.4580575" lon="2.1126049">
        <ele>161.15994263</ele>
        <time>2022-10-30T11:41:11Z</time>
      </trkpt>
      <trkpt lat="41.4580804" lon="2.1125819">
        <ele>161.21994019</ele>
        <time>2022-10-30T11:41:12Z</time>
      </trkpt>
      <trkpt lat="41.4580983" lon="2.1125499">
        <ele>161.39993286</ele>
        <time>2022-10-30T11:41:13Z</time>
      </trkpt>
      <trkpt lat="41.4581223" lon="2.1125149">
        <ele>161.59992981</ele>
        <time>2022-10-30T11:41:14Z</time>
      </trkpt>
      <trkpt lat="41.4581372" lon="2.112474">
        <ele>161.75993347</ele>
        <time>2022-10-30T11:41:15Z</time>
      </trkpt>
      <trkpt lat="41.4581343" lon="2.112404">
        <ele>161.97993469</ele>
        <time>2022-10-30T11:41:16Z</time>
      </trkpt>
      <trkpt lat="41.4581372" lon="2.112353">
        <ele>162.0799408</ele>
        <time>2022-10-30T11:41:17Z</time>
      </trkpt>
      <trkpt lat="41.4581292" lon="2.112307">
        <ele>162.31994629</ele>
        <time>2022-10-30T11:41:18Z</time>
      </trkpt>
      <trkpt lat="41.4581163" lon="2.1122601">
        <ele>162.59994507</ele>
        <time>2022-10-30T11:41:19Z</time>
      </trkpt>
      <trkpt lat="41.4581143" lon="2.1121852">
        <ele>162.99993896</ele>
        <time>2022-10-30T11:41:20Z</time>
      </trkpt>
      <trkpt lat="41.4581143" lon="2.1121532">
        <ele>163.47993469</ele>
        <time>2022-10-30T11:41:21Z</time>
      </trkpt>
      <trkpt lat="41.4581054" lon="2.1121172">
        <ele>163.91993713</ele>
        <time>2022-10-30T11:41:22Z</time>
      </trkpt>
      <trkpt lat="41.4581063" lon="2.1120743">
        <ele>164.3299408</ele>
        <time>2022-10-30T11:41:23Z</time>
      </trkpt>
      <trkpt lat="41.4581034" lon="2.1120093">
        <ele>164.70994568</ele>
        <time>2022-10-30T11:41:24Z</time>
      </trkpt>
      <trkpt lat="41.4581164" lon="2.1119384">
        <ele>165.03994751</ele>
        <time>2022-10-30T11:41:25Z</time>
      </trkpt>
      <trkpt lat="41.4581333" lon="2.1118964">
        <ele>165.20994568</ele>
        <time>2022-10-30T11:41:26Z</time>
      </trkpt>
      <trkpt lat="41.4581283" lon="2.1118834">
        <ele>165.33995056</ele>
        <time>2022-10-30T11:41:27Z</time>
      </trkpt>
      <trkpt lat="41.4581134" lon="2.1118883">
        <ele>165.33995056</ele>
        <time>2022-10-30T11:41:28Z</time>
      </trkpt>
      <trkpt lat="41.4581453" lon="2.1117784">
        <ele>165.29995728</ele>
        <time>2022-10-30T11:42:16Z</time>
      </trkpt>
      <trkpt lat="41.4581633" lon="2.1117765">
        <ele>165.24995422</ele>
        <time>2022-10-30T11:42:17Z</time>
      </trkpt>
      <trkpt lat="41.4581932" lon="2.1117576">
        <ele>165.16995239</ele>
        <time>2022-10-30T11:42:18Z</time>
      </trkpt>
      <trkpt lat="41.4582471" lon="2.1117146">
        <ele>165.04995728</ele>
        <time>2022-10-30T11:42:19Z</time>
      </trkpt>
      <trkpt lat="41.458251" lon="2.111713">
        <ele>165.08999634</ele>
        <time>2022-10-30T11:42:19Z</time>
      </trkpt>
      <trkpt lat="41.458269" lon="2.1116991">
        <ele>164.94000244</ele>
        <time>2022-10-30T11:42:20Z</time>
      </trkpt>
      <trkpt lat="41.4583119" lon="2.1116761">
        <ele>164.83000183</ele>
        <time>2022-10-30T11:42:21Z</time>
      </trkpt>
      <trkpt lat="41.4583369" lon="2.1116611">
        <ele>164.71000671</ele>
        <time>2022-10-30T11:42:22Z</time>
      </trkpt>
      <trkpt lat="41.4583718" lon="2.1116152">
        <ele>164.66000366</ele>
        <time>2022-10-30T11:42:23Z</time>
      </trkpt>
      <trkpt lat="41.4583908" lon="2.1115662">
        <ele>164.55000305</ele>
        <time>2022-10-30T11:42:24Z</time>
      </trkpt>
      <trkpt lat="41.4584077" lon="2.1115193">
        <ele>164.52999878</ele>
        <time>2022-10-30T11:42:25Z</time>
      </trkpt>
      <trkpt lat="41.4584257" lon="2.1114613">
        <ele>164.52999878</ele>
        <time>2022-10-30T11:42:26Z</time>
      </trkpt>
      <trkpt lat="41.4584397" lon="2.1114024">
        <ele>164.52999878</ele>
        <time>2022-10-30T11:42:27Z</time>
      </trkpt>
      <trkpt lat="41.4584786" lon="2.1113254">
        <ele>164.63999939</ele>
        <time>2022-10-30T11:42:28Z</time>
      </trkpt>
      <trkpt lat="41.4585056" lon="2.1112765">
        <ele>164.72000122</ele>
        <time>2022-10-30T11:42:29Z</time>
      </trkpt>
      <trkpt lat="41.4585306" lon="2.1112145">
        <ele>164.77000427</ele>
        <time>2022-10-30T11:42:30Z</time>
      </trkpt>
      <trkpt lat="41.4585615" lon="2.1111155">
        <ele>164.88000488</ele>
        <time>2022-10-30T11:42:31Z</time>
      </trkpt>
      <trkpt lat="41.4585945" lon="2.1110566">
        <ele>165.05000305</ele>
        <time>2022-10-30T11:42:32Z</time>
      </trkpt>
      <trkpt lat="41.4586254" lon="2.1109926">
        <ele>165.19999695</ele>
        <time>2022-10-30T11:42:33Z</time>
      </trkpt>
      <trkpt lat="41.4586553" lon="2.1109476">
        <ele>165.3999939</ele>
        <time>2022-10-30T11:42:34Z</time>
      </trkpt>
      <trkpt lat="41.4586703" lon="2.1108957">
        <ele>165.54998779</ele>
        <time>2022-10-30T11:42:35Z</time>
      </trkpt>
      <trkpt lat="41.4587022" lon="2.1108557">
        <ele>165.54998779</ele>
        <time>2022-10-30T11:42:36Z</time>
      </trkpt>
      <trkpt lat="41.4587511" lon="2.1107838">
        <ele>165.63998413</ele>
        <time>2022-10-30T11:42:37Z</time>
      </trkpt>
      <trkpt lat="41.4587791" lon="2.1107168">
        <ele>165.63998413</ele>
        <time>2022-10-30T11:42:38Z</time>
      </trkpt>
      <trkpt lat="41.4588191" lon="2.1106688">
        <ele>165.63998413</ele>
        <time>2022-10-30T11:42:39Z</time>
      </trkpt>
      <trkpt lat="41.458856" lon="2.1106229">
        <ele>165.72998047</ele>
        <time>2022-10-30T11:42:40Z</time>
      </trkpt>
      <trkpt lat="41.458906" lon="2.1105659">
        <ele>165.74998474</ele>
        <time>2022-10-30T11:42:41Z</time>
      </trkpt>
      <trkpt lat="41.4589319" lon="2.110516">
        <ele>165.68998718</ele>
        <time>2022-10-30T11:42:42Z</time>
      </trkpt>
      <trkpt lat="41.4589798" lon="2.1104701">
        <ele>165.48999023</ele>
        <time>2022-10-30T11:42:43Z</time>
      </trkpt>
      <trkpt lat="41.4590347" lon="2.1104262">
        <ele>165.33999634</ele>
        <time>2022-10-30T11:42:44Z</time>
      </trkpt>
      <trkpt lat="41.4591157" lon="2.1103652">
        <ele>165.03999329</ele>
        <time>2022-10-30T11:42:45Z</time>
      </trkpt>
      <trkpt lat="41.4591817" lon="2.1103382">
        <ele>164.93998718</ele>
        <time>2022-10-30T11:42:46Z</time>
      </trkpt>
      <trkpt lat="41.4592486" lon="2.1103173">
        <ele>164.93998718</ele>
        <time>2022-10-30T11:42:47Z</time>
      </trkpt>
      <trkpt lat="41.4593116" lon="2.1103013">
        <ele>164.77998352</ele>
        <time>2022-10-30T11:42:48Z</time>
      </trkpt>
      <trkpt lat="41.4593715" lon="2.1102963">
        <ele>164.53997803</ele>
        <time>2022-10-30T11:42:49Z</time>
      </trkpt>
      <trkpt lat="41.4594704" lon="2.1102854">
        <ele>164.07997131</ele>
        <time>2022-10-30T11:42:50Z</time>
      </trkpt>
      <trkpt lat="41.4595394" lon="2.1102864">
        <ele>163.49996948</ele>
        <time>2022-10-30T11:42:51Z</time>
      </trkpt>
      <trkpt lat="41.4596143" lon="2.1102923">
        <ele>162.90997314</ele>
        <time>2022-10-30T11:42:52Z</time>
      </trkpt>
      <trkpt lat="41.4596783" lon="2.1103002">
        <ele>162.42997742</ele>
        <time>2022-10-30T11:42:53Z</time>
      </trkpt>
      <trkpt lat="41.4597432" lon="2.1103061">
        <ele>161.99998474</ele>
        <time>2022-10-30T11:42:54Z</time>
      </trkpt>
      <trkpt lat="41.4598012" lon="2.1103111">
        <ele>161.43998718</ele>
        <time>2022-10-30T11:42:55Z</time>
      </trkpt>
      <trkpt lat="41.4598491" lon="2.110312">
        <ele>160.74998474</ele>
        <time>2022-10-30T11:42:56Z</time>
      </trkpt>
      <trkpt lat="41.4598931" lon="2.11033">
        <ele>160.11997986</ele>
        <time>2022-10-30T11:42:57Z</time>
      </trkpt>
      <trkpt lat="41.459931" lon="2.1103579">
        <ele>159.22998047</ele>
        <time>2022-10-30T11:42:58Z</time>
      </trkpt>
      <trkpt lat="41.45999" lon="2.1104159">
        <ele>158.24998474</ele>
        <time>2022-10-30T11:42:59Z</time>
      </trkpt>
      <trkpt lat="41.4600499" lon="2.1104388">
        <ele>157.39997864</ele>
        <time>2022-10-30T11:43:00Z</time>
      </trkpt>
      <trkpt lat="41.4601039" lon="2.1104648">
        <ele>156.46998596</ele>
        <time>2022-10-30T11:43:01Z</time>
      </trkpt>
      <trkpt lat="41.4601588" lon="2.1104878">
        <ele>155.78999329</ele>
        <time>2022-10-30T11:43:02Z</time>
      </trkpt>
      <trkpt lat="41.4602657" lon="2.1105147">
        <ele>155.33999634</ele>
        <time>2022-10-30T11:43:03Z</time>
      </trkpt>
      <trkpt lat="41.4603487" lon="2.1105287">
        <ele>154.8999939</ele>
        <time>2022-10-30T11:43:04Z</time>
      </trkpt>
      <trkpt lat="41.4604266" lon="2.1105527">
        <ele>154.43998718</ele>
        <time>2022-10-30T11:43:05Z</time>
      </trkpt>
      <trkpt lat="41.4604936" lon="2.1105716">
        <ele>154.04998779</ele>
        <time>2022-10-30T11:43:06Z</time>
      </trkpt>
      <trkpt lat="41.4605505" lon="2.1105855">
        <ele>153.42999268</ele>
        <time>2022-10-30T11:43:07Z</time>
      </trkpt>
      <trkpt lat="41.4606635" lon="2.1106155">
        <ele>152.82998657</ele>
        <time>2022-10-30T11:43:08Z</time>
      </trkpt>
      <trkpt lat="41.4607474" lon="2.1106364">
        <ele>152.27998352</ele>
        <time>2022-10-30T11:43:09Z</time>
      </trkpt>
      <trkpt lat="41.4608233" lon="2.1106464">
        <ele>151.60998535</ele>
        <time>2022-10-30T11:43:10Z</time>
      </trkpt>
      <trkpt lat="41.4609043" lon="2.1106483">
        <ele>151.01998901</ele>
        <time>2022-10-30T11:43:11Z</time>
      </trkpt>
      <trkpt lat="41.4610193" lon="2.1106943">
        <ele>150.18998718</ele>
        <time>2022-10-30T11:43:12Z</time>
      </trkpt>
      <trkpt lat="41.4611132" lon="2.1107342">
        <ele>149.10998535</ele>
        <time>2022-10-30T11:43:13Z</time>
      </trkpt>
      <trkpt lat="41.4611982" lon="2.1107911">
        <ele>148.08998108</ele>
        <time>2022-10-30T11:43:14Z</time>
      </trkpt>
      <trkpt lat="41.4612811" lon="2.1108361">
        <ele>147.22998047</ele>
        <time>2022-10-30T11:43:15Z</time>
      </trkpt>
      <trkpt lat="41.4613511" lon="2.1108941">
        <ele>146.40997314</ele>
        <time>2022-10-30T11:43:16Z</time>
      </trkpt>
      <trkpt lat="41.4614401" lon="2.111002">
        <ele>145.94996643</ele>
        <time>2022-10-30T11:43:17Z</time>
      </trkpt>
      <trkpt lat="41.4614991" lon="2.111082">
        <ele>145.55996704</ele>
        <time>2022-10-30T11:43:18Z</time>
      </trkpt>
      <trkpt lat="41.461556" lon="2.1111559">
        <ele>145.17996216</ele>
        <time>2022-10-30T11:43:19Z</time>
      </trkpt>
      <trkpt lat="41.4616079" lon="2.1112249">
        <ele>144.87995911</ele>
        <time>2022-10-30T11:43:20Z</time>
      </trkpt>
      <trkpt lat="41.4616838" lon="2.1113208">
        <ele>144.58996582</ele>
        <time>2022-10-30T11:43:21Z</time>
      </trkpt>
      <trkpt lat="41.4617378" lon="2.1113888">
        <ele>144.27996826</ele>
        <time>2022-10-30T11:43:22Z</time>
      </trkpt>
      <trkpt lat="41.4617927" lon="2.1114547">
        <ele>144.02996826</ele>
        <time>2022-10-30T11:43:23Z</time>
      </trkpt>
      <trkpt lat="41.4618347" lon="2.1115047">
        <ele>144.03996277</ele>
        <time>2022-10-30T11:43:24Z</time>
      </trkpt>
      <trkpt lat="41.4618686" lon="2.1115586">
        <ele>143.97996521</ele>
        <time>2022-10-30T11:43:25Z</time>
      </trkpt>
      <trkpt lat="41.4618986" lon="2.1116315">
        <ele>143.92996216</ele>
        <time>2022-10-30T11:43:26Z</time>
      </trkpt>
      <trkpt lat="41.4619145" lon="2.1116635">
        <ele>143.91996765</ele>
        <time>2022-10-30T11:43:27Z</time>
      </trkpt>
      <trkpt lat="41.4619255" lon="2.1116874">
        <ele>143.79997253</ele>
        <time>2022-10-30T11:43:28Z</time>
      </trkpt>
      <trkpt lat="41.4619454" lon="2.1116984">
        <ele>143.78997803</ele>
        <time>2022-10-30T11:43:29Z</time>
      </trkpt>
      <trkpt lat="41.4619774" lon="2.1117273">
        <ele>143.79997253</ele>
        <time>2022-10-30T11:43:30Z</time>
      </trkpt>
      <trkpt lat="41.4619964" lon="2.1117462">
        <ele>143.81997681</ele>
        <time>2022-10-30T11:43:31Z</time>
      </trkpt>
      <trkpt lat="41.4620303" lon="2.1117681">
        <ele>143.88998413</ele>
        <time>2022-10-30T11:43:32Z</time>
      </trkpt>
      <trkpt lat="41.4620612" lon="2.1117951">
        <ele>143.89997864</ele>
        <time>2022-10-30T11:43:33Z</time>
      </trkpt>
      <trkpt lat="41.4621021" lon="2.1118251">
        <ele>143.90997314</ele>
        <time>2022-10-30T11:43:34Z</time>
      </trkpt>
      <trkpt lat="41.4621341" lon="2.111856">
        <ele>143.9599762</ele>
        <time>2022-10-30T11:43:35Z</time>
      </trkpt>
      <trkpt lat="41.462383" lon="2.1118">
        <ele>144.39997864</ele>
        <time>2022-10-30T11:46:18Z</time>
      </trkpt>
      <trkpt lat="41.462388" lon="2.1118219">
        <ele>144.28997803</ele>
        <time>2022-10-30T11:46:19Z</time>
      </trkpt>
      <trkpt lat="41.462388" lon="2.1118479">
        <ele>144.17997742</ele>
        <time>2022-10-30T11:46:20Z</time>
      </trkpt>
      <trkpt lat="41.4624059" lon="2.1118709">
        <ele>144.17997742</ele>
        <time>2022-10-30T11:46:21Z</time>
      </trkpt>
      <trkpt lat="41.4624419" lon="2.1118809">
        <ele>144.26997375</ele>
        <time>2022-10-30T11:46:22Z</time>
      </trkpt>
      <trkpt lat="41.4624678" lon="2.111879">
        <ele>144.44996643</ele>
        <time>2022-10-30T11:46:23Z</time>
      </trkpt>
      <trkpt lat="41.4624968" lon="2.111879">
        <ele>144.73995972</ele>
        <time>2022-10-30T11:46:24Z</time>
      </trkpt>
      <trkpt lat="41.4625248" lon="2.111874">
        <ele>145.03996277</ele>
        <time>2022-10-30T11:46:25Z</time>
      </trkpt>
      <trkpt lat="41.4625987" lon="2.111857">
        <ele>145.41996765</ele>
        <time>2022-10-30T11:46:26Z</time>
      </trkpt>
      <trkpt lat="41.4626246" lon="2.11186">
        <ele>145.69996643</ele>
        <time>2022-10-30T11:46:27Z</time>
      </trkpt>
      <trkpt lat="41.4626436" lon="2.111856">
        <ele>145.98995972</ele>
        <time>2022-10-30T11:46:28Z</time>
      </trkpt>
      <trkpt lat="41.4626805" lon="2.111849">
        <ele>146.25996399</ele>
        <time>2022-10-30T11:46:29Z</time>
      </trkpt>
      <trkpt lat="41.4627284" lon="2.111839">
        <ele>146.55996704</ele>
        <time>2022-10-30T11:46:30Z</time>
      </trkpt>
      <trkpt lat="41.4627963" lon="2.1118201">
        <ele>146.78996277</ele>
        <time>2022-10-30T11:46:31Z</time>
      </trkpt>
      <trkpt lat="41.4628353" lon="2.1118062">
        <ele>146.81996155</ele>
        <time>2022-10-30T11:46:32Z</time>
      </trkpt>
      <trkpt lat="41.4628803" lon="2.1117982">
        <ele>146.82995605</ele>
        <time>2022-10-30T11:46:33Z</time>
      </trkpt>
      <trkpt lat="41.4629023" lon="2.1117992">
        <ele>146.81996155</ele>
        <time>2022-10-30T11:46:34Z</time>
      </trkpt>
      <trkpt lat="41.4629432" lon="2.1118041">
        <ele>146.81996155</ele>
        <time>2022-10-30T11:46:35Z</time>
      </trkpt>
      <trkpt lat="41.4629702" lon="2.1118211">
        <ele>146.83996582</ele>
        <time>2022-10-30T11:46:36Z</time>
      </trkpt>
      <trkpt lat="41.4630011" lon="2.1118371">
        <ele>146.8699646</ele>
        <time>2022-10-30T11:46:37Z</time>
      </trkpt>
      <trkpt lat="41.463039" lon="2.111848">
        <ele>146.8699646</ele>
        <time>2022-10-30T11:46:38Z</time>
      </trkpt>
      <trkpt lat="41.463114" lon="2.111891">
        <ele>146.90995789</ele>
        <time>2022-10-30T11:46:39Z</time>
      </trkpt>
      <trkpt lat="41.463172" lon="2.1118919">
        <ele>147.09996033</ele>
        <time>2022-10-30T11:46:40Z</time>
      </trkpt>
      <trkpt lat="41.4632269" lon="2.111889">
        <ele>147.30996704</ele>
        <time>2022-10-30T11:46:41Z</time>
      </trkpt>
      <trkpt lat="41.4632808" lon="2.1118741">
        <ele>147.47996521</ele>
        <time>2022-10-30T11:46:42Z</time>
      </trkpt>
      <trkpt lat="41.4633308" lon="2.1118511">
        <ele>147.59996033</ele>
        <time>2022-10-30T11:46:43Z</time>
      </trkpt>
      <trkpt lat="41.4633838" lon="2.1117962">
        <ele>147.62995911</ele>
        <time>2022-10-30T11:46:44Z</time>
      </trkpt>
      <trkpt lat="41.4634358" lon="2.1117352">
        <ele>147.58996582</ele>
        <time>2022-10-30T11:46:45Z</time>
      </trkpt>
      <trkpt lat="41.4634948" lon="2.1116842">
        <ele>147.47996521</ele>
        <time>2022-10-30T11:46:46Z</time>
      </trkpt>
      <trkpt lat="41.4635497" lon="2.1116412">
        <ele>147.24996948</ele>
        <time>2022-10-30T11:46:47Z</time>
      </trkpt>
      <trkpt lat="41.4636236" lon="2.1115683">
        <ele>146.9599762</ele>
        <time>2022-10-30T11:46:48Z</time>
      </trkpt>
      <trkpt lat="41.4636745" lon="2.1115214">
        <ele>146.72998047</ele>
        <time>2022-10-30T11:46:49Z</time>
      </trkpt>
      <trkpt lat="41.4637135" lon="2.1114825">
        <ele>146.64997864</ele>
        <time>2022-10-30T11:46:50Z</time>
      </trkpt>
      <trkpt lat="41.4637495" lon="2.1114505">
        <ele>146.87997437</ele>
        <time>2022-10-30T11:46:51Z</time>
      </trkpt>
      <trkpt lat="41.4637675" lon="2.1114195">
        <ele>146.91996765</ele>
        <time>2022-10-30T11:46:52Z</time>
      </trkpt>
      <trkpt lat="41.463773" lon="2.11142">
        <ele>146.82000732</ele>
        <time>2022-10-30T11:46:52Z</time>
      </trkpt>
      <trkpt lat="41.4637899" lon="2.1113611">
        <ele>146.78001404</ele>
        <time>2022-10-30T11:46:53Z</time>
      </trkpt>
      <trkpt lat="41.4638258" lon="2.1112442">
        <ele>146.57000732</ele>
        <time>2022-10-30T11:46:54Z</time>
      </trkpt>
      <trkpt lat="41.4638358" lon="2.1111102">
        <ele>146.06001282</ele>
        <time>2022-10-30T11:46:55Z</time>
      </trkpt>
      <trkpt lat="41.4638397" lon="2.1110063">
        <ele>145.71000671</ele>
        <time>2022-10-30T11:46:56Z</time>
      </trkpt>
      <trkpt lat="41.4638527" lon="2.1109253">
        <ele>145.28001404</ele>
        <time>2022-10-30T11:46:57Z</time>
      </trkpt>
      <trkpt lat="41.4638816" lon="2.1108193">
        <ele>145.01000977</ele>
        <time>2022-10-30T11:46:58Z</time>
      </trkpt>
      <trkpt lat="41.4639045" lon="2.1107794">
        <ele>144.78001404</ele>
        <time>2022-10-30T11:46:59Z</time>
      </trkpt>
      <trkpt lat="41.4639285" lon="2.1107325">
        <ele>144.58001709</ele>
        <time>2022-10-30T11:47:00Z</time>
      </trkpt>
      <trkpt lat="41.4639136" lon="2.1106105">
        <ele>144.48001099</ele>
        <time>2022-10-30T11:47:01Z</time>
      </trkpt>
      <trkpt lat="41.4639006" lon="2.1105356">
        <ele>144.3400116</ele>
        <time>2022-10-30T11:47:02Z</time>
      </trkpt>
      <trkpt lat="41.4638956" lon="2.1104637">
        <ele>144.29000854</ele>
        <time>2022-10-30T11:47:03Z</time>
      </trkpt>
      <trkpt lat="41.4638876" lon="2.1103877">
        <ele>144.27000427</ele>
        <time>2022-10-30T11:47:04Z</time>
      </trkpt>
      <trkpt lat="41.4638867" lon="2.1103228">
        <ele>144.38000488</ele>
        <time>2022-10-30T11:47:05Z</time>
      </trkpt>
      <trkpt lat="41.4639016" lon="2.1102798">
        <ele>144.43000793</ele>
        <time>2022-10-30T11:47:06Z</time>
      </trkpt>
      <trkpt lat="41.4639196" lon="2.1102259">
        <ele>144.50001526</ele>
        <time>2022-10-30T11:47:07Z</time>
      </trkpt>
      <trkpt lat="41.4639215" lon="2.11016">
        <ele>144.68000793</ele>
        <time>2022-10-30T11:47:08Z</time>
      </trkpt>
      <trkpt lat="41.4639315" lon="2.1101171">
        <ele>144.78001404</ele>
        <time>2022-10-30T11:47:09Z</time>
      </trkpt>
      <trkpt lat="41.4639116" lon="2.1100311">
        <ele>144.83001709</ele>
        <time>2022-10-30T11:47:10Z</time>
      </trkpt>
      <trkpt lat="41.4639315" lon="2.1099251">
        <ele>144.78001404</ele>
        <time>2022-10-30T11:47:11Z</time>
      </trkpt>
      <trkpt lat="41.4639464" lon="2.1098502">
        <ele>144.53001404</ele>
        <time>2022-10-30T11:47:12Z</time>
      </trkpt>
      <trkpt lat="41.4639784" lon="2.1097752">
        <ele>144.22001648</ele>
        <time>2022-10-30T11:47:13Z</time>
      </trkpt>
      <trkpt lat="41.4639993" lon="2.1097023">
        <ele>143.98001099</ele>
        <time>2022-10-30T11:47:14Z</time>
      </trkpt>
      <trkpt lat="41.4640133" lon="2.1095894">
        <ele>143.6900177</ele>
        <time>2022-10-30T11:47:15Z</time>
      </trkpt>
      <trkpt lat="41.4640353" lon="2.1095135">
        <ele>143.21002197</ele>
        <time>2022-10-30T11:47:16Z</time>
      </trkpt>
      <trkpt lat="41.4640653" lon="2.1094615">
        <ele>142.74002075</ele>
        <time>2022-10-30T11:47:17Z</time>
      </trkpt>
      <trkpt lat="41.4640962" lon="2.1094126">
        <ele>142.21002197</ele>
        <time>2022-10-30T11:47:18Z</time>
      </trkpt>
      <trkpt lat="41.4641441" lon="2.1093696">
        <ele>141.72001648</ele>
        <time>2022-10-30T11:47:19Z</time>
      </trkpt>
      <trkpt lat="41.464207" lon="2.1093267">
        <ele>141.45001221</ele>
        <time>2022-10-30T11:47:20Z</time>
      </trkpt>
      <trkpt lat="41.46426" lon="2.1093087">
        <ele>140.86001587</ele>
        <time>2022-10-30T11:47:21Z</time>
      </trkpt>
      <trkpt lat="41.4642999" lon="2.1092868">
        <ele>140.20001221</ele>
        <time>2022-10-30T11:47:22Z</time>
      </trkpt>
      <trkpt lat="41.4643308" lon="2.1092578">
        <ele>139.56001282</ele>
        <time>2022-10-30T11:47:23Z</time>
      </trkpt>
      <trkpt lat="41.4643578" lon="2.1092249">
        <ele>138.87001038</ele>
        <time>2022-10-30T11:47:24Z</time>
      </trkpt>
      <trkpt lat="41.4644017" lon="2.1092039">
        <ele>138.36001587</ele>
        <time>2022-10-30T11:47:25Z</time>
      </trkpt>
      <trkpt lat="41.4644227" lon="2.109182">
        <ele>138.01000977</ele>
        <time>2022-10-30T11:47:26Z</time>
      </trkpt>
      <trkpt lat="41.4644507" lon="2.1091601">
        <ele>137.75001526</ele>
        <time>2022-10-30T11:47:27Z</time>
      </trkpt>
      <trkpt lat="41.4644966" lon="2.1091091">
        <ele>137.23001099</ele>
        <time>2022-10-30T11:47:28Z</time>
      </trkpt>
      <trkpt lat="41.4645266" lon="2.1090771">
        <ele>136.80001831</ele>
        <time>2022-10-30T11:47:29Z</time>
      </trkpt>
      <trkpt lat="41.4645675" lon="2.1090502">
        <ele>136.1900177</ele>
        <time>2022-10-30T11:47:30Z</time>
      </trkpt>
      <trkpt lat="41.4646085" lon="2.1090063">
        <ele>135.45001221</ele>
        <time>2022-10-30T11:47:31Z</time>
      </trkpt>
      <trkpt lat="41.4646394" lon="2.1090182">
        <ele>135.07000732</ele>
        <time>2022-10-30T11:47:32Z</time>
      </trkpt>
      <trkpt lat="41.4646703" lon="2.1090312">
        <ele>134.52000427</ele>
        <time>2022-10-30T11:47:33Z</time>
      </trkpt>
      <trkpt lat="41.4647412" lon="2.1090451">
        <ele>133.99000549</ele>
        <time>2022-10-30T11:47:34Z</time>
      </trkpt>
      <trkpt lat="41.4647832" lon="2.1090631">
        <ele>133.40000916</ele>
        <time>2022-10-30T11:47:35Z</time>
      </trkpt>
      <trkpt lat="41.4648371" lon="2.109065">
        <ele>132.68000793</ele>
        <time>2022-10-30T11:47:36Z</time>
      </trkpt>
      <trkpt lat="41.4648721" lon="2.1090561">
        <ele>132.19000244</ele>
        <time>2022-10-30T11:47:37Z</time>
      </trkpt>
      <trkpt lat="41.4648971" lon="2.1089761">
        <ele>131.79000854</ele>
        <time>2022-10-30T11:47:38Z</time>
      </trkpt>
      <trkpt lat="41.464919" lon="2.1089172">
        <ele>131.44000244</ele>
        <time>2022-10-30T11:47:39Z</time>
      </trkpt>
      <trkpt lat="41.464921" lon="2.1088633">
        <ele>131.21000671</ele>
        <time>2022-10-30T11:47:40Z</time>
      </trkpt>
      <trkpt lat="41.464934" lon="2.1088073">
        <ele>130.95001221</ele>
        <time>2022-10-30T11:47:41Z</time>
      </trkpt>
      <trkpt lat="41.464953" lon="2.1087094">
        <ele>130.62001038</ele>
        <time>2022-10-30T11:47:42Z</time>
      </trkpt>
      <trkpt lat="41.4649679" lon="2.1086305">
        <ele>130.42001343</ele>
        <time>2022-10-30T11:47:43Z</time>
      </trkpt>
      <trkpt lat="41.4650088" lon="2.1085665">
        <ele>130.30001831</ele>
        <time>2022-10-30T11:47:44Z</time>
      </trkpt>
      <trkpt lat="41.4650408" lon="2.1084986">
        <ele>130.12002563</ele>
        <time>2022-10-30T11:47:45Z</time>
      </trkpt>
      <trkpt lat="41.4650867" lon="2.1084366">
        <ele>130.06002808</ele>
        <time>2022-10-30T11:47:46Z</time>
      </trkpt>
      <trkpt lat="41.4651387" lon="2.1083246">
        <ele>129.97003174</ele>
        <time>2022-10-30T11:47:47Z</time>
      </trkpt>
      <trkpt lat="41.4651686" lon="2.1082447">
        <ele>129.70002747</ele>
        <time>2022-10-30T11:47:48Z</time>
      </trkpt>
      <trkpt lat="41.4651926" lon="2.1081807">
        <ele>129.33003235</ele>
        <time>2022-10-30T11:47:49Z</time>
      </trkpt>
      <trkpt lat="41.4651976" lon="2.1081007">
        <ele>128.89002991</ele>
        <time>2022-10-30T11:47:50Z</time>
      </trkpt>
      <trkpt lat="41.4651936" lon="2.1079938">
        <ele>128.32002258</ele>
        <time>2022-10-30T11:47:51Z</time>
      </trkpt>
      <trkpt lat="41.4651757" lon="2.1079158">
        <ele>127.78002167</ele>
        <time>2022-10-30T11:47:52Z</time>
      </trkpt>
      <trkpt lat="41.4651487" lon="2.1078219">
        <ele>127.40002441</ele>
        <time>2022-10-30T11:47:53Z</time>
      </trkpt>
      <trkpt lat="41.4651237" lon="2.10774">
        <ele>126.98002625</ele>
        <time>2022-10-30T11:47:54Z</time>
      </trkpt>
      <trkpt lat="41.4650998" lon="2.1076481">
        <ele>126.66002655</ele>
        <time>2022-10-30T11:47:55Z</time>
      </trkpt>
      <trkpt lat="41.4650758" lon="2.1075201">
        <ele>126.32003021</ele>
        <time>2022-10-30T11:47:56Z</time>
      </trkpt>
      <trkpt lat="41.4650618" lon="2.1074572">
        <ele>125.9600296</ele>
        <time>2022-10-30T11:47:57Z</time>
      </trkpt>
      <trkpt lat="41.4650389" lon="2.1073852">
        <ele>125.7100296</ele>
        <time>2022-10-30T11:47:58Z</time>
      </trkpt>
      <trkpt lat="41.465024" lon="2.1073393">
        <ele>125.45002747</ele>
        <time>2022-10-30T11:47:59Z</time>
      </trkpt>
      <trkpt lat="41.465008" lon="2.1073144">
        <ele>125.38002777</ele>
        <time>2022-10-30T11:48:00Z</time>
      </trkpt>
      <trkpt lat="41.4650011" lon="2.1072724">
        <ele>125.39002991</ele>
        <time>2022-10-30T11:48:01Z</time>
      </trkpt>
      <trkpt lat="41.4649891" lon="2.1072494">
        <ele>125.48002625</ele>
        <time>2022-10-30T11:48:02Z</time>
      </trkpt>
      <trkpt lat="41.4649802" lon="2.1072134">
        <ele>125.70002747</ele>
        <time>2022-10-30T11:48:03Z</time>
      </trkpt>
      <trkpt lat="41.4649722" lon="2.1071695">
        <ele>125.83002472</ele>
        <time>2022-10-30T11:48:04Z</time>
      </trkpt>
      <trkpt lat="41.4649762" lon="2.1071476">
        <ele>126.02002716</ele>
        <time>2022-10-30T11:48:05Z</time>
      </trkpt>
      <trkpt lat="41.4649781" lon="2.1071257">
        <ele>126.24002838</ele>
        <time>2022-10-30T11:48:06Z</time>
      </trkpt>
      <trkpt lat="41.4649901" lon="2.1071127">
        <ele>126.4600296</ele>
        <time>2022-10-30T11:48:07Z</time>
      </trkpt>
      <trkpt lat="41.465011" lon="2.1070958">
        <ele>126.76003265</ele>
        <time>2022-10-30T11:48:08Z</time>
      </trkpt>
      <trkpt lat="41.465018" lon="2.1070628">
        <ele>127.01003265</ele>
        <time>2022-10-30T11:48:09Z</time>
      </trkpt>
      <trkpt lat="41.465017" lon="2.1070539">
        <ele>127.24003601</ele>
        <time>2022-10-30T11:48:10Z</time>
      </trkpt>
      <trkpt lat="41.4650339" lon="2.1070558">
        <ele>127.44003296</ele>
        <time>2022-10-30T11:48:11Z</time>
      </trkpt>
      <trkpt lat="41.4650579" lon="2.1070539">
        <ele>127.58003235</ele>
        <time>2022-10-30T11:48:12Z</time>
      </trkpt>
      <trkpt lat="41.4650829" lon="2.1070199">
        <ele>127.7000351</ele>
        <time>2022-10-30T11:48:13Z</time>
      </trkpt>
      <trkpt lat="41.4651219" lon="2.106923">
        <ele>127.72003174</ele>
        <time>2022-10-30T11:48:14Z</time>
      </trkpt>
      <trkpt lat="41.4651378" lon="2.106846">
        <ele>127.73003387</ele>
        <time>2022-10-30T11:48:15Z</time>
      </trkpt>
      <trkpt lat="41.4651528" lon="2.1067721">
        <ele>127.73003387</ele>
        <time>2022-10-30T11:48:16Z</time>
      </trkpt>
      <trkpt lat="41.4651677" lon="2.1067021">
        <ele>127.7000351</ele>
        <time>2022-10-30T11:48:17Z</time>
      </trkpt>
      <trkpt lat="41.4651746" lon="2.1065961">
        <ele>127.67003632</ele>
        <time>2022-10-30T11:48:18Z</time>
      </trkpt>
      <trkpt lat="41.4652076" lon="2.1065552">
        <ele>127.60003662</ele>
        <time>2022-10-30T11:48:19Z</time>
      </trkpt>
      <trkpt lat="41.4652326" lon="2.1065113">
        <ele>127.57003784</ele>
        <time>2022-10-30T11:48:20Z</time>
      </trkpt>
      <trkpt lat="41.4652445" lon="2.1064663">
        <ele>127.57003784</ele>
        <time>2022-10-30T11:48:21Z</time>
      </trkpt>
      <trkpt lat="41.4652474" lon="2.1064194">
        <ele>127.61003876</ele>
        <time>2022-10-30T11:48:22Z</time>
      </trkpt>
      <trkpt lat="41.4652604" lon="2.1063655">
        <ele>127.66004181</ele>
        <time>2022-10-30T11:48:23Z</time>
      </trkpt>
      <trkpt lat="41.4652744" lon="2.1063295">
        <ele>127.66004181</ele>
        <time>2022-10-30T11:48:24Z</time>
      </trkpt>
      <trkpt lat="41.4652994" lon="2.1062815">
        <ele>127.59004211</ele>
        <time>2022-10-30T11:48:25Z</time>
      </trkpt>
      <trkpt lat="41.4653283" lon="2.1062295">
        <ele>127.52004242</ele>
        <time>2022-10-30T11:48:26Z</time>
      </trkpt>
      <trkpt lat="41.4653742" lon="2.1061336">
        <ele>127.45004272</ele>
        <time>2022-10-30T11:48:27Z</time>
      </trkpt>
      <trkpt lat="41.4654012" lon="2.1060737">
        <ele>127.37004089</ele>
        <time>2022-10-30T11:48:28Z</time>
      </trkpt>
      <trkpt lat="41.4654222" lon="2.1060017">
        <ele>127.34004211</ele>
        <time>2022-10-30T11:48:29Z</time>
      </trkpt>
      <trkpt lat="41.4654471" lon="2.1059398">
        <ele>127.37004089</ele>
        <time>2022-10-30T11:48:30Z</time>
      </trkpt>
      <trkpt lat="41.4654701" lon="2.1058678">
        <ele>127.36003876</ele>
        <time>2022-10-30T11:48:31Z</time>
      </trkpt>
      <trkpt lat="41.465516" lon="2.1057329">
        <ele>127.33003998</ele>
        <time>2022-10-30T11:48:32Z</time>
      </trkpt>
      <trkpt lat="41.465557" lon="2.105657">
        <ele>127.25003815</ele>
        <time>2022-10-30T11:48:33Z</time>
      </trkpt>
      <trkpt lat="41.4655919" lon="2.1055911">
        <ele>127.07003784</ele>
        <time>2022-10-30T11:48:34Z</time>
      </trkpt>
      <trkpt lat="41.4656258" lon="2.1055182">
        <ele>126.90003967</ele>
        <time>2022-10-30T11:48:35Z</time>
      </trkpt>
      <trkpt lat="41.4656567" lon="2.1054412">
        <ele>126.78003693</ele>
        <time>2022-10-30T11:48:36Z</time>
      </trkpt>
      <trkpt lat="41.4656936" lon="2.1053213">
        <ele>126.78003693</ele>
        <time>2022-10-30T11:48:37Z</time>
      </trkpt>
      <trkpt lat="41.4657156" lon="2.1052453">
        <ele>126.82003784</ele>
        <time>2022-10-30T11:48:38Z</time>
      </trkpt>
      <trkpt lat="41.4657385" lon="2.1051664">
        <ele>126.83003998</ele>
        <time>2022-10-30T11:48:39Z</time>
      </trkpt>
      <trkpt lat="41.4657554" lon="2.1050895">
        <ele>126.81004333</ele>
        <time>2022-10-30T11:48:40Z</time>
      </trkpt>
      <trkpt lat="41.4657874" lon="2.1049695">
        <ele>126.68004608</ele>
        <time>2022-10-30T11:48:41Z</time>
      </trkpt>
      <trkpt lat="41.4658173" lon="2.1048906">
        <ele>126.49004364</ele>
        <time>2022-10-30T11:48:42Z</time>
      </trkpt>
      <trkpt lat="41.4658463" lon="2.1048157">
        <ele>126.35004425</ele>
        <time>2022-10-30T11:48:43Z</time>
      </trkpt>
      <trkpt lat="41.4658772" lon="2.1047377">
        <ele>126.20004272</ele>
        <time>2022-10-30T11:48:44Z</time>
      </trkpt>
      <trkpt lat="41.4659331" lon="2.1046167">
        <ele>126.10004425</ele>
        <time>2022-10-30T11:48:45Z</time>
      </trkpt>
      <trkpt lat="41.4659621" lon="2.1045198">
        <ele>126.04004669</ele>
        <time>2022-10-30T11:48:46Z</time>
      </trkpt>
      <trkpt lat="41.4659981" lon="2.1044379">
        <ele>125.94004822</ele>
        <time>2022-10-30T11:48:47Z</time>
      </trkpt>
      <trkpt lat="41.46604" lon="2.1043709">
        <ele>125.81005096</ele>
        <time>2022-10-30T11:48:48Z</time>
      </trkpt>
      <trkpt lat="41.466089" lon="2.1043219">
        <ele>125.6400528</ele>
        <time>2022-10-30T11:48:49Z</time>
      </trkpt>
      <trkpt lat="41.466164" lon="2.104273">
        <ele>125.50005341</ele>
        <time>2022-10-30T11:48:50Z</time>
      </trkpt>
      <trkpt lat="41.4662129" lon="2.10425">
        <ele>125.46005249</ele>
        <time>2022-10-30T11:48:51Z</time>
      </trkpt>
      <trkpt lat="41.4662608" lon="2.10422">
        <ele>125.37005615</ele>
        <time>2022-10-30T11:48:52Z</time>
      </trkpt>
      <trkpt lat="41.4662988" lon="2.1041731">
        <ele>125.34005737</ele>
        <time>2022-10-30T11:48:53Z</time>
      </trkpt>
      <trkpt lat="41.4663397" lon="2.1040681">
        <ele>125.2400589</ele>
        <time>2022-10-30T11:48:54Z</time>
      </trkpt>
      <trkpt lat="41.4663706" lon="2.1039851">
        <ele>124.98005676</ele>
        <time>2022-10-30T11:48:55Z</time>
      </trkpt>
      <trkpt lat="41.4664056" lon="2.1039042">
        <ele>124.7400589</ele>
        <time>2022-10-30T11:48:56Z</time>
      </trkpt>
      <trkpt lat="41.4664405" lon="2.1038212">
        <ele>124.47006226</ele>
        <time>2022-10-30T11:48:57Z</time>
      </trkpt>
      <trkpt lat="41.4664735" lon="2.1037453">
        <ele>124.30006409</ele>
        <time>2022-10-30T11:48:58Z</time>
      </trkpt>
      <trkpt lat="41.4665155" lon="2.1036463">
        <ele>124.20006561</ele>
        <time>2022-10-30T11:48:59Z</time>
      </trkpt>
      <trkpt lat="41.4665374" lon="2.1035894">
        <ele>124.08006287</ele>
        <time>2022-10-30T11:49:00Z</time>
      </trkpt>
      <trkpt lat="41.4665534" lon="2.1035335">
        <ele>123.99006653</ele>
        <time>2022-10-30T11:49:01Z</time>
      </trkpt>
      <trkpt lat="41.4665664" lon="2.1034855">
        <ele>123.840065</ele>
        <time>2022-10-30T11:49:02Z</time>
      </trkpt>
      <trkpt lat="41.4665843" lon="2.1034215">
        <ele>123.78006744</ele>
        <time>2022-10-30T11:49:03Z</time>
      </trkpt>
      <trkpt lat="41.4666042" lon="2.1033765">
        <ele>123.840065</ele>
        <time>2022-10-30T11:49:04Z</time>
      </trkpt>
      <trkpt lat="41.4666322" lon="2.1033276">
        <ele>123.9100647</ele>
        <time>2022-10-30T11:49:05Z</time>
      </trkpt>
      <trkpt lat="41.4666751" lon="2.1032866">
        <ele>124.03006744</ele>
        <time>2022-10-30T11:49:06Z</time>
      </trkpt>
      <trkpt lat="41.4667151" lon="2.1032387">
        <ele>124.17006683</ele>
        <time>2022-10-30T11:49:07Z</time>
      </trkpt>
      <trkpt lat="41.4667711" lon="2.1031577">
        <ele>124.27006531</ele>
        <time>2022-10-30T11:49:08Z</time>
      </trkpt>
      <trkpt lat="41.466806" lon="2.1030978">
        <ele>124.340065</ele>
        <time>2022-10-30T11:49:09Z</time>
      </trkpt>
      <trkpt lat="41.4668379" lon="2.1030308">
        <ele>124.33006287</ele>
        <time>2022-10-30T11:49:10Z</time>
      </trkpt>
      <trkpt lat="41.4668718" lon="2.1029568">
        <ele>124.19006348</ele>
        <time>2022-10-30T11:49:11Z</time>
      </trkpt>
      <trkpt lat="41.4669338" lon="2.1028969">
        <ele>123.98006439</ele>
        <time>2022-10-30T11:49:12Z</time>
      </trkpt>
      <trkpt lat="41.4669487" lon="2.1028039">
        <ele>123.6600647</ele>
        <time>2022-10-30T11:49:13Z</time>
      </trkpt>
      <trkpt lat="41.4669636" lon="2.102695">
        <ele>123.340065</ele>
        <time>2022-10-30T11:49:14Z</time>
      </trkpt>
      <trkpt lat="41.4669755" lon="2.102592">
        <ele>123.08006287</ele>
        <time>2022-10-30T11:49:15Z</time>
      </trkpt>
      <trkpt lat="41.4669865" lon="2.1024791">
        <ele>122.82006073</ele>
        <time>2022-10-30T11:49:16Z</time>
      </trkpt>
      <trkpt lat="41.4670025" lon="2.1022982">
        <ele>122.58006287</ele>
        <time>2022-10-30T11:49:17Z</time>
      </trkpt>
      <trkpt lat="41.4670144" lon="2.1021992">
        <ele>122.30006409</ele>
        <time>2022-10-30T11:49:18Z</time>
      </trkpt>
      <trkpt lat="41.4670304" lon="2.1021043">
        <ele>122.02006531</ele>
        <time>2022-10-30T11:49:19Z</time>
      </trkpt>
      <trkpt lat="41.4670483" lon="2.1020083">
        <ele>121.82006836</ele>
        <time>2022-10-30T11:49:20Z</time>
      </trkpt>
      <trkpt lat="41.4670643" lon="2.1018733">
        <ele>121.68006897</ele>
        <time>2022-10-30T11:49:21Z</time>
      </trkpt>
      <trkpt lat="41.4670812" lon="2.1017914">
        <ele>121.61006927</ele>
        <time>2022-10-30T11:49:22Z</time>
      </trkpt>
      <trkpt lat="41.4670961" lon="2.1017045">
        <ele>121.57006836</ele>
        <time>2022-10-30T11:49:23Z</time>
      </trkpt>
      <trkpt lat="41.4671031" lon="2.1016195">
        <ele>121.4100647</ele>
        <time>2022-10-30T11:49:24Z</time>
      </trkpt>
      <trkpt lat="41.467109" lon="2.1015386">
        <ele>121.14006805</ele>
        <time>2022-10-30T11:49:25Z</time>
      </trkpt>
      <trkpt lat="41.467128" lon="2.1014317">
        <ele>120.47006989</ele>
        <time>2022-10-30T11:49:26Z</time>
      </trkpt>
      <trkpt lat="41.4671449" lon="2.1013627">
        <ele>120.18006897</ele>
        <time>2022-10-30T11:49:27Z</time>
      </trkpt>
      <trkpt lat="41.4671609" lon="2.1012918">
        <ele>119.82006836</ele>
        <time>2022-10-30T11:49:28Z</time>
      </trkpt>
      <trkpt lat="41.4671878" lon="2.1012238">
        <ele>119.54006958</ele>
        <time>2022-10-30T11:49:29Z</time>
      </trkpt>
      <trkpt lat="41.4672008" lon="2.1011118">
        <ele>119.19007111</ele>
        <time>2022-10-30T11:49:30Z</time>
      </trkpt>
      <trkpt lat="41.4672127" lon="2.1010318">
        <ele>118.94007111</ele>
        <time>2022-10-30T11:49:31Z</time>
      </trkpt>
      <trkpt lat="41.4672227" lon="2.1009519">
        <ele>118.87007141</ele>
        <time>2022-10-30T11:49:32Z</time>
      </trkpt>
      <trkpt lat="41.4672326" lon="2.1008689">
        <ele>118.75006866</ele>
        <time>2022-10-30T11:49:33Z</time>
      </trkpt>
      <trkpt lat="41.4672376" lon="2.1007879">
        <ele>118.68006897</ele>
        <time>2022-10-30T11:49:34Z</time>
      </trkpt>
      <trkpt lat="41.4672495" lon="2.100666">
        <ele>118.5800705</ele>
        <time>2022-10-30T11:49:35Z</time>
      </trkpt>
      <trkpt lat="41.4672694" lon="2.100583">
        <ele>118.43006897</ele>
        <time>2022-10-30T11:49:36Z</time>
      </trkpt>
      <trkpt lat="41.4672923" lon="2.1005041">
        <ele>118.35006714</ele>
        <time>2022-10-30T11:49:37Z</time>
      </trkpt>
      <trkpt lat="41.4673153" lon="2.1004221">
        <ele>118.22006989</ele>
        <time>2022-10-30T11:49:38Z</time>
      </trkpt>
      <trkpt lat="41.4673502" lon="2.1003182">
        <ele>117.97006989</ele>
        <time>2022-10-30T11:49:39Z</time>
      </trkpt>
      <trkpt lat="41.4673701" lon="2.1002672">
        <ele>117.67006683</ele>
        <time>2022-10-30T11:49:40Z</time>
      </trkpt>
      <trkpt lat="41.46739" lon="2.1002222">
        <ele>117.40007019</ele>
        <time>2022-10-30T11:49:41Z</time>
      </trkpt>
      <trkpt lat="41.467408" lon="2.1001743">
        <ele>117.17006683</ele>
        <time>2022-10-30T11:49:42Z</time>
      </trkpt>
      <trkpt lat="41.4674179" lon="2.1001204">
        <ele>117.06006622</ele>
        <time>2022-10-30T11:49:43Z</time>
      </trkpt>
      <trkpt lat="41.4674488" lon="2.1000324">
        <ele>117.00006866</ele>
        <time>2022-10-30T11:49:44Z</time>
      </trkpt>
      <trkpt lat="41.4674747" lon="2.0999814">
        <ele>116.95006561</ele>
        <time>2022-10-30T11:49:45Z</time>
      </trkpt>
      <trkpt lat="41.4674957" lon="2.0999245">
        <ele>116.840065</ele>
        <time>2022-10-30T11:49:46Z</time>
      </trkpt>
      <trkpt lat="41.4675126" lon="2.0998706">
        <ele>116.68006134</ele>
        <time>2022-10-30T11:49:47Z</time>
      </trkpt>
      <trkpt lat="41.4675305" lon="2.0998187">
        <ele>116.55006409</ele>
        <time>2022-10-30T11:49:48Z</time>
      </trkpt>
      <trkpt lat="41.4675565" lon="2.0997458">
        <ele>116.40006256</ele>
        <time>2022-10-30T11:49:49Z</time>
      </trkpt>
      <trkpt lat="41.4675774" lon="2.0996978">
        <ele>116.30006409</ele>
        <time>2022-10-30T11:49:50Z</time>
      </trkpt>
      <trkpt lat="41.4675994" lon="2.0996448">
        <ele>116.15006256</ele>
        <time>2022-10-30T11:49:51Z</time>
      </trkpt>
      <trkpt lat="41.4676263" lon="2.0995919">
        <ele>115.98006439</ele>
        <time>2022-10-30T11:49:52Z</time>
      </trkpt>
      <trkpt lat="41.4676583" lon="2.0995079">
        <ele>115.88006592</ele>
        <time>2022-10-30T11:49:53Z</time>
      </trkpt>
      <trkpt lat="41.4676773" lon="2.099456">
        <ele>115.75006866</ele>
        <time>2022-10-30T11:49:54Z</time>
      </trkpt>
      <trkpt lat="41.4676952" lon="2.0994021">
        <ele>115.64006805</ele>
        <time>2022-10-30T11:49:55Z</time>
      </trkpt>
      <trkpt lat="41.4677151" lon="2.0993621">
        <ele>115.56006622</ele>
        <time>2022-10-30T11:49:56Z</time>
      </trkpt>
      <trkpt lat="41.467735" lon="2.0993102">
        <ele>115.45006561</ele>
        <time>2022-10-30T11:49:57Z</time>
      </trkpt>
      <trkpt lat="41.467779" lon="2.0992542">
        <ele>115.42006683</ele>
        <time>2022-10-30T11:49:58Z</time>
      </trkpt>
      <trkpt lat="41.4678099" lon="2.0992133">
        <ele>115.38006592</ele>
        <time>2022-10-30T11:49:59Z</time>
      </trkpt>
      <trkpt lat="41.4678368" lon="2.0991694">
        <ele>115.36006927</ele>
        <time>2022-10-30T11:50:00Z</time>
      </trkpt>
      <trkpt lat="41.4678748" lon="2.0991455">
        <ele>115.34007263</ele>
        <time>2022-10-30T11:50:01Z</time>
      </trkpt>
      <trkpt lat="41.4679297" lon="2.0990875">
        <ele>115.25007629</ele>
        <time>2022-10-30T11:50:02Z</time>
      </trkpt>
      <trkpt lat="41.4679657" lon="2.0990415">
        <ele>115.21007538</ele>
        <time>2022-10-30T11:50:03Z</time>
      </trkpt>
      <trkpt lat="41.4680017" lon="2.0989956">
        <ele>115.13007355</ele>
        <time>2022-10-30T11:50:04Z</time>
      </trkpt>
      <trkpt lat="41.4680407" lon="2.0989617">
        <ele>115.07007599</ele>
        <time>2022-10-30T11:50:05Z</time>
      </trkpt>
      <trkpt lat="41.4680737" lon="2.0989197">
        <ele>115.06007385</ele>
        <time>2022-10-30T11:50:06Z</time>
      </trkpt>
      <trkpt lat="41.4681256" lon="2.0988468">
        <ele>115.13007355</ele>
        <time>2022-10-30T11:50:07Z</time>
      </trkpt>
      <trkpt lat="41.4681606" lon="2.0988118">
        <ele>115.23007202</ele>
        <time>2022-10-30T11:50:08Z</time>
      </trkpt>
      <trkpt lat="41.4681955" lon="2.0987658">
        <ele>115.3300705</ele>
        <time>2022-10-30T11:50:09Z</time>
      </trkpt>
      <trkpt lat="41.4682244" lon="2.0987089">
        <ele>115.48007202</ele>
        <time>2022-10-30T11:50:10Z</time>
      </trkpt>
      <trkpt lat="41.4682684" lon="2.0986289">
        <ele>115.56007385</ele>
        <time>2022-10-30T11:50:11Z</time>
      </trkpt>
      <trkpt lat="41.4682943" lon="2.098564">
        <ele>115.56007385</ele>
        <time>2022-10-30T11:50:12Z</time>
      </trkpt>
      <trkpt lat="41.4683183" lon="2.0984881">
        <ele>115.6100769</ele>
        <time>2022-10-30T11:50:13Z</time>
      </trkpt>
      <trkpt lat="41.4683472" lon="2.0984181">
        <ele>115.6100769</ele>
        <time>2022-10-30T11:50:14Z</time>
      </trkpt>
      <trkpt lat="41.4683882" lon="2.0983021">
        <ele>115.6100769</ele>
        <time>2022-10-30T11:50:15Z</time>
      </trkpt>
      <trkpt lat="41.4684191" lon="2.0982312">
        <ele>115.6800766</ele>
        <time>2022-10-30T11:50:16Z</time>
      </trkpt>
      <trkpt lat="41.468451" lon="2.0981672">
        <ele>115.6800766</ele>
        <time>2022-10-30T11:50:17Z</time>
      </trkpt>
      <trkpt lat="41.4684849" lon="2.0981062">
        <ele>115.6800766</ele>
        <time>2022-10-30T11:50:18Z</time>
      </trkpt>
      <trkpt lat="41.4685168" lon="2.0980392">
        <ele>115.64007568</ele>
        <time>2022-10-30T11:50:19Z</time>
      </trkpt>
      <trkpt lat="41.4685718" lon="2.0979513">
        <ele>115.57007599</ele>
        <time>2022-10-30T11:50:20Z</time>
      </trkpt>
      <trkpt lat="41.4686108" lon="2.0978923">
        <ele>115.52007294</ele>
        <time>2022-10-30T11:50:21Z</time>
      </trkpt>
      <trkpt lat="41.4686427" lon="2.0978234">
        <ele>115.47006989</ele>
        <time>2022-10-30T11:50:22Z</time>
      </trkpt>
      <trkpt lat="41.4686787" lon="2.0977585">
        <ele>115.48007202</ele>
        <time>2022-10-30T11:50:23Z</time>
      </trkpt>
      <trkpt lat="41.4687306" lon="2.0976636">
        <ele>115.57006836</ele>
        <time>2022-10-30T11:50:24Z</time>
      </trkpt>
      <trkpt lat="41.4687566" lon="2.0975896">
        <ele>115.60006714</ele>
        <time>2022-10-30T11:50:25Z</time>
      </trkpt>
      <trkpt lat="41.4687846" lon="2.0975267">
        <ele>115.07006836</ele>
        <time>2022-10-30T11:50:26Z</time>
      </trkpt>
      <trkpt lat="41.4688145" lon="2.0974587">
        <ele>114.95006561</ele>
        <time>2022-10-30T11:50:27Z</time>
      </trkpt>
      <trkpt lat="41.4688445" lon="2.0973887">
        <ele>114.75006866</ele>
        <time>2022-10-30T11:50:28Z</time>
      </trkpt>
      <trkpt lat="41.4688814" lon="2.0972848">
        <ele>114.63006592</ele>
        <time>2022-10-30T11:50:29Z</time>
      </trkpt>
      <trkpt lat="41.4688983" lon="2.0972338">
        <ele>114.54006958</ele>
        <time>2022-10-30T11:50:30Z</time>
      </trkpt>
      <trkpt lat="41.4689102" lon="2.0971899">
        <ele>114.48007202</ele>
        <time>2022-10-30T11:50:31Z</time>
      </trkpt>
      <trkpt lat="41.4689192" lon="2.0971629">
        <ele>114.49007416</ele>
        <time>2022-10-30T11:50:32Z</time>
      </trkpt>
      <trkpt lat="41.4689261" lon="2.097141">
        <ele>114.45007324</ele>
        <time>2022-10-30T11:50:33Z</time>
      </trkpt>
      <trkpt lat="41.4689611" lon="2.097099">
        <ele>114.40007019</ele>
        <time>2022-10-30T11:50:34Z</time>
      </trkpt>
      <trkpt lat="41.468985" lon="2.0970581">
        <ele>114.48007202</ele>
        <time>2022-10-30T11:50:35Z</time>
      </trkpt>
      <trkpt lat="41.46901" lon="2.0970032">
        <ele>114.52007294</ele>
        <time>2022-10-30T11:50:36Z</time>
      </trkpt>
      <trkpt lat="41.4690329" lon="2.0969442">
        <ele>114.55007172</ele>
        <time>2022-10-30T11:50:37Z</time>
      </trkpt>
      <trkpt lat="41.4690659" lon="2.0968523">
        <ele>114.55007172</ele>
        <time>2022-10-30T11:50:38Z</time>
      </trkpt>
      <trkpt lat="41.4690918" lon="2.0967894">
        <ele>114.40007019</ele>
        <time>2022-10-30T11:50:39Z</time>
      </trkpt>
      <trkpt lat="41.4691317" lon="2.0967414">
        <ele>114.13007355</ele>
        <time>2022-10-30T11:50:40Z</time>
      </trkpt>
      <trkpt lat="41.4691607" lon="2.0966964">
        <ele>113.98007202</ele>
        <time>2022-10-30T11:50:41Z</time>
      </trkpt>
      <trkpt lat="41.4691806" lon="2.0966544">
        <ele>114.0100708</ele>
        <time>2022-10-30T11:50:42Z</time>
      </trkpt>
      <trkpt lat="41.4691995" lon="2.0965955">
        <ele>114.12007141</ele>
        <time>2022-10-30T11:50:43Z</time>
      </trkpt>
      <trkpt lat="41.4692164" lon="2.0965465">
        <ele>114.34007263</ele>
        <time>2022-10-30T11:50:44Z</time>
      </trkpt>
      <trkpt lat="41.4692334" lon="2.0964936">
        <ele>114.49007416</ele>
        <time>2022-10-30T11:50:45Z</time>
      </trkpt>
      <trkpt lat="41.4692474" lon="2.0964546">
        <ele>114.40007782</ele>
        <time>2022-10-30T11:50:46Z</time>
      </trkpt>
      <trkpt lat="41.4692523" lon="2.0963857">
        <ele>114.23007965</ele>
        <time>2022-10-30T11:50:47Z</time>
      </trkpt>
      <trkpt lat="41.4692504" lon="2.0963418">
        <ele>113.83007812</ele>
        <time>2022-10-30T11:50:48Z</time>
      </trkpt>
      <trkpt lat="41.4692475" lon="2.0963019">
        <ele>113.22007751</ele>
        <time>2022-10-30T11:50:49Z</time>
      </trkpt>
      <trkpt lat="41.4692484" lon="2.0962659">
        <ele>112.6800766</ele>
        <time>2022-10-30T11:50:50Z</time>
      </trkpt>
      <trkpt lat="41.4692464" lon="2.096229">
        <ele>112.19007874</ele>
        <time>2022-10-30T11:50:51Z</time>
      </trkpt>
      <trkpt lat="41.4692375" lon="2.096178">
        <ele>111.94007874</ele>
        <time>2022-10-30T11:50:52Z</time>
      </trkpt>
      <trkpt lat="41.4692275" lon="2.096142">
        <ele>111.78007507</ele>
        <time>2022-10-30T11:50:53Z</time>
      </trkpt>
      <trkpt lat="41.4692246" lon="2.0961011">
        <ele>111.64007568</ele>
        <time>2022-10-30T11:50:54Z</time>
      </trkpt>
      <trkpt lat="41.4692207" lon="2.0960501">
        <ele>111.58007812</ele>
        <time>2022-10-30T11:50:55Z</time>
      </trkpt>
      <trkpt lat="41.4692296" lon="2.0959661">
        <ele>111.52008057</ele>
        <time>2022-10-30T11:50:56Z</time>
      </trkpt>
      <trkpt lat="41.4692296" lon="2.0959062">
        <ele>111.44007874</ele>
        <time>2022-10-30T11:50:57Z</time>
      </trkpt>
      <trkpt lat="41.4692257" lon="2.0958422">
        <ele>111.51007843</ele>
        <time>2022-10-30T11:50:58Z</time>
      </trkpt>
      <trkpt lat="41.4692257" lon="2.0957793">
        <ele>111.67008209</ele>
        <time>2022-10-30T11:50:59Z</time>
      </trkpt>
      <trkpt lat="41.4692367" lon="2.0957243">
        <ele>112.04008484</ele>
        <time>2022-10-30T11:51:00Z</time>
      </trkpt>
      <trkpt lat="41.4692327" lon="2.0956834">
        <ele>112.63008118</ele>
        <time>2022-10-30T11:51:01Z</time>
      </trkpt>
      <trkpt lat="41.4692247" lon="2.0956425">
        <ele>113.26007843</ele>
        <time>2022-10-30T11:51:02Z</time>
      </trkpt>
      <trkpt lat="41.4692198" lon="2.0955975">
        <ele>113.8600769</ele>
        <time>2022-10-30T11:51:03Z</time>
      </trkpt>
      <trkpt lat="41.4692267" lon="2.0955716">
        <ele>114.39007568</ele>
        <time>2022-10-30T11:51:04Z</time>
      </trkpt>
      <trkpt lat="41.4692416" lon="2.0955497">
        <ele>115.01007843</ele>
        <time>2022-10-30T11:51:05Z</time>
      </trkpt>
      <trkpt lat="41.4692626" lon="2.0955746">
        <ele>115.50007629</ele>
        <time>2022-10-30T11:51:06Z</time>
      </trkpt>
      <trkpt lat="41.4692825" lon="2.0956045">
        <ele>115.85007477</ele>
        <time>2022-10-30T11:51:07Z</time>
      </trkpt>
      <trkpt lat="41.4693004" lon="2.0956305">
        <ele>116.16007233</ele>
        <time>2022-10-30T11:51:08Z</time>
      </trkpt>
      <trkpt lat="41.4693144" lon="2.0956674">
        <ele>116.25006866</ele>
        <time>2022-10-30T11:51:09Z</time>
      </trkpt>
      <trkpt lat="41.4693264" lon="2.0956944">
        <ele>116.29006958</ele>
        <time>2022-10-30T11:51:10Z</time>
      </trkpt>
      <trkpt lat="41.4693313" lon="2.0957234">
        <ele>116.29006958</ele>
        <time>2022-10-30T11:51:11Z</time>
      </trkpt>
      <trkpt lat="41.4693543" lon="2.0957503">
        <ele>116.18006897</ele>
        <time>2022-10-30T11:51:12Z</time>
      </trkpt>
      <trkpt lat="41.4693962" lon="2.0957444">
        <ele>116.03006744</ele>
        <time>2022-10-30T11:51:13Z</time>
      </trkpt>
      <trkpt lat="41.4694662" lon="2.0957295">
        <ele>115.95006561</ele>
        <time>2022-10-30T11:51:14Z</time>
      </trkpt>
      <trkpt lat="41.4695092" lon="2.0957236">
        <ele>115.92006683</ele>
        <time>2022-10-30T11:51:15Z</time>
      </trkpt>
      <trkpt lat="41.4695521" lon="2.0956966">
        <ele>115.88006592</ele>
        <time>2022-10-30T11:51:16Z</time>
      </trkpt>
      <trkpt lat="41.469583" lon="2.0956986">
        <ele>115.88006592</ele>
        <time>2022-10-30T11:51:17Z</time>
      </trkpt>
      <trkpt lat="41.469628" lon="2.0956916">
        <ele>115.68006897</ele>
        <time>2022-10-30T11:51:18Z</time>
      </trkpt>
      <trkpt lat="41.469695" lon="2.0957076">
        <ele>115.5800705</ele>
        <time>2022-10-30T11:51:19Z</time>
      </trkpt>
      <trkpt lat="41.4697429" lon="2.0957375">
        <ele>115.60006714</ele>
        <time>2022-10-30T11:51:20Z</time>
      </trkpt>
      <trkpt lat="41.4697948" lon="2.0957615">
        <ele>115.60006714</ele>
        <time>2022-10-30T11:51:21Z</time>
      </trkpt>
      <trkpt lat="41.4698408" lon="2.0957894">
        <ele>115.71006775</ele>
        <time>2022-10-30T11:51:22Z</time>
      </trkpt>
      <trkpt lat="41.4699167" lon="2.0958384">
        <ele>115.71006775</ele>
        <time>2022-10-30T11:51:23Z</time>
      </trkpt>
      <trkpt lat="41.4699706" lon="2.0958743">
        <ele>115.60006714</ele>
        <time>2022-10-30T11:51:24Z</time>
      </trkpt>
      <trkpt lat="41.4700215" lon="2.0959122">
        <ele>115.47006989</ele>
        <time>2022-10-30T11:51:25Z</time>
      </trkpt>
      <trkpt lat="41.4700844" lon="2.0959432">
        <ele>114.79006958</ele>
        <time>2022-10-30T11:51:26Z</time>
      </trkpt>
      <trkpt lat="41.4701374" lon="2.0959931">
        <ele>114.73007202</ele>
        <time>2022-10-30T11:51:27Z</time>
      </trkpt>
      <trkpt lat="41.4702363" lon="2.0960601">
        <ele>114.63007355</ele>
        <time>2022-10-30T11:51:28Z</time>
      </trkpt>
      <trkpt lat="41.4702953" lon="2.0961081">
        <ele>114.60007477</ele>
        <time>2022-10-30T11:51:29Z</time>
      </trkpt>
      <trkpt lat="41.4703583" lon="2.096156">
        <ele>114.53007507</ele>
        <time>2022-10-30T11:51:30Z</time>
      </trkpt>
      <trkpt lat="41.4704192" lon="2.096203">
        <ele>114.42007446</ele>
        <time>2022-10-30T11:51:31Z</time>
      </trkpt>
      <trkpt lat="41.4705062" lon="2.096251">
        <ele>114.39007568</ele>
        <time>2022-10-30T11:51:32Z</time>
      </trkpt>
      <trkpt lat="41.4705642" lon="2.0962899">
        <ele>114.24007416</ele>
        <time>2022-10-30T11:51:33Z</time>
      </trkpt>
      <trkpt lat="41.4706291" lon="2.0963308">
        <ele>114.02007294</ele>
        <time>2022-10-30T11:51:34Z</time>
      </trkpt>
      <trkpt lat="41.470684" lon="2.0963717">
        <ele>113.7600708</ele>
        <time>2022-10-30T11:51:35Z</time>
      </trkpt>
      <trkpt lat="41.470771" lon="2.0964327">
        <ele>113.37007141</ele>
        <time>2022-10-30T11:51:36Z</time>
      </trkpt>
      <trkpt lat="41.4708359" lon="2.0964657">
        <ele>112.95007324</ele>
        <time>2022-10-30T11:51:37Z</time>
      </trkpt>
      <trkpt lat="41.4709118" lon="2.0965056">
        <ele>112.6100769</ele>
        <time>2022-10-30T11:51:38Z</time>
      </trkpt>
      <trkpt lat="41.4709658" lon="2.0965495">
        <ele>112.44007874</ele>
        <time>2022-10-30T11:51:39Z</time>
      </trkpt>
      <trkpt lat="41.4710177" lon="2.0965935">
        <ele>112.29007721</ele>
        <time>2022-10-30T11:51:40Z</time>
      </trkpt>
      <trkpt lat="41.4710907" lon="2.0966624">
        <ele>112.10007477</ele>
        <time>2022-10-30T11:51:41Z</time>
      </trkpt>
      <trkpt lat="41.4711416" lon="2.0967123">
        <ele>112.00007629</ele>
        <time>2022-10-30T11:51:42Z</time>
      </trkpt>
      <trkpt lat="41.4712035" lon="2.0967553">
        <ele>111.84007263</ele>
        <time>2022-10-30T11:51:43Z</time>
      </trkpt>
      <trkpt lat="41.4712695" lon="2.0967992">
        <ele>111.78007507</ele>
        <time>2022-10-30T11:51:44Z</time>
      </trkpt>
      <trkpt lat="41.4713624" lon="2.0968521">
        <ele>111.84007263</ele>
        <time>2022-10-30T11:51:45Z</time>
      </trkpt>
      <trkpt lat="41.4714223" lon="2.0968811">
        <ele>111.73007202</ele>
        <time>2022-10-30T11:51:46Z</time>
      </trkpt>
      <trkpt lat="41.4714872" lon="2.096908">
        <ele>111.56007385</ele>
        <time>2022-10-30T11:51:47Z</time>
      </trkpt>
      <trkpt lat="41.4715502" lon="2.096936">
        <ele>111.38007355</ele>
        <time>2022-10-30T11:51:48Z</time>
      </trkpt>
      <trkpt lat="41.4716131" lon="2.0969689">
        <ele>111.22006989</ele>
        <time>2022-10-30T11:51:49Z</time>
      </trkpt>
      <trkpt lat="41.4716971" lon="2.0970149">
        <ele>111.20007324</ele>
        <time>2022-10-30T11:51:50Z</time>
      </trkpt>
      <trkpt lat="41.4717421" lon="2.0970428">
        <ele>111.20007324</ele>
        <time>2022-10-30T11:51:51Z</time>
      </trkpt>
      <trkpt lat="41.471799" lon="2.0970807">
        <ele>111.20007324</ele>
        <time>2022-10-30T11:51:52Z</time>
      </trkpt>
      <trkpt lat="41.471855" lon="2.0971127">
        <ele>111.27007294</ele>
        <time>2022-10-30T11:51:53Z</time>
      </trkpt>
      <trkpt lat="41.4719369" lon="2.0971656">
        <ele>111.27007294</ele>
        <time>2022-10-30T11:51:54Z</time>
      </trkpt>
      <trkpt lat="41.4719828" lon="2.0971966">
        <ele>111.29006958</ele>
        <time>2022-10-30T11:51:55Z</time>
      </trkpt>
      <trkpt lat="41.4720368" lon="2.0972275">
        <ele>111.31006622</ele>
        <time>2022-10-30T11:51:56Z</time>
      </trkpt>
      <trkpt lat="41.4720907" lon="2.0972664">
        <ele>111.20006561</ele>
        <time>2022-10-30T11:51:57Z</time>
      </trkpt>
      <trkpt lat="41.4721526" lon="2.0973044">
        <ele>111.1600647</ele>
        <time>2022-10-30T11:51:58Z</time>
      </trkpt>
      <trkpt lat="41.4722426" lon="2.0973573">
        <ele>110.98006439</ele>
        <time>2022-10-30T11:51:59Z</time>
      </trkpt>
      <trkpt lat="41.4722956" lon="2.0973982">
        <ele>110.87006378</ele>
        <time>2022-10-30T11:52:00Z</time>
      </trkpt>
      <trkpt lat="41.4723516" lon="2.0974342">
        <ele>110.73006439</ele>
        <time>2022-10-30T11:52:01Z</time>
      </trkpt>
      <trkpt lat="41.4724025" lon="2.0974651">
        <ele>110.590065</ele>
        <time>2022-10-30T11:52:02Z</time>
      </trkpt>
      <trkpt lat="41.4724544" lon="2.0974941">
        <ele>110.56006622</ele>
        <time>2022-10-30T11:52:03Z</time>
      </trkpt>
      <trkpt lat="41.4725333" lon="2.097536">
        <ele>110.50006866</ele>
        <time>2022-10-30T11:52:04Z</time>
      </trkpt>
      <trkpt lat="41.4725923" lon="2.097563">
        <ele>110.47006989</ele>
        <time>2022-10-30T11:52:05Z</time>
      </trkpt>
      <trkpt lat="41.4726503" lon="2.0975839">
        <ele>110.44007111</ele>
        <time>2022-10-30T11:52:06Z</time>
      </trkpt>
      <trkpt lat="41.4727112" lon="2.0975939">
        <ele>110.41007233</ele>
        <time>2022-10-30T11:52:07Z</time>
      </trkpt>
      <trkpt lat="41.4727249" lon="2.097584">
        <ele>109.70999908</ele>
        <time>2022-10-30T11:52:07Z</time>
      </trkpt>
      <trkpt lat="41.4728089" lon="2.097597">
        <ele>109.59999847</ele>
        <time>2022-10-30T11:52:08Z</time>
      </trkpt>
      <trkpt lat="41.4728719" lon="2.097599">
        <ele>109.51000214</ele>
        <time>2022-10-30T11:52:09Z</time>
      </trkpt>
      <trkpt lat="41.4729258" lon="2.0976069">
        <ele>109.37000275</ele>
        <time>2022-10-30T11:52:10Z</time>
      </trkpt>
      <trkpt lat="41.4729767" lon="2.0976059">
        <ele>109.24000549</ele>
        <time>2022-10-30T11:52:11Z</time>
      </trkpt>
      <trkpt lat="41.4730596" lon="2.097594">
        <ele>109.11000824</ele>
        <time>2022-10-30T11:52:12Z</time>
      </trkpt>
      <trkpt lat="41.4731096" lon="2.097584">
        <ele>109.01000977</ele>
        <time>2022-10-30T11:52:13Z</time>
      </trkpt>
      <trkpt lat="41.4731596" lon="2.097574">
        <ele>108.88001251</ele>
        <time>2022-10-30T11:52:14Z</time>
      </trkpt>
      <trkpt lat="41.4732066" lon="2.097575">
        <ele>108.73001099</ele>
        <time>2022-10-30T11:52:15Z</time>
      </trkpt>
      <trkpt lat="41.4732465" lon="2.0975999">
        <ele>108.65000916</ele>
        <time>2022-10-30T11:52:16Z</time>
      </trkpt>
      <trkpt lat="41.4732935" lon="2.0976598">
        <ele>108.56001282</ele>
        <time>2022-10-30T11:52:17Z</time>
      </trkpt>
      <trkpt lat="41.4733094" lon="2.0977078">
        <ele>108.48001099</ele>
        <time>2022-10-30T11:52:18Z</time>
      </trkpt>
      <trkpt lat="41.4733314" lon="2.0977628">
        <ele>108.30001068</ele>
        <time>2022-10-30T11:52:19Z</time>
      </trkpt>
      <trkpt lat="41.4733483" lon="2.0978167">
        <ele>107.93000793</ele>
        <time>2022-10-30T11:52:20Z</time>
      </trkpt>
      <trkpt lat="41.4733542" lon="2.0978766">
        <ele>107.33000946</ele>
        <time>2022-10-30T11:52:21Z</time>
      </trkpt>
      <trkpt lat="41.4733393" lon="2.0979485">
        <ele>106.61000824</ele>
        <time>2022-10-30T11:52:22Z</time>
      </trkpt>
      <trkpt lat="41.4733153" lon="2.0979635">
        <ele>105.79000854</ele>
        <time>2022-10-30T11:52:23Z</time>
      </trkpt>
      <trkpt lat="41.4732894" lon="2.0979555">
        <ele>105.13000488</ele>
        <time>2022-10-30T11:52:24Z</time>
      </trkpt>
      <trkpt lat="41.4732515" lon="2.0979506">
        <ele>104.66000366</ele>
        <time>2022-10-30T11:52:25Z</time>
      </trkpt>
      <trkpt lat="41.4732006" lon="2.0979515">
        <ele>103.64000702</ele>
        <time>2022-10-30T11:52:26Z</time>
      </trkpt>
      <trkpt lat="41.4731636" lon="2.0979456">
        <ele>103.51000977</ele>
        <time>2022-10-30T11:52:27Z</time>
      </trkpt>
      <trkpt lat="41.4731267" lon="2.0979427">
        <ele>103.41001129</ele>
        <time>2022-10-30T11:52:28Z</time>
      </trkpt>
      <trkpt lat="41.4731028" lon="2.0979408">
        <ele>103.43000793</ele>
        <time>2022-10-30T11:52:29Z</time>
      </trkpt>
      <trkpt lat="41.4730848" lon="2.0979418">
        <ele>103.63000488</ele>
        <time>2022-10-30T11:52:30Z</time>
      </trkpt>
      <trkpt lat="41.4730489" lon="2.0979547">
        <ele>103.89000702</ele>
        <time>2022-10-30T11:52:31Z</time>
      </trkpt>
      <trkpt lat="41.4730409" lon="2.0979736">
        <ele>104.18000793</ele>
        <time>2022-10-30T11:52:32Z</time>
      </trkpt>
      <trkpt lat="41.4730219" lon="2.0980026">
        <ele>104.43000793</ele>
        <time>2022-10-30T11:52:33Z</time>
      </trkpt>
      <trkpt lat="41.4730059" lon="2.0980266">
        <ele>104.63000488</ele>
        <time>2022-10-30T11:52:34Z</time>
      </trkpt>
      <trkpt lat="41.472979" lon="2.0980545">
        <ele>104.78000641</ele>
        <time>2022-10-30T11:52:35Z</time>
      </trkpt>
      <trkpt lat="41.472957" lon="2.0980724">
        <ele>104.95000458</ele>
        <time>2022-10-30T11:52:36Z</time>
      </trkpt>
      <trkpt lat="41.472939" lon="2.0980943">
        <ele>105.14000702</ele>
        <time>2022-10-30T11:52:37Z</time>
      </trkpt>
      <trkpt lat="41.4729191" lon="2.0981263">
        <ele>105.29000854</ele>
        <time>2022-10-30T11:52:38Z</time>
      </trkpt>
      <trkpt lat="41.4728911" lon="2.0981832">
        <ele>105.46000671</ele>
        <time>2022-10-30T11:52:39Z</time>
      </trkpt>
      <trkpt lat="41.4728752" lon="2.0982172">
        <ele>105.61000824</ele>
        <time>2022-10-30T11:52:40Z</time>
      </trkpt>
      <trkpt lat="41.4728583" lon="2.0982511">
        <ele>105.73001099</ele>
        <time>2022-10-30T11:52:41Z</time>
      </trkpt>
      <trkpt lat="41.472839" lon="2.098287">
        <ele>105.84999847</ele>
        <time>2022-10-30T11:52:42Z</time>
      </trkpt>
      <trkpt lat="41.472829" lon="2.098329">
        <ele>106.01000214</ele>
        <time>2022-10-30T11:52:43Z</time>
      </trkpt>
      <trkpt lat="41.4728191" lon="2.0983889">
        <ele>106.1700058</ele>
        <time>2022-10-30T11:52:44Z</time>
      </trkpt>
      <trkpt lat="41.4728121" lon="2.0984288">
        <ele>106.39000702</ele>
        <time>2022-10-30T11:52:45Z</time>
      </trkpt>
      <trkpt lat="41.4728062" lon="2.0984628">
        <ele>106.55001068</ele>
        <time>2022-10-30T11:52:46Z</time>
      </trkpt>
      <trkpt lat="41.4728053" lon="2.0985037">
        <ele>106.68000793</ele>
        <time>2022-10-30T11:52:47Z</time>
      </trkpt>
      <trkpt lat="41.4728043" lon="2.0985547">
        <ele>106.79000854</ele>
        <time>2022-10-30T11:52:48Z</time>
      </trkpt>
      <trkpt lat="41.4728034" lon="2.0985956">
        <ele>106.8500061</ele>
        <time>2022-10-30T11:52:49Z</time>
      </trkpt>
      <trkpt lat="41.4728074" lon="2.0986345">
        <ele>106.90000916</ele>
        <time>2022-10-30T11:52:50Z</time>
      </trkpt>
      <trkpt lat="41.4728153" lon="2.0986815">
        <ele>106.93000793</ele>
        <time>2022-10-30T11:52:51Z</time>
      </trkpt>
      <trkpt lat="41.4728233" lon="2.0987224">
        <ele>106.93000793</ele>
        <time>2022-10-30T11:52:52Z</time>
      </trkpt>
      <trkpt lat="41.4728243" lon="2.0987723">
        <ele>106.94001007</ele>
        <time>2022-10-30T11:52:53Z</time>
      </trkpt>
      <trkpt lat="41.4728214" lon="2.0988023">
        <ele>106.98001099</ele>
        <time>2022-10-30T11:52:54Z</time>
      </trkpt>
      <trkpt lat="41.4728174" lon="2.0988332">
        <ele>107.06001282</ele>
        <time>2022-10-30T11:52:55Z</time>
      </trkpt>
      <trkpt lat="41.4728055" lon="2.0988601">
        <ele>107.20001221</ele>
        <time>2022-10-30T11:52:56Z</time>
      </trkpt>
      <trkpt lat="41.4727895" lon="2.0988741">
        <ele>107.31001282</ele>
        <time>2022-10-30T11:52:57Z</time>
      </trkpt>
      <trkpt lat="41.4727596" lon="2.0988781">
        <ele>107.37001038</ele>
        <time>2022-10-30T11:52:58Z</time>
      </trkpt>
      <trkpt lat="41.4727376" lon="2.0988722">
        <ele>107.36000824</ele>
        <time>2022-10-30T11:52:59Z</time>
      </trkpt>
      <trkpt lat="41.4727116" lon="2.0988602">
        <ele>107.28000641</ele>
        <time>2022-10-30T11:53:00Z</time>
      </trkpt>
      <trkpt lat="41.4726847" lon="2.0988493">
        <ele>107.20000458</ele>
        <time>2022-10-30T11:53:01Z</time>
      </trkpt>
      <trkpt lat="41.4726497" lon="2.0988323">
        <ele>107.14000702</ele>
        <time>2022-10-30T11:53:02Z</time>
      </trkpt>
      <trkpt lat="41.4726228" lon="2.0988274">
        <ele>107.1000061</ele>
        <time>2022-10-30T11:53:03Z</time>
      </trkpt>
      <trkpt lat="41.4725978" lon="2.0988274">
        <ele>107.08000946</ele>
        <time>2022-10-30T11:53:04Z</time>
      </trkpt>
      <trkpt lat="41.4725758" lon="2.0988274">
        <ele>107.0900116</ele>
        <time>2022-10-30T11:53:05Z</time>
      </trkpt>
      <trkpt lat="41.4725598" lon="2.0988264">
        <ele>107.07001495</ele>
        <time>2022-10-30T11:53:06Z</time>
      </trkpt>
      <trkpt lat="41.4725318" lon="2.0988274">
        <ele>107.07001495</ele>
        <time>2022-10-30T11:53:07Z</time>
      </trkpt>
      <trkpt lat="41.4725189" lon="2.0988274">
        <ele>107.0900116</ele>
        <time>2022-10-30T11:53:08Z</time>
      </trkpt>
      <trkpt lat="41.4725079" lon="2.0988274">
        <ele>107.0900116</ele>
        <time>2022-10-30T11:53:09Z</time>
      </trkpt>
      <trkpt lat="41.472505" lon="2.0988254">
        <ele>107.12001038</ele>
        <time>2022-10-30T11:53:10Z</time>
      </trkpt>
      <trkpt lat="41.472489" lon="2.0988159">
        <ele>106.55000305</ele>
        <time>2022-10-30T11:54:42Z</time>
      </trkpt>
      <trkpt lat="41.4725109" lon="2.0988289">
        <ele>106.38999939</ele>
        <time>2022-10-30T11:54:43Z</time>
      </trkpt>
      <trkpt lat="41.4725369" lon="2.0988429">
        <ele>106.19000244</ele>
        <time>2022-10-30T11:54:44Z</time>
      </trkpt>
      <trkpt lat="41.4725619" lon="2.0988569">
        <ele>106.1000061</ele>
        <time>2022-10-30T11:54:45Z</time>
      </trkpt>
      <trkpt lat="41.4726048" lon="2.0988828">
        <ele>106.03000641</ele>
        <time>2022-10-30T11:54:46Z</time>
      </trkpt>
      <trkpt lat="41.4726317" lon="2.0988968">
        <ele>106.08000946</ele>
        <time>2022-10-30T11:54:47Z</time>
      </trkpt>
      <trkpt lat="41.4726577" lon="2.0989047">
        <ele>106.1700058</ele>
        <time>2022-10-30T11:54:48Z</time>
      </trkpt>
      <trkpt lat="41.4726836" lon="2.0989117">
        <ele>106.19000244</ele>
        <time>2022-10-30T11:54:49Z</time>
      </trkpt>
      <trkpt lat="41.4727175" lon="2.0989197">
        <ele>106.19000244</ele>
        <time>2022-10-30T11:54:50Z</time>
      </trkpt>
      <trkpt lat="41.4727324" lon="2.0989078">
        <ele>106.20999908</ele>
        <time>2022-10-30T11:54:51Z</time>
      </trkpt>
      <trkpt lat="41.4727404" lon="2.0988918">
        <ele>106.26000214</ele>
        <time>2022-10-30T11:54:52Z</time>
      </trkpt>
      <trkpt lat="41.4727504" lon="2.0988778">
        <ele>106.30000305</ele>
        <time>2022-10-30T11:54:53Z</time>
      </trkpt>
      <trkpt lat="41.4727584" lon="2.0988529">
        <ele>106.31999969</ele>
        <time>2022-10-30T11:54:54Z</time>
      </trkpt>
      <trkpt lat="41.4727534" lon="2.0988039">
        <ele>106.29000092</ele>
        <time>2022-10-30T11:54:55Z</time>
      </trkpt>
      <trkpt lat="41.4727445" lon="2.098768">
        <ele>106.22000122</ele>
        <time>2022-10-30T11:54:56Z</time>
      </trkpt>
      <trkpt lat="41.4727425" lon="2.098731">
        <ele>106.20999908</ele>
        <time>2022-10-30T11:54:57Z</time>
      </trkpt>
      <trkpt lat="41.4727396" lon="2.0986771">
        <ele>106.13999939</ele>
        <time>2022-10-30T11:54:58Z</time>
      </trkpt>
      <trkpt lat="41.4727446" lon="2.0986112">
        <ele>106.05999756</ele>
        <time>2022-10-30T11:54:59Z</time>
      </trkpt>
      <trkpt lat="41.4727455" lon="2.0985602">
        <ele>105.97000122</ele>
        <time>2022-10-30T11:55:00Z</time>
      </trkpt>
      <trkpt lat="41.4727524" lon="2.0985043">
        <ele>105.88000488</ele>
        <time>2022-10-30T11:55:01Z</time>
      </trkpt>
      <trkpt lat="41.4727664" lon="2.0984513">
        <ele>105.77000427</ele>
        <time>2022-10-30T11:55:02Z</time>
      </trkpt>
      <trkpt lat="41.4727814" lon="2.0984003">
        <ele>105.6700058</ele>
        <time>2022-10-30T11:55:03Z</time>
      </trkpt>
      <trkpt lat="41.4728083" lon="2.0983274">
        <ele>105.49000549</ele>
        <time>2022-10-30T11:55:04Z</time>
      </trkpt>
      <trkpt lat="41.4728252" lon="2.0982764">
        <ele>105.30000305</ele>
        <time>2022-10-30T11:55:05Z</time>
      </trkpt>
      <trkpt lat="41.4728442" lon="2.0982305">
        <ele>105.1700058</ele>
        <time>2022-10-30T11:55:06Z</time>
      </trkpt>
      <trkpt lat="41.4728602" lon="2.0981825">
        <ele>105.08000946</ele>
        <time>2022-10-30T11:55:07Z</time>
      </trkpt>
      <trkpt lat="41.4728921" lon="2.0981145">
        <ele>105.01000977</ele>
        <time>2022-10-30T11:55:08Z</time>
      </trkpt>
      <trkpt lat="41.4729171" lon="2.0980766">
        <ele>104.94001007</ele>
        <time>2022-10-30T11:55:09Z</time>
      </trkpt>
      <trkpt lat="41.47294" lon="2.0980397">
        <ele>104.90000916</ele>
        <time>2022-10-30T11:55:10Z</time>
      </trkpt>
      <trkpt lat="41.4729629" lon="2.0980128">
        <ele>104.79000854</ele>
        <time>2022-10-30T11:55:11Z</time>
      </trkpt>
      <trkpt lat="41.4729828" lon="2.0979858">
        <ele>104.74000549</ele>
        <time>2022-10-30T11:55:12Z</time>
      </trkpt>
      <trkpt lat="41.4730218" lon="2.0979519">
        <ele>104.66000366</ele>
        <time>2022-10-30T11:55:13Z</time>
      </trkpt>
      <trkpt lat="41.4730527" lon="2.0979499">
        <ele>104.48000336</ele>
        <time>2022-10-30T11:55:14Z</time>
      </trkpt>
      <trkpt lat="41.4730927" lon="2.0979509">
        <ele>104.31999969</ele>
        <time>2022-10-30T11:55:15Z</time>
      </trkpt>
      <trkpt lat="41.4731377" lon="2.0979609">
        <ele>104.13999939</ele>
        <time>2022-10-30T11:55:16Z</time>
      </trkpt>
      <trkpt lat="41.4732096" lon="2.0979769">
        <ele>103.90000153</ele>
        <time>2022-10-30T11:55:17Z</time>
      </trkpt>
      <trkpt lat="41.4732605" lon="2.0979869">
        <ele>103.69000244</ele>
        <time>2022-10-30T11:55:18Z</time>
      </trkpt>
      <trkpt lat="41.4733135" lon="2.0980018">
        <ele>103.52000427</ele>
        <time>2022-10-30T11:55:19Z</time>
      </trkpt>
      <trkpt lat="41.4733594" lon="2.0980167">
        <ele>103.37000275</ele>
        <time>2022-10-30T11:55:20Z</time>
      </trkpt>
      <trkpt lat="41.4734184" lon="2.0980108">
        <ele>103.38000488</ele>
        <time>2022-10-30T11:55:21Z</time>
      </trkpt>
      <trkpt lat="41.4734404" lon="2.0979829">
        <ele>103.48000336</ele>
        <time>2022-10-30T11:55:22Z</time>
      </trkpt>
      <trkpt lat="41.4734474" lon="2.097952">
        <ele>103.70000458</ele>
        <time>2022-10-30T11:55:23Z</time>
      </trkpt>
      <trkpt lat="41.4734464" lon="2.097921">
        <ele>104.00000763</ele>
        <time>2022-10-30T11:55:24Z</time>
      </trkpt>
      <trkpt lat="41.4734445" lon="2.0978921">
        <ele>104.37001038</ele>
        <time>2022-10-30T11:55:25Z</time>
      </trkpt>
      <trkpt lat="41.4734335" lon="2.0978471">
        <ele>104.13001251</ele>
        <time>2022-10-30T11:55:26Z</time>
      </trkpt>
      <trkpt lat="41.4734205" lon="2.0978151">
        <ele>104.60001373</ele>
        <time>2022-10-30T11:55:27Z</time>
      </trkpt>
      <trkpt lat="41.4734136" lon="2.0977812">
        <ele>105.10001373</ele>
        <time>2022-10-30T11:55:28Z</time>
      </trkpt>
      <trkpt lat="41.4734056" lon="2.0977412">
        <ele>105.57001495</ele>
        <time>2022-10-30T11:55:29Z</time>
      </trkpt>
      <trkpt lat="41.4733976" lon="2.0977092">
        <ele>106.04001617</ele>
        <time>2022-10-30T11:55:30Z</time>
      </trkpt>
      <trkpt lat="41.4733756" lon="2.0976742">
        <ele>106.52001953</ele>
        <time>2022-10-30T11:55:31Z</time>
      </trkpt>
      <trkpt lat="41.4733657" lon="2.0976612">
        <ele>106.93002319</ele>
        <time>2022-10-30T11:55:32Z</time>
      </trkpt>
      <trkpt lat="41.4733467" lon="2.0976503">
        <ele>107.21002197</ele>
        <time>2022-10-30T11:55:33Z</time>
      </trkpt>
      <trkpt lat="41.4733287" lon="2.0976433">
        <ele>107.41001892</ele>
        <time>2022-10-30T11:55:34Z</time>
      </trkpt>
      <trkpt lat="41.4732998" lon="2.0976404">
        <ele>107.49002075</ele>
        <time>2022-10-30T11:55:35Z</time>
      </trkpt>
      <trkpt lat="41.4732698" lon="2.0976453">
        <ele>107.50002289</ele>
        <time>2022-10-30T11:55:36Z</time>
      </trkpt>
      <trkpt lat="41.4732349" lon="2.0976473">
        <ele>107.52001953</ele>
        <time>2022-10-30T11:55:37Z</time>
      </trkpt>
      <trkpt lat="41.4731989" lon="2.0976492">
        <ele>107.50002289</ele>
        <time>2022-10-30T11:55:38Z</time>
      </trkpt>
      <trkpt lat="41.4731569" lon="2.0976532">
        <ele>107.49002075</ele>
        <time>2022-10-30T11:55:39Z</time>
      </trkpt>
      <trkpt lat="41.4730869" lon="2.0976452">
        <ele>107.48001862</ele>
        <time>2022-10-30T11:55:40Z</time>
      </trkpt>
      <trkpt lat="41.473039" lon="2.0976383">
        <ele>107.48001862</ele>
        <time>2022-10-30T11:55:41Z</time>
      </trkpt>
      <trkpt lat="41.4729901" lon="2.0976333">
        <ele>107.5100174</ele>
        <time>2022-10-30T11:55:42Z</time>
      </trkpt>
      <trkpt lat="41.4729392" lon="2.0976323">
        <ele>107.54001617</ele>
        <time>2022-10-30T11:55:43Z</time>
      </trkpt>
      <trkpt lat="41.4728683" lon="2.0976214">
        <ele>107.57001495</ele>
        <time>2022-10-30T11:55:44Z</time>
      </trkpt>
      <trkpt lat="41.4728223" lon="2.0976084">
        <ele>107.54001617</ele>
        <time>2022-10-30T11:55:45Z</time>
      </trkpt>
      <trkpt lat="41.4727784" lon="2.0975944">
        <ele>107.5100174</ele>
        <time>2022-10-30T11:55:46Z</time>
      </trkpt>
      <trkpt lat="41.4727344" lon="2.0975805">
        <ele>107.53001404</ele>
        <time>2022-10-30T11:55:47Z</time>
      </trkpt>
      <trkpt lat="41.4726934" lon="2.0975595">
        <ele>107.57001495</ele>
        <time>2022-10-30T11:55:48Z</time>
      </trkpt>
      <trkpt lat="41.4726405" lon="2.0975275">
        <ele>107.67001343</ele>
        <time>2022-10-30T11:55:49Z</time>
      </trkpt>
      <trkpt lat="41.4726115" lon="2.0975066">
        <ele>107.75001526</ele>
        <time>2022-10-30T11:55:50Z</time>
      </trkpt>
      <trkpt lat="41.4725986" lon="2.0974866">
        <ele>107.79001617</ele>
        <time>2022-10-30T11:55:51Z</time>
      </trkpt>
      <trkpt lat="41.4726055" lon="2.0974677">
        <ele>107.79001617</ele>
        <time>2022-10-30T11:55:52Z</time>
      </trkpt>
      <trkpt lat="41.4726284" lon="2.0974418">
        <ele>107.79001617</ele>
        <time>2022-10-30T11:55:53Z</time>
      </trkpt>
      <trkpt lat="41.4726414" lon="2.0974248">
        <ele>107.78001404</ele>
        <time>2022-10-30T11:55:54Z</time>
      </trkpt>
      <trkpt lat="41.4726554" lon="2.0974108">
        <ele>107.75001526</ele>
        <time>2022-10-30T11:55:55Z</time>
      </trkpt>
      <trkpt lat="41.4726643" lon="2.0973909">
        <ele>107.72001648</ele>
        <time>2022-10-30T11:55:56Z</time>
      </trkpt>
      <trkpt lat="41.4726713" lon="2.097372">
        <ele>107.66001892</ele>
        <time>2022-10-30T11:55:57Z</time>
      </trkpt>
      <trkpt lat="41.4726742" lon="2.09734">
        <ele>107.63002014</ele>
        <time>2022-10-30T11:55:58Z</time>
      </trkpt>
      <trkpt lat="41.4726771" lon="2.097322">
        <ele>107.59001923</ele>
        <time>2022-10-30T11:55:59Z</time>
      </trkpt>
      <trkpt lat="41.4726731" lon="2.0973011">
        <ele>107.60002136</ele>
        <time>2022-10-30T11:56:00Z</time>
      </trkpt>
      <trkpt lat="41.4726642" lon="2.0972792">
        <ele>107.66001892</ele>
        <time>2022-10-30T11:56:01Z</time>
      </trkpt>
      <trkpt lat="41.4726383" lon="2.0972513">
        <ele>107.73001862</ele>
        <time>2022-10-30T11:56:02Z</time>
      </trkpt>
      <trkpt lat="41.4726094" lon="2.0972253">
        <ele>107.82001495</ele>
        <time>2022-10-30T11:56:03Z</time>
      </trkpt>
      <trkpt lat="41.4725785" lon="2.0972013">
        <ele>107.88001251</ele>
        <time>2022-10-30T11:56:04Z</time>
      </trkpt>
      <trkpt lat="41.4725485" lon="2.0971724">
        <ele>107.94001007</ele>
        <time>2022-10-30T11:56:05Z</time>
      </trkpt>
      <trkpt lat="41.4725015" lon="2.0971294">
        <ele>107.96000671</ele>
        <time>2022-10-30T11:56:06Z</time>
      </trkpt>
      <trkpt lat="41.4724706" lon="2.0971004">
        <ele>108.01000977</ele>
        <time>2022-10-30T11:56:07Z</time>
      </trkpt>
      <trkpt lat="41.4724417" lon="2.0970684">
        <ele>108.07000732</ele>
        <time>2022-10-30T11:56:08Z</time>
      </trkpt>
      <trkpt lat="41.4724117" lon="2.0970355">
        <ele>108.07000732</ele>
        <time>2022-10-30T11:56:09Z</time>
      </trkpt>
      <trkpt lat="41.4723798" lon="2.0969985">
        <ele>108.1000061</ele>
        <time>2022-10-30T11:56:10Z</time>
      </trkpt>
      <trkpt lat="41.4723298" lon="2.0969436">
        <ele>108.09000397</ele>
        <time>2022-10-30T11:56:11Z</time>
      </trkpt>
      <trkpt lat="41.4722968" lon="2.0969116">
        <ele>108.1000061</ele>
        <time>2022-10-30T11:56:12Z</time>
      </trkpt>
      <trkpt lat="41.4722629" lon="2.0968716">
        <ele>108.16000366</ele>
        <time>2022-10-30T11:56:13Z</time>
      </trkpt>
      <trkpt lat="41.472233" lon="2.0968347">
        <ele>108.22000122</ele>
        <time>2022-10-30T11:56:14Z</time>
      </trkpt>
      <trkpt lat="41.472201" lon="2.0967968">
        <ele>108.27000427</ele>
        <time>2022-10-30T11:56:15Z</time>
      </trkpt>
      <trkpt lat="41.472165" lon="2.0967508">
        <ele>108.26000214</ele>
        <time>2022-10-30T11:56:16Z</time>
      </trkpt>
      <trkpt lat="41.4721441" lon="2.0967199">
        <ele>108.29000092</ele>
        <time>2022-10-30T11:56:17Z</time>
      </trkpt>
      <trkpt lat="41.4721242" lon="2.0966909">
        <ele>108.36000061</ele>
        <time>2022-10-30T11:56:18Z</time>
      </trkpt>
      <trkpt lat="41.4721112" lon="2.0966619">
        <ele>108.38999939</ele>
        <time>2022-10-30T11:56:19Z</time>
      </trkpt>
      <trkpt lat="41.4721062" lon="2.096619">
        <ele>108.51000214</ele>
        <time>2022-10-30T11:56:20Z</time>
      </trkpt>
      <trkpt lat="41.4721013" lon="2.096595">
        <ele>108.55000305</ele>
        <time>2022-10-30T11:56:21Z</time>
      </trkpt>
      <trkpt lat="41.4720963" lon="2.0965901">
        <ele>108.54000092</ele>
        <time>2022-10-30T11:56:22Z</time>
      </trkpt>
      <trkpt lat="41.4720893" lon="2.0965761">
        <ele>108.62000275</ele>
        <time>2022-10-30T11:56:23Z</time>
      </trkpt>
      <trkpt lat="41.4720889" lon="2.0965729">
        <ele>108.68000031</ele>
        <time>2022-10-30T11:56:23Z</time>
      </trkpt>
    </trkseg>
  </trk>
</gpx>
